<?xml version="1.0" encoding="UTF-8"?>
<TrainingCenterDatabase xmlns="http://www.garmin.com/xmlschemas/TrainingCenterDatabase/v2" xmlns:xsi="http://www.w3.org/2001/XMLSchema-instance" xsi:schemaLocation="http://www.garmin.com/xmlschemas/TrainingCenterDatabase/v2 http://www.garmin.com/xmlschemas/TrainingCenterDatabasev2.xsd">
  <Activities>
    <Activity Sport="Other">
      <Id>2019-07-26T08:24:13.000Z</Id>
      <Lap StartTime="2019-07-26T08:24:13.000Z">
        <TotalTimeSeconds>28652</TotalTimeSeconds>
        <DistanceMeters>103300</DistanceMeters>
        <Track>
          <Trackpoint>
            <Time>2019-07-26T08:24:13.000Z</Time>
            <Position>
              <LatitudeDegrees>43.007765114307403564453125</LatitudeDegrees>
              <LongitudeDegrees>-7.5597871653735637664794921875</LongitudeDegrees>
            </Position>
            <AltitudeMeters>446</AltitudeMeters>
            <DistanceMeters>0</DistanceMeters>
          </Trackpoint>
          <Trackpoint>
            <Time>2019-07-26T08:24:14.000Z</Time>
            <Position>
              <LatitudeDegrees>43.00776469521224498748779296875</LatitudeDegrees>
              <LongitudeDegrees>-7.559786997735500335693359375</LongitudeDegrees>
            </Position>
            <AltitudeMeters>446.20001220703125</AltitudeMeters>
            <DistanceMeters>0</DistanceMeters>
          </Trackpoint>
          <Trackpoint>
            <Time>2019-07-26T08:28:13.000Z</Time>
            <Position>
              <LatitudeDegrees>43.008890636265277862548828125</LatitudeDegrees>
              <LongitudeDegrees>-7.558962218463420867919921875</LongitudeDegrees>
            </Position>
            <AltitudeMeters>445.600006103515625</AltitudeMeters>
            <DistanceMeters>142.16631661163</DistanceMeters>
          </Trackpoint>
          <Trackpoint>
            <Time>2019-07-26T08:28:14.000Z</Time>
            <Position>
              <LatitudeDegrees>43.00889323465526103973388671875</LatitudeDegrees>
              <LongitudeDegrees>-7.5589627213776111602783203125</LongitudeDegrees>
            </Position>
            <AltitudeMeters>445.600006103515625</AltitudeMeters>
            <DistanceMeters>142.4668174676</DistanceMeters>
          </Trackpoint>
          <Trackpoint>
            <Time>2019-07-26T08:28:25.000Z</Time>
            <Position>
              <LatitudeDegrees>43.00886373035609722137451171875</LatitudeDegrees>
              <LongitudeDegrees>-7.5590096600353717803955078125</LongitudeDegrees>
            </Position>
            <AltitudeMeters>445</AltitudeMeters>
            <DistanceMeters>147.50412972788</DistanceMeters>
          </Trackpoint>
          <Trackpoint>
            <Time>2019-07-26T08:28:26.000Z</Time>
            <Position>
              <LatitudeDegrees>43.00884059630334377288818359375</LatitudeDegrees>
              <LongitudeDegrees>-7.5590264238417148590087890625</LongitudeDegrees>
            </Position>
            <AltitudeMeters>445</AltitudeMeters>
            <DistanceMeters>150.41759362114</DistanceMeters>
          </Trackpoint>
          <Trackpoint>
            <Time>2019-07-26T08:28:29.000Z</Time>
            <Position>
              <LatitudeDegrees>43.00883942283689975738525390625</LatitudeDegrees>
              <LongitudeDegrees>-7.559054754674434661865234375</LongitudeDegrees>
            </Position>
            <AltitudeMeters>445</AltitudeMeters>
            <DistanceMeters>152.72969337132</DistanceMeters>
          </Trackpoint>
          <Trackpoint>
            <Time>2019-07-26T08:28:32.000Z</Time>
            <Position>
              <LatitudeDegrees>43.00893397070467472076416015625</LatitudeDegrees>
              <LongitudeDegrees>-7.55912952125072479248046875</LongitudeDegrees>
            </Position>
            <AltitudeMeters>444.79998779296875</AltitudeMeters>
            <DistanceMeters>164.88642940867</DistanceMeters>
          </Trackpoint>
          <Trackpoint>
            <Time>2019-07-26T08:28:35.000Z</Time>
            <Position>
              <LatitudeDegrees>43.0090557597577571868896484375</LatitudeDegrees>
              <LongitudeDegrees>-7.5592741928994655609130859375</LongitudeDegrees>
            </Position>
            <AltitudeMeters>444.399993896484375</AltitudeMeters>
            <DistanceMeters>182.84144985215</DistanceMeters>
          </Trackpoint>
          <Trackpoint>
            <Time>2019-07-26T08:28:36.000Z</Time>
            <Position>
              <LatitudeDegrees>43.009103201329708099365234375</LatitudeDegrees>
              <LongitudeDegrees>-7.5593389011919498443603515625</LongitudeDegrees>
            </Position>
            <AltitudeMeters>444.20001220703125</AltitudeMeters>
            <DistanceMeters>190.29907955725</DistanceMeters>
          </Trackpoint>
          <Trackpoint>
            <Time>2019-07-26T08:28:37.000Z</Time>
            <Position>
              <LatitudeDegrees>43.00915324129164218902587890625</LatitudeDegrees>
              <LongitudeDegrees>-7.55940805189311504364013671875</LongitudeDegrees>
            </Position>
            <AltitudeMeters>443.79998779296875</AltitudeMeters>
            <DistanceMeters>198.21714881373</DistanceMeters>
          </Trackpoint>
          <Trackpoint>
            <Time>2019-07-26T08:28:39.000Z</Time>
            <Position>
              <LatitudeDegrees>43.00925306975841522216796875</LatitudeDegrees>
              <LongitudeDegrees>-7.559552304446697235107421875</LongitudeDegrees>
            </Position>
            <AltitudeMeters>443.600006103515625</AltitudeMeters>
            <DistanceMeters>214.38202809131</DistanceMeters>
          </Trackpoint>
          <Trackpoint>
            <Time>2019-07-26T08:28:41.000Z</Time>
            <Position>
              <LatitudeDegrees>43.00935356877744197845458984375</LatitudeDegrees>
              <LongitudeDegrees>-7.55967560224235057830810546875</LongitudeDegrees>
            </Position>
            <AltitudeMeters>443.399993896484375</AltitudeMeters>
            <DistanceMeters>229.40977515423</DistanceMeters>
          </Trackpoint>
          <Trackpoint>
            <Time>2019-07-26T08:28:44.000Z</Time>
            <Position>
              <LatitudeDegrees>43.00951450131833553314208984375</LatitudeDegrees>
              <LongitudeDegrees>-7.5598642788827419281005859375</LongitudeDegrees>
            </Position>
            <AltitudeMeters>443.20001220703125</AltitudeMeters>
            <DistanceMeters>253.003589862</DistanceMeters>
          </Trackpoint>
          <Trackpoint>
            <Time>2019-07-26T08:28:45.000Z</Time>
            <Position>
              <LatitudeDegrees>43.0095657147467136383056640625</LatitudeDegrees>
              <LongitudeDegrees>-7.55993192084133625030517578125</LongitudeDegrees>
            </Position>
            <AltitudeMeters>443</AltitudeMeters>
            <DistanceMeters>260.9284987995</DistanceMeters>
          </Trackpoint>
          <Trackpoint>
            <Time>2019-07-26T08:28:52.000Z</Time>
            <Position>
              <LatitudeDegrees>43.00992437638342380523681640625</LatitudeDegrees>
              <LongitudeDegrees>-7.5603826157748699188232421875</LongitudeDegrees>
            </Position>
            <AltitudeMeters>442.399993896484375</AltitudeMeters>
            <DistanceMeters>315.14196807531</DistanceMeters>
          </Trackpoint>
          <Trackpoint>
            <Time>2019-07-26T08:28:53.000Z</Time>
            <Position>
              <LatitudeDegrees>43.00995505414903163909912109375</LatitudeDegrees>
              <LongitudeDegrees>-7.56043584086000919342041015625</LongitudeDegrees>
            </Position>
            <AltitudeMeters>442</AltitudeMeters>
            <DistanceMeters>320.65843049394</DistanceMeters>
          </Trackpoint>
          <Trackpoint>
            <Time>2019-07-26T08:28:56.000Z</Time>
            <Position>
              <LatitudeDegrees>43.010034263134002685546875</LatitudeDegrees>
              <LongitudeDegrees>-7.56053357385098934173583984375</LongitudeDegrees>
            </Position>
            <AltitudeMeters>441.20001220703125</AltitudeMeters>
            <DistanceMeters>332.53258787861</DistanceMeters>
          </Trackpoint>
          <Trackpoint>
            <Time>2019-07-26T08:28:58.000Z</Time>
            <Position>
              <LatitudeDegrees>43.01006720401346683502197265625</LatitudeDegrees>
              <LongitudeDegrees>-7.560591660439968109130859375</LongitudeDegrees>
            </Position>
            <AltitudeMeters>440.600006103515625</AltitudeMeters>
            <DistanceMeters>338.5154987942</DistanceMeters>
          </Trackpoint>
          <Trackpoint>
            <Time>2019-07-26T08:29:00.000Z</Time>
            <Position>
              <LatitudeDegrees>43.0100863985717296600341796875</LatitudeDegrees>
              <LongitudeDegrees>-7.56068360991775989532470703125</LongitudeDegrees>
            </Position>
            <AltitudeMeters>440</AltitudeMeters>
            <DistanceMeters>346.29841295189</DistanceMeters>
          </Trackpoint>
          <Trackpoint>
            <Time>2019-07-26T08:29:01.000Z</Time>
            <Position>
              <LatitudeDegrees>43.01007877103984355926513671875</LatitudeDegrees>
              <LongitudeDegrees>-7.56075016222894191741943359375</LongitudeDegrees>
            </Position>
            <AltitudeMeters>439.79998779296875</AltitudeMeters>
            <DistanceMeters>351.78121556387</DistanceMeters>
          </Trackpoint>
          <Trackpoint>
            <Time>2019-07-26T08:29:03.000Z</Time>
            <Position>
              <LatitudeDegrees>43.01002688705921173095703125</LatitudeDegrees>
              <LongitudeDegrees>-7.5608942471444606781005859375</LongitudeDegrees>
            </Position>
            <AltitudeMeters>439.399993896484375</AltitudeMeters>
            <DistanceMeters>364.85283009585</DistanceMeters>
          </Trackpoint>
          <Trackpoint>
            <Time>2019-07-26T08:29:04.000Z</Time>
            <Position>
              <LatitudeDegrees>43.0099921859800815582275390625</LatitudeDegrees>
              <LongitudeDegrees>-7.56097027100622653961181640625</LongitudeDegrees>
            </Position>
            <AltitudeMeters>439.399993896484375</AltitudeMeters>
            <DistanceMeters>372.14702027762</DistanceMeters>
          </Trackpoint>
          <Trackpoint>
            <Time>2019-07-26T08:29:06.000Z</Time>
            <Position>
              <LatitudeDegrees>43.0099149048328399658203125</LatitudeDegrees>
              <LongitudeDegrees>-7.56114847026765346527099609375</LongitudeDegrees>
            </Position>
            <AltitudeMeters>439.20001220703125</AltitudeMeters>
            <DistanceMeters>389.00910843392</DistanceMeters>
          </Trackpoint>
          <Trackpoint>
            <Time>2019-07-26T08:29:08.000Z</Time>
            <Position>
              <LatitudeDegrees>43.0098349414765834808349609375</LatitudeDegrees>
              <LongitudeDegrees>-7.56132180802524089813232421875</LongitudeDegrees>
            </Position>
            <AltitudeMeters>439</AltitudeMeters>
            <DistanceMeters>405.68947759624</DistanceMeters>
          </Trackpoint>
          <Trackpoint>
            <Time>2019-07-26T08:29:12.000Z</Time>
            <Position>
              <LatitudeDegrees>43.00970594398677349090576171875</LatitudeDegrees>
              <LongitudeDegrees>-7.56161416880786418914794921875</LongitudeDegrees>
            </Position>
            <AltitudeMeters>438.79998779296875</AltitudeMeters>
            <DistanceMeters>433.48020227372</DistanceMeters>
          </Trackpoint>
          <Trackpoint>
            <Time>2019-07-26T08:29:14.000Z</Time>
            <Position>
              <LatitudeDegrees>43.00964626483619213104248046875</LatitudeDegrees>
              <LongitudeDegrees>-7.56175138056278228759765625</LongitudeDegrees>
            </Position>
            <AltitudeMeters>438.399993896484375</AltitudeMeters>
            <DistanceMeters>446.47352014085</DistanceMeters>
          </Trackpoint>
          <Trackpoint>
            <Time>2019-07-26T08:29:16.000Z</Time>
            <Position>
              <LatitudeDegrees>43.00959580577909946441650390625</LatitudeDegrees>
              <LongitudeDegrees>-7.56186663173139095306396484375</LongitudeDegrees>
            </Position>
            <AltitudeMeters>437.600006103515625</AltitudeMeters>
            <DistanceMeters>457.40654908477</DistanceMeters>
          </Trackpoint>
          <Trackpoint>
            <Time>2019-07-26T08:29:17.000Z</Time>
            <Position>
              <LatitudeDegrees>43.00957753323018550872802734375</LatitudeDegrees>
              <LongitudeDegrees>-7.56191591732203960418701171875</LongitudeDegrees>
            </Position>
            <AltitudeMeters>437</AltitudeMeters>
            <DistanceMeters>461.90303005972</DistanceMeters>
          </Trackpoint>
          <Trackpoint>
            <Time>2019-07-26T08:29:18.000Z</Time>
            <Position>
              <LatitudeDegrees>43.00956328399479389190673828125</LatitudeDegrees>
              <LongitudeDegrees>-7.56196335889399051666259765625</LongitudeDegrees>
            </Position>
            <AltitudeMeters>436</AltitudeMeters>
            <DistanceMeters>466.0766397037</DistanceMeters>
          </Trackpoint>
          <Trackpoint>
            <Time>2019-07-26T08:29:19.000Z</Time>
            <Position>
              <LatitudeDegrees>43.0095466040074825286865234375</LatitudeDegrees>
              <LongitudeDegrees>-7.56200753152370452880859375</LongitudeDegrees>
            </Position>
            <AltitudeMeters>435</AltitudeMeters>
            <DistanceMeters>470.12281426653</DistanceMeters>
          </Trackpoint>
          <Trackpoint>
            <Time>2019-07-26T08:29:20.000Z</Time>
            <Position>
              <LatitudeDegrees>43.00952673889696598052978515625</LatitudeDegrees>
              <LongitudeDegrees>-7.56205354817211627960205078125</LongitudeDegrees>
            </Position>
            <AltitudeMeters>433.399993896484375</AltitudeMeters>
            <DistanceMeters>474.47229816121</DistanceMeters>
          </Trackpoint>
          <Trackpoint>
            <Time>2019-07-26T08:29:22.000Z</Time>
            <Position>
              <LatitudeDegrees>43.00949203781783580780029296875</LatitudeDegrees>
              <LongitudeDegrees>-7.562146000564098358154296875</LongitudeDegrees>
            </Position>
            <AltitudeMeters>432.20001220703125</AltitudeMeters>
            <DistanceMeters>482.93020958124</DistanceMeters>
          </Trackpoint>
          <Trackpoint>
            <Time>2019-07-26T08:29:24.000Z</Time>
            <Position>
              <LatitudeDegrees>43.00947041250765323638916015625</LatitudeDegrees>
              <LongitudeDegrees>-7.56221003830432891845703125</LongitudeDegrees>
            </Position>
            <AltitudeMeters>430.600006103515625</AltitudeMeters>
            <DistanceMeters>488.6712703735</DistanceMeters>
          </Trackpoint>
          <Trackpoint>
            <Time>2019-07-26T08:29:26.000Z</Time>
            <Position>
              <LatitudeDegrees>43.0094557441771030426025390625</LatitudeDegrees>
              <LongitudeDegrees>-7.56224599666893482208251953125</LongitudeDegrees>
            </Position>
            <AltitudeMeters>429.399993896484375</AltitudeMeters>
            <DistanceMeters>492.02289909642</DistanceMeters>
          </Trackpoint>
          <Trackpoint>
            <Time>2019-07-26T08:29:30.000Z</Time>
            <Position>
              <LatitudeDegrees>43.00942380912601947784423828125</LatitudeDegrees>
              <LongitudeDegrees>-7.562295533716678619384765625</LongitudeDegrees>
            </Position>
            <AltitudeMeters>428</AltitudeMeters>
            <DistanceMeters>497.39758183535</DistanceMeters>
          </Trackpoint>
          <Trackpoint>
            <Time>2019-07-26T08:29:33.000Z</Time>
            <Position>
              <LatitudeDegrees>43.00935407169163227081298828125</LatitudeDegrees>
              <LongitudeDegrees>-7.56236267276108264923095703125</LongitudeDegrees>
            </Position>
            <AltitudeMeters>426.600006103515625</AltitudeMeters>
            <DistanceMeters>506.89074584482</DistanceMeters>
          </Trackpoint>
          <Trackpoint>
            <Time>2019-07-26T08:29:34.000Z</Time>
            <Position>
              <LatitudeDegrees>43.009334541857242584228515625</LatitudeDegrees>
              <LongitudeDegrees>-7.562376670539379119873046875</LongitudeDegrees>
            </Position>
            <AltitudeMeters>426.399993896484375</AltitudeMeters>
            <DistanceMeters>509.34677741314</DistanceMeters>
          </Trackpoint>
          <Trackpoint>
            <Time>2019-07-26T08:29:36.000Z</Time>
            <Position>
              <LatitudeDegrees>43.00932691432535648345947265625</LatitudeDegrees>
              <LongitudeDegrees>-7.56238480098545551300048828125</LongitudeDegrees>
            </Position>
            <AltitudeMeters>426.20001220703125</AltitudeMeters>
            <DistanceMeters>510.42188195914</DistanceMeters>
          </Trackpoint>
          <Trackpoint>
            <Time>2019-07-26T08:32:03.000Z</Time>
            <Position>
              <LatitudeDegrees>43.00928416661918163299560546875</LatitudeDegrees>
              <LongitudeDegrees>-7.56241430528461933135986328125</LongitudeDegrees>
            </Position>
            <AltitudeMeters>425.20001220703125</AltitudeMeters>
            <DistanceMeters>515.75016126298</DistanceMeters>
          </Trackpoint>
          <Trackpoint>
            <Time>2019-07-26T08:32:04.000Z</Time>
            <Position>
              <LatitudeDegrees>43.0092622898519039154052734375</LatitudeDegrees>
              <LongitudeDegrees>-7.562439031898975372314453125</LongitudeDegrees>
            </Position>
            <AltitudeMeters>425.20001220703125</AltitudeMeters>
            <DistanceMeters>518.90899561612</DistanceMeters>
          </Trackpoint>
          <Trackpoint>
            <Time>2019-07-26T08:32:06.000Z</Time>
            <Position>
              <LatitudeDegrees>43.0092176981270313262939453125</LatitudeDegrees>
              <LongitudeDegrees>-7.5625032372772693634033203125</LongitudeDegrees>
            </Position>
            <AltitudeMeters>425.20001220703125</AltitudeMeters>
            <DistanceMeters>526.11475300537</DistanceMeters>
          </Trackpoint>
          <Trackpoint>
            <Time>2019-07-26T08:32:07.000Z</Time>
            <Position>
              <LatitudeDegrees>43.00919565372169017791748046875</LatitudeDegrees>
              <LongitudeDegrees>-7.56254858337342739105224609375</LongitudeDegrees>
            </Position>
            <AltitudeMeters>425.20001220703125</AltitudeMeters>
            <DistanceMeters>530.54548502042</DistanceMeters>
          </Trackpoint>
          <Trackpoint>
            <Time>2019-07-26T08:32:08.000Z</Time>
            <Position>
              <LatitudeDegrees>43.00917788408696651458740234375</LatitudeDegrees>
              <LongitudeDegrees>-7.56259619258344173431396484375</LongitudeDegrees>
            </Position>
            <AltitudeMeters>425.399993896484375</AltitudeMeters>
            <DistanceMeters>534.8949689151</DistanceMeters>
          </Trackpoint>
          <Trackpoint>
            <Time>2019-07-26T08:32:10.000Z</Time>
            <Position>
              <LatitudeDegrees>43.00916128791868686676025390625</LatitudeDegrees>
              <LongitudeDegrees>-7.56271001882851123809814453125</LongitudeDegrees>
            </Position>
            <AltitudeMeters>425.399993896484375</AltitudeMeters>
            <DistanceMeters>544.34140821354</DistanceMeters>
          </Trackpoint>
          <Trackpoint>
            <Time>2019-07-26T08:32:12.000Z</Time>
            <Position>
              <LatitudeDegrees>43.00913848914206027984619140625</LatitudeDegrees>
              <LongitudeDegrees>-7.56285066716372966766357421875</LongitudeDegrees>
            </Position>
            <AltitudeMeters>425.600006103515625</AltitudeMeters>
            <DistanceMeters>556.06633396097</DistanceMeters>
          </Trackpoint>
          <Trackpoint>
            <Time>2019-07-26T08:32:13.000Z</Time>
            <Position>
              <LatitudeDegrees>43.00911837257444858551025390625</LatitudeDegrees>
              <LongitudeDegrees>-7.56292426027357578277587890625</LongitudeDegrees>
            </Position>
            <AltitudeMeters>425.79998779296875</AltitudeMeters>
            <DistanceMeters>562.46072104171</DistanceMeters>
          </Trackpoint>
          <Trackpoint>
            <Time>2019-07-26T08:32:16.000Z</Time>
            <Position>
              <LatitudeDegrees>43.009022735059261322021484375</LatitudeDegrees>
              <LongitudeDegrees>-7.5631057284772396087646484375</LongitudeDegrees>
            </Position>
            <AltitudeMeters>425.79998779296875</AltitudeMeters>
            <DistanceMeters>580.6662126802</DistanceMeters>
          </Trackpoint>
          <Trackpoint>
            <Time>2019-07-26T08:32:19.000Z</Time>
            <Position>
              <LatitudeDegrees>43.008855096995830535888671875</LatitudeDegrees>
              <LongitudeDegrees>-7.56325014866888523101806640625</LongitudeDegrees>
            </Position>
            <AltitudeMeters>425.79998779296875</AltitudeMeters>
            <DistanceMeters>602.71814403916</DistanceMeters>
          </Trackpoint>
          <Trackpoint>
            <Time>2019-07-26T08:32:20.000Z</Time>
            <Position>
              <LatitudeDegrees>43.00879684276878833770751953125</LatitudeDegrees>
              <LongitudeDegrees>-7.56329775787889957427978515625</LongitudeDegrees>
            </Position>
            <AltitudeMeters>425.79998779296875</AltitudeMeters>
            <DistanceMeters>610.27142299421</DistanceMeters>
          </Trackpoint>
          <Trackpoint>
            <Time>2019-07-26T08:32:21.000Z</Time>
            <Position>
              <LatitudeDegrees>43.00874051637947559356689453125</LatitudeDegrees>
              <LongitudeDegrees>-7.56335408426821231842041015625</LongitudeDegrees>
            </Position>
            <AltitudeMeters>425.79998779296875</AltitudeMeters>
            <DistanceMeters>618.03807675537</DistanceMeters>
          </Trackpoint>
          <Trackpoint>
            <Time>2019-07-26T08:32:23.000Z</Time>
            <Position>
              <LatitudeDegrees>43.0086467228829860687255859375</LatitudeDegrees>
              <LongitudeDegrees>-7.5634993426501750946044921875</LongitudeDegrees>
            </Position>
            <AltitudeMeters>425.20001220703125</AltitudeMeters>
            <DistanceMeters>633.81022137422</DistanceMeters>
          </Trackpoint>
          <Trackpoint>
            <Time>2019-07-26T08:32:24.000Z</Time>
            <Position>
              <LatitudeDegrees>43.0086054839193820953369140625</LatitudeDegrees>
              <LongitudeDegrees>-7.56358391605317592620849609375</LongitudeDegrees>
            </Position>
            <AltitudeMeters>424.79998779296875</AltitudeMeters>
            <DistanceMeters>642.08355077932</DistanceMeters>
          </Trackpoint>
          <Trackpoint>
            <Time>2019-07-26T08:32:26.000Z</Time>
            <Position>
              <LatitudeDegrees>43.0085310526192188262939453125</LatitudeDegrees>
              <LongitudeDegrees>-7.56375373341143131256103515625</LongitudeDegrees>
            </Position>
            <AltitudeMeters>424</AltitudeMeters>
            <DistanceMeters>658.19751516261</DistanceMeters>
          </Trackpoint>
          <Trackpoint>
            <Time>2019-07-26T08:32:27.000Z</Time>
            <Position>
              <LatitudeDegrees>43.00849274732172489166259765625</LatitudeDegrees>
              <LongitudeDegrees>-7.56383621133863925933837890625</LongitudeDegrees>
            </Position>
            <AltitudeMeters>423.600006103515625</AltitudeMeters>
            <DistanceMeters>666.15029174777</DistanceMeters>
          </Trackpoint>
          <Trackpoint>
            <Time>2019-07-26T08:32:29.000Z</Time>
            <Position>
              <LatitudeDegrees>43.0084096826612949371337890625</LatitudeDegrees>
              <LongitudeDegrees>-7.56399504840373992919921875</LongitudeDegrees>
            </Position>
            <AltitudeMeters>422.399993896484375</AltitudeMeters>
            <DistanceMeters>682.04391809431</DistanceMeters>
          </Trackpoint>
          <Trackpoint>
            <Time>2019-07-26T08:32:30.000Z</Time>
            <Position>
              <LatitudeDegrees>43.0083671025931835174560546875</LatitudeDegrees>
              <LongitudeDegrees>-7.56407417356967926025390625</LongitudeDegrees>
            </Position>
            <AltitudeMeters>420.399993896484375</AltitudeMeters>
            <DistanceMeters>690.03972582231</DistanceMeters>
          </Trackpoint>
          <Trackpoint>
            <Time>2019-07-26T08:32:33.000Z</Time>
            <Position>
              <LatitudeDegrees>43.008264005184173583984375</LatitudeDegrees>
              <LongitudeDegrees>-7.56428665481507778167724609375</LongitudeDegrees>
            </Position>
            <AltitudeMeters>418.79998779296875</AltitudeMeters>
            <DistanceMeters>710.79430860612</DistanceMeters>
          </Trackpoint>
          <Trackpoint>
            <Time>2019-07-26T08:32:34.000Z</Time>
            <Position>
              <LatitudeDegrees>43.00824397243559360504150390625</LatitudeDegrees>
              <LongitudeDegrees>-7.5643640197813510894775390625</LongitudeDegrees>
            </Position>
            <AltitudeMeters>418.20001220703125</AltitudeMeters>
            <DistanceMeters>717.47462579814</DistanceMeters>
          </Trackpoint>
          <Trackpoint>
            <Time>2019-07-26T08:32:35.000Z</Time>
            <Position>
              <LatitudeDegrees>43.0082237720489501953125</LatitudeDegrees>
              <LongitudeDegrees>-7.5644428096711635589599609375</LongitudeDegrees>
            </Position>
            <AltitudeMeters>417.399993896484375</AltitudeMeters>
            <DistanceMeters>724.27019869043</DistanceMeters>
          </Trackpoint>
          <Trackpoint>
            <Time>2019-07-26T08:32:36.000Z</Time>
            <Position>
              <LatitudeDegrees>43.0081929266452789306640625</LatitudeDegrees>
              <LongitudeDegrees>-7.56451665423810482025146484375</LongitudeDegrees>
            </Position>
            <AltitudeMeters>416.79998779296875</AltitudeMeters>
            <DistanceMeters>731.19216269002</DistanceMeters>
          </Trackpoint>
          <Trackpoint>
            <Time>2019-07-26T08:32:37.000Z</Time>
            <Position>
              <LatitudeDegrees>43.0081545375287532806396484375</LatitudeDegrees>
              <LongitudeDegrees>-7.56458907388150691986083984375</LongitudeDegrees>
            </Position>
            <AltitudeMeters>416</AltitudeMeters>
            <DistanceMeters>738.47272233375</DistanceMeters>
          </Trackpoint>
          <Trackpoint>
            <Time>2019-07-26T08:32:38.000Z</Time>
            <Position>
              <LatitudeDegrees>43.00810868851840496063232421875</LatitudeDegrees>
              <LongitudeDegrees>-7.56466023623943328857421875</LongitudeDegrees>
            </Position>
            <AltitudeMeters>415</AltitudeMeters>
            <DistanceMeters>746.19214423268</DistanceMeters>
          </Trackpoint>
          <Trackpoint>
            <Time>2019-07-26T08:32:39.000Z</Time>
            <Position>
              <LatitudeDegrees>43.008055798709392547607421875</LatitudeDegrees>
              <LongitudeDegrees>-7.5647284649312496185302734375</LongitudeDegrees>
            </Position>
            <AltitudeMeters>414</AltitudeMeters>
            <DistanceMeters>754.28505127824</DistanceMeters>
          </Trackpoint>
          <Trackpoint>
            <Time>2019-07-26T08:32:40.000Z</Time>
            <Position>
              <LatitudeDegrees>43.00800140015780925750732421875</LatitudeDegrees>
              <LongitudeDegrees>-7.5647961907088756561279296875</LongitudeDegrees>
            </Position>
            <AltitudeMeters>413</AltitudeMeters>
            <DistanceMeters>762.47280356565</DistanceMeters>
          </Trackpoint>
          <Trackpoint>
            <Time>2019-07-26T08:32:41.000Z</Time>
            <Position>
              <LatitudeDegrees>43.00794406794011592864990234375</LatitudeDegrees>
              <LongitudeDegrees>-7.56486752070486545562744140625</LongitudeDegrees>
            </Position>
            <AltitudeMeters>412.399993896484375</AltitudeMeters>
            <DistanceMeters>771.09984767421</DistanceMeters>
          </Trackpoint>
          <Trackpoint>
            <Time>2019-07-26T08:32:43.000Z</Time>
            <Position>
              <LatitudeDegrees>43.00783527083694934844970703125</LatitudeDegrees>
              <LongitudeDegrees>-7.56500079296529293060302734375</LongitudeDegrees>
            </Position>
            <AltitudeMeters>411</AltitudeMeters>
            <DistanceMeters>787.35719393484</DistanceMeters>
          </Trackpoint>
          <Trackpoint>
            <Time>2019-07-26T08:32:45.000Z</Time>
            <Position>
              <LatitudeDegrees>43.007778860628604888916015625</LatitudeDegrees>
              <LongitudeDegrees>-7.565079666674137115478515625</LongitudeDegrees>
            </Position>
            <AltitudeMeters>409.399993896484375</AltitudeMeters>
            <DistanceMeters>796.33709274522</DistanceMeters>
          </Trackpoint>
          <Trackpoint>
            <Time>2019-07-26T08:32:46.000Z</Time>
            <Position>
              <LatitudeDegrees>43.00776653923094272613525390625</LatitudeDegrees>
              <LongitudeDegrees>-7.5650992803275585174560546875</LongitudeDegrees>
            </Position>
            <AltitudeMeters>408.399993896484375</AltitudeMeters>
            <DistanceMeters>798.44059873702</DistanceMeters>
          </Trackpoint>
          <Trackpoint>
            <Time>2019-07-26T08:32:47.000Z</Time>
            <Position>
              <LatitudeDegrees>43.00775748677551746368408203125</LatitudeDegrees>
              <LongitudeDegrees>-7.5651147030293941497802734375</LongitudeDegrees>
            </Position>
            <AltitudeMeters>407.600006103515625</AltitudeMeters>
            <DistanceMeters>800.04764629791</DistanceMeters>
          </Trackpoint>
          <Trackpoint>
            <Time>2019-07-26T08:32:49.000Z</Time>
            <Position>
              <LatitudeDegrees>43.00774625502526760101318359375</LatitudeDegrees>
              <LongitudeDegrees>-7.56513423286378383636474609375</LongitudeDegrees>
            </Position>
            <AltitudeMeters>406</AltitudeMeters>
            <DistanceMeters>802.06794195763</DistanceMeters>
          </Trackpoint>
          <Trackpoint>
            <Time>2019-07-26T08:32:51.000Z</Time>
            <Position>
              <LatitudeDegrees>43.00773091614246368408203125</LatitudeDegrees>
              <LongitudeDegrees>-7.56514160893857479095458984375</LongitudeDegrees>
            </Position>
            <AltitudeMeters>404.399993896484375</AltitudeMeters>
            <DistanceMeters>803.87844402864</DistanceMeters>
          </Trackpoint>
          <Trackpoint>
            <Time>2019-07-26T08:32:52.000Z</Time>
            <Position>
              <LatitudeDegrees>43.00771825946867465972900390625</LatitudeDegrees>
              <LongitudeDegrees>-7.56515233777463436126708984375</LongitudeDegrees>
            </Position>
            <AltitudeMeters>403.399993896484375</AltitudeMeters>
            <DistanceMeters>805.53801424873</DistanceMeters>
          </Trackpoint>
          <Trackpoint>
            <Time>2019-07-26T08:32:54.000Z</Time>
            <Position>
              <LatitudeDegrees>43.00769579596817493438720703125</LatitudeDegrees>
              <LongitudeDegrees>-7.56520229391753673553466796875</LongitudeDegrees>
            </Position>
            <AltitudeMeters>402.600006103515625</AltitudeMeters>
            <DistanceMeters>810.31021005272</DistanceMeters>
          </Trackpoint>
          <Trackpoint>
            <Time>2019-07-26T08:32:55.000Z</Time>
            <Position>
              <LatitudeDegrees>43.00769277848303318023681640625</LatitudeDegrees>
              <LongitudeDegrees>-7.56522777490317821502685546875</LongitudeDegrees>
            </Position>
            <AltitudeMeters>402.399993896484375</AltitudeMeters>
            <DistanceMeters>812.4072668541</DistanceMeters>
          </Trackpoint>
          <Trackpoint>
            <Time>2019-07-26T08:32:58.000Z</Time>
            <Position>
              <LatitudeDegrees>43.007636368274688720703125</LatitudeDegrees>
              <LongitudeDegrees>-7.5652622245252132415771484375</LongitudeDegrees>
            </Position>
            <AltitudeMeters>402</AltitudeMeters>
            <DistanceMeters>819.28341986727</DistanceMeters>
          </Trackpoint>
          <Trackpoint>
            <Time>2019-07-26T08:33:00.000Z</Time>
            <Position>
              <LatitudeDegrees>43.00757803022861480712890625</LatitudeDegrees>
              <LongitudeDegrees>-7.565243281424045562744140625</LongitudeDegrees>
            </Position>
            <AltitudeMeters>402</AltitudeMeters>
            <DistanceMeters>825.95697491849</DistanceMeters>
          </Trackpoint>
          <Trackpoint>
            <Time>2019-07-26T08:33:03.000Z</Time>
            <Position>
              <LatitudeDegrees>43.0075074546039104461669921875</LatitudeDegrees>
              <LongitudeDegrees>-7.56522710435092449188232421875</LongitudeDegrees>
            </Position>
            <AltitudeMeters>401.600006103515625</AltitudeMeters>
            <DistanceMeters>833.92166493247</DistanceMeters>
          </Trackpoint>
          <Trackpoint>
            <Time>2019-07-26T08:33:05.000Z</Time>
            <Position>
              <LatitudeDegrees>43.00747870467603206634521484375</LatitudeDegrees>
              <LongitudeDegrees>-7.56526716984808444976806640625</LongitudeDegrees>
            </Position>
            <AltitudeMeters>401.20001220703125</AltitudeMeters>
            <DistanceMeters>838.49085925296</DistanceMeters>
          </Trackpoint>
          <Trackpoint>
            <Time>2019-07-26T08:33:07.000Z</Time>
            <Position>
              <LatitudeDegrees>43.00741030834615230560302734375</LatitudeDegrees>
              <LongitudeDegrees>-7.56529591977596282958984375</LongitudeDegrees>
            </Position>
            <AltitudeMeters>400.79998779296875</AltitudeMeters>
            <DistanceMeters>846.45498236491</DistanceMeters>
          </Trackpoint>
          <Trackpoint>
            <Time>2019-07-26T08:33:08.000Z</Time>
            <Position>
              <LatitudeDegrees>43.0073575861752033233642578125</LatitudeDegrees>
              <LongitudeDegrees>-7.56531075574457645416259765625</LongitudeDegrees>
            </Position>
            <AltitudeMeters>400.79998779296875</AltitudeMeters>
            <DistanceMeters>852.44543508472</DistanceMeters>
          </Trackpoint>
          <Trackpoint>
            <Time>2019-07-26T08:33:11.000Z</Time>
            <Position>
              <LatitudeDegrees>43.00716656260192394256591796875</LatitudeDegrees>
              <LongitudeDegrees>-7.56532517261803150177001953125</LongitudeDegrees>
            </Position>
            <AltitudeMeters>400.20001220703125</AltitudeMeters>
            <DistanceMeters>873.73905380969</DistanceMeters>
          </Trackpoint>
          <Trackpoint>
            <Time>2019-07-26T08:33:13.000Z</Time>
            <Position>
              <LatitudeDegrees>43.0070558376610279083251953125</LatitudeDegrees>
              <LongitudeDegrees>-7.5653155334293842315673828125</LongitudeDegrees>
            </Position>
            <AltitudeMeters>400</AltitudeMeters>
            <DistanceMeters>886.08814005061</DistanceMeters>
          </Trackpoint>
          <Trackpoint>
            <Time>2019-07-26T08:33:14.000Z</Time>
            <Position>
              <LatitudeDegrees>43.00701300613582134246826171875</LatitudeDegrees>
              <LongitudeDegrees>-7.56529516540467739105224609375</LongitudeDegrees>
            </Position>
            <AltitudeMeters>400</AltitudeMeters>
            <DistanceMeters>891.13530218872</DistanceMeters>
          </Trackpoint>
          <Trackpoint>
            <Time>2019-07-26T08:33:17.000Z</Time>
            <Position>
              <LatitudeDegrees>43.006904460489749908447265625</LatitudeDegrees>
              <LongitudeDegrees>-7.56528292782604694366455078125</LongitudeDegrees>
            </Position>
            <AltitudeMeters>398.600006103515625</AltitudeMeters>
            <DistanceMeters>903.2578210709</DistanceMeters>
          </Trackpoint>
          <Trackpoint>
            <Time>2019-07-26T08:33:18.000Z</Time>
            <Position>
              <LatitudeDegrees>43.00686783157289028167724609375</LatitudeDegrees>
              <LongitudeDegrees>-7.56527940742671489715576171875</LongitudeDegrees>
            </Position>
            <AltitudeMeters>397.600006103515625</AltitudeMeters>
            <DistanceMeters>907.34507460125</DistanceMeters>
          </Trackpoint>
          <Trackpoint>
            <Time>2019-07-26T08:33:19.000Z</Time>
            <Position>
              <LatitudeDegrees>43.0068234913051128387451171875</LatitudeDegrees>
              <LongitudeDegrees>-7.565278150141239166259765625</LongitudeDegrees>
            </Position>
            <AltitudeMeters>396.399993896484375</AltitudeMeters>
            <DistanceMeters>912.28097839344</DistanceMeters>
          </Trackpoint>
          <Trackpoint>
            <Time>2019-07-26T08:33:20.000Z</Time>
            <Position>
              <LatitudeDegrees>43.00677026621997356414794921875</LatitudeDegrees>
              <LongitudeDegrees>-7.56528116762638092041015625</LongitudeDegrees>
            </Position>
            <AltitudeMeters>395.20001220703125</AltitudeMeters>
            <DistanceMeters>918.21082811099</DistanceMeters>
          </Trackpoint>
          <Trackpoint>
            <Time>2019-07-26T08:33:21.000Z</Time>
            <Position>
              <LatitudeDegrees>43.0067014507949352264404296875</LatitudeDegrees>
              <LongitudeDegrees>-7.56528829224407672882080078125</LongitudeDegrees>
            </Position>
            <AltitudeMeters>394</AltitudeMeters>
            <DistanceMeters>925.8921378616</DistanceMeters>
          </Trackpoint>
          <Trackpoint>
            <Time>2019-07-26T08:33:22.000Z</Time>
            <Position>
              <LatitudeDegrees>43.00663347356021404266357421875</LatitudeDegrees>
              <LongitudeDegrees>-7.56529734469950199127197265625</LongitudeDegrees>
            </Position>
            <AltitudeMeters>392.600006103515625</AltitudeMeters>
            <DistanceMeters>933.4942750112</DistanceMeters>
          </Trackpoint>
          <Trackpoint>
            <Time>2019-07-26T08:33:23.000Z</Time>
            <Position>
              <LatitudeDegrees>43.0065582878887653350830078125</LatitudeDegrees>
              <LongitudeDegrees>-7.5653001107275485992431640625</LongitudeDegrees>
            </Position>
            <AltitudeMeters>391.600006103515625</AltitudeMeters>
            <DistanceMeters>941.8652602104</DistanceMeters>
          </Trackpoint>
          <Trackpoint>
            <Time>2019-07-26T08:33:24.000Z</Time>
            <Position>
              <LatitudeDegrees>43.00648176111280918121337890625</LatitudeDegrees>
              <LongitudeDegrees>-7.5652960874140262603759765625</LongitudeDegrees>
            </Position>
            <AltitudeMeters>390.79998779296875</AltitudeMeters>
            <DistanceMeters>950.38857910573</DistanceMeters>
          </Trackpoint>
          <Trackpoint>
            <Time>2019-07-26T08:33:25.000Z</Time>
            <Position>
              <LatitudeDegrees>43.00640716217458248138427734375</LatitudeDegrees>
              <LongitudeDegrees>-7.5652846880257129669189453125</LongitudeDegrees>
            </Position>
            <AltitudeMeters>390.600006103515625</AltitudeMeters>
            <DistanceMeters>958.74336760765</DistanceMeters>
          </Trackpoint>
          <Trackpoint>
            <Time>2019-07-26T08:33:26.000Z</Time>
            <Position>
              <LatitudeDegrees>43.00633356906473636627197265625</LatitudeDegrees>
              <LongitudeDegrees>-7.56526834331452846527099609375</LongitudeDegrees>
            </Position>
            <AltitudeMeters>390.399993896484375</AltitudeMeters>
            <DistanceMeters>967.04176281164</DistanceMeters>
          </Trackpoint>
          <Trackpoint>
            <Time>2019-07-26T08:33:28.000Z</Time>
            <Position>
              <LatitudeDegrees>43.0061935074627399444580078125</LatitudeDegrees>
              <LongitudeDegrees>-7.5652179680764675140380859375</LongitudeDegrees>
            </Position>
            <AltitudeMeters>390.399993896484375</AltitudeMeters>
            <DistanceMeters>983.16105000427</DistanceMeters>
          </Trackpoint>
          <Trackpoint>
            <Time>2019-07-26T08:33:30.000Z</Time>
            <Position>
              <LatitudeDegrees>43.00605964846909046173095703125</LatitudeDegrees>
              <LongitudeDegrees>-7.565163485705852508544921875</LongitudeDegrees>
            </Position>
            <AltitudeMeters>390.20001220703125</AltitudeMeters>
            <DistanceMeters>998.7059799057</DistanceMeters>
          </Trackpoint>
          <Trackpoint>
            <Time>2019-07-26T08:33:36.000Z</Time>
            <Position>
              <LatitudeDegrees>43.0056486837565898895263671875</LatitudeDegrees>
              <LongitudeDegrees>-7.56498201750218868255615234375</LongitudeDegrees>
            </Position>
            <AltitudeMeters>389.79998779296875</AltitudeMeters>
            <DistanceMeters>1046.7729681509</DistanceMeters>
          </Trackpoint>
          <Trackpoint>
            <Time>2019-07-26T08:33:37.000Z</Time>
            <Position>
              <LatitudeDegrees>43.0055844783782958984375</LatitudeDegrees>
              <LongitudeDegrees>-7.56493340246379375457763671875</LongitudeDegrees>
            </Position>
            <AltitudeMeters>389.79998779296875</AltitudeMeters>
            <DistanceMeters>1054.9419500287</DistanceMeters>
          </Trackpoint>
          <Trackpoint>
            <Time>2019-07-26T08:33:41.000Z</Time>
            <Position>
              <LatitudeDegrees>43.00536780618131160736083984375</LatitudeDegrees>
              <LongitudeDegrees>-7.56472636945545673370361328125</LongitudeDegrees>
            </Position>
            <AltitudeMeters>389.600006103515625</AltitudeMeters>
            <DistanceMeters>1084.3618893073</DistanceMeters>
          </Trackpoint>
          <Trackpoint>
            <Time>2019-07-26T08:33:42.000Z</Time>
            <Position>
              <LatitudeDegrees>43.0053154192864894866943359375</LatitudeDegrees>
              <LongitudeDegrees>-7.56467121653258800506591796875</LongitudeDegrees>
            </Position>
            <AltitudeMeters>389.600006103515625</AltitudeMeters>
            <DistanceMeters>1091.720172963</DistanceMeters>
          </Trackpoint>
          <Trackpoint>
            <Time>2019-07-26T08:33:44.000Z</Time>
            <Position>
              <LatitudeDegrees>43.00521207042038440704345703125</LatitudeDegrees>
              <LongitudeDegrees>-7.56459318101406097412109375</LongitudeDegrees>
            </Position>
            <AltitudeMeters>389.600006103515625</AltitudeMeters>
            <DistanceMeters>1104.8606874796</DistanceMeters>
          </Trackpoint>
          <Trackpoint>
            <Time>2019-07-26T08:33:46.000Z</Time>
            <Position>
              <LatitudeDegrees>43.00510629080235958099365234375</LatitudeDegrees>
              <LongitudeDegrees>-7.56455705501139163970947265625</LongitudeDegrees>
            </Position>
            <AltitudeMeters>389.399993896484375</AltitudeMeters>
            <DistanceMeters>1116.9958630716</DistanceMeters>
          </Trackpoint>
          <Trackpoint>
            <Time>2019-07-26T08:33:48.000Z</Time>
            <Position>
              <LatitudeDegrees>43.00497628748416900634765625</LatitudeDegrees>
              <LongitudeDegrees>-7.5645226053893566131591796875</LongitudeDegrees>
            </Position>
            <AltitudeMeters>389.399993896484375</AltitudeMeters>
            <DistanceMeters>1131.734809744</DistanceMeters>
          </Trackpoint>
          <Trackpoint>
            <Time>2019-07-26T08:33:50.000Z</Time>
            <Position>
              <LatitudeDegrees>43.00489179790019989013671875</LatitudeDegrees>
              <LongitudeDegrees>-7.56448396481573581695556640625</LongitudeDegrees>
            </Position>
            <AltitudeMeters>389.399993896484375</AltitudeMeters>
            <DistanceMeters>1141.6504273406</DistanceMeters>
          </Trackpoint>
          <Trackpoint>
            <Time>2019-07-26T08:33:53.000Z</Time>
            <Position>
              <LatitudeDegrees>43.00471007823944091796875</LatitudeDegrees>
              <LongitudeDegrees>-7.56445965729653835296630859375</LongitudeDegrees>
            </Position>
            <AltitudeMeters>388.79998779296875</AltitudeMeters>
            <DistanceMeters>1161.9728183476</DistanceMeters>
          </Trackpoint>
          <Trackpoint>
            <Time>2019-07-26T08:33:54.000Z</Time>
            <Position>
              <LatitudeDegrees>43.00463237799704074859619140625</LatitudeDegrees>
              <LongitudeDegrees>-7.56444624625146389007568359375</LongitudeDegrees>
            </Position>
            <AltitudeMeters>388.600006103515625</AltitudeMeters>
            <DistanceMeters>1170.6899333105</DistanceMeters>
          </Trackpoint>
          <Trackpoint>
            <Time>2019-07-26T08:33:56.000Z</Time>
            <Position>
              <LatitudeDegrees>43.00446524284780025482177734375</LatitudeDegrees>
              <LongitudeDegrees>-7.56438958458602428436279296875</LongitudeDegrees>
            </Position>
            <AltitudeMeters>388</AltitudeMeters>
            <DistanceMeters>1189.8554340738</DistanceMeters>
          </Trackpoint>
          <Trackpoint>
            <Time>2019-07-26T08:33:57.000Z</Time>
            <Position>
              <LatitudeDegrees>43.0043773166835308074951171875</LatitudeDegrees>
              <LongitudeDegrees>-7.56432722322642803192138671875</LongitudeDegrees>
            </Position>
            <AltitudeMeters>387.600006103515625</AltitudeMeters>
            <DistanceMeters>1200.879761666</DistanceMeters>
          </Trackpoint>
          <Trackpoint>
            <Time>2019-07-26T08:33:59.000Z</Time>
            <Position>
              <LatitudeDegrees>43.0042304657399654388427734375</LatitudeDegrees>
              <LongitudeDegrees>-7.5641812942922115325927734375</LongitudeDegrees>
            </Position>
            <AltitudeMeters>386.399993896484375</AltitudeMeters>
            <DistanceMeters>1221.0849529799</DistanceMeters>
          </Trackpoint>
          <Trackpoint>
            <Time>2019-07-26T08:34:01.000Z</Time>
            <Position>
              <LatitudeDegrees>43.0040869675576686859130859375</LatitudeDegrees>
              <LongitudeDegrees>-7.5640505366027355194091796875</LongitudeDegrees>
            </Position>
            <AltitudeMeters>385.399993896484375</AltitudeMeters>
            <DistanceMeters>1240.2777617472</DistanceMeters>
          </Trackpoint>
          <Trackpoint>
            <Time>2019-07-26T08:34:02.000Z</Time>
            <Position>
              <LatitudeDegrees>43.0040215887129306793212890625</LatitudeDegrees>
              <LongitudeDegrees>-7.56400351412594318389892578125</LongitudeDegrees>
            </Position>
            <AltitudeMeters>384.79998779296875</AltitudeMeters>
            <DistanceMeters>1248.4996321098</DistanceMeters>
          </Trackpoint>
          <Trackpoint>
            <Time>2019-07-26T08:34:04.000Z</Time>
            <Position>
              <LatitudeDegrees>43.0038992129266262054443359375</LatitudeDegrees>
              <LongitudeDegrees>-7.56394274532794952392578125</LongitudeDegrees>
            </Position>
            <AltitudeMeters>383.399993896484375</AltitudeMeters>
            <DistanceMeters>1262.9905050175</DistanceMeters>
          </Trackpoint>
          <Trackpoint>
            <Time>2019-07-26T08:34:06.000Z</Time>
            <Position>
              <LatitudeDegrees>43.00378614105284214019775390625</LatitudeDegrees>
              <LongitudeDegrees>-7.56389957852661609649658203125</LongitudeDegrees>
            </Position>
            <AltitudeMeters>381.600006103515625</AltitudeMeters>
            <DistanceMeters>1276.0572829449</DistanceMeters>
          </Trackpoint>
          <Trackpoint>
            <Time>2019-07-26T08:34:08.000Z</Time>
            <Position>
              <LatitudeDegrees>43.00363895483314990997314453125</LatitudeDegrees>
              <LongitudeDegrees>-7.56387091241776943206787109375</LongitudeDegrees>
            </Position>
            <AltitudeMeters>380</AltitudeMeters>
            <DistanceMeters>1292.604760336</DistanceMeters>
          </Trackpoint>
          <Trackpoint>
            <Time>2019-07-26T08:34:09.000Z</Time>
            <Position>
              <LatitudeDegrees>43.0035548843443393707275390625</LatitudeDegrees>
              <LongitudeDegrees>-7.563860602676868438720703125</LongitudeDegrees>
            </Position>
            <AltitudeMeters>379</AltitudeMeters>
            <DistanceMeters>1301.9994379336</DistanceMeters>
          </Trackpoint>
          <Trackpoint>
            <Time>2019-07-26T08:34:10.000Z</Time>
            <Position>
              <LatitudeDegrees>43.00346595235168933868408203125</LatitudeDegrees>
              <LongitudeDegrees>-7.56384828127920627593994140625</LongitudeDegrees>
            </Position>
            <AltitudeMeters>378</AltitudeMeters>
            <DistanceMeters>1311.9482402687</DistanceMeters>
          </Trackpoint>
          <Trackpoint>
            <Time>2019-07-26T08:34:12.000Z</Time>
            <Position>
              <LatitudeDegrees>43.00328674726188182830810546875</LatitudeDegrees>
              <LongitudeDegrees>-7.5638171844184398651123046875</LongitudeDegrees>
            </Position>
            <AltitudeMeters>376.399993896484375</AltitudeMeters>
            <DistanceMeters>1332.0544199716</DistanceMeters>
          </Trackpoint>
          <Trackpoint>
            <Time>2019-07-26T08:34:13.000Z</Time>
            <Position>
              <LatitudeDegrees>43.0032075382769107818603515625</LatitudeDegrees>
              <LongitudeDegrees>-7.56379731930792331695556640625</LongitudeDegrees>
            </Position>
            <AltitudeMeters>375.399993896484375</AltitudeMeters>
            <DistanceMeters>1341.0172074869</DistanceMeters>
          </Trackpoint>
          <Trackpoint>
            <Time>2019-07-26T08:34:14.000Z</Time>
            <Position>
              <LatitudeDegrees>43.00313226878643035888671875</LatitudeDegrees>
              <LongitudeDegrees>-7.56377619691193103790283203125</LongitudeDegrees>
            </Position>
            <AltitudeMeters>375</AltitudeMeters>
            <DistanceMeters>1349.5690838377</DistanceMeters>
          </Trackpoint>
          <Trackpoint>
            <Time>2019-07-26T08:34:16.000Z</Time>
            <Position>
              <LatitudeDegrees>43.00297091715037822723388671875</LatitudeDegrees>
              <LongitudeDegrees>-7.5637293420732021331787109375</LongitudeDegrees>
            </Position>
            <AltitudeMeters>373.79998779296875</AltitudeMeters>
            <DistanceMeters>1367.9281860311</DistanceMeters>
          </Trackpoint>
          <Trackpoint>
            <Time>2019-07-26T08:34:18.000Z</Time>
            <Position>
              <LatitudeDegrees>43.002822808921337127685546875</LatitudeDegrees>
              <LongitudeDegrees>-7.563687264919281005859375</LongitudeDegrees>
            </Position>
            <AltitudeMeters>372.399993896484375</AltitudeMeters>
            <DistanceMeters>1384.7648175151</DistanceMeters>
          </Trackpoint>
          <Trackpoint>
            <Time>2019-07-26T08:34:19.000Z</Time>
            <Position>
              <LatitudeDegrees>43.0027560889720916748046875</LatitudeDegrees>
              <LongitudeDegrees>-7.56367578171193599700927734375</LongitudeDegrees>
            </Position>
            <AltitudeMeters>371.79998779296875</AltitudeMeters>
            <DistanceMeters>1392.2496417788</DistanceMeters>
          </Trackpoint>
          <Trackpoint>
            <Time>2019-07-26T08:34:21.000Z</Time>
            <Position>
              <LatitudeDegrees>43.002629019320011138916015625</LatitudeDegrees>
              <LongitudeDegrees>-7.56367712281644344329833984375</LongitudeDegrees>
            </Position>
            <AltitudeMeters>370.79998779296875</AltitudeMeters>
            <DistanceMeters>1406.3929883908</DistanceMeters>
          </Trackpoint>
          <Trackpoint>
            <Time>2019-07-26T08:34:23.000Z</Time>
            <Position>
              <LatitudeDegrees>43.00257294438779354095458984375</LatitudeDegrees>
              <LongitudeDegrees>-7.563696987926959991455078125</LongitudeDegrees>
            </Position>
            <AltitudeMeters>369.399993896484375</AltitudeMeters>
            <DistanceMeters>1412.8394146717</DistanceMeters>
          </Trackpoint>
          <Trackpoint>
            <Time>2019-07-26T08:34:25.000Z</Time>
            <Position>
              <LatitudeDegrees>43.00254025496542453765869140625</LatitudeDegrees>
              <LongitudeDegrees>-7.5637404061853885650634765625</LongitudeDegrees>
            </Position>
            <AltitudeMeters>368.20001220703125</AltitudeMeters>
            <DistanceMeters>1417.9106726727</DistanceMeters>
          </Trackpoint>
          <Trackpoint>
            <Time>2019-07-26T08:34:27.000Z</Time>
            <Position>
              <LatitudeDegrees>43.00251980312168598175048828125</LatitudeDegrees>
              <LongitudeDegrees>-7.56377267651259899139404296875</LongitudeDegrees>
            </Position>
            <AltitudeMeters>367</AltitudeMeters>
            <DistanceMeters>1421.3866246692</DistanceMeters>
          </Trackpoint>
          <Trackpoint>
            <Time>2019-07-26T08:34:30.000Z</Time>
            <Position>
              <LatitudeDegrees>43.002468086779117584228515625</LatitudeDegrees>
              <LongitudeDegrees>-7.5637343712151050567626953125</LongitudeDegrees>
            </Position>
            <AltitudeMeters>366.600006103515625</AltitudeMeters>
            <DistanceMeters>1427.9331308215</DistanceMeters>
          </Trackpoint>
          <Trackpoint>
            <Time>2019-07-26T08:34:33.000Z</Time>
            <Position>
              <LatitudeDegrees>43.00240044482052326202392578125</LatitudeDegrees>
              <LongitudeDegrees>-7.56370595656335353851318359375</LongitudeDegrees>
            </Position>
            <AltitudeMeters>366.399993896484375</AltitudeMeters>
            <DistanceMeters>1435.8094640528</DistanceMeters>
          </Trackpoint>
          <Trackpoint>
            <Time>2019-07-26T08:34:38.000Z</Time>
            <Position>
              <LatitudeDegrees>43.002293072640895843505859375</LatitudeDegrees>
              <LongitudeDegrees>-7.5636894442141056060791015625</LongitudeDegrees>
            </Position>
            <AltitudeMeters>366.600006103515625</AltitudeMeters>
            <DistanceMeters>1447.835506807</DistanceMeters>
          </Trackpoint>
          <Trackpoint>
            <Time>2019-07-26T08:34:40.000Z</Time>
            <Position>
              <LatitudeDegrees>43.00228871405124664306640625</LatitudeDegrees>
              <LongitudeDegrees>-7.5636730156838893890380859375</LongitudeDegrees>
            </Position>
            <AltitudeMeters>366.600006103515625</AltitudeMeters>
            <DistanceMeters>1449.2577364381</DistanceMeters>
          </Trackpoint>
          <Trackpoint>
            <Time>2019-07-26T08:34:41.000Z</Time>
            <Position>
              <LatitudeDegrees>43.0023043043911457061767578125</LatitudeDegrees>
              <LongitudeDegrees>-7.56367410533130168914794921875</LongitudeDegrees>
            </Position>
            <AltitudeMeters>366.600006103515625</AltitudeMeters>
            <DistanceMeters>1450.9944130148</DistanceMeters>
          </Trackpoint>
          <Trackpoint>
            <Time>2019-07-26T08:34:46.000Z</Time>
            <Position>
              <LatitudeDegrees>43.0024109221994876861572265625</LatitudeDegrees>
              <LongitudeDegrees>-7.5637109018862247467041015625</LongitudeDegrees>
            </Position>
            <AltitudeMeters>367</AltitudeMeters>
            <DistanceMeters>1463.2333226089</DistanceMeters>
          </Trackpoint>
          <Trackpoint>
            <Time>2019-07-26T08:34:48.000Z</Time>
            <Position>
              <LatitudeDegrees>43.00241209566593170166015625</LatitudeDegrees>
              <LongitudeDegrees>-7.56371115334331989288330078125</LongitudeDegrees>
            </Position>
            <AltitudeMeters>367</AltitudeMeters>
            <DistanceMeters>1463.3677106772</DistanceMeters>
          </Trackpoint>
          <Trackpoint>
            <Time>2019-07-26T08:35:58.000Z</Time>
            <Position>
              <LatitudeDegrees>43.002314865589141845703125</LatitudeDegrees>
              <LongitudeDegrees>-7.5636793859302997589111328125</LongitudeDegrees>
            </Position>
            <AltitudeMeters>367.20001220703125</AltitudeMeters>
            <DistanceMeters>1474.4943610288</DistanceMeters>
          </Trackpoint>
          <Trackpoint>
            <Time>2019-07-26T08:35:59.000Z</Time>
            <Position>
              <LatitudeDegrees>43.00229382701218128204345703125</LatitudeDegrees>
              <LongitudeDegrees>-7.5636760331690311431884765625</LongitudeDegrees>
            </Position>
            <AltitudeMeters>367.20001220703125</AltitudeMeters>
            <DistanceMeters>1476.8490302065</DistanceMeters>
          </Trackpoint>
          <Trackpoint>
            <Time>2019-07-26T08:36:01.000Z</Time>
            <Position>
              <LatitudeDegrees>43.002248145639896392822265625</LatitudeDegrees>
              <LongitudeDegrees>-7.5636646337807178497314453125</LongitudeDegrees>
            </Position>
            <AltitudeMeters>367.20001220703125</AltitudeMeters>
            <DistanceMeters>1482.0172954978</DistanceMeters>
          </Trackpoint>
          <Trackpoint>
            <Time>2019-07-26T08:36:04.000Z</Time>
            <Position>
              <LatitudeDegrees>43.00217044539749622344970703125</LatitudeDegrees>
              <LongitudeDegrees>-7.56363538093864917755126953125</LongitudeDegrees>
            </Position>
            <AltitudeMeters>367.399993896484375</AltitudeMeters>
            <DistanceMeters>1490.9876361375</DistanceMeters>
          </Trackpoint>
          <Trackpoint>
            <Time>2019-07-26T08:36:06.000Z</Time>
            <Position>
              <LatitudeDegrees>43.0021155439317226409912109375</LatitudeDegrees>
              <LongitudeDegrees>-7.56362347863614559173583984375</LongitudeDegrees>
            </Position>
            <AltitudeMeters>367.600006103515625</AltitudeMeters>
            <DistanceMeters>1497.1738679445</DistanceMeters>
          </Trackpoint>
          <Trackpoint>
            <Time>2019-07-26T08:36:11.000Z</Time>
            <Position>
              <LatitudeDegrees>43.0019995383918285369873046875</LatitudeDegrees>
              <LongitudeDegrees>-7.5636109896004199981689453125</LongitudeDegrees>
            </Position>
            <AltitudeMeters>368.20001220703125</AltitudeMeters>
            <DistanceMeters>1510.1250713614</DistanceMeters>
          </Trackpoint>
          <Trackpoint>
            <Time>2019-07-26T08:36:12.000Z</Time>
            <Position>
              <LatitudeDegrees>43.001980595290660858154296875</LatitudeDegrees>
              <LongitudeDegrees>-7.5636066310107707977294921875</LongitudeDegrees>
            </Position>
            <AltitudeMeters>368.399993896484375</AltitudeMeters>
            <DistanceMeters>1512.2626444433</DistanceMeters>
          </Trackpoint>
          <Trackpoint>
            <Time>2019-07-26T08:36:18.000Z</Time>
            <Position>
              <LatitudeDegrees>43.0018660984933376312255859375</LatitudeDegrees>
              <LongitudeDegrees>-7.563583664596080780029296875</LongitudeDegrees>
            </Position>
            <AltitudeMeters>369</AltitudeMeters>
            <DistanceMeters>1525.1425331988</DistanceMeters>
          </Trackpoint>
          <Trackpoint>
            <Time>2019-07-26T08:36:19.000Z</Time>
            <Position>
              <LatitudeDegrees>43.00184556283056735992431640625</LatitudeDegrees>
              <LongitudeDegrees>-7.563579976558685302734375</LongitudeDegrees>
            </Position>
            <AltitudeMeters>369.20001220703125</AltitudeMeters>
            <DistanceMeters>1527.4468085619</DistanceMeters>
          </Trackpoint>
          <Trackpoint>
            <Time>2019-07-26T08:36:21.000Z</Time>
            <Position>
              <LatitudeDegrees>43.0018065869808197021484375</LatitudeDegrees>
              <LongitudeDegrees>-7.56357251666486263275146484375</LongitudeDegrees>
            </Position>
            <AltitudeMeters>369.20001220703125</AltitudeMeters>
            <DistanceMeters>1531.8273236507</DistanceMeters>
          </Trackpoint>
          <Trackpoint>
            <Time>2019-07-26T08:36:25.000Z</Time>
            <Position>
              <LatitudeDegrees>43.001720421016216278076171875</LatitudeDegrees>
              <LongitudeDegrees>-7.56355323828756809234619140625</LongitudeDegrees>
            </Position>
            <AltitudeMeters>369.600006103515625</AltitudeMeters>
            <DistanceMeters>1541.5456346936</DistanceMeters>
          </Trackpoint>
          <Trackpoint>
            <Time>2019-07-26T08:36:32.000Z</Time>
            <Position>
              <LatitudeDegrees>43.00152336247265338897705078125</LatitudeDegrees>
              <LongitudeDegrees>-7.5635060481727123260498046875</LongitudeDegrees>
            </Position>
            <AltitudeMeters>369.79998779296875</AltitudeMeters>
            <DistanceMeters>1563.8123223061</DistanceMeters>
          </Trackpoint>
          <Trackpoint>
            <Time>2019-07-26T08:36:36.000Z</Time>
            <Position>
              <LatitudeDegrees>43.00143174827098846435546875</LatitudeDegrees>
              <LongitudeDegrees>-7.563494145870208740234375</LongitudeDegrees>
            </Position>
            <AltitudeMeters>369.79998779296875</AltitudeMeters>
            <DistanceMeters>1574.0549502954</DistanceMeters>
          </Trackpoint>
          <Trackpoint>
            <Time>2019-07-26T08:36:38.000Z</Time>
            <Position>
              <LatitudeDegrees>43.0014302395284175872802734375</LatitudeDegrees>
              <LongitudeDegrees>-7.5634943135082721710205078125</LongitudeDegrees>
            </Position>
            <AltitudeMeters>369.79998779296875</AltitudeMeters>
            <DistanceMeters>1574.2450037241</DistanceMeters>
          </Trackpoint>
          <Trackpoint>
            <Time>2019-07-26T08:36:47.000Z</Time>
            <Position>
              <LatitudeDegrees>43.0013947002589702606201171875</LatitudeDegrees>
              <LongitudeDegrees>-7.56355709396302700042724609375</LongitudeDegrees>
            </Position>
            <AltitudeMeters>369.399993896484375</AltitudeMeters>
            <DistanceMeters>1580.7075189893</DistanceMeters>
          </Trackpoint>
          <Trackpoint>
            <Time>2019-07-26T08:36:48.000Z</Time>
            <Position>
              <LatitudeDegrees>43.0013782717287540435791015625</LatitudeDegrees>
              <LongitudeDegrees>-7.56359011866152286529541015625</LongitudeDegrees>
            </Position>
            <AltitudeMeters>369.399993896484375</AltitudeMeters>
            <DistanceMeters>1583.9593214919</DistanceMeters>
          </Trackpoint>
          <Trackpoint>
            <Time>2019-07-26T08:36:52.000Z</Time>
            <Position>
              <LatitudeDegrees>43.00130710937082767486572265625</LatitudeDegrees>
              <LongitudeDegrees>-7.56375658325850963592529296875</LongitudeDegrees>
            </Position>
            <AltitudeMeters>369.399993896484375</AltitudeMeters>
            <DistanceMeters>1599.655134486</DistanceMeters>
          </Trackpoint>
          <Trackpoint>
            <Time>2019-07-26T08:36:54.000Z</Time>
            <Position>
              <LatitudeDegrees>43.0012917704880237579345703125</LatitudeDegrees>
              <LongitudeDegrees>-7.56385683082044124603271484375</LongitudeDegrees>
            </Position>
            <AltitudeMeters>369.399993896484375</AltitudeMeters>
            <DistanceMeters>1607.9926118302</DistanceMeters>
          </Trackpoint>
          <Trackpoint>
            <Time>2019-07-26T08:36:56.000Z</Time>
            <Position>
              <LatitudeDegrees>43.00129520706832408905029296875</LatitudeDegrees>
              <LongitudeDegrees>-7.563985995948314666748046875</LongitudeDegrees>
            </Position>
            <AltitudeMeters>369.399993896484375</AltitudeMeters>
            <DistanceMeters>1618.5135755242</DistanceMeters>
          </Trackpoint>
          <Trackpoint>
            <Time>2019-07-26T08:36:57.000Z</Time>
            <Position>
              <LatitudeDegrees>43.00130300223827362060546875</LatitudeDegrees>
              <LongitudeDegrees>-7.56406185217201709747314453125</LongitudeDegrees>
            </Position>
            <AltitudeMeters>369.399993896484375</AltitudeMeters>
            <DistanceMeters>1624.7492398166</DistanceMeters>
          </Trackpoint>
          <Trackpoint>
            <Time>2019-07-26T08:36:58.000Z</Time>
            <Position>
              <LatitudeDegrees>43.00131146796047687530517578125</LatitudeDegrees>
              <LongitudeDegrees>-7.5641440786421298980712890625</LongitudeDegrees>
            </Position>
            <AltitudeMeters>369.399993896484375</AltitudeMeters>
            <DistanceMeters>1631.508171443</DistanceMeters>
          </Trackpoint>
          <Trackpoint>
            <Time>2019-07-26T08:36:59.000Z</Time>
            <Position>
              <LatitudeDegrees>43.001318089663982391357421875</LatitudeDegrees>
              <LongitudeDegrees>-7.56423250772058963775634765625</LongitudeDegrees>
            </Position>
            <AltitudeMeters>369.399993896484375</AltitudeMeters>
            <DistanceMeters>1638.7439425299</DistanceMeters>
          </Trackpoint>
          <Trackpoint>
            <Time>2019-07-26T08:37:02.000Z</Time>
            <Position>
              <LatitudeDegrees>43.00130174495279788970947265625</LatitudeDegrees>
              <LongitudeDegrees>-7.564468123018741607666015625</LongitudeDegrees>
            </Position>
            <AltitudeMeters>369.399993896484375</AltitudeMeters>
            <DistanceMeters>1658.0090709209</DistanceMeters>
          </Trackpoint>
          <Trackpoint>
            <Time>2019-07-26T08:37:05.000Z</Time>
            <Position>
              <LatitudeDegrees>43.001260422170162200927734375</LatitudeDegrees>
              <LongitudeDegrees>-7.564617656171321868896484375</LongitudeDegrees>
            </Position>
            <AltitudeMeters>369.600006103515625</AltitudeMeters>
            <DistanceMeters>1671.0211396774</DistanceMeters>
          </Trackpoint>
          <Trackpoint>
            <Time>2019-07-26T08:37:06.000Z</Time>
            <Position>
              <LatitudeDegrees>43.00124659202992916107177734375</LatitudeDegrees>
              <LongitudeDegrees>-7.564668953418731689453125</LongitudeDegrees>
            </Position>
            <AltitudeMeters>369.600006103515625</AltitudeMeters>
            <DistanceMeters>1675.4722055855</DistanceMeters>
          </Trackpoint>
          <Trackpoint>
            <Time>2019-07-26T08:37:08.000Z</Time>
            <Position>
              <LatitudeDegrees>43.001216836273670196533203125</LatitudeDegrees>
              <LongitudeDegrees>-7.56479091010987758636474609375</LongitudeDegrees>
            </Position>
            <AltitudeMeters>369.600006103515625</AltitudeMeters>
            <DistanceMeters>1685.9372314867</DistanceMeters>
          </Trackpoint>
          <Trackpoint>
            <Time>2019-07-26T08:37:11.000Z</Time>
            <Position>
              <LatitudeDegrees>43.00115640275180339813232421875</LatitudeDegrees>
              <LongitudeDegrees>-7.5649826042354106903076171875</LongitudeDegrees>
            </Position>
            <AltitudeMeters>369.600006103515625</AltitudeMeters>
            <DistanceMeters>1702.9292197229</DistanceMeters>
          </Trackpoint>
          <Trackpoint>
            <Time>2019-07-26T08:37:12.000Z</Time>
            <Position>
              <LatitudeDegrees>43.00113444216549396514892578125</LatitudeDegrees>
              <LongitudeDegrees>-7.56504504941403865814208984375</LongitudeDegrees>
            </Position>
            <AltitudeMeters>369.79998779296875</AltitudeMeters>
            <DistanceMeters>1708.5687169731</DistanceMeters>
          </Trackpoint>
          <Trackpoint>
            <Time>2019-07-26T08:37:15.000Z</Time>
            <Position>
              <LatitudeDegrees>43.00107509829103946685791015625</LatitudeDegrees>
              <LongitudeDegrees>-7.5652240030467510223388671875</LongitudeDegrees>
            </Position>
            <AltitudeMeters>369.79998779296875</AltitudeMeters>
            <DistanceMeters>1724.5631555584</DistanceMeters>
          </Trackpoint>
          <Trackpoint>
            <Time>2019-07-26T08:37:19.000Z</Time>
            <Position>
              <LatitudeDegrees>43.0010041035711765289306640625</LatitudeDegrees>
              <LongitudeDegrees>-7.56545685231685638427734375</LongitudeDegrees>
            </Position>
            <AltitudeMeters>370.399993896484375</AltitudeMeters>
            <DistanceMeters>1745.0981624924</DistanceMeters>
          </Trackpoint>
          <Trackpoint>
            <Time>2019-07-26T08:37:20.000Z</Time>
            <Position>
              <LatitudeDegrees>43.00098641775548458099365234375</LatitudeDegrees>
              <LongitudeDegrees>-7.56551443599164485931396484375</LongitudeDegrees>
            </Position>
            <AltitudeMeters>370.600006103515625</AltitudeMeters>
            <DistanceMeters>1750.1827577427</DistanceMeters>
          </Trackpoint>
          <Trackpoint>
            <Time>2019-07-26T08:37:25.000Z</Time>
            <Position>
              <LatitudeDegrees>43.0008974857628345489501953125</LatitudeDegrees>
              <LongitudeDegrees>-7.565801180899143218994140625</LongitudeDegrees>
            </Position>
            <AltitudeMeters>371.399993896484375</AltitudeMeters>
            <DistanceMeters>1775.5360204816</DistanceMeters>
          </Trackpoint>
          <Trackpoint>
            <Time>2019-07-26T08:37:26.000Z</Time>
            <Position>
              <LatitudeDegrees>43.00087829120457172393798828125</LatitudeDegrees>
              <LongitudeDegrees>-7.56585692055523395538330078125</LongitudeDegrees>
            </Position>
            <AltitudeMeters>371.399993896484375</AltitudeMeters>
            <DistanceMeters>1780.5517749585</DistanceMeters>
          </Trackpoint>
          <Trackpoint>
            <Time>2019-07-26T08:37:27.000Z</Time>
            <Position>
              <LatitudeDegrees>43.00085934810340404510498046875</LatitudeDegrees>
              <LongitudeDegrees>-7.565917186439037322998046875</LongitudeDegrees>
            </Position>
            <AltitudeMeters>371.79998779296875</AltitudeMeters>
            <DistanceMeters>1785.8919043025</DistanceMeters>
          </Trackpoint>
          <Trackpoint>
            <Time>2019-07-26T08:37:32.000Z</Time>
            <Position>
              <LatitudeDegrees>43.00075490958988666534423828125</LatitudeDegrees>
              <LongitudeDegrees>-7.566238380968570709228515625</LongitudeDegrees>
            </Position>
            <AltitudeMeters>373</AltitudeMeters>
            <DistanceMeters>1814.5047304586</DistanceMeters>
          </Trackpoint>
          <Trackpoint>
            <Time>2019-07-26T08:37:37.000Z</Time>
            <Position>
              <LatitudeDegrees>43.0006961524486541748046875</LatitudeDegrees>
              <LongitudeDegrees>-7.56662093102931976318359375</LongitudeDegrees>
            </Position>
            <AltitudeMeters>373.399993896484375</AltitudeMeters>
            <DistanceMeters>1846.3235002454</DistanceMeters>
          </Trackpoint>
          <Trackpoint>
            <Time>2019-07-26T08:37:44.000Z</Time>
            <Position>
              <LatitudeDegrees>43.0006108246743679046630859375</LatitudeDegrees>
              <LongitudeDegrees>-7.56722987629473209381103515625</LongitudeDegrees>
            </Position>
            <AltitudeMeters>373.600006103515625</AltitudeMeters>
            <DistanceMeters>1896.7934219156</DistanceMeters>
          </Trackpoint>
          <Trackpoint>
            <Time>2019-07-26T08:37:50.000Z</Time>
            <Position>
              <LatitudeDegrees>43.0005189590156078338623046875</LatitudeDegrees>
              <LongitudeDegrees>-7.56778291426599025726318359375</LongitudeDegrees>
            </Position>
            <AltitudeMeters>373.600006103515625</AltitudeMeters>
            <DistanceMeters>1942.9574349662</DistanceMeters>
          </Trackpoint>
          <Trackpoint>
            <Time>2019-07-26T08:37:56.000Z</Time>
            <Position>
              <LatitudeDegrees>43.0004301108419895172119140625</LatitudeDegrees>
              <LongitudeDegrees>-7.568333856761455535888671875</LongitudeDegrees>
            </Position>
            <AltitudeMeters>373.399993896484375</AltitudeMeters>
            <DistanceMeters>1988.8816939589</DistanceMeters>
          </Trackpoint>
          <Trackpoint>
            <Time>2019-07-26T08:38:02.000Z</Time>
            <Position>
              <LatitudeDegrees>43.00037923268973827362060546875</LatitudeDegrees>
              <LongitudeDegrees>-7.5689110346138477325439453125</LongitudeDegrees>
            </Position>
            <AltitudeMeters>373.20001220703125</AltitudeMeters>
            <DistanceMeters>2036.2044252618</DistanceMeters>
          </Trackpoint>
          <Trackpoint>
            <Time>2019-07-26T08:38:08.000Z</Time>
            <Position>
              <LatitudeDegrees>43.00035894848406314849853515625</LatitudeDegrees>
              <LongitudeDegrees>-7.56944688968360424041748046875</LongitudeDegrees>
            </Position>
            <AltitudeMeters>373</AltitudeMeters>
            <DistanceMeters>2079.8817879307</DistanceMeters>
          </Trackpoint>
          <Trackpoint>
            <Time>2019-07-26T08:38:10.000Z</Time>
            <Position>
              <LatitudeDegrees>43.00035324878990650177001953125</LatitudeDegrees>
              <LongitudeDegrees>-7.56961436010897159576416015625</LongitudeDegrees>
            </Position>
            <AltitudeMeters>373.20001220703125</AltitudeMeters>
            <DistanceMeters>2093.5286299309</DistanceMeters>
          </Trackpoint>
          <Trackpoint>
            <Time>2019-07-26T08:38:19.000Z</Time>
            <Position>
              <LatitudeDegrees>43.0003322102129459381103515625</LatitudeDegrees>
              <LongitudeDegrees>-7.570350877940654754638671875</LongitudeDegrees>
            </Position>
            <AltitudeMeters>373.399993896484375</AltitudeMeters>
            <DistanceMeters>2153.5273716218</DistanceMeters>
          </Trackpoint>
          <Trackpoint>
            <Time>2019-07-26T08:38:20.000Z</Time>
            <Position>
              <LatitudeDegrees>43.000331036746501922607421875</LatitudeDegrees>
              <LongitudeDegrees>-7.5704341940581798553466796875</LongitudeDegrees>
            </Position>
            <AltitudeMeters>373.20001220703125</AltitudeMeters>
            <DistanceMeters>2160.3109746142</DistanceMeters>
          </Trackpoint>
          <Trackpoint>
            <Time>2019-07-26T08:38:25.000Z</Time>
            <Position>
              <LatitudeDegrees>43.00031594932079315185546875</LatitudeDegrees>
              <LongitudeDegrees>-7.57087432779371738433837890625</LongitudeDegrees>
            </Position>
            <AltitudeMeters>373.399993896484375</AltitudeMeters>
            <DistanceMeters>2196.1774858754</DistanceMeters>
          </Trackpoint>
          <Trackpoint>
            <Time>2019-07-26T08:38:28.000Z</Time>
            <Position>
              <LatitudeDegrees>43.000316284596920013427734375</LatitudeDegrees>
              <LongitudeDegrees>-7.57115252315998077392578125</LongitudeDegrees>
            </Position>
            <AltitudeMeters>373.20001220703125</AltitudeMeters>
            <DistanceMeters>2218.8225732257</DistanceMeters>
          </Trackpoint>
          <Trackpoint>
            <Time>2019-07-26T08:38:31.000Z</Time>
            <Position>
              <LatitudeDegrees>43.00030882470309734344482421875</LatitudeDegrees>
              <LongitudeDegrees>-7.57143591530621051788330078125</LongitudeDegrees>
            </Position>
            <AltitudeMeters>373</AltitudeMeters>
            <DistanceMeters>2241.9058511716</DistanceMeters>
          </Trackpoint>
          <Trackpoint>
            <Time>2019-07-26T08:38:34.000Z</Time>
            <Position>
              <LatitudeDegrees>43.00029055215418338775634765625</LatitudeDegrees>
              <LongitudeDegrees>-7.5717183016240596771240234375</LongitudeDegrees>
            </Position>
            <AltitudeMeters>372.79998779296875</AltitudeMeters>
            <DistanceMeters>2264.9822821793</DistanceMeters>
          </Trackpoint>
          <Trackpoint>
            <Time>2019-07-26T08:38:35.000Z</Time>
            <Position>
              <LatitudeDegrees>43.00029315054416656494140625</LatitudeDegrees>
              <LongitudeDegrees>-7.57180974818766117095947265625</LongitudeDegrees>
            </Position>
            <AltitudeMeters>372.600006103515625</AltitudeMeters>
            <DistanceMeters>2272.4320371971</DistanceMeters>
          </Trackpoint>
          <Trackpoint>
            <Time>2019-07-26T08:38:38.000Z</Time>
            <Position>
              <LatitudeDegrees>43.000272698700428009033203125</LatitudeDegrees>
              <LongitudeDegrees>-7.57206958718597888946533203125</LongitudeDegrees>
            </Position>
            <AltitudeMeters>372.399993896484375</AltitudeMeters>
            <DistanceMeters>2293.7052906169</DistanceMeters>
          </Trackpoint>
          <Trackpoint>
            <Time>2019-07-26T08:38:39.000Z</Time>
            <Position>
              <LatitudeDegrees>43.00025568343698978424072265625</LatitudeDegrees>
              <LongitudeDegrees>-7.57214804179966449737548828125</LongitudeDegrees>
            </Position>
            <AltitudeMeters>372.399993896484375</AltitudeMeters>
            <DistanceMeters>2300.3659786872</DistanceMeters>
          </Trackpoint>
          <Trackpoint>
            <Time>2019-07-26T08:38:40.000Z</Time>
            <Position>
              <LatitudeDegrees>43.00023489631712436676025390625</LatitudeDegrees>
              <LongitudeDegrees>-7.5722218863666057586669921875</LongitudeDegrees>
            </Position>
            <AltitudeMeters>372.399993896484375</AltitudeMeters>
            <DistanceMeters>2306.806799379</DistanceMeters>
          </Trackpoint>
          <Trackpoint>
            <Time>2019-07-26T08:38:44.000Z</Time>
            <Position>
              <LatitudeDegrees>43.00014554522931575775146484375</LatitudeDegrees>
              <LongitudeDegrees>-7.5724887661635875701904296875</LongitudeDegrees>
            </Position>
            <AltitudeMeters>372.20001220703125</AltitudeMeters>
            <DistanceMeters>2330.69897974</DistanceMeters>
          </Trackpoint>
          <Trackpoint>
            <Time>2019-07-26T08:38:49.000Z</Time>
            <Position>
              <LatitudeDegrees>43.00004010088741779327392578125</LatitudeDegrees>
              <LongitudeDegrees>-7.57278506644070148468017578125</LongitudeDegrees>
            </Position>
            <AltitudeMeters>372.20001220703125</AltitudeMeters>
            <DistanceMeters>2357.5217743483</DistanceMeters>
          </Trackpoint>
          <Trackpoint>
            <Time>2019-07-26T08:38:50.000Z</Time>
            <Position>
              <LatitudeDegrees>43.00003238953649997711181640625</LatitudeDegrees>
              <LongitudeDegrees>-7.57283804006874561309814453125</LongitudeDegrees>
            </Position>
            <AltitudeMeters>372.399993896484375</AltitudeMeters>
            <DistanceMeters>2361.9197765928</DistanceMeters>
          </Trackpoint>
          <Trackpoint>
            <Time>2019-07-26T08:38:53.000Z</Time>
            <Position>
              <LatitudeDegrees>43.00007647834718227386474609375</LatitudeDegrees>
              <LongitudeDegrees>-7.57288523018360137939453125</LongitudeDegrees>
            </Position>
            <AltitudeMeters>372.600006103515625</AltitudeMeters>
            <DistanceMeters>2368.1518194991</DistanceMeters>
          </Trackpoint>
          <Trackpoint>
            <Time>2019-07-26T08:38:57.000Z</Time>
            <Position>
              <LatitudeDegrees>43.00021075643599033355712890625</LatitudeDegrees>
              <LongitudeDegrees>-7.572821192443370819091796875</LongitudeDegrees>
            </Position>
            <AltitudeMeters>372.79998779296875</AltitudeMeters>
            <DistanceMeters>2383.9799729246</DistanceMeters>
          </Trackpoint>
          <Trackpoint>
            <Time>2019-07-26T08:39:01.000Z</Time>
            <Position>
              <LatitudeDegrees>43.000378310680389404296875</LatitudeDegrees>
              <LongitudeDegrees>-7.57271834649145603179931640625</LongitudeDegrees>
            </Position>
            <AltitudeMeters>372.79998779296875</AltitudeMeters>
            <DistanceMeters>2404.4219840174</DistanceMeters>
          </Trackpoint>
          <Trackpoint>
            <Time>2019-07-26T08:39:06.000Z</Time>
            <Position>
              <LatitudeDegrees>43.00053647719323635101318359375</LatitudeDegrees>
              <LongitudeDegrees>-7.5726118125021457672119140625</LongitudeDegrees>
            </Position>
            <AltitudeMeters>372.600006103515625</AltitudeMeters>
            <DistanceMeters>2424.0460934267</DistanceMeters>
          </Trackpoint>
          <Trackpoint>
            <Time>2019-07-26T08:39:09.000Z</Time>
            <Position>
              <LatitudeDegrees>43.00063270144164562225341796875</LatitudeDegrees>
              <LongitudeDegrees>-7.572585828602313995361328125</LongitudeDegrees>
            </Position>
            <AltitudeMeters>371.79998779296875</AltitudeMeters>
            <DistanceMeters>2434.9630045698</DistanceMeters>
          </Trackpoint>
          <Trackpoint>
            <Time>2019-07-26T08:39:11.000Z</Time>
            <Position>
              <LatitudeDegrees>43.00069254823029041290283203125</LatitudeDegrees>
              <LongitudeDegrees>-7.57254517637193202972412109375</LongitudeDegrees>
            </Position>
            <AltitudeMeters>371.20001220703125</AltitudeMeters>
            <DistanceMeters>2442.4006284038</DistanceMeters>
          </Trackpoint>
          <Trackpoint>
            <Time>2019-07-26T08:39:13.000Z</Time>
            <Position>
              <LatitudeDegrees>43.0007409118115901947021484375</LatitudeDegrees>
              <LongitudeDegrees>-7.57248197682201862335205078125</LongitudeDegrees>
            </Position>
            <AltitudeMeters>370.600006103515625</AltitudeMeters>
            <DistanceMeters>2449.8467461416</DistanceMeters>
          </Trackpoint>
          <Trackpoint>
            <Time>2019-07-26T08:39:16.000Z</Time>
            <Position>
              <LatitudeDegrees>43.00080402754247188568115234375</LatitudeDegrees>
              <LongitudeDegrees>-7.57241039536893367767333984375</LongitudeDegrees>
            </Position>
            <AltitudeMeters>370.399993896484375</AltitudeMeters>
            <DistanceMeters>2458.9742586873</DistanceMeters>
          </Trackpoint>
          <Trackpoint>
            <Time>2019-07-26T08:39:21.000Z</Time>
            <Position>
              <LatitudeDegrees>43.0008850805461406707763671875</LatitudeDegrees>
              <LongitudeDegrees>-7.57232322357594966888427734375</LongitudeDegrees>
            </Position>
            <AltitudeMeters>370.600006103515625</AltitudeMeters>
            <DistanceMeters>2470.4524473649</DistanceMeters>
          </Trackpoint>
          <Trackpoint>
            <Time>2019-07-26T08:39:22.000Z</Time>
            <Position>
              <LatitudeDegrees>43.0009038560092449188232421875</LatitudeDegrees>
              <LongitudeDegrees>-7.57230293937027454376220703125</LongitudeDegrees>
            </Position>
            <AltitudeMeters>370.79998779296875</AltitudeMeters>
            <DistanceMeters>2473.1165870168</DistanceMeters>
          </Trackpoint>
          <Trackpoint>
            <Time>2019-07-26T08:39:29.000Z</Time>
            <Position>
              <LatitudeDegrees>43.0010252259671688079833984375</LatitudeDegrees>
              <LongitudeDegrees>-7.5721903704106807708740234375</LongitudeDegrees>
            </Position>
            <AltitudeMeters>371.600006103515625</AltitudeMeters>
            <DistanceMeters>2489.4396209123</DistanceMeters>
          </Trackpoint>
          <Trackpoint>
            <Time>2019-07-26T08:39:30.000Z</Time>
            <Position>
              <LatitudeDegrees>43.00103100948035717010498046875</LatitudeDegrees>
              <LongitudeDegrees>-7.57219187915325164794921875</LongitudeDegrees>
            </Position>
            <AltitudeMeters>371.79998779296875</AltitudeMeters>
            <DistanceMeters>2490.0979853018</DistanceMeters>
          </Trackpoint>
          <Trackpoint>
            <Time>2019-07-26T08:39:31.000Z</Time>
            <Position>
              <LatitudeDegrees>43.0010309256613254547119140625</LatitudeDegrees>
              <LongitudeDegrees>-7.57219296880066394805908203125</LongitudeDegrees>
            </Position>
            <AltitudeMeters>371.79998779296875</AltitudeMeters>
            <DistanceMeters>2490.0979853018</DistanceMeters>
          </Trackpoint>
          <Trackpoint>
            <Time>2019-07-26T08:41:22.000Z</Time>
            <Position>
              <LatitudeDegrees>43.00100368447601795196533203125</LatitudeDegrees>
              <LongitudeDegrees>-7.57222582586109638214111328125</LongitudeDegrees>
            </Position>
            <AltitudeMeters>372.600006103515625</AltitudeMeters>
            <DistanceMeters>2494.1408108439</DistanceMeters>
          </Trackpoint>
          <Trackpoint>
            <Time>2019-07-26T08:41:23.000Z</Time>
            <Position>
              <LatitudeDegrees>43.0009846575558185577392578125</LatitudeDegrees>
              <LongitudeDegrees>-7.57224828936159610748291015625</LongitudeDegrees>
            </Position>
            <AltitudeMeters>372.600006103515625</AltitudeMeters>
            <DistanceMeters>2496.9388594991</DistanceMeters>
          </Trackpoint>
          <Trackpoint>
            <Time>2019-07-26T08:41:24.000Z</Time>
            <Position>
              <LatitudeDegrees>43.00095967948436737060546875</LatitudeDegrees>
              <LongitudeDegrees>-7.572271339595317840576171875</LongitudeDegrees>
            </Position>
            <AltitudeMeters>372.600006103515625</AltitudeMeters>
            <DistanceMeters>2500.2931813753</DistanceMeters>
          </Trackpoint>
          <Trackpoint>
            <Time>2019-07-26T08:41:28.000Z</Time>
            <Position>
              <LatitudeDegrees>43.00082297064363956451416015625</LatitudeDegrees>
              <LongitudeDegrees>-7.5724156759679317474365234375</LongitudeDegrees>
            </Position>
            <AltitudeMeters>372.600006103515625</AltitudeMeters>
            <DistanceMeters>2519.5172524464</DistanceMeters>
          </Trackpoint>
          <Trackpoint>
            <Time>2019-07-26T08:41:29.000Z</Time>
            <Position>
              <LatitudeDegrees>43.00078156404197216033935546875</LatitudeDegrees>
              <LongitudeDegrees>-7.57246278226375579833984375</LongitudeDegrees>
            </Position>
            <AltitudeMeters>372.600006103515625</AltitudeMeters>
            <DistanceMeters>2525.5122256946</DistanceMeters>
          </Trackpoint>
          <Trackpoint>
            <Time>2019-07-26T08:41:33.000Z</Time>
            <Position>
              <LatitudeDegrees>43.00058391876518726348876953125</LatitudeDegrees>
              <LongitudeDegrees>-7.57271532900631427764892578125</LongitudeDegrees>
            </Position>
            <AltitudeMeters>372.399993896484375</AltitudeMeters>
            <DistanceMeters>2555.6208519371</DistanceMeters>
          </Trackpoint>
          <Trackpoint>
            <Time>2019-07-26T08:41:34.000Z</Time>
            <Position>
              <LatitudeDegrees>43.0005323700606822967529296875</LatitudeDegrees>
              <LongitudeDegrees>-7.57276344113051891326904296875</LongitudeDegrees>
            </Position>
            <AltitudeMeters>372.20001220703125</AltitudeMeters>
            <DistanceMeters>2562.5682081675</DistanceMeters>
          </Trackpoint>
          <Trackpoint>
            <Time>2019-07-26T08:41:35.000Z</Time>
            <Position>
              <LatitudeDegrees>43.00048090517520904541015625</LatitudeDegrees>
              <LongitudeDegrees>-7.57277802564203739166259765625</LongitudeDegrees>
            </Position>
            <AltitudeMeters>372.20001220703125</AltitudeMeters>
            <DistanceMeters>2568.4183354929</DistanceMeters>
          </Trackpoint>
          <Trackpoint>
            <Time>2019-07-26T08:41:37.000Z</Time>
            <Position>
              <LatitudeDegrees>43.0003865249454975128173828125</LatitudeDegrees>
              <LongitudeDegrees>-7.5727732479572296142578125</LongitudeDegrees>
            </Position>
            <AltitudeMeters>371.79998779296875</AltitudeMeters>
            <DistanceMeters>2578.9298537166</DistanceMeters>
          </Trackpoint>
          <Trackpoint>
            <Time>2019-07-26T08:41:38.000Z</Time>
            <Position>
              <LatitudeDegrees>43.00034344196319580078125</LatitudeDegrees>
              <LongitudeDegrees>-7.57277685217559337615966796875</LongitudeDegrees>
            </Position>
            <AltitudeMeters>371.600006103515625</AltitudeMeters>
            <DistanceMeters>2583.734109683</DistanceMeters>
          </Trackpoint>
          <Trackpoint>
            <Time>2019-07-26T08:41:40.000Z</Time>
            <Position>
              <LatitudeDegrees>43.0002723634243011474609375</LatitudeDegrees>
              <LongitudeDegrees>-7.5727985613048076629638671875</LongitudeDegrees>
            </Position>
            <AltitudeMeters>371.600006103515625</AltitudeMeters>
            <DistanceMeters>2591.8409522471</DistanceMeters>
          </Trackpoint>
          <Trackpoint>
            <Time>2019-07-26T08:41:42.000Z</Time>
            <Position>
              <LatitudeDegrees>43.00021662376821041107177734375</LatitudeDegrees>
              <LongitudeDegrees>-7.57282647304236888885498046875</LongitudeDegrees>
            </Position>
            <AltitudeMeters>371.600006103515625</AltitudeMeters>
            <DistanceMeters>2598.4485554137</DistanceMeters>
          </Trackpoint>
          <Trackpoint>
            <Time>2019-07-26T08:41:45.000Z</Time>
            <Position>
              <LatitudeDegrees>43.0001424439251422882080078125</LatitudeDegrees>
              <LongitudeDegrees>-7.5728414766490459442138671875</LongitudeDegrees>
            </Position>
            <AltitudeMeters>371.600006103515625</AltitudeMeters>
            <DistanceMeters>2606.794692825</DistanceMeters>
          </Trackpoint>
          <Trackpoint>
            <Time>2019-07-26T08:41:46.000Z</Time>
            <Position>
              <LatitudeDegrees>43.00011486746370792388916015625</LatitudeDegrees>
              <LongitudeDegrees>-7.57282881997525691986083984375</LongitudeDegrees>
            </Position>
            <AltitudeMeters>371.600006103515625</AltitudeMeters>
            <DistanceMeters>2610.033974972</DistanceMeters>
          </Trackpoint>
          <Trackpoint>
            <Time>2019-07-26T08:41:49.000Z</Time>
            <Position>
              <LatitudeDegrees>43.0000720359385013580322265625</LatitudeDegrees>
              <LongitudeDegrees>-7.57288179360330104827880859375</LongitudeDegrees>
            </Position>
            <AltitudeMeters>372</AltitudeMeters>
            <DistanceMeters>2616.4621652156</DistanceMeters>
          </Trackpoint>
          <Trackpoint>
            <Time>2019-07-26T08:41:52.000Z</Time>
            <Position>
              <LatitudeDegrees>43.00012827850878238677978515625</LatitudeDegrees>
              <LongitudeDegrees>-7.5729413889348506927490234375</LongitudeDegrees>
            </Position>
            <AltitudeMeters>372.600006103515625</AltitudeMeters>
            <DistanceMeters>2624.3819449461</DistanceMeters>
          </Trackpoint>
          <Trackpoint>
            <Time>2019-07-26T08:41:56.000Z</Time>
            <Position>
              <LatitudeDegrees>43.00023254938423633575439453125</LatitudeDegrees>
              <LongitudeDegrees>-7.57300701923668384552001953125</LongitudeDegrees>
            </Position>
            <AltitudeMeters>373.20001220703125</AltitudeMeters>
            <DistanceMeters>2637.1583564876</DistanceMeters>
          </Trackpoint>
          <Trackpoint>
            <Time>2019-07-26T08:41:59.000Z</Time>
            <Position>
              <LatitudeDegrees>43.00021695904433727264404296875</LatitudeDegrees>
              <LongitudeDegrees>-7.57312595844268798828125</LongitudeDegrees>
            </Position>
            <AltitudeMeters>373.399993896484375</AltitudeMeters>
            <DistanceMeters>2646.994424758</DistanceMeters>
          </Trackpoint>
          <Trackpoint>
            <Time>2019-07-26T08:42:00.000Z</Time>
            <Position>
              <LatitudeDegrees>43.00020321272313594818115234375</LatitudeDegrees>
              <LongitudeDegrees>-7.57316141389310359954833984375</LongitudeDegrees>
            </Position>
            <AltitudeMeters>373.600006103515625</AltitudeMeters>
            <DistanceMeters>2650.2628464617</DistanceMeters>
          </Trackpoint>
          <Trackpoint>
            <Time>2019-07-26T08:42:01.000Z</Time>
            <Position>
              <LatitudeDegrees>43.00018963403999805450439453125</LatitudeDegrees>
              <LongitudeDegrees>-7.57319946773350238800048828125</LongitudeDegrees>
            </Position>
            <AltitudeMeters>373.79998779296875</AltitudeMeters>
            <DistanceMeters>2653.7101034292</DistanceMeters>
          </Trackpoint>
          <Trackpoint>
            <Time>2019-07-26T08:42:03.000Z</Time>
            <Position>
              <LatitudeDegrees>43.0001595430076122283935546875</LatitudeDegrees>
              <LongitudeDegrees>-7.5732689537107944488525390625</LongitudeDegrees>
            </Position>
            <AltitudeMeters>374.399993896484375</AltitudeMeters>
            <DistanceMeters>2660.2841391654</DistanceMeters>
          </Trackpoint>
          <Trackpoint>
            <Time>2019-07-26T08:42:04.000Z</Time>
            <Position>
              <LatitudeDegrees>43.0001441203057765960693359375</LatitudeDegrees>
              <LongitudeDegrees>-7.5733004696667194366455078125</LongitudeDegrees>
            </Position>
            <AltitudeMeters>374.600006103515625</AltitudeMeters>
            <DistanceMeters>2663.3706794046</DistanceMeters>
          </Trackpoint>
          <Trackpoint>
            <Time>2019-07-26T08:42:05.000Z</Time>
            <Position>
              <LatitudeDegrees>43.000130541622638702392578125</LatitudeDegrees>
              <LongitudeDegrees>-7.57333374582231044769287109375</LongitudeDegrees>
            </Position>
            <AltitudeMeters>375.20001220703125</AltitudeMeters>
            <DistanceMeters>2666.4718132961</DistanceMeters>
          </Trackpoint>
          <Trackpoint>
            <Time>2019-07-26T08:42:07.000Z</Time>
            <Position>
              <LatitudeDegrees>43.000123165547847747802734375</LatitudeDegrees>
              <LongitudeDegrees>-7.5734114460647106170654296875</LongitudeDegrees>
            </Position>
            <AltitudeMeters>376</AltitudeMeters>
            <DistanceMeters>2672.8499395398</DistanceMeters>
          </Trackpoint>
          <Trackpoint>
            <Time>2019-07-26T08:42:09.000Z</Time>
            <Position>
              <LatitudeDegrees>43.00011813640594482421875</LatitudeDegrees>
              <LongitudeDegrees>-7.57349249906837940216064453125</LongitudeDegrees>
            </Position>
            <AltitudeMeters>377</AltitudeMeters>
            <DistanceMeters>2679.4718766591</DistanceMeters>
          </Trackpoint>
          <Trackpoint>
            <Time>2019-07-26T08:42:10.000Z</Time>
            <Position>
              <LatitudeDegrees>43.0001136101782321929931640625</LatitudeDegrees>
              <LongitudeDegrees>-7.57353432476520538330078125</LongitudeDegrees>
            </Position>
            <AltitudeMeters>377.399993896484375</AltitudeMeters>
            <DistanceMeters>2682.9138906472</DistanceMeters>
          </Trackpoint>
          <Trackpoint>
            <Time>2019-07-26T08:42:12.000Z</Time>
            <Position>
              <LatitudeDegrees>43.000107742846012115478515625</LatitudeDegrees>
              <LongitudeDegrees>-7.573620490729808807373046875</LongitudeDegrees>
            </Position>
            <AltitudeMeters>378.600006103515625</AltitudeMeters>
            <DistanceMeters>2689.9580563224</DistanceMeters>
          </Trackpoint>
          <Trackpoint>
            <Time>2019-07-26T08:42:14.000Z</Time>
            <Position>
              <LatitudeDegrees>43.00010330043733119964599609375</LatitudeDegrees>
              <LongitudeDegrees>-7.573704309761524200439453125</LongitudeDegrees>
            </Position>
            <AltitudeMeters>379.600006103515625</AltitudeMeters>
            <DistanceMeters>2696.7986598142</DistanceMeters>
          </Trackpoint>
          <Trackpoint>
            <Time>2019-07-26T08:42:15.000Z</Time>
            <Position>
              <LatitudeDegrees>43.00009961239993572235107421875</LatitudeDegrees>
              <LongitudeDegrees>-7.57374613545835018157958984375</LongitudeDegrees>
            </Position>
            <AltitudeMeters>379.79998779296875</AltitudeMeters>
            <DistanceMeters>2700.2301638114</DistanceMeters>
          </Trackpoint>
          <Trackpoint>
            <Time>2019-07-26T08:42:19.000Z</Time>
            <Position>
              <LatitudeDegrees>43.0000944994390010833740234375</LatitudeDegrees>
              <LongitudeDegrees>-7.57390907965600490570068359375</LongitudeDegrees>
            </Position>
            <AltitudeMeters>381.20001220703125</AltitudeMeters>
            <DistanceMeters>2713.506045403</DistanceMeters>
          </Trackpoint>
          <Trackpoint>
            <Time>2019-07-26T08:42:23.000Z</Time>
            <Position>
              <LatitudeDegrees>43.00008469261229038238525390625</LatitudeDegrees>
              <LongitudeDegrees>-7.57405341602861881256103515625</LongitudeDegrees>
            </Position>
            <AltitudeMeters>382.399993896484375</AltitudeMeters>
            <DistanceMeters>2725.3062055191</DistanceMeters>
          </Trackpoint>
          <Trackpoint>
            <Time>2019-07-26T08:42:27.000Z</Time>
            <Position>
              <LatitudeDegrees>43.000092320144176483154296875</LatitudeDegrees>
              <LongitudeDegrees>-7.57420026697218418121337890625</LongitudeDegrees>
            </Position>
            <AltitudeMeters>383.600006103515625</AltitudeMeters>
            <DistanceMeters>2737.2901254022</DistanceMeters>
          </Trackpoint>
          <Trackpoint>
            <Time>2019-07-26T08:42:30.000Z</Time>
            <Position>
              <LatitudeDegrees>43.00010271370410919189453125</LatitudeDegrees>
              <LongitudeDegrees>-7.5743180327117443084716796875</LongitudeDegrees>
            </Position>
            <AltitudeMeters>384.600006103515625</AltitudeMeters>
            <DistanceMeters>2746.9464481682</DistanceMeters>
          </Trackpoint>
          <Trackpoint>
            <Time>2019-07-26T08:42:31.000Z</Time>
            <Position>
              <LatitudeDegrees>43.0001025460660457611083984375</LatitudeDegrees>
              <LongitudeDegrees>-7.5743555836379528045654296875</LongitudeDegrees>
            </Position>
            <AltitudeMeters>384.79998779296875</AltitudeMeters>
            <DistanceMeters>2750.0021148782</DistanceMeters>
          </Trackpoint>
          <Trackpoint>
            <Time>2019-07-26T08:42:35.000Z</Time>
            <Position>
              <LatitudeDegrees>43.00009190104901790618896484375</LatitudeDegrees>
              <LongitudeDegrees>-7.57448248565196990966796875</LongitudeDegrees>
            </Position>
            <AltitudeMeters>385.79998779296875</AltitudeMeters>
            <DistanceMeters>2760.3996181933</DistanceMeters>
          </Trackpoint>
          <Trackpoint>
            <Time>2019-07-26T08:42:36.000Z</Time>
            <Position>
              <LatitudeDegrees>43.000089637935161590576171875</LatitudeDegrees>
              <LongitudeDegrees>-7.57451525889337062835693359375</LongitudeDegrees>
            </Position>
            <AltitudeMeters>386</AltitudeMeters>
            <DistanceMeters>2763.0772814837</DistanceMeters>
          </Trackpoint>
          <Trackpoint>
            <Time>2019-07-26T08:42:39.000Z</Time>
            <Position>
              <LatitudeDegrees>43.00009625963866710662841796875</LatitudeDegrees>
              <LongitudeDegrees>-7.57459941320121288299560546875</LongitudeDegrees>
            </Position>
            <AltitudeMeters>387</AltitudeMeters>
            <DistanceMeters>2769.9665544344</DistanceMeters>
          </Trackpoint>
          <Trackpoint>
            <Time>2019-07-26T08:42:42.000Z</Time>
            <Position>
              <LatitudeDegrees>43.00007195211946964263916015625</LatitudeDegrees>
              <LongitudeDegrees>-7.57467954419553279876708984375</LongitudeDegrees>
            </Position>
            <AltitudeMeters>387.600006103515625</AltitudeMeters>
            <DistanceMeters>2777.0280048607</DistanceMeters>
          </Trackpoint>
          <Trackpoint>
            <Time>2019-07-26T08:42:44.000Z</Time>
            <Position>
              <LatitudeDegrees>43.0000623129308223724365234375</LatitudeDegrees>
              <LongitudeDegrees>-7.5747327692806720733642578125</LongitudeDegrees>
            </Position>
            <AltitudeMeters>388</AltitudeMeters>
            <DistanceMeters>2781.4912266382</DistanceMeters>
          </Trackpoint>
          <Trackpoint>
            <Time>2019-07-26T08:42:48.000Z</Time>
            <Position>
              <LatitudeDegrees>43.000053428113460540771484375</LatitudeDegrees>
              <LongitudeDegrees>-7.574845589697360992431640625</LongitudeDegrees>
            </Position>
            <AltitudeMeters>389.399993896484375</AltitudeMeters>
            <DistanceMeters>2790.727901486</DistanceMeters>
          </Trackpoint>
          <Trackpoint>
            <Time>2019-07-26T08:42:52.000Z</Time>
            <Position>
              <LatitudeDegrees>43.0000443756580352783203125</LatitudeDegrees>
              <LongitudeDegrees>-7.57495111785829067230224609375</LongitudeDegrees>
            </Position>
            <AltitudeMeters>390.600006103515625</AltitudeMeters>
            <DistanceMeters>2799.3763766802</DistanceMeters>
          </Trackpoint>
          <Trackpoint>
            <Time>2019-07-26T08:42:55.000Z</Time>
            <Position>
              <LatitudeDegrees>43.000029623508453369140625</LatitudeDegrees>
              <LongitudeDegrees>-7.57502119056880474090576171875</LongitudeDegrees>
            </Position>
            <AltitudeMeters>391.600006103515625</AltitudeMeters>
            <DistanceMeters>2805.3115538644</DistanceMeters>
          </Trackpoint>
          <Trackpoint>
            <Time>2019-07-26T08:42:57.000Z</Time>
            <Position>
              <LatitudeDegrees>43.00000791437923908233642578125</LatitudeDegrees>
              <LongitudeDegrees>-7.575066201388835906982421875</LongitudeDegrees>
            </Position>
            <AltitudeMeters>392.79998779296875</AltitudeMeters>
            <DistanceMeters>2809.7003068826</DistanceMeters>
          </Trackpoint>
          <Trackpoint>
            <Time>2019-07-26T08:43:01.000Z</Time>
            <Position>
              <LatitudeDegrees>42.99995728768408298492431640625</LatitudeDegrees>
              <LongitudeDegrees>-7.575153373181819915771484375</LongitudeDegrees>
            </Position>
            <AltitudeMeters>394</AltitudeMeters>
            <DistanceMeters>2818.7612922059</DistanceMeters>
          </Trackpoint>
          <Trackpoint>
            <Time>2019-07-26T08:43:04.000Z</Time>
            <Position>
              <LatitudeDegrees>42.99990397877991199493408203125</LatitudeDegrees>
              <LongitudeDegrees>-7.57519670762121677398681640625</LongitudeDegrees>
            </Position>
            <AltitudeMeters>395</AltitudeMeters>
            <DistanceMeters>2825.6643142538</DistanceMeters>
          </Trackpoint>
          <Trackpoint>
            <Time>2019-07-26T08:43:05.000Z</Time>
            <Position>
              <LatitudeDegrees>42.99988411366939544677734375</LatitudeDegrees>
              <LongitudeDegrees>-7.5752078555524349212646484375</LongitudeDegrees>
            </Position>
            <AltitudeMeters>395.20001220703125</AltitudeMeters>
            <DistanceMeters>2828.0532488098</DistanceMeters>
          </Trackpoint>
          <Trackpoint>
            <Time>2019-07-26T08:43:10.000Z</Time>
            <Position>
              <LatitudeDegrees>42.99977556802332401275634765625</LatitudeDegrees>
              <LongitudeDegrees>-7.57524867542088031768798828125</LongitudeDegrees>
            </Position>
            <AltitudeMeters>396.399993896484375</AltitudeMeters>
            <DistanceMeters>2840.5830895532</DistanceMeters>
          </Trackpoint>
          <Trackpoint>
            <Time>2019-07-26T08:43:11.000Z</Time>
            <Position>
              <LatitudeDegrees>42.99975411035120487213134765625</LatitudeDegrees>
              <LongitudeDegrees>-7.5752537883818149566650390625</LongitudeDegrees>
            </Position>
            <AltitudeMeters>396.600006103515625</AltitudeMeters>
            <DistanceMeters>2843.0058049076</DistanceMeters>
          </Trackpoint>
          <Trackpoint>
            <Time>2019-07-26T08:43:15.000Z</Time>
            <Position>
              <LatitudeDegrees>42.9996713809669017791748046875</LatitudeDegrees>
              <LongitudeDegrees>-7.57528874091804027557373046875</LongitudeDegrees>
            </Position>
            <AltitudeMeters>397.399993896484375</AltitudeMeters>
            <DistanceMeters>2852.642938103</DistanceMeters>
          </Trackpoint>
          <Trackpoint>
            <Time>2019-07-26T08:43:20.000Z</Time>
            <Position>
              <LatitudeDegrees>42.99956970848143100738525390625</LatitudeDegrees>
              <LongitudeDegrees>-7.57533132098615169525146484375</LongitudeDegrees>
            </Position>
            <AltitudeMeters>398.399993896484375</AltitudeMeters>
            <DistanceMeters>2864.4782473849</DistanceMeters>
          </Trackpoint>
          <Trackpoint>
            <Time>2019-07-26T08:43:21.000Z</Time>
            <Position>
              <LatitudeDegrees>42.9995526932179927825927734375</LatitudeDegrees>
              <LongitudeDegrees>-7.57534691132605075836181640625</LongitudeDegrees>
            </Position>
            <AltitudeMeters>398.600006103515625</AltitudeMeters>
            <DistanceMeters>2866.7549256404</DistanceMeters>
          </Trackpoint>
          <Trackpoint>
            <Time>2019-07-26T08:43:23.000Z</Time>
            <Position>
              <LatitudeDegrees>42.999525703489780426025390625</LatitudeDegrees>
              <LongitudeDegrees>-7.57536266930401325225830078125</LongitudeDegrees>
            </Position>
            <AltitudeMeters>399</AltitudeMeters>
            <DistanceMeters>2870.0205833506</DistanceMeters>
          </Trackpoint>
          <Trackpoint>
            <Time>2019-07-26T08:43:25.000Z</Time>
            <Position>
              <LatitudeDegrees>42.999503575265407562255859375</LatitudeDegrees>
              <LongitudeDegrees>-7.57540407590568065643310546875</LongitudeDegrees>
            </Position>
            <AltitudeMeters>399.79998779296875</AltitudeMeters>
            <DistanceMeters>2874.1941929946</DistanceMeters>
          </Trackpoint>
          <Trackpoint>
            <Time>2019-07-26T08:43:29.000Z</Time>
            <Position>
              <LatitudeDegrees>42.9994906671345233917236328125</LatitudeDegrees>
              <LongitudeDegrees>-7.57551622577011585235595703125</LongitudeDegrees>
            </Position>
            <AltitudeMeters>400.79998779296875</AltitudeMeters>
            <DistanceMeters>2883.4347775461</DistanceMeters>
          </Trackpoint>
          <Trackpoint>
            <Time>2019-07-26T08:43:31.000Z</Time>
            <Position>
              <LatitudeDegrees>42.9994873143732547760009765625</LatitudeDegrees>
              <LongitudeDegrees>-7.575573138892650604248046875</LongitudeDegrees>
            </Position>
            <AltitudeMeters>401.399993896484375</AltitudeMeters>
            <DistanceMeters>2888.0823514136</DistanceMeters>
          </Trackpoint>
          <Trackpoint>
            <Time>2019-07-26T08:43:33.000Z</Time>
            <Position>
              <LatitudeDegrees>42.9994886554777622222900390625</LatitudeDegrees>
              <LongitudeDegrees>-7.57562778890132904052734375</LongitudeDegrees>
            </Position>
            <AltitudeMeters>402</AltitudeMeters>
            <DistanceMeters>2892.5324028337</DistanceMeters>
          </Trackpoint>
          <Trackpoint>
            <Time>2019-07-26T08:43:37.000Z</Time>
            <Position>
              <LatitudeDegrees>42.9994782619178295135498046875</LatitudeDegrees>
              <LongitudeDegrees>-7.57573247887194156646728515625</LongitudeDegrees>
            </Position>
            <AltitudeMeters>403.20001220703125</AltitudeMeters>
            <DistanceMeters>2901.1332392017</DistanceMeters>
          </Trackpoint>
          <Trackpoint>
            <Time>2019-07-26T08:43:38.000Z</Time>
            <Position>
              <LatitudeDegrees>42.99947583116590976715087890625</LatitudeDegrees>
              <LongitudeDegrees>-7.57575787603855133056640625</LongitudeDegrees>
            </Position>
            <AltitudeMeters>403.399993896484375</AltitudeMeters>
            <DistanceMeters>2903.2151702028</DistanceMeters>
          </Trackpoint>
          <Trackpoint>
            <Time>2019-07-26T08:43:43.000Z</Time>
            <Position>
              <LatitudeDegrees>42.999466024339199066162109375</LatitudeDegrees>
              <LongitudeDegrees>-7.5758908130228519439697265625</LongitudeDegrees>
            </Position>
            <AltitudeMeters>404.20001220703125</AltitudeMeters>
            <DistanceMeters>2914.0914747873</DistanceMeters>
          </Trackpoint>
          <Trackpoint>
            <Time>2019-07-26T08:43:46.000Z</Time>
            <Position>
              <LatitudeDegrees>42.9994651861488819122314453125</LatitudeDegrees>
              <LongitudeDegrees>-7.5759628973901271820068359375</LongitudeDegrees>
            </Position>
            <AltitudeMeters>404.79998779296875</AltitudeMeters>
            <DistanceMeters>2919.960095712</DistanceMeters>
          </Trackpoint>
          <Trackpoint>
            <Time>2019-07-26T08:43:48.000Z</Time>
            <Position>
              <LatitudeDegrees>42.99946610815823078155517578125</LatitudeDegrees>
              <LongitudeDegrees>-7.57601545192301273345947265625</LongitudeDegrees>
            </Position>
            <AltitudeMeters>405.399993896484375</AltitudeMeters>
            <DistanceMeters>2924.2394642435</DistanceMeters>
          </Trackpoint>
          <Trackpoint>
            <Time>2019-07-26T08:43:52.000Z</Time>
            <Position>
              <LatitudeDegrees>42.99945990554988384246826171875</LatitudeDegrees>
              <LongitudeDegrees>-7.57612324319779872894287109375</LongitudeDegrees>
            </Position>
            <AltitudeMeters>406.600006103515625</AltitudeMeters>
            <DistanceMeters>2933.0411132828</DistanceMeters>
          </Trackpoint>
          <Trackpoint>
            <Time>2019-07-26T08:43:55.000Z</Time>
            <Position>
              <LatitudeDegrees>42.99944733269512653350830078125</LatitudeDegrees>
              <LongitudeDegrees>-7.57619641721248626708984375</LongitudeDegrees>
            </Position>
            <AltitudeMeters>407.399993896484375</AltitudeMeters>
            <DistanceMeters>2939.1598302183</DistanceMeters>
          </Trackpoint>
          <Trackpoint>
            <Time>2019-07-26T08:43:56.000Z</Time>
            <Position>
              <LatitudeDegrees>42.99944213591516017913818359375</LatitudeDegrees>
              <LongitudeDegrees>-7.576221562922000885009765625</LongitudeDegrees>
            </Position>
            <AltitudeMeters>407.600006103515625</AltitudeMeters>
            <DistanceMeters>2941.286815949</DistanceMeters>
          </Trackpoint>
          <Trackpoint>
            <Time>2019-07-26T08:44:01.000Z</Time>
            <Position>
              <LatitudeDegrees>42.99942151643335819244384765625</LatitudeDegrees>
              <LongitudeDegrees>-7.57634184323251247406005859375</LongitudeDegrees>
            </Position>
            <AltitudeMeters>408.79998779296875</AltitudeMeters>
            <DistanceMeters>2951.3434981142</DistanceMeters>
          </Trackpoint>
          <Trackpoint>
            <Time>2019-07-26T08:44:03.000Z</Time>
            <Position>
              <LatitudeDegrees>42.9994279704988002777099609375</LatitudeDegrees>
              <LongitudeDegrees>-7.5763876922428607940673828125</LongitudeDegrees>
            </Position>
            <AltitudeMeters>409.399993896484375</AltitudeMeters>
            <DistanceMeters>2955.1457543374</DistanceMeters>
          </Trackpoint>
          <Trackpoint>
            <Time>2019-07-26T08:44:05.000Z</Time>
            <Position>
              <LatitudeDegrees>42.99944020807743072509765625</LatitudeDegrees>
              <LongitudeDegrees>-7.57643655873835086822509765625</LongitudeDegrees>
            </Position>
            <AltitudeMeters>410</AltitudeMeters>
            <DistanceMeters>2959.3506193385</DistanceMeters>
          </Trackpoint>
          <Trackpoint>
            <Time>2019-07-26T08:44:08.000Z</Time>
            <Position>
              <LatitudeDegrees>42.9994423873722553253173828125</LatitudeDegrees>
              <LongitudeDegrees>-7.5765127502381801605224609375</LongitudeDegrees>
            </Position>
            <AltitudeMeters>410.600006103515625</AltitudeMeters>
            <DistanceMeters>2965.5572533788</DistanceMeters>
          </Trackpoint>
          <Trackpoint>
            <Time>2019-07-26T08:44:10.000Z</Time>
            <Position>
              <LatitudeDegrees>42.99944364465773105621337890625</LatitudeDegrees>
              <LongitudeDegrees>-7.57656061090528964996337890625</LongitudeDegrees>
            </Position>
            <AltitudeMeters>411</AltitudeMeters>
            <DistanceMeters>2969.454507358</DistanceMeters>
          </Trackpoint>
          <Trackpoint>
            <Time>2019-07-26T08:44:13.000Z</Time>
            <Position>
              <LatitudeDegrees>42.99945018254220485687255859375</LatitudeDegrees>
              <LongitudeDegrees>-7.576631270349025726318359375</LongitudeDegrees>
            </Position>
            <AltitudeMeters>412</AltitudeMeters>
            <DistanceMeters>2975.2519157897</DistanceMeters>
          </Trackpoint>
          <Trackpoint>
            <Time>2019-07-26T08:44:14.000Z</Time>
            <Position>
              <LatitudeDegrees>42.9994514398276805877685546875</LatitudeDegrees>
              <LongitudeDegrees>-7.57665599696338176727294921875</LongitudeDegrees>
            </Position>
            <AltitudeMeters>412.20001220703125</AltitudeMeters>
            <DistanceMeters>2977.2722114495</DistanceMeters>
          </Trackpoint>
          <Trackpoint>
            <Time>2019-07-26T08:44:18.000Z</Time>
            <Position>
              <LatitudeDegrees>42.99945655278861522674560546875</LatitudeDegrees>
              <LongitudeDegrees>-7.57674761116504669189453125</LongitudeDegrees>
            </Position>
            <AltitudeMeters>413.399993896484375</AltitudeMeters>
            <DistanceMeters>2984.752208351</DistanceMeters>
          </Trackpoint>
          <Trackpoint>
            <Time>2019-07-26T08:44:21.000Z</Time>
            <Position>
              <LatitudeDegrees>42.99946342594921588897705078125</LatitudeDegrees>
              <LongitudeDegrees>-7.576813995838165283203125</LongitudeDegrees>
            </Position>
            <AltitudeMeters>414.399993896484375</AltitudeMeters>
            <DistanceMeters>2990.2102503249</DistanceMeters>
          </Trackpoint>
          <Trackpoint>
            <Time>2019-07-26T08:44:22.000Z</Time>
            <Position>
              <LatitudeDegrees>42.99946166574954986572265625</LatitudeDegrees>
              <LongitudeDegrees>-7.57683604024350643157958984375</LongitudeDegrees>
            </Position>
            <AltitudeMeters>414.600006103515625</AltitudeMeters>
            <DistanceMeters>2992.0157578979</DistanceMeters>
          </Trackpoint>
          <Trackpoint>
            <Time>2019-07-26T08:44:26.000Z</Time>
            <Position>
              <LatitudeDegrees>42.9994408786296844482421875</LatitudeDegrees>
              <LongitudeDegrees>-7.576920278370380401611328125</LongitudeDegrees>
            </Position>
            <AltitudeMeters>415.79998779296875</AltitudeMeters>
            <DistanceMeters>2999.2527768543</DistanceMeters>
          </Trackpoint>
          <Trackpoint>
            <Time>2019-07-26T08:44:28.000Z</Time>
            <Position>
              <LatitudeDegrees>42.99943660385906696319580078125</LatitudeDegrees>
              <LongitudeDegrees>-7.57696109823882579803466796875</LongitudeDegrees>
            </Position>
            <AltitudeMeters>416.399993896484375</AltitudeMeters>
            <DistanceMeters>3002.6097897232</DistanceMeters>
          </Trackpoint>
          <Trackpoint>
            <Time>2019-07-26T08:44:31.000Z</Time>
            <Position>
              <LatitudeDegrees>42.99944347701966762542724609375</LatitudeDegrees>
              <LongitudeDegrees>-7.577022202312946319580078125</LongitudeDegrees>
            </Position>
            <AltitudeMeters>417</AltitudeMeters>
            <DistanceMeters>3007.6417211962</DistanceMeters>
          </Trackpoint>
          <Trackpoint>
            <Time>2019-07-26T08:44:34.000Z</Time>
            <Position>
              <LatitudeDegrees>42.99943258054554462432861328125</LatitudeDegrees>
              <LongitudeDegrees>-7.5770937837660312652587890625</LongitudeDegrees>
            </Position>
            <AltitudeMeters>417.600006103515625</AltitudeMeters>
            <DistanceMeters>3013.5928521654</DistanceMeters>
          </Trackpoint>
          <Trackpoint>
            <Time>2019-07-26T08:44:36.000Z</Time>
            <Position>
              <LatitudeDegrees>42.99941363744437694549560546875</LatitudeDegrees>
              <LongitudeDegrees>-7.57713275961577892303466796875</LongitudeDegrees>
            </Position>
            <AltitudeMeters>418</AltitudeMeters>
            <DistanceMeters>3017.4022265032</DistanceMeters>
          </Trackpoint>
          <Trackpoint>
            <Time>2019-07-26T08:44:37.000Z</Time>
            <Position>
              <LatitudeDegrees>42.99940743483603000640869140625</LatitudeDegrees>
              <LongitudeDegrees>-7.5771548040211200714111328125</LongitudeDegrees>
            </Position>
            <AltitudeMeters>418.399993896484375</AltitudeMeters>
            <DistanceMeters>3019.3240228674</DistanceMeters>
          </Trackpoint>
          <Trackpoint>
            <Time>2019-07-26T08:44:39.000Z</Time>
            <Position>
              <LatitudeDegrees>42.99940533936023712158203125</LatitudeDegrees>
              <LongitudeDegrees>-7.577200569212436676025390625</LongitudeDegrees>
            </Position>
            <AltitudeMeters>418.79998779296875</AltitudeMeters>
            <DistanceMeters>3023.0579802895</DistanceMeters>
          </Trackpoint>
          <Trackpoint>
            <Time>2019-07-26T08:44:41.000Z</Time>
            <Position>
              <LatitudeDegrees>42.99939419142901897430419921875</LatitudeDegrees>
              <LongitudeDegrees>-7.57724474184215068817138671875</LongitudeDegrees>
            </Position>
            <AltitudeMeters>419.20001220703125</AltitudeMeters>
            <DistanceMeters>3026.8614237902</DistanceMeters>
          </Trackpoint>
          <Trackpoint>
            <Time>2019-07-26T08:44:44.000Z</Time>
            <Position>
              <LatitudeDegrees>42.99935194663703441619873046875</LatitudeDegrees>
              <LongitudeDegrees>-7.57728799246251583099365234375</LongitudeDegrees>
            </Position>
            <AltitudeMeters>419.79998779296875</AltitudeMeters>
            <DistanceMeters>3032.7361963108</DistanceMeters>
          </Trackpoint>
          <Trackpoint>
            <Time>2019-07-26T08:44:47.000Z</Time>
            <Position>
              <LatitudeDegrees>42.99932730384171009063720703125</LatitudeDegrees>
              <LongitudeDegrees>-7.57734850980341434478759765625</LongitudeDegrees>
            </Position>
            <AltitudeMeters>420.399993896484375</AltitudeMeters>
            <DistanceMeters>3038.3740921135</DistanceMeters>
          </Trackpoint>
          <Trackpoint>
            <Time>2019-07-26T08:44:48.000Z</Time>
            <Position>
              <LatitudeDegrees>42.9993193410336971282958984375</LatitudeDegrees>
              <LongitudeDegrees>-7.57736979983747005462646484375</LongitudeDegrees>
            </Position>
            <AltitudeMeters>421</AltitudeMeters>
            <DistanceMeters>3040.3215602407</DistanceMeters>
          </Trackpoint>
          <Trackpoint>
            <Time>2019-07-26T08:44:51.000Z</Time>
            <Position>
              <LatitudeDegrees>42.99928304739296436309814453125</LatitudeDegrees>
              <LongitudeDegrees>-7.57742662914097309112548828125</LongitudeDegrees>
            </Position>
            <AltitudeMeters>421.399993896484375</AltitudeMeters>
            <DistanceMeters>3046.463109663</DistanceMeters>
          </Trackpoint>
          <Trackpoint>
            <Time>2019-07-26T08:44:55.000Z</Time>
            <Position>
              <LatitudeDegrees>42.9992254637181758880615234375</LatitudeDegrees>
              <LongitudeDegrees>-7.5774843804538249969482421875</LongitudeDegrees>
            </Position>
            <AltitudeMeters>422.600006103515625</AltitudeMeters>
            <DistanceMeters>3054.4113431021</DistanceMeters>
          </Trackpoint>
          <Trackpoint>
            <Time>2019-07-26T08:44:57.000Z</Time>
            <Position>
              <LatitudeDegrees>42.99921146593987941741943359375</LatitudeDegrees>
              <LongitudeDegrees>-7.57752813398838043212890625</LongitudeDegrees>
            </Position>
            <AltitudeMeters>423.20001220703125</AltitudeMeters>
            <DistanceMeters>3058.299317892</DistanceMeters>
          </Trackpoint>
          <Trackpoint>
            <Time>2019-07-26T08:44:59.000Z</Time>
            <Position>
              <LatitudeDegrees>42.99919151701033115386962890625</LatitudeDegrees>
              <LongitudeDegrees>-7.577567361295223236083984375</LongitudeDegrees>
            </Position>
            <AltitudeMeters>423.600006103515625</AltitudeMeters>
            <DistanceMeters>3062.187292682</DistanceMeters>
          </Trackpoint>
          <Trackpoint>
            <Time>2019-07-26T08:45:04.000Z</Time>
            <Position>
              <LatitudeDegrees>42.99912965856492519378662109375</LatitudeDegrees>
              <LongitudeDegrees>-7.5776486657559871673583984375</LongitudeDegrees>
            </Position>
            <AltitudeMeters>424.600006103515625</AltitudeMeters>
            <DistanceMeters>3071.737359283</DistanceMeters>
          </Trackpoint>
          <Trackpoint>
            <Time>2019-07-26T08:45:05.000Z</Time>
            <Position>
              <LatitudeDegrees>42.9991164989769458770751953125</LatitudeDegrees>
              <LongitudeDegrees>-7.5776661001145839691162109375</LongitudeDegrees>
            </Position>
            <AltitudeMeters>424.79998779296875</AltitudeMeters>
            <DistanceMeters>3073.7798810863</DistanceMeters>
          </Trackpoint>
          <Trackpoint>
            <Time>2019-07-26T08:45:09.000Z</Time>
            <Position>
              <LatitudeDegrees>42.99905908294022083282470703125</LatitudeDegrees>
              <LongitudeDegrees>-7.577716894447803497314453125</LongitudeDegrees>
            </Position>
            <AltitudeMeters>425.600006103515625</AltitudeMeters>
            <DistanceMeters>3081.3927012351</DistanceMeters>
          </Trackpoint>
          <Trackpoint>
            <Time>2019-07-26T08:45:13.000Z</Time>
            <Position>
              <LatitudeDegrees>42.999005019664764404296875</LatitudeDegrees>
              <LongitudeDegrees>-7.57778353057801723480224609375</LongitudeDegrees>
            </Position>
            <AltitudeMeters>426.399993896484375</AltitudeMeters>
            <DistanceMeters>3089.4945297738</DistanceMeters>
          </Trackpoint>
          <Trackpoint>
            <Time>2019-07-26T08:45:16.000Z</Time>
            <Position>
              <LatitudeDegrees>42.99896034412086009979248046875</LatitudeDegrees>
              <LongitudeDegrees>-7.577834241092205047607421875</LongitudeDegrees>
            </Position>
            <AltitudeMeters>427.20001220703125</AltitudeMeters>
            <DistanceMeters>3095.9577436516</DistanceMeters>
          </Trackpoint>
          <Trackpoint>
            <Time>2019-07-26T08:45:20.000Z</Time>
            <Position>
              <LatitudeDegrees>42.99890385009348392486572265625</LatitudeDegrees>
              <LongitudeDegrees>-7.57788981311023235321044921875</LongitudeDegrees>
            </Position>
            <AltitudeMeters>427.79998779296875</AltitudeMeters>
            <DistanceMeters>3103.7040239183</DistanceMeters>
          </Trackpoint>
          <Trackpoint>
            <Time>2019-07-26T08:45:23.000Z</Time>
            <Position>
              <LatitudeDegrees>42.99885774962604045867919921875</LatitudeDegrees>
              <LongitudeDegrees>-7.577933482825756072998046875</LongitudeDegrees>
            </Position>
            <AltitudeMeters>428.20001220703125</AltitudeMeters>
            <DistanceMeters>3109.9462014114</DistanceMeters>
          </Trackpoint>
          <Trackpoint>
            <Time>2019-07-26T08:45:28.000Z</Time>
            <Position>
              <LatitudeDegrees>42.99878172576427459716796875</LatitudeDegrees>
              <LongitudeDegrees>-7.5780281983315944671630859375</LongitudeDegrees>
            </Position>
            <AltitudeMeters>429.20001220703125</AltitudeMeters>
            <DistanceMeters>3121.393272621</DistanceMeters>
          </Trackpoint>
          <Trackpoint>
            <Time>2019-07-26T08:45:29.000Z</Time>
            <Position>
              <LatitudeDegrees>42.99876563251018524169921875</LatitudeDegrees>
              <LongitudeDegrees>-7.57804420776665210723876953125</LongitudeDegrees>
            </Position>
            <AltitudeMeters>429.399993896484375</AltitudeMeters>
            <DistanceMeters>3123.6055794335</DistanceMeters>
          </Trackpoint>
          <Trackpoint>
            <Time>2019-07-26T08:45:34.000Z</Time>
            <Position>
              <LatitudeDegrees>42.99870050512254238128662109375</LatitudeDegrees>
              <LongitudeDegrees>-7.57812651805579662322998046875</LongitudeDegrees>
            </Position>
            <AltitudeMeters>430.600006103515625</AltitudeMeters>
            <DistanceMeters>3133.4764722417</DistanceMeters>
          </Trackpoint>
          <Trackpoint>
            <Time>2019-07-26T08:45:35.000Z</Time>
            <Position>
              <LatitudeDegrees>42.99868290312588214874267578125</LatitudeDegrees>
              <LongitudeDegrees>-7.57814696989953517913818359375</LongitudeDegrees>
            </Position>
            <AltitudeMeters>430.600006103515625</AltitudeMeters>
            <DistanceMeters>3136.0492229162</DistanceMeters>
          </Trackpoint>
          <Trackpoint>
            <Time>2019-07-26T08:45:39.000Z</Time>
            <Position>
              <LatitudeDegrees>42.998622469604015350341796875</LatitudeDegrees>
              <LongitudeDegrees>-7.57820715196430683135986328125</LongitudeDegrees>
            </Position>
            <AltitudeMeters>431.600006103515625</AltitudeMeters>
            <DistanceMeters>3144.3709809185</DistanceMeters>
          </Trackpoint>
          <Trackpoint>
            <Time>2019-07-26T08:45:41.000Z</Time>
            <Position>
              <LatitudeDegrees>42.99859187565743923187255859375</LatitudeDegrees>
              <LongitudeDegrees>-7.57823380641639232635498046875</LongitudeDegrees>
            </Position>
            <AltitudeMeters>432</AltitudeMeters>
            <DistanceMeters>3148.4093367792</DistanceMeters>
          </Trackpoint>
          <Trackpoint>
            <Time>2019-07-26T08:45:44.000Z</Time>
            <Position>
              <LatitudeDegrees>42.99854275770485401153564453125</LatitudeDegrees>
              <LongitudeDegrees>-7.57828376255929470062255859375</LongitudeDegrees>
            </Position>
            <AltitudeMeters>433</AltitudeMeters>
            <DistanceMeters>3155.2228250928</DistanceMeters>
          </Trackpoint>
          <Trackpoint>
            <Time>2019-07-26T08:45:49.000Z</Time>
            <Position>
              <LatitudeDegrees>42.9984509758651256561279296875</LatitudeDegrees>
              <LongitudeDegrees>-7.57839691825211048126220703125</LongitudeDegrees>
            </Position>
            <AltitudeMeters>434</AltitudeMeters>
            <DistanceMeters>3168.9777573592</DistanceMeters>
          </Trackpoint>
          <Trackpoint>
            <Time>2019-07-26T08:45:50.000Z</Time>
            <Position>
              <LatitudeDegrees>42.99843563698232173919677734375</LatitudeDegrees>
              <LongitudeDegrees>-7.5784139335155487060546875</LongitudeDegrees>
            </Position>
            <AltitudeMeters>434.20001220703125</AltitudeMeters>
            <DistanceMeters>3171.1736764882</DistanceMeters>
          </Trackpoint>
          <Trackpoint>
            <Time>2019-07-26T08:45:55.000Z</Time>
            <Position>
              <LatitudeDegrees>42.9983557574450969696044921875</LatitudeDegrees>
              <LongitudeDegrees>-7.57851426489651203155517578125</LongitudeDegrees>
            </Position>
            <AltitudeMeters>435.20001220703125</AltitudeMeters>
            <DistanceMeters>3183.2461838419</DistanceMeters>
          </Trackpoint>
          <Trackpoint>
            <Time>2019-07-26T08:46:00.000Z</Time>
            <Position>
              <LatitudeDegrees>42.9982714354991912841796875</LatitudeDegrees>
              <LongitudeDegrees>-7.5786441005766391754150390625</LongitudeDegrees>
            </Position>
            <AltitudeMeters>436.399993896484375</AltitudeMeters>
            <DistanceMeters>3197.3805890733</DistanceMeters>
          </Trackpoint>
          <Trackpoint>
            <Time>2019-07-26T08:46:01.000Z</Time>
            <Position>
              <LatitudeDegrees>42.9982477985322475433349609375</LatitudeDegrees>
              <LongitudeDegrees>-7.57867486216127872467041015625</LongitudeDegrees>
            </Position>
            <AltitudeMeters>436.399993896484375</AltitudeMeters>
            <DistanceMeters>3201.0115547311</DistanceMeters>
          </Trackpoint>
          <Trackpoint>
            <Time>2019-07-26T08:46:07.000Z</Time>
            <Position>
              <LatitudeDegrees>42.9981049709022045135498046875</LatitudeDegrees>
              <LongitudeDegrees>-7.578849457204341888427734375</LongitudeDegrees>
            </Position>
            <AltitudeMeters>437.399993896484375</AltitudeMeters>
            <DistanceMeters>3222.3352614741</DistanceMeters>
          </Trackpoint>
          <Trackpoint>
            <Time>2019-07-26T08:46:12.000Z</Time>
            <Position>
              <LatitudeDegrees>42.99801017157733440399169921875</LatitudeDegrees>
              <LongitudeDegrees>-7.57901608943939208984375</LongitudeDegrees>
            </Position>
            <AltitudeMeters>438.20001220703125</AltitudeMeters>
            <DistanceMeters>3239.5203902225</DistanceMeters>
          </Trackpoint>
          <Trackpoint>
            <Time>2019-07-26T08:46:13.000Z</Time>
            <Position>
              <LatitudeDegrees>42.997983433306217193603515625</LatitudeDegrees>
              <LongitudeDegrees>-7.5790434144437313079833984375</LongitudeDegrees>
            </Position>
            <AltitudeMeters>438.399993896484375</AltitudeMeters>
            <DistanceMeters>3243.2361656305</DistanceMeters>
          </Trackpoint>
          <Trackpoint>
            <Time>2019-07-26T08:46:18.000Z</Time>
            <Position>
              <LatitudeDegrees>42.9978692717850208282470703125</LatitudeDegrees>
              <LongitudeDegrees>-7.579211555421352386474609375</LongitudeDegrees>
            </Position>
            <AltitudeMeters>439.600006103515625</AltitudeMeters>
            <DistanceMeters>3261.9122394343</DistanceMeters>
          </Trackpoint>
          <Trackpoint>
            <Time>2019-07-26T08:46:19.000Z</Time>
            <Position>
              <LatitudeDegrees>42.99784789793193340301513671875</LatitudeDegrees>
              <LongitudeDegrees>-7.57924784906208515167236328125</LongitudeDegrees>
            </Position>
            <AltitudeMeters>439.600006103515625</AltitudeMeters>
            <DistanceMeters>3265.7061743114</DistanceMeters>
          </Trackpoint>
          <Trackpoint>
            <Time>2019-07-26T08:46:24.000Z</Time>
            <Position>
              <LatitudeDegrees>42.99775804392993450164794921875</LatitudeDegrees>
              <LongitudeDegrees>-7.57941297255456447601318359375</LongitudeDegrees>
            </Position>
            <AltitudeMeters>440.79998779296875</AltitudeMeters>
            <DistanceMeters>3282.460545572</DistanceMeters>
          </Trackpoint>
          <Trackpoint>
            <Time>2019-07-26T08:46:26.000Z</Time>
            <Position>
              <LatitudeDegrees>42.99773038364946842193603515625</LatitudeDegrees>
              <LongitudeDegrees>-7.57947633974254131317138671875</LongitudeDegrees>
            </Position>
            <AltitudeMeters>441</AltitudeMeters>
            <DistanceMeters>3288.4690599992</DistanceMeters>
          </Trackpoint>
          <Trackpoint>
            <Time>2019-07-26T08:46:31.000Z</Time>
            <Position>
              <LatitudeDegrees>42.9976389370858669281005859375</LatitudeDegrees>
              <LongitudeDegrees>-7.57963459007441997528076171875</LongitudeDegrees>
            </Position>
            <AltitudeMeters>442</AltitudeMeters>
            <DistanceMeters>3304.8869703977</DistanceMeters>
          </Trackpoint>
          <Trackpoint>
            <Time>2019-07-26T08:46:33.000Z</Time>
            <Position>
              <LatitudeDegrees>42.9975983686745166778564453125</LatitudeDegrees>
              <LongitudeDegrees>-7.579705752432346343994140625</LongitudeDegrees>
            </Position>
            <AltitudeMeters>442.20001220703125</AltitudeMeters>
            <DistanceMeters>3312.2311277081</DistanceMeters>
          </Trackpoint>
          <Trackpoint>
            <Time>2019-07-26T08:46:37.000Z</Time>
            <Position>
              <LatitudeDegrees>42.99751128070056438446044921875</LatitudeDegrees>
              <LongitudeDegrees>-7.57983877323567867279052734375</LongitudeDegrees>
            </Position>
            <AltitudeMeters>443</AltitudeMeters>
            <DistanceMeters>3326.7643134574</DistanceMeters>
          </Trackpoint>
          <Trackpoint>
            <Time>2019-07-26T08:46:42.000Z</Time>
            <Position>
              <LatitudeDegrees>42.997394017875194549560546875</LatitudeDegrees>
              <LongitudeDegrees>-7.58008101023733615875244140625</LongitudeDegrees>
            </Position>
            <AltitudeMeters>444</AltitudeMeters>
            <DistanceMeters>3350.4116497528</DistanceMeters>
          </Trackpoint>
          <Trackpoint>
            <Time>2019-07-26T08:46:47.000Z</Time>
            <Position>
              <LatitudeDegrees>42.99727340228855609893798828125</LatitudeDegrees>
              <LongitudeDegrees>-7.5803218223154544830322265625</LongitudeDegrees>
            </Position>
            <AltitudeMeters>444.79998779296875</AltitudeMeters>
            <DistanceMeters>3374.1709889444</DistanceMeters>
          </Trackpoint>
          <Trackpoint>
            <Time>2019-07-26T08:46:49.000Z</Time>
            <Position>
              <LatitudeDegrees>42.9972238652408123016357421875</LatitudeDegrees>
              <LongitudeDegrees>-7.580421231687068939208984375</LongitudeDegrees>
            </Position>
            <AltitudeMeters>445.20001220703125</AltitudeMeters>
            <DistanceMeters>3383.9628912969</DistanceMeters>
          </Trackpoint>
          <Trackpoint>
            <Time>2019-07-26T08:46:50.000Z</Time>
            <Position>
              <LatitudeDegrees>42.99720182083547115325927734375</LatitudeDegrees>
              <LongitudeDegrees>-7.58047613315284252166748046875</LongitudeDegrees>
            </Position>
            <AltitudeMeters>445.399993896484375</AltitudeMeters>
            <DistanceMeters>3389.0625599292</DistanceMeters>
          </Trackpoint>
          <Trackpoint>
            <Time>2019-07-26T08:46:55.000Z</Time>
            <Position>
              <LatitudeDegrees>42.9970672912895679473876953125</LatitudeDegrees>
              <LongitudeDegrees>-7.58076732046902179718017578125</LongitudeDegrees>
            </Position>
            <AltitudeMeters>445.600006103515625</AltitudeMeters>
            <DistanceMeters>3417.0997890112</DistanceMeters>
          </Trackpoint>
          <Trackpoint>
            <Time>2019-07-26T08:47:04.000Z</Time>
            <Position>
              <LatitudeDegrees>42.99681055359542369842529296875</LatitudeDegrees>
              <LongitudeDegrees>-7.58127660490572452545166015625</LongitudeDegrees>
            </Position>
            <AltitudeMeters>446</AltitudeMeters>
            <DistanceMeters>3467.4521127215</DistanceMeters>
          </Trackpoint>
          <Trackpoint>
            <Time>2019-07-26T08:47:14.000Z</Time>
            <Position>
              <LatitudeDegrees>42.9965476132929325103759765625</LatitudeDegrees>
              <LongitudeDegrees>-7.58178538642823696136474609375</LongitudeDegrees>
            </Position>
            <AltitudeMeters>446.20001220703125</AltitudeMeters>
            <DistanceMeters>3518.166117222</DistanceMeters>
          </Trackpoint>
          <Trackpoint>
            <Time>2019-07-26T08:47:23.000Z</Time>
            <Position>
              <LatitudeDegrees>42.9962705075740814208984375</LatitudeDegrees>
              <LongitudeDegrees>-7.58225125260651111602783203125</LongitudeDegrees>
            </Position>
            <AltitudeMeters>447</AltitudeMeters>
            <DistanceMeters>3567.0486571346</DistanceMeters>
          </Trackpoint>
          <Trackpoint>
            <Time>2019-07-26T08:47:30.000Z</Time>
            <Position>
              <LatitudeDegrees>42.9960376583039760589599609375</LatitudeDegrees>
              <LongitudeDegrees>-7.58270370773971080780029296875</LongitudeDegrees>
            </Position>
            <AltitudeMeters>447.20001220703125</AltitudeMeters>
            <DistanceMeters>3612.0856057521</DistanceMeters>
          </Trackpoint>
          <Trackpoint>
            <Time>2019-07-26T08:47:33.000Z</Time>
            <Position>
              <LatitudeDegrees>42.9960108362138271331787109375</LatitudeDegrees>
              <LongitudeDegrees>-7.5829547457396984100341796875</LongitudeDegrees>
            </Position>
            <AltitudeMeters>447.20001220703125</AltitudeMeters>
            <DistanceMeters>3632.7385641578</DistanceMeters>
          </Trackpoint>
          <Trackpoint>
            <Time>2019-07-26T08:47:34.000Z</Time>
            <Position>
              <LatitudeDegrees>42.99601376987993717193603515625</LatitudeDegrees>
              <LongitudeDegrees>-7.583052814006805419921875</LongitudeDegrees>
            </Position>
            <AltitudeMeters>447.20001220703125</AltitudeMeters>
            <DistanceMeters>3640.7287231336</DistanceMeters>
          </Trackpoint>
          <Trackpoint>
            <Time>2019-07-26T08:47:35.000Z</Time>
            <Position>
              <LatitudeDegrees>42.99602298997342586517333984375</LatitudeDegrees>
              <LongitudeDegrees>-7.5831560790538787841796875</LongitudeDegrees>
            </Position>
            <AltitudeMeters>447.20001220703125</AltitudeMeters>
            <DistanceMeters>3649.1978374435</DistanceMeters>
          </Trackpoint>
          <Trackpoint>
            <Time>2019-07-26T08:47:38.000Z</Time>
            <Position>
              <LatitudeDegrees>42.9960530810058116912841796875</LatitudeDegrees>
              <LongitudeDegrees>-7.583488337695598602294921875</LongitudeDegrees>
            </Position>
            <AltitudeMeters>446.79998779296875</AltitudeMeters>
            <DistanceMeters>3676.4524533513</DistanceMeters>
          </Trackpoint>
          <Trackpoint>
            <Time>2019-07-26T08:47:40.000Z</Time>
            <Position>
              <LatitudeDegrees>42.99606892280280590057373046875</LatitudeDegrees>
              <LongitudeDegrees>-7.58374172262847423553466796875</LongitudeDegrees>
            </Position>
            <AltitudeMeters>446.20001220703125</AltitudeMeters>
            <DistanceMeters>3697.1547597007</DistanceMeters>
          </Trackpoint>
          <Trackpoint>
            <Time>2019-07-26T08:47:42.000Z</Time>
            <Position>
              <LatitudeDegrees>42.99609951674938201904296875</LatitudeDegrees>
              <LongitudeDegrees>-7.58401698432862758636474609375</LongitudeDegrees>
            </Position>
            <AltitudeMeters>445.20001220703125</AltitudeMeters>
            <DistanceMeters>3719.8201749604</DistanceMeters>
          </Trackpoint>
          <Trackpoint>
            <Time>2019-07-26T08:47:43.000Z</Time>
            <Position>
              <LatitudeDegrees>42.99612038768827915191650390625</LatitudeDegrees>
              <LongitudeDegrees>-7.584163248538970947265625</LongitudeDegrees>
            </Position>
            <AltitudeMeters>444.79998779296875</AltitudeMeters>
            <DistanceMeters>3731.9508849862</DistanceMeters>
          </Trackpoint>
          <Trackpoint>
            <Time>2019-07-26T08:47:45.000Z</Time>
            <Position>
              <LatitudeDegrees>42.99616330303251743316650390625</LatitudeDegrees>
              <LongitudeDegrees>-7.584458291530609130859375</LongitudeDegrees>
            </Position>
            <AltitudeMeters>444.20001220703125</AltitudeMeters>
            <DistanceMeters>3756.4394001851</DistanceMeters>
          </Trackpoint>
          <Trackpoint>
            <Time>2019-07-26T08:47:47.000Z</Time>
            <Position>
              <LatitudeDegrees>42.9962042905390262603759765625</LatitudeDegrees>
              <LongitudeDegrees>-7.584754340350627899169921875</LongitudeDegrees>
            </Position>
            <AltitudeMeters>442.79998779296875</AltitudeMeters>
            <DistanceMeters>3780.9675236983</DistanceMeters>
          </Trackpoint>
          <Trackpoint>
            <Time>2019-07-26T08:47:49.000Z</Time>
            <Position>
              <LatitudeDegrees>42.9962455295026302337646484375</LatitudeDegrees>
              <LongitudeDegrees>-7.58504359982907772064208984375</LongitudeDegrees>
            </Position>
            <AltitudeMeters>441.399993896484375</AltitudeMeters>
            <DistanceMeters>3804.9579582969</DistanceMeters>
          </Trackpoint>
          <Trackpoint>
            <Time>2019-07-26T08:47:51.000Z</Time>
            <Position>
              <LatitudeDegrees>42.9962797276675701141357421875</LatitudeDegrees>
              <LongitudeDegrees>-7.58532757870852947235107421875</LongitudeDegrees>
            </Position>
            <AltitudeMeters>439.600006103515625</AltitudeMeters>
            <DistanceMeters>3828.3868135144</DistanceMeters>
          </Trackpoint>
          <Trackpoint>
            <Time>2019-07-26T08:47:53.000Z</Time>
            <Position>
              <LatitudeDegrees>42.996309064328670501708984375</LatitudeDegrees>
              <LongitudeDegrees>-7.58560837246477603912353515625</LongitudeDegrees>
            </Position>
            <AltitudeMeters>438.600006103515625</AltitudeMeters>
            <DistanceMeters>3851.4773274445</DistanceMeters>
          </Trackpoint>
          <Trackpoint>
            <Time>2019-07-26T08:47:55.000Z</Time>
            <Position>
              <LatitudeDegrees>42.99631870351731777191162109375</LatitudeDegrees>
              <LongitudeDegrees>-7.585892267525196075439453125</LongitudeDegrees>
            </Position>
            <AltitudeMeters>436.600006103515625</AltitudeMeters>
            <DistanceMeters>3874.6131613671</DistanceMeters>
          </Trackpoint>
          <Trackpoint>
            <Time>2019-07-26T08:47:57.000Z</Time>
            <Position>
              <LatitudeDegrees>42.99631803296506404876708984375</LatitudeDegrees>
              <LongitudeDegrees>-7.586170546710491180419921875</LongitudeDegrees>
            </Position>
            <AltitudeMeters>435.399993896484375</AltitudeMeters>
            <DistanceMeters>3897.2672191612</DistanceMeters>
          </Trackpoint>
          <Trackpoint>
            <Time>2019-07-26T08:47:59.000Z</Time>
            <Position>
              <LatitudeDegrees>42.99631434492766857147216796875</LatitudeDegrees>
              <LongitudeDegrees>-7.5864359177649021148681640625</LongitudeDegrees>
            </Position>
            <AltitudeMeters>434.20001220703125</AltitudeMeters>
            <DistanceMeters>3918.8740456786</DistanceMeters>
          </Trackpoint>
          <Trackpoint>
            <Time>2019-07-26T08:48:02.000Z</Time>
            <Position>
              <LatitudeDegrees>42.9962891153991222381591796875</LatitudeDegrees>
              <LongitudeDegrees>-7.5867877900600433349609375</LongitudeDegrees>
            </Position>
            <AltitudeMeters>433</AltitudeMeters>
            <DistanceMeters>3947.6560044864</DistanceMeters>
          </Trackpoint>
          <Trackpoint>
            <Time>2019-07-26T08:48:06.000Z</Time>
            <Position>
              <LatitudeDegrees>42.99624226056039333343505859375</LatitudeDegrees>
              <LongitudeDegrees>-7.5871342979371547698974609375</LongitudeDegrees>
            </Position>
            <AltitudeMeters>432.20001220703125</AltitudeMeters>
            <DistanceMeters>3976.3419553354</DistanceMeters>
          </Trackpoint>
          <Trackpoint>
            <Time>2019-07-26T08:48:10.000Z</Time>
            <Position>
              <LatitudeDegrees>42.996219210326671600341796875</LatitudeDegrees>
              <LongitudeDegrees>-7.58731283247470855712890625</LongitudeDegrees>
            </Position>
            <AltitudeMeters>432.20001220703125</AltitudeMeters>
            <DistanceMeters>3991.100494352</DistanceMeters>
          </Trackpoint>
          <Trackpoint>
            <Time>2019-07-26T08:48:14.000Z</Time>
            <Position>
              <LatitudeDegrees>42.99620571546256542205810546875</LatitudeDegrees>
              <LongitudeDegrees>-7.58733437396585941314697265625</LongitudeDegrees>
            </Position>
            <AltitudeMeters>432.600006103515625</AltitudeMeters>
            <DistanceMeters>3993.4106404899</DistanceMeters>
          </Trackpoint>
          <Trackpoint>
            <Time>2019-07-26T08:48:15.000Z</Time>
            <Position>
              <LatitudeDegrees>42.99619900994002819061279296875</LatitudeDegrees>
              <LongitudeDegrees>-7.58733789436519145965576171875</LongitudeDegrees>
            </Position>
            <AltitudeMeters>432.79998779296875</AltitudeMeters>
            <DistanceMeters>3994.2056910236</DistanceMeters>
          </Trackpoint>
          <Trackpoint>
            <Time>2019-07-26T08:48:19.000Z</Time>
            <Position>
              <LatitudeDegrees>42.99615659750998020172119140625</LatitudeDegrees>
              <LongitudeDegrees>-7.587423808872699737548828125</LongitudeDegrees>
            </Position>
            <AltitudeMeters>433.79998779296875</AltitudeMeters>
            <DistanceMeters>4002.6443628881</DistanceMeters>
          </Trackpoint>
          <Trackpoint>
            <Time>2019-07-26T08:48:21.000Z</Time>
            <Position>
              <LatitudeDegrees>42.99611753784120082855224609375</LatitudeDegrees>
              <LongitudeDegrees>-7.5874880142509937286376953125</LongitudeDegrees>
            </Position>
            <AltitudeMeters>434</AltitudeMeters>
            <DistanceMeters>4009.442592896</DistanceMeters>
          </Trackpoint>
          <Trackpoint>
            <Time>2019-07-26T08:48:23.000Z</Time>
            <Position>
              <LatitudeDegrees>42.9960815794765949249267578125</LatitudeDegrees>
              <LongitudeDegrees>-7.5875651277601718902587890625</LongitudeDegrees>
            </Position>
            <AltitudeMeters>434.20001220703125</AltitudeMeters>
            <DistanceMeters>4016.8874978123</DistanceMeters>
          </Trackpoint>
          <Trackpoint>
            <Time>2019-07-26T08:48:24.000Z</Time>
            <Position>
              <LatitudeDegrees>42.99606674350798130035400390625</LatitudeDegrees>
              <LongitudeDegrees>-7.58761323988437652587890625</LongitudeDegrees>
            </Position>
            <AltitudeMeters>434.20001220703125</AltitudeMeters>
            <DistanceMeters>4021.1372216725</DistanceMeters>
          </Trackpoint>
          <Trackpoint>
            <Time>2019-07-26T08:48:28.000Z</Time>
            <Position>
              <LatitudeDegrees>42.9960118420422077178955078125</LatitudeDegrees>
              <LongitudeDegrees>-7.5878102146089076995849609375</LongitudeDegrees>
            </Position>
            <AltitudeMeters>434.600006103515625</AltitudeMeters>
            <DistanceMeters>4038.2968467466</DistanceMeters>
          </Trackpoint>
          <Trackpoint>
            <Time>2019-07-26T08:48:32.000Z</Time>
            <Position>
              <LatitudeDegrees>42.995962388813495635986328125</LatitudeDegrees>
              <LongitudeDegrees>-7.5880076922476291656494140625</LongitudeDegrees>
            </Position>
            <AltitudeMeters>434.79998779296875</AltitudeMeters>
            <DistanceMeters>4055.2888349828</DistanceMeters>
          </Trackpoint>
          <Trackpoint>
            <Time>2019-07-26T08:48:34.000Z</Time>
            <Position>
              <LatitudeDegrees>42.9959380812942981719970703125</LatitudeDegrees>
              <LongitudeDegrees>-7.58810676634311676025390625</LongitudeDegrees>
            </Position>
            <AltitudeMeters>435</AltitudeMeters>
            <DistanceMeters>4063.7957164691</DistanceMeters>
          </Trackpoint>
          <Trackpoint>
            <Time>2019-07-26T08:48:35.000Z</Time>
            <Position>
              <LatitudeDegrees>42.9959236644208431243896484375</LatitudeDegrees>
              <LongitudeDegrees>-7.588157393038272857666015625</LongitudeDegrees>
            </Position>
            <AltitudeMeters>435.20001220703125</AltitudeMeters>
            <DistanceMeters>4068.2172677242</DistanceMeters>
          </Trackpoint>
          <Trackpoint>
            <Time>2019-07-26T08:48:39.000Z</Time>
            <Position>
              <LatitudeDegrees>42.9958874545991420745849609375</LatitudeDegrees>
              <LongitudeDegrees>-7.5883412919938564300537109375</LongitudeDegrees>
            </Position>
            <AltitudeMeters>436</AltitudeMeters>
            <DistanceMeters>4083.7208987436</DistanceMeters>
          </Trackpoint>
          <Trackpoint>
            <Time>2019-07-26T08:48:40.000Z</Time>
            <Position>
              <LatitudeDegrees>42.99588024616241455078125</LatitudeDegrees>
              <LongitudeDegrees>-7.5883848778903484344482421875</LongitudeDegrees>
            </Position>
            <AltitudeMeters>436.20001220703125</AltitudeMeters>
            <DistanceMeters>4087.3593176401</DistanceMeters>
          </Trackpoint>
          <Trackpoint>
            <Time>2019-07-26T08:48:42.000Z</Time>
            <Position>
              <LatitudeDegrees>42.9958663322031497955322265625</LatitudeDegrees>
              <LongitudeDegrees>-7.588468529284000396728515625</LongitudeDegrees>
            </Position>
            <AltitudeMeters>436.79998779296875</AltitudeMeters>
            <DistanceMeters>4094.3436195344</DistanceMeters>
          </Trackpoint>
          <Trackpoint>
            <Time>2019-07-26T08:48:44.000Z</Time>
            <Position>
              <LatitudeDegrees>42.995853424072265625</LatitudeDegrees>
              <LongitudeDegrees>-7.5885538570582866668701171875</LongitudeDegrees>
            </Position>
            <AltitudeMeters>437.20001220703125</AltitudeMeters>
            <DistanceMeters>4101.4369675412</DistanceMeters>
          </Trackpoint>
          <Trackpoint>
            <Time>2019-07-26T08:48:48.000Z</Time>
            <Position>
              <LatitudeDegrees>42.99581277184188365936279296875</LatitudeDegrees>
              <LongitudeDegrees>-7.58871696889400482177734375</LongitudeDegrees>
            </Position>
            <AltitudeMeters>438.399993896484375</AltitudeMeters>
            <DistanceMeters>4115.4652409896</DistanceMeters>
          </Trackpoint>
          <Trackpoint>
            <Time>2019-07-26T08:48:50.000Z</Time>
            <Position>
              <LatitudeDegrees>42.9957828484475612640380859375</LatitudeDegrees>
              <LongitudeDegrees>-7.58878846652805805206298828125</LongitudeDegrees>
            </Position>
            <AltitudeMeters>438.79998779296875</AltitudeMeters>
            <DistanceMeters>4122.171865384</DistanceMeters>
          </Trackpoint>
          <Trackpoint>
            <Time>2019-07-26T08:48:52.000Z</Time>
            <Position>
              <LatitudeDegrees>42.99575150012969970703125</LatitudeDegrees>
              <LongitudeDegrees>-7.58886155672371387481689453125</LongitudeDegrees>
            </Position>
            <AltitudeMeters>439.399993896484375</AltitudeMeters>
            <DistanceMeters>4129.0703074443</DistanceMeters>
          </Trackpoint>
          <Trackpoint>
            <Time>2019-07-26T08:48:56.000Z</Time>
            <Position>
              <LatitudeDegrees>42.99566793255507946014404296875</LatitudeDegrees>
              <LongitudeDegrees>-7.5889887101948261260986328125</LongitudeDegrees>
            </Position>
            <AltitudeMeters>440.20001220703125</AltitudeMeters>
            <DistanceMeters>4142.9864498486</DistanceMeters>
          </Trackpoint>
          <Trackpoint>
            <Time>2019-07-26T08:48:57.000Z</Time>
            <Position>
              <LatitudeDegrees>42.99564362503588199615478515625</LatitudeDegrees>
              <LongitudeDegrees>-7.5890178792178630828857421875</LongitudeDegrees>
            </Position>
            <AltitudeMeters>440.600006103515625</AltitudeMeters>
            <DistanceMeters>4146.584939757</DistanceMeters>
          </Trackpoint>
          <Trackpoint>
            <Time>2019-07-26T08:48:58.000Z</Time>
            <Position>
              <LatitudeDegrees>42.99561982043087482452392578125</LatitudeDegrees>
              <LongitudeDegrees>-7.58904746733605861663818359375</LongitudeDegrees>
            </Position>
            <AltitudeMeters>440.79998779296875</AltitudeMeters>
            <DistanceMeters>4150.1645596354</DistanceMeters>
          </Trackpoint>
          <Trackpoint>
            <Time>2019-07-26T08:49:00.000Z</Time>
            <Position>
              <LatitudeDegrees>42.99557154066860675811767578125</LatitudeDegrees>
              <LongitudeDegrees>-7.58910731412470340728759765625</LongitudeDegrees>
            </Position>
            <AltitudeMeters>441.600006103515625</AltitudeMeters>
            <DistanceMeters>4157.4190262261</DistanceMeters>
          </Trackpoint>
          <Trackpoint>
            <Time>2019-07-26T08:49:03.000Z</Time>
            <Position>
              <LatitudeDegrees>42.9954961873590946197509765625</LatitudeDegrees>
              <LongitudeDegrees>-7.58918057195842266082763671875</LongitudeDegrees>
            </Position>
            <AltitudeMeters>442.399993896484375</AltitudeMeters>
            <DistanceMeters>4167.7100289243</DistanceMeters>
          </Trackpoint>
          <Trackpoint>
            <Time>2019-07-26T08:49:04.000Z</Time>
            <Position>
              <LatitudeDegrees>42.995470874011516571044921875</LatitudeDegrees>
              <LongitudeDegrees>-7.58920119144022464752197265625</LongitudeDegrees>
            </Position>
            <AltitudeMeters>442.79998779296875</AltitudeMeters>
            <DistanceMeters>4170.9908597827</DistanceMeters>
          </Trackpoint>
          <Trackpoint>
            <Time>2019-07-26T08:49:06.000Z</Time>
            <Position>
              <LatitudeDegrees>42.99541597254574298858642578125</LatitudeDegrees>
              <LongitudeDegrees>-7.5892408378422260284423828125</LongitudeDegrees>
            </Position>
            <AltitudeMeters>443.20001220703125</AltitudeMeters>
            <DistanceMeters>4177.901072821</DistanceMeters>
          </Trackpoint>
          <Trackpoint>
            <Time>2019-07-26T08:49:08.000Z</Time>
            <Position>
              <LatitudeDegrees>42.99536668695509433746337890625</LatitudeDegrees>
              <LongitudeDegrees>-7.5892797298729419708251953125</LongitudeDegrees>
            </Position>
            <AltitudeMeters>444</AltitudeMeters>
            <DistanceMeters>4184.2344447163</DistanceMeters>
          </Trackpoint>
          <Trackpoint>
            <Time>2019-07-26T08:49:12.000Z</Time>
            <Position>
              <LatitudeDegrees>42.9952722229063510894775390625</LatitudeDegrees>
              <LongitudeDegrees>-7.58934938348829746246337890625</LongitudeDegrees>
            </Position>
            <AltitudeMeters>445.399993896484375</AltitudeMeters>
            <DistanceMeters>4196.1798734641</DistanceMeters>
          </Trackpoint>
          <Trackpoint>
            <Time>2019-07-26T08:49:14.000Z</Time>
            <Position>
              <LatitudeDegrees>42.9952266253530979156494140625</LatitudeDegrees>
              <LongitudeDegrees>-7.58938810788094997406005859375</LongitudeDegrees>
            </Position>
            <AltitudeMeters>446</AltitudeMeters>
            <DistanceMeters>4202.152965798</DistanceMeters>
          </Trackpoint>
          <Trackpoint>
            <Time>2019-07-26T08:49:15.000Z</Time>
            <Position>
              <LatitudeDegrees>42.99520508386194705963134765625</LatitudeDegrees>
              <LongitudeDegrees>-7.58940889500081539154052734375</LongitudeDegrees>
            </Position>
            <AltitudeMeters>446.399993896484375</AltitudeMeters>
            <DistanceMeters>4205.088045512</DistanceMeters>
          </Trackpoint>
          <Trackpoint>
            <Time>2019-07-26T08:49:18.000Z</Time>
            <Position>
              <LatitudeDegrees>42.995134927332401275634765625</LatitudeDegrees>
              <LongitudeDegrees>-7.5894681550562381744384765625</LongitudeDegrees>
            </Position>
            <AltitudeMeters>447.600006103515625</AltitudeMeters>
            <DistanceMeters>4214.2668587917</DistanceMeters>
          </Trackpoint>
          <Trackpoint>
            <Time>2019-07-26T08:49:22.000Z</Time>
            <Position>
              <LatitudeDegrees>42.9950284771621227264404296875</LatitudeDegrees>
              <LongitudeDegrees>-7.5895234756171703338623046875</LongitudeDegrees>
            </Position>
            <AltitudeMeters>448.600006103515625</AltitudeMeters>
            <DistanceMeters>4226.9421544525</DistanceMeters>
          </Trackpoint>
          <Trackpoint>
            <Time>2019-07-26T08:49:27.000Z</Time>
            <Position>
              <LatitudeDegrees>42.994909621775150299072265625</LatitudeDegrees>
              <LongitudeDegrees>-7.5896126590669155120849609375</LongitudeDegrees>
            </Position>
            <AltitudeMeters>450</AltitudeMeters>
            <DistanceMeters>4242.0322650448</DistanceMeters>
          </Trackpoint>
          <Trackpoint>
            <Time>2019-07-26T08:49:31.000Z</Time>
            <Position>
              <LatitudeDegrees>42.99481230787932872772216796875</LatitudeDegrees>
              <LongitudeDegrees>-7.58969320915639400482177734375</LongitudeDegrees>
            </Position>
            <AltitudeMeters>450.79998779296875</AltitudeMeters>
            <DistanceMeters>4254.694017577</DistanceMeters>
          </Trackpoint>
          <Trackpoint>
            <Time>2019-07-26T08:49:33.000Z</Time>
            <Position>
              <LatitudeDegrees>42.99475497566163539886474609375</LatitudeDegrees>
              <LongitudeDegrees>-7.58972891606390476226806640625</LongitudeDegrees>
            </Position>
            <AltitudeMeters>451.20001220703125</AltitudeMeters>
            <DistanceMeters>4261.7067058143</DistanceMeters>
          </Trackpoint>
          <Trackpoint>
            <Time>2019-07-26T08:49:37.000Z</Time>
            <Position>
              <LatitudeDegrees>42.9946412332355976104736328125</LatitudeDegrees>
              <LongitudeDegrees>-7.58980737067759037017822265625</LongitudeDegrees>
            </Position>
            <AltitudeMeters>452.20001220703125</AltitudeMeters>
            <DistanceMeters>4275.8863984098</DistanceMeters>
          </Trackpoint>
          <Trackpoint>
            <Time>2019-07-26T08:49:38.000Z</Time>
            <Position>
              <LatitudeDegrees>42.9946120642125606536865234375</LatitudeDegrees>
              <LongitudeDegrees>-7.58983050473034381866455078125</LongitudeDegrees>
            </Position>
            <AltitudeMeters>452.399993896484375</AltitudeMeters>
            <DistanceMeters>4279.6408556713</DistanceMeters>
          </Trackpoint>
          <Trackpoint>
            <Time>2019-07-26T08:49:44.000Z</Time>
            <Position>
              <LatitudeDegrees>42.99443445168435573577880859375</LatitudeDegrees>
              <LongitudeDegrees>-7.5899707339704036712646484375</LongitudeDegrees>
            </Position>
            <AltitudeMeters>453.600006103515625</AltitudeMeters>
            <DistanceMeters>4302.4690336884</DistanceMeters>
          </Trackpoint>
          <Trackpoint>
            <Time>2019-07-26T08:49:45.000Z</Time>
            <Position>
              <LatitudeDegrees>42.9944018460810184478759765625</LatitudeDegrees>
              <LongitudeDegrees>-7.58999311365187168121337890625</LongitudeDegrees>
            </Position>
            <AltitudeMeters>453.600006103515625</AltitudeMeters>
            <DistanceMeters>4306.5296887571</DistanceMeters>
          </Trackpoint>
          <Trackpoint>
            <Time>2019-07-26T08:49:51.000Z</Time>
            <Position>
              <LatitudeDegrees>42.9942134208977222442626953125</LatitudeDegrees>
              <LongitudeDegrees>-7.59014750830829143524169921875</LongitudeDegrees>
            </Position>
            <AltitudeMeters>454.79998779296875</AltitudeMeters>
            <DistanceMeters>4330.9798241503</DistanceMeters>
          </Trackpoint>
          <Trackpoint>
            <Time>2019-07-26T08:49:53.000Z</Time>
            <Position>
              <LatitudeDegrees>42.9941497184336185455322265625</LatitudeDegrees>
              <LongitudeDegrees>-7.5902020744979381561279296875</LongitudeDegrees>
            </Position>
            <AltitudeMeters>455.20001220703125</AltitudeMeters>
            <DistanceMeters>4339.346493296</DistanceMeters>
          </Trackpoint>
          <Trackpoint>
            <Time>2019-07-26T08:49:56.000Z</Time>
            <Position>
              <LatitudeDegrees>42.99404553137719631195068359375</LatitudeDegrees>
              <LongitudeDegrees>-7.59027759544551372528076171875</LongitudeDegrees>
            </Position>
            <AltitudeMeters>455.79998779296875</AltitudeMeters>
            <DistanceMeters>4352.4718808482</DistanceMeters>
          </Trackpoint>
          <Trackpoint>
            <Time>2019-07-26T08:50:01.000Z</Time>
            <Position>
              <LatitudeDegrees>42.9938565194606781005859375</LatitudeDegrees>
              <LongitudeDegrees>-7.5904210098087787628173828125</LongitudeDegrees>
            </Position>
            <AltitudeMeters>456.399993896484375</AltitudeMeters>
            <DistanceMeters>4376.5318492713</DistanceMeters>
          </Trackpoint>
          <Trackpoint>
            <Time>2019-07-26T08:50:04.000Z</Time>
            <Position>
              <LatitudeDegrees>42.99373556859791278839111328125</LatitudeDegrees>
              <LongitudeDegrees>-7.59053056128323078155517578125</LongitudeDegrees>
            </Position>
            <AltitudeMeters>456.600006103515625</AltitudeMeters>
            <DistanceMeters>4392.6805203505</DistanceMeters>
          </Trackpoint>
          <Trackpoint>
            <Time>2019-07-26T08:50:06.000Z</Time>
            <Position>
              <LatitudeDegrees>42.99365468323230743408203125</LatitudeDegrees>
              <LongitudeDegrees>-7.5906201638281345367431640625</LongitudeDegrees>
            </Position>
            <AltitudeMeters>456.79998779296875</AltitudeMeters>
            <DistanceMeters>4404.2671568984</DistanceMeters>
          </Trackpoint>
          <Trackpoint>
            <Time>2019-07-26T08:50:07.000Z</Time>
            <Position>
              <LatitudeDegrees>42.99362023361027240753173828125</LatitudeDegrees>
              <LongitudeDegrees>-7.59067171253263950347900390625</LongitudeDegrees>
            </Position>
            <AltitudeMeters>456.79998779296875</AltitudeMeters>
            <DistanceMeters>4409.9513114983</DistanceMeters>
          </Trackpoint>
          <Trackpoint>
            <Time>2019-07-26T08:50:11.000Z</Time>
            <Position>
              <LatitudeDegrees>42.99347899854183197021484375</LatitudeDegrees>
              <LongitudeDegrees>-7.59089752100408077239990234375</LongitudeDegrees>
            </Position>
            <AltitudeMeters>457.20001220703125</AltitudeMeters>
            <DistanceMeters>4434.1389238785</DistanceMeters>
          </Trackpoint>
          <Trackpoint>
            <Time>2019-07-26T08:50:12.000Z</Time>
            <Position>
              <LatitudeDegrees>42.99345091916620731353759765625</LatitudeDegrees>
              <LongitudeDegrees>-7.59096239693462848663330078125</LongitudeDegrees>
            </Position>
            <AltitudeMeters>457.20001220703125</AltitudeMeters>
            <DistanceMeters>4440.2767963865</DistanceMeters>
          </Trackpoint>
          <Trackpoint>
            <Time>2019-07-26T08:50:20.000Z</Time>
            <Position>
              <LatitudeDegrees>42.993253357708454132080078125</LatitudeDegrees>
              <LongitudeDegrees>-7.591540999710559844970703125</LongitudeDegrees>
            </Position>
            <AltitudeMeters>457.399993896484375</AltitudeMeters>
            <DistanceMeters>4492.260578342</DistanceMeters>
          </Trackpoint>
          <Trackpoint>
            <Time>2019-07-26T08:50:28.000Z</Time>
            <Position>
              <LatitudeDegrees>42.99307708628475666046142578125</LatitudeDegrees>
              <LongitudeDegrees>-7.592105604708194732666015625</LongitudeDegrees>
            </Position>
            <AltitudeMeters>458.20001220703125</AltitudeMeters>
            <DistanceMeters>4542.2372225266</DistanceMeters>
          </Trackpoint>
          <Trackpoint>
            <Time>2019-07-26T08:50:31.000Z</Time>
            <Position>
              <LatitudeDegrees>42.993007935583591461181640625</LatitudeDegrees>
              <LongitudeDegrees>-7.5923039205372333526611328125</LongitudeDegrees>
            </Position>
            <AltitudeMeters>458.399993896484375</AltitudeMeters>
            <DistanceMeters>4560.1234616018</DistanceMeters>
          </Trackpoint>
          <Trackpoint>
            <Time>2019-07-26T08:50:36.000Z</Time>
            <Position>
              <LatitudeDegrees>42.99291531555354595184326171875</LatitudeDegrees>
              <LongitudeDegrees>-7.59261824190616607666015625</LongitudeDegrees>
            </Position>
            <AltitudeMeters>459</AltitudeMeters>
            <DistanceMeters>4587.7110113816</DistanceMeters>
          </Trackpoint>
          <Trackpoint>
            <Time>2019-07-26T08:50:37.000Z</Time>
            <Position>
              <LatitudeDegrees>42.99289427697658538818359375</LatitudeDegrees>
              <LongitudeDegrees>-7.59267314337193965911865234375</LongitudeDegrees>
            </Position>
            <AltitudeMeters>459.20001220703125</AltitudeMeters>
            <DistanceMeters>4592.7572788707</DistanceMeters>
          </Trackpoint>
          <Trackpoint>
            <Time>2019-07-26T08:50:38.000Z</Time>
            <Position>
              <LatitudeDegrees>42.99287281930446624755859375</LatitudeDegrees>
              <LongitudeDegrees>-7.59272661991417407989501953125</LongitudeDegrees>
            </Position>
            <AltitudeMeters>459.399993896484375</AltitudeMeters>
            <DistanceMeters>4597.7232771358</DistanceMeters>
          </Trackpoint>
          <Trackpoint>
            <Time>2019-07-26T08:50:44.000Z</Time>
            <Position>
              <LatitudeDegrees>42.99276360310614109039306640625</LatitudeDegrees>
              <LongitudeDegrees>-7.59304915554821491241455078125</LongitudeDegrees>
            </Position>
            <AltitudeMeters>460.399993896484375</AltitudeMeters>
            <DistanceMeters>4626.6584045358</DistanceMeters>
          </Trackpoint>
          <Trackpoint>
            <Time>2019-07-26T08:50:47.000Z</Time>
            <Position>
              <LatitudeDegrees>42.99270627088844776153564453125</LatitudeDegrees>
              <LongitudeDegrees>-7.5932121835649013519287109375</LongitudeDegrees>
            </Position>
            <AltitudeMeters>461.600006103515625</AltitudeMeters>
            <DistanceMeters>4641.3847861646</DistanceMeters>
          </Trackpoint>
          <Trackpoint>
            <Time>2019-07-26T08:50:50.000Z</Time>
            <Position>
              <LatitudeDegrees>42.992655225098133087158203125</LatitudeDegrees>
              <LongitudeDegrees>-7.59338107891380786895751953125</LongitudeDegrees>
            </Position>
            <AltitudeMeters>462.79998779296875</AltitudeMeters>
            <DistanceMeters>4656.2624618498</DistanceMeters>
          </Trackpoint>
          <Trackpoint>
            <Time>2019-07-26T08:50:55.000Z</Time>
            <Position>
              <LatitudeDegrees>42.9925601743161678314208984375</LatitudeDegrees>
              <LongitudeDegrees>-7.59365265257656574249267578125</LongitudeDegrees>
            </Position>
            <AltitudeMeters>464</AltitudeMeters>
            <DistanceMeters>4680.7723550669</DistanceMeters>
          </Trackpoint>
          <Trackpoint>
            <Time>2019-07-26T08:51:01.000Z</Time>
            <Position>
              <LatitudeDegrees>42.99244425259530544281005859375</LatitudeDegrees>
              <LongitudeDegrees>-7.593980133533477783203125</LongitudeDegrees>
            </Position>
            <AltitudeMeters>465</AltitudeMeters>
            <DistanceMeters>4710.3908267759</DistanceMeters>
          </Trackpoint>
          <Trackpoint>
            <Time>2019-07-26T08:51:04.000Z</Time>
            <Position>
              <LatitudeDegrees>42.99239060841500759124755859375</LatitudeDegrees>
              <LongitudeDegrees>-7.5941526331007480621337890625</LongitudeDegrees>
            </Position>
            <AltitudeMeters>465.600006103515625</AltitudeMeters>
            <DistanceMeters>4725.6508271474</DistanceMeters>
          </Trackpoint>
          <Trackpoint>
            <Time>2019-07-26T08:51:07.000Z</Time>
            <Position>
              <LatitudeDegrees>42.99233310855925083160400390625</LatitudeDegrees>
              <LongitudeDegrees>-7.594326473772525787353515625</LongitudeDegrees>
            </Position>
            <AltitudeMeters>466</AltitudeMeters>
            <DistanceMeters>4741.1829719535</DistanceMeters>
          </Trackpoint>
          <Trackpoint>
            <Time>2019-07-26T08:51:12.000Z</Time>
            <Position>
              <LatitudeDegrees>42.992246188223361968994140625</LatitudeDegrees>
              <LongitudeDegrees>-7.59461405687034130096435546875</LongitudeDegrees>
            </Position>
            <AltitudeMeters>467</AltitudeMeters>
            <DistanceMeters>4766.5153901674</DistanceMeters>
          </Trackpoint>
          <Trackpoint>
            <Time>2019-07-26T08:51:17.000Z</Time>
            <Position>
              <LatitudeDegrees>42.99216882325708866119384765625</LatitudeDegrees>
              <LongitudeDegrees>-7.59489233605563640594482421875</LongitudeDegrees>
            </Position>
            <AltitudeMeters>468.20001220703125</AltitudeMeters>
            <DistanceMeters>4790.7514874714</DistanceMeters>
          </Trackpoint>
          <Trackpoint>
            <Time>2019-07-26T08:51:19.000Z</Time>
            <Position>
              <LatitudeDegrees>42.99213479273021221160888671875</LatitudeDegrees>
              <LongitudeDegrees>-7.59499979205429553985595703125</LongitudeDegrees>
            </Position>
            <AltitudeMeters>468.600006103515625</AltitudeMeters>
            <DistanceMeters>4800.2845189584</DistanceMeters>
          </Trackpoint>
          <Trackpoint>
            <Time>2019-07-26T08:51:20.000Z</Time>
            <Position>
              <LatitudeDegrees>42.99211886711418628692626953125</LatitudeDegrees>
              <LongitudeDegrees>-7.59505410678684711456298828125</LongitudeDegrees>
            </Position>
            <AltitudeMeters>468.79998779296875</AltitudeMeters>
            <DistanceMeters>4805.0472442315</DistanceMeters>
          </Trackpoint>
          <Trackpoint>
            <Time>2019-07-26T08:51:23.000Z</Time>
            <Position>
              <LatitudeDegrees>42.9920924641191959381103515625</LatitudeDegrees>
              <LongitudeDegrees>-7.5952248461544513702392578125</LongitudeDegrees>
            </Position>
            <AltitudeMeters>469.399993896484375</AltitudeMeters>
            <DistanceMeters>4819.2546119944</DistanceMeters>
          </Trackpoint>
          <Trackpoint>
            <Time>2019-07-26T08:51:25.000Z</Time>
            <Position>
              <LatitudeDegrees>42.9920777119696140289306640625</LatitudeDegrees>
              <LongitudeDegrees>-7.5953401811420917510986328125</LongitudeDegrees>
            </Position>
            <AltitudeMeters>469.79998779296875</AltitudeMeters>
            <DistanceMeters>4828.7866961936</DistanceMeters>
          </Trackpoint>
          <Trackpoint>
            <Time>2019-07-26T08:51:28.000Z</Time>
            <Position>
              <LatitudeDegrees>42.9920433461666107177734375</LatitudeDegrees>
              <LongitudeDegrees>-7.595514692366123199462890625</LongitudeDegrees>
            </Position>
            <AltitudeMeters>470.399993896484375</AltitudeMeters>
            <DistanceMeters>4843.4995814481</DistanceMeters>
          </Trackpoint>
          <Trackpoint>
            <Time>2019-07-26T08:51:33.000Z</Time>
            <Position>
              <LatitudeDegrees>42.99197838641703128814697265625</LatitudeDegrees>
              <LongitudeDegrees>-7.5958107411861419677734375</LongitudeDegrees>
            </Position>
            <AltitudeMeters>471.600006103515625</AltitudeMeters>
            <DistanceMeters>4868.6624688043</DistanceMeters>
          </Trackpoint>
          <Trackpoint>
            <Time>2019-07-26T08:51:35.000Z</Time>
            <Position>
              <LatitudeDegrees>42.9919556714594364166259765625</LatitudeDegrees>
              <LongitudeDegrees>-7.59593152441084384918212890625</LongitudeDegrees>
            </Position>
            <AltitudeMeters>471.79998779296875</AltitudeMeters>
            <DistanceMeters>4878.8156630152</DistanceMeters>
          </Trackpoint>
          <Trackpoint>
            <Time>2019-07-26T08:51:41.000Z</Time>
            <Position>
              <LatitudeDegrees>42.99189339391887187957763671875</LatitudeDegrees>
              <LongitudeDegrees>-7.59628607891499996185302734375</LongitudeDegrees>
            </Position>
            <AltitudeMeters>472.79998779296875</AltitudeMeters>
            <DistanceMeters>4908.5014367152</DistanceMeters>
          </Trackpoint>
          <Trackpoint>
            <Time>2019-07-26T08:51:43.000Z</Time>
            <Position>
              <LatitudeDegrees>42.99187235534191131591796875</LatitudeDegrees>
              <LongitudeDegrees>-7.59640124626457691192626953125</LongitudeDegrees>
            </Position>
            <AltitudeMeters>473</AltitudeMeters>
            <DistanceMeters>4918.1652377574</DistanceMeters>
          </Trackpoint>
          <Trackpoint>
            <Time>2019-07-26T08:51:48.000Z</Time>
            <Position>
              <LatitudeDegrees>42.9918577708303928375244140625</LatitudeDegrees>
              <LongitudeDegrees>-7.59671741165220737457275390625</LongitudeDegrees>
            </Position>
            <AltitudeMeters>473.79998779296875</AltitudeMeters>
            <DistanceMeters>4943.9558451729</DistanceMeters>
          </Trackpoint>
          <Trackpoint>
            <Time>2019-07-26T08:51:50.000Z</Time>
            <Position>
              <LatitudeDegrees>42.99186053685843944549560546875</LatitudeDegrees>
              <LongitudeDegrees>-7.5968509353697299957275390625</LongitudeDegrees>
            </Position>
            <AltitudeMeters>474</AltitudeMeters>
            <DistanceMeters>4954.8304891262</DistanceMeters>
          </Trackpoint>
          <Trackpoint>
            <Time>2019-07-26T08:51:56.000Z</Time>
            <Position>
              <LatitudeDegrees>42.99187361262738704681396484375</LatitudeDegrees>
              <LongitudeDegrees>-7.5972646661102771759033203125</LongitudeDegrees>
            </Position>
            <AltitudeMeters>474.79998779296875</AltitudeMeters>
            <DistanceMeters>4988.5444889209</DistanceMeters>
          </Trackpoint>
          <Trackpoint>
            <Time>2019-07-26T08:51:57.000Z</Time>
            <Position>
              <LatitudeDegrees>42.991872690618038177490234375</LatitudeDegrees>
              <LongitudeDegrees>-7.59733331389725208282470703125</LongitudeDegrees>
            </Position>
            <AltitudeMeters>474.79998779296875</AltitudeMeters>
            <DistanceMeters>4994.1341279518</DistanceMeters>
          </Trackpoint>
          <Trackpoint>
            <Time>2019-07-26T08:51:58.000Z</Time>
            <Position>
              <LatitudeDegrees>42.9918701760470867156982421875</LatitudeDegrees>
              <LongitudeDegrees>-7.597400285303592681884765625</LongitudeDegrees>
            </Position>
            <AltitudeMeters>474.79998779296875</AltitudeMeters>
            <DistanceMeters>4999.5929970897</DistanceMeters>
          </Trackpoint>
          <Trackpoint>
            <Time>2019-07-26T08:52:00.000Z</Time>
            <Position>
              <LatitudeDegrees>42.99186036922037601470947265625</LatitudeDegrees>
              <LongitudeDegrees>-7.59752693586051464080810546875</LongitudeDegrees>
            </Position>
            <AltitudeMeters>475</AltitudeMeters>
            <DistanceMeters>5009.9613653348</DistanceMeters>
          </Trackpoint>
          <Trackpoint>
            <Time>2019-07-26T08:52:01.000Z</Time>
            <Position>
              <LatitudeDegrees>42.9918571002781391143798828125</LatitudeDegrees>
              <LongitudeDegrees>-7.59758812375366687774658203125</LongitudeDegrees>
            </Position>
            <AltitudeMeters>475.20001220703125</AltitudeMeters>
            <DistanceMeters>5014.9563729639</DistanceMeters>
          </Trackpoint>
          <Trackpoint>
            <Time>2019-07-26T08:52:03.000Z</Time>
            <Position>
              <LatitudeDegrees>42.9918510653078556060791015625</LatitudeDegrees>
              <LongitudeDegrees>-7.59770379401743412017822265625</LongitudeDegrees>
            </Position>
            <AltitudeMeters>475.20001220703125</AltitudeMeters>
            <DistanceMeters>5024.3970749771</DistanceMeters>
          </Trackpoint>
          <Trackpoint>
            <Time>2019-07-26T08:52:04.000Z</Time>
            <Position>
              <LatitudeDegrees>42.99184285104274749755859375</LatitudeDegrees>
              <LongitudeDegrees>-7.59775710292160511016845703125</LongitudeDegrees>
            </Position>
            <AltitudeMeters>475.20001220703125</AltitudeMeters>
            <DistanceMeters>5028.8318812293</DistanceMeters>
          </Trackpoint>
          <Trackpoint>
            <Time>2019-07-26T08:52:07.000Z</Time>
            <Position>
              <LatitudeDegrees>42.99177604727447032928466796875</LatitudeDegrees>
              <LongitudeDegrees>-7.5979057140648365020751953125</LongitudeDegrees>
            </Position>
            <AltitudeMeters>475.399993896484375</AltitudeMeters>
            <DistanceMeters>5043.0325737176</DistanceMeters>
          </Trackpoint>
          <Trackpoint>
            <Time>2019-07-26T08:52:10.000Z</Time>
            <Position>
              <LatitudeDegrees>42.9916837625205516815185546875</LatitudeDegrees>
              <LongitudeDegrees>-7.59806388057768344879150390625</LongitudeDegrees>
            </Position>
            <AltitudeMeters>475.399993896484375</AltitudeMeters>
            <DistanceMeters>5059.5037490455</DistanceMeters>
          </Trackpoint>
          <Trackpoint>
            <Time>2019-07-26T08:52:12.000Z</Time>
            <Position>
              <LatitudeDegrees>42.99163539893925189971923828125</LatitudeDegrees>
              <LongitudeDegrees>-7.5981789641082286834716796875</LongitudeDegrees>
            </Position>
            <AltitudeMeters>475.399993896484375</AltitudeMeters>
            <DistanceMeters>5070.3092517372</DistanceMeters>
          </Trackpoint>
          <Trackpoint>
            <Time>2019-07-26T08:52:19.000Z</Time>
            <Position>
              <LatitudeDegrees>42.99147597514092922210693359375</LatitudeDegrees>
              <LongitudeDegrees>-7.59862060658633708953857421875</LongitudeDegrees>
            </Position>
            <AltitudeMeters>475.600006103515625</AltitudeMeters>
            <DistanceMeters>5110.4044448321</DistanceMeters>
          </Trackpoint>
          <Trackpoint>
            <Time>2019-07-26T08:52:21.000Z</Time>
            <Position>
              <LatitudeDegrees>42.9914279468357563018798828125</LatitudeDegrees>
              <LongitudeDegrees>-7.5987509451806545257568359375</LongitudeDegrees>
            </Position>
            <AltitudeMeters>475.79998779296875</AltitudeMeters>
            <DistanceMeters>5122.2862045976</DistanceMeters>
          </Trackpoint>
          <Trackpoint>
            <Time>2019-07-26T08:52:31.000Z</Time>
            <Position>
              <LatitudeDegrees>42.9911852069199085235595703125</LatitudeDegrees>
              <LongitudeDegrees>-7.5994241796433925628662109375</LongitudeDegrees>
            </Position>
            <AltitudeMeters>476.399993896484375</AltitudeMeters>
            <DistanceMeters>5183.3930370349</DistanceMeters>
          </Trackpoint>
          <Trackpoint>
            <Time>2019-07-26T08:52:40.000Z</Time>
            <Position>
              <LatitudeDegrees>42.99101597629487514495849609375</LatitudeDegrees>
              <LongitudeDegrees>-7.60005642659962177276611328125</LongitudeDegrees>
            </Position>
            <AltitudeMeters>476.79998779296875</AltitudeMeters>
            <DistanceMeters>5238.2040966166</DistanceMeters>
          </Trackpoint>
          <Trackpoint>
            <Time>2019-07-26T08:52:48.000Z</Time>
            <Position>
              <LatitudeDegrees>42.99091338180005550384521484375</LatitudeDegrees>
              <LongitudeDegrees>-7.60059169493615627288818359375</LongitudeDegrees>
            </Position>
            <AltitudeMeters>477.399993896484375</AltitudeMeters>
            <DistanceMeters>5283.2532743016</DistanceMeters>
          </Trackpoint>
          <Trackpoint>
            <Time>2019-07-26T08:52:50.000Z</Time>
            <Position>
              <LatitudeDegrees>42.99089376814663410186767578125</LatitudeDegrees>
              <LongitudeDegrees>-7.600726224482059478759765625</LongitudeDegrees>
            </Position>
            <AltitudeMeters>477.600006103515625</AltitudeMeters>
            <DistanceMeters>5294.4212381198</DistanceMeters>
          </Trackpoint>
          <Trackpoint>
            <Time>2019-07-26T08:52:54.000Z</Time>
            <Position>
              <LatitudeDegrees>42.990858145058155059814453125</LatitudeDegrees>
              <LongitudeDegrees>-7.60098782368004322052001953125</LongitudeDegrees>
            </Position>
            <AltitudeMeters>478.399993896484375</AltitudeMeters>
            <DistanceMeters>5316.0848281488</DistanceMeters>
          </Trackpoint>
          <Trackpoint>
            <Time>2019-07-26T08:52:58.000Z</Time>
            <Position>
              <LatitudeDegrees>42.9908301495015621185302734375</LatitudeDegrees>
              <LongitudeDegrees>-7.6012430526316165924072265625</LongitudeDegrees>
            </Position>
            <AltitudeMeters>479.399993896484375</AltitudeMeters>
            <DistanceMeters>5337.0962640195</DistanceMeters>
          </Trackpoint>
          <Trackpoint>
            <Time>2019-07-26T08:52:59.000Z</Time>
            <Position>
              <LatitudeDegrees>42.99082227051258087158203125</LatitudeDegrees>
              <LongitudeDegrees>-7.60130700655281543731689453125</LongitudeDegrees>
            </Position>
            <AltitudeMeters>479.600006103515625</AltitudeMeters>
            <DistanceMeters>5342.376877247</DistanceMeters>
          </Trackpoint>
          <Trackpoint>
            <Time>2019-07-26T08:53:03.000Z</Time>
            <Position>
              <LatitudeDegrees>42.99080207012593746185302734375</LatitudeDegrees>
              <LongitudeDegrees>-7.60155829600989818572998046875</LongitudeDegrees>
            </Position>
            <AltitudeMeters>480.600006103515625</AltitudeMeters>
            <DistanceMeters>5362.9584439023</DistanceMeters>
          </Trackpoint>
          <Trackpoint>
            <Time>2019-07-26T08:53:07.000Z</Time>
            <Position>
              <LatitudeDegrees>42.99080123193562030792236328125</LatitudeDegrees>
              <LongitudeDegrees>-7.6018036343157291412353515625</LongitudeDegrees>
            </Position>
            <AltitudeMeters>481.600006103515625</AltitudeMeters>
            <DistanceMeters>5382.9325981384</DistanceMeters>
          </Trackpoint>
          <Trackpoint>
            <Time>2019-07-26T08:53:11.000Z</Time>
            <Position>
              <LatitudeDegrees>42.990829981863498687744140625</LatitudeDegrees>
              <LongitudeDegrees>-7.602055929601192474365234375</LongitudeDegrees>
            </Position>
            <AltitudeMeters>482.79998779296875</AltitudeMeters>
            <DistanceMeters>5403.7208729196</DistanceMeters>
          </Trackpoint>
          <Trackpoint>
            <Time>2019-07-26T08:53:14.000Z</Time>
            <Position>
              <LatitudeDegrees>42.9908576421439647674560546875</LatitudeDegrees>
              <LongitudeDegrees>-7.60224871337413787841796875</LongitudeDegrees>
            </Position>
            <AltitudeMeters>483.399993896484375</AltitudeMeters>
            <DistanceMeters>5419.7153115048</DistanceMeters>
          </Trackpoint>
          <Trackpoint>
            <Time>2019-07-26T08:53:17.000Z</Time>
            <Position>
              <LatitudeDegrees>42.9908851347863674163818359375</LatitudeDegrees>
              <LongitudeDegrees>-7.60243889875710010528564453125</LongitudeDegrees>
            </Position>
            <AltitudeMeters>483.79998779296875</AltitudeMeters>
            <DistanceMeters>5435.4983305057</DistanceMeters>
          </Trackpoint>
          <Trackpoint>
            <Time>2019-07-26T08:53:25.000Z</Time>
            <Position>
              <LatitudeDegrees>42.990930564701557159423828125</LatitudeDegrees>
              <LongitudeDegrees>-7.60294231586158275604248046875</LongitudeDegrees>
            </Position>
            <AltitudeMeters>484.79998779296875</AltitudeMeters>
            <DistanceMeters>5476.7937524832</DistanceMeters>
          </Trackpoint>
          <Trackpoint>
            <Time>2019-07-26T08:53:26.000Z</Time>
            <Position>
              <LatitudeDegrees>42.99093198962509632110595703125</LatitudeDegrees>
              <LongitudeDegrees>-7.6030055992305278778076171875</LongitudeDegrees>
            </Position>
            <AltitudeMeters>485</AltitudeMeters>
            <DistanceMeters>5481.9480210926</DistanceMeters>
          </Trackpoint>
          <Trackpoint>
            <Time>2019-07-26T08:53:29.000Z</Time>
            <Position>
              <LatitudeDegrees>42.99094992689788341522216796875</LatitudeDegrees>
              <LongitudeDegrees>-7.60319293476641178131103515625</LongitudeDegrees>
            </Position>
            <AltitudeMeters>485.20001220703125</AltitudeMeters>
            <DistanceMeters>5497.3294385446</DistanceMeters>
          </Trackpoint>
          <Trackpoint>
            <Time>2019-07-26T08:53:32.000Z</Time>
            <Position>
              <LatitudeDegrees>42.99096367321908473968505859375</LatitudeDegrees>
              <LongitudeDegrees>-7.60337683372199535369873046875</LongitudeDegrees>
            </Position>
            <AltitudeMeters>485.399993896484375</AltitudeMeters>
            <DistanceMeters>5512.3791022407</DistanceMeters>
          </Trackpoint>
          <Trackpoint>
            <Time>2019-07-26T08:53:41.000Z</Time>
            <Position>
              <LatitudeDegrees>42.99097037874162197113037109375</LatitudeDegrees>
              <LongitudeDegrees>-7.60394026525318622589111328125</LongitudeDegrees>
            </Position>
            <AltitudeMeters>486</AltitudeMeters>
            <DistanceMeters>5558.2559489849</DistanceMeters>
          </Trackpoint>
          <Trackpoint>
            <Time>2019-07-26T08:53:44.000Z</Time>
            <Position>
              <LatitudeDegrees>42.99096417613327503204345703125</LatitudeDegrees>
              <LongitudeDegrees>-7.6041351445019245147705078125</LongitudeDegrees>
            </Position>
            <AltitudeMeters>486.600006103515625</AltitudeMeters>
            <DistanceMeters>5574.1365023419</DistanceMeters>
          </Trackpoint>
          <Trackpoint>
            <Time>2019-07-26T08:53:51.000Z</Time>
            <Position>
              <LatitudeDegrees>42.99089008010923862457275390625</LatitudeDegrees>
              <LongitudeDegrees>-7.60457678698003292083740234375</LongitudeDegrees>
            </Position>
            <AltitudeMeters>487</AltitudeMeters>
            <DistanceMeters>5611.0257210915</DistanceMeters>
          </Trackpoint>
          <Trackpoint>
            <Time>2019-07-26T08:53:52.000Z</Time>
            <Position>
              <LatitudeDegrees>42.99087398685514926910400390625</LatitudeDegrees>
              <LongitudeDegrees>-7.604636885225772857666015625</LongitudeDegrees>
            </Position>
            <AltitudeMeters>487.20001220703125</AltitudeMeters>
            <DistanceMeters>5616.2357508218</DistanceMeters>
          </Trackpoint>
          <Trackpoint>
            <Time>2019-07-26T08:54:01.000Z</Time>
            <Position>
              <LatitudeDegrees>42.9907154850661754608154296875</LatitudeDegrees>
              <LongitudeDegrees>-7.6051721535623073577880859375</LongitudeDegrees>
            </Position>
            <AltitudeMeters>488.20001220703125</AltitudeMeters>
            <DistanceMeters>5663.249299412</DistanceMeters>
          </Trackpoint>
          <Trackpoint>
            <Time>2019-07-26T08:54:08.000Z</Time>
            <Position>
              <LatitudeDegrees>42.990582548081874847412109375</LatitudeDegrees>
              <LongitudeDegrees>-7.605605833232402801513671875</LongitudeDegrees>
            </Position>
            <AltitudeMeters>489.20001220703125</AltitudeMeters>
            <DistanceMeters>5701.5316224407</DistanceMeters>
          </Trackpoint>
          <Trackpoint>
            <Time>2019-07-26T08:54:10.000Z</Time>
            <Position>
              <LatitudeDegrees>42.9905461706221103668212890625</LatitudeDegrees>
              <LongitudeDegrees>-7.60573332197964191436767578125</LongitudeDegrees>
            </Position>
            <AltitudeMeters>489.600006103515625</AltitudeMeters>
            <DistanceMeters>5712.672060971</DistanceMeters>
          </Trackpoint>
          <Trackpoint>
            <Time>2019-07-26T08:54:18.000Z</Time>
            <Position>
              <LatitudeDegrees>42.99038129858672618865966796875</LatitudeDegrees>
              <LongitudeDegrees>-7.60624227114021778106689453125</LongitudeDegrees>
            </Position>
            <AltitudeMeters>490.399993896484375</AltitudeMeters>
            <DistanceMeters>5757.9891443397</DistanceMeters>
          </Trackpoint>
          <Trackpoint>
            <Time>2019-07-26T08:54:21.000Z</Time>
            <Position>
              <LatitudeDegrees>42.99032027833163738250732421875</LatitudeDegrees>
              <LongitudeDegrees>-7.606440670788288116455078125</LongitudeDegrees>
            </Position>
            <AltitudeMeters>490.79998779296875</AltitudeMeters>
            <DistanceMeters>5775.5114623704</DistanceMeters>
          </Trackpoint>
          <Trackpoint>
            <Time>2019-07-26T08:54:27.000Z</Time>
            <Position>
              <LatitudeDegrees>42.99018532969057559967041015625</LatitudeDegrees>
              <LongitudeDegrees>-7.60683671571314334869384765625</LongitudeDegrees>
            </Position>
            <AltitudeMeters>491</AltitudeMeters>
            <DistanceMeters>5811.0816764669</DistanceMeters>
          </Trackpoint>
          <Trackpoint>
            <Time>2019-07-26T08:54:32.000Z</Time>
            <Position>
              <LatitudeDegrees>42.9900719225406646728515625</LatitudeDegrees>
              <LongitudeDegrees>-7.60716076008975505828857421875</LongitudeDegrees>
            </Position>
            <AltitudeMeters>491.399993896484375</AltitudeMeters>
            <DistanceMeters>5840.3276820194</DistanceMeters>
          </Trackpoint>
          <Trackpoint>
            <Time>2019-07-26T08:54:36.000Z</Time>
            <Position>
              <LatitudeDegrees>42.98998718149960041046142578125</LatitudeDegrees>
              <LongitudeDegrees>-7.60742194019258022308349609375</LongitudeDegrees>
            </Position>
            <AltitudeMeters>491.79998779296875</AltitudeMeters>
            <DistanceMeters>5863.5892434604</DistanceMeters>
          </Trackpoint>
          <Trackpoint>
            <Time>2019-07-26T08:54:44.000Z</Time>
            <Position>
              <LatitudeDegrees>42.98982851207256317138671875</LatitudeDegrees>
              <LongitudeDegrees>-7.60796718299388885498046875</LongitudeDegrees>
            </Position>
            <AltitudeMeters>492.20001220703125</AltitudeMeters>
            <DistanceMeters>5911.3637764427</DistanceMeters>
          </Trackpoint>
          <Trackpoint>
            <Time>2019-07-26T08:54:48.000Z</Time>
            <Position>
              <LatitudeDegrees>42.989754416048526763916015625</LatitudeDegrees>
              <LongitudeDegrees>-7.60823003947734832763671875</LongitudeDegrees>
            </Position>
            <AltitudeMeters>492.399993896484375</AltitudeMeters>
            <DistanceMeters>5934.2981151667</DistanceMeters>
          </Trackpoint>
          <Trackpoint>
            <Time>2019-07-26T08:54:50.000Z</Time>
            <Position>
              <LatitudeDegrees>42.9897166974842548370361328125</LatitudeDegrees>
              <LongitudeDegrees>-7.6083609648048877716064453125</LongitudeDegrees>
            </Position>
            <AltitudeMeters>492.600006103515625</AltitudeMeters>
            <DistanceMeters>5945.7542546141</DistanceMeters>
          </Trackpoint>
          <Trackpoint>
            <Time>2019-07-26T08:54:52.000Z</Time>
            <Position>
              <LatitudeDegrees>42.989677302539348602294921875</LatitudeDegrees>
              <LongitudeDegrees>-7.608490549027919769287109375</LongitudeDegrees>
            </Position>
            <AltitudeMeters>492.79998779296875</AltitudeMeters>
            <DistanceMeters>5957.1796117233</DistanceMeters>
          </Trackpoint>
          <Trackpoint>
            <Time>2019-07-26T08:54:58.000Z</Time>
            <Position>
              <LatitudeDegrees>42.98955895006656646728515625</LatitudeDegrees>
              <LongitudeDegrees>-7.608866393566131591796875</LongitudeDegrees>
            </Position>
            <AltitudeMeters>493.399993896484375</AltitudeMeters>
            <DistanceMeters>5990.4940316556</DistanceMeters>
          </Trackpoint>
          <Trackpoint>
            <Time>2019-07-26T08:55:00.000Z</Time>
            <Position>
              <LatitudeDegrees>42.9895225726068019866943359375</LatitudeDegrees>
              <LongitudeDegrees>-7.60898751206696033477783203125</LongitudeDegrees>
            </Position>
            <AltitudeMeters>493.600006103515625</AltitudeMeters>
            <DistanceMeters>6001.153979215</DistanceMeters>
          </Trackpoint>
          <Trackpoint>
            <Time>2019-07-26T08:55:09.000Z</Time>
            <Position>
              <LatitudeDegrees>42.9893217422068119049072265625</LatitudeDegrees>
              <LongitudeDegrees>-7.6095340959727764129638671875</LongitudeDegrees>
            </Position>
            <AltitudeMeters>494.399993896484375</AltitudeMeters>
            <DistanceMeters>6050.9526923878</DistanceMeters>
          </Trackpoint>
          <Trackpoint>
            <Time>2019-07-26T08:55:11.000Z</Time>
            <Position>
              <LatitudeDegrees>42.9892634041607379913330078125</LatitudeDegrees>
              <LongitudeDegrees>-7.60964968241751194000244140625</LongitudeDegrees>
            </Position>
            <AltitudeMeters>494.600006103515625</AltitudeMeters>
            <DistanceMeters>6062.3859503051</DistanceMeters>
          </Trackpoint>
          <Trackpoint>
            <Time>2019-07-26T08:55:19.000Z</Time>
            <Position>
              <LatitudeDegrees>42.98901018686592578887939453125</LatitudeDegrees>
              <LongitudeDegrees>-7.61009861715137958526611328125</LongitudeDegrees>
            </Position>
            <AltitudeMeters>495.399993896484375</AltitudeMeters>
            <DistanceMeters>6108.5403775406</DistanceMeters>
          </Trackpoint>
          <Trackpoint>
            <Time>2019-07-26T08:55:26.000Z</Time>
            <Position>
              <LatitudeDegrees>42.988770715892314910888671875</LatitudeDegrees>
              <LongitudeDegrees>-7.61048099957406520843505859375</LongitudeDegrees>
            </Position>
            <AltitudeMeters>495.600006103515625</AltitudeMeters>
            <DistanceMeters>6149.5234506164</DistanceMeters>
          </Trackpoint>
          <Trackpoint>
            <Time>2019-07-26T08:55:29.000Z</Time>
            <Position>
              <LatitudeDegrees>42.98867046833038330078125</LatitudeDegrees>
              <LongitudeDegrees>-7.61064327321946620941162109375</LongitudeDegrees>
            </Position>
            <AltitudeMeters>495.600006103515625</AltitudeMeters>
            <DistanceMeters>6166.8164850984</DistanceMeters>
          </Trackpoint>
          <Trackpoint>
            <Time>2019-07-26T08:55:37.000Z</Time>
            <Position>
              <LatitudeDegrees>42.98838992603123188018798828125</LatitudeDegrees>
              <LongitudeDegrees>-7.61109036393463611602783203125</LongitudeDegrees>
            </Position>
            <AltitudeMeters>496.20001220703125</AltitudeMeters>
            <DistanceMeters>6214.7746706408</DistanceMeters>
          </Trackpoint>
          <Trackpoint>
            <Time>2019-07-26T08:55:41.000Z</Time>
            <Position>
              <LatitudeDegrees>42.98824156634509563446044921875</LatitudeDegrees>
              <LongitudeDegrees>-7.61132799088954925537109375</LongitudeDegrees>
            </Position>
            <AltitudeMeters>496.79998779296875</AltitudeMeters>
            <DistanceMeters>6240.2102531366</DistanceMeters>
          </Trackpoint>
          <Trackpoint>
            <Time>2019-07-26T08:55:45.000Z</Time>
            <Position>
              <LatitudeDegrees>42.988080047070980072021484375</LatitudeDegrees>
              <LongitudeDegrees>-7.61156679131090641021728515625</LongitudeDegrees>
            </Position>
            <AltitudeMeters>497.399993896484375</AltitudeMeters>
            <DistanceMeters>6266.6903299105</DistanceMeters>
          </Trackpoint>
          <Trackpoint>
            <Time>2019-07-26T08:55:51.000Z</Time>
            <Position>
              <LatitudeDegrees>42.98779112286865711212158203125</LatitudeDegrees>
              <LongitudeDegrees>-7.611839957535266876220703125</LongitudeDegrees>
            </Position>
            <AltitudeMeters>497.79998779296875</AltitudeMeters>
            <DistanceMeters>6305.7896370867</DistanceMeters>
          </Trackpoint>
          <Trackpoint>
            <Time>2019-07-26T08:55:53.000Z</Time>
            <Position>
              <LatitudeDegrees>42.9876866005361080169677734375</LatitudeDegrees>
              <LongitudeDegrees>-7.61191145516932010650634765625</LongitudeDegrees>
            </Position>
            <AltitudeMeters>498</AltitudeMeters>
            <DistanceMeters>6318.7982354955</DistanceMeters>
          </Trackpoint>
          <Trackpoint>
            <Time>2019-07-26T08:55:59.000Z</Time>
            <Position>
              <LatitudeDegrees>42.98735928721725940704345703125</LatitudeDegrees>
              <LongitudeDegrees>-7.61209568940103054046630859375</LongitudeDegrees>
            </Position>
            <AltitudeMeters>498.399993896484375</AltitudeMeters>
            <DistanceMeters>6358.1960637355</DistanceMeters>
          </Trackpoint>
          <Trackpoint>
            <Time>2019-07-26T08:56:06.000Z</Time>
            <Position>
              <LatitudeDegrees>42.9869727976620197296142578125</LatitudeDegrees>
              <LongitudeDegrees>-7.61225963942706584930419921875</LongitudeDegrees>
            </Position>
            <AltitudeMeters>499</AltitudeMeters>
            <DistanceMeters>6403.2366212756</DistanceMeters>
          </Trackpoint>
          <Trackpoint>
            <Time>2019-07-26T08:56:08.000Z</Time>
            <Position>
              <LatitudeDegrees>42.9868604801595211029052734375</LatitudeDegrees>
              <LongitudeDegrees>-7.61229048483073711395263671875</LongitudeDegrees>
            </Position>
            <AltitudeMeters>499.20001220703125</AltitudeMeters>
            <DistanceMeters>6415.9872093522</DistanceMeters>
          </Trackpoint>
          <Trackpoint>
            <Time>2019-07-26T08:56:16.000Z</Time>
            <Position>
              <LatitudeDegrees>42.98641045577824115753173828125</LatitudeDegrees>
              <LongitudeDegrees>-7.61240095831453800201416015625</LongitudeDegrees>
            </Position>
            <AltitudeMeters>500</AltitudeMeters>
            <DistanceMeters>6466.8770093486</DistanceMeters>
          </Trackpoint>
          <Trackpoint>
            <Time>2019-07-26T08:56:17.000Z</Time>
            <Position>
              <LatitudeDegrees>42.98635513521730899810791015625</LatitudeDegrees>
              <LongitudeDegrees>-7.612411938607692718505859375</LongitudeDegrees>
            </Position>
            <AltitudeMeters>500.20001220703125</AltitudeMeters>
            <DistanceMeters>6473.0981754482</DistanceMeters>
          </Trackpoint>
          <Trackpoint>
            <Time>2019-07-26T08:56:24.000Z</Time>
            <Position>
              <LatitudeDegrees>42.98597727902233600616455078125</LatitudeDegrees>
              <LongitudeDegrees>-7.61252467520534992218017578125</LongitudeDegrees>
            </Position>
            <AltitudeMeters>501.20001220703125</AltitudeMeters>
            <DistanceMeters>6516.1444379617</DistanceMeters>
          </Trackpoint>
          <Trackpoint>
            <Time>2019-07-26T08:56:25.000Z</Time>
            <Position>
              <LatitudeDegrees>42.98592187464237213134765625</LatitudeDegrees>
              <LongitudeDegrees>-7.61254445649683475494384765625</LongitudeDegrees>
            </Position>
            <AltitudeMeters>501.399993896484375</AltitudeMeters>
            <DistanceMeters>6522.5183154254</DistanceMeters>
          </Trackpoint>
          <Trackpoint>
            <Time>2019-07-26T08:56:34.000Z</Time>
            <Position>
              <LatitudeDegrees>42.985416613519191741943359375</LatitudeDegrees>
              <LongitudeDegrees>-7.6127192191779613494873046875</LongitudeDegrees>
            </Position>
            <AltitudeMeters>502</AltitudeMeters>
            <DistanceMeters>6580.527123951</DistanceMeters>
          </Trackpoint>
          <Trackpoint>
            <Time>2019-07-26T08:56:38.000Z</Time>
            <Position>
              <LatitudeDegrees>42.98520145006477832794189453125</LatitudeDegrees>
              <LongitudeDegrees>-7.61285022832453250885009765625</LongitudeDegrees>
            </Position>
            <AltitudeMeters>502.20001220703125</AltitudeMeters>
            <DistanceMeters>6606.7434772119</DistanceMeters>
          </Trackpoint>
          <Trackpoint>
            <Time>2019-07-26T08:56:40.000Z</Time>
            <Position>
              <LatitudeDegrees>42.9851017892360687255859375</LatitudeDegrees>
              <LongitudeDegrees>-7.6129388250410556793212890625</LongitudeDegrees>
            </Position>
            <AltitudeMeters>502.399993896484375</AltitudeMeters>
            <DistanceMeters>6619.9750728109</DistanceMeters>
          </Trackpoint>
          <Trackpoint>
            <Time>2019-07-26T08:56:47.000Z</Time>
            <Position>
              <LatitudeDegrees>42.9847874678671360015869140625</LatitudeDegrees>
              <LongitudeDegrees>-7.61328390799462795257568359375</LongitudeDegrees>
            </Position>
            <AltitudeMeters>502.600006103515625</AltitudeMeters>
            <DistanceMeters>6664.8455965888</DistanceMeters>
          </Trackpoint>
          <Trackpoint>
            <Time>2019-07-26T08:56:55.000Z</Time>
            <Position>
              <LatitudeDegrees>42.98451346345245838165283203125</LatitudeDegrees>
              <LongitudeDegrees>-7.6137592457234859466552734375</LongitudeDegrees>
            </Position>
            <AltitudeMeters>503.20001220703125</AltitudeMeters>
            <DistanceMeters>6714.120132244</DistanceMeters>
          </Trackpoint>
          <Trackpoint>
            <Time>2019-07-26T08:57:01.000Z</Time>
            <Position>
              <LatitudeDegrees>42.98435538075864315032958984375</LatitudeDegrees>
              <LongitudeDegrees>-7.61409175582230091094970703125</LongitudeDegrees>
            </Position>
            <AltitudeMeters>503.600006103515625</AltitudeMeters>
            <DistanceMeters>6746.4088058891</DistanceMeters>
          </Trackpoint>
          <Trackpoint>
            <Time>2019-07-26T08:57:07.000Z</Time>
            <Position>
              <LatitudeDegrees>42.9842676222324371337890625</LatitudeDegrees>
              <LongitudeDegrees>-7.6143094338476657867431640625</LongitudeDegrees>
            </Position>
            <AltitudeMeters>504.399993896484375</AltitudeMeters>
            <DistanceMeters>6766.6461497623</DistanceMeters>
          </Trackpoint>
          <Trackpoint>
            <Time>2019-07-26T08:57:13.000Z</Time>
            <Position>
              <LatitudeDegrees>42.984164021909236907958984375</LatitudeDegrees>
              <LongitudeDegrees>-7.6146202348172664642333984375</LongitudeDegrees>
            </Position>
            <AltitudeMeters>505.20001220703125</AltitudeMeters>
            <DistanceMeters>6794.4553893566</DistanceMeters>
          </Trackpoint>
          <Trackpoint>
            <Time>2019-07-26T08:57:14.000Z</Time>
            <Position>
              <LatitudeDegrees>42.98414499498903751373291015625</LatitudeDegrees>
              <LongitudeDegrees>-7.6146747171878814697265625</LongitudeDegrees>
            </Position>
            <AltitudeMeters>505.399993896484375</AltitudeMeters>
            <DistanceMeters>6799.3711278122</DistanceMeters>
          </Trackpoint>
          <Trackpoint>
            <Time>2019-07-26T08:57:16.000Z</Time>
            <Position>
              <LatitudeDegrees>42.98410593532025814056396484375</LatitudeDegrees>
              <LongitudeDegrees>-7.614788375794887542724609375</LongitudeDegrees>
            </Position>
            <AltitudeMeters>505.79998779296875</AltitudeMeters>
            <DistanceMeters>6809.5961082556</DistanceMeters>
          </Trackpoint>
          <Trackpoint>
            <Time>2019-07-26T08:57:19.000Z</Time>
            <Position>
              <LatitudeDegrees>42.9840396344661712646484375</LatitudeDegrees>
              <LongitudeDegrees>-7.61495836079120635986328125</LongitudeDegrees>
            </Position>
            <AltitudeMeters>506.600006103515625</AltitudeMeters>
            <DistanceMeters>6825.2809864075</DistanceMeters>
          </Trackpoint>
          <Trackpoint>
            <Time>2019-07-26T08:57:20.000Z</Time>
            <Position>
              <LatitudeDegrees>42.98401608131825923919677734375</LatitudeDegrees>
              <LongitudeDegrees>-7.6150148548185825347900390625</LongitudeDegrees>
            </Position>
            <AltitudeMeters>506.79998779296875</AltitudeMeters>
            <DistanceMeters>6830.5744094215</DistanceMeters>
          </Trackpoint>
          <Trackpoint>
            <Time>2019-07-26T08:57:23.000Z</Time>
            <Position>
              <LatitudeDegrees>42.983950786292552947998046875</LatitudeDegrees>
              <LongitudeDegrees>-7.61517419479787349700927734375</LongitudeDegrees>
            </Position>
            <AltitudeMeters>507.600006103515625</AltitudeMeters>
            <DistanceMeters>6845.4451034886</DistanceMeters>
          </Trackpoint>
          <Trackpoint>
            <Time>2019-07-26T08:57:26.000Z</Time>
            <Position>
              <LatitudeDegrees>42.9838899336755275726318359375</LatitudeDegrees>
              <LongitudeDegrees>-7.61532171629369258880615234375</LongitudeDegrees>
            </Position>
            <AltitudeMeters>508.399993896484375</AltitudeMeters>
            <DistanceMeters>6859.2347862173</DistanceMeters>
          </Trackpoint>
          <Trackpoint>
            <Time>2019-07-26T08:57:27.000Z</Time>
            <Position>
              <LatitudeDegrees>42.9838694818317890167236328125</LatitudeDegrees>
              <LongitudeDegrees>-7.6153692416846752166748046875</LongitudeDegrees>
            </Position>
            <AltitudeMeters>508.79998779296875</AltitudeMeters>
            <DistanceMeters>6863.7242328004</DistanceMeters>
          </Trackpoint>
          <Trackpoint>
            <Time>2019-07-26T08:57:29.000Z</Time>
            <Position>
              <LatitudeDegrees>42.9838282428681850433349609375</LatitudeDegrees>
              <LongitudeDegrees>-7.615467645227909088134765625</LongitudeDegrees>
            </Position>
            <AltitudeMeters>509.79998779296875</AltitudeMeters>
            <DistanceMeters>6872.9579742839</DistanceMeters>
          </Trackpoint>
          <Trackpoint>
            <Time>2019-07-26T08:57:32.000Z</Time>
            <Position>
              <LatitudeDegrees>42.983774431049823760986328125</LatitudeDegrees>
              <LongitudeDegrees>-7.61560770682990550994873046875</LongitudeDegrees>
            </Position>
            <AltitudeMeters>510.79998779296875</AltitudeMeters>
            <DistanceMeters>6885.8396156674</DistanceMeters>
          </Trackpoint>
          <Trackpoint>
            <Time>2019-07-26T08:57:35.000Z</Time>
            <Position>
              <LatitudeDegrees>42.9837246425449848175048828125</LatitudeDegrees>
              <LongitudeDegrees>-7.6157447509467601776123046875</LongitudeDegrees>
            </Position>
            <AltitudeMeters>511.79998779296875</AltitudeMeters>
            <DistanceMeters>6898.2986290341</DistanceMeters>
          </Trackpoint>
          <Trackpoint>
            <Time>2019-07-26T08:57:36.000Z</Time>
            <Position>
              <LatitudeDegrees>42.98370880074799060821533203125</LatitudeDegrees>
              <LongitudeDegrees>-7.61579043231904506683349609375</LongitudeDegrees>
            </Position>
            <AltitudeMeters>512</AltitudeMeters>
            <DistanceMeters>6902.414503596</DistanceMeters>
          </Trackpoint>
          <Trackpoint>
            <Time>2019-07-26T08:57:40.000Z</Time>
            <Position>
              <LatitudeDegrees>42.98364199697971343994140625</LatitudeDegrees>
              <LongitudeDegrees>-7.61597416363656520843505859375</LongitudeDegrees>
            </Position>
            <AltitudeMeters>513.20001220703125</AltitudeMeters>
            <DistanceMeters>6919.1202972789</DistanceMeters>
          </Trackpoint>
          <Trackpoint>
            <Time>2019-07-26T08:57:43.000Z</Time>
            <Position>
              <LatitudeDegrees>42.9835878498852252960205078125</LatitudeDegrees>
              <LongitudeDegrees>-7.61610726825892925262451171875</LongitudeDegrees>
            </Position>
            <AltitudeMeters>513.79998779296875</AltitudeMeters>
            <DistanceMeters>6931.5211924821</DistanceMeters>
          </Trackpoint>
          <Trackpoint>
            <Time>2019-07-26T08:57:45.000Z</Time>
            <Position>
              <LatitudeDegrees>42.98355557955801486968994140625</LatitudeDegrees>
              <LongitudeDegrees>-7.616204917430877685546875</LongitudeDegrees>
            </Position>
            <AltitudeMeters>514.5999755859375</AltitudeMeters>
            <DistanceMeters>6940.2450382092</DistanceMeters>
          </Trackpoint>
          <Trackpoint>
            <Time>2019-07-26T08:57:51.000Z</Time>
            <Position>
              <LatitudeDegrees>42.98343219794332981109619140625</LatitudeDegrees>
              <LongitudeDegrees>-7.6164900697767734527587890625</LongitudeDegrees>
            </Position>
            <AltitudeMeters>515.5999755859375</AltitudeMeters>
            <DistanceMeters>6967.2202420084</DistanceMeters>
          </Trackpoint>
          <Trackpoint>
            <Time>2019-07-26T08:57:54.000Z</Time>
            <Position>
              <LatitudeDegrees>42.98334888182580471038818359375</LatitudeDegrees>
              <LongitudeDegrees>-7.61661353521049022674560546875</LongitudeDegrees>
            </Position>
            <AltitudeMeters>516.4000244140625</AltitudeMeters>
            <DistanceMeters>6980.8968279661</DistanceMeters>
          </Trackpoint>
          <Trackpoint>
            <Time>2019-07-26T08:57:57.000Z</Time>
            <Position>
              <LatitudeDegrees>42.9832532443106174468994140625</LatitudeDegrees>
              <LongitudeDegrees>-7.61672769673168659210205078125</LongitudeDegrees>
            </Position>
            <AltitudeMeters>516.5999755859375</AltitudeMeters>
            <DistanceMeters>6995.0286774783</DistanceMeters>
          </Trackpoint>
          <Trackpoint>
            <Time>2019-07-26T08:57:58.000Z</Time>
            <Position>
              <LatitudeDegrees>42.9832210578024387359619140625</LatitudeDegrees>
              <LongitudeDegrees>-7.6167636550962924957275390625</LongitudeDegrees>
            </Position>
            <AltitudeMeters>516.79998779296875</AltitudeMeters>
            <DistanceMeters>6999.6548293535</DistanceMeters>
          </Trackpoint>
          <Trackpoint>
            <Time>2019-07-26T08:58:04.000Z</Time>
            <Position>
              <LatitudeDegrees>42.9830011166632175445556640625</LatitudeDegrees>
              <LongitudeDegrees>-7.61695954017341136932373046875</LongitudeDegrees>
            </Position>
            <AltitudeMeters>517.4000244140625</AltitudeMeters>
            <DistanceMeters>7028.8721058616</DistanceMeters>
          </Trackpoint>
          <Trackpoint>
            <Time>2019-07-26T08:58:05.000Z</Time>
            <Position>
              <LatitudeDegrees>42.98296113498508930206298828125</LatitudeDegrees>
              <LongitudeDegrees>-7.61698669753968715667724609375</LongitudeDegrees>
            </Position>
            <AltitudeMeters>517.4000244140625</AltitudeMeters>
            <DistanceMeters>7033.8417395578</DistanceMeters>
          </Trackpoint>
          <Trackpoint>
            <Time>2019-07-26T08:58:07.000Z</Time>
            <Position>
              <LatitudeDegrees>42.98287983052432537078857421875</LatitudeDegrees>
              <LongitudeDegrees>-7.61703313328325748443603515625</LongitudeDegrees>
            </Position>
            <AltitudeMeters>517.5999755859375</AltitudeMeters>
            <DistanceMeters>7043.6497671045</DistanceMeters>
          </Trackpoint>
          <Trackpoint>
            <Time>2019-07-26T08:58:10.000Z</Time>
            <Position>
              <LatitudeDegrees>42.98275376670062541961669921875</LatitudeDegrees>
              <LongitudeDegrees>-7.61708476580679416656494140625</LongitudeDegrees>
            </Position>
            <AltitudeMeters>517.79998779296875</AltitudeMeters>
            <DistanceMeters>7058.2974500718</DistanceMeters>
          </Trackpoint>
          <Trackpoint>
            <Time>2019-07-26T08:58:13.000Z</Time>
            <Position>
              <LatitudeDegrees>42.98263357020914554595947265625</LatitudeDegrees>
              <LongitudeDegrees>-7.61713363230228424072265625</LongitudeDegrees>
            </Position>
            <AltitudeMeters>518.4000244140625</AltitudeMeters>
            <DistanceMeters>7072.2544128162</DistanceMeters>
          </Trackpoint>
          <Trackpoint>
            <Time>2019-07-26T08:58:19.000Z</Time>
            <Position>
              <LatitudeDegrees>42.98239451833069324493408203125</LatitudeDegrees>
              <LongitudeDegrees>-7.6172216422855854034423828125</LongitudeDegrees>
            </Position>
            <AltitudeMeters>519</AltitudeMeters>
            <DistanceMeters>7099.8095384322</DistanceMeters>
          </Trackpoint>
          <Trackpoint>
            <Time>2019-07-26T08:58:22.000Z</Time>
            <Position>
              <LatitudeDegrees>42.98227365128695964813232421875</LatitudeDegrees>
              <LongitudeDegrees>-7.61726128868758678436279296875</LongitudeDegrees>
            </Position>
            <AltitudeMeters>519.5999755859375</AltitudeMeters>
            <DistanceMeters>7113.6443315389</DistanceMeters>
          </Trackpoint>
          <Trackpoint>
            <Time>2019-07-26T08:58:25.000Z</Time>
            <Position>
              <LatitudeDegrees>42.98215068876743316650390625</LatitudeDegrees>
              <LongitudeDegrees>-7.6173140108585357666015625</LongitudeDegrees>
            </Position>
            <AltitudeMeters>520.20001220703125</AltitudeMeters>
            <DistanceMeters>7127.9877004467</DistanceMeters>
          </Trackpoint>
          <Trackpoint>
            <Time>2019-07-26T08:58:31.000Z</Time>
            <Position>
              <LatitudeDegrees>42.98189898021519184112548828125</LatitudeDegrees>
              <LongitudeDegrees>-7.61742088012397289276123046875</LongitudeDegrees>
            </Position>
            <AltitudeMeters>520.79998779296875</AltitudeMeters>
            <DistanceMeters>7157.323572265</DistanceMeters>
          </Trackpoint>
          <Trackpoint>
            <Time>2019-07-26T08:58:35.000Z</Time>
            <Position>
              <LatitudeDegrees>42.981727905571460723876953125</LatitudeDegrees>
              <LongitudeDegrees>-7.61751308105885982513427734375</LongitudeDegrees>
            </Position>
            <AltitudeMeters>521.4000244140625</AltitudeMeters>
            <DistanceMeters>7177.7907471124</DistanceMeters>
          </Trackpoint>
          <Trackpoint>
            <Time>2019-07-26T08:58:39.000Z</Time>
            <Position>
              <LatitudeDegrees>42.98154694028198719024658203125</LatitudeDegrees>
              <LongitudeDegrees>-7.61764115653932094573974609375</LongitudeDegrees>
            </Position>
            <AltitudeMeters>521.5999755859375</AltitudeMeters>
            <DistanceMeters>7200.4720930824</DistanceMeters>
          </Trackpoint>
          <Trackpoint>
            <Time>2019-07-26T08:58:44.000Z</Time>
            <Position>
              <LatitudeDegrees>42.98132448457181453704833984375</LatitudeDegrees>
              <LongitudeDegrees>-7.61783360503613948822021484375</LongitudeDegrees>
            </Position>
            <AltitudeMeters>522.4000244140625</AltitudeMeters>
            <DistanceMeters>7229.7739313941</DistanceMeters>
          </Trackpoint>
          <Trackpoint>
            <Time>2019-07-26T08:58:48.000Z</Time>
            <Position>
              <LatitudeDegrees>42.9811644740402698516845703125</LatitudeDegrees>
              <LongitudeDegrees>-7.618007026612758636474609375</LongitudeDegrees>
            </Position>
            <AltitudeMeters>522.79998779296875</AltitudeMeters>
            <DistanceMeters>7252.5024065548</DistanceMeters>
          </Trackpoint>
          <Trackpoint>
            <Time>2019-07-26T08:58:54.000Z</Time>
            <Position>
              <LatitudeDegrees>42.98093271441757678985595703125</LatitudeDegrees>
              <LongitudeDegrees>-7.61828203685581684112548828125</LongitudeDegrees>
            </Position>
            <AltitudeMeters>523.4000244140625</AltitudeMeters>
            <DistanceMeters>7286.6615695706</DistanceMeters>
          </Trackpoint>
          <Trackpoint>
            <Time>2019-07-26T08:58:59.000Z</Time>
            <Position>
              <LatitudeDegrees>42.98074311576783657073974609375</LatitudeDegrees>
              <LongitudeDegrees>-7.61850734241306781768798828125</LongitudeDegrees>
            </Position>
            <AltitudeMeters>524.4000244140625</AltitudeMeters>
            <DistanceMeters>7314.6239775343</DistanceMeters>
          </Trackpoint>
          <Trackpoint>
            <Time>2019-07-26T08:59:04.000Z</Time>
            <Position>
              <LatitudeDegrees>42.98054832033812999725341796875</LatitudeDegrees>
              <LongitudeDegrees>-7.61873264797031879425048828125</LongitudeDegrees>
            </Position>
            <AltitudeMeters>525.4000244140625</AltitudeMeters>
            <DistanceMeters>7343.0253625109</DistanceMeters>
          </Trackpoint>
          <Trackpoint>
            <Time>2019-07-26T08:59:06.000Z</Time>
            <Position>
              <LatitudeDegrees>42.980465590953826904296875</LatitudeDegrees>
              <LongitudeDegrees>-7.61881445534527301788330078125</LongitudeDegrees>
            </Position>
            <AltitudeMeters>525.5999755859375</AltitudeMeters>
            <DistanceMeters>7354.3900967083</DistanceMeters>
          </Trackpoint>
          <Trackpoint>
            <Time>2019-07-26T08:59:07.000Z</Time>
            <Position>
              <LatitudeDegrees>42.98042745329439640045166015625</LatitudeDegrees>
              <LongitudeDegrees>-7.61885829269886016845703125</LongitudeDegrees>
            </Position>
            <AltitudeMeters>525.5999755859375</AltitudeMeters>
            <DistanceMeters>7359.9359456395</DistanceMeters>
          </Trackpoint>
          <Trackpoint>
            <Time>2019-07-26T08:59:10.000Z</Time>
            <Position>
              <LatitudeDegrees>42.98031396232545375823974609375</LatitudeDegrees>
              <LongitudeDegrees>-7.61899248696863651275634765625</LongitudeDegrees>
            </Position>
            <AltitudeMeters>526.5999755859375</AltitudeMeters>
            <DistanceMeters>7376.6384957939</DistanceMeters>
          </Trackpoint>
          <Trackpoint>
            <Time>2019-07-26T08:59:17.000Z</Time>
            <Position>
              <LatitudeDegrees>42.98005697317421436309814453125</LatitudeDegrees>
              <LongitudeDegrees>-7.61930798180401325225830078125</LongitudeDegrees>
            </Position>
            <AltitudeMeters>527.79998779296875</AltitudeMeters>
            <DistanceMeters>7415.0849938544</DistanceMeters>
          </Trackpoint>
          <Trackpoint>
            <Time>2019-07-26T08:59:21.000Z</Time>
            <Position>
              <LatitudeDegrees>42.979921437799930572509765625</LatitudeDegrees>
              <LongitudeDegrees>-7.61949908919632434844970703125</LongitudeDegrees>
            </Position>
            <AltitudeMeters>529</AltitudeMeters>
            <DistanceMeters>7436.7581688978</DistanceMeters>
          </Trackpoint>
          <Trackpoint>
            <Time>2019-07-26T08:59:25.000Z</Time>
            <Position>
              <LatitudeDegrees>42.97981456853449344635009765625</LatitudeDegrees>
              <LongitudeDegrees>-7.619690783321857452392578125</LongitudeDegrees>
            </Position>
            <AltitudeMeters>529.4000244140625</AltitudeMeters>
            <DistanceMeters>7456.3829685232</DistanceMeters>
          </Trackpoint>
          <Trackpoint>
            <Time>2019-07-26T08:59:29.000Z</Time>
            <Position>
              <LatitudeDegrees>42.97972991131246089935302734375</LatitudeDegrees>
              <LongitudeDegrees>-7.61990628205239772796630859375</LongitudeDegrees>
            </Position>
            <AltitudeMeters>530.20001220703125</AltitudeMeters>
            <DistanceMeters>7476.3003048978</DistanceMeters>
          </Trackpoint>
          <Trackpoint>
            <Time>2019-07-26T08:59:32.000Z</Time>
            <Position>
              <LatitudeDegrees>42.9796724952757358551025390625</LatitudeDegrees>
              <LongitudeDegrees>-7.62006721459329128265380859375</LongitudeDegrees>
            </Position>
            <AltitudeMeters>531.5999755859375</AltitudeMeters>
            <DistanceMeters>7490.8800168116</DistanceMeters>
          </Trackpoint>
          <Trackpoint>
            <Time>2019-07-26T08:59:34.000Z</Time>
            <Position>
              <LatitudeDegrees>42.979637794196605682373046875</LatitudeDegrees>
              <LongitudeDegrees>-7.62017349712550640106201171875</LongitudeDegrees>
            </Position>
            <AltitudeMeters>532.20001220703125</AltitudeMeters>
            <DistanceMeters>7500.3569963047</DistanceMeters>
          </Trackpoint>
          <Trackpoint>
            <Time>2019-07-26T08:59:36.000Z</Time>
            <Position>
              <LatitudeDegrees>42.9796020872890949249267578125</LatitudeDegrees>
              <LongitudeDegrees>-7.62027659453451633453369140625</LongitudeDegrees>
            </Position>
            <AltitudeMeters>533</AltitudeMeters>
            <DistanceMeters>7509.6453411704</DistanceMeters>
          </Trackpoint>
          <Trackpoint>
            <Time>2019-07-26T08:59:41.000Z</Time>
            <Position>
              <LatitudeDegrees>42.97952078282833099365234375</LatitudeDegrees>
              <LongitudeDegrees>-7.62053207494318485260009765625</LongitudeDegrees>
            </Position>
            <AltitudeMeters>534.20001220703125</AltitudeMeters>
            <DistanceMeters>7532.3316631933</DistanceMeters>
          </Trackpoint>
          <Trackpoint>
            <Time>2019-07-26T08:59:43.000Z</Time>
            <Position>
              <LatitudeDegrees>42.97949287109076976776123046875</LatitudeDegrees>
              <LongitudeDegrees>-7.62063936330378055572509765625</LongitudeDegrees>
            </Position>
            <AltitudeMeters>534.5999755859375</AltitudeMeters>
            <DistanceMeters>7541.6034660248</DistanceMeters>
          </Trackpoint>
          <Trackpoint>
            <Time>2019-07-26T08:59:46.000Z</Time>
            <Position>
              <LatitudeDegrees>42.979444004595279693603515625</LatitudeDegrees>
              <LongitudeDegrees>-7.620797865092754364013671875</LongitudeDegrees>
            </Position>
            <AltitudeMeters>535</AltitudeMeters>
            <DistanceMeters>7555.6091916608</DistanceMeters>
          </Trackpoint>
          <Trackpoint>
            <Time>2019-07-26T08:59:50.000Z</Time>
            <Position>
              <LatitudeDegrees>42.97936412505805492401123046875</LatitudeDegrees>
              <LongitudeDegrees>-7.620999701321125030517578125</LongitudeDegrees>
            </Position>
            <AltitudeMeters>535.79998779296875</AltitudeMeters>
            <DistanceMeters>7574.2949331709</DistanceMeters>
          </Trackpoint>
          <Trackpoint>
            <Time>2019-07-26T08:59:52.000Z</Time>
            <Position>
              <LatitudeDegrees>42.97931886278092861175537109375</LatitudeDegrees>
              <LongitudeDegrees>-7.62109919451177120208740234375</LongitudeDegrees>
            </Position>
            <AltitudeMeters>536.4000244140625</AltitudeMeters>
            <DistanceMeters>7583.8355395749</DistanceMeters>
          </Trackpoint>
          <Trackpoint>
            <Time>2019-07-26T08:59:57.000Z</Time>
            <Position>
              <LatitudeDegrees>42.9791955649852752685546875</LatitudeDegrees>
              <LongitudeDegrees>-7.621369175612926483154296875</LongitudeDegrees>
            </Position>
            <AltitudeMeters>537.4000244140625</AltitudeMeters>
            <DistanceMeters>7609.7513647725</DistanceMeters>
          </Trackpoint>
          <Trackpoint>
            <Time>2019-07-26T08:59:58.000Z</Time>
            <Position>
              <LatitudeDegrees>42.979165054857730865478515625</LatitudeDegrees>
              <LongitudeDegrees>-7.6214233227074146270751953125</LongitudeDegrees>
            </Position>
            <AltitudeMeters>537.4000244140625</AltitudeMeters>
            <DistanceMeters>7615.3167185081</DistanceMeters>
          </Trackpoint>
          <Trackpoint>
            <Time>2019-07-26T09:00:05.000Z</Time>
            <Position>
              <LatitudeDegrees>42.978918962180614471435546875</LatitudeDegrees>
              <LongitudeDegrees>-7.62183529324829578399658203125</LongitudeDegrees>
            </Position>
            <AltitudeMeters>538</AltitudeMeters>
            <DistanceMeters>7658.6249285597</DistanceMeters>
          </Trackpoint>
          <Trackpoint>
            <Time>2019-07-26T09:00:07.000Z</Time>
            <Position>
              <LatitudeDegrees>42.97884612344205379486083984375</LatitudeDegrees>
              <LongitudeDegrees>-7.6219725050032138824462890625</LongitudeDegrees>
            </Position>
            <AltitudeMeters>538</AltitudeMeters>
            <DistanceMeters>7672.4290103155</DistanceMeters>
          </Trackpoint>
          <Trackpoint>
            <Time>2019-07-26T09:00:09.000Z</Time>
            <Position>
              <LatitudeDegrees>42.97877605073153972625732421875</LatitudeDegrees>
              <LongitudeDegrees>-7.62212396599352359771728515625</LongitudeDegrees>
            </Position>
            <AltitudeMeters>538</AltitudeMeters>
            <DistanceMeters>7687.0217229729</DistanceMeters>
          </Trackpoint>
          <Trackpoint>
            <Time>2019-07-26T09:00:10.000Z</Time>
            <Position>
              <LatitudeDegrees>42.97873380593955516815185546875</LatitudeDegrees>
              <LongitudeDegrees>-7.62219227850437164306640625</LongitudeDegrees>
            </Position>
            <AltitudeMeters>537.79998779296875</AltitudeMeters>
            <DistanceMeters>7694.3053827061</DistanceMeters>
          </Trackpoint>
          <Trackpoint>
            <Time>2019-07-26T09:00:16.000Z</Time>
            <Position>
              <LatitudeDegrees>42.97842484898865222930908203125</LatitudeDegrees>
              <LongitudeDegrees>-7.6225438155233860015869140625</LongitudeDegrees>
            </Position>
            <AltitudeMeters>537.20001220703125</AltitudeMeters>
            <DistanceMeters>7739.0481337075</DistanceMeters>
          </Trackpoint>
          <Trackpoint>
            <Time>2019-07-26T09:00:21.000Z</Time>
            <Position>
              <LatitudeDegrees>42.97816484235227108001708984375</LatitudeDegrees>
              <LongitudeDegrees>-7.6228415407240390777587890625</LongitudeDegrees>
            </Position>
            <AltitudeMeters>537</AltitudeMeters>
            <DistanceMeters>7776.8004187417</DistanceMeters>
          </Trackpoint>
          <Trackpoint>
            <Time>2019-07-26T09:00:26.000Z</Time>
            <Position>
              <LatitudeDegrees>42.97789075411856174468994140625</LatitudeDegrees>
              <LongitudeDegrees>-7.62314446270465850830078125</LongitudeDegrees>
            </Position>
            <AltitudeMeters>536.79998779296875</AltitudeMeters>
            <DistanceMeters>7816.0319534981</DistanceMeters>
          </Trackpoint>
          <Trackpoint>
            <Time>2019-07-26T09:00:32.000Z</Time>
            <Position>
              <LatitudeDegrees>42.9775558970868587493896484375</LatitudeDegrees>
              <LongitudeDegrees>-7.62352525256574153900146484375</LongitudeDegrees>
            </Position>
            <AltitudeMeters>536.4000244140625</AltitudeMeters>
            <DistanceMeters>7864.5146725716</DistanceMeters>
          </Trackpoint>
          <Trackpoint>
            <Time>2019-07-26T09:00:34.000Z</Time>
            <Position>
              <LatitudeDegrees>42.9774425737559795379638671875</LatitudeDegrees>
              <LongitudeDegrees>-7.62364729307591915130615234375</LongitudeDegrees>
            </Position>
            <AltitudeMeters>536.4000244140625</AltitudeMeters>
            <DistanceMeters>7880.5727815179</DistanceMeters>
          </Trackpoint>
          <Trackpoint>
            <Time>2019-07-26T09:00:41.000Z</Time>
            <Position>
              <LatitudeDegrees>42.9770243167877197265625</LatitudeDegrees>
              <LongitudeDegrees>-7.62409262359142303466796875</LongitudeDegrees>
            </Position>
            <AltitudeMeters>535.5999755859375</AltitudeMeters>
            <DistanceMeters>7939.5832234651</DistanceMeters>
          </Trackpoint>
          <Trackpoint>
            <Time>2019-07-26T09:00:42.000Z</Time>
            <Position>
              <LatitudeDegrees>42.97696555964648723602294921875</LatitudeDegrees>
              <LongitudeDegrees>-7.6241571642458438873291015625</LongitudeDegrees>
            </Position>
            <AltitudeMeters>535.4000244140625</AltitudeMeters>
            <DistanceMeters>7947.973065292</DistanceMeters>
          </Trackpoint>
          <Trackpoint>
            <Time>2019-07-26T09:00:50.000Z</Time>
            <Position>
              <LatitudeDegrees>42.976513020694255828857421875</LatitudeDegrees>
              <LongitudeDegrees>-7.6246905885636806488037109375</LongitudeDegrees>
            </Position>
            <AltitudeMeters>534.5999755859375</AltitudeMeters>
            <DistanceMeters>8014.4849773825</DistanceMeters>
          </Trackpoint>
          <Trackpoint>
            <Time>2019-07-26T09:00:53.000Z</Time>
            <Position>
              <LatitudeDegrees>42.97636239789426326751708984375</LatitudeDegrees>
              <LongitudeDegrees>-7.62487574480473995208740234375</LongitudeDegrees>
            </Position>
            <AltitudeMeters>534.4000244140625</AltitudeMeters>
            <DistanceMeters>8037.0325560506</DistanceMeters>
          </Trackpoint>
          <Trackpoint>
            <Time>2019-07-26T09:00:55.000Z</Time>
            <Position>
              <LatitudeDegrees>42.97625494189560413360595703125</LatitudeDegrees>
              <LongitudeDegrees>-7.62496761046350002288818359375</LongitudeDegrees>
            </Position>
            <AltitudeMeters>534.20001220703125</AltitudeMeters>
            <DistanceMeters>8051.1397830903</DistanceMeters>
          </Trackpoint>
          <Trackpoint>
            <Time>2019-07-26T09:00:59.000Z</Time>
            <Position>
              <LatitudeDegrees>42.976051010191440582275390625</LatitudeDegrees>
              <LongitudeDegrees>-7.6251670159399509429931640625</LongitudeDegrees>
            </Position>
            <AltitudeMeters>533.5999755859375</AltitudeMeters>
            <DistanceMeters>8079.0482085851</DistanceMeters>
          </Trackpoint>
          <Trackpoint>
            <Time>2019-07-26T09:01:00.000Z</Time>
            <Position>
              <LatitudeDegrees>42.97600231133401393890380859375</LatitudeDegrees>
              <LongitudeDegrees>-7.625225521624088287353515625</LongitudeDegrees>
            </Position>
            <AltitudeMeters>533.5999755859375</AltitudeMeters>
            <DistanceMeters>8086.2652357382</DistanceMeters>
          </Trackpoint>
          <Trackpoint>
            <Time>2019-07-26T09:01:07.000Z</Time>
            <Position>
              <LatitudeDegrees>42.9756679572165012359619140625</LatitudeDegrees>
              <LongitudeDegrees>-7.62563397176563739776611328125</LongitudeDegrees>
            </Position>
            <AltitudeMeters>533.4000244140625</AltitudeMeters>
            <DistanceMeters>8136.1773333636</DistanceMeters>
          </Trackpoint>
          <Trackpoint>
            <Time>2019-07-26T09:01:13.000Z</Time>
            <Position>
              <LatitudeDegrees>42.97545597888529300689697265625</LatitudeDegrees>
              <LongitudeDegrees>-7.62604954652488231658935546875</LongitudeDegrees>
            </Position>
            <AltitudeMeters>533.79998779296875</AltitudeMeters>
            <DistanceMeters>8177.4316248683</DistanceMeters>
          </Trackpoint>
          <Trackpoint>
            <Time>2019-07-26T09:01:19.000Z</Time>
            <Position>
              <LatitudeDegrees>42.975336872041225433349609375</LatitudeDegrees>
              <LongitudeDegrees>-7.626563943922519683837890625</LongitudeDegrees>
            </Position>
            <AltitudeMeters>534</AltitudeMeters>
            <DistanceMeters>8221.3685084878</DistanceMeters>
          </Trackpoint>
          <Trackpoint>
            <Time>2019-07-26T09:01:27.000Z</Time>
            <Position>
              <LatitudeDegrees>42.97517317347228527069091796875</LatitudeDegrees>
              <LongitudeDegrees>-7.6272591389715671539306640625</LongitudeDegrees>
            </Position>
            <AltitudeMeters>534.20001220703125</AltitudeMeters>
            <DistanceMeters>8280.8406571113</DistanceMeters>
          </Trackpoint>
          <Trackpoint>
            <Time>2019-07-26T09:01:34.000Z</Time>
            <Position>
              <LatitudeDegrees>42.9749591834843158721923828125</LatitudeDegrees>
              <LongitudeDegrees>-7.6277934014797210693359375</LongitudeDegrees>
            </Position>
            <AltitudeMeters>534.4000244140625</AltitudeMeters>
            <DistanceMeters>8330.4405968936</DistanceMeters>
          </Trackpoint>
          <Trackpoint>
            <Time>2019-07-26T09:01:39.000Z</Time>
            <Position>
              <LatitudeDegrees>42.97478425316512584686279296875</LatitudeDegrees>
              <LongitudeDegrees>-7.6281117461621761322021484375</LongitudeDegrees>
            </Position>
            <AltitudeMeters>534.5999755859375</AltitudeMeters>
            <DistanceMeters>8362.8621187354</DistanceMeters>
          </Trackpoint>
          <Trackpoint>
            <Time>2019-07-26T09:01:41.000Z</Time>
            <Position>
              <LatitudeDegrees>42.9747083969414234161376953125</LatitudeDegrees>
              <LongitudeDegrees>-7.628227584064006805419921875</LongitudeDegrees>
            </Position>
            <AltitudeMeters>534.79998779296875</AltitudeMeters>
            <DistanceMeters>8375.5217315544</DistanceMeters>
          </Trackpoint>
          <Trackpoint>
            <Time>2019-07-26T09:01:48.000Z</Time>
            <Position>
              <LatitudeDegrees>42.974424250423908233642578125</LatitudeDegrees>
              <LongitudeDegrees>-7.62861876748502254486083984375</LongitudeDegrees>
            </Position>
            <AltitudeMeters>535.20001220703125</AltitudeMeters>
            <DistanceMeters>8420.4106656929</DistanceMeters>
          </Trackpoint>
          <Trackpoint>
            <Time>2019-07-26T09:01:49.000Z</Time>
            <Position>
              <LatitudeDegrees>42.97438225708901882171630859375</LatitudeDegrees>
              <LongitudeDegrees>-7.62867593206465244293212890625</LongitudeDegrees>
            </Position>
            <AltitudeMeters>535.4000244140625</AltitudeMeters>
            <DistanceMeters>8427.0080112546</DistanceMeters>
          </Trackpoint>
          <Trackpoint>
            <Time>2019-07-26T09:01:56.000Z</Time>
            <Position>
              <LatitudeDegrees>42.97407849691808223724365234375</LatitudeDegrees>
              <LongitudeDegrees>-7.629058063030242919921875</LongitudeDegrees>
            </Position>
            <AltitudeMeters>536.4000244140625</AltitudeMeters>
            <DistanceMeters>8472.9583163057</DistanceMeters>
          </Trackpoint>
          <Trackpoint>
            <Time>2019-07-26T09:02:02.000Z</Time>
            <Position>
              <LatitudeDegrees>42.97378194518387317657470703125</LatitudeDegrees>
              <LongitudeDegrees>-7.62940851040184497833251953125</LongitudeDegrees>
            </Position>
            <AltitudeMeters>536.79998779296875</AltitudeMeters>
            <DistanceMeters>8516.5922409241</DistanceMeters>
          </Trackpoint>
          <Trackpoint>
            <Time>2019-07-26T09:02:07.000Z</Time>
            <Position>
              <LatitudeDegrees>42.97352738678455352783203125</LatitudeDegrees>
              <LongitudeDegrees>-7.6296848617494106292724609375</LongitudeDegrees>
            </Position>
            <AltitudeMeters>536.79998779296875</AltitudeMeters>
            <DistanceMeters>8552.7755887972</DistanceMeters>
          </Trackpoint>
          <Trackpoint>
            <Time>2019-07-26T09:02:10.000Z</Time>
            <Position>
              <LatitudeDegrees>42.97338833101093769073486328125</LatitudeDegrees>
              <LongitudeDegrees>-7.62985962443053722381591796875</LongitudeDegrees>
            </Position>
            <AltitudeMeters>537</AltitudeMeters>
            <DistanceMeters>8573.8016317569</DistanceMeters>
          </Trackpoint>
          <Trackpoint>
            <Time>2019-07-26T09:02:16.000Z</Time>
            <Position>
              <LatitudeDegrees>42.97313486225903034210205078125</LatitudeDegrees>
              <LongitudeDegrees>-7.630219124257564544677734375</LongitudeDegrees>
            </Position>
            <AltitudeMeters>537</AltitudeMeters>
            <DistanceMeters>8614.4587423706</DistanceMeters>
          </Trackpoint>
          <Trackpoint>
            <Time>2019-07-26T09:02:17.000Z</Time>
            <Position>
              <LatitudeDegrees>42.97310225665569305419921875</LatitudeDegrees>
              <LongitudeDegrees>-7.630272768437862396240234375</LongitudeDegrees>
            </Position>
            <AltitudeMeters>537</AltitudeMeters>
            <DistanceMeters>8620.1397188017</DistanceMeters>
          </Trackpoint>
          <Trackpoint>
            <Time>2019-07-26T09:02:21.000Z</Time>
            <Position>
              <LatitudeDegrees>42.97297007404267787933349609375</LatitudeDegrees>
              <LongitudeDegrees>-7.630498073995113372802734375</LongitudeDegrees>
            </Position>
            <AltitudeMeters>537.20001220703125</AltitudeMeters>
            <DistanceMeters>8643.6580147082</DistanceMeters>
          </Trackpoint>
          <Trackpoint>
            <Time>2019-07-26T09:02:25.000Z</Time>
            <Position>
              <LatitudeDegrees>42.97281953506171703338623046875</LatitudeDegrees>
              <LongitudeDegrees>-7.6307185180485248565673828125</LongitudeDegrees>
            </Position>
            <AltitudeMeters>537.5999755859375</AltitudeMeters>
            <DistanceMeters>8668.2146534221</DistanceMeters>
          </Trackpoint>
          <Trackpoint>
            <Time>2019-07-26T09:02:28.000Z</Time>
            <Position>
              <LatitudeDegrees>42.9727099835872650146484375</LatitudeDegrees>
              <LongitudeDegrees>-7.63088791631162166595458984375</LongitudeDegrees>
            </Position>
            <AltitudeMeters>538</AltitudeMeters>
            <DistanceMeters>8686.6263092332</DistanceMeters>
          </Trackpoint>
          <Trackpoint>
            <Time>2019-07-26T09:02:31.000Z</Time>
            <Position>
              <LatitudeDegrees>42.97261350788176059722900390625</LatitudeDegrees>
              <LongitudeDegrees>-7.63107231818139553070068359375</LongitudeDegrees>
            </Position>
            <AltitudeMeters>538.5999755859375</AltitudeMeters>
            <DistanceMeters>8705.0879236074</DistanceMeters>
          </Trackpoint>
          <Trackpoint>
            <Time>2019-07-26T09:02:34.000Z</Time>
            <Position>
              <LatitudeDegrees>42.97251929529011249542236328125</LatitudeDegrees>
              <LongitudeDegrees>-7.6312341727316379547119140625</LongitudeDegrees>
            </Position>
            <AltitudeMeters>539.20001220703125</AltitudeMeters>
            <DistanceMeters>8721.9315260047</DistanceMeters>
          </Trackpoint>
          <Trackpoint>
            <Time>2019-07-26T09:02:38.000Z</Time>
            <Position>
              <LatitudeDegrees>42.97240245155990123748779296875</LatitudeDegrees>
              <LongitudeDegrees>-7.63145017437636852264404296875</LongitudeDegrees>
            </Position>
            <AltitudeMeters>539.79998779296875</AltitudeMeters>
            <DistanceMeters>8743.8076993743</DistanceMeters>
          </Trackpoint>
          <Trackpoint>
            <Time>2019-07-26T09:02:40.000Z</Time>
            <Position>
              <LatitudeDegrees>42.97233916819095611572265625</LatitudeDegrees>
              <LongitudeDegrees>-7.63159065507352352142333984375</LongitudeDegrees>
            </Position>
            <AltitudeMeters>540</AltitudeMeters>
            <DistanceMeters>8757.2424739523</DistanceMeters>
          </Trackpoint>
          <Trackpoint>
            <Time>2019-07-26T09:02:46.000Z</Time>
            <Position>
              <LatitudeDegrees>42.97210313379764556884765625</LatitudeDegrees>
              <LongitudeDegrees>-7.6320876181125640869140625</LongitudeDegrees>
            </Position>
            <AltitudeMeters>540.20001220703125</AltitudeMeters>
            <DistanceMeters>8805.4931245046</DistanceMeters>
          </Trackpoint>
          <Trackpoint>
            <Time>2019-07-26T09:02:51.000Z</Time>
            <Position>
              <LatitudeDegrees>42.97189786098897457122802734375</LatitudeDegrees>
              <LongitudeDegrees>-7.6325759477913379669189453125</LongitudeDegrees>
            </Position>
            <AltitudeMeters>539.5999755859375</AltitudeMeters>
            <DistanceMeters>8851.3575690946</DistanceMeters>
          </Trackpoint>
          <Trackpoint>
            <Time>2019-07-26T09:02:52.000Z</Time>
            <Position>
              <LatitudeDegrees>42.97185947187244892120361328125</LatitudeDegrees>
              <LongitudeDegrees>-7.6326815597712993621826171875</LongitudeDegrees>
            </Position>
            <AltitudeMeters>539.4000244140625</AltitudeMeters>
            <DistanceMeters>8860.9613808795</DistanceMeters>
          </Trackpoint>
          <Trackpoint>
            <Time>2019-07-26T09:02:55.000Z</Time>
            <Position>
              <LatitudeDegrees>42.9717526026070117950439453125</LatitudeDegrees>
              <LongitudeDegrees>-7.632995210587978363037109375</LongitudeDegrees>
            </Position>
            <AltitudeMeters>538.4000244140625</AltitudeMeters>
            <DistanceMeters>8889.1385242972</DistanceMeters>
          </Trackpoint>
          <Trackpoint>
            <Time>2019-07-26T09:02:58.000Z</Time>
            <Position>
              <LatitudeDegrees>42.971649169921875</LatitudeDegrees>
              <LongitudeDegrees>-7.63329570181667804718017578125</LongitudeDegrees>
            </Position>
            <AltitudeMeters>537.20001220703125</AltitudeMeters>
            <DistanceMeters>8916.1825996466</DistanceMeters>
          </Trackpoint>
          <Trackpoint>
            <Time>2019-07-26T09:03:02.000Z</Time>
            <Position>
              <LatitudeDegrees>42.97150776721537113189697265625</LatitudeDegrees>
              <LongitudeDegrees>-7.633718736469745635986328125</LongitudeDegrees>
            </Position>
            <AltitudeMeters>536</AltitudeMeters>
            <DistanceMeters>8954.0585839176</DistanceMeters>
          </Trackpoint>
          <Trackpoint>
            <Time>2019-07-26T09:03:06.000Z</Time>
            <Position>
              <LatitudeDegrees>42.97135773114860057830810546875</LatitudeDegrees>
              <LongitudeDegrees>-7.63413347303867340087890625</LongitudeDegrees>
            </Position>
            <AltitudeMeters>535.4000244140625</AltitudeMeters>
            <DistanceMeters>8991.7370057017</DistanceMeters>
          </Trackpoint>
          <Trackpoint>
            <Time>2019-07-26T09:03:08.000Z</Time>
            <Position>
              <LatitudeDegrees>42.9712677933275699615478515625</LatitudeDegrees>
              <LongitudeDegrees>-7.63431586325168609619140625</LongitudeDegrees>
            </Position>
            <AltitudeMeters>534.79998779296875</AltitudeMeters>
            <DistanceMeters>9009.6487221459</DistanceMeters>
          </Trackpoint>
          <Trackpoint>
            <Time>2019-07-26T09:03:12.000Z</Time>
            <Position>
              <LatitudeDegrees>42.97107241116464138031005859375</LatitudeDegrees>
              <LongitudeDegrees>-7.63464518822729587554931640625</LongitudeDegrees>
            </Position>
            <AltitudeMeters>533.79998779296875</AltitudeMeters>
            <DistanceMeters>9044.1771727725</DistanceMeters>
          </Trackpoint>
          <Trackpoint>
            <Time>2019-07-26T09:03:14.000Z</Time>
            <Position>
              <LatitudeDegrees>42.97098607756197452545166015625</LatitudeDegrees>
              <LongitudeDegrees>-7.6348135806620121002197265625</LongitudeDegrees>
            </Position>
            <AltitudeMeters>533.5999755859375</AltitudeMeters>
            <DistanceMeters>9060.9221094299</DistanceMeters>
          </Trackpoint>
          <Trackpoint>
            <Time>2019-07-26T09:03:18.000Z</Time>
            <Position>
              <LatitudeDegrees>42.970796562731266021728515625</LatitudeDegrees>
              <LongitudeDegrees>-7.635130584239959716796875</LongitudeDegrees>
            </Position>
            <AltitudeMeters>533.20001220703125</AltitudeMeters>
            <DistanceMeters>9094.2601029017</DistanceMeters>
          </Trackpoint>
          <Trackpoint>
            <Time>2019-07-26T09:03:24.000Z</Time>
            <Position>
              <LatitudeDegrees>42.97053404152393341064453125</LatitudeDegrees>
              <LongitudeDegrees>-7.6355649344623088836669921875</LongitudeDegrees>
            </Position>
            <AltitudeMeters>533</AltitudeMeters>
            <DistanceMeters>9140.1407877284</DistanceMeters>
          </Trackpoint>
          <Trackpoint>
            <Time>2019-07-26T09:03:27.000Z</Time>
            <Position>
              <LatitudeDegrees>42.9704104922711849212646484375</LatitudeDegrees>
              <LongitudeDegrees>-7.63576987199485301971435546875</LongitudeDegrees>
            </Position>
            <AltitudeMeters>532.79998779296875</AltitudeMeters>
            <DistanceMeters>9161.7662040008</DistanceMeters>
          </Trackpoint>
          <Trackpoint>
            <Time>2019-07-26T09:03:29.000Z</Time>
            <Position>
              <LatitudeDegrees>42.9703323729336261749267578125</LatitudeDegrees>
              <LongitudeDegrees>-7.63590498827397823333740234375</LongitudeDegrees>
            </Position>
            <AltitudeMeters>532.79998779296875</AltitudeMeters>
            <DistanceMeters>9175.7906146845</DistanceMeters>
          </Trackpoint>
          <Trackpoint>
            <Time>2019-07-26T09:03:31.000Z</Time>
            <Position>
              <LatitudeDegrees>42.97027411870658397674560546875</LatitudeDegrees>
              <LongitudeDegrees>-7.63606038875877857208251953125</LongitudeDegrees>
            </Position>
            <AltitudeMeters>532.79998779296875</AltitudeMeters>
            <DistanceMeters>9190.0110060957</DistanceMeters>
          </Trackpoint>
          <Trackpoint>
            <Time>2019-07-26T09:03:34.000Z</Time>
            <Position>
              <LatitudeDegrees>42.97020547091960906982421875</LatitudeDegrees>
              <LongitudeDegrees>-7.6363260112702846527099609375</LongitudeDegrees>
            </Position>
            <AltitudeMeters>532.4000244140625</AltitudeMeters>
            <DistanceMeters>9212.9532181897</DistanceMeters>
          </Trackpoint>
          <Trackpoint>
            <Time>2019-07-26T09:03:36.000Z</Time>
            <Position>
              <LatitudeDegrees>42.9701332189142704010009765625</LatitudeDegrees>
              <LongitudeDegrees>-7.63649691827595233917236328125</LongitudeDegrees>
            </Position>
            <AltitudeMeters>532</AltitudeMeters>
            <DistanceMeters>9229.028188408</DistanceMeters>
          </Trackpoint>
          <Trackpoint>
            <Time>2019-07-26T09:03:39.000Z</Time>
            <Position>
              <LatitudeDegrees>42.970012687146663665771484375</LatitudeDegrees>
              <LongitudeDegrees>-7.636746950447559356689453125</LongitudeDegrees>
            </Position>
            <AltitudeMeters>531.4000244140625</AltitudeMeters>
            <DistanceMeters>9253.4128654344</DistanceMeters>
          </Trackpoint>
          <Trackpoint>
            <Time>2019-07-26T09:03:44.000Z</Time>
            <Position>
              <LatitudeDegrees>42.9698113538324832916259765625</LatitudeDegrees>
              <LongitudeDegrees>-7.63718574307858943939208984375</LongitudeDegrees>
            </Position>
            <AltitudeMeters>530.20001220703125</AltitudeMeters>
            <DistanceMeters>9295.5933818105</DistanceMeters>
          </Trackpoint>
          <Trackpoint>
            <Time>2019-07-26T09:03:49.000Z</Time>
            <Position>
              <LatitudeDegrees>42.969643212854862213134765625</LatitudeDegrees>
              <LongitudeDegrees>-7.63768748380243778228759765625</LongitudeDegrees>
            </Position>
            <AltitudeMeters>529.20001220703125</AltitudeMeters>
            <DistanceMeters>9340.5373008643</DistanceMeters>
          </Trackpoint>
          <Trackpoint>
            <Time>2019-07-26T09:03:50.000Z</Time>
            <Position>
              <LatitudeDegrees>42.96960993669927120208740234375</LatitudeDegrees>
              <LongitudeDegrees>-7.63778270222246646881103515625</LongitudeDegrees>
            </Position>
            <AltitudeMeters>529</AltitudeMeters>
            <DistanceMeters>9349.1307847421</DistanceMeters>
          </Trackpoint>
          <Trackpoint>
            <Time>2019-07-26T09:03:56.000Z</Time>
            <Position>
              <LatitudeDegrees>42.9694455675780773162841796875</LatitudeDegrees>
              <LongitudeDegrees>-7.6383291184902191162109375</LongitudeDegrees>
            </Position>
            <AltitudeMeters>528.20001220703125</AltitudeMeters>
            <DistanceMeters>9397.2455607249</DistanceMeters>
          </Trackpoint>
          <Trackpoint>
            <Time>2019-07-26T09:04:01.000Z</Time>
            <Position>
              <LatitudeDegrees>42.96932310797274112701416015625</LatitudeDegrees>
              <LongitudeDegrees>-7.63877193443477153778076171875</LongitudeDegrees>
            </Position>
            <AltitudeMeters>527.5999755859375</AltitudeMeters>
            <DistanceMeters>9435.7990124878</DistanceMeters>
          </Trackpoint>
          <Trackpoint>
            <Time>2019-07-26T09:04:03.000Z</Time>
            <Position>
              <LatitudeDegrees>42.96927516348659992218017578125</LatitudeDegrees>
              <LongitudeDegrees>-7.6389408297836780548095703125</LongitudeDegrees>
            </Position>
            <AltitudeMeters>527.20001220703125</AltitudeMeters>
            <DistanceMeters>9450.552961883</DistanceMeters>
          </Trackpoint>
          <Trackpoint>
            <Time>2019-07-26T09:04:06.000Z</Time>
            <Position>
              <LatitudeDegrees>42.969201989471912384033203125</LatitudeDegrees>
              <LongitudeDegrees>-7.63918264769017696380615234375</LongitudeDegrees>
            </Position>
            <AltitudeMeters>527.20001220703125</AltitudeMeters>
            <DistanceMeters>9471.8648080015</DistanceMeters>
          </Trackpoint>
          <Trackpoint>
            <Time>2019-07-26T09:04:10.000Z</Time>
            <Position>
              <LatitudeDegrees>42.96912252902984619140625</LatitudeDegrees>
              <LongitudeDegrees>-7.63951842673122882843017578125</LongitudeDegrees>
            </Position>
            <AltitudeMeters>527</AltitudeMeters>
            <DistanceMeters>9500.6059515581</DistanceMeters>
          </Trackpoint>
          <Trackpoint>
            <Time>2019-07-26T09:04:16.000Z</Time>
            <Position>
              <LatitudeDegrees>42.9689828865230083465576171875</LatitudeDegrees>
              <LongitudeDegrees>-7.64003072865307331085205078125</LongitudeDegrees>
            </Position>
            <AltitudeMeters>527</AltitudeMeters>
            <DistanceMeters>9545.1297955268</DistanceMeters>
          </Trackpoint>
          <Trackpoint>
            <Time>2019-07-26T09:04:18.000Z</Time>
            <Position>
              <LatitudeDegrees>42.96893552877008914947509765625</LatitudeDegrees>
              <LongitudeDegrees>-7.64022602699697017669677734375</LongitudeDegrees>
            </Position>
            <AltitudeMeters>526.79998779296875</AltitudeMeters>
            <DistanceMeters>9561.8857836145</DistanceMeters>
          </Trackpoint>
          <Trackpoint>
            <Time>2019-07-26T09:04:22.000Z</Time>
            <Position>
              <LatitudeDegrees>42.96888590790331363677978515625</LatitudeDegrees>
              <LongitudeDegrees>-7.6406597904860973358154296875</LongitudeDegrees>
            </Position>
            <AltitudeMeters>526.5999755859375</AltitudeMeters>
            <DistanceMeters>9597.6415974486</DistanceMeters>
          </Trackpoint>
          <Trackpoint>
            <Time>2019-07-26T09:04:23.000Z</Time>
            <Position>
              <LatitudeDegrees>42.968877442181110382080078125</LatitudeDegrees>
              <LongitudeDegrees>-7.6407670788466930389404296875</LongitudeDegrees>
            </Position>
            <AltitudeMeters>526.4000244140625</AltitudeMeters>
            <DistanceMeters>9606.4304127216</DistanceMeters>
          </Trackpoint>
          <Trackpoint>
            <Time>2019-07-26T09:04:24.000Z</Time>
            <Position>
              <LatitudeDegrees>42.968867719173431396484375</LatitudeDegrees>
              <LongitudeDegrees>-7.6408723555505275726318359375</LongitudeDegrees>
            </Position>
            <AltitudeMeters>526.20001220703125</AltitudeMeters>
            <DistanceMeters>9615.0720984478</DistanceMeters>
          </Trackpoint>
          <Trackpoint>
            <Time>2019-07-26T09:04:28.000Z</Time>
            <Position>
              <LatitudeDegrees>42.96883754432201385498046875</LatitudeDegrees>
              <LongitudeDegrees>-7.6413031853735446929931640625</LongitudeDegrees>
            </Position>
            <AltitudeMeters>524.79998779296875</AltitudeMeters>
            <DistanceMeters>9650.3204773882</DistanceMeters>
          </Trackpoint>
          <Trackpoint>
            <Time>2019-07-26T09:04:30.000Z</Time>
            <Position>
              <LatitudeDegrees>42.96882413327693939208984375</LatitudeDegrees>
              <LongitudeDegrees>-7.64152170158922672271728515625</LongitudeDegrees>
            </Position>
            <AltitudeMeters>524.20001220703125</AltitudeMeters>
            <DistanceMeters>9668.1794331248</DistanceMeters>
          </Trackpoint>
          <Trackpoint>
            <Time>2019-07-26T09:04:32.000Z</Time>
            <Position>
              <LatitudeDegrees>42.9688001610338687896728515625</LatitudeDegrees>
              <LongitudeDegrees>-7.64172068797051906585693359375</LongitudeDegrees>
            </Position>
            <AltitudeMeters>523.4000244140625</AltitudeMeters>
            <DistanceMeters>9684.6033925602</DistanceMeters>
          </Trackpoint>
          <Trackpoint>
            <Time>2019-07-26T09:04:35.000Z</Time>
            <Position>
              <LatitudeDegrees>42.96875615604221820831298828125</LatitudeDegrees>
              <LongitudeDegrees>-7.64198924414813518524169921875</LongitudeDegrees>
            </Position>
            <AltitudeMeters>522.5999755859375</AltitudeMeters>
            <DistanceMeters>9707.0168084696</DistanceMeters>
          </Trackpoint>
          <Trackpoint>
            <Time>2019-07-26T09:04:37.000Z</Time>
            <Position>
              <LatitudeDegrees>42.96872816048562526702880859375</LatitudeDegrees>
              <LongitudeDegrees>-7.64215059578418731689453125</LongitudeDegrees>
            </Position>
            <AltitudeMeters>522.5999755859375</AltitudeMeters>
            <DistanceMeters>9720.5219735562</DistanceMeters>
          </Trackpoint>
          <Trackpoint>
            <Time>2019-07-26T09:04:39.000Z</Time>
            <Position>
              <LatitudeDegrees>42.9686972312629222869873046875</LatitudeDegrees>
              <LongitudeDegrees>-7.6422982849180698394775390625</LongitudeDegrees>
            </Position>
            <AltitudeMeters>522.5999755859375</AltitudeMeters>
            <DistanceMeters>9733.0330624408</DistanceMeters>
          </Trackpoint>
          <Trackpoint>
            <Time>2019-07-26T09:04:41.000Z</Time>
            <Position>
              <LatitudeDegrees>42.96867317520081996917724609375</LatitudeDegrees>
              <LongitudeDegrees>-7.64243281446397304534912109375</LongitudeDegrees>
            </Position>
            <AltitudeMeters>522.5999755859375</AltitudeMeters>
            <DistanceMeters>9744.3116566292</DistanceMeters>
          </Trackpoint>
          <Trackpoint>
            <Time>2019-07-26T09:04:42.000Z</Time>
            <Position>
              <LatitudeDegrees>42.96866328455507755279541015625</LatitudeDegrees>
              <LongitudeDegrees>-7.64249668456614017486572265625</LongitudeDegrees>
            </Position>
            <AltitudeMeters>522.5999755859375</AltitudeMeters>
            <DistanceMeters>9749.6272101463</DistanceMeters>
          </Trackpoint>
          <Trackpoint>
            <Time>2019-07-26T09:04:44.000Z</Time>
            <Position>
              <LatitudeDegrees>42.96865783631801605224609375</LatitudeDegrees>
              <LongitudeDegrees>-7.642629034817218780517578125</LongitudeDegrees>
            </Position>
            <AltitudeMeters>522.5999755859375</AltitudeMeters>
            <DistanceMeters>9760.4230980978</DistanceMeters>
          </Trackpoint>
          <Trackpoint>
            <Time>2019-07-26T09:04:46.000Z</Time>
            <Position>
              <LatitudeDegrees>42.9686549864709377288818359375</LatitudeDegrees>
              <LongitudeDegrees>-7.6427549310028553009033203125</LongitudeDegrees>
            </Position>
            <AltitudeMeters>523.4000244140625</AltitudeMeters>
            <DistanceMeters>9770.6807026293</DistanceMeters>
          </Trackpoint>
          <Trackpoint>
            <Time>2019-07-26T09:04:48.000Z</Time>
            <Position>
              <LatitudeDegrees>42.9686558246612548828125</LatitudeDegrees>
              <LongitudeDegrees>-7.64286498539149761199951171875</LongitudeDegrees>
            </Position>
            <AltitudeMeters>524.4000244140625</AltitudeMeters>
            <DistanceMeters>9779.6444975957</DistanceMeters>
          </Trackpoint>
          <Trackpoint>
            <Time>2019-07-26T09:04:51.000Z</Time>
            <Position>
              <LatitudeDegrees>42.96865724958479404449462890625</LatitudeDegrees>
              <LongitudeDegrees>-7.643037401139736175537109375</LongitudeDegrees>
            </Position>
            <AltitudeMeters>525.79998779296875</AltitudeMeters>
            <DistanceMeters>9793.6875684657</DistanceMeters>
          </Trackpoint>
          <Trackpoint>
            <Time>2019-07-26T09:04:53.000Z</Time>
            <Position>
              <LatitudeDegrees>42.9686583392322063446044921875</LatitudeDegrees>
              <LongitudeDegrees>-7.6431592740118503570556640625</LongitudeDegrees>
            </Position>
            <AltitudeMeters>526.4000244140625</AltitudeMeters>
            <DistanceMeters>9803.6136534985</DistanceMeters>
          </Trackpoint>
          <Trackpoint>
            <Time>2019-07-26T09:04:54.000Z</Time>
            <Position>
              <LatitudeDegrees>42.96865724958479404449462890625</LatitudeDegrees>
              <LongitudeDegrees>-7.64321719296276569366455078125</LongitudeDegrees>
            </Position>
            <AltitudeMeters>527</AltitudeMeters>
            <DistanceMeters>9808.3316126372</DistanceMeters>
          </Trackpoint>
          <Trackpoint>
            <Time>2019-07-26T09:04:55.000Z</Time>
            <Position>
              <LatitudeDegrees>42.96865322627127170562744140625</LatitudeDegrees>
              <LongitudeDegrees>-7.64327318407595157623291015625</LongitudeDegrees>
            </Position>
            <AltitudeMeters>527.5999755859375</AltitudeMeters>
            <DistanceMeters>9812.913634869</DistanceMeters>
          </Trackpoint>
          <Trackpoint>
            <Time>2019-07-26T09:04:56.000Z</Time>
            <Position>
              <LatitudeDegrees>42.9686455987393856048583984375</LatitudeDegrees>
              <LongitudeDegrees>-7.6433255709707736968994140625</LongitudeDegrees>
            </Position>
            <AltitudeMeters>528.20001220703125</AltitudeMeters>
            <DistanceMeters>9817.2641567028</DistanceMeters>
          </Trackpoint>
          <Trackpoint>
            <Time>2019-07-26T09:04:58.000Z</Time>
            <Position>
              <LatitudeDegrees>42.96862724237143993377685546875</LatitudeDegrees>
              <LongitudeDegrees>-7.643426991999149322509765625</LongitudeDegrees>
            </Position>
            <AltitudeMeters>529.20001220703125</AltitudeMeters>
            <DistanceMeters>9825.7731609294</DistanceMeters>
          </Trackpoint>
          <Trackpoint>
            <Time>2019-07-26T09:04:59.000Z</Time>
            <Position>
              <LatitudeDegrees>42.96861483715474605560302734375</LatitudeDegrees>
              <LongitudeDegrees>-7.6434774510562419891357421875</LongitudeDegrees>
            </Position>
            <AltitudeMeters>529.79998779296875</AltitudeMeters>
            <DistanceMeters>9830.1091290054</DistanceMeters>
          </Trackpoint>
          <Trackpoint>
            <Time>2019-07-26T09:05:00.000Z</Time>
            <Position>
              <LatitudeDegrees>42.968599162995815277099609375</LatitudeDegrees>
              <LongitudeDegrees>-7.64352656900882720947265625</LongitudeDegrees>
            </Position>
            <AltitudeMeters>530.4000244140625</AltitudeMeters>
            <DistanceMeters>9834.4720868488</DistanceMeters>
          </Trackpoint>
          <Trackpoint>
            <Time>2019-07-26T09:05:03.000Z</Time>
            <Position>
              <LatitudeDegrees>42.96855323016643524169921875</LatitudeDegrees>
              <LongitudeDegrees>-7.6436692290008068084716796875</LongitudeDegrees>
            </Position>
            <AltitudeMeters>531.5999755859375</AltitudeMeters>
            <DistanceMeters>9847.1651804006</DistanceMeters>
          </Trackpoint>
          <Trackpoint>
            <Time>2019-07-26T09:05:06.000Z</Time>
            <Position>
              <LatitudeDegrees>42.9685215465724468231201171875</LatitudeDegrees>
              <LongitudeDegrees>-7.64380191452801227569580078125</LongitudeDegrees>
            </Position>
            <AltitudeMeters>532.5999755859375</AltitudeMeters>
            <DistanceMeters>9858.5326952527</DistanceMeters>
          </Trackpoint>
          <Trackpoint>
            <Time>2019-07-26T09:05:07.000Z</Time>
            <Position>
              <LatitudeDegrees>42.96851911582052707672119140625</LatitudeDegrees>
              <LongitudeDegrees>-7.6438465900719165802001953125</LongitudeDegrees>
            </Position>
            <AltitudeMeters>532.5999755859375</AltitudeMeters>
            <DistanceMeters>9862.1810281156</DistanceMeters>
          </Trackpoint>
          <Trackpoint>
            <Time>2019-07-26T09:05:10.000Z</Time>
            <Position>
              <LatitudeDegrees>42.968546189367771148681640625</LatitudeDegrees>
              <LongitudeDegrees>-7.64399327337741851806640625</LongitudeDegrees>
            </Position>
            <AltitudeMeters>533.20001220703125</AltitudeMeters>
            <DistanceMeters>9874.5015632104</DistanceMeters>
          </Trackpoint>
          <Trackpoint>
            <Time>2019-07-26T09:05:11.000Z</Time>
            <Position>
              <LatitudeDegrees>42.96856555156409740447998046875</LatitudeDegrees>
              <LongitudeDegrees>-7.6440470851957798004150390625</LongitudeDegrees>
            </Position>
            <AltitudeMeters>533.4000244140625</AltitudeMeters>
            <DistanceMeters>9879.3859733043</DistanceMeters>
          </Trackpoint>
          <Trackpoint>
            <Time>2019-07-26T09:05:14.000Z</Time>
            <Position>
              <LatitudeDegrees>42.9686164297163486480712890625</LatitudeDegrees>
              <LongitudeDegrees>-7.644235678017139434814453125</LongitudeDegrees>
            </Position>
            <AltitudeMeters>533.79998779296875</AltitudeMeters>
            <DistanceMeters>9895.7565141843</DistanceMeters>
          </Trackpoint>
          <Trackpoint>
            <Time>2019-07-26T09:05:16.000Z</Time>
            <Position>
              <LatitudeDegrees>42.9686543159186840057373046875</LatitudeDegrees>
              <LongitudeDegrees>-7.644368112087249755859375</LongitudeDegrees>
            </Position>
            <AltitudeMeters>534</AltitudeMeters>
            <DistanceMeters>9907.3369142322</DistanceMeters>
          </Trackpoint>
          <Trackpoint>
            <Time>2019-07-26T09:05:20.000Z</Time>
            <Position>
              <LatitudeDegrees>42.96873335726559162139892578125</LatitudeDegrees>
              <LongitudeDegrees>-7.64461730606853961944580078125</LongitudeDegrees>
            </Position>
            <AltitudeMeters>534</AltitudeMeters>
            <DistanceMeters>9929.4567167186</DistanceMeters>
          </Trackpoint>
          <Trackpoint>
            <Time>2019-07-26T09:05:23.000Z</Time>
            <Position>
              <LatitudeDegrees>42.96879907138645648956298828125</LatitudeDegrees>
              <LongitudeDegrees>-7.64481268823146820068359375</LongitudeDegrees>
            </Position>
            <AltitudeMeters>534</AltitudeMeters>
            <DistanceMeters>9946.9694982322</DistanceMeters>
          </Trackpoint>
          <Trackpoint>
            <Time>2019-07-26T09:05:24.000Z</Time>
            <Position>
              <LatitudeDegrees>42.96881834976375102996826171875</LatitudeDegrees>
              <LongitudeDegrees>-7.6448737084865570068359375</LongitudeDegrees>
            </Position>
            <AltitudeMeters>534</AltitudeMeters>
            <DistanceMeters>9952.3826856537</DistanceMeters>
          </Trackpoint>
          <Trackpoint>
            <Time>2019-07-26T09:05:27.000Z</Time>
            <Position>
              <LatitudeDegrees>42.96885707415640354156494140625</LatitudeDegrees>
              <LongitudeDegrees>-7.64506816864013671875</LongitudeDegrees>
            </Position>
            <AltitudeMeters>533.79998779296875</AltitudeMeters>
            <DistanceMeters>9968.7959202695</DistanceMeters>
          </Trackpoint>
          <Trackpoint>
            <Time>2019-07-26T09:05:29.000Z</Time>
            <Position>
              <LatitudeDegrees>42.9688502848148345947265625</LatitudeDegrees>
              <LongitudeDegrees>-7.6452004350721836090087890625</LongitudeDegrees>
            </Position>
            <AltitudeMeters>533.5999755859375</AltitudeMeters>
            <DistanceMeters>9979.5943172395</DistanceMeters>
          </Trackpoint>
          <Trackpoint>
            <Time>2019-07-26T09:05:31.000Z</Time>
            <Position>
              <LatitudeDegrees>42.9688283242285251617431640625</LatitudeDegrees>
              <LongitudeDegrees>-7.6453352160751819610595703125</LongitudeDegrees>
            </Position>
            <AltitudeMeters>533.5999755859375</AltitudeMeters>
            <DistanceMeters>9990.8396358442</DistanceMeters>
          </Trackpoint>
          <Trackpoint>
            <Time>2019-07-26T09:05:33.000Z</Time>
            <Position>
              <LatitudeDegrees>42.96881231479346752166748046875</LatitudeDegrees>
              <LongitudeDegrees>-7.64546823687851428985595703125</LongitudeDegrees>
            </Position>
            <AltitudeMeters>533.4000244140625</AltitudeMeters>
            <DistanceMeters>10001.818409017</DistanceMeters>
          </Trackpoint>
          <Trackpoint>
            <Time>2019-07-26T09:05:36.000Z</Time>
            <Position>
              <LatitudeDegrees>42.96880058012902736663818359375</LatitudeDegrees>
              <LongitudeDegrees>-7.6456775330007076263427734375</LongitudeDegrees>
            </Position>
            <AltitudeMeters>533</AltitudeMeters>
            <DistanceMeters>10018.913712291</DistanceMeters>
          </Trackpoint>
          <Trackpoint>
            <Time>2019-07-26T09:05:37.000Z</Time>
            <Position>
              <LatitudeDegrees>42.9688008315861225128173828125</LatitudeDegrees>
              <LongitudeDegrees>-7.64575523324310779571533203125</LongitudeDegrees>
            </Position>
            <AltitudeMeters>532.5999755859375</AltitudeMeters>
            <DistanceMeters>10025.241378444</DistanceMeters>
          </Trackpoint>
          <Trackpoint>
            <Time>2019-07-26T09:05:39.000Z</Time>
            <Position>
              <LatitudeDegrees>42.9688129015266895294189453125</LatitudeDegrees>
              <LongitudeDegrees>-7.64591365121304988861083984375</LongitudeDegrees>
            </Position>
            <AltitudeMeters>532.4000244140625</AltitudeMeters>
            <DistanceMeters>10038.213134087</DistanceMeters>
          </Trackpoint>
          <Trackpoint>
            <Time>2019-07-26T09:05:41.000Z</Time>
            <Position>
              <LatitudeDegrees>42.9688377119600772857666015625</LatitudeDegrees>
              <LongitudeDegrees>-7.64607642777264118194580078125</LongitudeDegrees>
            </Position>
            <AltitudeMeters>532.20001220703125</AltitudeMeters>
            <DistanceMeters>10051.754690953</DistanceMeters>
          </Trackpoint>
          <Trackpoint>
            <Time>2019-07-26T09:05:43.000Z</Time>
            <Position>
              <LatitudeDegrees>42.9688648693263530731201171875</LatitudeDegrees>
              <LongitudeDegrees>-7.646245658397674560546875</LongitudeDegrees>
            </Position>
            <AltitudeMeters>532.20001220703125</AltitudeMeters>
            <DistanceMeters>10065.864798162</DistanceMeters>
          </Trackpoint>
          <Trackpoint>
            <Time>2019-07-26T09:05:45.000Z</Time>
            <Position>
              <LatitudeDegrees>42.96889630146324634552001953125</LatitudeDegrees>
              <LongitudeDegrees>-7.6464186608791351318359375</LongitudeDegrees>
            </Position>
            <AltitudeMeters>532</AltitudeMeters>
            <DistanceMeters>10080.382442054</DistanceMeters>
          </Trackpoint>
          <Trackpoint>
            <Time>2019-07-26T09:05:49.000Z</Time>
            <Position>
              <LatitudeDegrees>42.968951202929019927978515625</LatitudeDegrees>
              <LongitudeDegrees>-7.64676005579531192779541015625</LongitudeDegrees>
            </Position>
            <AltitudeMeters>532</AltitudeMeters>
            <DistanceMeters>10108.849882761</DistanceMeters>
          </Trackpoint>
          <Trackpoint>
            <Time>2019-07-26T09:05:51.000Z</Time>
            <Position>
              <LatitudeDegrees>42.968980036675930023193359375</LatitudeDegrees>
              <LongitudeDegrees>-7.6469328068196773529052734375</LongitudeDegrees>
            </Position>
            <AltitudeMeters>531.4000244140625</AltitudeMeters>
            <DistanceMeters>10123.280495807</DistanceMeters>
          </Trackpoint>
          <Trackpoint>
            <Time>2019-07-26T09:05:56.000Z</Time>
            <Position>
              <LatitudeDegrees>42.96907483600080013275146484375</LatitudeDegrees>
              <LongitudeDegrees>-7.647385932505130767822265625</LongitudeDegrees>
            </Position>
            <AltitudeMeters>530.5999755859375</AltitudeMeters>
            <DistanceMeters>10161.662819751</DistanceMeters>
          </Trackpoint>
          <Trackpoint>
            <Time>2019-07-26T09:05:57.000Z</Time>
            <Position>
              <LatitudeDegrees>42.9691002331674098968505859375</LatitudeDegrees>
              <LongitudeDegrees>-7.64747134409844875335693359375</LongitudeDegrees>
            </Position>
            <AltitudeMeters>530.4000244140625</AltitudeMeters>
            <DistanceMeters>10169.170531597</DistanceMeters>
          </Trackpoint>
          <Trackpoint>
            <Time>2019-07-26T09:05:58.000Z</Time>
            <Position>
              <LatitudeDegrees>42.9691310785710811614990234375</LatitudeDegrees>
              <LongitudeDegrees>-7.6475534029304981231689453125</LongitudeDegrees>
            </Position>
            <AltitudeMeters>530.20001220703125</AltitudeMeters>
            <DistanceMeters>10176.684254904</DistanceMeters>
          </Trackpoint>
          <Trackpoint>
            <Time>2019-07-26T09:06:00.000Z</Time>
            <Position>
              <LatitudeDegrees>42.96920827589929103851318359375</LatitudeDegrees>
              <LongitudeDegrees>-7.64771659858524799346923828125</LongitudeDegrees>
            </Position>
            <AltitudeMeters>530.20001220703125</AltitudeMeters>
            <DistanceMeters>10192.510696715</DistanceMeters>
          </Trackpoint>
          <Trackpoint>
            <Time>2019-07-26T09:06:01.000Z</Time>
            <Position>
              <LatitudeDegrees>42.96925135888159275054931640625</LatitudeDegrees>
              <LongitudeDegrees>-7.64779807068407535552978515625</LongitudeDegrees>
            </Position>
            <AltitudeMeters>530</AltitudeMeters>
            <DistanceMeters>10200.697346052</DistanceMeters>
          </Trackpoint>
          <Trackpoint>
            <Time>2019-07-26T09:06:05.000Z</Time>
            <Position>
              <LatitudeDegrees>42.96944967471063137054443359375</LatitudeDegrees>
              <LongitudeDegrees>-7.648150026798248291015625</LongitudeDegrees>
            </Position>
            <AltitudeMeters>529.20001220703125</AltitudeMeters>
            <DistanceMeters>10236.875203091</DistanceMeters>
          </Trackpoint>
          <Trackpoint>
            <Time>2019-07-26T09:06:06.000Z</Time>
            <Position>
              <LatitudeDegrees>42.96950181014835834503173828125</LatitudeDegrees>
              <LongitudeDegrees>-7.64824583195149898529052734375</LongitudeDegrees>
            </Position>
            <AltitudeMeters>529</AltitudeMeters>
            <DistanceMeters>10246.599551939</DistanceMeters>
          </Trackpoint>
          <Trackpoint>
            <Time>2019-07-26T09:06:09.000Z</Time>
            <Position>
              <LatitudeDegrees>42.969584204256534576416015625</LatitudeDegrees>
              <LongitudeDegrees>-7.648505754768848419189453125</LongitudeDegrees>
            </Position>
            <AltitudeMeters>528</AltitudeMeters>
            <DistanceMeters>10269.66932969</DistanceMeters>
          </Trackpoint>
          <Trackpoint>
            <Time>2019-07-26T09:06:11.000Z</Time>
            <Position>
              <LatitudeDegrees>42.96958428807556629180908203125</LatitudeDegrees>
              <LongitudeDegrees>-7.648695521056652069091796875</LongitudeDegrees>
            </Position>
            <AltitudeMeters>527.4000244140625</AltitudeMeters>
            <DistanceMeters>10285.124249684</DistanceMeters>
          </Trackpoint>
          <Trackpoint>
            <Time>2019-07-26T09:06:12.000Z</Time>
            <Position>
              <LatitudeDegrees>42.969575822353363037109375</LatitudeDegrees>
              <LongitudeDegrees>-7.6487976126372814178466796875</LongitudeDegrees>
            </Position>
            <AltitudeMeters>526.5999755859375</AltitudeMeters>
            <DistanceMeters>10293.491998051</DistanceMeters>
          </Trackpoint>
          <Trackpoint>
            <Time>2019-07-26T09:06:13.000Z</Time>
            <Position>
              <LatitudeDegrees>42.96956484206020832061767578125</LatitudeDegrees>
              <LongitudeDegrees>-7.64889962039887905120849609375</LongitudeDegrees>
            </Position>
            <AltitudeMeters>526</AltitudeMeters>
            <DistanceMeters>10301.888832983</DistanceMeters>
          </Trackpoint>
          <Trackpoint>
            <Time>2019-07-26T09:06:14.000Z</Time>
            <Position>
              <LatitudeDegrees>42.96955168247222900390625</LatitudeDegrees>
              <LongitudeDegrees>-7.6490001194179058074951171875</LongitudeDegrees>
            </Position>
            <AltitudeMeters>525.20001220703125</AltitudeMeters>
            <DistanceMeters>10310.203534737</DistanceMeters>
          </Trackpoint>
          <Trackpoint>
            <Time>2019-07-26T09:06:15.000Z</Time>
            <Position>
              <LatitudeDegrees>42.9695355892181396484375</LatitudeDegrees>
              <LongitudeDegrees>-7.64909684658050537109375</LongitudeDegrees>
            </Position>
            <AltitudeMeters>524.20001220703125</AltitudeMeters>
            <DistanceMeters>10318.282482227</DistanceMeters>
          </Trackpoint>
          <Trackpoint>
            <Time>2019-07-26T09:06:16.000Z</Time>
            <Position>
              <LatitudeDegrees>42.96951656229794025421142578125</LatitudeDegrees>
              <LongitudeDegrees>-7.64919030480086803436279296875</LongitudeDegrees>
            </Position>
            <AltitudeMeters>523</AltitudeMeters>
            <DistanceMeters>10326.1828549</DistanceMeters>
          </Trackpoint>
          <Trackpoint>
            <Time>2019-07-26T09:06:18.000Z</Time>
            <Position>
              <LatitudeDegrees>42.9694854654371738433837890625</LatitudeDegrees>
              <LongitudeDegrees>-7.64936666004359722137451171875</LongitudeDegrees>
            </Position>
            <AltitudeMeters>521.5999755859375</AltitudeMeters>
            <DistanceMeters>10340.956376743</DistanceMeters>
          </Trackpoint>
          <Trackpoint>
            <Time>2019-07-26T09:06:21.000Z</Time>
            <Position>
              <LatitudeDegrees>42.9694539494812488555908203125</LatitudeDegrees>
              <LongitudeDegrees>-7.64960168860852718353271484375</LongitudeDegrees>
            </Position>
            <AltitudeMeters>520.20001220703125</AltitudeMeters>
            <DistanceMeters>10360.415982486</DistanceMeters>
          </Trackpoint>
          <Trackpoint>
            <Time>2019-07-26T09:06:24.000Z</Time>
            <Position>
              <LatitudeDegrees>42.9694269597530364990234375</LatitudeDegrees>
              <LongitudeDegrees>-7.6497937180101871490478515625</LongitudeDegrees>
            </Position>
            <AltitudeMeters>519.5999755859375</AltitudeMeters>
            <DistanceMeters>10376.340826814</DistanceMeters>
          </Trackpoint>
          <Trackpoint>
            <Time>2019-07-26T09:06:27.000Z</Time>
            <Position>
              <LatitudeDegrees>42.96940525062382221221923828125</LatitudeDegrees>
              <LongitudeDegrees>-7.64996009878814220428466796875</LongitudeDegrees>
            </Position>
            <AltitudeMeters>519.4000244140625</AltitudeMeters>
            <DistanceMeters>10390.104618941</DistanceMeters>
          </Trackpoint>
          <Trackpoint>
            <Time>2019-07-26T09:06:29.000Z</Time>
            <Position>
              <LatitudeDegrees>42.96939251013100147247314453125</LatitudeDegrees>
              <LongitudeDegrees>-7.65005908906459808349609375</LongitudeDegrees>
            </Position>
            <AltitudeMeters>519.4000244140625</AltitudeMeters>
            <DistanceMeters>10398.290165179</DistanceMeters>
          </Trackpoint>
          <Trackpoint>
            <Time>2019-07-26T09:06:31.000Z</Time>
            <Position>
              <LatitudeDegrees>42.96938345767557621002197265625</LatitudeDegrees>
              <LongitudeDegrees>-7.650156319141387939453125</LongitudeDegrees>
            </Position>
            <AltitudeMeters>519.4000244140625</AltitudeMeters>
            <DistanceMeters>10406.272409186</DistanceMeters>
          </Trackpoint>
          <Trackpoint>
            <Time>2019-07-26T09:06:33.000Z</Time>
            <Position>
              <LatitudeDegrees>42.96938278712332248687744140625</LatitudeDegrees>
              <LongitudeDegrees>-7.65025145374238491058349609375</LongitudeDegrees>
            </Position>
            <AltitudeMeters>520</AltitudeMeters>
            <DistanceMeters>10414.021020563</DistanceMeters>
          </Trackpoint>
          <Trackpoint>
            <Time>2019-07-26T09:06:36.000Z</Time>
            <Position>
              <LatitudeDegrees>42.96936837024986743927001953125</LatitudeDegrees>
              <LongitudeDegrees>-7.65039947815239429473876953125</LongitudeDegrees>
            </Position>
            <AltitudeMeters>520.79998779296875</AltitudeMeters>
            <DistanceMeters>10426.18295512</DistanceMeters>
          </Trackpoint>
          <Trackpoint>
            <Time>2019-07-26T09:06:39.000Z</Time>
            <Position>
              <LatitudeDegrees>42.969352863729000091552734375</LatitudeDegrees>
              <LongitudeDegrees>-7.6505407132208347320556640625</LongitudeDegrees>
            </Position>
            <AltitudeMeters>521.4000244140625</AltitudeMeters>
            <DistanceMeters>10437.814318122</DistanceMeters>
          </Trackpoint>
          <Trackpoint>
            <Time>2019-07-26T09:06:40.000Z</Time>
            <Position>
              <LatitudeDegrees>42.969352193176746368408203125</LatitudeDegrees>
              <LongitudeDegrees>-7.65058404766023159027099609375</LongitudeDegrees>
            </Position>
            <AltitudeMeters>521.5999755859375</AltitudeMeters>
            <DistanceMeters>10441.343124636</DistanceMeters>
          </Trackpoint>
          <Trackpoint>
            <Time>2019-07-26T09:06:45.000Z</Time>
            <Position>
              <LatitudeDegrees>42.96932746656239032745361328125</LatitudeDegrees>
              <LongitudeDegrees>-7.65082393772900104522705078125</LongitudeDegrees>
            </Position>
            <AltitudeMeters>522.5999755859375</AltitudeMeters>
            <DistanceMeters>10461.073014026</DistanceMeters>
          </Trackpoint>
          <Trackpoint>
            <Time>2019-07-26T09:06:47.000Z</Time>
            <Position>
              <LatitudeDegrees>42.96931455843150615692138671875</LatitudeDegrees>
              <LongitudeDegrees>-7.65092351473867893218994140625</LongitudeDegrees>
            </Position>
            <AltitudeMeters>523</AltitudeMeters>
            <DistanceMeters>10469.309149907</DistanceMeters>
          </Trackpoint>
          <Trackpoint>
            <Time>2019-07-26T09:06:50.000Z</Time>
            <Position>
              <LatitudeDegrees>42.969299890100955963134765625</LatitudeDegrees>
              <LongitudeDegrees>-7.651072628796100616455078125</LongitudeDegrees>
            </Position>
            <AltitudeMeters>523.5999755859375</AltitudeMeters>
            <DistanceMeters>10481.562806957</DistanceMeters>
          </Trackpoint>
          <Trackpoint>
            <Time>2019-07-26T09:06:53.000Z</Time>
            <Position>
              <LatitudeDegrees>42.96928455121815204620361328125</LatitudeDegrees>
              <LongitudeDegrees>-7.65123096294701099395751953125</LongitudeDegrees>
            </Position>
            <AltitudeMeters>524.20001220703125</AltitudeMeters>
            <DistanceMeters>10494.570711185</DistanceMeters>
          </Trackpoint>
          <Trackpoint>
            <Time>2019-07-26T09:06:55.000Z</Time>
            <Position>
              <LatitudeDegrees>42.96927281655371189117431640625</LatitudeDegrees>
              <LongitudeDegrees>-7.65133925713598728179931640625</LongitudeDegrees>
            </Position>
            <AltitudeMeters>524.5999755859375</AltitudeMeters>
            <DistanceMeters>10503.48602009</DistanceMeters>
          </Trackpoint>
          <Trackpoint>
            <Time>2019-07-26T09:06:56.000Z</Time>
            <Position>
              <LatitudeDegrees>42.969267368316650390625</LatitudeDegrees>
              <LongitudeDegrees>-7.65139348804950714111328125</LongitudeDegrees>
            </Position>
            <AltitudeMeters>524.79998779296875</AltitudeMeters>
            <DistanceMeters>10507.943168077</DistanceMeters>
          </Trackpoint>
          <Trackpoint>
            <Time>2019-07-26T09:07:00.000Z</Time>
            <Position>
              <LatitudeDegrees>42.969246916472911834716796875</LatitudeDegrees>
              <LongitudeDegrees>-7.651596330106258392333984375</LongitudeDegrees>
            </Position>
            <AltitudeMeters>525.79998779296875</AltitudeMeters>
            <DistanceMeters>10524.619205801</DistanceMeters>
          </Trackpoint>
          <Trackpoint>
            <Time>2019-07-26T09:07:04.000Z</Time>
            <Position>
              <LatitudeDegrees>42.969222106039524078369140625</LatitudeDegrees>
              <LongitudeDegrees>-7.65178601257503032684326171875</LongitudeDegrees>
            </Position>
            <AltitudeMeters>526.4000244140625</AltitudeMeters>
            <DistanceMeters>10540.312141943</DistanceMeters>
          </Trackpoint>
          <Trackpoint>
            <Time>2019-07-26T09:07:06.000Z</Time>
            <Position>
              <LatitudeDegrees>42.96920525841414928436279296875</LatitudeDegrees>
              <LongitudeDegrees>-7.65188961289823055267333984375</LongitudeDegrees>
            </Position>
            <AltitudeMeters>526.79998779296875</AltitudeMeters>
            <DistanceMeters>10548.95487255</DistanceMeters>
          </Trackpoint>
          <Trackpoint>
            <Time>2019-07-26T09:07:11.000Z</Time>
            <Position>
              <LatitudeDegrees>42.969170473515987396240234375</LatitudeDegrees>
              <LongitudeDegrees>-7.65218130312860012054443359375</LongitudeDegrees>
            </Position>
            <AltitudeMeters>528</AltitudeMeters>
            <DistanceMeters>10573.023846857</DistanceMeters>
          </Trackpoint>
          <Trackpoint>
            <Time>2019-07-26T09:07:18.000Z</Time>
            <Position>
              <LatitudeDegrees>42.96912722289562225341796875</LatitudeDegrees>
              <LongitudeDegrees>-7.6526546292006969451904296875</LongitudeDegrees>
            </Position>
            <AltitudeMeters>528.79998779296875</AltitudeMeters>
            <DistanceMeters>10611.871762577</DistanceMeters>
          </Trackpoint>
          <Trackpoint>
            <Time>2019-07-26T09:07:23.000Z</Time>
            <Position>
              <LatitudeDegrees>42.96908296644687652587890625</LatitudeDegrees>
              <LongitudeDegrees>-7.65297959558665752410888671875</LongitudeDegrees>
            </Position>
            <AltitudeMeters>528.79998779296875</AltitudeMeters>
            <DistanceMeters>10638.792178343</DistanceMeters>
          </Trackpoint>
          <Trackpoint>
            <Time>2019-07-26T09:07:24.000Z</Time>
            <Position>
              <LatitudeDegrees>42.96906779520213603973388671875</LatitudeDegrees>
              <LongitudeDegrees>-7.65302133746445178985595703125</LongitudeDegrees>
            </Position>
            <AltitudeMeters>528.79998779296875</AltitudeMeters>
            <DistanceMeters>10642.588492609</DistanceMeters>
          </Trackpoint>
          <Trackpoint>
            <Time>2019-07-26T09:07:27.000Z</Time>
            <Position>
              <LatitudeDegrees>42.96901096589863300323486328125</LatitudeDegrees>
              <LongitudeDegrees>-7.6530797593295574188232421875</LongitudeDegrees>
            </Position>
            <AltitudeMeters>528.79998779296875</AltitudeMeters>
            <DistanceMeters>10650.503710254</DistanceMeters>
          </Trackpoint>
          <Trackpoint>
            <Time>2019-07-26T09:07:28.000Z</Time>
            <Position>
              <LatitudeDegrees>42.9690003208816051483154296875</LatitudeDegrees>
              <LongitudeDegrees>-7.65308470465242862701416015625</LongitudeDegrees>
            </Position>
            <AltitudeMeters>528.79998779296875</AltitudeMeters>
            <DistanceMeters>10651.757198706</DistanceMeters>
          </Trackpoint>
          <Trackpoint>
            <Time>2019-07-26T09:07:30.000Z</Time>
            <Position>
              <LatitudeDegrees>42.96899839304387569427490234375</LatitudeDegrees>
              <LongitudeDegrees>-7.65308470465242862701416015625</LongitudeDegrees>
            </Position>
            <AltitudeMeters>529</AltitudeMeters>
            <DistanceMeters>10651.947252135</DistanceMeters>
          </Trackpoint>
          <Trackpoint>
            <Time>2019-07-26T09:09:22.000Z</Time>
            <Position>
              <LatitudeDegrees>42.96902932226657867431640625</LatitudeDegrees>
              <LongitudeDegrees>-7.653079591691493988037109375</LongitudeDegrees>
            </Position>
            <AltitudeMeters>528.4000244140625</AltitudeMeters>
            <DistanceMeters>10655.41540176</DistanceMeters>
          </Trackpoint>
          <Trackpoint>
            <Time>2019-07-26T09:09:23.000Z</Time>
            <Position>
              <LatitudeDegrees>42.9690460860729217529296875</LatitudeDegrees>
              <LongitudeDegrees>-7.65309124253690242767333984375</LongitudeDegrees>
            </Position>
            <AltitudeMeters>528.4000244140625</AltitudeMeters>
            <DistanceMeters>10657.51030442</DistanceMeters>
          </Trackpoint>
          <Trackpoint>
            <Time>2019-07-26T09:09:26.000Z</Time>
            <Position>
              <LatitudeDegrees>42.96904415823519229888916015625</LatitudeDegrees>
              <LongitudeDegrees>-7.65318847261369228363037109375</LongitudeDegrees>
            </Position>
            <AltitudeMeters>528.5999755859375</AltitudeMeters>
            <DistanceMeters>10665.431224261</DistanceMeters>
          </Trackpoint>
          <Trackpoint>
            <Time>2019-07-26T09:09:30.000Z</Time>
            <Position>
              <LatitudeDegrees>42.9690351895987987518310546875</LatitudeDegrees>
              <LongitudeDegrees>-7.65339039266109466552734375</LongitudeDegrees>
            </Position>
            <AltitudeMeters>528.5999755859375</AltitudeMeters>
            <DistanceMeters>10681.906236788</DistanceMeters>
          </Trackpoint>
          <Trackpoint>
            <Time>2019-07-26T09:09:32.000Z</Time>
            <Position>
              <LatitudeDegrees>42.96902404166758060455322265625</LatitudeDegrees>
              <LongitudeDegrees>-7.65351000241935253143310546875</LongitudeDegrees>
            </Position>
            <AltitudeMeters>528.79998779296875</AltitudeMeters>
            <DistanceMeters>10691.726685679</DistanceMeters>
          </Trackpoint>
          <Trackpoint>
            <Time>2019-07-26T09:09:34.000Z</Time>
            <Position>
              <LatitudeDegrees>42.9690154083073139190673828125</LatitudeDegrees>
              <LongitudeDegrees>-7.6536343060433864593505859375</LongitudeDegrees>
            </Position>
            <AltitudeMeters>528.79998779296875</AltitudeMeters>
            <DistanceMeters>10701.894988157</DistanceMeters>
          </Trackpoint>
          <Trackpoint>
            <Time>2019-07-26T09:09:39.000Z</Time>
            <Position>
              <LatitudeDegrees>42.9689835570752620697021484375</LatitudeDegrees>
              <LongitudeDegrees>-7.6539798080921173095703125</LongitudeDegrees>
            </Position>
            <AltitudeMeters>528.5999755859375</AltitudeMeters>
            <DistanceMeters>10730.255806183</DistanceMeters>
          </Trackpoint>
          <Trackpoint>
            <Time>2019-07-26T09:09:40.000Z</Time>
            <Position>
              <LatitudeDegrees>42.96898129396140575408935546875</LatitudeDegrees>
              <LongitudeDegrees>-7.65406035818159580230712890625</LongitudeDegrees>
            </Position>
            <AltitudeMeters>528.5999755859375</AltitudeMeters>
            <DistanceMeters>10736.820219697</DistanceMeters>
          </Trackpoint>
          <Trackpoint>
            <Time>2019-07-26T09:09:43.000Z</Time>
            <Position>
              <LatitudeDegrees>42.968959920108318328857421875</LatitudeDegrees>
              <LongitudeDegrees>-7.65432388521730899810791015625</LongitudeDegrees>
            </Position>
            <AltitudeMeters>528.4000244140625</AltitudeMeters>
            <DistanceMeters>10758.413668409</DistanceMeters>
          </Trackpoint>
          <Trackpoint>
            <Time>2019-07-26T09:09:44.000Z</Time>
            <Position>
              <LatitudeDegrees>42.96894793398678302764892578125</LatitudeDegrees>
              <LongitudeDegrees>-7.65441893599927425384521484375</LongitudeDegrees>
            </Position>
            <AltitudeMeters>528.20001220703125</AltitudeMeters>
            <DistanceMeters>10766.268188271</DistanceMeters>
          </Trackpoint>
          <Trackpoint>
            <Time>2019-07-26T09:09:51.000Z</Time>
            <Position>
              <LatitudeDegrees>42.96887777745723724365234375</LatitudeDegrees>
              <LongitudeDegrees>-7.655172385275363922119140625</LongitudeDegrees>
            </Position>
            <AltitudeMeters>527</AltitudeMeters>
            <DistanceMeters>10828.125689125</DistanceMeters>
          </Trackpoint>
          <Trackpoint>
            <Time>2019-07-26T09:09:53.000Z</Time>
            <Position>
              <LatitudeDegrees>42.96884751878678798675537109375</LatitudeDegrees>
              <LongitudeDegrees>-7.6554089225828647613525390625</LongitudeDegrees>
            </Position>
            <AltitudeMeters>526.5999755859375</AltitudeMeters>
            <DistanceMeters>10847.68180831</DistanceMeters>
          </Trackpoint>
          <Trackpoint>
            <Time>2019-07-26T09:09:56.000Z</Time>
            <Position>
              <LatitudeDegrees>42.9688100516796112060546875</LatitudeDegrees>
              <LongitudeDegrees>-7.6557830907404422760009765625</LongitudeDegrees>
            </Position>
            <AltitudeMeters>526</AltitudeMeters>
            <DistanceMeters>10878.439065476</DistanceMeters>
          </Trackpoint>
          <Trackpoint>
            <Time>2019-07-26T09:09:57.000Z</Time>
            <Position>
              <LatitudeDegrees>42.9687964729964733123779296875</LatitudeDegrees>
              <LongitudeDegrees>-7.65591326169669628143310546875</LongitudeDegrees>
            </Position>
            <AltitudeMeters>525.79998779296875</AltitudeMeters>
            <DistanceMeters>10889.14718906</DistanceMeters>
          </Trackpoint>
          <Trackpoint>
            <Time>2019-07-26T09:09:58.000Z</Time>
            <Position>
              <LatitudeDegrees>42.96878398396074771881103515625</LatitudeDegrees>
              <LongitudeDegrees>-7.65604519285261631011962890625</LongitudeDegrees>
            </Position>
            <AltitudeMeters>525.4000244140625</AltitudeMeters>
            <DistanceMeters>10899.981484778</DistanceMeters>
          </Trackpoint>
          <Trackpoint>
            <Time>2019-07-26T09:10:00.000Z</Time>
            <Position>
              <LatitudeDegrees>42.96876168809831142425537109375</LatitudeDegrees>
              <LongitudeDegrees>-7.65630285255610942840576171875</LongitudeDegrees>
            </Position>
            <AltitudeMeters>524.4000244140625</AltitudeMeters>
            <DistanceMeters>10921.112272504</DistanceMeters>
          </Trackpoint>
          <Trackpoint>
            <Time>2019-07-26T09:10:03.000Z</Time>
            <Position>
              <LatitudeDegrees>42.96873268671333789825439453125</LatitudeDegrees>
              <LongitudeDegrees>-7.65665371902287006378173828125</LongitudeDegrees>
            </Position>
            <AltitudeMeters>523.4000244140625</AltitudeMeters>
            <DistanceMeters>10949.869435103</DistanceMeters>
          </Trackpoint>
          <Trackpoint>
            <Time>2019-07-26T09:10:04.000Z</Time>
            <Position>
              <LatitudeDegrees>42.96872355043888092041015625</LatitudeDegrees>
              <LongitudeDegrees>-7.6567594148218631744384765625</LongitudeDegrees>
            </Position>
            <AltitudeMeters>523</AltitudeMeters>
            <DistanceMeters>10958.537205059</DistanceMeters>
          </Trackpoint>
          <Trackpoint>
            <Time>2019-07-26T09:10:08.000Z</Time>
            <Position>
              <LatitudeDegrees>42.96868063509464263916015625</LatitudeDegrees>
              <LongitudeDegrees>-7.657129056751728057861328125</LongitudeDegrees>
            </Position>
            <AltitudeMeters>522.20001220703125</AltitudeMeters>
            <DistanceMeters>10989.018421657</DistanceMeters>
          </Trackpoint>
          <Trackpoint>
            <Time>2019-07-26T09:10:11.000Z</Time>
            <Position>
              <LatitudeDegrees>42.96864920295774936676025390625</LatitudeDegrees>
              <LongitudeDegrees>-7.6573800109326839447021484375</LongitudeDegrees>
            </Position>
            <AltitudeMeters>522.20001220703125</AltitudeMeters>
            <DistanceMeters>11009.754069462</DistanceMeters>
          </Trackpoint>
          <Trackpoint>
            <Time>2019-07-26T09:10:14.000Z</Time>
            <Position>
              <LatitudeDegrees>42.96862288378179073333740234375</LatitudeDegrees>
              <LongitudeDegrees>-7.65762032009661197662353515625</LongitudeDegrees>
            </Position>
            <AltitudeMeters>522.20001220703125</AltitudeMeters>
            <DistanceMeters>11029.54336847</DistanceMeters>
          </Trackpoint>
          <Trackpoint>
            <Time>2019-07-26T09:10:15.000Z</Time>
            <Position>
              <LatitudeDegrees>42.96861785463988780975341796875</LatitudeDegrees>
              <LongitudeDegrees>-7.6576975174248218536376953125</LongitudeDegrees>
            </Position>
            <AltitudeMeters>522.20001220703125</AltitudeMeters>
            <DistanceMeters>11035.855317239</DistanceMeters>
          </Trackpoint>
          <Trackpoint>
            <Time>2019-07-26T09:10:19.000Z</Time>
            <Position>
              <LatitudeDegrees>42.96859086491167545318603515625</LatitudeDegrees>
              <LongitudeDegrees>-7.65798711217939853668212890625</LongitudeDegrees>
            </Position>
            <AltitudeMeters>523.5999755859375</AltitudeMeters>
            <DistanceMeters>11059.631183479</DistanceMeters>
          </Trackpoint>
          <Trackpoint>
            <Time>2019-07-26T09:10:21.000Z</Time>
            <Position>
              <LatitudeDegrees>42.96858097426593303680419921875</LatitudeDegrees>
              <LongitudeDegrees>-7.65812373720109462738037109375</LongitudeDegrees>
            </Position>
            <AltitudeMeters>524</AltitudeMeters>
            <DistanceMeters>11070.812480737</DistanceMeters>
          </Trackpoint>
          <Trackpoint>
            <Time>2019-07-26T09:10:23.000Z</Time>
            <Position>
              <LatitudeDegrees>42.9685698263347148895263671875</LatitudeDegrees>
              <LongitudeDegrees>-7.65825700946152210235595703125</LongitudeDegrees>
            </Position>
            <AltitudeMeters>524.4000244140625</AltitudeMeters>
            <DistanceMeters>11081.737247113</DistanceMeters>
          </Trackpoint>
          <Trackpoint>
            <Time>2019-07-26T09:10:26.000Z</Time>
            <Position>
              <LatitudeDegrees>42.96855431981384754180908203125</LatitudeDegrees>
              <LongitudeDegrees>-7.6584468595683574676513671875</LongitudeDegrees>
            </Position>
            <AltitudeMeters>525.4000244140625</AltitudeMeters>
            <DistanceMeters>11097.294951603</DistanceMeters>
          </Trackpoint>
          <Trackpoint>
            <Time>2019-07-26T09:10:29.000Z</Time>
            <Position>
              <LatitudeDegrees>42.96853520907461643218994140625</LatitudeDegrees>
              <LongitudeDegrees>-7.65863402746617794036865234375</LongitudeDegrees>
            </Position>
            <AltitudeMeters>526.4000244140625</AltitudeMeters>
            <DistanceMeters>11112.686346128</DistanceMeters>
          </Trackpoint>
          <Trackpoint>
            <Time>2019-07-26T09:10:30.000Z</Time>
            <Position>
              <LatitudeDegrees>42.96852640807628631591796875</LatitudeDegrees>
              <LongitudeDegrees>-7.65869848430156707763671875</LongitudeDegrees>
            </Position>
            <AltitudeMeters>526.5999755859375</AltitudeMeters>
            <DistanceMeters>11118.026475472</DistanceMeters>
          </Trackpoint>
          <Trackpoint>
            <Time>2019-07-26T09:10:35.000Z</Time>
            <Position>
              <LatitudeDegrees>42.96848927624523639678955078125</LatitudeDegrees>
              <LongitudeDegrees>-7.6590470038354396820068359375</LongitudeDegrees>
            </Position>
            <AltitudeMeters>527.5999755859375</AltitudeMeters>
            <DistanceMeters>11146.710065292</DistanceMeters>
          </Trackpoint>
          <Trackpoint>
            <Time>2019-07-26T09:10:37.000Z</Time>
            <Position>
              <LatitudeDegrees>42.9684705846011638641357421875</LatitudeDegrees>
              <LongitudeDegrees>-7.65920382924377918243408203125</LongitudeDegrees>
            </Position>
            <AltitudeMeters>527.79998779296875</AltitudeMeters>
            <DistanceMeters>11159.650457001</DistanceMeters>
          </Trackpoint>
          <Trackpoint>
            <Time>2019-07-26T09:10:39.000Z</Time>
            <Position>
              <LatitudeDegrees>42.96844015829265117645263671875</LatitudeDegrees>
              <LongitudeDegrees>-7.6593668572604656219482421875</LongitudeDegrees>
            </Position>
            <AltitudeMeters>528</AltitudeMeters>
            <DistanceMeters>11173.353098334</DistanceMeters>
          </Trackpoint>
          <Trackpoint>
            <Time>2019-07-26T09:10:43.000Z</Time>
            <Position>
              <LatitudeDegrees>42.96833437867462635040283203125</LatitudeDegrees>
              <LongitudeDegrees>-7.65968662686645984649658203125</LongitudeDegrees>
            </Position>
            <AltitudeMeters>528</AltitudeMeters>
            <DistanceMeters>11201.933557654</DistanceMeters>
          </Trackpoint>
          <Trackpoint>
            <Time>2019-07-26T09:10:48.000Z</Time>
            <Position>
              <LatitudeDegrees>42.9681691713631153106689453125</LatitudeDegrees>
              <LongitudeDegrees>-7.66009734012186527252197265625</LongitudeDegrees>
            </Position>
            <AltitudeMeters>527.79998779296875</AltitudeMeters>
            <DistanceMeters>11240.104264148</DistanceMeters>
          </Trackpoint>
          <Trackpoint>
            <Time>2019-07-26T09:10:50.000Z</Time>
            <Position>
              <LatitudeDegrees>42.96809817664325237274169921875</LatitudeDegrees>
              <LongitudeDegrees>-7.6602640561759471893310546875</LongitudeDegrees>
            </Position>
            <AltitudeMeters>527.4000244140625</AltitudeMeters>
            <DistanceMeters>11255.813878695</DistanceMeters>
          </Trackpoint>
          <Trackpoint>
            <Time>2019-07-26T09:10:53.000Z</Time>
            <Position>
              <LatitudeDegrees>42.9679998569190502166748046875</LatitudeDegrees>
              <LongitudeDegrees>-7.6605218835175037384033203125</LongitudeDegrees>
            </Position>
            <AltitudeMeters>526.79998779296875</AltitudeMeters>
            <DistanceMeters>11279.492507169</DistanceMeters>
          </Trackpoint>
          <Trackpoint>
            <Time>2019-07-26T09:10:56.000Z</Time>
            <Position>
              <LatitudeDegrees>42.96789583750069141387939453125</LatitudeDegrees>
              <LongitudeDegrees>-7.6607850752770900726318359375</LongitudeDegrees>
            </Position>
            <AltitudeMeters>526.4000244140625</AltitudeMeters>
            <DistanceMeters>11303.854584346</DistanceMeters>
          </Trackpoint>
          <Trackpoint>
            <Time>2019-07-26T09:10:57.000Z</Time>
            <Position>
              <LatitudeDegrees>42.9678684286773204803466796875</LatitudeDegrees>
              <LongitudeDegrees>-7.66087635420262813568115234375</LongitudeDegrees>
            </Position>
            <AltitudeMeters>526.20001220703125</AltitudeMeters>
            <DistanceMeters>11311.890384035</DistanceMeters>
          </Trackpoint>
          <Trackpoint>
            <Time>2019-07-26T09:11:00.000Z</Time>
            <Position>
              <LatitudeDegrees>42.96778209507465362548828125</LatitudeDegrees>
              <LongitudeDegrees>-7.6611602492630481719970703125</LongitudeDegrees>
            </Position>
            <AltitudeMeters>525.79998779296875</AltitudeMeters>
            <DistanceMeters>11336.928976593</DistanceMeters>
          </Trackpoint>
          <Trackpoint>
            <Time>2019-07-26T09:11:05.000Z</Time>
            <Position>
              <LatitudeDegrees>42.96758763492107391357421875</LatitudeDegrees>
              <LongitudeDegrees>-7.66162603162229061126708984375</LongitudeDegrees>
            </Position>
            <AltitudeMeters>525.4000244140625</AltitudeMeters>
            <DistanceMeters>11380.604168385</DistanceMeters>
          </Trackpoint>
          <Trackpoint>
            <Time>2019-07-26T09:11:06.000Z</Time>
            <Position>
              <LatitudeDegrees>42.9675400257110595703125</LatitudeDegrees>
              <LongitudeDegrees>-7.66170926392078399658203125</LongitudeDegrees>
            </Position>
            <AltitudeMeters>525.20001220703125</AltitudeMeters>
            <DistanceMeters>11389.208153897</DistanceMeters>
          </Trackpoint>
          <Trackpoint>
            <Time>2019-07-26T09:11:08.000Z</Time>
            <Position>
              <LatitudeDegrees>42.967443801462650299072265625</LatitudeDegrees>
              <LongitudeDegrees>-7.661871202290058135986328125</LongitudeDegrees>
            </Position>
            <AltitudeMeters>524.4000244140625</AltitudeMeters>
            <DistanceMeters>11406.198016275</DistanceMeters>
          </Trackpoint>
          <Trackpoint>
            <Time>2019-07-26T09:11:09.000Z</Time>
            <Position>
              <LatitudeDegrees>42.9673903249204158782958984375</LatitudeDegrees>
              <LongitudeDegrees>-7.6619447953999042510986328125</LongitudeDegrees>
            </Position>
            <AltitudeMeters>524.20001220703125</AltitudeMeters>
            <DistanceMeters>11414.645244463</DistanceMeters>
          </Trackpoint>
          <Trackpoint>
            <Time>2019-07-26T09:11:11.000Z</Time>
            <Position>
              <LatitudeDegrees>42.9672863893210887908935546875</LatitudeDegrees>
              <LongitudeDegrees>-7.66208267770707607269287109375</LongitudeDegrees>
            </Position>
            <AltitudeMeters>524.20001220703125</AltitudeMeters>
            <DistanceMeters>11430.767612479</DistanceMeters>
          </Trackpoint>
          <Trackpoint>
            <Time>2019-07-26T09:11:16.000Z</Time>
            <Position>
              <LatitudeDegrees>42.96706435270607471466064453125</LatitudeDegrees>
              <LongitudeDegrees>-7.66236615367233753204345703125</LongitudeDegrees>
            </Position>
            <AltitudeMeters>524</AltitudeMeters>
            <DistanceMeters>11464.58724498</DistanceMeters>
          </Trackpoint>
          <Trackpoint>
            <Time>2019-07-26T09:11:20.000Z</Time>
            <Position>
              <LatitudeDegrees>42.96691716648638248443603515625</LatitudeDegrees>
              <LongitudeDegrees>-7.66256497241556644439697265625</LongitudeDegrees>
            </Position>
            <AltitudeMeters>524.4000244140625</AltitudeMeters>
            <DistanceMeters>11487.621375559</DistanceMeters>
          </Trackpoint>
          <Trackpoint>
            <Time>2019-07-26T09:11:23.000Z</Time>
            <Position>
              <LatitudeDegrees>42.9668176732957363128662109375</LatitudeDegrees>
              <LongitudeDegrees>-7.6626969873905181884765625</LongitudeDegrees>
            </Position>
            <AltitudeMeters>524.79998779296875</AltitudeMeters>
            <DistanceMeters>11503.056124561</DistanceMeters>
          </Trackpoint>
          <Trackpoint>
            <Time>2019-07-26T09:11:25.000Z</Time>
            <Position>
              <LatitudeDegrees>42.966753132641315460205078125</LatitudeDegrees>
              <LongitudeDegrees>-7.6627853326499462127685546875</LongitudeDegrees>
            </Position>
            <AltitudeMeters>525.4000244140625</AltitudeMeters>
            <DistanceMeters>11513.223538939</DistanceMeters>
          </Trackpoint>
          <Trackpoint>
            <Time>2019-07-26T09:11:28.000Z</Time>
            <Position>
              <LatitudeDegrees>42.9666560702025890350341796875</LatitudeDegrees>
              <LongitudeDegrees>-7.66291684471070766448974609375</LongitudeDegrees>
            </Position>
            <AltitudeMeters>526.4000244140625</AltitudeMeters>
            <DistanceMeters>11528.436422597</DistanceMeters>
          </Trackpoint>
          <Trackpoint>
            <Time>2019-07-26T09:11:29.000Z</Time>
            <Position>
              <LatitudeDegrees>42.96662271022796630859375</LatitudeDegrees>
              <LongitudeDegrees>-7.6629663817584514617919921875</LongitudeDegrees>
            </Position>
            <AltitudeMeters>526.5999755859375</AltitudeMeters>
            <DistanceMeters>11533.918401656</DistanceMeters>
          </Trackpoint>
          <Trackpoint>
            <Time>2019-07-26T09:11:31.000Z</Time>
            <Position>
              <LatitudeDegrees>42.96655423007905483245849609375</LatitudeDegrees>
              <LongitudeDegrees>-7.66306688077747821807861328125</LongitudeDegrees>
            </Position>
            <AltitudeMeters>527</AltitudeMeters>
            <DistanceMeters>11545.102525175</DistanceMeters>
          </Trackpoint>
          <Trackpoint>
            <Time>2019-07-26T09:11:34.000Z</Time>
            <Position>
              <LatitudeDegrees>42.96645264141261577606201171875</LatitudeDegrees>
              <LongitudeDegrees>-7.66319923102855682373046875</LongitudeDegrees>
            </Position>
            <AltitudeMeters>527.79998779296875</AltitudeMeters>
            <DistanceMeters>11560.724523958</DistanceMeters>
          </Trackpoint>
          <Trackpoint>
            <Time>2019-07-26T09:11:37.000Z</Time>
            <Position>
              <LatitudeDegrees>42.96635038219392299652099609375</LatitudeDegrees>
              <LongitudeDegrees>-7.66333325766026973724365234375</LongitudeDegrees>
            </Position>
            <AltitudeMeters>528.79998779296875</AltitudeMeters>
            <DistanceMeters>11576.494950884</DistanceMeters>
          </Trackpoint>
          <Trackpoint>
            <Time>2019-07-26T09:11:38.000Z</Time>
            <Position>
              <LatitudeDegrees>42.9663171060383319854736328125</LatitudeDegrees>
              <LongitudeDegrees>-7.6633794419467449188232421875</LongitudeDegrees>
            </Position>
            <AltitudeMeters>529</AltitudeMeters>
            <DistanceMeters>11581.773853791</DistanceMeters>
          </Trackpoint>
          <Trackpoint>
            <Time>2019-07-26T09:11:44.000Z</Time>
            <Position>
              <LatitudeDegrees>42.96612742356956005096435546875</LatitudeDegrees>
              <LongitudeDegrees>-7.66363701783120632171630859375</LongitudeDegrees>
            </Position>
            <AltitudeMeters>530</AltitudeMeters>
            <DistanceMeters>11611.536487728</DistanceMeters>
          </Trackpoint>
          <Trackpoint>
            <Time>2019-07-26T09:11:45.000Z</Time>
            <Position>
              <LatitudeDegrees>42.96609372831881046295166015625</LatitudeDegrees>
              <LongitudeDegrees>-7.6636728085577487945556640625</LongitudeDegrees>
            </Position>
            <AltitudeMeters>530.20001220703125</AltitudeMeters>
            <DistanceMeters>11616.285922532</DistanceMeters>
          </Trackpoint>
          <Trackpoint>
            <Time>2019-07-26T09:11:49.000Z</Time>
            <Position>
              <LatitudeDegrees>42.96597688458859920501708984375</LatitudeDegrees>
              <LongitudeDegrees>-7.66380163840949535369873046875</LongitudeDegrees>
            </Position>
            <AltitudeMeters>531</AltitudeMeters>
            <DistanceMeters>11632.99603994</DistanceMeters>
          </Trackpoint>
          <Trackpoint>
            <Time>2019-07-26T09:11:51.000Z</Time>
            <Position>
              <LatitudeDegrees>42.96592357568442821502685546875</LatitudeDegrees>
              <LongitudeDegrees>-7.66386969946324825286865234375</LongitudeDegrees>
            </Position>
            <AltitudeMeters>531.4000244140625</AltitudeMeters>
            <DistanceMeters>11641.116238103</DistanceMeters>
          </Trackpoint>
          <Trackpoint>
            <Time>2019-07-26T09:11:57.000Z</Time>
            <Position>
              <LatitudeDegrees>42.96577035449445247650146484375</LatitudeDegrees>
              <LongitudeDegrees>-7.664136327803134918212890625</LongitudeDegrees>
            </Position>
            <AltitudeMeters>532</AltitudeMeters>
            <DistanceMeters>11668.727999259</DistanceMeters>
          </Trackpoint>
          <Trackpoint>
            <Time>2019-07-26T09:12:03.000Z</Time>
            <Position>
              <LatitudeDegrees>42.96560757793486118316650390625</LatitudeDegrees>
              <LongitudeDegrees>-7.6645026169717311859130859375</LongitudeDegrees>
            </Position>
            <AltitudeMeters>533</AltitudeMeters>
            <DistanceMeters>11703.631403292</DistanceMeters>
          </Trackpoint>
          <Trackpoint>
            <Time>2019-07-26T09:12:06.000Z</Time>
            <Position>
              <LatitudeDegrees>42.965538762509822845458984375</LatitudeDegrees>
              <LongitudeDegrees>-7.6646871864795684814453125</LongitudeDegrees>
            </Position>
            <AltitudeMeters>533.5999755859375</AltitudeMeters>
            <DistanceMeters>11720.50286054</DistanceMeters>
          </Trackpoint>
          <Trackpoint>
            <Time>2019-07-26T09:12:08.000Z</Time>
            <Position>
              <LatitudeDegrees>42.965490818023681640625</LatitudeDegrees>
              <LongitudeDegrees>-7.66480377875268459320068359375</LongitudeDegrees>
            </Position>
            <AltitudeMeters>534</AltitudeMeters>
            <DistanceMeters>11731.395757513</DistanceMeters>
          </Trackpoint>
          <Trackpoint>
            <Time>2019-07-26T09:12:13.000Z</Time>
            <Position>
              <LatitudeDegrees>42.96537757851183414459228515625</LatitudeDegrees>
              <LongitudeDegrees>-7.66509152948856353759765625</LongitudeDegrees>
            </Position>
            <AltitudeMeters>535.20001220703125</AltitudeMeters>
            <DistanceMeters>11758.006291791</DistanceMeters>
          </Trackpoint>
          <Trackpoint>
            <Time>2019-07-26T09:12:19.000Z</Time>
            <Position>
              <LatitudeDegrees>42.96523625962436199188232421875</LatitudeDegrees>
              <LongitudeDegrees>-7.6654370315372943878173828125</LongitudeDegrees>
            </Position>
            <AltitudeMeters>536.20001220703125</AltitudeMeters>
            <DistanceMeters>11790.244025861</DistanceMeters>
          </Trackpoint>
          <Trackpoint>
            <Time>2019-07-26T09:12:21.000Z</Time>
            <Position>
              <LatitudeDegrees>42.96519418247044086456298828125</LatitudeDegrees>
              <LongitudeDegrees>-7.66554884612560272216796875</LongitudeDegrees>
            </Position>
            <AltitudeMeters>536.4000244140625</AltitudeMeters>
            <DistanceMeters>11800.484890464</DistanceMeters>
          </Trackpoint>
          <Trackpoint>
            <Time>2019-07-26T09:12:24.000Z</Time>
            <Position>
              <LatitudeDegrees>42.96513450331985950469970703125</LatitudeDegrees>
              <LongitudeDegrees>-7.6657106168568134307861328125</LongitudeDegrees>
            </Position>
            <AltitudeMeters>536.79998779296875</AltitudeMeters>
            <DistanceMeters>11815.240675879</DistanceMeters>
          </Trackpoint>
          <Trackpoint>
            <Time>2019-07-26T09:12:27.000Z</Time>
            <Position>
              <LatitudeDegrees>42.96506778337061405181884765625</LatitudeDegrees>
              <LongitudeDegrees>-7.66586844809353351593017578125</LongitudeDegrees>
            </Position>
            <AltitudeMeters>537.4000244140625</AltitudeMeters>
            <DistanceMeters>11830.08645224</DistanceMeters>
          </Trackpoint>
          <Trackpoint>
            <Time>2019-07-26T09:12:29.000Z</Time>
            <Position>
              <LatitudeDegrees>42.9650286398828029632568359375</LatitudeDegrees>
              <LongitudeDegrees>-7.665981352329254150390625</LongitudeDegrees>
            </Position>
            <AltitudeMeters>537.79998779296875</AltitudeMeters>
            <DistanceMeters>11840.261856729</DistanceMeters>
          </Trackpoint>
          <Trackpoint>
            <Time>2019-07-26T09:12:31.000Z</Time>
            <Position>
              <LatitudeDegrees>42.9649887420237064361572265625</LatitudeDegrees>
              <LongitudeDegrees>-7.66609140671789646148681640625</LongitudeDegrees>
            </Position>
            <AltitudeMeters>538.79998779296875</AltitudeMeters>
            <DistanceMeters>11850.264970098</DistanceMeters>
          </Trackpoint>
          <Trackpoint>
            <Time>2019-07-26T09:12:36.000Z</Time>
            <Position>
              <LatitudeDegrees>42.96488539315760135650634765625</LatitudeDegrees>
              <LongitudeDegrees>-7.6663597114384174346923828125</LongitudeDegrees>
            </Position>
            <AltitudeMeters>539.79998779296875</AltitudeMeters>
            <DistanceMeters>11874.960217469</DistanceMeters>
          </Trackpoint>
          <Trackpoint>
            <Time>2019-07-26T09:12:39.000Z</Time>
            <Position>
              <LatitudeDegrees>42.9648237861692905426025390625</LatitudeDegrees>
              <LongitudeDegrees>-7.6665270142257213592529296875</LongitudeDegrees>
            </Position>
            <AltitudeMeters>540.4000244140625</AltitudeMeters>
            <DistanceMeters>11890.214299212</DistanceMeters>
          </Trackpoint>
          <Trackpoint>
            <Time>2019-07-26T09:12:43.000Z</Time>
            <Position>
              <LatitudeDegrees>42.9647376202046871185302734375</LatitudeDegrees>
              <LongitudeDegrees>-7.666740752756595611572265625</LongitudeDegrees>
            </Position>
            <AltitudeMeters>541</AltitudeMeters>
            <DistanceMeters>11910.089653903</DistanceMeters>
          </Trackpoint>
          <Trackpoint>
            <Time>2019-07-26T09:12:48.000Z</Time>
            <Position>
              <LatitudeDegrees>42.96462588943541049957275390625</LatitudeDegrees>
              <LongitudeDegrees>-7.66700855456292629241943359375</LongitudeDegrees>
            </Position>
            <AltitudeMeters>542</AltitudeMeters>
            <DistanceMeters>11935.197574899</DistanceMeters>
          </Trackpoint>
          <Trackpoint>
            <Time>2019-07-26T09:12:54.000Z</Time>
            <Position>
              <LatitudeDegrees>42.96450787223875522613525390625</LatitudeDegrees>
              <LongitudeDegrees>-7.66731784678995609283447265625</LongitudeDegrees>
            </Position>
            <AltitudeMeters>543</AltitudeMeters>
            <DistanceMeters>11963.607860939</DistanceMeters>
          </Trackpoint>
          <Trackpoint>
            <Time>2019-07-26T09:12:56.000Z</Time>
            <Position>
              <LatitudeDegrees>42.9644667170941829681396484375</LatitudeDegrees>
              <LongitudeDegrees>-7.66741390340030193328857421875</LongitudeDegrees>
            </Position>
            <AltitudeMeters>543.5999755859375</AltitudeMeters>
            <DistanceMeters>11972.673827836</DistanceMeters>
          </Trackpoint>
          <Trackpoint>
            <Time>2019-07-26T09:12:58.000Z</Time>
            <Position>
              <LatitudeDegrees>42.96442355029284954071044921875</LatitudeDegrees>
              <LongitudeDegrees>-7.667505852878093719482421875</LongitudeDegrees>
            </Position>
            <AltitudeMeters>544.20001220703125</AltitudeMeters>
            <DistanceMeters>11981.571901238</DistanceMeters>
          </Trackpoint>
          <Trackpoint>
            <Time>2019-07-26T09:13:01.000Z</Time>
            <Position>
              <LatitudeDegrees>42.96436822973191738128662109375</LatitudeDegrees>
              <LongitudeDegrees>-7.6676458306610584259033203125</LongitudeDegrees>
            </Position>
            <AltitudeMeters>545.4000244140625</AltitudeMeters>
            <DistanceMeters>11994.529378281</DistanceMeters>
          </Trackpoint>
          <Trackpoint>
            <Time>2019-07-26T09:13:04.000Z</Time>
            <Position>
              <LatitudeDegrees>42.96431190334260463714599609375</LatitudeDegrees>
              <LongitudeDegrees>-7.66778270713984966278076171875</LongitudeDegrees>
            </Position>
            <AltitudeMeters>546.20001220703125</AltitudeMeters>
            <DistanceMeters>12007.319564553</DistanceMeters>
          </Trackpoint>
          <Trackpoint>
            <Time>2019-07-26T09:13:05.000Z</Time>
            <Position>
              <LatitudeDegrees>42.9642957262694835662841796875</LatitudeDegrees>
              <LongitudeDegrees>-7.66782998107373714447021484375</LongitudeDegrees>
            </Position>
            <AltitudeMeters>546.5999755859375</AltitudeMeters>
            <DistanceMeters>12011.570350711</DistanceMeters>
          </Trackpoint>
          <Trackpoint>
            <Time>2019-07-26T09:13:10.000Z</Time>
            <Position>
              <LatitudeDegrees>42.9642075486481189727783203125</LatitudeDegrees>
              <LongitudeDegrees>-7.668069787323474884033203125</LongitudeDegrees>
            </Position>
            <AltitudeMeters>547.5999755859375</AltitudeMeters>
            <DistanceMeters>12033.429386942</DistanceMeters>
          </Trackpoint>
          <Trackpoint>
            <Time>2019-07-26T09:13:14.000Z</Time>
            <Position>
              <LatitudeDegrees>42.96413571573793888092041015625</LatitudeDegrees>
              <LongitudeDegrees>-7.66826600767672061920166015625</LongitudeDegrees>
            </Position>
            <AltitudeMeters>548.5999755859375</AltitudeMeters>
            <DistanceMeters>12051.299463141</DistanceMeters>
          </Trackpoint>
          <Trackpoint>
            <Time>2019-07-26T09:13:15.000Z</Time>
            <Position>
              <LatitudeDegrees>42.9641173593699932098388671875</LatitudeDegrees>
              <LongitudeDegrees>-7.66831411980092525482177734375</LongitudeDegrees>
            </Position>
            <AltitudeMeters>548.79998779296875</AltitudeMeters>
            <DistanceMeters>12055.719993135</DistanceMeters>
          </Trackpoint>
          <Trackpoint>
            <Time>2019-07-26T09:13:22.000Z</Time>
            <Position>
              <LatitudeDegrees>42.9639822430908679962158203125</LatitudeDegrees>
              <LongitudeDegrees>-7.66864252276718616485595703125</LongitudeDegrees>
            </Position>
            <AltitudeMeters>550</AltitudeMeters>
            <DistanceMeters>12086.405824577</DistanceMeters>
          </Trackpoint>
          <Trackpoint>
            <Time>2019-07-26T09:13:27.000Z</Time>
            <Position>
              <LatitudeDegrees>42.963880486786365509033203125</LatitudeDegrees>
              <LongitudeDegrees>-7.6688933931291103363037109375</LongitudeDegrees>
            </Position>
            <AltitudeMeters>551</AltitudeMeters>
            <DistanceMeters>12109.768099304</DistanceMeters>
          </Trackpoint>
          <Trackpoint>
            <Time>2019-07-26T09:13:31.000Z</Time>
            <Position>
              <LatitudeDegrees>42.96380437910556793212890625</LatitudeDegrees>
              <LongitudeDegrees>-7.6690945588052272796630859375</LongitudeDegrees>
            </Position>
            <AltitudeMeters>551.79998779296875</AltitudeMeters>
            <DistanceMeters>12128.213075859</DistanceMeters>
          </Trackpoint>
          <Trackpoint>
            <Time>2019-07-26T09:13:33.000Z</Time>
            <Position>
              <LatitudeDegrees>42.96376775018870830535888671875</LatitudeDegrees>
              <LongitudeDegrees>-7.66919396817684173583984375</LongitudeDegrees>
            </Position>
            <AltitudeMeters>552.20001220703125</AltitudeMeters>
            <DistanceMeters>12137.278544722</DistanceMeters>
          </Trackpoint>
          <Trackpoint>
            <Time>2019-07-26T09:13:40.000Z</Time>
            <Position>
              <LatitudeDegrees>42.96362861059606075286865234375</LatitudeDegrees>
              <LongitudeDegrees>-7.66954408027231693267822265625</LongitudeDegrees>
            </Position>
            <AltitudeMeters>553.20001220703125</AltitudeMeters>
            <DistanceMeters>12169.728602414</DistanceMeters>
          </Trackpoint>
          <Trackpoint>
            <Time>2019-07-26T09:13:41.000Z</Time>
            <Position>
              <LatitudeDegrees>42.96360832639038562774658203125</LatitudeDegrees>
              <LongitudeDegrees>-7.6695956289768218994140625</LongitudeDegrees>
            </Position>
            <AltitudeMeters>553.20001220703125</AltitudeMeters>
            <DistanceMeters>12174.495118157</DistanceMeters>
          </Trackpoint>
          <Trackpoint>
            <Time>2019-07-26T09:13:48.000Z</Time>
            <Position>
              <LatitudeDegrees>42.96347673051059246063232421875</LatitudeDegrees>
              <LongitudeDegrees>-7.669961415231227874755859375</LongitudeDegrees>
            </Position>
            <AltitudeMeters>554.20001220703125</AltitudeMeters>
            <DistanceMeters>12207.693867385</DistanceMeters>
          </Trackpoint>
          <Trackpoint>
            <Time>2019-07-26T09:13:49.000Z</Time>
            <Position>
              <LatitudeDegrees>42.96345694921910762786865234375</LatitudeDegrees>
              <LongitudeDegrees>-7.67001011408865451812744140625</LongitudeDegrees>
            </Position>
            <AltitudeMeters>554.5999755859375</AltitudeMeters>
            <DistanceMeters>12212.231330806</DistanceMeters>
          </Trackpoint>
          <Trackpoint>
            <Time>2019-07-26T09:13:55.000Z</Time>
            <Position>
              <LatitudeDegrees>42.9633381776511669158935546875</LatitudeDegrees>
              <LongitudeDegrees>-7.6703119464218616485595703125</LongitudeDegrees>
            </Position>
            <AltitudeMeters>555.4000244140625</AltitudeMeters>
            <DistanceMeters>12240.144285786</DistanceMeters>
          </Trackpoint>
          <Trackpoint>
            <Time>2019-07-26T09:13:56.000Z</Time>
            <Position>
              <LatitudeDegrees>42.96332116238772869110107421875</LatitudeDegrees>
              <LongitudeDegrees>-7.6703645847737789154052734375</LongitudeDegrees>
            </Position>
            <AltitudeMeters>555.5999755859375</AltitudeMeters>
            <DistanceMeters>12244.830557856</DistanceMeters>
          </Trackpoint>
          <Trackpoint>
            <Time>2019-07-26T09:13:57.000Z</Time>
            <Position>
              <LatitudeDegrees>42.96330154873430728912353515625</LatitudeDegrees>
              <LongitudeDegrees>-7.67041529528796672821044921875</LongitudeDegrees>
            </Position>
            <AltitudeMeters>555.5999755859375</AltitudeMeters>
            <DistanceMeters>12249.502355665</DistanceMeters>
          </Trackpoint>
          <Trackpoint>
            <Time>2019-07-26T09:14:02.000Z</Time>
            <Position>
              <LatitudeDegrees>42.96320834197103977203369140625</LatitudeDegrees>
              <LongitudeDegrees>-7.670655436813831329345703125</LongitudeDegrees>
            </Position>
            <AltitudeMeters>556.5999755859375</AltitudeMeters>
            <DistanceMeters>12271.642764418</DistanceMeters>
          </Trackpoint>
          <Trackpoint>
            <Time>2019-07-26T09:14:07.000Z</Time>
            <Position>
              <LatitudeDegrees>42.963118068873882293701171875</LatitudeDegrees>
              <LongitudeDegrees>-7.670890130102634429931640625</LongitudeDegrees>
            </Position>
            <AltitudeMeters>557.79998779296875</AltitudeMeters>
            <DistanceMeters>12293.238094884</DistanceMeters>
          </Trackpoint>
          <Trackpoint>
            <Time>2019-07-26T09:14:12.000Z</Time>
            <Position>
              <LatitudeDegrees>42.96302829869091510772705078125</LatitudeDegrees>
              <LongitudeDegrees>-7.67111250199377536773681640625</LongitudeDegrees>
            </Position>
            <AltitudeMeters>558.79998779296875</AltitudeMeters>
            <DistanceMeters>12313.923382946</DistanceMeters>
          </Trackpoint>
          <Trackpoint>
            <Time>2019-07-26T09:14:14.000Z</Time>
            <Position>
              <LatitudeDegrees>42.96299795620143413543701171875</LatitudeDegrees>
              <LongitudeDegrees>-7.67119850032031536102294921875</LongitudeDegrees>
            </Position>
            <AltitudeMeters>559.20001220703125</AltitudeMeters>
            <DistanceMeters>12321.699332526</DistanceMeters>
          </Trackpoint>
          <Trackpoint>
            <Time>2019-07-26T09:14:16.000Z</Time>
            <Position>
              <LatitudeDegrees>42.96296409331262111663818359375</LatitudeDegrees>
              <LongitudeDegrees>-7.67128701321780681610107421875</LongitudeDegrees>
            </Position>
            <AltitudeMeters>559.79998779296875</AltitudeMeters>
            <DistanceMeters>12329.834529528</DistanceMeters>
          </Trackpoint>
          <Trackpoint>
            <Time>2019-07-26T09:14:22.000Z</Time>
            <Position>
              <LatitudeDegrees>42.96286116354167461395263671875</LatitudeDegrees>
              <LongitudeDegrees>-7.6715424098074436187744140625</LongitudeDegrees>
            </Position>
            <AltitudeMeters>561</AltitudeMeters>
            <DistanceMeters>12353.582464054</DistanceMeters>
          </Trackpoint>
          <Trackpoint>
            <Time>2019-07-26T09:14:28.000Z</Time>
            <Position>
              <LatitudeDegrees>42.96276393346488475799560546875</LatitudeDegrees>
              <LongitudeDegrees>-7.671787329018115997314453125</LongitudeDegrees>
            </Position>
            <AltitudeMeters>562</AltitudeMeters>
            <DistanceMeters>12376.277342335</DistanceMeters>
          </Trackpoint>
          <Trackpoint>
            <Time>2019-07-26T09:14:31.000Z</Time>
            <Position>
              <LatitudeDegrees>42.96271095983684062957763671875</LatitudeDegrees>
              <LongitudeDegrees>-7.6719076931476593017578125</LongitudeDegrees>
            </Position>
            <AltitudeMeters>562.5999755859375</AltitudeMeters>
            <DistanceMeters>12387.717311649</DistanceMeters>
          </Trackpoint>
          <Trackpoint>
            <Time>2019-07-26T09:14:33.000Z</Time>
            <Position>
              <LatitudeDegrees>42.9626780189573764801025390625</LatitudeDegrees>
              <LongitudeDegrees>-7.67199059017002582550048828125</LongitudeDegrees>
            </Position>
            <AltitudeMeters>563</AltitudeMeters>
            <DistanceMeters>12395.3997969</DistanceMeters>
          </Trackpoint>
          <Trackpoint>
            <Time>2019-07-26T09:14:38.000Z</Time>
            <Position>
              <LatitudeDegrees>42.96261205337941646575927734375</LatitudeDegrees>
              <LongitudeDegrees>-7.67221153713762760162353515625</LongitudeDegrees>
            </Position>
            <AltitudeMeters>564</AltitudeMeters>
            <DistanceMeters>12414.83595439</DistanceMeters>
          </Trackpoint>
          <Trackpoint>
            <Time>2019-07-26T09:14:39.000Z</Time>
            <Position>
              <LatitudeDegrees>42.96259939670562744140625</LatitudeDegrees>
              <LongitudeDegrees>-7.672257386147975921630859375</LongitudeDegrees>
            </Position>
            <AltitudeMeters>564.20001220703125</AltitudeMeters>
            <DistanceMeters>12418.827076393</DistanceMeters>
          </Trackpoint>
          <Trackpoint>
            <Time>2019-07-26T09:14:46.000Z</Time>
            <Position>
              <LatitudeDegrees>42.96253879554569721221923828125</LatitudeDegrees>
              <LongitudeDegrees>-7.67256525345146656036376953125</LongitudeDegrees>
            </Position>
            <AltitudeMeters>565.20001220703125</AltitudeMeters>
            <DistanceMeters>12444.794419313</DistanceMeters>
          </Trackpoint>
          <Trackpoint>
            <Time>2019-07-26T09:14:47.000Z</Time>
            <Position>
              <LatitudeDegrees>42.962529323995113372802734375</LatitudeDegrees>
              <LongitudeDegrees>-7.67260749824345111846923828125</LongitudeDegrees>
            </Position>
            <AltitudeMeters>565.4000244140625</AltitudeMeters>
            <DistanceMeters>12448.392909221</DistanceMeters>
          </Trackpoint>
          <Trackpoint>
            <Time>2019-07-26T09:14:50.000Z</Time>
            <Position>
              <LatitudeDegrees>42.96250342391431331634521484375</LatitudeDegrees>
              <LongitudeDegrees>-7.6727400161325931549072265625</LongitudeDegrees>
            </Position>
            <AltitudeMeters>566.20001220703125</AltitudeMeters>
            <DistanceMeters>12459.56451101</DistanceMeters>
          </Trackpoint>
          <Trackpoint>
            <Time>2019-07-26T09:14:54.000Z</Time>
            <Position>
              <LatitudeDegrees>42.96246503479778766632080078125</LatitudeDegrees>
              <LongitudeDegrees>-7.67291746102273464202880859375</LongitudeDegrees>
            </Position>
            <AltitudeMeters>567.4000244140625</AltitudeMeters>
            <DistanceMeters>12474.635759893</DistanceMeters>
          </Trackpoint>
          <Trackpoint>
            <Time>2019-07-26T09:14:56.000Z</Time>
            <Position>
              <LatitudeDegrees>42.9624520428478717803955078125</LatitudeDegrees>
              <LongitudeDegrees>-7.6730085723102092742919921875</LongitudeDegrees>
            </Position>
            <AltitudeMeters>568</AltitudeMeters>
            <DistanceMeters>12482.196805718</DistanceMeters>
          </Trackpoint>
          <Trackpoint>
            <Time>2019-07-26T09:14:59.000Z</Time>
            <Position>
              <LatitudeDegrees>42.9624336026608943939208984375</LatitudeDegrees>
              <LongitudeDegrees>-7.67313891090452671051025390625</LongitudeDegrees>
            </Position>
            <AltitudeMeters>568.4000244140625</AltitudeMeters>
            <DistanceMeters>12493.009827025</DistanceMeters>
          </Trackpoint>
          <Trackpoint>
            <Time>2019-07-26T09:15:03.000Z</Time>
            <Position>
              <LatitudeDegrees>42.96240736730396747589111328125</LatitudeDegrees>
              <LongitudeDegrees>-7.67331224866211414337158203125</LongitudeDegrees>
            </Position>
            <AltitudeMeters>569.5999755859375</AltitudeMeters>
            <DistanceMeters>12507.426979989</DistanceMeters>
          </Trackpoint>
          <Trackpoint>
            <Time>2019-07-26T09:15:05.000Z</Time>
            <Position>
              <LatitudeDegrees>42.96239462681114673614501953125</LatitudeDegrees>
              <LongitudeDegrees>-7.6733968220651149749755859375</LongitudeDegrees>
            </Position>
            <AltitudeMeters>570</AltitudeMeters>
            <DistanceMeters>12514.46024088</DistanceMeters>
          </Trackpoint>
          <Trackpoint>
            <Time>2019-07-26T09:15:09.000Z</Time>
            <Position>
              <LatitudeDegrees>42.9623678885400295257568359375</LatitudeDegrees>
              <LongitudeDegrees>-7.6735661365091800689697265625</LongitudeDegrees>
            </Position>
            <AltitudeMeters>570.79998779296875</AltitudeMeters>
            <DistanceMeters>12528.568428041</DistanceMeters>
          </Trackpoint>
          <Trackpoint>
            <Time>2019-07-26T09:15:14.000Z</Time>
            <Position>
              <LatitudeDegrees>42.96233276836574077606201171875</LatitudeDegrees>
              <LongitudeDegrees>-7.67378649674355983734130859375</LongitudeDegrees>
            </Position>
            <AltitudeMeters>571.79998779296875</AltitudeMeters>
            <DistanceMeters>12546.937856355</DistanceMeters>
          </Trackpoint>
          <Trackpoint>
            <Time>2019-07-26T09:15:20.000Z</Time>
            <Position>
              <LatitudeDegrees>42.96228800900280475616455078125</LatitudeDegrees>
              <LongitudeDegrees>-7.67405815422534942626953125</LongitudeDegrees>
            </Position>
            <AltitudeMeters>572.79998779296875</AltitudeMeters>
            <DistanceMeters>12569.618605125</DistanceMeters>
          </Trackpoint>
          <Trackpoint>
            <Time>2019-07-26T09:15:22.000Z</Time>
            <Position>
              <LatitudeDegrees>42.96227141283452510833740234375</LatitudeDegrees>
              <LongitudeDegrees>-7.6741585694253444671630859375</LongitudeDegrees>
            </Position>
            <AltitudeMeters>573</AltitudeMeters>
            <DistanceMeters>12578.003602155</DistanceMeters>
          </Trackpoint>
          <Trackpoint>
            <Time>2019-07-26T09:15:27.000Z</Time>
            <Position>
              <LatitudeDegrees>42.962226569652557373046875</LatitudeDegrees>
              <LongitudeDegrees>-7.67443408258259296417236328125</LongitudeDegrees>
            </Position>
            <AltitudeMeters>574</AltitudeMeters>
            <DistanceMeters>12600.992997843</DistanceMeters>
          </Trackpoint>
          <Trackpoint>
            <Time>2019-07-26T09:15:30.000Z</Time>
            <Position>
              <LatitudeDegrees>42.96219513751566410064697265625</LatitudeDegrees>
              <LongitudeDegrees>-7.6746185682713985443115234375</LongitudeDegrees>
            </Position>
            <AltitudeMeters>574.5999755859375</AltitudeMeters>
            <DistanceMeters>12616.421309969</DistanceMeters>
          </Trackpoint>
          <Trackpoint>
            <Time>2019-07-26T09:15:35.000Z</Time>
            <Position>
              <LatitudeDegrees>42.9621439240872859954833984375</LatitudeDegrees>
              <LongitudeDegrees>-7.67495359294116497039794921875</LongitudeDegrees>
            </Position>
            <AltitudeMeters>575</AltitudeMeters>
            <DistanceMeters>12644.298494347</DistanceMeters>
          </Trackpoint>
          <Trackpoint>
            <Time>2019-07-26T09:15:38.000Z</Time>
            <Position>
              <LatitudeDegrees>42.96210385859012603759765625</LatitudeDegrees>
              <LongitudeDegrees>-7.67516297288239002227783203125</LongitudeDegrees>
            </Position>
            <AltitudeMeters>575.20001220703125</AltitudeMeters>
            <DistanceMeters>12661.925885829</DistanceMeters>
          </Trackpoint>
          <Trackpoint>
            <Time>2019-07-26T09:15:39.000Z</Time>
            <Position>
              <LatitudeDegrees>42.9620911180973052978515625</LatitudeDegrees>
              <LongitudeDegrees>-7.6752309501171112060546875</LongitudeDegrees>
            </Position>
            <AltitudeMeters>575.20001220703125</AltitudeMeters>
            <DistanceMeters>12667.641724925</DistanceMeters>
          </Trackpoint>
          <Trackpoint>
            <Time>2019-07-26T09:15:42.000Z</Time>
            <Position>
              <LatitudeDegrees>42.96207628212869167327880859375</LatitudeDegrees>
              <LongitudeDegrees>-7.67546321265399456024169921875</LongitudeDegrees>
            </Position>
            <AltitudeMeters>575.4000244140625</AltitudeMeters>
            <DistanceMeters>12686.631857438</DistanceMeters>
          </Trackpoint>
          <Trackpoint>
            <Time>2019-07-26T09:15:44.000Z</Time>
            <Position>
              <LatitudeDegrees>42.96207577921450138092041015625</LatitudeDegrees>
              <LongitudeDegrees>-7.6756186969578266143798828125</LongitudeDegrees>
            </Position>
            <AltitudeMeters>575.4000244140625</AltitudeMeters>
            <DistanceMeters>12699.296462359</DistanceMeters>
          </Trackpoint>
          <Trackpoint>
            <Time>2019-07-26T09:15:50.000Z</Time>
            <Position>
              <LatitudeDegrees>42.96205532737076282501220703125</LatitudeDegrees>
              <LongitudeDegrees>-7.67612320370972156524658203125</LongitudeDegrees>
            </Position>
            <AltitudeMeters>575.5999755859375</AltitudeMeters>
            <DistanceMeters>12740.452246021</DistanceMeters>
          </Trackpoint>
          <Trackpoint>
            <Time>2019-07-26T09:15:56.000Z</Time>
            <Position>
              <LatitudeDegrees>42.962025068700313568115234375</LatitudeDegrees>
              <LongitudeDegrees>-7.67665528692305088043212890625</LongitudeDegrees>
            </Position>
            <AltitudeMeters>575.5999755859375</AltitudeMeters>
            <DistanceMeters>12783.921956585</DistanceMeters>
          </Trackpoint>
          <Trackpoint>
            <Time>2019-07-26T09:15:57.000Z</Time>
            <Position>
              <LatitudeDegrees>42.96203143894672393798828125</LatitudeDegrees>
              <LongitudeDegrees>-7.67673893831670284271240234375</LongitudeDegrees>
            </Position>
            <AltitudeMeters>575.5999755859375</AltitudeMeters>
            <DistanceMeters>12790.771794335</DistanceMeters>
          </Trackpoint>
          <Trackpoint>
            <Time>2019-07-26T09:16:02.000Z</Time>
            <Position>
              <LatitudeDegrees>42.96204510144889354705810546875</LatitudeDegrees>
              <LongitudeDegrees>-7.6770982705056667327880859375</LongitudeDegrees>
            </Position>
            <AltitudeMeters>575.5999755859375</AltitudeMeters>
            <DistanceMeters>12820.079333318</DistanceMeters>
          </Trackpoint>
          <Trackpoint>
            <Time>2019-07-26T09:16:06.000Z</Time>
            <Position>
              <LatitudeDegrees>42.9620634578168392181396484375</LatitudeDegrees>
              <LongitudeDegrees>-7.67743949778378009796142578125</LongitudeDegrees>
            </Position>
            <AltitudeMeters>574.79998779296875</AltitudeMeters>
            <DistanceMeters>12847.9479324</DistanceMeters>
          </Trackpoint>
          <Trackpoint>
            <Time>2019-07-26T09:16:08.000Z</Time>
            <Position>
              <LatitudeDegrees>42.962076030671596527099609375</LatitudeDegrees>
              <LongitudeDegrees>-7.67763764597475528717041015625</LongitudeDegrees>
            </Position>
            <AltitudeMeters>573.79998779296875</AltitudeMeters>
            <DistanceMeters>12864.147688004</DistanceMeters>
          </Trackpoint>
          <Trackpoint>
            <Time>2019-07-26T09:16:09.000Z</Time>
            <Position>
              <LatitudeDegrees>42.9620906151831150054931640625</LatitudeDegrees>
              <LongitudeDegrees>-7.67773001454770565032958984375</LongitudeDegrees>
            </Position>
            <AltitudeMeters>573.5999755859375</AltitudeMeters>
            <DistanceMeters>12871.844265261</DistanceMeters>
          </Trackpoint>
          <Trackpoint>
            <Time>2019-07-26T09:16:12.000Z</Time>
            <Position>
              <LatitudeDegrees>42.96217803843319416046142578125</LatitudeDegrees>
              <LongitudeDegrees>-7.67797887325286865234375</LongitudeDegrees>
            </Position>
            <AltitudeMeters>573</AltitudeMeters>
            <DistanceMeters>12894.328477492</DistanceMeters>
          </Trackpoint>
          <Trackpoint>
            <Time>2019-07-26T09:16:13.000Z</Time>
            <Position>
              <LatitudeDegrees>42.96221475116908550262451171875</LatitudeDegrees>
              <LongitudeDegrees>-7.678063027560710906982421875</LongitudeDegrees>
            </Position>
            <AltitudeMeters>572.4000244140625</AltitudeMeters>
            <DistanceMeters>12902.308458637</DistanceMeters>
          </Trackpoint>
          <Trackpoint>
            <Time>2019-07-26T09:16:15.000Z</Time>
            <Position>
              <LatitudeDegrees>42.96228515915572643280029296875</LatitudeDegrees>
              <LongitudeDegrees>-7.67824516631662845611572265625</LongitudeDegrees>
            </Position>
            <AltitudeMeters>571</AltitudeMeters>
            <DistanceMeters>12919.086527747</DistanceMeters>
          </Trackpoint>
          <Trackpoint>
            <Time>2019-07-26T09:16:18.000Z</Time>
            <Position>
              <LatitudeDegrees>42.9624101333320140838623046875</LatitudeDegrees>
              <LongitudeDegrees>-7.6785312406718730926513671875</LongitudeDegrees>
            </Position>
            <AltitudeMeters>570.20001220703125</AltitudeMeters>
            <DistanceMeters>12946.223435531</DistanceMeters>
          </Trackpoint>
          <Trackpoint>
            <Time>2019-07-26T09:16:19.000Z</Time>
            <Position>
              <LatitudeDegrees>42.96245816163718700408935546875</LatitudeDegrees>
              <LongitudeDegrees>-7.6786207593977451324462890625</LongitudeDegrees>
            </Position>
            <AltitudeMeters>570</AltitudeMeters>
            <DistanceMeters>12955.264467108</DistanceMeters>
          </Trackpoint>
          <Trackpoint>
            <Time>2019-07-26T09:16:22.000Z</Time>
            <Position>
              <LatitudeDegrees>42.9625760950148105621337890625</LatitudeDegrees>
              <LongitudeDegrees>-7.6789189875125885009765625</LongitudeDegrees>
            </Position>
            <AltitudeMeters>569.79998779296875</AltitudeMeters>
            <DistanceMeters>12982.875247135</DistanceMeters>
          </Trackpoint>
          <Trackpoint>
            <Time>2019-07-26T09:16:23.000Z</Time>
            <Position>
              <LatitudeDegrees>42.9626079462468624114990234375</LatitudeDegrees>
              <LongitudeDegrees>-7.67902216874063014984130859375</LongitudeDegrees>
            </Position>
            <AltitudeMeters>569.4000244140625</AltitudeMeters>
            <DistanceMeters>12991.996326801</DistanceMeters>
          </Trackpoint>
          <Trackpoint>
            <Time>2019-07-26T09:16:25.000Z</Time>
            <Position>
              <LatitudeDegrees>42.9626706428825855255126953125</LatitudeDegrees>
              <LongitudeDegrees>-7.67922132275998592376708984375</LongitudeDegrees>
            </Position>
            <AltitudeMeters>568.79998779296875</AltitudeMeters>
            <DistanceMeters>13009.654939424</DistanceMeters>
          </Trackpoint>
          <Trackpoint>
            <Time>2019-07-26T09:16:27.000Z</Time>
            <Position>
              <LatitudeDegrees>42.96272051520645618438720703125</LatitudeDegrees>
              <LongitudeDegrees>-7.6794348098337650299072265625</LongitudeDegrees>
            </Position>
            <AltitudeMeters>567.5999755859375</AltitudeMeters>
            <DistanceMeters>13027.907985758</DistanceMeters>
          </Trackpoint>
          <Trackpoint>
            <Time>2019-07-26T09:16:29.000Z</Time>
            <Position>
              <LatitudeDegrees>42.96276225708425045013427734375</LatitudeDegrees>
              <LongitudeDegrees>-7.679677717387676239013671875</LongitudeDegrees>
            </Position>
            <AltitudeMeters>566.5999755859375</AltitudeMeters>
            <DistanceMeters>13048.231265428</DistanceMeters>
          </Trackpoint>
          <Trackpoint>
            <Time>2019-07-26T09:16:30.000Z</Time>
            <Position>
              <LatitudeDegrees>42.96278488822281360626220703125</LatitudeDegrees>
              <LongitudeDegrees>-7.6797945611178874969482421875</LongitudeDegrees>
            </Position>
            <AltitudeMeters>566.20001220703125</AltitudeMeters>
            <DistanceMeters>13058.075592749</DistanceMeters>
          </Trackpoint>
          <Trackpoint>
            <Time>2019-07-26T09:16:33.000Z</Time>
            <Position>
              <LatitudeDegrees>42.96288547106087207794189453125</LatitudeDegrees>
              <LongitudeDegrees>-7.68016747198998928070068359375</LongitudeDegrees>
            </Position>
            <AltitudeMeters>565.4000244140625</AltitudeMeters>
            <DistanceMeters>13090.446663026</DistanceMeters>
          </Trackpoint>
          <Trackpoint>
            <Time>2019-07-26T09:16:34.000Z</Time>
            <Position>
              <LatitudeDegrees>42.96292327344417572021484375</LatitudeDegrees>
              <LongitudeDegrees>-7.680283226072788238525390625</LongitudeDegrees>
            </Position>
            <AltitudeMeters>565.20001220703125</AltitudeMeters>
            <DistanceMeters>13100.770955851</DistanceMeters>
          </Trackpoint>
          <Trackpoint>
            <Time>2019-07-26T09:16:35.000Z</Time>
            <Position>
              <LatitudeDegrees>42.96296157874166965484619140625</LatitudeDegrees>
              <LongitudeDegrees>-7.6803883351385593414306640625</LongitudeDegrees>
            </Position>
            <AltitudeMeters>564.79998779296875</AltitudeMeters>
            <DistanceMeters>13110.335195203</DistanceMeters>
          </Trackpoint>
          <Trackpoint>
            <Time>2019-07-26T09:16:38.000Z</Time>
            <Position>
              <LatitudeDegrees>42.96309761703014373779296875</LatitudeDegrees>
              <LongitudeDegrees>-7.68071967177093029022216796875</LongitudeDegrees>
            </Position>
            <AltitudeMeters>563.79998779296875</AltitudeMeters>
            <DistanceMeters>13141.280072427</DistanceMeters>
          </Trackpoint>
          <Trackpoint>
            <Time>2019-07-26T09:16:40.000Z</Time>
            <Position>
              <LatitudeDegrees>42.96317582018673419952392578125</LatitudeDegrees>
              <LongitudeDegrees>-7.68094682134687900543212890625</LongitudeDegrees>
            </Position>
            <AltitudeMeters>563.4000244140625</AltitudeMeters>
            <DistanceMeters>13161.726500454</DistanceMeters>
          </Trackpoint>
          <Trackpoint>
            <Time>2019-07-26T09:16:41.000Z</Time>
            <Position>
              <LatitudeDegrees>42.96321420930325984954833984375</LatitudeDegrees>
              <LongitudeDegrees>-7.68105830065906047821044921875</LongitudeDegrees>
            </Position>
            <AltitudeMeters>562.4000244140625</AltitudeMeters>
            <DistanceMeters>13171.761609447</DistanceMeters>
          </Trackpoint>
          <Trackpoint>
            <Time>2019-07-26T09:16:44.000Z</Time>
            <Position>
              <LatitudeDegrees>42.96333993785083293914794921875</LatitudeDegrees>
              <LongitudeDegrees>-7.68139122985303401947021484375</LongitudeDegrees>
            </Position>
            <AltitudeMeters>561</AltitudeMeters>
            <DistanceMeters>13202.276431955</DistanceMeters>
          </Trackpoint>
          <Trackpoint>
            <Time>2019-07-26T09:16:45.000Z</Time>
            <Position>
              <LatitudeDegrees>42.9633717052638530731201171875</LatitudeDegrees>
              <LongitudeDegrees>-7.6815048046410083770751953125</LongitudeDegrees>
            </Position>
            <AltitudeMeters>560.4000244140625</AltitudeMeters>
            <DistanceMeters>13212.179291652</DistanceMeters>
          </Trackpoint>
          <Trackpoint>
            <Time>2019-07-26T09:16:47.000Z</Time>
            <Position>
              <LatitudeDegrees>42.9634397663176059722900390625</LatitudeDegrees>
              <LongitudeDegrees>-7.68174938857555389404296875</LongitudeDegrees>
            </Position>
            <AltitudeMeters>559.79998779296875</AltitudeMeters>
            <DistanceMeters>13233.491985177</DistanceMeters>
          </Trackpoint>
          <Trackpoint>
            <Time>2019-07-26T09:16:50.000Z</Time>
            <Position>
              <LatitudeDegrees>42.96349416486918926239013671875</LatitudeDegrees>
              <LongitudeDegrees>-7.682113833725452423095703125</LongitudeDegrees>
            </Position>
            <AltitudeMeters>558.5999755859375</AltitudeMeters>
            <DistanceMeters>13263.787181324</DistanceMeters>
          </Trackpoint>
          <Trackpoint>
            <Time>2019-07-26T09:16:51.000Z</Time>
            <Position>
              <LatitudeDegrees>42.9634934104979038238525390625</LatitudeDegrees>
              <LongitudeDegrees>-7.682219110429286956787109375</LongitudeDegrees>
            </Position>
            <AltitudeMeters>558.20001220703125</AltitudeMeters>
            <DistanceMeters>13272.362256396</DistanceMeters>
          </Trackpoint>
          <Trackpoint>
            <Time>2019-07-26T09:16:53.000Z</Time>
            <Position>
              <LatitudeDegrees>42.96350170858204364776611328125</LatitudeDegrees>
              <LongitudeDegrees>-7.68237174488604068756103515625</LongitudeDegrees>
            </Position>
            <AltitudeMeters>557.4000244140625</AltitudeMeters>
            <DistanceMeters>13284.828877657</DistanceMeters>
          </Trackpoint>
          <Trackpoint>
            <Time>2019-07-26T09:16:55.000Z</Time>
            <Position>
              <LatitudeDegrees>42.96352853067219257354736328125</LatitudeDegrees>
              <LongitudeDegrees>-7.6824720762670040130615234375</LongitudeDegrees>
            </Position>
            <AltitudeMeters>556.5999755859375</AltitudeMeters>
            <DistanceMeters>13293.528883448</DistanceMeters>
          </Trackpoint>
          <Trackpoint>
            <Time>2019-07-26T09:16:56.000Z</Time>
            <Position>
              <LatitudeDegrees>42.96355501748621463775634765625</LatitudeDegrees>
              <LongitudeDegrees>-7.68251289613544940948486328125</LongitudeDegrees>
            </Position>
            <AltitudeMeters>556.4000244140625</AltitudeMeters>
            <DistanceMeters>13297.971826966</DistanceMeters>
          </Trackpoint>
          <Trackpoint>
            <Time>2019-07-26T09:16:57.000Z</Time>
            <Position>
              <LatitudeDegrees>42.963584773242473602294921875</LatitudeDegrees>
              <LongitudeDegrees>-7.6825533807277679443359375</LongitudeDegrees>
            </Position>
            <AltitudeMeters>556</AltitudeMeters>
            <DistanceMeters>13302.64459112</DistanceMeters>
          </Trackpoint>
          <Trackpoint>
            <Time>2019-07-26T09:16:59.000Z</Time>
            <Position>
              <LatitudeDegrees>42.96363883651793003082275390625</LatitudeDegrees>
              <LongitudeDegrees>-7.68263661302626132965087890625</LongitudeDegrees>
            </Position>
            <AltitudeMeters>555.20001220703125</AltitudeMeters>
            <DistanceMeters>13311.709561922</DistanceMeters>
          </Trackpoint>
          <Trackpoint>
            <Time>2019-07-26T09:17:01.000Z</Time>
            <Position>
              <LatitudeDegrees>42.96368292532861232757568359375</LatitudeDegrees>
              <LongitudeDegrees>-7.68272713758051395416259765625</LongitudeDegrees>
            </Position>
            <AltitudeMeters>554</AltitudeMeters>
            <DistanceMeters>13320.565929348</DistanceMeters>
          </Trackpoint>
          <Trackpoint>
            <Time>2019-07-26T09:17:03.000Z</Time>
            <Position>
              <LatitudeDegrees>42.96372399665415287017822265625</LatitudeDegrees>
              <LongitudeDegrees>-7.6828244514763355255126953125</LongitudeDegrees>
            </Position>
            <AltitudeMeters>553.5999755859375</AltitudeMeters>
            <DistanceMeters>13329.715181156</DistanceMeters>
          </Trackpoint>
          <Trackpoint>
            <Time>2019-07-26T09:17:09.000Z</Time>
            <Position>
              <LatitudeDegrees>42.96386204659938812255859375</LatitudeDegrees>
              <LongitudeDegrees>-7.6830792613327503204345703125</LongitudeDegrees>
            </Position>
            <AltitudeMeters>553.4000244140625</AltitudeMeters>
            <DistanceMeters>13355.53798048</DistanceMeters>
          </Trackpoint>
          <Trackpoint>
            <Time>2019-07-26T09:17:15.000Z</Time>
            <Position>
              <LatitudeDegrees>42.9639847576618194580078125</LatitudeDegrees>
              <LongitudeDegrees>-7.68326081335544586181640625</LongitudeDegrees>
            </Position>
            <AltitudeMeters>554</AltitudeMeters>
            <DistanceMeters>13375.667725145</DistanceMeters>
          </Trackpoint>
          <Trackpoint>
            <Time>2019-07-26T09:17:19.000Z</Time>
            <Position>
              <LatitudeDegrees>42.964092381298542022705078125</LatitudeDegrees>
              <LongitudeDegrees>-7.6833753101527690887451171875</LongitudeDegrees>
            </Position>
            <AltitudeMeters>555</AltitudeMeters>
            <DistanceMeters>13390.848819012</DistanceMeters>
          </Trackpoint>
          <Trackpoint>
            <Time>2019-07-26T09:17:24.000Z</Time>
            <Position>
              <LatitudeDegrees>42.96420327387750148773193359375</LatitudeDegrees>
              <LongitudeDegrees>-7.68356817774474620819091796875</LongitudeDegrees>
            </Position>
            <AltitudeMeters>556.20001220703125</AltitudeMeters>
            <DistanceMeters>13410.826137614</DistanceMeters>
          </Trackpoint>
          <Trackpoint>
            <Time>2019-07-26T09:17:30.000Z</Time>
            <Position>
              <LatitudeDegrees>42.96426814980804920196533203125</LatitudeDegrees>
              <LongitudeDegrees>-7.68384159542620182037353515625</LongitudeDegrees>
            </Position>
            <AltitudeMeters>557.4000244140625</AltitudeMeters>
            <DistanceMeters>13434.237063689</DistanceMeters>
          </Trackpoint>
          <Trackpoint>
            <Time>2019-07-26T09:17:36.000Z</Time>
            <Position>
              <LatitudeDegrees>42.964321710169315338134765625</LatitudeDegrees>
              <LongitudeDegrees>-7.6841129176318645477294921875</LongitudeDegrees>
            </Position>
            <AltitudeMeters>558.5999755859375</AltitudeMeters>
            <DistanceMeters>13457.125683459</DistanceMeters>
          </Trackpoint>
          <Trackpoint>
            <Time>2019-07-26T09:17:39.000Z</Time>
            <Position>
              <LatitudeDegrees>42.96433973126113414764404296875</LatitudeDegrees>
              <LongitudeDegrees>-7.6842619478702545166015625</LongitudeDegrees>
            </Position>
            <AltitudeMeters>559.4000244140625</AltitudeMeters>
            <DistanceMeters>13469.42824869</DistanceMeters>
          </Trackpoint>
          <Trackpoint>
            <Time>2019-07-26T09:17:41.000Z</Time>
            <Position>
              <LatitudeDegrees>42.96433302573859691619873046875</LatitudeDegrees>
              <LongitudeDegrees>-7.6843694038689136505126953125</LongitudeDegrees>
            </Position>
            <AltitudeMeters>559.5999755859375</AltitudeMeters>
            <DistanceMeters>13478.212439217</DistanceMeters>
          </Trackpoint>
          <Trackpoint>
            <Time>2019-07-26T09:17:44.000Z</Time>
            <Position>
              <LatitudeDegrees>42.9643173515796661376953125</LatitudeDegrees>
              <LongitudeDegrees>-7.6845219545066356658935546875</LongitudeDegrees>
            </Position>
            <AltitudeMeters>560.20001220703125</AltitudeMeters>
            <DistanceMeters>13490.759564494</DistanceMeters>
          </Trackpoint>
          <Trackpoint>
            <Time>2019-07-26T09:17:47.000Z</Time>
            <Position>
              <LatitudeDegrees>42.96432548202574253082275390625</LatitudeDegrees>
              <LongitudeDegrees>-7.684668637812137603759765625</LongitudeDegrees>
            </Position>
            <AltitudeMeters>560.79998779296875</AltitudeMeters>
            <DistanceMeters>13502.740846781</DistanceMeters>
          </Trackpoint>
          <Trackpoint>
            <Time>2019-07-26T09:17:49.000Z</Time>
            <Position>
              <LatitudeDegrees>42.9643356241285800933837890625</LatitudeDegrees>
              <LongitudeDegrees>-7.68477533943951129913330078125</LongitudeDegrees>
            </Position>
            <AltitudeMeters>561.4000244140625</AltitudeMeters>
            <DistanceMeters>13511.504453353</DistanceMeters>
          </Trackpoint>
          <Trackpoint>
            <Time>2019-07-26T09:17:52.000Z</Time>
            <Position>
              <LatitudeDegrees>42.96434350311756134033203125</LatitudeDegrees>
              <LongitudeDegrees>-7.68495328724384307861328125</LongitudeDegrees>
            </Position>
            <AltitudeMeters>561.79998779296875</AltitudeMeters>
            <DistanceMeters>13526.024585061</DistanceMeters>
          </Trackpoint>
          <Trackpoint>
            <Time>2019-07-26T09:17:55.000Z</Time>
            <Position>
              <LatitudeDegrees>42.96434727497398853302001953125</LatitudeDegrees>
              <LongitudeDegrees>-7.68515218980610370635986328125</LongitudeDegrees>
            </Position>
            <AltitudeMeters>562</AltitudeMeters>
            <DistanceMeters>13542.230192523</DistanceMeters>
          </Trackpoint>
          <Trackpoint>
            <Time>2019-07-26T09:17:56.000Z</Time>
            <Position>
              <LatitudeDegrees>42.96435213647782802581787109375</LatitudeDegrees>
              <LongitudeDegrees>-7.68522075377404689788818359375</LongitudeDegrees>
            </Position>
            <AltitudeMeters>562</AltitudeMeters>
            <DistanceMeters>13547.839988991</DistanceMeters>
          </Trackpoint>
          <Trackpoint>
            <Time>2019-07-26T09:17:58.000Z</Time>
            <Position>
              <LatitudeDegrees>42.96436822973191738128662109375</LatitudeDegrees>
              <LongitudeDegrees>-7.68536307848989963531494140625</LongitudeDegrees>
            </Position>
            <AltitudeMeters>562</AltitudeMeters>
            <DistanceMeters>13559.569534792</DistanceMeters>
          </Trackpoint>
          <Trackpoint>
            <Time>2019-07-26T09:18:00.000Z</Time>
            <Position>
              <LatitudeDegrees>42.9643570818006992340087890625</LatitudeDegrees>
              <LongitudeDegrees>-7.68551512621343135833740234375</LongitudeDegrees>
            </Position>
            <AltitudeMeters>562</AltitudeMeters>
            <DistanceMeters>13572.015495234</DistanceMeters>
          </Trackpoint>
          <Trackpoint>
            <Time>2019-07-26T09:18:01.000Z</Time>
            <Position>
              <LatitudeDegrees>42.9643476940691471099853515625</LatitudeDegrees>
              <LongitudeDegrees>-7.6855975203216075897216796875</LongitudeDegrees>
            </Position>
            <AltitudeMeters>562</AltitudeMeters>
            <DistanceMeters>13578.80774527</DistanceMeters>
          </Trackpoint>
          <Trackpoint>
            <Time>2019-07-26T09:18:03.000Z</Time>
            <Position>
              <LatitudeDegrees>42.96433771960437297821044921875</LatitudeDegrees>
              <LongitudeDegrees>-7.68577940762042999267578125</LongitudeDegrees>
            </Position>
            <AltitudeMeters>561.79998779296875</AltitudeMeters>
            <DistanceMeters>13593.663554514</DistanceMeters>
          </Trackpoint>
          <Trackpoint>
            <Time>2019-07-26T09:18:05.000Z</Time>
            <Position>
              <LatitudeDegrees>42.9643584229052066802978515625</LatitudeDegrees>
              <LongitudeDegrees>-7.68594863824546337127685546875</LongitudeDegrees>
            </Position>
            <AltitudeMeters>561.5999755859375</AltitudeMeters>
            <DistanceMeters>13607.638298277</DistanceMeters>
          </Trackpoint>
          <Trackpoint>
            <Time>2019-07-26T09:18:06.000Z</Time>
            <Position>
              <LatitudeDegrees>42.9643778689205646514892578125</LatitudeDegrees>
              <LongitudeDegrees>-7.68601502291858196258544921875</LongitudeDegrees>
            </Position>
            <AltitudeMeters>561.20001220703125</AltitudeMeters>
            <DistanceMeters>13613.462125809</DistanceMeters>
          </Trackpoint>
          <Trackpoint>
            <Time>2019-07-26T09:18:08.000Z</Time>
            <Position>
              <LatitudeDegrees>42.96444584615528583526611328125</LatitudeDegrees>
              <LongitudeDegrees>-7.68612130545079708099365234375</LongitudeDegrees>
            </Position>
            <AltitudeMeters>560.79998779296875</AltitudeMeters>
            <DistanceMeters>13624.959180171</DistanceMeters>
          </Trackpoint>
          <Trackpoint>
            <Time>2019-07-26T09:18:09.000Z</Time>
            <Position>
              <LatitudeDegrees>42.964495383203029632568359375</LatitudeDegrees>
              <LongitudeDegrees>-7.6861544139683246612548828125</LongitudeDegrees>
            </Position>
            <AltitudeMeters>560.4000244140625</AltitudeMeters>
            <DistanceMeters>13631.096317031</DistanceMeters>
          </Trackpoint>
          <Trackpoint>
            <Time>2019-07-26T09:18:11.000Z</Time>
            <Position>
              <LatitudeDegrees>42.96458314172923564910888671875</LatitudeDegrees>
              <LongitudeDegrees>-7.68618400208652019500732421875</LongitudeDegrees>
            </Position>
            <AltitudeMeters>559.79998779296875</AltitudeMeters>
            <DistanceMeters>13641.156590228</DistanceMeters>
          </Trackpoint>
          <Trackpoint>
            <Time>2019-07-26T09:18:12.000Z</Time>
            <Position>
              <LatitudeDegrees>42.96462454833090305328369140625</LatitudeDegrees>
              <LongitudeDegrees>-7.6861963234841823577880859375</LongitudeDegrees>
            </Position>
            <AltitudeMeters>559</AltitudeMeters>
            <DistanceMeters>13645.872634999</DistanceMeters>
          </Trackpoint>
          <Trackpoint>
            <Time>2019-07-26T09:18:13.000Z</Time>
            <Position>
              <LatitudeDegrees>42.9646695591509342193603515625</LatitudeDegrees>
              <LongitudeDegrees>-7.68621099181473255157470703125</LongitudeDegrees>
            </Position>
            <AltitudeMeters>558</AltitudeMeters>
            <DistanceMeters>13651.023398495</DistanceMeters>
          </Trackpoint>
          <Trackpoint>
            <Time>2019-07-26T09:18:14.000Z</Time>
            <Position>
              <LatitudeDegrees>42.964715324342250823974609375</LatitudeDegrees>
              <LongitudeDegrees>-7.686227001249790191650390625</LongitudeDegrees>
            </Position>
            <AltitudeMeters>557.4000244140625</AltitudeMeters>
            <DistanceMeters>13656.280016601</DistanceMeters>
          </Trackpoint>
          <Trackpoint>
            <Time>2019-07-26T09:18:16.000Z</Time>
            <Position>
              <LatitudeDegrees>42.9648053459823131561279296875</LatitudeDegrees>
              <LongitudeDegrees>-7.6862710900604724884033203125</LongitudeDegrees>
            </Position>
            <AltitudeMeters>556.20001220703125</AltitudeMeters>
            <DistanceMeters>13666.92385703</DistanceMeters>
          </Trackpoint>
          <Trackpoint>
            <Time>2019-07-26T09:18:18.000Z</Time>
            <Position>
              <LatitudeDegrees>42.9648784361779689788818359375</LatitudeDegrees>
              <LongitudeDegrees>-7.68633437342941761016845703125</LongitudeDegrees>
            </Position>
            <AltitudeMeters>555.20001220703125</AltitudeMeters>
            <DistanceMeters>13676.553960097</DistanceMeters>
          </Trackpoint>
          <Trackpoint>
            <Time>2019-07-26T09:18:22.000Z</Time>
            <Position>
              <LatitudeDegrees>42.9649582318961620330810546875</LatitudeDegrees>
              <LongitudeDegrees>-7.6864479482173919677734375</LongitudeDegrees>
            </Position>
            <AltitudeMeters>554.20001220703125</AltitudeMeters>
            <DistanceMeters>13689.377286188</DistanceMeters>
          </Trackpoint>
          <Trackpoint>
            <Time>2019-07-26T09:18:26.000Z</Time>
            <Position>
              <LatitudeDegrees>42.96501045115292072296142578125</LatitudeDegrees>
              <LongitudeDegrees>-7.686564624309539794921875</LongitudeDegrees>
            </Position>
            <AltitudeMeters>553.20001220703125</AltitudeMeters>
            <DistanceMeters>13700.516914121</DistanceMeters>
          </Trackpoint>
          <Trackpoint>
            <Time>2019-07-26T09:18:27.000Z</Time>
            <Position>
              <LatitudeDegrees>42.96501933597028255462646484375</LatitudeDegrees>
              <LongitudeDegrees>-7.68660360015928745269775390625</LongitudeDegrees>
            </Position>
            <AltitudeMeters>552.79998779296875</AltitudeMeters>
            <DistanceMeters>13703.841491323</DistanceMeters>
          </Trackpoint>
          <Trackpoint>
            <Time>2019-07-26T09:18:28.000Z</Time>
            <Position>
              <LatitudeDegrees>42.96503442339599132537841796875</LatitudeDegrees>
              <LongitudeDegrees>-7.6866516284644603729248046875</LongitudeDegrees>
            </Position>
            <AltitudeMeters>552.4000244140625</AltitudeMeters>
            <DistanceMeters>13708.097584995</DistanceMeters>
          </Trackpoint>
          <Trackpoint>
            <Time>2019-07-26T09:18:30.000Z</Time>
            <Position>
              <LatitudeDegrees>42.9650889895856380462646484375</LatitudeDegrees>
              <LongitudeDegrees>-7.6867525465786457061767578125</LongitudeDegrees>
            </Position>
            <AltitudeMeters>551.5999755859375</AltitudeMeters>
            <DistanceMeters>13718.317265232</DistanceMeters>
          </Trackpoint>
          <Trackpoint>
            <Time>2019-07-26T09:18:32.000Z</Time>
            <Position>
              <LatitudeDegrees>42.9651810228824615478515625</LatitudeDegrees>
              <LongitudeDegrees>-7.68683343194425106048583984375</LongitudeDegrees>
            </Position>
            <AltitudeMeters>550.4000244140625</AltitudeMeters>
            <DistanceMeters>13730.496265013</DistanceMeters>
          </Trackpoint>
          <Trackpoint>
            <Time>2019-07-26T09:18:35.000Z</Time>
            <Position>
              <LatitudeDegrees>42.9653468169271945953369140625</LatitudeDegrees>
              <LongitudeDegrees>-7.68689361400902271270751953125</LongitudeDegrees>
            </Position>
            <AltitudeMeters>549.4000244140625</AltitudeMeters>
            <DistanceMeters>13749.589305264</DistanceMeters>
          </Trackpoint>
          <Trackpoint>
            <Time>2019-07-26T09:18:36.000Z</Time>
            <Position>
              <LatitudeDegrees>42.9654085077345371246337890625</LatitudeDegrees>
              <LongitudeDegrees>-7.6868967153131961822509765625</LongitudeDegrees>
            </Position>
            <AltitudeMeters>549</AltitudeMeters>
            <DistanceMeters>13756.459546132</DistanceMeters>
          </Trackpoint>
          <Trackpoint>
            <Time>2019-07-26T09:18:38.000Z</Time>
            <Position>
              <LatitudeDegrees>42.96553398482501506805419921875</LatitudeDegrees>
              <LongitudeDegrees>-7.686882130801677703857421875</LongitudeDegrees>
            </Position>
            <AltitudeMeters>548.20001220703125</AltitudeMeters>
            <DistanceMeters>13770.47590597</DistanceMeters>
          </Trackpoint>
          <Trackpoint>
            <Time>2019-07-26T09:18:40.000Z</Time>
            <Position>
              <LatitudeDegrees>42.96569206751883029937744140625</LatitudeDegrees>
              <LongitudeDegrees>-7.6868893392384052276611328125</LongitudeDegrees>
            </Position>
            <AltitudeMeters>547</AltitudeMeters>
            <DistanceMeters>13788.080742911</DistanceMeters>
          </Trackpoint>
          <Trackpoint>
            <Time>2019-07-26T09:18:41.000Z</Time>
            <Position>
              <LatitudeDegrees>42.96578426845371723175048828125</LatitudeDegrees>
              <LongitudeDegrees>-7.686904929578304290771484375</LongitudeDegrees>
            </Position>
            <AltitudeMeters>546.5999755859375</AltitudeMeters>
            <DistanceMeters>13798.421203982</DistanceMeters>
          </Trackpoint>
          <Trackpoint>
            <Time>2019-07-26T09:18:43.000Z</Time>
            <Position>
              <LatitudeDegrees>42.96597696840763092041015625</LatitudeDegrees>
              <LongitudeDegrees>-7.68695446662604808807373046875</LongitudeDegrees>
            </Position>
            <AltitudeMeters>545.79998779296875</AltitudeMeters>
            <DistanceMeters>13820.245304927</DistanceMeters>
          </Trackpoint>
          <Trackpoint>
            <Time>2019-07-26T09:18:45.000Z</Time>
            <Position>
              <LatitudeDegrees>42.96617276966571807861328125</LatitudeDegrees>
              <LongitudeDegrees>-7.687011547386646270751953125</LongitudeDegrees>
            </Position>
            <AltitudeMeters>544.79998779296875</AltitudeMeters>
            <DistanceMeters>13842.528816176</DistanceMeters>
          </Trackpoint>
          <Trackpoint>
            <Time>2019-07-26T09:18:46.000Z</Time>
            <Position>
              <LatitudeDegrees>42.966262288391590118408203125</LatitudeDegrees>
              <LongitudeDegrees>-7.687047086656093597412109375</LongitudeDegrees>
            </Position>
            <AltitudeMeters>544</AltitudeMeters>
            <DistanceMeters>13852.903714306</DistanceMeters>
          </Trackpoint>
          <Trackpoint>
            <Time>2019-07-26T09:18:47.000Z</Time>
            <Position>
              <LatitudeDegrees>42.96634652651846408843994140625</LatitudeDegrees>
              <LongitudeDegrees>-7.68708388321101665496826171875</LongitudeDegrees>
            </Position>
            <AltitudeMeters>543.4000244140625</AltitudeMeters>
            <DistanceMeters>13862.746206881</DistanceMeters>
          </Trackpoint>
          <Trackpoint>
            <Time>2019-07-26T09:18:49.000Z</Time>
            <Position>
              <LatitudeDegrees>42.96650896780192852020263671875</LatitudeDegrees>
              <LongitudeDegrees>-7.68714121542870998382568359375</LongitudeDegrees>
            </Position>
            <AltitudeMeters>542.20001220703125</AltitudeMeters>
            <DistanceMeters>13881.419379397</DistanceMeters>
          </Trackpoint>
          <Trackpoint>
            <Time>2019-07-26T09:18:51.000Z</Time>
            <Position>
              <LatitudeDegrees>42.96661726199090480804443359375</LatitudeDegrees>
              <LongitudeDegrees>-7.6872034929692745208740234375</LongitudeDegrees>
            </Position>
            <AltitudeMeters>540.79998779296875</AltitudeMeters>
            <DistanceMeters>13894.496519286</DistanceMeters>
          </Trackpoint>
          <Trackpoint>
            <Time>2019-07-26T09:18:53.000Z</Time>
            <Position>
              <LatitudeDegrees>42.9667224548757076263427734375</LatitudeDegrees>
              <LongitudeDegrees>-7.68726711161434650421142578125</LongitudeDegrees>
            </Position>
            <AltitudeMeters>539.4000244140625</AltitudeMeters>
            <DistanceMeters>13907.299407539</DistanceMeters>
          </Trackpoint>
          <Trackpoint>
            <Time>2019-07-26T09:18:54.000Z</Time>
            <Position>
              <LatitudeDegrees>42.96678070910274982452392578125</LatitudeDegrees>
              <LongitudeDegrees>-7.6873121224343776702880859375</LongitudeDegrees>
            </Position>
            <AltitudeMeters>538.79998779296875</AltitudeMeters>
            <DistanceMeters>13914.747344139</DistanceMeters>
          </Trackpoint>
          <Trackpoint>
            <Time>2019-07-26T09:18:55.000Z</Time>
            <Position>
              <LatitudeDegrees>42.9668401367962360382080078125</LatitudeDegrees>
              <LongitudeDegrees>-7.687358558177947998046875</LongitudeDegrees>
            </Position>
            <AltitudeMeters>538</AltitudeMeters>
            <DistanceMeters>13922.366685414</DistanceMeters>
          </Trackpoint>
          <Trackpoint>
            <Time>2019-07-26T09:18:56.000Z</Time>
            <Position>
              <LatitudeDegrees>42.9669118858873844146728515625</LatitudeDegrees>
              <LongitudeDegrees>-7.68740491010248661041259765625</LongitudeDegrees>
            </Position>
            <AltitudeMeters>537.20001220703125</AltitudeMeters>
            <DistanceMeters>13931.199570586</DistanceMeters>
          </Trackpoint>
          <Trackpoint>
            <Time>2019-07-26T09:18:57.000Z</Time>
            <Position>
              <LatitudeDegrees>42.9669859819114208221435546875</LatitudeDegrees>
              <LongitudeDegrees>-7.6874484121799468994140625</LongitudeDegrees>
            </Position>
            <AltitudeMeters>536.4000244140625</AltitudeMeters>
            <DistanceMeters>13940.175446144</DistanceMeters>
          </Trackpoint>
          <Trackpoint>
            <Time>2019-07-26T09:18:59.000Z</Time>
            <Position>
              <LatitudeDegrees>42.96713543124496936798095703125</LatitudeDegrees>
              <LongitudeDegrees>-7.68752912990748882293701171875</LongitudeDegrees>
            </Position>
            <AltitudeMeters>534.20001220703125</AltitudeMeters>
            <DistanceMeters>13958.061180351</DistanceMeters>
          </Trackpoint>
          <Trackpoint>
            <Time>2019-07-26T09:19:02.000Z</Time>
            <Position>
              <LatitudeDegrees>42.96728546731173992156982421875</LatitudeDegrees>
              <LongitudeDegrees>-7.68763474188745021820068359375</LongitudeDegrees>
            </Position>
            <AltitudeMeters>533</AltitudeMeters>
            <DistanceMeters>13976.845248253</DistanceMeters>
          </Trackpoint>
          <Trackpoint>
            <Time>2019-07-26T09:19:04.000Z</Time>
            <Position>
              <LatitudeDegrees>42.9673038236796855926513671875</LatitudeDegrees>
              <LongitudeDegrees>-7.6877461373805999755859375</LongitudeDegrees>
            </Position>
            <AltitudeMeters>532.4000244140625</AltitudeMeters>
            <DistanceMeters>13986.145252134</DistanceMeters>
          </Trackpoint>
          <Trackpoint>
            <Time>2019-07-26T09:19:05.000Z</Time>
            <Position>
              <LatitudeDegrees>42.9673004709184169769287109375</LatitudeDegrees>
              <LongitudeDegrees>-7.687801457941532135009765625</LongitudeDegrees>
            </Position>
            <AltitudeMeters>532.20001220703125</AltitudeMeters>
            <DistanceMeters>13990.6667666</DistanceMeters>
          </Trackpoint>
          <Trackpoint>
            <Time>2019-07-26T09:19:07.000Z</Time>
            <Position>
              <LatitudeDegrees>42.967283539474010467529296875</LatitudeDegrees>
              <LongitudeDegrees>-7.6879491470754146575927734375</LongitudeDegrees>
            </Position>
            <AltitudeMeters>531.79998779296875</AltitudeMeters>
            <DistanceMeters>14002.841687743</DistanceMeters>
          </Trackpoint>
          <Trackpoint>
            <Time>2019-07-26T09:19:08.000Z</Time>
            <Position>
              <LatitudeDegrees>42.96727515757083892822265625</LatitudeDegrees>
              <LongitudeDegrees>-7.68801846541464328765869140625</LongitudeDegrees>
            </Position>
            <AltitudeMeters>531.20001220703125</AltitudeMeters>
            <DistanceMeters>14008.563842685</DistanceMeters>
          </Trackpoint>
          <Trackpoint>
            <Time>2019-07-26T09:19:09.000Z</Time>
            <Position>
              <LatitudeDegrees>42.96725571155548095703125</LatitudeDegrees>
              <LongitudeDegrees>-7.68808652646839618682861328125</LongitudeDegrees>
            </Position>
            <AltitudeMeters>530.5999755859375</AltitudeMeters>
            <DistanceMeters>14014.51345609</DistanceMeters>
          </Trackpoint>
          <Trackpoint>
            <Time>2019-07-26T09:19:11.000Z</Time>
            <Position>
              <LatitudeDegrees>42.96717314980924129486083984375</LatitudeDegrees>
              <LongitudeDegrees>-7.68821242265403270721435546875</LongitudeDegrees>
            </Position>
            <AltitudeMeters>529</AltitudeMeters>
            <DistanceMeters>14028.282167898</DistanceMeters>
          </Trackpoint>
          <Trackpoint>
            <Time>2019-07-26T09:19:12.000Z</Time>
            <Position>
              <LatitudeDegrees>42.96711883507668972015380859375</LatitudeDegrees>
              <LongitudeDegrees>-7.6882763765752315521240234375</LongitudeDegrees>
            </Position>
            <AltitudeMeters>528.5999755859375</AltitudeMeters>
            <DistanceMeters>14036.261017372</DistanceMeters>
          </Trackpoint>
          <Trackpoint>
            <Time>2019-07-26T09:19:14.000Z</Time>
            <Position>
              <LatitudeDegrees>42.96700282953679561614990234375</LatitudeDegrees>
              <LongitudeDegrees>-7.688434459269046783447265625</LongitudeDegrees>
            </Position>
            <AltitudeMeters>528</AltitudeMeters>
            <DistanceMeters>14054.495254803</DistanceMeters>
          </Trackpoint>
          <Trackpoint>
            <Time>2019-07-26T09:19:15.000Z</Time>
            <Position>
              <LatitudeDegrees>42.96695019118487834930419921875</LatitudeDegrees>
              <LongitudeDegrees>-7.68852557055652141571044921875</LongitudeDegrees>
            </Position>
            <AltitudeMeters>527.79998779296875</AltitudeMeters>
            <DistanceMeters>14063.950293501</DistanceMeters>
          </Trackpoint>
          <Trackpoint>
            <Time>2019-07-26T09:19:16.000Z</Time>
            <Position>
              <LatitudeDegrees>42.96689922921359539031982421875</LatitudeDegrees>
              <LongitudeDegrees>-7.68861793912947177886962890625</LongitudeDegrees>
            </Position>
            <AltitudeMeters>527.5999755859375</AltitudeMeters>
            <DistanceMeters>14073.371845998</DistanceMeters>
          </Trackpoint>
          <Trackpoint>
            <Time>2019-07-26T09:19:18.000Z</Time>
            <Position>
              <LatitudeDegrees>42.9667814634740352630615234375</LatitudeDegrees>
              <LongitudeDegrees>-7.688782475888729095458984375</LongitudeDegrees>
            </Position>
            <AltitudeMeters>526.79998779296875</AltitudeMeters>
            <DistanceMeters>14092.117416001</DistanceMeters>
          </Trackpoint>
          <Trackpoint>
            <Time>2019-07-26T09:19:20.000Z</Time>
            <Position>
              <LatitudeDegrees>42.9666517116129398345947265625</LatitudeDegrees>
              <LongitudeDegrees>-7.688911221921443939208984375</LongitudeDegrees>
            </Position>
            <AltitudeMeters>526.20001220703125</AltitudeMeters>
            <DistanceMeters>14109.964232421</DistanceMeters>
          </Trackpoint>
          <Trackpoint>
            <Time>2019-07-26T09:19:21.000Z</Time>
            <Position>
              <LatitudeDegrees>42.96658708713948726654052734375</LatitudeDegrees>
              <LongitudeDegrees>-7.68897685222327709197998046875</LongitudeDegrees>
            </Position>
            <AltitudeMeters>525.5999755859375</AltitudeMeters>
            <DistanceMeters>14118.926012372</DistanceMeters>
          </Trackpoint>
          <Trackpoint>
            <Time>2019-07-26T09:19:22.000Z</Time>
            <Position>
              <LatitudeDegrees>42.96653076075017452239990234375</LatitudeDegrees>
              <LongitudeDegrees>-7.6890535466372966766357421875</LongitudeDegrees>
            </Position>
            <AltitudeMeters>525</AltitudeMeters>
            <DistanceMeters>14127.77626</DistanceMeters>
          </Trackpoint>
          <Trackpoint>
            <Time>2019-07-26T09:19:23.000Z</Time>
            <Position>
              <LatitudeDegrees>42.96647988259792327880859375</LatitudeDegrees>
              <LongitudeDegrees>-7.68913510255515575408935546875</LongitudeDegrees>
            </Position>
            <AltitudeMeters>524.5999755859375</AltitudeMeters>
            <DistanceMeters>14136.504762446</DistanceMeters>
          </Trackpoint>
          <Trackpoint>
            <Time>2019-07-26T09:19:24.000Z</Time>
            <Position>
              <LatitudeDegrees>42.96643235720694065093994140625</LatitudeDegrees>
              <LongitudeDegrees>-7.68921665847301483154296875</LongitudeDegrees>
            </Position>
            <AltitudeMeters>524.20001220703125</AltitudeMeters>
            <DistanceMeters>14144.995706465</DistanceMeters>
          </Trackpoint>
          <Trackpoint>
            <Time>2019-07-26T09:19:26.000Z</Time>
            <Position>
              <LatitudeDegrees>42.96633814461529254913330078125</LatitudeDegrees>
              <LongitudeDegrees>-7.68936107866466045379638671875</LongitudeDegrees>
            </Position>
            <AltitudeMeters>523.20001220703125</AltitudeMeters>
            <DistanceMeters>14160.753244724</DistanceMeters>
          </Trackpoint>
          <Trackpoint>
            <Time>2019-07-26T09:19:27.000Z</Time>
            <Position>
              <LatitudeDegrees>42.9662887752056121826171875</LatitudeDegrees>
              <LongitudeDegrees>-7.68942494876682758331298828125</LongitudeDegrees>
            </Position>
            <AltitudeMeters>521.79998779296875</AltitudeMeters>
            <DistanceMeters>14168.319662942</DistanceMeters>
          </Trackpoint>
          <Trackpoint>
            <Time>2019-07-26T09:19:28.000Z</Time>
            <Position>
              <LatitudeDegrees>42.9662352986633777618408203125</LatitudeDegrees>
              <LongitudeDegrees>-7.6894803531467914581298828125</LongitudeDegrees>
            </Position>
            <AltitudeMeters>521.20001220703125</AltitudeMeters>
            <DistanceMeters>14175.788786872</DistanceMeters>
          </Trackpoint>
          <Trackpoint>
            <Time>2019-07-26T09:19:29.000Z</Time>
            <Position>
              <LatitudeDegrees>42.966181822121143341064453125</LatitudeDegrees>
              <LongitudeDegrees>-7.68952838145196437835693359375</LongitudeDegrees>
            </Position>
            <AltitudeMeters>520.4000244140625</AltitudeMeters>
            <DistanceMeters>14182.911354489</DistanceMeters>
          </Trackpoint>
          <Trackpoint>
            <Time>2019-07-26T09:19:31.000Z</Time>
            <Position>
              <LatitudeDegrees>42.96609892509877681732177734375</LatitudeDegrees>
              <LongitudeDegrees>-7.68964706920087337493896484375</LongitudeDegrees>
            </Position>
            <AltitudeMeters>519</AltitudeMeters>
            <DistanceMeters>14196.274016335</DistanceMeters>
          </Trackpoint>
          <Trackpoint>
            <Time>2019-07-26T09:19:33.000Z</Time>
            <Position>
              <LatitudeDegrees>42.9660669900476932525634765625</LatitudeDegrees>
              <LongitudeDegrees>-7.6897760666906833648681640625</LongitudeDegrees>
            </Position>
            <AltitudeMeters>517.79998779296875</AltitudeMeters>
            <DistanceMeters>14207.365714197</DistanceMeters>
          </Trackpoint>
          <Trackpoint>
            <Time>2019-07-26T09:19:35.000Z</Time>
            <Position>
              <LatitudeDegrees>42.96607176773250102996826171875</LatitudeDegrees>
              <LongitudeDegrees>-7.68987908028066158294677734375</LongitudeDegrees>
            </Position>
            <AltitudeMeters>517</AltitudeMeters>
            <DistanceMeters>14215.772759357</DistanceMeters>
          </Trackpoint>
          <Trackpoint>
            <Time>2019-07-26T09:19:36.000Z</Time>
            <Position>
              <LatitudeDegrees>42.96607981435954570770263671875</LatitudeDegrees>
              <LongitudeDegrees>-7.68992300145328044891357421875</LongitudeDegrees>
            </Position>
            <AltitudeMeters>516.4000244140625</AltitudeMeters>
            <DistanceMeters>14219.460481571</DistanceMeters>
          </Trackpoint>
          <Trackpoint>
            <Time>2019-07-26T09:19:37.000Z</Time>
            <Position>
              <LatitudeDegrees>42.9660800658166408538818359375</LatitudeDegrees>
              <LongitudeDegrees>-7.68996574915945529937744140625</LongitudeDegrees>
            </Position>
            <AltitudeMeters>516</AltitudeMeters>
            <DistanceMeters>14222.941625433</DistanceMeters>
          </Trackpoint>
          <Trackpoint>
            <Time>2019-07-26T09:19:39.000Z</Time>
            <Position>
              <LatitudeDegrees>42.96607260592281818389892578125</LatitudeDegrees>
              <LongitudeDegrees>-7.69004805944859981536865234375</LongitudeDegrees>
            </Position>
            <AltitudeMeters>515.5999755859375</AltitudeMeters>
            <DistanceMeters>14229.696547806</DistanceMeters>
          </Trackpoint>
          <Trackpoint>
            <Time>2019-07-26T09:19:40.000Z</Time>
            <Position>
              <LatitudeDegrees>42.96606774441897869110107421875</LatitudeDegrees>
              <LongitudeDegrees>-7.6900851912796497344970703125</LongitudeDegrees>
            </Position>
            <AltitudeMeters>515.4000244140625</AltitudeMeters>
            <DistanceMeters>14232.768425064</DistanceMeters>
          </Trackpoint>
          <Trackpoint>
            <Time>2019-07-26T09:19:43.000Z</Time>
            <Position>
              <LatitudeDegrees>42.96605416573584079742431640625</LatitudeDegrees>
              <LongitudeDegrees>-7.6902125962078571319580078125</LongitudeDegrees>
            </Position>
            <AltitudeMeters>515.4000244140625</AltitudeMeters>
            <DistanceMeters>14243.255000812</DistanceMeters>
          </Trackpoint>
          <Trackpoint>
            <Time>2019-07-26T09:19:48.000Z</Time>
            <Position>
              <LatitudeDegrees>42.96599146910011768341064453125</LatitudeDegrees>
              <LongitudeDegrees>-7.69039875827729701995849609375</LongitudeDegrees>
            </Position>
            <AltitudeMeters>515.5999755859375</AltitudeMeters>
            <DistanceMeters>14259.945923147</DistanceMeters>
          </Trackpoint>
          <Trackpoint>
            <Time>2019-07-26T09:19:50.000Z</Time>
            <Position>
              <LatitudeDegrees>42.9659664072096347808837890625</LatitudeDegrees>
              <LongitudeDegrees>-7.6904727704823017120361328125</LongitudeDegrees>
            </Position>
            <AltitudeMeters>516.20001220703125</AltitudeMeters>
            <DistanceMeters>14266.588283684</DistanceMeters>
          </Trackpoint>
          <Trackpoint>
            <Time>2019-07-26T09:19:54.000Z</Time>
            <Position>
              <LatitudeDegrees>42.9659006930887699127197265625</LatitudeDegrees>
              <LongitudeDegrees>-7.690643928945064544677734375</LongitudeDegrees>
            </Position>
            <AltitudeMeters>516.5999755859375</AltitudeMeters>
            <DistanceMeters>14282.330628424</DistanceMeters>
          </Trackpoint>
          <Trackpoint>
            <Time>2019-07-26T09:19:56.000Z</Time>
            <Position>
              <LatitudeDegrees>42.96586574055254459381103515625</LatitudeDegrees>
              <LongitudeDegrees>-7.69073738716542720794677734375</LongitudeDegrees>
            </Position>
            <AltitudeMeters>517.20001220703125</AltitudeMeters>
            <DistanceMeters>14290.879864574</DistanceMeters>
          </Trackpoint>
          <Trackpoint>
            <Time>2019-07-26T09:19:57.000Z</Time>
            <Position>
              <LatitudeDegrees>42.965849228203296661376953125</LatitudeDegrees>
              <LongitudeDegrees>-7.69078281708061695098876953125</LongitudeDegrees>
            </Position>
            <AltitudeMeters>517.4000244140625</AltitudeMeters>
            <DistanceMeters>14295.012161097</DistanceMeters>
          </Trackpoint>
          <Trackpoint>
            <Time>2019-07-26T09:20:00.000Z</Time>
            <Position>
              <LatitudeDegrees>42.9658007808029651641845703125</LatitudeDegrees>
              <LongitudeDegrees>-7.69091072492301464080810546875</LongitudeDegrees>
            </Position>
            <AltitudeMeters>518</AltitudeMeters>
            <DistanceMeters>14306.74247673</DistanceMeters>
          </Trackpoint>
          <Trackpoint>
            <Time>2019-07-26T09:20:01.000Z</Time>
            <Position>
              <LatitudeDegrees>42.965790219604969024658203125</LatitudeDegrees>
              <LongitudeDegrees>-7.69096545875072479248046875</LongitudeDegrees>
            </Position>
            <AltitudeMeters>518.20001220703125</AltitudeMeters>
            <DistanceMeters>14311.352007061</DistanceMeters>
          </Trackpoint>
          <Trackpoint>
            <Time>2019-07-26T09:20:03.000Z</Time>
            <Position>
              <LatitudeDegrees>42.96576901338994503021240234375</LatitudeDegrees>
              <LongitudeDegrees>-7.691064365208148956298828125</LongitudeDegrees>
            </Position>
            <AltitudeMeters>518.5999755859375</AltitudeMeters>
            <DistanceMeters>14319.74561513</DistanceMeters>
          </Trackpoint>
          <Trackpoint>
            <Time>2019-07-26T09:20:07.000Z</Time>
            <Position>
              <LatitudeDegrees>42.96575342305004596710205078125</LatitudeDegrees>
              <LongitudeDegrees>-7.691256813704967498779296875</LongitudeDegrees>
            </Position>
            <AltitudeMeters>520</AltitudeMeters>
            <DistanceMeters>14335.51546945</DistanceMeters>
          </Trackpoint>
          <Trackpoint>
            <Time>2019-07-26T09:20:12.000Z</Time>
            <Position>
              <LatitudeDegrees>42.96568930149078369140625</LatitudeDegrees>
              <LongitudeDegrees>-7.69154942594468593597412109375</LongitudeDegrees>
            </Position>
            <AltitudeMeters>520.79998779296875</AltitudeMeters>
            <DistanceMeters>14360.393601202</DistanceMeters>
          </Trackpoint>
          <Trackpoint>
            <Time>2019-07-26T09:20:13.000Z</Time>
            <Position>
              <LatitudeDegrees>42.96568184159696102142333984375</LatitudeDegrees>
              <LongitudeDegrees>-7.6916056685149669647216796875</LongitudeDegrees>
            </Position>
            <AltitudeMeters>521</AltitudeMeters>
            <DistanceMeters>14365.048940445</DistanceMeters>
          </Trackpoint>
          <Trackpoint>
            <Time>2019-07-26T09:20:14.000Z</Time>
            <Position>
              <LatitudeDegrees>42.96566993929445743560791015625</LatitudeDegrees>
              <LongitudeDegrees>-7.69165738485753536224365234375</LongitudeDegrees>
            </Position>
            <AltitudeMeters>521</AltitudeMeters>
            <DistanceMeters>14369.465383031</DistanceMeters>
          </Trackpoint>
          <Trackpoint>
            <Time>2019-07-26T09:20:20.000Z</Time>
            <Position>
              <LatitudeDegrees>42.96560422517359256744384765625</LatitudeDegrees>
              <LongitudeDegrees>-7.6919781602919101715087890625</LongitudeDegrees>
            </Position>
            <AltitudeMeters>522</AltitudeMeters>
            <DistanceMeters>14396.596134057</DistanceMeters>
          </Trackpoint>
          <Trackpoint>
            <Time>2019-07-26T09:20:21.000Z</Time>
            <Position>
              <LatitudeDegrees>42.965600788593292236328125</LatitudeDegrees>
              <LongitudeDegrees>-7.69202585332095623016357421875</LongitudeDegrees>
            </Position>
            <AltitudeMeters>522.20001220703125</AltitudeMeters>
            <DistanceMeters>14400.500332956</DistanceMeters>
          </Trackpoint>
          <Trackpoint>
            <Time>2019-07-26T09:20:26.000Z</Time>
            <Position>
              <LatitudeDegrees>42.9656059853732585906982421875</LatitudeDegrees>
              <LongitudeDegrees>-7.6922564394772052764892578125</LongitudeDegrees>
            </Position>
            <AltitudeMeters>522.5999755859375</AltitudeMeters>
            <DistanceMeters>14419.289928447</DistanceMeters>
          </Trackpoint>
          <Trackpoint>
            <Time>2019-07-26T09:20:31.000Z</Time>
            <Position>
              <LatitudeDegrees>42.96560011804103851318359375</LatitudeDegrees>
              <LongitudeDegrees>-7.692443691194057464599609375</LongitudeDegrees>
            </Position>
            <AltitudeMeters>523.20001220703125</AltitudeMeters>
            <DistanceMeters>14434.555253622</DistanceMeters>
          </Trackpoint>
          <Trackpoint>
            <Time>2019-07-26T09:20:32.000Z</Time>
            <Position>
              <LatitudeDegrees>42.96559617854654788970947265625</LatitudeDegrees>
              <LongitudeDegrees>-7.69248367287218570709228515625</LongitudeDegrees>
            </Position>
            <AltitudeMeters>523.20001220703125</AltitudeMeters>
            <DistanceMeters>14437.84158462</DistanceMeters>
          </Trackpoint>
          <Trackpoint>
            <Time>2019-07-26T09:20:36.000Z</Time>
            <Position>
              <LatitudeDegrees>42.965536750853061676025390625</LatitudeDegrees>
              <LongitudeDegrees>-7.6927187852561473846435546875</LongitudeDegrees>
            </Position>
            <AltitudeMeters>523.4000244140625</AltitudeMeters>
            <DistanceMeters>14458.100780916</DistanceMeters>
          </Trackpoint>
          <Trackpoint>
            <Time>2019-07-26T09:20:42.000Z</Time>
            <Position>
              <LatitudeDegrees>42.965476401150226593017578125</LatitudeDegrees>
              <LongitudeDegrees>-7.693036459386348724365234375</LongitudeDegrees>
            </Position>
            <AltitudeMeters>523.79998779296875</AltitudeMeters>
            <DistanceMeters>14484.832016934</DistanceMeters>
          </Trackpoint>
          <Trackpoint>
            <Time>2019-07-26T09:20:46.000Z</Time>
            <Position>
              <LatitudeDegrees>42.96544865705072879791259765625</LatitudeDegrees>
              <LongitudeDegrees>-7.69323620013892650604248046875</LongitudeDegrees>
            </Position>
            <AltitudeMeters>524.20001220703125</AltitudeMeters>
            <DistanceMeters>14501.390677543</DistanceMeters>
          </Trackpoint>
          <Trackpoint>
            <Time>2019-07-26T09:20:47.000Z</Time>
            <Position>
              <LatitudeDegrees>42.9654386825859546661376953125</LatitudeDegrees>
              <LongitudeDegrees>-7.69328313879668712615966796875</LongitudeDegrees>
            </Position>
            <AltitudeMeters>524.4000244140625</AltitudeMeters>
            <DistanceMeters>14505.371605093</DistanceMeters>
          </Trackpoint>
          <Trackpoint>
            <Time>2019-07-26T09:20:52.000Z</Time>
            <Position>
              <LatitudeDegrees>42.96530834399163722991943359375</LatitudeDegrees>
              <LongitudeDegrees>-7.69364909268915653228759765625</LongitudeDegrees>
            </Position>
            <AltitudeMeters>524.5999755859375</AltitudeMeters>
            <DistanceMeters>14538.520404652</DistanceMeters>
          </Trackpoint>
          <Trackpoint>
            <Time>2019-07-26T09:20:56.000Z</Time>
            <Position>
              <LatitudeDegrees>42.965236343443393707275390625</LatitudeDegrees>
              <LongitudeDegrees>-7.69387624226510524749755859375</LongitudeDegrees>
            </Position>
            <AltitudeMeters>525.20001220703125</AltitudeMeters>
            <DistanceMeters>14558.682198253</DistanceMeters>
          </Trackpoint>
          <Trackpoint>
            <Time>2019-07-26T09:20:57.000Z</Time>
            <Position>
              <LatitudeDegrees>42.96522100456058979034423828125</LatitudeDegrees>
              <LongitudeDegrees>-7.69392971880733966827392578125</LongitudeDegrees>
            </Position>
            <AltitudeMeters>525.4000244140625</AltitudeMeters>
            <DistanceMeters>14563.361721239</DistanceMeters>
          </Trackpoint>
          <Trackpoint>
            <Time>2019-07-26T09:21:01.000Z</Time>
            <Position>
              <LatitudeDegrees>42.9651630856096744537353515625</LatitudeDegrees>
              <LongitudeDegrees>-7.69413021393120288848876953125</LongitudeDegrees>
            </Position>
            <AltitudeMeters>526</AltitudeMeters>
            <DistanceMeters>14580.918019233</DistanceMeters>
          </Trackpoint>
          <Trackpoint>
            <Time>2019-07-26T09:21:04.000Z</Time>
            <Position>
              <LatitudeDegrees>42.96512260101735591888427734375</LatitudeDegrees>
              <LongitudeDegrees>-7.6942509971559047698974609375</LongitudeDegrees>
            </Position>
            <AltitudeMeters>526.4000244140625</AltitudeMeters>
            <DistanceMeters>14591.738553932</DistanceMeters>
          </Trackpoint>
          <Trackpoint>
            <Time>2019-07-26T09:21:08.000Z</Time>
            <Position>
              <LatitudeDegrees>42.96505018137395381927490234375</LatitudeDegrees>
              <LongitudeDegrees>-7.694431208074092864990234375</LongitudeDegrees>
            </Position>
            <AltitudeMeters>527</AltitudeMeters>
            <DistanceMeters>14608.483760224</DistanceMeters>
          </Trackpoint>
          <Trackpoint>
            <Time>2019-07-26T09:21:10.000Z</Time>
            <Position>
              <LatitudeDegrees>42.96501145698130130767822265625</LatitudeDegrees>
              <LongitudeDegrees>-7.69450807012617588043212890625</LongitudeDegrees>
            </Position>
            <AltitudeMeters>527.5999755859375</AltitudeMeters>
            <DistanceMeters>14616.084709446</DistanceMeters>
          </Trackpoint>
          <Trackpoint>
            <Time>2019-07-26T09:21:14.000Z</Time>
            <Position>
              <LatitudeDegrees>42.9649575613439083099365234375</LatitudeDegrees>
              <LongitudeDegrees>-7.69462642259895801544189453125</LongitudeDegrees>
            </Position>
            <AltitudeMeters>528.4000244140625</AltitudeMeters>
            <DistanceMeters>14627.438314215</DistanceMeters>
          </Trackpoint>
          <Trackpoint>
            <Time>2019-07-26T09:21:15.000Z</Time>
            <Position>
              <LatitudeDegrees>42.964941971004009246826171875</LatitudeDegrees>
              <LongitudeDegrees>-7.69465425051748752593994140625</LongitudeDegrees>
            </Position>
            <AltitudeMeters>528.79998779296875</AltitudeMeters>
            <DistanceMeters>14630.293863029</DistanceMeters>
          </Trackpoint>
          <Trackpoint>
            <Time>2019-07-26T09:21:19.000Z</Time>
            <Position>
              <LatitudeDegrees>42.9648428969085216522216796875</LatitudeDegrees>
              <LongitudeDegrees>-7.69475013948976993560791015625</LongitudeDegrees>
            </Position>
            <AltitudeMeters>529.79998779296875</AltitudeMeters>
            <DistanceMeters>14643.806715273</DistanceMeters>
          </Trackpoint>
          <Trackpoint>
            <Time>2019-07-26T09:21:20.000Z</Time>
            <Position>
              <LatitudeDegrees>42.96481749974191188812255859375</LatitudeDegrees>
              <LongitudeDegrees>-7.69477629102766513824462890625</LongitudeDegrees>
            </Position>
            <AltitudeMeters>530.20001220703125</AltitudeMeters>
            <DistanceMeters>14647.347018382</DistanceMeters>
          </Trackpoint>
          <Trackpoint>
            <Time>2019-07-26T09:21:23.000Z</Time>
            <Position>
              <LatitudeDegrees>42.96474055387079715728759765625</LatitudeDegrees>
              <LongitudeDegrees>-7.69485860131680965423583984375</LongitudeDegrees>
            </Position>
            <AltitudeMeters>530.79998779296875</AltitudeMeters>
            <DistanceMeters>14658.223738085</DistanceMeters>
          </Trackpoint>
          <Trackpoint>
            <Time>2019-07-26T09:21:28.000Z</Time>
            <Position>
              <LatitudeDegrees>42.9646326787769794464111328125</LatitudeDegrees>
              <LongitudeDegrees>-7.69496597349643707275390625</LongitudeDegrees>
            </Position>
            <AltitudeMeters>532</AltitudeMeters>
            <DistanceMeters>14673.078027631</DistanceMeters>
          </Trackpoint>
          <Trackpoint>
            <Time>2019-07-26T09:21:32.000Z</Time>
            <Position>
              <LatitudeDegrees>42.96451491303741931915283203125</LatitudeDegrees>
              <LongitudeDegrees>-7.69504702650010585784912109375</LongitudeDegrees>
            </Position>
            <AltitudeMeters>533</AltitudeMeters>
            <DistanceMeters>14687.754041508</DistanceMeters>
          </Trackpoint>
          <Trackpoint>
            <Time>2019-07-26T09:21:34.000Z</Time>
            <Position>
              <LatitudeDegrees>42.96444634906947612762451171875</LatitudeDegrees>
              <LongitudeDegrees>-7.69509564153850078582763671875</LongitudeDegrees>
            </Position>
            <AltitudeMeters>533.4000244140625</AltitudeMeters>
            <DistanceMeters>14696.351727579</DistanceMeters>
          </Trackpoint>
          <Trackpoint>
            <Time>2019-07-26T09:21:40.000Z</Time>
            <Position>
              <LatitudeDegrees>42.96426161192357540130615234375</LatitudeDegrees>
              <LongitudeDegrees>-7.69518448971211910247802734375</LongitudeDegrees>
            </Position>
            <AltitudeMeters>534.20001220703125</AltitudeMeters>
            <DistanceMeters>14718.149745663</DistanceMeters>
          </Trackpoint>
          <Trackpoint>
            <Time>2019-07-26T09:21:41.000Z</Time>
            <Position>
              <LatitudeDegrees>42.9642296768724918365478515625</LatitudeDegrees>
              <LongitudeDegrees>-7.6951961405575275421142578125</LongitudeDegrees>
            </Position>
            <AltitudeMeters>534.20001220703125</AltitudeMeters>
            <DistanceMeters>14721.830114485</DistanceMeters>
          </Trackpoint>
          <Trackpoint>
            <Time>2019-07-26T09:21:45.000Z</Time>
            <Position>
              <LatitudeDegrees>42.96414979733526706695556640625</LatitudeDegrees>
              <LongitudeDegrees>-7.69519639201462268829345703125</LongitudeDegrees>
            </Position>
            <AltitudeMeters>535</AltitudeMeters>
            <DistanceMeters>14730.720573366</DistanceMeters>
          </Trackpoint>
          <Trackpoint>
            <Time>2019-07-26T09:21:47.000Z</Time>
            <Position>
              <LatitudeDegrees>42.96410637907683849334716796875</LatitudeDegrees>
              <LongitudeDegrees>-7.69515716470777988433837890625</LongitudeDegrees>
            </Position>
            <AltitudeMeters>535.20001220703125</AltitudeMeters>
            <DistanceMeters>14736.512527612</DistanceMeters>
          </Trackpoint>
          <Trackpoint>
            <Time>2019-07-26T09:21:50.000Z</Time>
            <Position>
              <LatitudeDegrees>42.96405474655330181121826171875</LatitudeDegrees>
              <LongitudeDegrees>-7.6950727589428424835205078125</LongitudeDegrees>
            </Position>
            <AltitudeMeters>535.5999755859375</AltitudeMeters>
            <DistanceMeters>14745.472292095</DistanceMeters>
          </Trackpoint>
          <Trackpoint>
            <Time>2019-07-26T09:21:53.000Z</Time>
            <Position>
              <LatitudeDegrees>42.9640169441699981689453125</LatitudeDegrees>
              <LongitudeDegrees>-7.69498533569276332855224609375</LongitudeDegrees>
            </Position>
            <AltitudeMeters>536.4000244140625</AltitudeMeters>
            <DistanceMeters>14753.74289238</DistanceMeters>
          </Trackpoint>
          <Trackpoint>
            <Time>2019-07-26T09:21:56.000Z</Time>
            <Position>
              <LatitudeDegrees>42.96397469937801361083984375</LatitudeDegrees>
              <LongitudeDegrees>-7.69492171704769134521484375</LongitudeDegrees>
            </Position>
            <AltitudeMeters>536.79998779296875</AltitudeMeters>
            <DistanceMeters>14760.73882079</DistanceMeters>
          </Trackpoint>
          <Trackpoint>
            <Time>2019-07-26T09:21:59.000Z</Time>
            <Position>
              <LatitudeDegrees>42.96392750926315784454345703125</LatitudeDegrees>
              <LongitudeDegrees>-7.69485197961330413818359375</LongitudeDegrees>
            </Position>
            <AltitudeMeters>537.5999755859375</AltitudeMeters>
            <DistanceMeters>14768.475186001</DistanceMeters>
          </Trackpoint>
          <Trackpoint>
            <Time>2019-07-26T09:22:03.000Z</Time>
            <Position>
              <LatitudeDegrees>42.9638675786554813385009765625</LatitudeDegrees>
              <LongitudeDegrees>-7.6947317831218242645263671875</LongitudeDegrees>
            </Position>
            <AltitudeMeters>538.4000244140625</AltitudeMeters>
            <DistanceMeters>14780.321934419</DistanceMeters>
          </Trackpoint>
          <Trackpoint>
            <Time>2019-07-26T09:22:04.000Z</Time>
            <Position>
              <LatitudeDegrees>42.9638548381626605987548828125</LatitudeDegrees>
              <LongitudeDegrees>-7.69470336847007274627685546875</LongitudeDegrees>
            </Position>
            <AltitudeMeters>538.5999755859375</AltitudeMeters>
            <DistanceMeters>14783.036440337</DistanceMeters>
          </Trackpoint>
          <Trackpoint>
            <Time>2019-07-26T09:22:09.000Z</Time>
            <Position>
              <LatitudeDegrees>42.96375903300940990447998046875</LatitudeDegrees>
              <LongitudeDegrees>-7.6946147717535495758056640625</LongitudeDegrees>
            </Position>
            <AltitudeMeters>540</AltitudeMeters>
            <DistanceMeters>14795.911771143</DistanceMeters>
          </Trackpoint>
          <Trackpoint>
            <Time>2019-07-26T09:22:10.000Z</Time>
            <Position>
              <LatitudeDegrees>42.963747717440128326416015625</LatitudeDegrees>
              <LongitudeDegrees>-7.694613933563232421875</LongitudeDegrees>
            </Position>
            <AltitudeMeters>540.20001220703125</AltitudeMeters>
            <DistanceMeters>14797.176019351</DistanceMeters>
          </Trackpoint>
          <Trackpoint>
            <Time>2019-07-26T09:22:12.000Z</Time>
            <Position>
              <LatitudeDegrees>42.96373422257602214813232421875</LatitudeDegrees>
              <LongitudeDegrees>-7.69462709315121173858642578125</LongitudeDegrees>
            </Position>
            <AltitudeMeters>540.5999755859375</AltitudeMeters>
            <DistanceMeters>14799.021104395</DistanceMeters>
          </Trackpoint>
          <Trackpoint>
            <Time>2019-07-26T09:22:13.000Z</Time>
            <Position>
              <LatitudeDegrees>42.96372617594897747039794921875</LatitudeDegrees>
              <LongitudeDegrees>-7.6946375705301761627197265625</LongitudeDegrees>
            </Position>
            <AltitudeMeters>541</AltitudeMeters>
            <DistanceMeters>14800.260101164</DistanceMeters>
          </Trackpoint>
          <Trackpoint>
            <Time>2019-07-26T09:22:14.000Z</Time>
            <Position>
              <LatitudeDegrees>42.96371863223612308502197265625</LatitudeDegrees>
              <LongitudeDegrees>-7.6946462877094745635986328125</LongitudeDegrees>
            </Position>
            <AltitudeMeters>541.4000244140625</AltitudeMeters>
            <DistanceMeters>14801.360114911</DistanceMeters>
          </Trackpoint>
          <Trackpoint>
            <Time>2019-07-26T09:22:18.000Z</Time>
            <Position>
              <LatitudeDegrees>42.96367697417736053466796875</LatitudeDegrees>
              <LongitudeDegrees>-7.6947257481515407562255859375</LongitudeDegrees>
            </Position>
            <AltitudeMeters>542.5999755859375</AltitudeMeters>
            <DistanceMeters>14809.321970011</DistanceMeters>
          </Trackpoint>
          <Trackpoint>
            <Time>2019-07-26T09:22:19.000Z</Time>
            <Position>
              <LatitudeDegrees>42.96366515569388866424560546875</LatitudeDegrees>
              <LongitudeDegrees>-7.6947535760700702667236328125</LongitudeDegrees>
            </Position>
            <AltitudeMeters>542.79998779296875</AltitudeMeters>
            <DistanceMeters>14811.943398663</DistanceMeters>
          </Trackpoint>
          <Trackpoint>
            <Time>2019-07-26T09:22:26.000Z</Time>
            <Position>
              <LatitudeDegrees>42.96356122009456157684326171875</LatitudeDegrees>
              <LongitudeDegrees>-7.69496806897222995758056640625</LongitudeDegrees>
            </Position>
            <AltitudeMeters>543.5999755859375</AltitudeMeters>
            <DistanceMeters>14832.896519829</DistanceMeters>
          </Trackpoint>
          <Trackpoint>
            <Time>2019-07-26T09:22:30.000Z</Time>
            <Position>
              <LatitudeDegrees>42.96345443464815616607666015625</LatitudeDegrees>
              <LongitudeDegrees>-7.6951146684587001800537109375</LongitudeDegrees>
            </Position>
            <AltitudeMeters>543.79998779296875</AltitudeMeters>
            <DistanceMeters>14849.744142595</DistanceMeters>
          </Trackpoint>
          <Trackpoint>
            <Time>2019-07-26T09:22:32.000Z</Time>
            <Position>
              <LatitudeDegrees>42.96341017819941043853759765625</LatitudeDegrees>
              <LongitudeDegrees>-7.69517711363732814788818359375</LongitudeDegrees>
            </Position>
            <AltitudeMeters>544</AltitudeMeters>
            <DistanceMeters>14856.824111122</DistanceMeters>
          </Trackpoint>
          <Trackpoint>
            <Time>2019-07-26T09:22:35.000Z</Time>
            <Position>
              <LatitudeDegrees>42.96332702971994876861572265625</LatitudeDegrees>
              <LongitudeDegrees>-7.6952702365815639495849609375</LongitudeDegrees>
            </Position>
            <AltitudeMeters>544.20001220703125</AltitudeMeters>
            <DistanceMeters>14868.789932953</DistanceMeters>
          </Trackpoint>
          <Trackpoint>
            <Time>2019-07-26T09:22:38.000Z</Time>
            <Position>
              <LatitudeDegrees>42.963230051100254058837890625</LatitudeDegrees>
              <LongitudeDegrees>-7.6953356154263019561767578125</LongitudeDegrees>
            </Position>
            <AltitudeMeters>544.4000244140625</AltitudeMeters>
            <DistanceMeters>14880.825733148</DistanceMeters>
          </Trackpoint>
          <Trackpoint>
            <Time>2019-07-26T09:22:39.000Z</Time>
            <Position>
              <LatitudeDegrees>42.96319576911628246307373046875</LatitudeDegrees>
              <LongitudeDegrees>-7.69535967148840427398681640625</LongitudeDegrees>
            </Position>
            <AltitudeMeters>544.4000244140625</AltitudeMeters>
            <DistanceMeters>14885.116691766</DistanceMeters>
          </Trackpoint>
          <Trackpoint>
            <Time>2019-07-26T09:22:41.000Z</Time>
            <Position>
              <LatitudeDegrees>42.96314430423080921173095703125</LatitudeDegrees>
              <LongitudeDegrees>-7.6953738369047641754150390625</LongitudeDegrees>
            </Position>
            <AltitudeMeters>544.5999755859375</AltitudeMeters>
            <DistanceMeters>14890.959096148</DistanceMeters>
          </Trackpoint>
          <Trackpoint>
            <Time>2019-07-26T09:22:43.000Z</Time>
            <Position>
              <LatitudeDegrees>42.9630907438695430755615234375</LatitudeDegrees>
              <LongitudeDegrees>-7.69539973698556423187255859375</LongitudeDegrees>
            </Position>
            <AltitudeMeters>544.79998779296875</AltitudeMeters>
            <DistanceMeters>14897.282479617</DistanceMeters>
          </Trackpoint>
          <Trackpoint>
            <Time>2019-07-26T09:22:44.000Z</Time>
            <Position>
              <LatitudeDegrees>42.96307741664350032806396484375</LatitudeDegrees>
              <LongitudeDegrees>-7.69542329013347625732421875</LongitudeDegrees>
            </Position>
            <AltitudeMeters>545</AltitudeMeters>
            <DistanceMeters>14899.708919363</DistanceMeters>
          </Trackpoint>
          <Trackpoint>
            <Time>2019-07-26T09:22:48.000Z</Time>
            <Position>
              <LatitudeDegrees>42.963033579289913177490234375</LatitudeDegrees>
              <LongitudeDegrees>-7.69558263011276721954345703125</LongitudeDegrees>
            </Position>
            <AltitudeMeters>545.4000244140625</AltitudeMeters>
            <DistanceMeters>14913.574355796</DistanceMeters>
          </Trackpoint>
          <Trackpoint>
            <Time>2019-07-26T09:22:49.000Z</Time>
            <Position>
              <LatitudeDegrees>42.963026203215122222900390625</LatitudeDegrees>
              <LongitudeDegrees>-7.69562579691410064697265625</LongitudeDegrees>
            </Position>
            <AltitudeMeters>545.5999755859375</AltitudeMeters>
            <DistanceMeters>14917.185370943</DistanceMeters>
          </Trackpoint>
          <Trackpoint>
            <Time>2019-07-26T09:22:56.000Z</Time>
            <Position>
              <LatitudeDegrees>42.962975241243839263916015625</LatitudeDegrees>
              <LongitudeDegrees>-7.69593290984630584716796875</LongitudeDegrees>
            </Position>
            <AltitudeMeters>546</AltitudeMeters>
            <DistanceMeters>14942.834839736</DistanceMeters>
          </Trackpoint>
          <Trackpoint>
            <Time>2019-07-26T09:22:59.000Z</Time>
            <Position>
              <LatitudeDegrees>42.9629519395530223846435546875</LatitudeDegrees>
              <LongitudeDegrees>-7.69608705304563045501708984375</LongitudeDegrees>
            </Position>
            <AltitudeMeters>546</AltitudeMeters>
            <DistanceMeters>14955.654644387</DistanceMeters>
          </Trackpoint>
          <Trackpoint>
            <Time>2019-07-26T09:23:01.000Z</Time>
            <Position>
              <LatitudeDegrees>42.962932996451854705810546875</LatitudeDegrees>
              <LongitudeDegrees>-7.6961848698556423187255859375</LongitudeDegrees>
            </Position>
            <AltitudeMeters>546</AltitudeMeters>
            <DistanceMeters>14963.895712578</DistanceMeters>
          </Trackpoint>
          <Trackpoint>
            <Time>2019-07-26T09:23:02.000Z</Time>
            <Position>
              <LatitudeDegrees>42.962923608720302581787109375</LatitudeDegrees>
              <LongitudeDegrees>-7.69625083543360233306884765625</LongitudeDegrees>
            </Position>
            <AltitudeMeters>546</AltitudeMeters>
            <DistanceMeters>14969.369449295</DistanceMeters>
          </Trackpoint>
          <Trackpoint>
            <Time>2019-07-26T09:23:05.000Z</Time>
            <Position>
              <LatitudeDegrees>42.96291531063616275787353515625</LatitudeDegrees>
              <LongitudeDegrees>-7.6964349858462810516357421875</LongitudeDegrees>
            </Position>
            <AltitudeMeters>546</AltitudeMeters>
            <DistanceMeters>14984.397196358</DistanceMeters>
          </Trackpoint>
          <Trackpoint>
            <Time>2019-07-26T09:23:12.000Z</Time>
            <Position>
              <LatitudeDegrees>42.962908186018466949462890625</LatitudeDegrees>
              <LongitudeDegrees>-7.69683756865561008453369140625</LongitudeDegrees>
            </Position>
            <AltitudeMeters>546</AltitudeMeters>
            <DistanceMeters>15017.197246777</DistanceMeters>
          </Trackpoint>
          <Trackpoint>
            <Time>2019-07-26T09:23:16.000Z</Time>
            <Position>
              <LatitudeDegrees>42.96290022321045398712158203125</LatitudeDegrees>
              <LongitudeDegrees>-7.69702197052538394927978515625</LongitudeDegrees>
            </Position>
            <AltitudeMeters>546.4000244140625</AltitudeMeters>
            <DistanceMeters>15032.243009848</DistanceMeters>
          </Trackpoint>
          <Trackpoint>
            <Time>2019-07-26T09:23:17.000Z</Time>
            <Position>
              <LatitudeDegrees>42.96289779245853424072265625</LatitudeDegrees>
              <LongitudeDegrees>-7.6970726810395717620849609375</LongitudeDegrees>
            </Position>
            <AltitudeMeters>546.5999755859375</AltitudeMeters>
            <DistanceMeters>15036.38294766</DistanceMeters>
          </Trackpoint>
          <Trackpoint>
            <Time>2019-07-26T09:23:19.000Z</Time>
            <Position>
              <LatitudeDegrees>42.96287524513900279998779296875</LatitudeDegrees>
              <LongitudeDegrees>-7.69718675874173641204833984375</LongitudeDegrees>
            </Position>
            <AltitudeMeters>547</AltitudeMeters>
            <DistanceMeters>15046.007892036</DistanceMeters>
          </Trackpoint>
          <Trackpoint>
            <Time>2019-07-26T09:23:21.000Z</Time>
            <Position>
              <LatitudeDegrees>42.96285311691462993621826171875</LatitudeDegrees>
              <LongitudeDegrees>-7.6972969807684421539306640625</LongitudeDegrees>
            </Position>
            <AltitudeMeters>547.5999755859375</AltitudeMeters>
            <DistanceMeters>15055.317600609</DistanceMeters>
          </Trackpoint>
          <Trackpoint>
            <Time>2019-07-26T09:23:26.000Z</Time>
            <Position>
              <LatitudeDegrees>42.96282981522381305694580078125</LatitudeDegrees>
              <LongitudeDegrees>-7.697513066232204437255859375</LongitudeDegrees>
            </Position>
            <AltitudeMeters>548.79998779296875</AltitudeMeters>
            <DistanceMeters>15073.10765736</DistanceMeters>
          </Trackpoint>
          <Trackpoint>
            <Time>2019-07-26T09:23:27.000Z</Time>
            <Position>
              <LatitudeDegrees>42.96282445080578327178955078125</LatitudeDegrees>
              <LongitudeDegrees>-7.69755237735807895660400390625</LongitudeDegrees>
            </Position>
            <AltitudeMeters>549</AltitudeMeters>
            <DistanceMeters>15076.365009018</DistanceMeters>
          </Trackpoint>
          <Trackpoint>
            <Time>2019-07-26T09:23:31.000Z</Time>
            <Position>
              <LatitudeDegrees>42.962808944284915924072265625</LatitudeDegrees>
              <LongitudeDegrees>-7.69770459271967411041259765625</LongitudeDegrees>
            </Position>
            <AltitudeMeters>549.79998779296875</AltitudeMeters>
            <DistanceMeters>15088.882592109</DistanceMeters>
          </Trackpoint>
          <Trackpoint>
            <Time>2019-07-26T09:23:33.000Z</Time>
            <Position>
              <LatitudeDegrees>42.96281171031296253204345703125</LatitudeDegrees>
              <LongitudeDegrees>-7.697769217193126678466796875</LongitudeDegrees>
            </Position>
            <AltitudeMeters>550.20001220703125</AltitudeMeters>
            <DistanceMeters>15094.154648188</DistanceMeters>
          </Trackpoint>
          <Trackpoint>
            <Time>2019-07-26T09:23:37.000Z</Time>
            <Position>
              <LatitudeDegrees>42.96279310248792171478271484375</LatitudeDegrees>
              <LongitudeDegrees>-7.6978941075503826141357421875</LongitudeDegrees>
            </Position>
            <AltitudeMeters>551</AltitudeMeters>
            <DistanceMeters>15104.535637172</DistanceMeters>
          </Trackpoint>
          <Trackpoint>
            <Time>2019-07-26T09:23:39.000Z</Time>
            <Position>
              <LatitudeDegrees>42.9627913422882556915283203125</LatitudeDegrees>
              <LongitudeDegrees>-7.69795973785221576690673828125</LongitudeDegrees>
            </Position>
            <AltitudeMeters>551.4000244140625</AltitudeMeters>
            <DistanceMeters>15109.884214756</DistanceMeters>
          </Trackpoint>
          <Trackpoint>
            <Time>2019-07-26T09:23:42.000Z</Time>
            <Position>
              <LatitudeDegrees>42.96277952380478382110595703125</LatitudeDegrees>
              <LongitudeDegrees>-7.69805730320513248443603515625</LongitudeDegrees>
            </Position>
            <AltitudeMeters>552</AltitudeMeters>
            <DistanceMeters>15117.939655732</DistanceMeters>
          </Trackpoint>
          <Trackpoint>
            <Time>2019-07-26T09:23:46.000Z</Time>
            <Position>
              <LatitudeDegrees>42.9627697169780731201171875</LatitudeDegrees>
              <LongitudeDegrees>-7.69819795154035091400146484375</LongitudeDegrees>
            </Position>
            <AltitudeMeters>553.20001220703125</AltitudeMeters>
            <DistanceMeters>15129.446916091</DistanceMeters>
          </Trackpoint>
          <Trackpoint>
            <Time>2019-07-26T09:23:47.000Z</Time>
            <Position>
              <LatitudeDegrees>42.96276493929326534271240234375</LatitudeDegrees>
              <LongitudeDegrees>-7.6982416212558746337890625</LongitudeDegrees>
            </Position>
            <AltitudeMeters>553.20001220703125</AltitudeMeters>
            <DistanceMeters>15133.042895717</DistanceMeters>
          </Trackpoint>
          <Trackpoint>
            <Time>2019-07-26T09:23:53.000Z</Time>
            <Position>
              <LatitudeDegrees>42.96271967701613903045654296875</LatitudeDegrees>
              <LongitudeDegrees>-7.69852249883115291595458984375</LongitudeDegrees>
            </Position>
            <AltitudeMeters>554.20001220703125</AltitudeMeters>
            <DistanceMeters>15156.468474589</DistanceMeters>
          </Trackpoint>
          <Trackpoint>
            <Time>2019-07-26T09:23:59.000Z</Time>
            <Position>
              <LatitudeDegrees>42.96264960430562496185302734375</LatitudeDegrees>
              <LongitudeDegrees>-7.698791138827800750732421875</LongitudeDegrees>
            </Position>
            <AltitudeMeters>555.4000244140625</AltitudeMeters>
            <DistanceMeters>15179.697793305</DistanceMeters>
          </Trackpoint>
          <Trackpoint>
            <Time>2019-07-26T09:24:01.000Z</Time>
            <Position>
              <LatitudeDegrees>42.96261138282716274261474609375</LatitudeDegrees>
              <LongitudeDegrees>-7.69887319765985012054443359375</LongitudeDegrees>
            </Position>
            <AltitudeMeters>555.79998779296875</AltitudeMeters>
            <DistanceMeters>15187.619853093</DistanceMeters>
          </Trackpoint>
          <Trackpoint>
            <Time>2019-07-26T09:24:05.000Z</Time>
            <Position>
              <LatitudeDegrees>42.96254533343017101287841796875</LatitudeDegrees>
              <LongitudeDegrees>-7.69904787652194499969482421875</LongitudeDegrees>
            </Position>
            <AltitudeMeters>556.5999755859375</AltitudeMeters>
            <DistanceMeters>15203.634321585</DistanceMeters>
          </Trackpoint>
          <Trackpoint>
            <Time>2019-07-26T09:24:09.000Z</Time>
            <Position>
              <LatitudeDegrees>42.96245925128459930419921875</LatitudeDegrees>
              <LongitudeDegrees>-7.69921434111893177032470703125</LongitudeDegrees>
            </Position>
            <AltitudeMeters>557</AltitudeMeters>
            <DistanceMeters>15220.236551959</DistanceMeters>
          </Trackpoint>
          <Trackpoint>
            <Time>2019-07-26T09:24:16.000Z</Time>
            <Position>
              <LatitudeDegrees>42.96231533400714397430419921875</LatitudeDegrees>
              <LongitudeDegrees>-7.69952447153627872467041015625</LongitudeDegrees>
            </Position>
            <AltitudeMeters>557.5999755859375</AltitudeMeters>
            <DistanceMeters>15250.147785867</DistanceMeters>
          </Trackpoint>
          <Trackpoint>
            <Time>2019-07-26T09:24:17.000Z</Time>
            <Position>
              <LatitudeDegrees>42.96229488216340541839599609375</LatitudeDegrees>
              <LongitudeDegrees>-7.69957543350756168365478515625</LongitudeDegrees>
            </Position>
            <AltitudeMeters>557.5999755859375</AltitudeMeters>
            <DistanceMeters>15254.881985877</DistanceMeters>
          </Trackpoint>
          <Trackpoint>
            <Time>2019-07-26T09:24:24.000Z</Time>
            <Position>
              <LatitudeDegrees>42.96218834817409515380859375</LatitudeDegrees>
              <LongitudeDegrees>-7.6999634318053722381591796875</LongitudeDegrees>
            </Position>
            <AltitudeMeters>558</AltitudeMeters>
            <DistanceMeters>15288.636138289</DistanceMeters>
          </Trackpoint>
          <Trackpoint>
            <Time>2019-07-26T09:24:25.000Z</Time>
            <Position>
              <LatitudeDegrees>42.96217837370932102203369140625</LatitudeDegrees>
              <LongitudeDegrees>-7.700021602213382720947265625</LongitudeDegrees>
            </Position>
            <AltitudeMeters>558.20001220703125</AltitudeMeters>
            <DistanceMeters>15293.502025715</DistanceMeters>
          </Trackpoint>
          <Trackpoint>
            <Time>2019-07-26T09:24:30.000Z</Time>
            <Position>
              <LatitudeDegrees>42.96213562600314617156982421875</LatitudeDegrees>
              <LongitudeDegrees>-7.70033751614391803741455078125</LongitudeDegrees>
            </Position>
            <AltitudeMeters>558.4000244140625</AltitudeMeters>
            <DistanceMeters>15319.669594701</DistanceMeters>
          </Trackpoint>
          <Trackpoint>
            <Time>2019-07-26T09:24:31.000Z</Time>
            <Position>
              <LatitudeDegrees>42.96212523244321346282958984375</LatitudeDegrees>
              <LongitudeDegrees>-7.70040423609316349029541015625</LongitudeDegrees>
            </Position>
            <AltitudeMeters>558.4000244140625</AltitudeMeters>
            <DistanceMeters>15325.225204594</DistanceMeters>
          </Trackpoint>
          <Trackpoint>
            <Time>2019-07-26T09:24:33.000Z</Time>
            <Position>
              <LatitudeDegrees>42.96210243366658687591552734375</LatitudeDegrees>
              <LongitudeDegrees>-7.700542621314525604248046875</LongitudeDegrees>
            </Position>
            <AltitudeMeters>558.5999755859375</AltitudeMeters>
            <DistanceMeters>15336.779452737</DistanceMeters>
          </Trackpoint>
          <Trackpoint>
            <Time>2019-07-26T09:24:38.000Z</Time>
            <Position>
              <LatitudeDegrees>42.9620473645627498626708984375</LatitudeDegrees>
              <LongitudeDegrees>-7.70088066346943378448486328125</LongitudeDegrees>
            </Position>
            <AltitudeMeters>558.79998779296875</AltitudeMeters>
            <DistanceMeters>15364.987505062</DistanceMeters>
          </Trackpoint>
          <Trackpoint>
            <Time>2019-07-26T09:24:41.000Z</Time>
            <Position>
              <LatitudeDegrees>42.96200453303754329681396484375</LatitudeDegrees>
              <LongitudeDegrees>-7.70108467899262905120849609375</LongitudeDegrees>
            </Position>
            <AltitudeMeters>558.79998779296875</AltitudeMeters>
            <DistanceMeters>15382.275316955</DistanceMeters>
          </Trackpoint>
          <Trackpoint>
            <Time>2019-07-26T09:24:44.000Z</Time>
            <Position>
              <LatitudeDegrees>42.96195893548429012298583984375</LatitudeDegrees>
              <LongitudeDegrees>-7.7012840844690799713134765625</LongitudeDegrees>
            </Position>
            <AltitudeMeters>559.20001220703125</AltitudeMeters>
            <DistanceMeters>15399.291733477</DistanceMeters>
          </Trackpoint>
          <Trackpoint>
            <Time>2019-07-26T09:24:50.000Z</Time>
            <Position>
              <LatitudeDegrees>42.96192658133804798126220703125</LatitudeDegrees>
              <LongitudeDegrees>-7.70161525346338748931884765625</LongitudeDegrees>
            </Position>
            <AltitudeMeters>559.5999755859375</AltitudeMeters>
            <DistanceMeters>15426.505400253</DistanceMeters>
          </Trackpoint>
          <Trackpoint>
            <Time>2019-07-26T09:24:53.000Z</Time>
            <Position>
              <LatitudeDegrees>42.96193932183086872100830078125</LatitudeDegrees>
              <LongitudeDegrees>-7.70173410885035991668701171875</LongitudeDegrees>
            </Position>
            <AltitudeMeters>559.5999755859375</AltitudeMeters>
            <DistanceMeters>15436.289922238</DistanceMeters>
          </Trackpoint>
          <Trackpoint>
            <Time>2019-07-26T09:24:56.000Z</Time>
            <Position>
              <LatitudeDegrees>42.96193731017410755157470703125</LatitudeDegrees>
              <LongitudeDegrees>-7.7018379606306552886962890625</LongitudeDegrees>
            </Position>
            <AltitudeMeters>560.4000244140625</AltitudeMeters>
            <DistanceMeters>15444.752103174</DistanceMeters>
          </Trackpoint>
          <Trackpoint>
            <Time>2019-07-26T09:24:58.000Z</Time>
            <Position>
              <LatitudeDegrees>42.9619276709854602813720703125</LatitudeDegrees>
              <LongitudeDegrees>-7.70191314630210399627685546875</LongitudeDegrees>
            </Position>
            <AltitudeMeters>560.79998779296875</AltitudeMeters>
            <DistanceMeters>15450.970365579</DistanceMeters>
          </Trackpoint>
          <Trackpoint>
            <Time>2019-07-26T09:25:01.000Z</Time>
            <Position>
              <LatitudeDegrees>42.9619253240525722503662109375</LatitudeDegrees>
              <LongitudeDegrees>-7.7020253799855709075927734375</LongitudeDegrees>
            </Position>
            <AltitudeMeters>562.20001220703125</AltitudeMeters>
            <DistanceMeters>15460.116655984</DistanceMeters>
          </Trackpoint>
          <Trackpoint>
            <Time>2019-07-26T09:25:05.000Z</Time>
            <Position>
              <LatitudeDegrees>42.961907722055912017822265625</LatitudeDegrees>
              <LongitudeDegrees>-7.70219578407704830169677734375</LongitudeDegrees>
            </Position>
            <AltitudeMeters>563.4000244140625</AltitudeMeters>
            <DistanceMeters>15474.134304268</DistanceMeters>
          </Trackpoint>
          <Trackpoint>
            <Time>2019-07-26T09:25:08.000Z</Time>
            <Position>
              <LatitudeDegrees>42.96188903041183948516845703125</LatitudeDegrees>
              <LongitudeDegrees>-7.70232821814715862274169921875</LongitudeDegrees>
            </Position>
            <AltitudeMeters>564</AltitudeMeters>
            <DistanceMeters>15485.120477476</DistanceMeters>
          </Trackpoint>
          <Trackpoint>
            <Time>2019-07-26T09:25:11.000Z</Time>
            <Position>
              <LatitudeDegrees>42.9618518985807895660400390625</LatitudeDegrees>
              <LongitudeDegrees>-7.70245998166501522064208984375</LongitudeDegrees>
            </Position>
            <AltitudeMeters>564.4000244140625</AltitudeMeters>
            <DistanceMeters>15496.621458293</DistanceMeters>
          </Trackpoint>
          <Trackpoint>
            <Time>2019-07-26T09:25:13.000Z</Time>
            <Position>
              <LatitudeDegrees>42.96183505095541477203369140625</LatitudeDegrees>
              <LongitudeDegrees>-7.7025618217885494232177734375</LongitudeDegrees>
            </Position>
            <AltitudeMeters>565</AltitudeMeters>
            <DistanceMeters>15505.126216509</DistanceMeters>
          </Trackpoint>
          <Trackpoint>
            <Time>2019-07-26T09:25:16.000Z</Time>
            <Position>
              <LatitudeDegrees>42.96182448975741863250732421875</LatitudeDegrees>
              <LongitudeDegrees>-7.702711857855319976806640625</LongitudeDegrees>
            </Position>
            <AltitudeMeters>565.4000244140625</AltitudeMeters>
            <DistanceMeters>15517.403432643</DistanceMeters>
          </Trackpoint>
          <Trackpoint>
            <Time>2019-07-26T09:25:22.000Z</Time>
            <Position>
              <LatitudeDegrees>42.9617741145193576812744140625</LatitudeDegrees>
              <LongitudeDegrees>-7.70302056334912776947021484375</LongitudeDegrees>
            </Position>
            <AltitudeMeters>566.5999755859375</AltitudeMeters>
            <DistanceMeters>15543.165488625</DistanceMeters>
          </Trackpoint>
          <Trackpoint>
            <Time>2019-07-26T09:25:28.000Z</Time>
            <Position>
              <LatitudeDegrees>42.9617536626756191253662109375</LatitudeDegrees>
              <LongitudeDegrees>-7.70332952030003070831298828125</LongitudeDegrees>
            </Position>
            <AltitudeMeters>567.20001220703125</AltitudeMeters>
            <DistanceMeters>15568.433304614</DistanceMeters>
          </Trackpoint>
          <Trackpoint>
            <Time>2019-07-26T09:25:32.000Z</Time>
            <Position>
              <LatitudeDegrees>42.9617436043918132781982421875</LatitudeDegrees>
              <LongitudeDegrees>-7.7035389840602874755859375</LongitudeDegrees>
            </Position>
            <AltitudeMeters>567.4000244140625</AltitudeMeters>
            <DistanceMeters>15585.531248783</DistanceMeters>
          </Trackpoint>
          <Trackpoint>
            <Time>2019-07-26T09:25:33.000Z</Time>
            <Position>
              <LatitudeDegrees>42.96174041926860809326171875</LatitudeDegrees>
              <LongitudeDegrees>-7.70359103567898273468017578125</LongitudeDegrees>
            </Position>
            <AltitudeMeters>567.4000244140625</AltitudeMeters>
            <DistanceMeters>15589.786281482</DistanceMeters>
          </Trackpoint>
          <Trackpoint>
            <Time>2019-07-26T09:25:34.000Z</Time>
            <Position>
              <LatitudeDegrees>42.9617365635931491851806640625</LatitudeDegrees>
              <LongitudeDegrees>-7.7036410756409168243408203125</LongitudeDegrees>
            </Position>
            <AltitudeMeters>567.4000244140625</AltitudeMeters>
            <DistanceMeters>15593.886769543</DistanceMeters>
          </Trackpoint>
          <Trackpoint>
            <Time>2019-07-26T09:25:42.000Z</Time>
            <Position>
              <LatitudeDegrees>42.96169423498213291168212890625</LatitudeDegrees>
              <LongitudeDegrees>-7.70402655936777591705322265625</LongitudeDegrees>
            </Position>
            <AltitudeMeters>568.20001220703125</AltitudeMeters>
            <DistanceMeters>15625.636643931</DistanceMeters>
          </Trackpoint>
          <Trackpoint>
            <Time>2019-07-26T09:25:46.000Z</Time>
            <Position>
              <LatitudeDegrees>42.9616701789200305938720703125</LatitudeDegrees>
              <LongitudeDegrees>-7.70422772504389286041259765625</LongitudeDegrees>
            </Position>
            <AltitudeMeters>568.4000244140625</AltitudeMeters>
            <DistanceMeters>15642.239690146</DistanceMeters>
          </Trackpoint>
          <Trackpoint>
            <Time>2019-07-26T09:25:51.000Z</Time>
            <Position>
              <LatitudeDegrees>42.96163271181285381317138671875</LatitudeDegrees>
              <LongitudeDegrees>-7.70450550131499767303466796875</LongitudeDegrees>
            </Position>
            <AltitudeMeters>568.79998779296875</AltitudeMeters>
            <DistanceMeters>15665.24636224</DistanceMeters>
          </Trackpoint>
          <Trackpoint>
            <Time>2019-07-26T09:25:57.000Z</Time>
            <Position>
              <LatitudeDegrees>42.96158527024090290069580078125</LatitudeDegrees>
              <LongitudeDegrees>-7.7048628218472003936767578125</LongitudeDegrees>
            </Position>
            <AltitudeMeters>569.4000244140625</AltitudeMeters>
            <DistanceMeters>15694.826088861</DistanceMeters>
          </Trackpoint>
          <Trackpoint>
            <Time>2019-07-26T09:25:59.000Z</Time>
            <Position>
              <LatitudeDegrees>42.9615652374923229217529296875</LatitudeDegrees>
              <LongitudeDegrees>-7.7049868740141391754150390625</LongitudeDegrees>
            </Position>
            <AltitudeMeters>569.4000244140625</AltitudeMeters>
            <DistanceMeters>15705.17309743</DistanceMeters>
          </Trackpoint>
          <Trackpoint>
            <Time>2019-07-26T09:26:01.000Z</Time>
            <Position>
              <LatitudeDegrees>42.96154822222888469696044921875</LatitudeDegrees>
              <LongitudeDegrees>-7.70512693561613559722900390625</LongitudeDegrees>
            </Position>
            <AltitudeMeters>569.4000244140625</AltitudeMeters>
            <DistanceMeters>15716.737501095</DistanceMeters>
          </Trackpoint>
          <Trackpoint>
            <Time>2019-07-26T09:26:03.000Z</Time>
            <Position>
              <LatitudeDegrees>42.96152659691870212554931640625</LatitudeDegrees>
              <LongitudeDegrees>-7.70527143962681293487548828125</LongitudeDegrees>
            </Position>
            <AltitudeMeters>569.4000244140625</AltitudeMeters>
            <DistanceMeters>15728.751147993</DistanceMeters>
          </Trackpoint>
          <Trackpoint>
            <Time>2019-07-26T09:26:05.000Z</Time>
            <Position>
              <LatitudeDegrees>42.9615015350282192230224609375</LatitudeDegrees>
              <LongitudeDegrees>-7.70542516373097896575927734375</LongitudeDegrees>
            </Position>
            <AltitudeMeters>569.4000244140625</AltitudeMeters>
            <DistanceMeters>15741.579050513</DistanceMeters>
          </Trackpoint>
          <Trackpoint>
            <Time>2019-07-26T09:26:10.000Z</Time>
            <Position>
              <LatitudeDegrees>42.96143573708832263946533203125</LatitudeDegrees>
              <LongitudeDegrees>-7.7058783732354640960693359375</LongitudeDegrees>
            </Position>
            <AltitudeMeters>568.79998779296875</AltitudeMeters>
            <DistanceMeters>15779.213348699</DistanceMeters>
          </Trackpoint>
          <Trackpoint>
            <Time>2019-07-26T09:26:11.000Z</Time>
            <Position>
              <LatitudeDegrees>42.96142769046127796173095703125</LatitudeDegrees>
              <LongitudeDegrees>-7.7059797942638397216796875</LongitudeDegrees>
            </Position>
            <AltitudeMeters>568.79998779296875</AltitudeMeters>
            <DistanceMeters>15787.522618492</DistanceMeters>
          </Trackpoint>
          <Trackpoint>
            <Time>2019-07-26T09:26:13.000Z</Time>
            <Position>
              <LatitudeDegrees>42.96142232604324817657470703125</LatitudeDegrees>
              <LongitudeDegrees>-7.70618104375898838043212890625</LongitudeDegrees>
            </Position>
            <AltitudeMeters>568.4000244140625</AltitudeMeters>
            <DistanceMeters>15803.925947051</DistanceMeters>
          </Trackpoint>
          <Trackpoint>
            <Time>2019-07-26T09:26:14.000Z</Time>
            <Position>
              <LatitudeDegrees>42.9614398442208766937255859375</LatitudeDegrees>
              <LongitudeDegrees>-7.7062850631773471832275390625</LongitudeDegrees>
            </Position>
            <AltitudeMeters>568</AltitudeMeters>
            <DistanceMeters>15812.620242302</DistanceMeters>
          </Trackpoint>
          <Trackpoint>
            <Time>2019-07-26T09:26:15.000Z</Time>
            <Position>
              <LatitudeDegrees>42.9614629782736301422119140625</LatitudeDegrees>
              <LongitudeDegrees>-7.70638941787183284759521484375</LongitudeDegrees>
            </Position>
            <AltitudeMeters>567.79998779296875</AltitudeMeters>
            <DistanceMeters>15821.501046751</DistanceMeters>
          </Trackpoint>
          <Trackpoint>
            <Time>2019-07-26T09:26:18.000Z</Time>
            <Position>
              <LatitudeDegrees>42.96157236211001873016357421875</LatitudeDegrees>
              <LongitudeDegrees>-7.7067081816494464874267578125</LongitudeDegrees>
            </Position>
            <AltitudeMeters>567.4000244140625</AltitudeMeters>
            <DistanceMeters>15850.177709764</DistanceMeters>
          </Trackpoint>
          <Trackpoint>
            <Time>2019-07-26T09:26:19.000Z</Time>
            <Position>
              <LatitudeDegrees>42.96160153113305568695068359375</LatitudeDegrees>
              <LongitudeDegrees>-7.70681798458099365234375</LongitudeDegrees>
            </Position>
            <AltitudeMeters>567</AltitudeMeters>
            <DistanceMeters>15859.691777573</DistanceMeters>
          </Trackpoint>
          <Trackpoint>
            <Time>2019-07-26T09:26:20.000Z</Time>
            <Position>
              <LatitudeDegrees>42.96162148006260395050048828125</LatitudeDegrees>
              <LongitudeDegrees>-7.70692686550319194793701171875</LongitudeDegrees>
            </Position>
            <AltitudeMeters>566.5999755859375</AltitudeMeters>
            <DistanceMeters>15868.83411795</DistanceMeters>
          </Trackpoint>
          <Trackpoint>
            <Time>2019-07-26T09:26:21.000Z</Time>
            <Position>
              <LatitudeDegrees>42.9616346396505832672119140625</LatitudeDegrees>
              <LongitudeDegrees>-7.70703080110251903533935546875</LongitudeDegrees>
            </Position>
            <AltitudeMeters>566.20001220703125</AltitudeMeters>
            <DistanceMeters>15877.426025476</DistanceMeters>
          </Trackpoint>
          <Trackpoint>
            <Time>2019-07-26T09:26:23.000Z</Time>
            <Position>
              <LatitudeDegrees>42.96164159663021564483642578125</LatitudeDegrees>
              <LongitudeDegrees>-7.7072224952280521392822265625</LongitudeDegrees>
            </Position>
            <AltitudeMeters>565.4000244140625</AltitudeMeters>
            <DistanceMeters>15893.059003083</DistanceMeters>
          </Trackpoint>
          <Trackpoint>
            <Time>2019-07-26T09:26:24.000Z</Time>
            <Position>
              <LatitudeDegrees>42.961641512811183929443359375</LatitudeDegrees>
              <LongitudeDegrees>-7.70730874501168727874755859375</LongitudeDegrees>
            </Position>
            <AltitudeMeters>565</AltitudeMeters>
            <DistanceMeters>15900.084556289</DistanceMeters>
          </Trackpoint>
          <Trackpoint>
            <Time>2019-07-26T09:26:28.000Z</Time>
            <Position>
              <LatitudeDegrees>42.96166925691068172454833984375</LatitudeDegrees>
              <LongitudeDegrees>-7.7075949870049953460693359375</LongitudeDegrees>
            </Position>
            <AltitudeMeters>564.79998779296875</AltitudeMeters>
            <DistanceMeters>15923.603236152</DistanceMeters>
          </Trackpoint>
          <Trackpoint>
            <Time>2019-07-26T09:26:30.000Z</Time>
            <Position>
              <LatitudeDegrees>42.96168115921318531036376953125</LatitudeDegrees>
              <LongitudeDegrees>-7.70771828480064868927001953125</LongitudeDegrees>
            </Position>
            <AltitudeMeters>564.79998779296875</AltitudeMeters>
            <DistanceMeters>15933.7328343</DistanceMeters>
          </Trackpoint>
          <Trackpoint>
            <Time>2019-07-26T09:26:33.000Z</Time>
            <Position>
              <LatitudeDegrees>42.96169540844857692718505859375</LatitudeDegrees>
              <LongitudeDegrees>-7.707886509597301483154296875</LongitudeDegrees>
            </Position>
            <AltitudeMeters>565</AltitudeMeters>
            <DistanceMeters>15947.526118194</DistanceMeters>
          </Trackpoint>
          <Trackpoint>
            <Time>2019-07-26T09:26:36.000Z</Time>
            <Position>
              <LatitudeDegrees>42.96169423498213291168212890625</LatitudeDegrees>
              <LongitudeDegrees>-7.70805917680263519287109375</LongitudeDegrees>
            </Position>
            <AltitudeMeters>565.5999755859375</AltitudeMeters>
            <DistanceMeters>15961.590713979</DistanceMeters>
          </Trackpoint>
          <Trackpoint>
            <Time>2019-07-26T09:26:39.000Z</Time>
            <Position>
              <LatitudeDegrees>42.9616889543831348419189453125</LatitudeDegrees>
              <LongitudeDegrees>-7.70823410712182521820068359375</LongitudeDegrees>
            </Position>
            <AltitudeMeters>566</AltitudeMeters>
            <DistanceMeters>15975.851054841</DistanceMeters>
          </Trackpoint>
          <Trackpoint>
            <Time>2019-07-26T09:26:42.000Z</Time>
            <Position>
              <LatitudeDegrees>42.96169792301952838897705078125</LatitudeDegrees>
              <LongitudeDegrees>-7.7084157429635524749755859375</LongitudeDegrees>
            </Position>
            <AltitudeMeters>566.5999755859375</AltitudeMeters>
            <DistanceMeters>15990.679181201</DistanceMeters>
          </Trackpoint>
          <Trackpoint>
            <Time>2019-07-26T09:26:45.000Z</Time>
            <Position>
              <LatitudeDegrees>42.961732037365436553955078125</LatitudeDegrees>
              <LongitudeDegrees>-7.70860123448073863983154296875</LongitudeDegrees>
            </Position>
            <AltitudeMeters>567</AltitudeMeters>
            <DistanceMeters>16006.257477142</DistanceMeters>
          </Trackpoint>
          <Trackpoint>
            <Time>2019-07-26T09:26:46.000Z</Time>
            <Position>
              <LatitudeDegrees>42.96174871735274791717529296875</LatitudeDegrees>
              <LongitudeDegrees>-7.708662338554859161376953125</LongitudeDegrees>
            </Position>
            <AltitudeMeters>567</AltitudeMeters>
            <DistanceMeters>16011.569631967</DistanceMeters>
          </Trackpoint>
          <Trackpoint>
            <Time>2019-07-26T09:26:50.000Z</Time>
            <Position>
              <LatitudeDegrees>42.961823903024196624755859375</LatitudeDegrees>
              <LongitudeDegrees>-7.70892393775284290313720703125</LongitudeDegrees>
            </Position>
            <AltitudeMeters>567.20001220703125</AltitudeMeters>
            <DistanceMeters>16034.461802165</DistanceMeters>
          </Trackpoint>
          <Trackpoint>
            <Time>2019-07-26T09:26:51.000Z</Time>
            <Position>
              <LatitudeDegrees>42.96184393577277660369873046875</LatitudeDegrees>
              <LongitudeDegrees>-7.708994261920452117919921875</LongitudeDegrees>
            </Position>
            <AltitudeMeters>567.20001220703125</AltitudeMeters>
            <DistanceMeters>16040.608495572</DistanceMeters>
          </Trackpoint>
          <Trackpoint>
            <Time>2019-07-26T09:26:53.000Z</Time>
            <Position>
              <LatitudeDegrees>42.96188500709831714630126953125</LatitudeDegrees>
              <LongitudeDegrees>-7.7091406099498271942138671875</LongitudeDegrees>
            </Position>
            <AltitudeMeters>567.20001220703125</AltitudeMeters>
            <DistanceMeters>16053.375008398</DistanceMeters>
          </Trackpoint>
          <Trackpoint>
            <Time>2019-07-26T09:26:57.000Z</Time>
            <Position>
              <LatitudeDegrees>42.9619786329567432403564453125</LatitudeDegrees>
              <LongitudeDegrees>-7.7094929851591587066650390625</LongitudeDegrees>
            </Position>
            <AltitudeMeters>567</AltitudeMeters>
            <DistanceMeters>16083.90979926</DistanceMeters>
          </Trackpoint>
          <Trackpoint>
            <Time>2019-07-26T09:26:58.000Z</Time>
            <Position>
              <LatitudeDegrees>42.96199615113437175750732421875</LatitudeDegrees>
              <LongitudeDegrees>-7.70959180779755115509033203125</LongitudeDegrees>
            </Position>
            <AltitudeMeters>566.79998779296875</AltitudeMeters>
            <DistanceMeters>16092.191855808</DistanceMeters>
          </Trackpoint>
          <Trackpoint>
            <Time>2019-07-26T09:27:01.000Z</Time>
            <Position>
              <LatitudeDegrees>42.9619974084198474884033203125</LatitudeDegrees>
              <LongitudeDegrees>-7.709910906851291656494140625</LongitudeDegrees>
            </Position>
            <AltitudeMeters>566.20001220703125</AltitudeMeters>
            <DistanceMeters>16118.183355937</DistanceMeters>
          </Trackpoint>
          <Trackpoint>
            <Time>2019-07-26T09:27:03.000Z</Time>
            <Position>
              <LatitudeDegrees>42.9619414173066616058349609375</LatitudeDegrees>
              <LongitudeDegrees>-7.7101219631731510162353515625</LongitudeDegrees>
            </Position>
            <AltitudeMeters>566</AltitudeMeters>
            <DistanceMeters>16136.469024384</DistanceMeters>
          </Trackpoint>
          <Trackpoint>
            <Time>2019-07-26T09:27:04.000Z</Time>
            <Position>
              <LatitudeDegrees>42.9619088955223560333251953125</LatitudeDegrees>
              <LongitudeDegrees>-7.71022732369601726531982421875</LongitudeDegrees>
            </Position>
            <AltitudeMeters>566</AltitudeMeters>
            <DistanceMeters>16145.782612002</DistanceMeters>
          </Trackpoint>
          <Trackpoint>
            <Time>2019-07-26T09:27:06.000Z</Time>
            <Position>
              <LatitudeDegrees>42.961883582174777984619140625</LatitudeDegrees>
              <LongitudeDegrees>-7.7104510366916656494140625</LongitudeDegrees>
            </Position>
            <AltitudeMeters>565.4000244140625</AltitudeMeters>
            <DistanceMeters>16164.220733326</DistanceMeters>
          </Trackpoint>
          <Trackpoint>
            <Time>2019-07-26T09:27:07.000Z</Time>
            <Position>
              <LatitudeDegrees>42.961896993219852447509765625</LatitudeDegrees>
              <LongitudeDegrees>-7.7105571515858173370361328125</LongitudeDegrees>
            </Position>
            <AltitudeMeters>564.79998779296875</AltitudeMeters>
            <DistanceMeters>16172.991549778</DistanceMeters>
          </Trackpoint>
          <Trackpoint>
            <Time>2019-07-26T09:27:10.000Z</Time>
            <Position>
              <LatitudeDegrees>42.9619782976806163787841796875</LatitudeDegrees>
              <LongitudeDegrees>-7.7108304016292095184326171875</LongitudeDegrees>
            </Position>
            <AltitudeMeters>563.5999755859375</AltitudeMeters>
            <DistanceMeters>16197.017716071</DistanceMeters>
          </Trackpoint>
          <Trackpoint>
            <Time>2019-07-26T09:27:11.000Z</Time>
            <Position>
              <LatitudeDegrees>42.962003611028194427490234375</LatitudeDegrees>
              <LongitudeDegrees>-7.71090357564389705657958984375</LongitudeDegrees>
            </Position>
            <AltitudeMeters>563.20001220703125</AltitudeMeters>
            <DistanceMeters>16203.610954122</DistanceMeters>
          </Trackpoint>
          <Trackpoint>
            <Time>2019-07-26T09:27:12.000Z</Time>
            <Position>
              <LatitudeDegrees>42.96202951110899448394775390625</LatitudeDegrees>
              <LongitudeDegrees>-7.71096677519381046295166015625</LongitudeDegrees>
            </Position>
            <AltitudeMeters>562.5999755859375</AltitudeMeters>
            <DistanceMeters>16209.511799381</DistanceMeters>
          </Trackpoint>
          <Trackpoint>
            <Time>2019-07-26T09:27:13.000Z</Time>
            <Position>
              <LatitudeDegrees>42.96205515973269939422607421875</LatitudeDegrees>
              <LongitudeDegrees>-7.71102913655340671539306640625</LongitudeDegrees>
            </Position>
            <AltitudeMeters>562.4000244140625</AltitudeMeters>
            <DistanceMeters>16215.337952259</DistanceMeters>
          </Trackpoint>
          <Trackpoint>
            <Time>2019-07-26T09:27:14.000Z</Time>
            <Position>
              <LatitudeDegrees>42.9620768688619136810302734375</LatitudeDegrees>
              <LongitudeDegrees>-7.7110811881721019744873046875</LongitudeDegrees>
            </Position>
            <AltitudeMeters>562.20001220703125</AltitudeMeters>
            <DistanceMeters>16220.217738277</DistanceMeters>
          </Trackpoint>
          <Trackpoint>
            <Time>2019-07-26T09:27:15.000Z</Time>
            <Position>
              <LatitudeDegrees>42.96209447085857391357421875</LatitudeDegrees>
              <LongitudeDegrees>-7.71112988702952861785888671875</LongitudeDegrees>
            </Position>
            <AltitudeMeters>562.20001220703125</AltitudeMeters>
            <DistanceMeters>16224.642351902</DistanceMeters>
          </Trackpoint>
          <Trackpoint>
            <Time>2019-07-26T09:27:16.000Z</Time>
            <Position>
              <LatitudeDegrees>42.962110899388790130615234375</LatitudeDegrees>
              <LongitudeDegrees>-7.71117749623954296112060546875</LongitudeDegrees>
            </Position>
            <AltitudeMeters>562</AltitudeMeters>
            <DistanceMeters>16228.931205562</DistanceMeters>
          </Trackpoint>
          <Trackpoint>
            <Time>2019-07-26T09:27:18.000Z</Time>
            <Position>
              <LatitudeDegrees>42.96214082278311252593994140625</LatitudeDegrees>
              <LongitudeDegrees>-7.71128746680915355682373046875</LongitudeDegrees>
            </Position>
            <AltitudeMeters>562</AltitudeMeters>
            <DistanceMeters>16238.487888729</DistanceMeters>
          </Trackpoint>
          <Trackpoint>
            <Time>2019-07-26T09:27:20.000Z</Time>
            <Position>
              <LatitudeDegrees>42.962173931300640106201171875</LatitudeDegrees>
              <LongitudeDegrees>-7.71140632219612598419189453125</LongitudeDegrees>
            </Position>
            <AltitudeMeters>562</AltitudeMeters>
            <DistanceMeters>16248.84710822</DistanceMeters>
          </Trackpoint>
          <Trackpoint>
            <Time>2019-07-26T09:27:22.000Z</Time>
            <Position>
              <LatitudeDegrees>42.96220050193369388580322265625</LatitudeDegrees>
              <LongitudeDegrees>-7.7115131914615631103515625</LongitudeDegrees>
            </Position>
            <AltitudeMeters>562.20001220703125</AltitudeMeters>
            <DistanceMeters>16258.040175468</DistanceMeters>
          </Trackpoint>
          <Trackpoint>
            <Time>2019-07-26T09:27:24.000Z</Time>
            <Position>
              <LatitudeDegrees>42.96222749166190624237060546875</LatitudeDegrees>
              <LongitudeDegrees>-7.71162089891731739044189453125</LongitudeDegrees>
            </Position>
            <AltitudeMeters>562.4000244140625</AltitudeMeters>
            <DistanceMeters>16267.312952178</DistanceMeters>
          </Trackpoint>
          <Trackpoint>
            <Time>2019-07-26T09:27:26.000Z</Time>
            <Position>
              <LatitudeDegrees>42.9622706584632396697998046875</LatitudeDegrees>
              <LongitudeDegrees>-7.7117309533059597015380859375</LongitudeDegrees>
            </Position>
            <AltitudeMeters>562.79998779296875</AltitudeMeters>
            <DistanceMeters>16277.483030623</DistanceMeters>
          </Trackpoint>
          <Trackpoint>
            <Time>2019-07-26T09:27:27.000Z</Time>
            <Position>
              <LatitudeDegrees>42.9622974805533885955810546875</LatitudeDegrees>
              <LongitudeDegrees>-7.71178216673433780670166015625</LongitudeDegrees>
            </Position>
            <AltitudeMeters>563</AltitudeMeters>
            <DistanceMeters>16282.612713143</DistanceMeters>
          </Trackpoint>
          <Trackpoint>
            <Time>2019-07-26T09:27:28.000Z</Time>
            <Position>
              <LatitudeDegrees>42.9623219557106494903564453125</LatitudeDegrees>
              <LongitudeDegrees>-7.71183463744819164276123046875</LongitudeDegrees>
            </Position>
            <AltitudeMeters>563.4000244140625</AltitudeMeters>
            <DistanceMeters>16287.680408616</DistanceMeters>
          </Trackpoint>
          <Trackpoint>
            <Time>2019-07-26T09:27:31.000Z</Time>
            <Position>
              <LatitudeDegrees>42.96236897818744182586669921875</LatitudeDegrees>
              <LongitudeDegrees>-7.7120038680732250213623046875</LongitudeDegrees>
            </Position>
            <AltitudeMeters>564.5999755859375</AltitudeMeters>
            <DistanceMeters>16302.424868267</DistanceMeters>
          </Trackpoint>
          <Trackpoint>
            <Time>2019-07-26T09:27:32.000Z</Time>
            <Position>
              <LatitudeDegrees>42.9623812995851039886474609375</LatitudeDegrees>
              <LongitudeDegrees>-7.71205843426287174224853515625</LongitudeDegrees>
            </Position>
            <AltitudeMeters>565</AltitudeMeters>
            <DistanceMeters>16307.077297013</DistanceMeters>
          </Trackpoint>
          <Trackpoint>
            <Time>2019-07-26T09:27:34.000Z</Time>
            <Position>
              <LatitudeDegrees>42.96242932789027690887451171875</LatitudeDegrees>
              <LongitudeDegrees>-7.71214778535068035125732421875</LongitudeDegrees>
            </Position>
            <AltitudeMeters>565.5999755859375</AltitudeMeters>
            <DistanceMeters>16316.107335235</DistanceMeters>
          </Trackpoint>
          <Trackpoint>
            <Time>2019-07-26T09:27:35.000Z</Time>
            <Position>
              <LatitudeDegrees>42.96246101148426532745361328125</LatitudeDegrees>
              <LongitudeDegrees>-7.71218248642981052398681640625</LongitudeDegrees>
            </Position>
            <AltitudeMeters>566</AltitudeMeters>
            <DistanceMeters>16320.626852124</DistanceMeters>
          </Trackpoint>
          <Trackpoint>
            <Time>2019-07-26T09:27:36.000Z</Time>
            <Position>
              <LatitudeDegrees>42.96250023879110813140869140625</LatitudeDegrees>
              <LongitudeDegrees>-7.7122114039957523345947265625</LongitudeDegrees>
            </Position>
            <AltitudeMeters>566.20001220703125</AltitudeMeters>
            <DistanceMeters>16325.588302355</DistanceMeters>
          </Trackpoint>
          <Trackpoint>
            <Time>2019-07-26T09:27:37.000Z</Time>
            <Position>
              <LatitudeDegrees>42.96253359876573085784912109375</LatitudeDegrees>
              <LongitudeDegrees>-7.71223244257271289825439453125</LongitudeDegrees>
            </Position>
            <AltitudeMeters>566.5999755859375</AltitudeMeters>
            <DistanceMeters>16329.677764614</DistanceMeters>
          </Trackpoint>
          <Trackpoint>
            <Time>2019-07-26T09:27:39.000Z</Time>
            <Position>
              <LatitudeDegrees>42.96259403228759765625</LatitudeDegrees>
              <LongitudeDegrees>-7.71225876174867153167724609375</LongitudeDegrees>
            </Position>
            <AltitudeMeters>567.20001220703125</AltitudeMeters>
            <DistanceMeters>16336.736657008</DistanceMeters>
          </Trackpoint>
          <Trackpoint>
            <Time>2019-07-26T09:27:40.000Z</Time>
            <Position>
              <LatitudeDegrees>42.9626330919563770294189453125</LatitudeDegrees>
              <LongitudeDegrees>-7.7122794650495052337646484375</LongitudeDegrees>
            </Position>
            <AltitudeMeters>567.5999755859375</AltitudeMeters>
            <DistanceMeters>16341.398780344</DistanceMeters>
          </Trackpoint>
          <Trackpoint>
            <Time>2019-07-26T09:27:42.000Z</Time>
            <Position>
              <LatitudeDegrees>42.96270693652331829071044921875</LatitudeDegrees>
              <LongitudeDegrees>-7.71232296712696552276611328125</LongitudeDegrees>
            </Position>
            <AltitudeMeters>568.5999755859375</AltitudeMeters>
            <DistanceMeters>16350.348460676</DistanceMeters>
          </Trackpoint>
          <Trackpoint>
            <Time>2019-07-26T09:27:45.000Z</Time>
            <Position>
              <LatitudeDegrees>42.9628359340131282806396484375</LatitudeDegrees>
              <LongitudeDegrees>-7.71241265349090099334716796875</LongitudeDegrees>
            </Position>
            <AltitudeMeters>569.20001220703125</AltitudeMeters>
            <DistanceMeters>16366.457661055</DistanceMeters>
          </Trackpoint>
          <Trackpoint>
            <Time>2019-07-26T09:27:46.000Z</Time>
            <Position>
              <LatitudeDegrees>42.9628738202154636383056640625</LatitudeDegrees>
              <LongitudeDegrees>-7.7124454267323017120361328125</LongitudeDegrees>
            </Position>
            <AltitudeMeters>569.20001220703125</AltitudeMeters>
            <DistanceMeters>16371.448147087</DistanceMeters>
          </Trackpoint>
          <Trackpoint>
            <Time>2019-07-26T09:27:48.000Z</Time>
            <Position>
              <LatitudeDegrees>42.96294347383081912994384765625</LatitudeDegrees>
              <LongitudeDegrees>-7.7125108055770397186279296875</LongitudeDegrees>
            </Position>
            <AltitudeMeters>569.79998779296875</AltitudeMeters>
            <DistanceMeters>16380.853391839</DistanceMeters>
          </Trackpoint>
          <Trackpoint>
            <Time>2019-07-26T09:27:52.000Z</Time>
            <Position>
              <LatitudeDegrees>42.9630367644131183624267578125</LatitudeDegrees>
              <LongitudeDegrees>-7.71265053190290927886962890625</LongitudeDegrees>
            </Position>
            <AltitudeMeters>570.20001220703125</AltitudeMeters>
            <DistanceMeters>16396.258860644</DistanceMeters>
          </Trackpoint>
          <Trackpoint>
            <Time>2019-07-26T09:27:56.000Z</Time>
            <Position>
              <LatitudeDegrees>42.96310340054333209991455078125</LatitudeDegrees>
              <LongitudeDegrees>-7.71282303147017955780029296875</LongitudeDegrees>
            </Position>
            <AltitudeMeters>571</AltitudeMeters>
            <DistanceMeters>16412.146804404</DistanceMeters>
          </Trackpoint>
          <Trackpoint>
            <Time>2019-07-26T09:27:58.000Z</Time>
            <Position>
              <LatitudeDegrees>42.96311697922646999359130859375</LatitudeDegrees>
              <LongitudeDegrees>-7.71291892044246196746826171875</LongitudeDegrees>
            </Position>
            <AltitudeMeters>571.20001220703125</AltitudeMeters>
            <DistanceMeters>16420.101851589</DistanceMeters>
          </Trackpoint>
          <Trackpoint>
            <Time>2019-07-26T09:28:04.000Z</Time>
            <Position>
              <LatitudeDegrees>42.96309904195368289947509765625</LatitudeDegrees>
              <LongitudeDegrees>-7.7132051624357700347900390625</LongitudeDegrees>
            </Position>
            <AltitudeMeters>572</AltitudeMeters>
            <DistanceMeters>16443.501589093</DistanceMeters>
          </Trackpoint>
          <Trackpoint>
            <Time>2019-07-26T09:28:09.000Z</Time>
            <Position>
              <LatitudeDegrees>42.963016144931316375732421875</LatitudeDegrees>
              <LongitudeDegrees>-7.7133865468204021453857421875</LongitudeDegrees>
            </Position>
            <AltitudeMeters>572.5999755859375</AltitudeMeters>
            <DistanceMeters>16460.919755138</DistanceMeters>
          </Trackpoint>
          <Trackpoint>
            <Time>2019-07-26T09:28:14.000Z</Time>
            <Position>
              <LatitudeDegrees>42.962942384183406829833984375</LatitudeDegrees>
              <LongitudeDegrees>-7.71355292759835720062255859375</LongitudeDegrees>
            </Position>
            <AltitudeMeters>573.20001220703125</AltitudeMeters>
            <DistanceMeters>16476.764159677</DistanceMeters>
          </Trackpoint>
          <Trackpoint>
            <Time>2019-07-26T09:28:16.000Z</Time>
            <Position>
              <LatitudeDegrees>42.96291832812130451202392578125</LatitudeDegrees>
              <LongitudeDegrees>-7.71360824815928936004638671875</LongitudeDegrees>
            </Position>
            <AltitudeMeters>573.4000244140625</AltitudeMeters>
            <DistanceMeters>16482.005294339</DistanceMeters>
          </Trackpoint>
          <Trackpoint>
            <Time>2019-07-26T09:28:20.000Z</Time>
            <Position>
              <LatitudeDegrees>42.9628635942935943603515625</LatitudeDegrees>
              <LongitudeDegrees>-7.7136911451816558837890625</LongitudeDegrees>
            </Position>
            <AltitudeMeters>574.20001220703125</AltitudeMeters>
            <DistanceMeters>16491.099107625</DistanceMeters>
          </Trackpoint>
          <Trackpoint>
            <Time>2019-07-26T09:28:22.000Z</Time>
            <Position>
              <LatitudeDegrees>42.96281305141746997833251953125</LatitudeDegrees>
              <LongitudeDegrees>-7.71374185569584369659423828125</LongitudeDegrees>
            </Position>
            <AltitudeMeters>574.4000244140625</AltitudeMeters>
            <DistanceMeters>16498.078235961</DistanceMeters>
          </Trackpoint>
          <Trackpoint>
            <Time>2019-07-26T09:28:28.000Z</Time>
            <Position>
              <LatitudeDegrees>42.9626382887363433837890625</LatitudeDegrees>
              <LongitudeDegrees>-7.71396012045443058013916015625</LongitudeDegrees>
            </Position>
            <AltitudeMeters>574.79998779296875</AltitudeMeters>
            <DistanceMeters>16524.42977953</DistanceMeters>
          </Trackpoint>
          <Trackpoint>
            <Time>2019-07-26T09:28:29.000Z</Time>
            <Position>
              <LatitudeDegrees>42.96261808834969997406005859375</LatitudeDegrees>
              <LongitudeDegrees>-7.7139980904757976531982421875</LongitudeDegrees>
            </Position>
            <AltitudeMeters>575</AltitudeMeters>
            <DistanceMeters>16528.253350343</DistanceMeters>
          </Trackpoint>
          <Trackpoint>
            <Time>2019-07-26T09:28:33.000Z</Time>
            <Position>
              <LatitudeDegrees>42.96250862069427967071533203125</LatitudeDegrees>
              <LongitudeDegrees>-7.714136727154254913330078125</LongitudeDegrees>
            </Position>
            <AltitudeMeters>575.20001220703125</AltitudeMeters>
            <DistanceMeters>16544.865368166</DistanceMeters>
          </Trackpoint>
          <Trackpoint>
            <Time>2019-07-26T09:28:36.000Z</Time>
            <Position>
              <LatitudeDegrees>42.96242094598710536956787109375</LatitudeDegrees>
              <LongitudeDegrees>-7.71423907019197940826416015625</LongitudeDegrees>
            </Position>
            <AltitudeMeters>575.4000244140625</AltitudeMeters>
            <DistanceMeters>16557.699252782</DistanceMeters>
          </Trackpoint>
          <Trackpoint>
            <Time>2019-07-26T09:28:39.000Z</Time>
            <Position>
              <LatitudeDegrees>42.9623491130769252777099609375</LatitudeDegrees>
              <LongitudeDegrees>-7.71435759030282497406005859375</LongitudeDegrees>
            </Position>
            <AltitudeMeters>575.4000244140625</AltitudeMeters>
            <DistanceMeters>16570.234137309</DistanceMeters>
          </Trackpoint>
          <Trackpoint>
            <Time>2019-07-26T09:28:40.000Z</Time>
            <Position>
              <LatitudeDegrees>42.9623432457447052001953125</LatitudeDegrees>
              <LongitudeDegrees>-7.7144099771976470947265625</LongitudeDegrees>
            </Position>
            <AltitudeMeters>575.4000244140625</AltitudeMeters>
            <DistanceMeters>16574.55132132</DistanceMeters>
          </Trackpoint>
          <Trackpoint>
            <Time>2019-07-26T09:28:44.000Z</Time>
            <Position>
              <LatitudeDegrees>42.962340228259563446044921875</LatitudeDegrees>
              <LongitudeDegrees>-7.71461944095790386199951171875</LongitudeDegrees>
            </Position>
            <AltitudeMeters>575.79998779296875</AltitudeMeters>
            <DistanceMeters>16591.615431171</DistanceMeters>
          </Trackpoint>
          <Trackpoint>
            <Time>2019-07-26T09:28:46.000Z</Time>
            <Position>
              <LatitudeDegrees>42.9623306728899478912353515625</LatitudeDegrees>
              <LongitudeDegrees>-7.7147370390594005584716796875</LongitudeDegrees>
            </Position>
            <AltitudeMeters>576</AltitudeMeters>
            <DistanceMeters>16601.252564366</DistanceMeters>
          </Trackpoint>
          <Trackpoint>
            <Time>2019-07-26T09:28:48.000Z</Time>
            <Position>
              <LatitudeDegrees>42.96232648193836212158203125</LatitudeDegrees>
              <LongitudeDegrees>-7.71485363133251667022705078125</LongitudeDegrees>
            </Position>
            <AltitudeMeters>576.20001220703125</AltitudeMeters>
            <DistanceMeters>16610.760460836</DistanceMeters>
          </Trackpoint>
          <Trackpoint>
            <Time>2019-07-26T09:28:55.000Z</Time>
            <Position>
              <LatitudeDegrees>42.9623263143002986907958984375</LatitudeDegrees>
              <LongitudeDegrees>-7.7152312360703945159912109375</LongitudeDegrees>
            </Position>
            <AltitudeMeters>577.4000244140625</AltitudeMeters>
            <DistanceMeters>16641.516837215</DistanceMeters>
          </Trackpoint>
          <Trackpoint>
            <Time>2019-07-26T09:28:56.000Z</Time>
            <Position>
              <LatitudeDegrees>42.9623259790241718292236328125</LatitudeDegrees>
              <LongitudeDegrees>-7.7152838744223117828369140625</LongitudeDegrees>
            </Position>
            <AltitudeMeters>577.4000244140625</AltitudeMeters>
            <DistanceMeters>16645.804638008</DistanceMeters>
          </Trackpoint>
          <Trackpoint>
            <Time>2019-07-26T09:29:02.000Z</Time>
            <Position>
              <LatitudeDegrees>42.9623165912926197052001953125</LatitudeDegrees>
              <LongitudeDegrees>-7.71559710614383220672607421875</LongitudeDegrees>
            </Position>
            <AltitudeMeters>578.4000244140625</AltitudeMeters>
            <DistanceMeters>16671.339078271</DistanceMeters>
          </Trackpoint>
          <Trackpoint>
            <Time>2019-07-26T09:29:05.000Z</Time>
            <Position>
              <LatitudeDegrees>42.9623082093894481658935546875</LatitudeDegrees>
              <LongitudeDegrees>-7.7157408557832241058349609375</LongitudeDegrees>
            </Position>
            <AltitudeMeters>578.79998779296875</AltitudeMeters>
            <DistanceMeters>16683.08477995</DistanceMeters>
          </Trackpoint>
          <Trackpoint>
            <Time>2019-07-26T09:29:09.000Z</Time>
            <Position>
              <LatitudeDegrees>42.96229169704020023345947265625</LatitudeDegrees>
              <LongitudeDegrees>-7.7159420214593410491943359375</LongitudeDegrees>
            </Position>
            <AltitudeMeters>579.5999755859375</AltitudeMeters>
            <DistanceMeters>16699.572667969</DistanceMeters>
          </Trackpoint>
          <Trackpoint>
            <Time>2019-07-26T09:29:14.000Z</Time>
            <Position>
              <LatitudeDegrees>42.962271831929683685302734375</LatitudeDegrees>
              <LongitudeDegrees>-7.71619574166834354400634765625</LongitudeDegrees>
            </Position>
            <AltitudeMeters>580.20001220703125</AltitudeMeters>
            <DistanceMeters>16720.356381227</DistanceMeters>
          </Trackpoint>
          <Trackpoint>
            <Time>2019-07-26T09:29:17.000Z</Time>
            <Position>
              <LatitudeDegrees>42.96226604841649532318115234375</LatitudeDegrees>
              <LongitudeDegrees>-7.716357596218585968017578125</LongitudeDegrees>
            </Position>
            <AltitudeMeters>580.5999755859375</AltitudeMeters>
            <DistanceMeters>16733.555862084</DistanceMeters>
          </Trackpoint>
          <Trackpoint>
            <Time>2019-07-26T09:29:21.000Z</Time>
            <Position>
              <LatitudeDegrees>42.96224609948694705963134765625</LatitudeDegrees>
              <LongitudeDegrees>-7.71658248268067836761474609375</LongitudeDegrees>
            </Position>
            <AltitudeMeters>580.79998779296875</AltitudeMeters>
            <DistanceMeters>16752.00720193</DistanceMeters>
          </Trackpoint>
          <Trackpoint>
            <Time>2019-07-26T09:29:29.000Z</Time>
            <Position>
              <LatitudeDegrees>42.96219966374337673187255859375</LatitudeDegrees>
              <LongitudeDegrees>-7.7170802839100360870361328125</LongitudeDegrees>
            </Position>
            <AltitudeMeters>581.20001220703125</AltitudeMeters>
            <DistanceMeters>16792.881725578</DistanceMeters>
          </Trackpoint>
          <Trackpoint>
            <Time>2019-07-26T09:29:34.000Z</Time>
            <Position>
              <LatitudeDegrees>42.9621596820652484893798828125</LatitudeDegrees>
              <LongitudeDegrees>-7.71742008626461029052734375</LongitudeDegrees>
            </Position>
            <AltitudeMeters>581.5999755859375</AltitudeMeters>
            <DistanceMeters>16820.914445255</DistanceMeters>
          </Trackpoint>
          <Trackpoint>
            <Time>2019-07-26T09:29:36.000Z</Time>
            <Position>
              <LatitudeDegrees>42.96213780529797077178955078125</LatitudeDegrees>
              <LongitudeDegrees>-7.71756283007562160491943359375</LongitudeDegrees>
            </Position>
            <AltitudeMeters>581.5999755859375</AltitudeMeters>
            <DistanceMeters>16832.793544741</DistanceMeters>
          </Trackpoint>
          <Trackpoint>
            <Time>2019-07-26T09:29:43.000Z</Time>
            <Position>
              <LatitudeDegrees>42.96205968596041202545166015625</LatitudeDegrees>
              <LongitudeDegrees>-7.71808904595673084259033203125</LongitudeDegrees>
            </Position>
            <AltitudeMeters>581.79998779296875</AltitudeMeters>
            <DistanceMeters>16876.527518852</DistanceMeters>
          </Trackpoint>
          <Trackpoint>
            <Time>2019-07-26T09:29:45.000Z</Time>
            <Position>
              <LatitudeDegrees>42.9620282538235187530517578125</LatitudeDegrees>
              <LongitudeDegrees>-7.7182343043386936187744140625</LongitudeDegrees>
            </Position>
            <AltitudeMeters>581.5999755859375</AltitudeMeters>
            <DistanceMeters>16888.865265754</DistanceMeters>
          </Trackpoint>
          <Trackpoint>
            <Time>2019-07-26T09:29:49.000Z</Time>
            <Position>
              <LatitudeDegrees>42.96194426715373992919921875</LatitudeDegrees>
              <LongitudeDegrees>-7.71849489770829677581787109375</LongitudeDegrees>
            </Position>
            <AltitudeMeters>581.4000244140625</AltitudeMeters>
            <DistanceMeters>16912.058014483</DistanceMeters>
          </Trackpoint>
          <Trackpoint>
            <Time>2019-07-26T09:29:55.000Z</Time>
            <Position>
              <LatitudeDegrees>42.96181459911167621612548828125</LatitudeDegrees>
              <LongitudeDegrees>-7.718889601528644561767578125</LongitudeDegrees>
            </Position>
            <AltitudeMeters>581.20001220703125</AltitudeMeters>
            <DistanceMeters>16947.297938332</DistanceMeters>
          </Trackpoint>
          <Trackpoint>
            <Time>2019-07-26T09:29:56.000Z</Time>
            <Position>
              <LatitudeDegrees>42.96180688776075839996337890625</LatitudeDegrees>
              <LongitudeDegrees>-7.718953303992748260498046875</LongitudeDegrees>
            </Position>
            <AltitudeMeters>581.20001220703125</AltitudeMeters>
            <DistanceMeters>16952.556274007</DistanceMeters>
          </Trackpoint>
          <Trackpoint>
            <Time>2019-07-26T09:30:01.000Z</Time>
            <Position>
              <LatitudeDegrees>42.96177017502486705780029296875</LatitudeDegrees>
              <LongitudeDegrees>-7.7192795276641845703125</LongitudeDegrees>
            </Position>
            <AltitudeMeters>581.20001220703125</AltitudeMeters>
            <DistanceMeters>16979.440102387</DistanceMeters>
          </Trackpoint>
          <Trackpoint>
            <Time>2019-07-26T09:30:06.000Z</Time>
            <Position>
              <LatitudeDegrees>42.96171636320650577545166015625</LatitudeDegrees>
              <LongitudeDegrees>-7.7196196652948856353759765625</LongitudeDegrees>
            </Position>
            <AltitudeMeters>581.4000244140625</AltitudeMeters>
            <DistanceMeters>17007.784836666</DistanceMeters>
          </Trackpoint>
          <Trackpoint>
            <Time>2019-07-26T09:30:13.000Z</Time>
            <Position>
              <LatitudeDegrees>42.961651571094989776611328125</LatitudeDegrees>
              <LongitudeDegrees>-7.7201269380748271942138671875</LongitudeDegrees>
            </Position>
            <AltitudeMeters>582</AltitudeMeters>
            <DistanceMeters>17049.727695087</DistanceMeters>
          </Trackpoint>
          <Trackpoint>
            <Time>2019-07-26T09:30:21.000Z</Time>
            <Position>
              <LatitudeDegrees>42.9616351425647735595703125</LatitudeDegrees>
              <LongitudeDegrees>-7.7207119949162006378173828125</LongitudeDegrees>
            </Position>
            <AltitudeMeters>582.4000244140625</AltitudeMeters>
            <DistanceMeters>17097.416811693</DistanceMeters>
          </Trackpoint>
          <Trackpoint>
            <Time>2019-07-26T09:30:26.000Z</Time>
            <Position>
              <LatitudeDegrees>42.961630783975124359130859375</LatitudeDegrees>
              <LongitudeDegrees>-7.72106395103037357330322265625</LongitudeDegrees>
            </Position>
            <AltitudeMeters>582.79998779296875</AltitudeMeters>
            <DistanceMeters>17126.088593452</DistanceMeters>
          </Trackpoint>
          <Trackpoint>
            <Time>2019-07-26T09:30:28.000Z</Time>
            <Position>
              <LatitudeDegrees>42.96161393634974956512451171875</LatitudeDegrees>
              <LongitudeDegrees>-7.7212065272033214569091796875</LongitudeDegrees>
            </Position>
            <AltitudeMeters>582.79998779296875</AltitudeMeters>
            <DistanceMeters>17137.851964203</DistanceMeters>
          </Trackpoint>
          <Trackpoint>
            <Time>2019-07-26T09:30:29.000Z</Time>
            <Position>
              <LatitudeDegrees>42.961606644093990325927734375</LatitudeDegrees>
              <LongitudeDegrees>-7.7212826348841190338134765625</LongitudeDegrees>
            </Position>
            <AltitudeMeters>582.79998779296875</AltitudeMeters>
            <DistanceMeters>17144.103537673</DistanceMeters>
          </Trackpoint>
          <Trackpoint>
            <Time>2019-07-26T09:30:32.000Z</Time>
            <Position>
              <LatitudeDegrees>42.9615759663283824920654296875</LatitudeDegrees>
              <LongitudeDegrees>-7.72152026183903217315673828125</LongitudeDegrees>
            </Position>
            <AltitudeMeters>582.79998779296875</AltitudeMeters>
            <DistanceMeters>17163.757763939</DistanceMeters>
          </Trackpoint>
          <Trackpoint>
            <Time>2019-07-26T09:30:35.000Z</Time>
            <Position>
              <LatitudeDegrees>42.96152374707162380218505859375</LatitudeDegrees>
              <LongitudeDegrees>-7.721772305667400360107421875</LongitudeDegrees>
            </Position>
            <AltitudeMeters>582.79998779296875</AltitudeMeters>
            <DistanceMeters>17185.094171178</DistanceMeters>
          </Trackpoint>
          <Trackpoint>
            <Time>2019-07-26T09:30:36.000Z</Time>
            <Position>
              <LatitudeDegrees>42.96150698326528072357177734375</LatitudeDegrees>
              <LongitudeDegrees>-7.7218613214790821075439453125</LongitudeDegrees>
            </Position>
            <AltitudeMeters>582.79998779296875</AltitudeMeters>
            <DistanceMeters>17192.581407955</DistanceMeters>
          </Trackpoint>
          <Trackpoint>
            <Time>2019-07-26T09:30:41.000Z</Time>
            <Position>
              <LatitudeDegrees>42.961418218910694122314453125</LatitudeDegrees>
              <LongitudeDegrees>-7.7223102562129497528076171875</LongitudeDegrees>
            </Position>
            <AltitudeMeters>582.20001220703125</AltitudeMeters>
            <DistanceMeters>17230.459299472</DistanceMeters>
          </Trackpoint>
          <Trackpoint>
            <Time>2019-07-26T09:30:42.000Z</Time>
            <Position>
              <LatitudeDegrees>42.96141184866428375244140625</LatitudeDegrees>
              <LongitudeDegrees>-7.722405977547168731689453125</LongitudeDegrees>
            </Position>
            <AltitudeMeters>582</AltitudeMeters>
            <DistanceMeters>17238.287909107</DistanceMeters>
          </Trackpoint>
          <Trackpoint>
            <Time>2019-07-26T09:30:43.000Z</Time>
            <Position>
              <LatitudeDegrees>42.961405813694000244140625</LatitudeDegrees>
              <LongitudeDegrees>-7.72250211797654628753662109375</LongitudeDegrees>
            </Position>
            <AltitudeMeters>582</AltitudeMeters>
            <DistanceMeters>17246.147600765</DistanceMeters>
          </Trackpoint>
          <Trackpoint>
            <Time>2019-07-26T09:30:44.000Z</Time>
            <Position>
              <LatitudeDegrees>42.96139977872371673583984375</LatitudeDegrees>
              <LongitudeDegrees>-7.7225969173014163970947265625</LongitudeDegrees>
            </Position>
            <AltitudeMeters>581.79998779296875</AltitudeMeters>
            <DistanceMeters>17253.897960015</DistanceMeters>
          </Trackpoint>
          <Trackpoint>
            <Time>2019-07-26T09:30:48.000Z</Time>
            <Position>
              <LatitudeDegrees>42.9614019580185413360595703125</LatitudeDegrees>
              <LongitudeDegrees>-7.72299597971141338348388671875</LongitudeDegrees>
            </Position>
            <AltitudeMeters>581.20001220703125</AltitudeMeters>
            <DistanceMeters>17286.403208584</DistanceMeters>
          </Trackpoint>
          <Trackpoint>
            <Time>2019-07-26T09:30:49.000Z</Time>
            <Position>
              <LatitudeDegrees>42.961395084857940673828125</LatitudeDegrees>
              <LongitudeDegrees>-7.72309505380690097808837890625</LongitudeDegrees>
            </Position>
            <AltitudeMeters>581.20001220703125</AltitudeMeters>
            <DistanceMeters>17294.508937188</DistanceMeters>
          </Trackpoint>
          <Trackpoint>
            <Time>2019-07-26T09:30:52.000Z</Time>
            <Position>
              <LatitudeDegrees>42.96133632771670818328857421875</LatitudeDegrees>
              <LongitudeDegrees>-7.7233928628265857696533203125</LongitudeDegrees>
            </Position>
            <AltitudeMeters>581.20001220703125</AltitudeMeters>
            <DistanceMeters>17319.632318396</DistanceMeters>
          </Trackpoint>
          <Trackpoint>
            <Time>2019-07-26T09:30:55.000Z</Time>
            <Position>
              <LatitudeDegrees>42.96120037324726581573486328125</LatitudeDegrees>
              <LongitudeDegrees>-7.72365354001522064208984375</LongitudeDegrees>
            </Position>
            <AltitudeMeters>580.5999755859375</AltitudeMeters>
            <DistanceMeters>17345.705335384</DistanceMeters>
          </Trackpoint>
          <Trackpoint>
            <Time>2019-07-26T09:30:56.000Z</Time>
            <Position>
              <LatitudeDegrees>42.96114538796246051788330078125</LatitudeDegrees>
              <LongitudeDegrees>-7.723723612725734710693359375</LongitudeDegrees>
            </Position>
            <AltitudeMeters>580.4000244140625</AltitudeMeters>
            <DistanceMeters>17354.073083751</DistanceMeters>
          </Trackpoint>
          <Trackpoint>
            <Time>2019-07-26T09:30:57.000Z</Time>
            <Position>
              <LatitudeDegrees>42.9610888101160526275634765625</LatitudeDegrees>
              <LongitudeDegrees>-7.72378589026629924774169921875</LongitudeDegrees>
            </Position>
            <AltitudeMeters>580.20001220703125</AltitudeMeters>
            <DistanceMeters>17362.159293217</DistanceMeters>
          </Trackpoint>
          <Trackpoint>
            <Time>2019-07-26T09:30:59.000Z</Time>
            <Position>
              <LatitudeDegrees>42.9609825275838375091552734375</LatitudeDegrees>
              <LongitudeDegrees>-7.72391773760318756103515625</LongitudeDegrees>
            </Position>
            <AltitudeMeters>580</AltitudeMeters>
            <DistanceMeters>17378.13622036</DistanceMeters>
          </Trackpoint>
          <Trackpoint>
            <Time>2019-07-26T09:31:00.000Z</Time>
            <Position>
              <LatitudeDegrees>42.96093600802123546600341796875</LatitudeDegrees>
              <LongitudeDegrees>-7.72399359382688999176025390625</LongitudeDegrees>
            </Position>
            <AltitudeMeters>580</AltitudeMeters>
            <DistanceMeters>17386.197824429</DistanceMeters>
          </Trackpoint>
          <Trackpoint>
            <Time>2019-07-26T09:31:03.000Z</Time>
            <Position>
              <LatitudeDegrees>42.9608531109988689422607421875</LatitudeDegrees>
              <LongitudeDegrees>-7.72426047362387180328369140625</LongitudeDegrees>
            </Position>
            <AltitudeMeters>579.5999755859375</AltitudeMeters>
            <DistanceMeters>17409.813062328</DistanceMeters>
          </Trackpoint>
          <Trackpoint>
            <Time>2019-07-26T09:31:05.000Z</Time>
            <Position>
              <LatitudeDegrees>42.9608277976512908935546875</LatitudeDegrees>
              <LongitudeDegrees>-7.7244382537901401519775390625</LongitudeDegrees>
            </Position>
            <AltitudeMeters>579</AltitudeMeters>
            <DistanceMeters>17424.565175475</DistanceMeters>
          </Trackpoint>
          <Trackpoint>
            <Time>2019-07-26T09:31:07.000Z</Time>
            <Position>
              <LatitudeDegrees>42.9608088545501232147216796875</LatitudeDegrees>
              <LongitudeDegrees>-7.7246011979877948760986328125</LongitudeDegrees>
            </Position>
            <AltitudeMeters>578.4000244140625</AltitudeMeters>
            <DistanceMeters>17438.0039823</DistanceMeters>
          </Trackpoint>
          <Trackpoint>
            <Time>2019-07-26T09:31:08.000Z</Time>
            <Position>
              <LatitudeDegrees>42.96080055646598339080810546875</LatitudeDegrees>
              <LongitudeDegrees>-7.72467688657343387603759765625</LongitudeDegrees>
            </Position>
            <AltitudeMeters>578.20001220703125</AltitudeMeters>
            <DistanceMeters>17444.23819829</DistanceMeters>
          </Trackpoint>
          <Trackpoint>
            <Time>2019-07-26T09:31:15.000Z</Time>
            <Position>
              <LatitudeDegrees>42.96076334081590175628662109375</LatitudeDegrees>
              <LongitudeDegrees>-7.7251463569700717926025390625</LongitudeDegrees>
            </Position>
            <AltitudeMeters>578.20001220703125</AltitudeMeters>
            <DistanceMeters>17482.701720935</DistanceMeters>
          </Trackpoint>
          <Trackpoint>
            <Time>2019-07-26T09:31:19.000Z</Time>
            <Position>
              <LatitudeDegrees>42.96074205078184604644775390625</LatitudeDegrees>
              <LongitudeDegrees>-7.72539840079843997955322265625</LongitudeDegrees>
            </Position>
            <AltitudeMeters>578.20001220703125</AltitudeMeters>
            <DistanceMeters>17503.367573577</DistanceMeters>
          </Trackpoint>
          <Trackpoint>
            <Time>2019-07-26T09:31:22.000Z</Time>
            <Position>
              <LatitudeDegrees>42.96071740798652172088623046875</LatitudeDegrees>
              <LongitudeDegrees>-7.72558431141078472137451171875</LongitudeDegrees>
            </Position>
            <AltitudeMeters>578.4000244140625</AltitudeMeters>
            <DistanceMeters>17518.756914527</DistanceMeters>
          </Trackpoint>
          <Trackpoint>
            <Time>2019-07-26T09:31:26.000Z</Time>
            <Position>
              <LatitudeDegrees>42.96067432500422000885009765625</LatitudeDegrees>
              <LongitudeDegrees>-7.72580592893064022064208984375</LongitudeDegrees>
            </Position>
            <AltitudeMeters>579</AltitudeMeters>
            <DistanceMeters>17537.434680541</DistanceMeters>
          </Trackpoint>
          <Trackpoint>
            <Time>2019-07-26T09:31:30.000Z</Time>
            <Position>
              <LatitudeDegrees>42.96063342131674289703369140625</LatitudeDegrees>
              <LongitudeDegrees>-7.72600709460675716400146484375</LongitudeDegrees>
            </Position>
            <AltitudeMeters>579.5999755859375</AltitudeMeters>
            <DistanceMeters>17554.441011372</DistanceMeters>
          </Trackpoint>
          <Trackpoint>
            <Time>2019-07-26T09:31:35.000Z</Time>
            <Position>
              <LatitudeDegrees>42.96057273633778095245361328125</LatitudeDegrees>
              <LongitudeDegrees>-7.7262224256992340087890625</LongitudeDegrees>
            </Position>
            <AltitudeMeters>580.5999755859375</AltitudeMeters>
            <DistanceMeters>17573.235652373</DistanceMeters>
          </Trackpoint>
          <Trackpoint>
            <Time>2019-07-26T09:31:36.000Z</Time>
            <Position>
              <LatitudeDegrees>42.9605617560446262359619140625</LatitudeDegrees>
              <LongitudeDegrees>-7.72626039572060108184814453125</LongitudeDegrees>
            </Position>
            <AltitudeMeters>581</AltitudeMeters>
            <DistanceMeters>17576.560229574</DistanceMeters>
          </Trackpoint>
          <Trackpoint>
            <Time>2019-07-26T09:31:40.000Z</Time>
            <Position>
              <LatitudeDegrees>42.96052269637584686279296875</LatitudeDegrees>
              <LongitudeDegrees>-7.72642367519438266754150390625</LongitudeDegrees>
            </Position>
            <AltitudeMeters>581.5999755859375</AltitudeMeters>
            <DistanceMeters>17590.552731761</DistanceMeters>
          </Trackpoint>
          <Trackpoint>
            <Time>2019-07-26T09:31:43.000Z</Time>
            <Position>
              <LatitudeDegrees>42.96049310825765132904052734375</LatitudeDegrees>
              <LongitudeDegrees>-7.7265481464564800262451171875</LongitudeDegrees>
            </Position>
            <AltitudeMeters>582.20001220703125</AltitudeMeters>
            <DistanceMeters>17601.212679321</DistanceMeters>
          </Trackpoint>
          <Trackpoint>
            <Time>2019-07-26T09:31:45.000Z</Time>
            <Position>
              <LatitudeDegrees>42.960468046367168426513671875</LatitudeDegrees>
              <LongitudeDegrees>-7.72662651725113391876220703125</LongitudeDegrees>
            </Position>
            <AltitudeMeters>583</AltitudeMeters>
            <DistanceMeters>17608.180153107</DistanceMeters>
          </Trackpoint>
          <Trackpoint>
            <Time>2019-07-26T09:31:50.000Z</Time>
            <Position>
              <LatitudeDegrees>42.96040602028369903564453125</LatitudeDegrees>
              <LongitudeDegrees>-7.72682818584144115447998046875</LongitudeDegrees>
            </Position>
            <AltitudeMeters>584.20001220703125</AltitudeMeters>
            <DistanceMeters>17625.9983589</DistanceMeters>
          </Trackpoint>
          <Trackpoint>
            <Time>2019-07-26T09:31:55.000Z</Time>
            <Position>
              <LatitudeDegrees>42.96035665087401866912841796875</LatitudeDegrees>
              <LongitudeDegrees>-7.72701459936797618865966796875</LongitudeDegrees>
            </Position>
            <AltitudeMeters>585.5999755859375</AltitudeMeters>
            <DistanceMeters>17642.146191182</DistanceMeters>
          </Trackpoint>
          <Trackpoint>
            <Time>2019-07-26T09:31:56.000Z</Time>
            <Position>
              <LatitudeDegrees>42.96034156344830989837646484375</LatitudeDegrees>
              <LongitudeDegrees>-7.727058269083499908447265625</LongitudeDegrees>
            </Position>
            <AltitudeMeters>585.79998779296875</AltitudeMeters>
            <DistanceMeters>17646.079195243</DistanceMeters>
          </Trackpoint>
          <Trackpoint>
            <Time>2019-07-26T09:31:59.000Z</Time>
            <Position>
              <LatitudeDegrees>42.9603056050837039947509765625</LatitudeDegrees>
              <LongitudeDegrees>-7.727167569100856781005859375</LongitudeDegrees>
            </Position>
            <AltitudeMeters>586.5999755859375</AltitudeMeters>
            <DistanceMeters>17655.839692489</DistanceMeters>
          </Trackpoint>
          <Trackpoint>
            <Time>2019-07-26T09:32:02.000Z</Time>
            <Position>
              <LatitudeDegrees>42.96027098782360553741455078125</LatitudeDegrees>
              <LongitudeDegrees>-7.72728064097464084625244140625</LongitudeDegrees>
            </Position>
            <AltitudeMeters>587.5999755859375</AltitudeMeters>
            <DistanceMeters>17665.823378371</DistanceMeters>
          </Trackpoint>
          <Trackpoint>
            <Time>2019-07-26T09:32:03.000Z</Time>
            <Position>
              <LatitudeDegrees>42.96026051044464111328125</LatitudeDegrees>
              <LongitudeDegrees>-7.72731467150151729583740234375</LongitudeDegrees>
            </Position>
            <AltitudeMeters>587.79998779296875</AltitudeMeters>
            <DistanceMeters>17668.82988906</DistanceMeters>
          </Trackpoint>
          <Trackpoint>
            <Time>2019-07-26T09:32:07.000Z</Time>
            <Position>
              <LatitudeDegrees>42.96019420959055423736572265625</LatitudeDegrees>
              <LongitudeDegrees>-7.727465294301509857177734375</LongitudeDegrees>
            </Position>
            <AltitudeMeters>588.5999755859375</AltitudeMeters>
            <DistanceMeters>17683.1471072</DistanceMeters>
          </Trackpoint>
          <Trackpoint>
            <Time>2019-07-26T09:32:08.000Z</Time>
            <Position>
              <LatitudeDegrees>42.9601798765361309051513671875</LatitudeDegrees>
              <LongitudeDegrees>-7.72750795818865299224853515625</LongitudeDegrees>
            </Position>
            <AltitudeMeters>588.79998779296875</AltitudeMeters>
            <DistanceMeters>17686.970678013</DistanceMeters>
          </Trackpoint>
          <Trackpoint>
            <Time>2019-07-26T09:32:09.000Z</Time>
            <Position>
              <LatitudeDegrees>42.96017157845199108123779296875</LatitudeDegrees>
              <LongitudeDegrees>-7.72754902951419353485107421875</LongitudeDegrees>
            </Position>
            <AltitudeMeters>589</AltitudeMeters>
            <DistanceMeters>17690.441430378</DistanceMeters>
          </Trackpoint>
          <Trackpoint>
            <Time>2019-07-26T09:32:13.000Z</Time>
            <Position>
              <LatitudeDegrees>42.96015665866434574127197265625</LatitudeDegrees>
              <LongitudeDegrees>-7.72768892347812652587890625</LongitudeDegrees>
            </Position>
            <AltitudeMeters>590</AltitudeMeters>
            <DistanceMeters>17701.956535349</DistanceMeters>
          </Trackpoint>
          <Trackpoint>
            <Time>2019-07-26T09:32:14.000Z</Time>
            <Position>
              <LatitudeDegrees>42.960140816867351531982421875</LatitudeDegrees>
              <LongitudeDegrees>-7.72773158736526966094970703125</LongitudeDegrees>
            </Position>
            <AltitudeMeters>590.20001220703125</AltitudeMeters>
            <DistanceMeters>17705.853789328</DistanceMeters>
          </Trackpoint>
          <Trackpoint>
            <Time>2019-07-26T09:32:18.000Z</Time>
            <Position>
              <LatitudeDegrees>42.96010158956050872802734375</LatitudeDegrees>
              <LongitudeDegrees>-7.727901153266429901123046875</LongitudeDegrees>
            </Position>
            <AltitudeMeters>591</AltitudeMeters>
            <DistanceMeters>17720.339676129</DistanceMeters>
          </Trackpoint>
          <Trackpoint>
            <Time>2019-07-26T09:32:22.000Z</Time>
            <Position>
              <LatitudeDegrees>42.96006764285266399383544921875</LatitudeDegrees>
              <LongitudeDegrees>-7.72809133864939212799072265625</LongitudeDegrees>
            </Position>
            <AltitudeMeters>591.79998779296875</AltitudeMeters>
            <DistanceMeters>17736.285204105</DistanceMeters>
          </Trackpoint>
          <Trackpoint>
            <Time>2019-07-26T09:32:25.000Z</Time>
            <Position>
              <LatitudeDegrees>42.9600387252867221832275390625</LatitudeDegrees>
              <LongitudeDegrees>-7.7282523550093173980712890625</LongitudeDegrees>
            </Position>
            <AltitudeMeters>592.20001220703125</AltitudeMeters>
            <DistanceMeters>17749.789700536</DistanceMeters>
          </Trackpoint>
          <Trackpoint>
            <Time>2019-07-26T09:32:30.000Z</Time>
            <Position>
              <LatitudeDegrees>42.9599703289568424224853515625</LatitudeDegrees>
              <LongitudeDegrees>-7.72854446433484554290771484375</LongitudeDegrees>
            </Position>
            <AltitudeMeters>593.20001220703125</AltitudeMeters>
            <DistanceMeters>17774.771426722</DistanceMeters>
          </Trackpoint>
          <Trackpoint>
            <Time>2019-07-26T09:32:31.000Z</Time>
            <Position>
              <LatitudeDegrees>42.95995809137821197509765625</LatitudeDegrees>
              <LongitudeDegrees>-7.728597857058048248291015625</LongitudeDegrees>
            </Position>
            <AltitudeMeters>593.20001220703125</AltitudeMeters>
            <DistanceMeters>17779.328747845</DistanceMeters>
          </Trackpoint>
          <Trackpoint>
            <Time>2019-07-26T09:32:37.000Z</Time>
            <Position>
              <LatitudeDegrees>42.95988433063030242919921875</LatitudeDegrees>
              <LongitudeDegrees>-7.72889331914484500885009765625</LongitudeDegrees>
            </Position>
            <AltitudeMeters>593.79998779296875</AltitudeMeters>
            <DistanceMeters>17804.757229</DistanceMeters>
          </Trackpoint>
          <Trackpoint>
            <Time>2019-07-26T09:32:39.000Z</Time>
            <Position>
              <LatitudeDegrees>42.9598476178944110870361328125</LatitudeDegrees>
              <LongitudeDegrees>-7.728998847305774688720703125</LongitudeDegrees>
            </Position>
            <AltitudeMeters>593.79998779296875</AltitudeMeters>
            <DistanceMeters>17814.27461818</DistanceMeters>
          </Trackpoint>
          <Trackpoint>
            <Time>2019-07-26T09:32:44.000Z</Time>
            <Position>
              <LatitudeDegrees>42.95974745415151119232177734375</LatitudeDegrees>
              <LongitudeDegrees>-7.72929682396352291107177734375</LongitudeDegrees>
            </Position>
            <AltitudeMeters>594.20001220703125</AltitudeMeters>
            <DistanceMeters>17840.984056572</DistanceMeters>
          </Trackpoint>
          <Trackpoint>
            <Time>2019-07-26T09:32:46.000Z</Time>
            <Position>
              <LatitudeDegrees>42.95970303006470203399658203125</LatitudeDegrees>
              <LongitudeDegrees>-7.72941014729440212249755859375</LongitudeDegrees>
            </Position>
            <AltitudeMeters>594.4000244140625</AltitudeMeters>
            <DistanceMeters>17851.455120901</DistanceMeters>
          </Trackpoint>
          <Trackpoint>
            <Time>2019-07-26T09:32:52.000Z</Time>
            <Position>
              <LatitudeDegrees>42.95955852605402469635009765625</LatitudeDegrees>
              <LongitudeDegrees>-7.7297629415988922119140625</LongitudeDegrees>
            </Position>
            <AltitudeMeters>594.5999755859375</AltitudeMeters>
            <DistanceMeters>17884.38650503</DistanceMeters>
          </Trackpoint>
          <Trackpoint>
            <Time>2019-07-26T09:32:53.000Z</Time>
            <Position>
              <LatitudeDegrees>42.959531284868717193603515625</LatitudeDegrees>
              <LongitudeDegrees>-7.7298318408429622650146484375</LongitudeDegrees>
            </Position>
            <AltitudeMeters>594.5999755859375</AltitudeMeters>
            <DistanceMeters>17890.765339128</DistanceMeters>
          </Trackpoint>
          <Trackpoint>
            <Time>2019-07-26T09:32:54.000Z</Time>
            <Position>
              <LatitudeDegrees>42.95950236730277538299560546875</LatitudeDegrees>
              <LongitudeDegrees>-7.7299045957624912261962890625</LongitudeDegrees>
            </Position>
            <AltitudeMeters>594.5999755859375</AltitudeMeters>
            <DistanceMeters>17897.508889007</DistanceMeters>
          </Trackpoint>
          <Trackpoint>
            <Time>2019-07-26T09:32:56.000Z</Time>
            <Position>
              <LatitudeDegrees>42.95943950302898883819580078125</LatitudeDegrees>
              <LongitudeDegrees>-7.73005957715213298797607421875</LongitudeDegrees>
            </Position>
            <AltitudeMeters>594.5999755859375</AltitudeMeters>
            <DistanceMeters>17911.942317691</DistanceMeters>
          </Trackpoint>
          <Trackpoint>
            <Time>2019-07-26T09:32:58.000Z</Time>
            <Position>
              <LatitudeDegrees>42.95937462709844112396240234375</LatitudeDegrees>
              <LongitudeDegrees>-7.73022520355880260467529296875</LongitudeDegrees>
            </Position>
            <AltitudeMeters>594.5999755859375</AltitudeMeters>
            <DistanceMeters>17927.2442745</DistanceMeters>
          </Trackpoint>
          <Trackpoint>
            <Time>2019-07-26T09:32:59.000Z</Time>
            <Position>
              <LatitudeDegrees>42.95934277586638927459716796875</LatitudeDegrees>
              <LongitudeDegrees>-7.730312459170818328857421875</LongitudeDegrees>
            </Position>
            <AltitudeMeters>594.4000244140625</AltitudeMeters>
            <DistanceMeters>17935.186825352</DistanceMeters>
          </Trackpoint>
          <Trackpoint>
            <Time>2019-07-26T09:33:01.000Z</Time>
            <Position>
              <LatitudeDegrees>42.9592729546129703521728515625</LatitudeDegrees>
              <LongitudeDegrees>-7.7304946817457675933837890625</LongitudeDegrees>
            </Position>
            <AltitudeMeters>594.20001220703125</AltitudeMeters>
            <DistanceMeters>17951.941196613</DistanceMeters>
          </Trackpoint>
          <Trackpoint>
            <Time>2019-07-26T09:33:02.000Z</Time>
            <Position>
              <LatitudeDegrees>42.95923364348709583282470703125</LatitudeDegrees>
              <LongitudeDegrees>-7.73058478720486164093017578125</LongitudeDegrees>
            </Position>
            <AltitudeMeters>594</AltitudeMeters>
            <DistanceMeters>17960.485678344</DistanceMeters>
          </Trackpoint>
          <Trackpoint>
            <Time>2019-07-26T09:33:04.000Z</Time>
            <Position>
              <LatitudeDegrees>42.95915720053017139434814453125</LatitudeDegrees>
              <LongitudeDegrees>-7.7307741343975067138671875</LongitudeDegrees>
            </Position>
            <AltitudeMeters>593.79998779296875</AltitudeMeters>
            <DistanceMeters>17978.100258288</DistanceMeters>
          </Trackpoint>
          <Trackpoint>
            <Time>2019-07-26T09:33:06.000Z</Time>
            <Position>
              <LatitudeDegrees>42.9590825177729129791259765625</LatitudeDegrees>
              <LongitudeDegrees>-7.7309739589691162109375</LongitudeDegrees>
            </Position>
            <AltitudeMeters>593.20001220703125</AltitudeMeters>
            <DistanceMeters>17996.376541489</DistanceMeters>
          </Trackpoint>
          <Trackpoint>
            <Time>2019-07-26T09:33:07.000Z</Time>
            <Position>
              <LatitudeDegrees>42.95904153026640415191650390625</LatitudeDegrees>
              <LongitudeDegrees>-7.73107429035007953643798828125</LongitudeDegrees>
            </Position>
            <AltitudeMeters>592.79998779296875</AltitudeMeters>
            <DistanceMeters>18005.736069874</DistanceMeters>
          </Trackpoint>
          <Trackpoint>
            <Time>2019-07-26T09:33:09.000Z</Time>
            <Position>
              <LatitudeDegrees>42.95895704068243503570556640625</LatitudeDegrees>
              <LongitudeDegrees>-7.73127864114940166473388671875</LongitudeDegrees>
            </Position>
            <AltitudeMeters>592.20001220703125</AltitudeMeters>
            <DistanceMeters>18024.854160107</DistanceMeters>
          </Trackpoint>
          <Trackpoint>
            <Time>2019-07-26T09:33:11.000Z</Time>
            <Position>
              <LatitudeDegrees>42.9588823579251766204833984375</LatitudeDegrees>
              <LongitudeDegrees>-7.73149095475673675537109375</LongitudeDegrees>
            </Position>
            <AltitudeMeters>591.4000244140625</AltitudeMeters>
            <DistanceMeters>18044.042028065</DistanceMeters>
          </Trackpoint>
          <Trackpoint>
            <Time>2019-07-26T09:33:12.000Z</Time>
            <Position>
              <LatitudeDegrees>42.958846986293792724609375</LatitudeDegrees>
              <LongitudeDegrees>-7.7315953932702541351318359375</LongitudeDegrees>
            </Position>
            <AltitudeMeters>591</AltitudeMeters>
            <DistanceMeters>18053.416498927</DistanceMeters>
          </Trackpoint>
          <Trackpoint>
            <Time>2019-07-26T09:33:15.000Z</Time>
            <Position>
              <LatitudeDegrees>42.9587249457836151123046875</LatitudeDegrees>
              <LongitudeDegrees>-7.73192438296973705291748046875</LongitudeDegrees>
            </Position>
            <AltitudeMeters>590.20001220703125</AltitudeMeters>
            <DistanceMeters>18083.460573906</DistanceMeters>
          </Trackpoint>
          <Trackpoint>
            <Time>2019-07-26T09:33:16.000Z</Time>
            <Position>
              <LatitudeDegrees>42.95868127606809139251708984375</LatitudeDegrees>
              <LongitudeDegrees>-7.732039801776409149169921875</LongitudeDegrees>
            </Position>
            <AltitudeMeters>589.79998779296875</AltitudeMeters>
            <DistanceMeters>18094.044007575</DistanceMeters>
          </Trackpoint>
          <Trackpoint>
            <Time>2019-07-26T09:33:18.000Z</Time>
            <Position>
              <LatitudeDegrees>42.95859284698963165283203125</LatitudeDegrees>
              <LongitudeDegrees>-7.7322770096361637115478515625</LongitudeDegrees>
            </Position>
            <AltitudeMeters>588.79998779296875</AltitudeMeters>
            <DistanceMeters>18115.728429185</DistanceMeters>
          </Trackpoint>
          <Trackpoint>
            <Time>2019-07-26T09:33:20.000Z</Time>
            <Position>
              <LatitudeDegrees>42.9585105367004871368408203125</LatitudeDegrees>
              <LongitudeDegrees>-7.7325224317610263824462890625</LongitudeDegrees>
            </Position>
            <AltitudeMeters>587.4000244140625</AltitudeMeters>
            <DistanceMeters>18137.718645729</DistanceMeters>
          </Trackpoint>
          <Trackpoint>
            <Time>2019-07-26T09:33:22.000Z</Time>
            <Position>
              <LatitudeDegrees>42.95843191444873809814453125</LatitudeDegrees>
              <LongitudeDegrees>-7.7327789179980754852294921875</LongitudeDegrees>
            </Position>
            <AltitudeMeters>586</AltitudeMeters>
            <DistanceMeters>18160.36971377</DistanceMeters>
          </Trackpoint>
          <Trackpoint>
            <Time>2019-07-26T09:33:23.000Z</Time>
            <Position>
              <LatitudeDegrees>42.9583928547799587249755859375</LatitudeDegrees>
              <LongitudeDegrees>-7.73290850222110748291015625</LongitudeDegrees>
            </Position>
            <AltitudeMeters>585.5999755859375</AltitudeMeters>
            <DistanceMeters>18171.785582692</DistanceMeters>
          </Trackpoint>
          <Trackpoint>
            <Time>2019-07-26T09:33:25.000Z</Time>
            <Position>
              <LatitudeDegrees>42.95830375514924526214599609375</LatitudeDegrees>
              <LongitudeDegrees>-7.73316926322877407073974609375</LongitudeDegrees>
            </Position>
            <AltitudeMeters>584.5999755859375</AltitudeMeters>
            <DistanceMeters>18195.227153498</DistanceMeters>
          </Trackpoint>
          <Trackpoint>
            <Time>2019-07-26T09:33:27.000Z</Time>
            <Position>
              <LatitudeDegrees>42.95820702798664569854736328125</LatitudeDegrees>
              <LongitudeDegrees>-7.73344092071056365966796875</LongitudeDegrees>
            </Position>
            <AltitudeMeters>583.20001220703125</AltitudeMeters>
            <DistanceMeters>18219.835219784</DistanceMeters>
          </Trackpoint>
          <Trackpoint>
            <Time>2019-07-26T09:33:29.000Z</Time>
            <Position>
              <LatitudeDegrees>42.95810443349182605743408203125</LatitudeDegrees>
              <LongitudeDegrees>-7.73372448049485683441162109375</LongitudeDegrees>
            </Position>
            <AltitudeMeters>582.4000244140625</AltitudeMeters>
            <DistanceMeters>18245.601656874</DistanceMeters>
          </Trackpoint>
          <Trackpoint>
            <Time>2019-07-26T09:33:30.000Z</Time>
            <Position>
              <LatitudeDegrees>42.958050705492496490478515625</LatitudeDegrees>
              <LongitudeDegrees>-7.73386462591588497161865234375</LongitudeDegrees>
            </Position>
            <AltitudeMeters>582</AltitudeMeters>
            <DistanceMeters>18258.488905065</DistanceMeters>
          </Trackpoint>
          <Trackpoint>
            <Time>2019-07-26T09:33:33.000Z</Time>
            <Position>
              <LatitudeDegrees>42.9578855820000171661376953125</LatitudeDegrees>
              <LongitudeDegrees>-7.73428455926477909088134765625</LongitudeDegrees>
            </Position>
            <AltitudeMeters>580.5999755859375</AltitudeMeters>
            <DistanceMeters>18297.320081004</DistanceMeters>
          </Trackpoint>
          <Trackpoint>
            <Time>2019-07-26T09:33:35.000Z</Time>
            <Position>
              <LatitudeDegrees>42.95778659172356128692626953125</LatitudeDegrees>
              <LongitudeDegrees>-7.73454875685274600982666015625</LongitudeDegrees>
            </Position>
            <AltitudeMeters>579.4000244140625</AltitudeMeters>
            <DistanceMeters>18321.497237751</DistanceMeters>
          </Trackpoint>
          <Trackpoint>
            <Time>2019-07-26T09:33:36.000Z</Time>
            <Position>
              <LatitudeDegrees>42.95773713849484920501708984375</LatitudeDegrees>
              <LongitudeDegrees>-7.73468186147511005401611328125</LongitudeDegrees>
            </Position>
            <AltitudeMeters>578.5999755859375</AltitudeMeters>
            <DistanceMeters>18333.656201997</DistanceMeters>
          </Trackpoint>
          <Trackpoint>
            <Time>2019-07-26T09:33:37.000Z</Time>
            <Position>
              <LatitudeDegrees>42.95768198557198047637939453125</LatitudeDegrees>
              <LongitudeDegrees>-7.7348137088119983673095703125</LongitudeDegrees>
            </Position>
            <AltitudeMeters>577.4000244140625</AltitudeMeters>
            <DistanceMeters>18346.026475859</DistanceMeters>
          </Trackpoint>
          <Trackpoint>
            <Time>2019-07-26T09:33:39.000Z</Time>
            <Position>
              <LatitudeDegrees>42.95757830142974853515625</LatitudeDegrees>
              <LongitudeDegrees>-7.73507145233452320098876953125</LongitudeDegrees>
            </Position>
            <AltitudeMeters>576</AltitudeMeters>
            <DistanceMeters>18369.984140999</DistanceMeters>
          </Trackpoint>
          <Trackpoint>
            <Time>2019-07-26T09:33:41.000Z</Time>
            <Position>
              <LatitudeDegrees>42.95748182572424411773681640625</LatitudeDegrees>
              <LongitudeDegrees>-7.7353213168680667877197265625</LongitudeDegrees>
            </Position>
            <AltitudeMeters>574.79998779296875</AltitudeMeters>
            <DistanceMeters>18392.996503612</DistanceMeters>
          </Trackpoint>
          <Trackpoint>
            <Time>2019-07-26T09:33:42.000Z</Time>
            <Position>
              <LatitudeDegrees>42.95743388123810291290283203125</LatitudeDegrees>
              <LongitudeDegrees>-7.73544696159660816192626953125</LongitudeDegrees>
            </Position>
            <AltitudeMeters>574.4000244140625</AltitudeMeters>
            <DistanceMeters>18404.539022742</DistanceMeters>
          </Trackpoint>
          <Trackpoint>
            <Time>2019-07-26T09:33:43.000Z</Time>
            <Position>
              <LatitudeDegrees>42.9573887027800083160400390625</LatitudeDegrees>
              <LongitudeDegrees>-7.7355704270303249359130859375</LongitudeDegrees>
            </Position>
            <AltitudeMeters>573.79998779296875</AltitudeMeters>
            <DistanceMeters>18415.782735216</DistanceMeters>
          </Trackpoint>
          <Trackpoint>
            <Time>2019-07-26T09:33:45.000Z</Time>
            <Position>
              <LatitudeDegrees>42.957303710281848907470703125</LatitudeDegrees>
              <LongitudeDegrees>-7.73581576533615589141845703125</LongitudeDegrees>
            </Position>
            <AltitudeMeters>572.5999755859375</AltitudeMeters>
            <DistanceMeters>18437.893146305</DistanceMeters>
          </Trackpoint>
          <Trackpoint>
            <Time>2019-07-26T09:33:48.000Z</Time>
            <Position>
              <LatitudeDegrees>42.95716482214629650115966796875</LatitudeDegrees>
              <LongitudeDegrees>-7.73616864345967769622802734375</LongitudeDegrees>
            </Position>
            <AltitudeMeters>571.20001220703125</AltitudeMeters>
            <DistanceMeters>18470.530776543</DistanceMeters>
          </Trackpoint>
          <Trackpoint>
            <Time>2019-07-26T09:33:49.000Z</Time>
            <Position>
              <LatitudeDegrees>42.9570869542658329010009765625</LatitudeDegrees>
              <LongitudeDegrees>-7.736282050609588623046875</LongitudeDegrees>
            </Position>
            <AltitudeMeters>570.79998779296875</AltitudeMeters>
            <DistanceMeters>18483.197876777</DistanceMeters>
          </Trackpoint>
          <Trackpoint>
            <Time>2019-07-26T09:33:51.000Z</Time>
            <Position>
              <LatitudeDegrees>42.95692442916333675384521484375</LatitudeDegrees>
              <LongitudeDegrees>-7.73642445914447307586669921875</LongitudeDegrees>
            </Position>
            <AltitudeMeters>569.79998779296875</AltitudeMeters>
            <DistanceMeters>18504.687155017</DistanceMeters>
          </Trackpoint>
          <Trackpoint>
            <Time>2019-07-26T09:33:52.000Z</Time>
            <Position>
              <LatitudeDegrees>42.95682803727686405181884765625</LatitudeDegrees>
              <LongitudeDegrees>-7.73646854795515537261962890625</LongitudeDegrees>
            </Position>
            <AltitudeMeters>569.4000244140625</AltitudeMeters>
            <DistanceMeters>18516.00132152</DistanceMeters>
          </Trackpoint>
          <Trackpoint>
            <Time>2019-07-26T09:33:53.000Z</Time>
            <Position>
              <LatitudeDegrees>42.95673809945583343505859375</LatitudeDegrees>
              <LongitudeDegrees>-7.73650257848203182220458984375</LongitudeDegrees>
            </Position>
            <AltitudeMeters>569</AltitudeMeters>
            <DistanceMeters>18526.388397786</DistanceMeters>
          </Trackpoint>
          <Trackpoint>
            <Time>2019-07-26T09:33:54.000Z</Time>
            <Position>
              <LatitudeDegrees>42.956653274595737457275390625</LatitudeDegrees>
              <LongitudeDegrees>-7.73652956821024417877197265625</LongitudeDegrees>
            </Position>
            <AltitudeMeters>568.20001220703125</AltitudeMeters>
            <DistanceMeters>18536.081588458</DistanceMeters>
          </Trackpoint>
          <Trackpoint>
            <Time>2019-07-26T09:33:56.000Z</Time>
            <Position>
              <LatitudeDegrees>42.95649292878806591033935546875</LatitudeDegrees>
              <LongitudeDegrees>-7.73658757098019123077392578125</LongitudeDegrees>
            </Position>
            <AltitudeMeters>566.79998779296875</AltitudeMeters>
            <DistanceMeters>18554.543202832</DistanceMeters>
          </Trackpoint>
          <Trackpoint>
            <Time>2019-07-26T09:33:58.000Z</Time>
            <Position>
              <LatitudeDegrees>42.95635454356670379638671875</LatitudeDegrees>
              <LongitudeDegrees>-7.736656554043292999267578125</LongitudeDegrees>
            </Position>
            <AltitudeMeters>565.79998779296875</AltitudeMeters>
            <DistanceMeters>18570.938547159</DistanceMeters>
          </Trackpoint>
          <Trackpoint>
            <Time>2019-07-26T09:33:59.000Z</Time>
            <Position>
              <LatitudeDegrees>42.95629293657839298248291015625</LatitudeDegrees>
              <LongitudeDegrees>-7.7366952784359455108642578125</LongitudeDegrees>
            </Position>
            <AltitudeMeters>565.5999755859375</AltitudeMeters>
            <DistanceMeters>18578.48584616</DistanceMeters>
          </Trackpoint>
          <Trackpoint>
            <Time>2019-07-26T09:34:02.000Z</Time>
            <Position>
              <LatitudeDegrees>42.9561553895473480224609375</LatitudeDegrees>
              <LongitudeDegrees>-7.73681723512709140777587890625</LongitudeDegrees>
            </Position>
            <AltitudeMeters>565.4000244140625</AltitudeMeters>
            <DistanceMeters>18596.735923956</DistanceMeters>
          </Trackpoint>
          <Trackpoint>
            <Time>2019-07-26T09:34:07.000Z</Time>
            <Position>
              <LatitudeDegrees>42.955997474491596221923828125</LatitudeDegrees>
              <LongitudeDegrees>-7.736955620348453521728515625</LongitudeDegrees>
            </Position>
            <AltitudeMeters>565.4000244140625</AltitudeMeters>
            <DistanceMeters>18617.616517361</DistanceMeters>
          </Trackpoint>
          <Trackpoint>
            <Time>2019-07-26T09:34:10.000Z</Time>
            <Position>
              <LatitudeDegrees>42.9559086263179779052734375</LatitudeDegrees>
              <LongitudeDegrees>-7.73699979297816753387451171875</LongitudeDegrees>
            </Position>
            <AltitudeMeters>566</AltitudeMeters>
            <DistanceMeters>18628.140055621</DistanceMeters>
          </Trackpoint>
          <Trackpoint>
            <Time>2019-07-26T09:34:13.000Z</Time>
            <Position>
              <LatitudeDegrees>42.95584584586322307586669921875</LatitudeDegrees>
              <LongitudeDegrees>-7.7370215021073818206787109375</LongitudeDegrees>
            </Position>
            <AltitudeMeters>566.4000244140625</AltitudeMeters>
            <DistanceMeters>18635.348318924</DistanceMeters>
          </Trackpoint>
          <Trackpoint>
            <Time>2019-07-26T09:34:15.000Z</Time>
            <Position>
              <LatitudeDegrees>42.95579303987324237823486328125</LatitudeDegrees>
              <LongitudeDegrees>-7.73703080601990222930908203125</LongitudeDegrees>
            </Position>
            <AltitudeMeters>566.5999755859375</AltitudeMeters>
            <DistanceMeters>18641.275122225</DistanceMeters>
          </Trackpoint>
          <Trackpoint>
            <Time>2019-07-26T09:34:19.000Z</Time>
            <Position>
              <LatitudeDegrees>42.9556777887046337127685546875</LatitudeDegrees>
              <LongitudeDegrees>-7.7370841987431049346923828125</LongitudeDegrees>
            </Position>
            <AltitudeMeters>567.20001220703125</AltitudeMeters>
            <DistanceMeters>18654.82001289</DistanceMeters>
          </Trackpoint>
          <Trackpoint>
            <Time>2019-07-26T09:34:22.000Z</Time>
            <Position>
              <LatitudeDegrees>42.9556323587894439697265625</LatitudeDegrees>
              <LongitudeDegrees>-7.73718184791505336761474609375</LongitudeDegrees>
            </Position>
            <AltitudeMeters>568.20001220703125</AltitudeMeters>
            <DistanceMeters>18664.245398402</DistanceMeters>
          </Trackpoint>
          <Trackpoint>
            <Time>2019-07-26T09:34:23.000Z</Time>
            <Position>
              <LatitudeDegrees>42.95562808401882648468017578125</LatitudeDegrees>
              <LongitudeDegrees>-7.737215459346771240234375</LongitudeDegrees>
            </Position>
            <AltitudeMeters>568.4000244140625</AltitudeMeters>
            <DistanceMeters>18667.024015929</DistanceMeters>
          </Trackpoint>
          <Trackpoint>
            <Time>2019-07-26T09:34:29.000Z</Time>
            <Position>
              <LatitudeDegrees>42.95561701990664005279541015625</LatitudeDegrees>
              <LongitudeDegrees>-7.7374120987951755523681640625</LongitudeDegrees>
            </Position>
            <AltitudeMeters>569.20001220703125</AltitudeMeters>
            <DistanceMeters>18683.089433599</DistanceMeters>
          </Trackpoint>
          <Trackpoint>
            <Time>2019-07-26T09:34:33.000Z</Time>
            <Position>
              <LatitudeDegrees>42.955583073198795318603515625</LatitudeDegrees>
              <LongitudeDegrees>-7.73753388784825801849365234375</LongitudeDegrees>
            </Position>
            <AltitudeMeters>570.20001220703125</AltitudeMeters>
            <DistanceMeters>18693.704815078</DistanceMeters>
          </Trackpoint>
          <Trackpoint>
            <Time>2019-07-26T09:34:35.000Z</Time>
            <Position>
              <LatitudeDegrees>42.9555465281009674072265625</LatitudeDegrees>
              <LongitudeDegrees>-7.73757864721119403839111328125</LongitudeDegrees>
            </Position>
            <AltitudeMeters>570.79998779296875</AltitudeMeters>
            <DistanceMeters>18699.16699162</DistanceMeters>
          </Trackpoint>
          <Trackpoint>
            <Time>2019-07-26T09:34:38.000Z</Time>
            <Position>
              <LatitudeDegrees>42.95549514703452587127685546875</LatitudeDegrees>
              <LongitudeDegrees>-7.73760647512972354888916015625</LongitudeDegrees>
            </Position>
            <AltitudeMeters>571.4000244140625</AltitudeMeters>
            <DistanceMeters>18705.31882471</DistanceMeters>
          </Trackpoint>
          <Trackpoint>
            <Time>2019-07-26T09:34:41.000Z</Time>
            <Position>
              <LatitudeDegrees>42.95543747954070568084716796875</LatitudeDegrees>
              <LongitudeDegrees>-7.7376508153975009918212890625</LongitudeDegrees>
            </Position>
            <AltitudeMeters>572</AltitudeMeters>
            <DistanceMeters>18712.684467878</DistanceMeters>
          </Trackpoint>
          <Trackpoint>
            <Time>2019-07-26T09:34:44.000Z</Time>
            <Position>
              <LatitudeDegrees>42.95540294609963893890380859375</LatitudeDegrees>
              <LongitudeDegrees>-7.73772482760250568389892578125</LongitudeDegrees>
            </Position>
            <AltitudeMeters>572.20001220703125</AltitudeMeters>
            <DistanceMeters>18719.834241493</DistanceMeters>
          </Trackpoint>
          <Trackpoint>
            <Time>2019-07-26T09:34:46.000Z</Time>
            <Position>
              <LatitudeDegrees>42.95540194027125835418701171875</LatitudeDegrees>
              <LongitudeDegrees>-7.73778551258146762847900390625</LongitudeDegrees>
            </Position>
            <AltitudeMeters>572.4000244140625</AltitudeMeters>
            <DistanceMeters>18724.77745774</DistanceMeters>
          </Trackpoint>
          <Trackpoint>
            <Time>2019-07-26T09:34:48.000Z</Time>
            <Position>
              <LatitudeDegrees>42.95540043152868747711181640625</LatitudeDegrees>
              <LongitudeDegrees>-7.73784770630300045013427734375</LongitudeDegrees>
            </Position>
            <AltitudeMeters>572.79998779296875</AltitudeMeters>
            <DistanceMeters>18729.846934789</DistanceMeters>
          </Trackpoint>
          <Trackpoint>
            <Time>2019-07-26T09:34:52.000Z</Time>
            <Position>
              <LatitudeDegrees>42.95540043152868747711181640625</LatitudeDegrees>
              <LongitudeDegrees>-7.7379780448973178863525390625</LongitudeDegrees>
            </Position>
            <AltitudeMeters>573.4000244140625</AltitudeMeters>
            <DistanceMeters>18740.464442705</DistanceMeters>
          </Trackpoint>
          <Trackpoint>
            <Time>2019-07-26T09:34:54.000Z</Time>
            <Position>
              <LatitudeDegrees>42.95540034770965576171875</LatitudeDegrees>
              <LongitudeDegrees>-7.738041244447231292724609375</LongitudeDegrees>
            </Position>
            <AltitudeMeters>573.79998779296875</AltitudeMeters>
            <DistanceMeters>18745.613452749</DistanceMeters>
          </Trackpoint>
          <Trackpoint>
            <Time>2019-07-26T09:34:59.000Z</Time>
            <Position>
              <LatitudeDegrees>42.95538358390331268310546875</LatitudeDegrees>
              <LongitudeDegrees>-7.738216929137706756591796875</LongitudeDegrees>
            </Position>
            <AltitudeMeters>574.5999755859375</AltitudeMeters>
            <DistanceMeters>18760.045942948</DistanceMeters>
          </Trackpoint>
          <Trackpoint>
            <Time>2019-07-26T09:35:00.000Z</Time>
            <Position>
              <LatitudeDegrees>42.9553760401904582977294921875</LatitudeDegrees>
              <LongitudeDegrees>-7.7382489480078220367431640625</LongitudeDegrees>
            </Position>
            <AltitudeMeters>574.79998779296875</AltitudeMeters>
            <DistanceMeters>18762.785284753</DistanceMeters>
          </Trackpoint>
          <Trackpoint>
            <Time>2019-07-26T09:35:05.000Z</Time>
            <Position>
              <LatitudeDegrees>42.955332957208156585693359375</LatitudeDegrees>
              <LongitudeDegrees>-7.73839336819946765899658203125</LongitudeDegrees>
            </Position>
            <AltitudeMeters>575.5999755859375</AltitudeMeters>
            <DistanceMeters>18775.48975587</DistanceMeters>
          </Trackpoint>
          <Trackpoint>
            <Time>2019-07-26T09:35:07.000Z</Time>
            <Position>
              <LatitudeDegrees>42.95531451702117919921875</LatitudeDegrees>
              <LongitudeDegrees>-7.73844466544687747955322265625</LongitudeDegrees>
            </Position>
            <AltitudeMeters>576</AltitudeMeters>
            <DistanceMeters>18780.145095112</DistanceMeters>
          </Trackpoint>
          <Trackpoint>
            <Time>2019-07-26T09:35:12.000Z</Time>
            <Position>
              <LatitudeDegrees>42.95525173656642436981201171875</LatitudeDegrees>
              <LongitudeDegrees>-7.73858900181949138641357421875</LongitudeDegrees>
            </Position>
            <AltitudeMeters>576.5999755859375</AltitudeMeters>
            <DistanceMeters>18793.822341312</DistanceMeters>
          </Trackpoint>
          <Trackpoint>
            <Time>2019-07-26T09:35:14.000Z</Time>
            <Position>
              <LatitudeDegrees>42.9552219808101654052734375</LatitudeDegrees>
              <LongitudeDegrees>-7.738643400371074676513671875</LongitudeDegrees>
            </Position>
            <AltitudeMeters>577</AltitudeMeters>
            <DistanceMeters>18799.355148841</DistanceMeters>
          </Trackpoint>
          <Trackpoint>
            <Time>2019-07-26T09:35:17.000Z</Time>
            <Position>
              <LatitudeDegrees>42.95518367551267147064208984375</LatitudeDegrees>
              <LongitudeDegrees>-7.7387240342795848846435546875</LongitudeDegrees>
            </Position>
            <AltitudeMeters>577.79998779296875</AltitudeMeters>
            <DistanceMeters>18807.186641623</DistanceMeters>
          </Trackpoint>
          <Trackpoint>
            <Time>2019-07-26T09:35:20.000Z</Time>
            <Position>
              <LatitudeDegrees>42.955153919756412506103515625</LatitudeDegrees>
              <LongitudeDegrees>-7.73878212086856365203857421875</LongitudeDegrees>
            </Position>
            <AltitudeMeters>578.20001220703125</AltitudeMeters>
            <DistanceMeters>18812.962202409</DistanceMeters>
          </Trackpoint>
          <Trackpoint>
            <Time>2019-07-26T09:35:23.000Z</Time>
            <Position>
              <LatitudeDegrees>42.955110333859920501708984375</LatitudeDegrees>
              <LongitudeDegrees>-7.73882905952632427215576171875</LongitudeDegrees>
            </Position>
            <AltitudeMeters>579</AltitudeMeters>
            <DistanceMeters>18819.138938843</DistanceMeters>
          </Trackpoint>
          <Trackpoint>
            <Time>2019-07-26T09:35:27.000Z</Time>
            <Position>
              <LatitudeDegrees>42.95507244765758514404296875</LatitudeDegrees>
              <LongitudeDegrees>-7.738867364823818206787109375</LongitudeDegrees>
            </Position>
            <AltitudeMeters>579.5999755859375</AltitudeMeters>
            <DistanceMeters>18824.38351822</DistanceMeters>
          </Trackpoint>
          <Trackpoint>
            <Time>2019-07-26T09:35:28.000Z</Time>
            <Position>
              <LatitudeDegrees>42.9550716094672679901123046875</LatitudeDegrees>
              <LongitudeDegrees>-7.7388655208051204681396484375</LongitudeDegrees>
            </Position>
            <AltitudeMeters>579.79998779296875</AltitudeMeters>
            <DistanceMeters>18824.573571649</DistanceMeters>
          </Trackpoint>
          <Trackpoint>
            <Time>2019-07-26T09:36:02.000Z</Time>
            <Position>
              <LatitudeDegrees>42.95509952120482921600341796875</LatitudeDegrees>
              <LongitudeDegrees>-7.73893651552498340606689453125</LongitudeDegrees>
            </Position>
            <AltitudeMeters>580.4000244140625</AltitudeMeters>
            <DistanceMeters>18831.138672933</DistanceMeters>
          </Trackpoint>
          <Trackpoint>
            <Time>2019-07-26T09:36:03.000Z</Time>
            <Position>
              <LatitudeDegrees>42.95510337688028812408447265625</LatitudeDegrees>
              <LongitudeDegrees>-7.738955877721309661865234375</LongitudeDegrees>
            </Position>
            <AltitudeMeters>580.4000244140625</AltitudeMeters>
            <DistanceMeters>18832.768041668</DistanceMeters>
          </Trackpoint>
          <Trackpoint>
            <Time>2019-07-26T09:36:05.000Z</Time>
            <Position>
              <LatitudeDegrees>42.9551115073263645172119140625</LatitudeDegrees>
              <LongitudeDegrees>-7.7390013076364994049072265625</LongitudeDegrees>
            </Position>
            <AltitudeMeters>580.4000244140625</AltitudeMeters>
            <DistanceMeters>18836.577416006</DistanceMeters>
          </Trackpoint>
          <Trackpoint>
            <Time>2019-07-26T09:36:09.000Z</Time>
            <Position>
              <LatitudeDegrees>42.95514193363487720489501953125</LatitudeDegrees>
              <LongitudeDegrees>-7.7390992082655429840087890625</LongitudeDegrees>
            </Position>
            <AltitudeMeters>580.4000244140625</AltitudeMeters>
            <DistanceMeters>18845.241538897</DistanceMeters>
          </Trackpoint>
          <Trackpoint>
            <Time>2019-07-26T09:36:11.000Z</Time>
            <Position>
              <LatitudeDegrees>42.95514411292970180511474609375</LatitudeDegrees>
              <LongitudeDegrees>-7.73914841003715991973876953125</LongitudeDegrees>
            </Position>
            <AltitudeMeters>580.4000244140625</AltitudeMeters>
            <DistanceMeters>18849.257471731</DistanceMeters>
          </Trackpoint>
          <Trackpoint>
            <Time>2019-07-26T09:36:17.000Z</Time>
            <Position>
              <LatitudeDegrees>42.95514713041484355926513671875</LatitudeDegrees>
              <LongitudeDegrees>-7.73929844610393047332763671875</LongitudeDegrees>
            </Position>
            <AltitudeMeters>580.79998779296875</AltitudeMeters>
            <DistanceMeters>18861.484201283</DistanceMeters>
          </Trackpoint>
          <Trackpoint>
            <Time>2019-07-26T09:36:21.000Z</Time>
            <Position>
              <LatitudeDegrees>42.955137826502323150634765625</LatitudeDegrees>
              <LongitudeDegrees>-7.73933465592563152313232421875</LongitudeDegrees>
            </Position>
            <AltitudeMeters>581</AltitudeMeters>
            <DistanceMeters>18864.612875581</DistanceMeters>
          </Trackpoint>
          <Trackpoint>
            <Time>2019-07-26T09:36:56.000Z</Time>
            <Position>
              <LatitudeDegrees>42.95515819452702999114990234375</LatitudeDegrees>
              <LongitudeDegrees>-7.7394483983516693115234375</LongitudeDegrees>
            </Position>
            <AltitudeMeters>581.4000244140625</AltitudeMeters>
            <DistanceMeters>18874.15158882</DistanceMeters>
          </Trackpoint>
          <Trackpoint>
            <Time>2019-07-26T09:37:00.000Z</Time>
            <Position>
              <LatitudeDegrees>42.9551721923053264617919921875</LatitudeDegrees>
              <LongitudeDegrees>-7.73957186378538608551025390625</LongitudeDegrees>
            </Position>
            <AltitudeMeters>581.4000244140625</AltitudeMeters>
            <DistanceMeters>18884.328768037</DistanceMeters>
          </Trackpoint>
          <Trackpoint>
            <Time>2019-07-26T09:37:02.000Z</Time>
            <Position>
              <LatitudeDegrees>42.95516925863921642303466796875</LatitudeDegrees>
              <LongitudeDegrees>-7.73964210413396358489990234375</LongitudeDegrees>
            </Position>
            <AltitudeMeters>581.4000244140625</AltitudeMeters>
            <DistanceMeters>18890.058807998</DistanceMeters>
          </Trackpoint>
          <Trackpoint>
            <Time>2019-07-26T09:37:05.000Z</Time>
            <Position>
              <LatitudeDegrees>42.95516439713537693023681640625</LatitudeDegrees>
              <LongitudeDegrees>-7.7397526614367961883544921875</LongitudeDegrees>
            </Position>
            <AltitudeMeters>581.4000244140625</AltitudeMeters>
            <DistanceMeters>18899.080842639</DistanceMeters>
          </Trackpoint>
          <Trackpoint>
            <Time>2019-07-26T09:37:07.000Z</Time>
            <Position>
              <LatitudeDegrees>42.95515802688896656036376953125</LatitudeDegrees>
              <LongitudeDegrees>-7.7398254163563251495361328125</LongitudeDegrees>
            </Position>
            <AltitudeMeters>581.4000244140625</AltitudeMeters>
            <DistanceMeters>18905.050154295</DistanceMeters>
          </Trackpoint>
          <Trackpoint>
            <Time>2019-07-26T09:37:09.000Z</Time>
            <Position>
              <LatitudeDegrees>42.9551480524241924285888671875</LatitudeDegrees>
              <LongitudeDegrees>-7.73989565670490264892578125</LongitudeDegrees>
            </Position>
            <AltitudeMeters>581.5999755859375</AltitudeMeters>
            <DistanceMeters>18910.87863159</DistanceMeters>
          </Trackpoint>
          <Trackpoint>
            <Time>2019-07-26T09:37:10.000Z</Time>
            <Position>
              <LatitudeDegrees>42.9551388323307037353515625</LatitudeDegrees>
              <LongitudeDegrees>-7.73993245325982570648193359375</LongitudeDegrees>
            </Position>
            <AltitudeMeters>581.5999755859375</AltitudeMeters>
            <DistanceMeters>18914.047455505</DistanceMeters>
          </Trackpoint>
          <Trackpoint>
            <Time>2019-07-26T09:37:13.000Z</Time>
            <Position>
              <LatitudeDegrees>42.95510404743254184722900390625</LatitudeDegrees>
              <LongitudeDegrees>-7.7400477044284343719482421875</LongitudeDegrees>
            </Position>
            <AltitudeMeters>582.20001220703125</AltitudeMeters>
            <DistanceMeters>18924.20287293</DistanceMeters>
          </Trackpoint>
          <Trackpoint>
            <Time>2019-07-26T09:37:14.000Z</Time>
            <Position>
              <LatitudeDegrees>42.9550917260348796844482421875</LatitudeDegrees>
              <LongitudeDegrees>-7.7400894463062286376953125</LongitudeDegrees>
            </Position>
            <AltitudeMeters>582.5999755859375</AltitudeMeters>
            <DistanceMeters>18927.868490715</DistanceMeters>
          </Trackpoint>
          <Trackpoint>
            <Time>2019-07-26T09:37:19.000Z</Time>
            <Position>
              <LatitudeDegrees>42.9550288617610931396484375</LatitudeDegrees>
              <LongitudeDegrees>-7.74029958061873912811279296875</LongitudeDegrees>
            </Position>
            <AltitudeMeters>583.5999755859375</AltitudeMeters>
            <DistanceMeters>18946.361138579</DistanceMeters>
          </Trackpoint>
          <Trackpoint>
            <Time>2019-07-26T09:37:27.000Z</Time>
            <Position>
              <LatitudeDegrees>42.9549153707921504974365234375</LatitudeDegrees>
              <LongitudeDegrees>-7.74061272852122783660888671875</LongitudeDegrees>
            </Position>
            <AltitudeMeters>584.5999755859375</AltitudeMeters>
            <DistanceMeters>18974.826675979</DistanceMeters>
          </Trackpoint>
          <Trackpoint>
            <Time>2019-07-26T09:37:28.000Z</Time>
            <Position>
              <LatitudeDegrees>42.95489097945392131805419921875</LatitudeDegrees>
              <LongitudeDegrees>-7.74064709432423114776611328125</LongitudeDegrees>
            </Position>
            <AltitudeMeters>584.5999755859375</AltitudeMeters>
            <DistanceMeters>18978.726246306</DistanceMeters>
          </Trackpoint>
          <Trackpoint>
            <Time>2019-07-26T09:37:34.000Z</Time>
            <Position>
              <LatitudeDegrees>42.95472820289433002471923828125</LatitudeDegrees>
              <LongitudeDegrees>-7.74085110984742641448974609375</LongitudeDegrees>
            </Position>
            <AltitudeMeters>585.20001220703125</AltitudeMeters>
            <DistanceMeters>19003.311550795</DistanceMeters>
          </Trackpoint>
          <Trackpoint>
            <Time>2019-07-26T09:37:40.000Z</Time>
            <Position>
              <LatitudeDegrees>42.95454028062522411346435546875</LatitudeDegrees>
              <LongitudeDegrees>-7.7411199174821376800537109375</LongitudeDegrees>
            </Position>
            <AltitudeMeters>585.5999755859375</AltitudeMeters>
            <DistanceMeters>19033.593032638</DistanceMeters>
          </Trackpoint>
          <Trackpoint>
            <Time>2019-07-26T09:37:41.000Z</Time>
            <Position>
              <LatitudeDegrees>42.95451396144926548004150390625</LatitudeDegrees>
              <LongitudeDegrees>-7.74117163382470607757568359375</LongitudeDegrees>
            </Position>
            <AltitudeMeters>585.5999755859375</AltitudeMeters>
            <DistanceMeters>19038.722715158</DistanceMeters>
          </Trackpoint>
          <Trackpoint>
            <Time>2019-07-26T09:37:47.000Z</Time>
            <Position>
              <LatitudeDegrees>42.9543990455567836761474609375</LatitudeDegrees>
              <LongitudeDegrees>-7.7414900623261928558349609375</LongitudeDegrees>
            </Position>
            <AltitudeMeters>586.20001220703125</AltitudeMeters>
            <DistanceMeters>19067.644263889</DistanceMeters>
          </Trackpoint>
          <Trackpoint>
            <Time>2019-07-26T09:37:48.000Z</Time>
            <Position>
              <LatitudeDegrees>42.95438446104526519775390625</LatitudeDegrees>
              <LongitudeDegrees>-7.741541527211666107177734375</LongitudeDegrees>
            </Position>
            <AltitudeMeters>586.4000244140625</AltitudeMeters>
            <DistanceMeters>19072.140744864</DistanceMeters>
          </Trackpoint>
          <Trackpoint>
            <Time>2019-07-26T09:37:55.000Z</Time>
            <Position>
              <LatitudeDegrees>42.954249680042266845703125</LatitudeDegrees>
              <LongitudeDegrees>-7.7418984286487102508544921875</LongitudeDegrees>
            </Position>
            <AltitudeMeters>587</AltitudeMeters>
            <DistanceMeters>19104.856442942</DistanceMeters>
          </Trackpoint>
          <Trackpoint>
            <Time>2019-07-26T09:38:02.000Z</Time>
            <Position>
              <LatitudeDegrees>42.95407709665596485137939453125</LatitudeDegrees>
              <LongitudeDegrees>-7.74219162762165069580078125</LongitudeDegrees>
            </Position>
            <AltitudeMeters>587.4000244140625</AltitudeMeters>
            <DistanceMeters>19135.506793721</DistanceMeters>
          </Trackpoint>
          <Trackpoint>
            <Time>2019-07-26T09:38:09.000Z</Time>
            <Position>
              <LatitudeDegrees>42.9538927786052227020263671875</LatitudeDegrees>
              <LongitudeDegrees>-7.7424647100269794464111328125</LongitudeDegrees>
            </Position>
            <AltitudeMeters>587.5999755859375</AltitudeMeters>
            <DistanceMeters>19165.76814006</DistanceMeters>
          </Trackpoint>
          <Trackpoint>
            <Time>2019-07-26T09:38:13.000Z</Time>
            <Position>
              <LatitudeDegrees>42.95375120826065540313720703125</LatitudeDegrees>
              <LongitudeDegrees>-7.74259856902062892913818359375</LongitudeDegrees>
            </Position>
            <AltitudeMeters>587.5999755859375</AltitudeMeters>
            <DistanceMeters>19184.930578019</DistanceMeters>
          </Trackpoint>
          <Trackpoint>
            <Time>2019-07-26T09:38:15.000Z</Time>
            <Position>
              <LatitudeDegrees>42.95365490019321441650390625</LatitudeDegrees>
              <LongitudeDegrees>-7.74267484433948993682861328125</LongitudeDegrees>
            </Position>
            <AltitudeMeters>587.79998779296875</AltitudeMeters>
            <DistanceMeters>19197.320545716</DistanceMeters>
          </Trackpoint>
          <Trackpoint>
            <Time>2019-07-26T09:38:17.000Z</Time>
            <Position>
              <LatitudeDegrees>42.95355423353612422943115234375</LatitudeDegrees>
              <LongitudeDegrees>-7.74276905693113803863525390625</LongitudeDegrees>
            </Position>
            <AltitudeMeters>588</AltitudeMeters>
            <DistanceMeters>19210.90138926</DistanceMeters>
          </Trackpoint>
          <Trackpoint>
            <Time>2019-07-26T09:38:20.000Z</Time>
            <Position>
              <LatitudeDegrees>42.95337988995015621185302734375</LatitudeDegrees>
              <LongitudeDegrees>-7.7429299056529998779296875</LongitudeDegrees>
            </Position>
            <AltitudeMeters>588.4000244140625</AltitudeMeters>
            <DistanceMeters>19234.316172224</DistanceMeters>
          </Trackpoint>
          <Trackpoint>
            <Time>2019-07-26T09:38:21.000Z</Time>
            <Position>
              <LatitudeDegrees>42.9533238150179386138916015625</LatitudeDegrees>
              <LongitudeDegrees>-7.7429862320423126220703125</LongitudeDegrees>
            </Position>
            <AltitudeMeters>588.4000244140625</AltitudeMeters>
            <DistanceMeters>19242.061869603</DistanceMeters>
          </Trackpoint>
          <Trackpoint>
            <Time>2019-07-26T09:38:25.000Z</Time>
            <Position>
              <LatitudeDegrees>42.9531357251107692718505859375</LatitudeDegrees>
              <LongitudeDegrees>-7.74322570301592350006103515625</LongitudeDegrees>
            </Position>
            <AltitudeMeters>588.4000244140625</AltitudeMeters>
            <DistanceMeters>19270.676904842</DistanceMeters>
          </Trackpoint>
          <Trackpoint>
            <Time>2019-07-26T09:38:26.000Z</Time>
            <Position>
              <LatitudeDegrees>42.95309373177587985992431640625</LatitudeDegrees>
              <LongitudeDegrees>-7.74329401552677154541015625</LongitudeDegrees>
            </Position>
            <AltitudeMeters>588.4000244140625</AltitudeMeters>
            <DistanceMeters>19277.943808381</DistanceMeters>
          </Trackpoint>
          <Trackpoint>
            <Time>2019-07-26T09:38:32.000Z</Time>
            <Position>
              <LatitudeDegrees>42.9528319649398326873779296875</LatitudeDegrees>
              <LongitudeDegrees>-7.74373029358685016632080078125</LongitudeDegrees>
            </Position>
            <AltitudeMeters>588</AltitudeMeters>
            <DistanceMeters>19323.900205096</DistanceMeters>
          </Trackpoint>
          <Trackpoint>
            <Time>2019-07-26T09:38:38.000Z</Time>
            <Position>
              <LatitudeDegrees>42.9525761492550373077392578125</LatitudeDegrees>
              <LongitudeDegrees>-7.74415123276412487030029296875</LongitudeDegrees>
            </Position>
            <AltitudeMeters>586.5999755859375</AltitudeMeters>
            <DistanceMeters>19368.471279767</DistanceMeters>
          </Trackpoint>
          <Trackpoint>
            <Time>2019-07-26T09:38:39.000Z</Time>
            <Position>
              <LatitudeDegrees>42.9525424540042877197265625</LatitudeDegrees>
              <LongitudeDegrees>-7.744229100644588470458984375</LongitudeDegrees>
            </Position>
            <AltitudeMeters>586.20001220703125</AltitudeMeters>
            <DistanceMeters>19375.839987229</DistanceMeters>
          </Trackpoint>
          <Trackpoint>
            <Time>2019-07-26T09:38:43.000Z</Time>
            <Position>
              <LatitudeDegrees>42.9523991234600543975830078125</LatitudeDegrees>
              <LongitudeDegrees>-7.7445553243160247802734375</LongitudeDegrees>
            </Position>
            <AltitudeMeters>585.5999755859375</AltitudeMeters>
            <DistanceMeters>19406.835889429</DistanceMeters>
          </Trackpoint>
          <Trackpoint>
            <Time>2019-07-26T09:38:46.000Z</Time>
            <Position>
              <LatitudeDegrees>42.9523064196109771728515625</LatitudeDegrees>
              <LongitudeDegrees>-7.74478440172970294952392578125</LongitudeDegrees>
            </Position>
            <AltitudeMeters>585.4000244140625</AltitudeMeters>
            <DistanceMeters>19428.160019643</DistanceMeters>
          </Trackpoint>
          <Trackpoint>
            <Time>2019-07-26T09:38:50.000Z</Time>
            <Position>
              <LatitudeDegrees>42.95218898914754390716552734375</LatitudeDegrees>
              <LongitudeDegrees>-7.74506083689630031585693359375</LongitudeDegrees>
            </Position>
            <AltitudeMeters>585.20001220703125</AltitudeMeters>
            <DistanceMeters>19454.198032997</DistanceMeters>
          </Trackpoint>
          <Trackpoint>
            <Time>2019-07-26T09:38:52.000Z</Time>
            <Position>
              <LatitudeDegrees>42.95212964527308940887451171875</LatitudeDegrees>
              <LongitudeDegrees>-7.74518237449228763580322265625</LongitudeDegrees>
            </Position>
            <AltitudeMeters>585.20001220703125</AltitudeMeters>
            <DistanceMeters>19466.099915587</DistanceMeters>
          </Trackpoint>
          <Trackpoint>
            <Time>2019-07-26T09:38:58.000Z</Time>
            <Position>
              <LatitudeDegrees>42.95196804217994213104248046875</LatitudeDegrees>
              <LongitudeDegrees>-7.74556878022849559783935546875</LongitudeDegrees>
            </Position>
            <AltitudeMeters>585.5999755859375</AltitudeMeters>
            <DistanceMeters>19502.354568627</DistanceMeters>
          </Trackpoint>
          <Trackpoint>
            <Time>2019-07-26T09:39:03.000Z</Time>
            <Position>
              <LatitudeDegrees>42.9518958739936351776123046875</LatitudeDegrees>
              <LongitudeDegrees>-7.74589265696704387664794921875</LongitudeDegrees>
            </Position>
            <AltitudeMeters>585.79998779296875</AltitudeMeters>
            <DistanceMeters>19529.934752625</DistanceMeters>
          </Trackpoint>
          <Trackpoint>
            <Time>2019-07-26T09:39:08.000Z</Time>
            <Position>
              <LatitudeDegrees>42.951847426593303680419921875</LatitudeDegrees>
              <LongitudeDegrees>-7.7461619675159454345703125</LongitudeDegrees>
            </Position>
            <AltitudeMeters>586</AltitudeMeters>
            <DistanceMeters>19552.52714163</DistanceMeters>
          </Trackpoint>
          <Trackpoint>
            <Time>2019-07-26T09:39:14.000Z</Time>
            <Position>
              <LatitudeDegrees>42.95173318125307559967041015625</LatitudeDegrees>
              <LongitudeDegrees>-7.7463998459279537200927734375</LongitudeDegrees>
            </Position>
            <AltitudeMeters>586.20001220703125</AltitudeMeters>
            <DistanceMeters>19575.705479964</DistanceMeters>
          </Trackpoint>
          <Trackpoint>
            <Time>2019-07-26T09:39:17.000Z</Time>
            <Position>
              <LatitudeDegrees>42.95159555040299892425537109375</LatitudeDegrees>
              <LongitudeDegrees>-7.7465158514678478240966796875</LongitudeDegrees>
            </Position>
            <AltitudeMeters>586.20001220703125</AltitudeMeters>
            <DistanceMeters>19593.704452782</DistanceMeters>
          </Trackpoint>
          <Trackpoint>
            <Time>2019-07-26T09:39:19.000Z</Time>
            <Position>
              <LatitudeDegrees>42.95148004777729511260986328125</LatitudeDegrees>
              <LongitudeDegrees>-7.74659120477735996246337890625</LongitudeDegrees>
            </Position>
            <AltitudeMeters>586.20001220703125</AltitudeMeters>
            <DistanceMeters>19607.950221909</DistanceMeters>
          </Trackpoint>
          <Trackpoint>
            <Time>2019-07-26T09:39:20.000Z</Time>
            <Position>
              <LatitudeDegrees>42.95142170973122119903564453125</LatitudeDegrees>
              <LongitudeDegrees>-7.74663495831191539764404296875</LongitudeDegrees>
            </Position>
            <AltitudeMeters>586.20001220703125</AltitudeMeters>
            <DistanceMeters>19615.357430862</DistanceMeters>
          </Trackpoint>
          <Trackpoint>
            <Time>2019-07-26T09:39:21.000Z</Time>
            <Position>
              <LatitudeDegrees>42.95136203058063983917236328125</LatitudeDegrees>
              <LongitudeDegrees>-7.74668809957802295684814453125</LongitudeDegrees>
            </Position>
            <AltitudeMeters>586.20001220703125</AltitudeMeters>
            <DistanceMeters>19623.286326888</DistanceMeters>
          </Trackpoint>
          <Trackpoint>
            <Time>2019-07-26T09:39:23.000Z</Time>
            <Position>
              <LatitudeDegrees>42.95124803669750690460205078125</LatitudeDegrees>
              <LongitudeDegrees>-7.746816761791706085205078125</LongitudeDegrees>
            </Position>
            <AltitudeMeters>586.20001220703125</AltitudeMeters>
            <DistanceMeters>19639.743790632</DistanceMeters>
          </Trackpoint>
          <Trackpoint>
            <Time>2019-07-26T09:39:26.000Z</Time>
            <Position>
              <LatitudeDegrees>42.951114512979984283447265625</LatitudeDegrees>
              <LongitudeDegrees>-7.7470506168901920318603515625</LongitudeDegrees>
            </Position>
            <AltitudeMeters>585.5999755859375</AltitudeMeters>
            <DistanceMeters>19663.906002911</DistanceMeters>
          </Trackpoint>
          <Trackpoint>
            <Time>2019-07-26T09:39:28.000Z</Time>
            <Position>
              <LatitudeDegrees>42.95102633535861968994140625</LatitudeDegrees>
              <LongitudeDegrees>-7.74720693938434123992919921875</LongitudeDegrees>
            </Position>
            <AltitudeMeters>585.20001220703125</AltitudeMeters>
            <DistanceMeters>19679.984062445</DistanceMeters>
          </Trackpoint>
          <Trackpoint>
            <Time>2019-07-26T09:39:32.000Z</Time>
            <Position>
              <LatitudeDegrees>42.950868420302867889404296875</LatitudeDegrees>
              <LongitudeDegrees>-7.747515477240085601806640625</LongitudeDegrees>
            </Position>
            <AltitudeMeters>584.5999755859375</AltitudeMeters>
            <DistanceMeters>19710.655176602</DistanceMeters>
          </Trackpoint>
          <Trackpoint>
            <Time>2019-07-26T09:39:34.000Z</Time>
            <Position>
              <LatitudeDegrees>42.95080480165779590606689453125</LatitudeDegrees>
              <LongitudeDegrees>-7.74767833761870861053466796875</LongitudeDegrees>
            </Position>
            <AltitudeMeters>584.20001220703125</AltitudeMeters>
            <DistanceMeters>19725.694036087</DistanceMeters>
          </Trackpoint>
          <Trackpoint>
            <Time>2019-07-26T09:39:36.000Z</Time>
            <Position>
              <LatitudeDegrees>42.95077026821672916412353515625</LatitudeDegrees>
              <LongitudeDegrees>-7.74786123074591159820556640625</LongitudeDegrees>
            </Position>
            <AltitudeMeters>583.79998779296875</AltitudeMeters>
            <DistanceMeters>19741.081323189</DistanceMeters>
          </Trackpoint>
          <Trackpoint>
            <Time>2019-07-26T09:39:38.000Z</Time>
            <Position>
              <LatitudeDegrees>42.95073405839502811431884765625</LatitudeDegrees>
              <LongitudeDegrees>-7.74805602617561817169189453125</LongitudeDegrees>
            </Position>
            <AltitudeMeters>583.5999755859375</AltitudeMeters>
            <DistanceMeters>19757.454621863</DistanceMeters>
          </Trackpoint>
          <Trackpoint>
            <Time>2019-07-26T09:39:39.000Z</Time>
            <Position>
              <LatitudeDegrees>42.95071980915963649749755859375</LatitudeDegrees>
              <LongitudeDegrees>-7.74814839474856853485107421875</LongitudeDegrees>
            </Position>
            <AltitudeMeters>583.4000244140625</AltitudeMeters>
            <DistanceMeters>19765.145330589</DistanceMeters>
          </Trackpoint>
          <Trackpoint>
            <Time>2019-07-26T09:39:42.000Z</Time>
            <Position>
              <LatitudeDegrees>42.9506675899028778076171875</LatitudeDegrees>
              <LongitudeDegrees>-7.74842164479196071624755859375</LongitudeDegrees>
            </Position>
            <AltitudeMeters>582.4000244140625</AltitudeMeters>
            <DistanceMeters>19788.152395178</DistanceMeters>
          </Trackpoint>
          <Trackpoint>
            <Time>2019-07-26T09:39:43.000Z</Time>
            <Position>
              <LatitudeDegrees>42.950641773641109466552734375</LatitudeDegrees>
              <LongitudeDegrees>-7.74850965477526187896728515625</LongitudeDegrees>
            </Position>
            <AltitudeMeters>582</AltitudeMeters>
            <DistanceMeters>19795.876494806</DistanceMeters>
          </Trackpoint>
          <Trackpoint>
            <Time>2019-07-26T09:39:45.000Z</Time>
            <Position>
              <LatitudeDegrees>42.9505832679569721221923828125</LatitudeDegrees>
              <LongitudeDegrees>-7.74867720901966094970703125</LongitudeDegrees>
            </Position>
            <AltitudeMeters>581.5999755859375</AltitudeMeters>
            <DistanceMeters>19811.000377784</DistanceMeters>
          </Trackpoint>
          <Trackpoint>
            <Time>2019-07-26T09:39:46.000Z</Time>
            <Position>
              <LatitudeDegrees>42.9505497403442859649658203125</LatitudeDegrees>
              <LongitudeDegrees>-7.748750634491443634033203125</LongitudeDegrees>
            </Position>
            <AltitudeMeters>581.20001220703125</AltitudeMeters>
            <DistanceMeters>19818.050309751</DistanceMeters>
          </Trackpoint>
          <Trackpoint>
            <Time>2019-07-26T09:39:49.000Z</Time>
            <Position>
              <LatitudeDegrees>42.9504766501486301422119140625</LatitudeDegrees>
              <LongitudeDegrees>-7.74899681098759174346923828125</LongitudeDegrees>
            </Position>
            <AltitudeMeters>581</AltitudeMeters>
            <DistanceMeters>19839.69263091</DistanceMeters>
          </Trackpoint>
          <Trackpoint>
            <Time>2019-07-26T09:39:53.000Z</Time>
            <Position>
              <LatitudeDegrees>42.950470447540283203125</LatitudeDegrees>
              <LongitudeDegrees>-7.74931951425969600677490234375</LongitudeDegrees>
            </Position>
            <AltitudeMeters>580.20001220703125</AltitudeMeters>
            <DistanceMeters>19865.991349224</DistanceMeters>
          </Trackpoint>
          <Trackpoint>
            <Time>2019-07-26T09:39:54.000Z</Time>
            <Position>
              <LatitudeDegrees>42.95047773979604244232177734375</LatitudeDegrees>
              <LongitudeDegrees>-7.74939411319792270660400390625</LongitudeDegrees>
            </Position>
            <AltitudeMeters>580.20001220703125</AltitudeMeters>
            <DistanceMeters>19872.121861287</DistanceMeters>
          </Trackpoint>
          <Trackpoint>
            <Time>2019-07-26T09:39:59.000Z</Time>
            <Position>
              <LatitudeDegrees>42.950537167489528656005859375</LatitudeDegrees>
              <LongitudeDegrees>-7.74972100742161273956298828125</LongitudeDegrees>
            </Position>
            <AltitudeMeters>580.20001220703125</AltitudeMeters>
            <DistanceMeters>19899.561719779</DistanceMeters>
          </Trackpoint>
          <Trackpoint>
            <Time>2019-07-26T09:40:04.000Z</Time>
            <Position>
              <LatitudeDegrees>42.95060849748551845550537109375</LatitudeDegrees>
              <LongitudeDegrees>-7.75003985501825809478759765625</LongitudeDegrees>
            </Position>
            <AltitudeMeters>580.5999755859375</AltitudeMeters>
            <DistanceMeters>19926.723074408</DistanceMeters>
          </Trackpoint>
          <Trackpoint>
            <Time>2019-07-26T09:40:06.000Z</Time>
            <Position>
              <LatitudeDegrees>42.95064185746014118194580078125</LatitudeDegrees>
              <LongitudeDegrees>-7.75019039399921894073486328125</LongitudeDegrees>
            </Position>
            <AltitudeMeters>581</AltitudeMeters>
            <DistanceMeters>19939.536538027</DistanceMeters>
          </Trackpoint>
          <Trackpoint>
            <Time>2019-07-26T09:40:11.000Z</Time>
            <Position>
              <LatitudeDegrees>42.95075752772390842437744140625</LatitudeDegrees>
              <LongitudeDegrees>-7.75063379667699337005615234375</LongitudeDegrees>
            </Position>
            <AltitudeMeters>581.20001220703125</AltitudeMeters>
            <DistanceMeters>19977.884497674</DistanceMeters>
          </Trackpoint>
          <Trackpoint>
            <Time>2019-07-26T09:40:14.000Z</Time>
            <Position>
              <LatitudeDegrees>42.95087420381605625152587890625</LatitudeDegrees>
              <LongitudeDegrees>-7.7509230561554431915283203125</LongitudeDegrees>
            </Position>
            <AltitudeMeters>581.20001220703125</AltitudeMeters>
            <DistanceMeters>20004.790653633</DistanceMeters>
          </Trackpoint>
          <Trackpoint>
            <Time>2019-07-26T09:40:16.000Z</Time>
            <Position>
              <LatitudeDegrees>42.95098006725311279296875</LatitudeDegrees>
              <LongitudeDegrees>-7.75110553018748760223388671875</LongitudeDegrees>
            </Position>
            <AltitudeMeters>581</AltitudeMeters>
            <DistanceMeters>20023.759375941</DistanceMeters>
          </Trackpoint>
          <Trackpoint>
            <Time>2019-07-26T09:40:18.000Z</Time>
            <Position>
              <LatitudeDegrees>42.95109934173524379730224609375</LatitudeDegrees>
              <LongitudeDegrees>-7.75128758512437343597412109375</LongitudeDegrees>
            </Position>
            <AltitudeMeters>580.4000244140625</AltitudeMeters>
            <DistanceMeters>20043.664240523</DistanceMeters>
          </Trackpoint>
          <Trackpoint>
            <Time>2019-07-26T09:40:20.000Z</Time>
            <Position>
              <LatitudeDegrees>42.95122255571186542510986328125</LatitudeDegrees>
              <LongitudeDegrees>-7.7514641918241977691650390625</LongitudeDegrees>
            </Position>
            <AltitudeMeters>579.20001220703125</AltitudeMeters>
            <DistanceMeters>20063.540503865</DistanceMeters>
          </Trackpoint>
          <Trackpoint>
            <Time>2019-07-26T09:40:22.000Z</Time>
            <Position>
              <LatitudeDegrees>42.95134057290852069854736328125</LatitudeDegrees>
              <LongitudeDegrees>-7.751629650592803955078125</LongitudeDegrees>
            </Position>
            <AltitudeMeters>578.20001220703125</AltitudeMeters>
            <DistanceMeters>20082.361551624</DistanceMeters>
          </Trackpoint>
          <Trackpoint>
            <Time>2019-07-26T09:40:23.000Z</Time>
            <Position>
              <LatitudeDegrees>42.95140092261135578155517578125</LatitudeDegrees>
              <LongitudeDegrees>-7.7517159841954708099365234375</LongitudeDegrees>
            </Position>
            <AltitudeMeters>577.5999755859375</AltitudeMeters>
            <DistanceMeters>20092.086829032</DistanceMeters>
          </Trackpoint>
          <Trackpoint>
            <Time>2019-07-26T09:40:25.000Z</Time>
            <Position>
              <LatitudeDegrees>42.95152598060667514801025390625</LatitudeDegrees>
              <LongitudeDegrees>-7.7518779225647449493408203125</LongitudeDegrees>
            </Position>
            <AltitudeMeters>576.4000244140625</AltitudeMeters>
            <DistanceMeters>20111.264340691</DistanceMeters>
          </Trackpoint>
          <Trackpoint>
            <Time>2019-07-26T09:40:27.000Z</Time>
            <Position>
              <LatitudeDegrees>42.9516712389886379241943359375</LatitudeDegrees>
              <LongitudeDegrees>-7.7519957721233367919921875</LongitudeDegrees>
            </Position>
            <AltitudeMeters>575.4000244140625</AltitudeMeters>
            <DistanceMeters>20130.067627986</DistanceMeters>
          </Trackpoint>
          <Trackpoint>
            <Time>2019-07-26T09:40:28.000Z</Time>
            <Position>
              <LatitudeDegrees>42.95175078324973583221435546875</LatitudeDegrees>
              <LongitudeDegrees>-7.75204212404787540435791015625</LongitudeDegrees>
            </Position>
            <AltitudeMeters>574.79998779296875</AltitudeMeters>
            <DistanceMeters>20139.693041448</DistanceMeters>
          </Trackpoint>
          <Trackpoint>
            <Time>2019-07-26T09:40:29.000Z</Time>
            <Position>
              <LatitudeDegrees>42.95183158479630947113037109375</LatitudeDegrees>
              <LongitudeDegrees>-7.7520854584872722625732421875</LongitudeDegrees>
            </Position>
            <AltitudeMeters>574.4000244140625</AltitudeMeters>
            <DistanceMeters>20149.35450615</DistanceMeters>
          </Trackpoint>
          <Trackpoint>
            <Time>2019-07-26T09:40:30.000Z</Time>
            <Position>
              <LatitudeDegrees>42.95191976241767406463623046875</LatitudeDegrees>
              <LongitudeDegrees>-7.75212041102349758148193359375</LongitudeDegrees>
            </Position>
            <AltitudeMeters>574</AltitudeMeters>
            <DistanceMeters>20159.573302753</DistanceMeters>
          </Trackpoint>
          <Trackpoint>
            <Time>2019-07-26T09:40:31.000Z</Time>
            <Position>
              <LatitudeDegrees>42.95201397500932216644287109375</LatitudeDegrees>
              <LongitudeDegrees>-7.7521419525146484375</LongitudeDegrees>
            </Position>
            <AltitudeMeters>573.5999755859375</AltitudeMeters>
            <DistanceMeters>20170.204834479</DistanceMeters>
          </Trackpoint>
          <Trackpoint>
            <Time>2019-07-26T09:40:33.000Z</Time>
            <Position>
              <LatitudeDegrees>42.95219720341265201568603515625</LatitudeDegrees>
              <LongitudeDegrees>-7.752172462642192840576171875</LongitudeDegrees>
            </Position>
            <AltitudeMeters>572.79998779296875</AltitudeMeters>
            <DistanceMeters>20190.749513429</DistanceMeters>
          </Trackpoint>
          <Trackpoint>
            <Time>2019-07-26T09:40:36.000Z</Time>
            <Position>
              <LatitudeDegrees>42.95238445512950420379638671875</LatitudeDegrees>
              <LongitudeDegrees>-7.75229224003851413726806640625</LongitudeDegrees>
            </Position>
            <AltitudeMeters>571.4000244140625</AltitudeMeters>
            <DistanceMeters>20213.76226844</DistanceMeters>
          </Trackpoint>
          <Trackpoint>
            <Time>2019-07-26T09:40:38.000Z</Time>
            <Position>
              <LatitudeDegrees>42.95243575237691402435302734375</LatitudeDegrees>
              <LongitudeDegrees>-7.75242500938475131988525390625</LongitudeDegrees>
            </Position>
            <AltitudeMeters>569.79998779296875</AltitudeMeters>
            <DistanceMeters>20225.992690194</DistanceMeters>
          </Trackpoint>
          <Trackpoint>
            <Time>2019-07-26T09:40:40.000Z</Time>
            <Position>
              <LatitudeDegrees>42.95241261832416057586669921875</LatitudeDegrees>
              <LongitudeDegrees>-7.75256565771996974945068359375</LongitudeDegrees>
            </Position>
            <AltitudeMeters>568.4000244140625</AltitudeMeters>
            <DistanceMeters>20237.736085251</DistanceMeters>
          </Trackpoint>
          <Trackpoint>
            <Time>2019-07-26T09:40:41.000Z</Time>
            <Position>
              <LatitudeDegrees>42.952396608889102935791015625</LatitudeDegrees>
              <LongitudeDegrees>-7.7526395022869110107421875</LongitudeDegrees>
            </Position>
            <AltitudeMeters>567.5999755859375</AltitudeMeters>
            <DistanceMeters>20244.010727336</DistanceMeters>
          </Trackpoint>
          <Trackpoint>
            <Time>2019-07-26T09:40:42.000Z</Time>
            <Position>
              <LatitudeDegrees>42.952384538948535919189453125</LatitudeDegrees>
              <LongitudeDegrees>-7.7527077309787273406982421875</LongitudeDegrees>
            </Position>
            <AltitudeMeters>566.5999755859375</AltitudeMeters>
            <DistanceMeters>20249.728146048</DistanceMeters>
          </Trackpoint>
          <Trackpoint>
            <Time>2019-07-26T09:40:44.000Z</Time>
            <Position>
              <LatitudeDegrees>42.95237171463668346405029296875</LatitudeDegrees>
              <LongitudeDegrees>-7.7528210543096065521240234375</LongitudeDegrees>
            </Position>
            <AltitudeMeters>565.20001220703125</AltitudeMeters>
            <DistanceMeters>20259.069325239</DistanceMeters>
          </Trackpoint>
          <Trackpoint>
            <Time>2019-07-26T09:40:45.000Z</Time>
            <Position>
              <LatitudeDegrees>42.95236601494252681732177734375</LatitudeDegrees>
              <LongitudeDegrees>-7.75286874733865261077880859375</LongitudeDegrees>
            </Position>
            <AltitudeMeters>564.79998779296875</AltitudeMeters>
            <DistanceMeters>20263.005771755</DistanceMeters>
          </Trackpoint>
          <Trackpoint>
            <Time>2019-07-26T09:40:48.000Z</Time>
            <Position>
              <LatitudeDegrees>42.95232578180730342864990234375</LatitudeDegrees>
              <LongitudeDegrees>-7.7529876865446567535400390625</LongitudeDegrees>
            </Position>
            <AltitudeMeters>564.5999755859375</AltitudeMeters>
            <DistanceMeters>20273.679264362</DistanceMeters>
          </Trackpoint>
          <Trackpoint>
            <Time>2019-07-26T09:40:49.000Z</Time>
            <Position>
              <LatitudeDegrees>42.95231304131448268890380859375</LatitudeDegrees>
              <LongitudeDegrees>-7.753019034862518310546875</LongitudeDegrees>
            </Position>
            <AltitudeMeters>564.4000244140625</AltitudeMeters>
            <DistanceMeters>20276.598920534</DistanceMeters>
          </Trackpoint>
          <Trackpoint>
            <Time>2019-07-26T09:40:50.000Z</Time>
            <Position>
              <LatitudeDegrees>42.95230097137391567230224609375</LatitudeDegrees>
              <LongitudeDegrees>-7.75305189192295074462890625</LongitudeDegrees>
            </Position>
            <AltitudeMeters>564.4000244140625</AltitudeMeters>
            <DistanceMeters>20279.591884923</DistanceMeters>
          </Trackpoint>
          <Trackpoint>
            <Time>2019-07-26T09:40:52.000Z</Time>
            <Position>
              <LatitudeDegrees>42.9522596485912799835205078125</LatitudeDegrees>
              <LongitudeDegrees>-7.75310897268354892730712890625</LongitudeDegrees>
            </Position>
            <AltitudeMeters>564.4000244140625</AltitudeMeters>
            <DistanceMeters>20286.132180949</DistanceMeters>
          </Trackpoint>
          <Trackpoint>
            <Time>2019-07-26T09:40:54.000Z</Time>
            <Position>
              <LatitudeDegrees>42.95219887979328632354736328125</LatitudeDegrees>
              <LongitudeDegrees>-7.75316588580608367919921875</LongitudeDegrees>
            </Position>
            <AltitudeMeters>564.79998779296875</AltitudeMeters>
            <DistanceMeters>20294.333157071</DistanceMeters>
          </Trackpoint>
          <Trackpoint>
            <Time>2019-07-26T09:41:01.000Z</Time>
            <Position>
              <LatitudeDegrees>42.95204649679362773895263671875</LatitudeDegrees>
              <LongitudeDegrees>-7.7533905208110809326171875</LongitudeDegrees>
            </Position>
            <AltitudeMeters>566</AltitudeMeters>
            <DistanceMeters>20319.284139621</DistanceMeters>
          </Trackpoint>
          <Trackpoint>
            <Time>2019-07-26T09:41:05.000Z</Time>
            <Position>
              <LatitudeDegrees>42.95190853066742420196533203125</LatitudeDegrees>
              <LongitudeDegrees>-7.75349554605782032012939453125</LongitudeDegrees>
            </Position>
            <AltitudeMeters>566.20001220703125</AltitudeMeters>
            <DistanceMeters>20336.862283885</DistanceMeters>
          </Trackpoint>
          <Trackpoint>
            <Time>2019-07-26T09:41:06.000Z</Time>
            <Position>
              <LatitudeDegrees>42.95186184346675872802734375</LatitudeDegrees>
              <LongitudeDegrees>-7.75352354161441326141357421875</LongitudeDegrees>
            </Position>
            <AltitudeMeters>566.4000244140625</AltitudeMeters>
            <DistanceMeters>20342.536898638</DistanceMeters>
          </Trackpoint>
          <Trackpoint>
            <Time>2019-07-26T09:41:09.000Z</Time>
            <Position>
              <LatitudeDegrees>42.95173846185207366943359375</LatitudeDegrees>
              <LongitudeDegrees>-7.75359638035297393798828125</LongitudeDegrees>
            </Position>
            <AltitudeMeters>566.79998779296875</AltitudeMeters>
            <DistanceMeters>20357.496288814</DistanceMeters>
          </Trackpoint>
          <Trackpoint>
            <Time>2019-07-26T09:41:13.000Z</Time>
            <Position>
              <LatitudeDegrees>42.95161214657127857208251953125</LatitudeDegrees>
              <LongitudeDegrees>-7.75369805283844470977783203125</LongitudeDegrees>
            </Position>
            <AltitudeMeters>567.20001220703125</AltitudeMeters>
            <DistanceMeters>20373.813789665</DistanceMeters>
          </Trackpoint>
          <Trackpoint>
            <Time>2019-07-26T09:41:14.000Z</Time>
            <Position>
              <LatitudeDegrees>42.95158197171986103057861328125</LatitudeDegrees>
              <LongitudeDegrees>-7.75372068397700786590576171875</LongitudeDegrees>
            </Position>
            <AltitudeMeters>567.20001220703125</AltitudeMeters>
            <DistanceMeters>20377.645617466</DistanceMeters>
          </Trackpoint>
          <Trackpoint>
            <Time>2019-07-26T09:41:19.000Z</Time>
            <Position>
              <LatitudeDegrees>42.95145976357161998748779296875</LatitudeDegrees>
              <LongitudeDegrees>-7.753868289291858673095703125</LongitudeDegrees>
            </Position>
            <AltitudeMeters>568</AltitudeMeters>
            <DistanceMeters>20395.800943141</DistanceMeters>
          </Trackpoint>
          <Trackpoint>
            <Time>2019-07-26T09:41:21.000Z</Time>
            <Position>
              <LatitudeDegrees>42.9514281637966632843017578125</LatitudeDegrees>
              <LongitudeDegrees>-7.75396107695996761322021484375</LongitudeDegrees>
            </Position>
            <AltitudeMeters>568.4000244140625</AltitudeMeters>
            <DistanceMeters>20404.137878932</DistanceMeters>
          </Trackpoint>
          <Trackpoint>
            <Time>2019-07-26T09:41:25.000Z</Time>
            <Position>
              <LatitudeDegrees>42.9514080472290515899658203125</LatitudeDegrees>
              <LongitudeDegrees>-7.75416961871087551116943359375</LongitudeDegrees>
            </Position>
            <AltitudeMeters>569</AltitudeMeters>
            <DistanceMeters>20421.27354337</DistanceMeters>
          </Trackpoint>
          <Trackpoint>
            <Time>2019-07-26T09:41:28.000Z</Time>
            <Position>
              <LatitudeDegrees>42.95140544883906841278076171875</LatitudeDegrees>
              <LongitudeDegrees>-7.754318900406360626220703125</LongitudeDegrees>
            </Position>
            <AltitudeMeters>569.4000244140625</AltitudeMeters>
            <DistanceMeters>20433.438447511</DistanceMeters>
          </Trackpoint>
          <Trackpoint>
            <Time>2019-07-26T09:41:31.000Z</Time>
            <Position>
              <LatitudeDegrees>42.95142975635826587677001953125</LatitudeDegrees>
              <LongitudeDegrees>-7.75444504804909229278564453125</LongitudeDegrees>
            </Position>
            <AltitudeMeters>570</AltitudeMeters>
            <DistanceMeters>20444.06530669</DistanceMeters>
          </Trackpoint>
          <Trackpoint>
            <Time>2019-07-26T09:41:36.000Z</Time>
            <Position>
              <LatitudeDegrees>42.9514942131936550140380859375</LatitudeDegrees>
              <LongitudeDegrees>-7.75459558703005313873291015625</LongitudeDegrees>
            </Position>
            <AltitudeMeters>570.4000244140625</AltitudeMeters>
            <DistanceMeters>20458.272992245</DistanceMeters>
          </Trackpoint>
          <Trackpoint>
            <Time>2019-07-26T09:41:43.000Z</Time>
            <Position>
              <LatitudeDegrees>42.9516038484871387481689453125</LatitudeDegrees>
              <LongitudeDegrees>-7.75471997447311878204345703125</LongitudeDegrees>
            </Position>
            <AltitudeMeters>571.4000244140625</AltitudeMeters>
            <DistanceMeters>20474.134200577</DistanceMeters>
          </Trackpoint>
          <Trackpoint>
            <Time>2019-07-26T09:41:44.000Z</Time>
            <Position>
              <LatitudeDegrees>42.95162052847445011138916015625</LatitudeDegrees>
              <LongitudeDegrees>-7.75473296642303466796875</LongitudeDegrees>
            </Position>
            <AltitudeMeters>571.5999755859375</AltitudeMeters>
            <DistanceMeters>20476.271773659</DistanceMeters>
          </Trackpoint>
          <Trackpoint>
            <Time>2019-07-26T09:41:47.000Z</Time>
            <Position>
              <LatitudeDegrees>42.9516709037125110626220703125</LatitudeDegrees>
              <LongitudeDegrees>-7.75476515293121337890625</LongitudeDegrees>
            </Position>
            <AltitudeMeters>572.79998779296875</AltitudeMeters>
            <DistanceMeters>20482.460924188</DistanceMeters>
          </Trackpoint>
          <Trackpoint>
            <Time>2019-07-26T09:41:51.000Z</Time>
            <Position>
              <LatitudeDegrees>42.9517376236617565155029296875</LatitudeDegrees>
              <LongitudeDegrees>-7.75481410324573516845703125</LongitudeDegrees>
            </Position>
            <AltitudeMeters>573.79998779296875</AltitudeMeters>
            <DistanceMeters>20490.889959807</DistanceMeters>
          </Trackpoint>
          <Trackpoint>
            <Time>2019-07-26T09:41:55.000Z</Time>
            <Position>
              <LatitudeDegrees>42.95180576853454113006591796875</LatitudeDegrees>
              <LongitudeDegrees>-7.75486615486443042755126953125</LongitudeDegrees>
            </Position>
            <AltitudeMeters>574.79998779296875</AltitudeMeters>
            <DistanceMeters>20499.579580007</DistanceMeters>
          </Trackpoint>
          <Trackpoint>
            <Time>2019-07-26T09:41:58.000Z</Time>
            <Position>
              <LatitudeDegrees>42.95185572467744350433349609375</LatitudeDegrees>
              <LongitudeDegrees>-7.75490370579063892364501953125</LongitudeDegrees>
            </Position>
            <AltitudeMeters>575.5999755859375</AltitudeMeters>
            <DistanceMeters>20505.925771065</DistanceMeters>
          </Trackpoint>
          <Trackpoint>
            <Time>2019-07-26T09:42:00.000Z</Time>
            <Position>
              <LatitudeDegrees>42.9518941976130008697509765625</LatitudeDegrees>
              <LongitudeDegrees>-7.75491946376860141754150390625</LongitudeDegrees>
            </Position>
            <AltitudeMeters>576.20001220703125</AltitudeMeters>
            <DistanceMeters>20510.397078395</DistanceMeters>
          </Trackpoint>
          <Trackpoint>
            <Time>2019-07-26T09:42:04.000Z</Time>
            <Position>
              <LatitudeDegrees>42.95197340659797191619873046875</LatitudeDegrees>
              <LongitudeDegrees>-7.754958607256412506103515625</LongitudeDegrees>
            </Position>
            <AltitudeMeters>577.20001220703125</AltitudeMeters>
            <DistanceMeters>20519.772512471</DistanceMeters>
          </Trackpoint>
          <Trackpoint>
            <Time>2019-07-26T09:42:06.000Z</Time>
            <Position>
              <LatitudeDegrees>42.95201162807643413543701171875</LatitudeDegrees>
              <LongitudeDegrees>-7.7549837529659271240234375</LongitudeDegrees>
            </Position>
            <AltitudeMeters>577.79998779296875</AltitudeMeters>
            <DistanceMeters>20524.493341706</DistanceMeters>
          </Trackpoint>
          <Trackpoint>
            <Time>2019-07-26T09:42:09.000Z</Time>
            <Position>
              <LatitudeDegrees>42.95206912793219089508056640625</LatitudeDegrees>
              <LongitudeDegrees>-7.7550171129405498504638671875</LongitudeDegrees>
            </Position>
            <AltitudeMeters>578.4000244140625</AltitudeMeters>
            <DistanceMeters>20531.446544513</DistanceMeters>
          </Trackpoint>
          <Trackpoint>
            <Time>2019-07-26T09:42:13.000Z</Time>
            <Position>
              <LatitudeDegrees>42.952146492898464202880859375</LatitudeDegrees>
              <LongitudeDegrees>-7.755061872303485870361328125</LongitudeDegrees>
            </Position>
            <AltitudeMeters>579.4000244140625</AltitudeMeters>
            <DistanceMeters>20540.797385663</DistanceMeters>
          </Trackpoint>
          <Trackpoint>
            <Time>2019-07-26T09:42:14.000Z</Time>
            <Position>
              <LatitudeDegrees>42.9521654359996318817138671875</LatitudeDegrees>
              <LongitudeDegrees>-7.75507100857794284820556640625</LongitudeDegrees>
            </Position>
            <AltitudeMeters>579.5999755859375</AltitudeMeters>
            <DistanceMeters>20543.034048881</DistanceMeters>
          </Trackpoint>
          <Trackpoint>
            <Time>2019-07-26T09:42:20.000Z</Time>
            <Position>
              <LatitudeDegrees>42.95227549038827419281005859375</LatitudeDegrees>
              <LongitudeDegrees>-7.75513487868010997772216796875</LongitudeDegrees>
            </Position>
            <AltitudeMeters>580.5999755859375</AltitudeMeters>
            <DistanceMeters>20556.342878636</DistanceMeters>
          </Trackpoint>
          <Trackpoint>
            <Time>2019-07-26T09:42:22.000Z</Time>
            <Position>
              <LatitudeDegrees>42.95231304131448268890380859375</LatitudeDegrees>
              <LongitudeDegrees>-7.75515474379062652587890625</LongitudeDegrees>
            </Position>
            <AltitudeMeters>580.79998779296875</AltitudeMeters>
            <DistanceMeters>20560.824272393</DistanceMeters>
          </Trackpoint>
          <Trackpoint>
            <Time>2019-07-26T09:42:27.000Z</Time>
            <Position>
              <LatitudeDegrees>42.95240633189678192138671875</LatitudeDegrees>
              <LongitudeDegrees>-7.7552226372063159942626953125</LongitudeDegrees>
            </Position>
            <AltitudeMeters>581.5999755859375</AltitudeMeters>
            <DistanceMeters>20572.588410763</DistanceMeters>
          </Trackpoint>
          <Trackpoint>
            <Time>2019-07-26T09:42:29.000Z</Time>
            <Position>
              <LatitudeDegrees>42.952444888651371002197265625</LatitudeDegrees>
              <LongitudeDegrees>-7.75524451397359371185302734375</LongitudeDegrees>
            </Position>
            <AltitudeMeters>582</AltitudeMeters>
            <DistanceMeters>20577.235013046</DistanceMeters>
          </Trackpoint>
          <Trackpoint>
            <Time>2019-07-26T09:42:32.000Z</Time>
            <Position>
              <LatitudeDegrees>42.95249945484101772308349609375</LatitudeDegrees>
              <LongitudeDegrees>-7.75527770631015300750732421875</LongitudeDegrees>
            </Position>
            <AltitudeMeters>582.79998779296875</AltitudeMeters>
            <DistanceMeters>20583.882809231</DistanceMeters>
          </Trackpoint>
          <Trackpoint>
            <Time>2019-07-26T09:42:37.000Z</Time>
            <Position>
              <LatitudeDegrees>42.95260322280228137969970703125</LatitudeDegrees>
              <LongitudeDegrees>-7.75531425140798091888427734375</LongitudeDegrees>
            </Position>
            <AltitudeMeters>583.79998779296875</AltitudeMeters>
            <DistanceMeters>20595.809702968</DistanceMeters>
          </Trackpoint>
          <Trackpoint>
            <Time>2019-07-26T09:42:38.000Z</Time>
            <Position>
              <LatitudeDegrees>42.9526240937411785125732421875</LatitudeDegrees>
              <LongitudeDegrees>-7.7553161792457103729248046875</LongitudeDegrees>
            </Position>
            <AltitudeMeters>584.4000244140625</AltitudeMeters>
            <DistanceMeters>20598.13737259</DistanceMeters>
          </Trackpoint>
          <Trackpoint>
            <Time>2019-07-26T09:42:41.000Z</Time>
            <Position>
              <LatitudeDegrees>42.95268318615853786468505859375</LatitudeDegrees>
              <LongitudeDegrees>-7.75532699190080165863037109375</LongitudeDegrees>
            </Position>
            <AltitudeMeters>585.20001220703125</AltitudeMeters>
            <DistanceMeters>20604.772932305</DistanceMeters>
          </Trackpoint>
          <Trackpoint>
            <Time>2019-07-26T09:42:45.000Z</Time>
            <Position>
              <LatitudeDegrees>42.95275560580193996429443359375</LatitudeDegrees>
              <LongitudeDegrees>-7.75532774627208709716796875</LongitudeDegrees>
            </Position>
            <AltitudeMeters>586.4000244140625</AltitudeMeters>
            <DistanceMeters>20612.833976288</DistanceMeters>
          </Trackpoint>
          <Trackpoint>
            <Time>2019-07-26T09:42:46.000Z</Time>
            <Position>
              <LatitudeDegrees>42.952772788703441619873046875</LatitudeDegrees>
              <LongitudeDegrees>-7.75532506406307220458984375</LongitudeDegrees>
            </Position>
            <AltitudeMeters>586.5999755859375</AltitudeMeters>
            <DistanceMeters>20614.758120602</DistanceMeters>
          </Trackpoint>
          <Trackpoint>
            <Time>2019-07-26T09:42:49.000Z</Time>
            <Position>
              <LatitudeDegrees>42.95283406041562557220458984375</LatitudeDegrees>
              <LongitudeDegrees>-7.75532213039696216583251953125</LongitudeDegrees>
            </Position>
            <AltitudeMeters>587.4000244140625</AltitudeMeters>
            <DistanceMeters>20621.581541603</DistanceMeters>
          </Trackpoint>
          <Trackpoint>
            <Time>2019-07-26T09:42:53.000Z</Time>
            <Position>
              <LatitudeDegrees>42.95292022638022899627685546875</LatitudeDegrees>
              <LongitudeDegrees>-7.75532632134854793548583984375</LongitudeDegrees>
            </Position>
            <AltitudeMeters>588.79998779296875</AltitudeMeters>
            <DistanceMeters>20631.178769313</DistanceMeters>
          </Trackpoint>
          <Trackpoint>
            <Time>2019-07-26T09:42:58.000Z</Time>
            <Position>
              <LatitudeDegrees>42.9530207253992557525634765625</LatitudeDegrees>
              <LongitudeDegrees>-7.7553621120750904083251953125</LongitudeDegrees>
            </Position>
            <AltitudeMeters>590</AltitudeMeters>
            <DistanceMeters>20642.738486923</DistanceMeters>
          </Trackpoint>
          <Trackpoint>
            <Time>2019-07-26T09:43:00.000Z</Time>
            <Position>
              <LatitudeDegrees>42.95306154526770114898681640625</LatitudeDegrees>
              <LongitudeDegrees>-7.75538298301398754119873046875</LongitudeDegrees>
            </Position>
            <AltitudeMeters>590.4000244140625</AltitudeMeters>
            <DistanceMeters>20647.590435943</DistanceMeters>
          </Trackpoint>
          <Trackpoint>
            <Time>2019-07-26T09:43:03.000Z</Time>
            <Position>
              <LatitudeDegrees>42.95311619527637958526611328125</LatitudeDegrees>
              <LongitudeDegrees>-7.75543260388076305389404296875</LongitudeDegrees>
            </Position>
            <AltitudeMeters>591</AltitudeMeters>
            <DistanceMeters>20654.894523266</DistanceMeters>
          </Trackpoint>
          <Trackpoint>
            <Time>2019-07-26T09:43:06.000Z</Time>
            <Position>
              <LatitudeDegrees>42.95315676368772983551025390625</LatitudeDegrees>
              <LongitudeDegrees>-7.755489014089107513427734375</LongitudeDegrees>
            </Position>
            <AltitudeMeters>591.5999755859375</AltitudeMeters>
            <DistanceMeters>20661.336745812</DistanceMeters>
          </Trackpoint>
          <Trackpoint>
            <Time>2019-07-26T09:43:08.000Z</Time>
            <Position>
              <LatitudeDegrees>42.9531776346266269683837890625</LatitudeDegrees>
              <LongitudeDegrees>-7.75552354753017425537109375</LongitudeDegrees>
            </Position>
            <AltitudeMeters>592.20001220703125</AltitudeMeters>
            <DistanceMeters>20664.985078675</DistanceMeters>
          </Trackpoint>
          <Trackpoint>
            <Time>2019-07-26T09:43:11.000Z</Time>
            <Position>
              <LatitudeDegrees>42.95322247780859470367431640625</LatitudeDegrees>
              <LongitudeDegrees>-7.755591608583927154541015625</LongitudeDegrees>
            </Position>
            <AltitudeMeters>592.5999755859375</AltitudeMeters>
            <DistanceMeters>20672.444524435</DistanceMeters>
          </Trackpoint>
          <Trackpoint>
            <Time>2019-07-26T09:43:13.000Z</Time>
            <Position>
              <LatitudeDegrees>42.953251563012599945068359375</LatitudeDegrees>
              <LongitudeDegrees>-7.7556551434099674224853515625</LongitudeDegrees>
            </Position>
            <AltitudeMeters>592.79998779296875</AltitudeMeters>
            <DistanceMeters>20678.549944614</DistanceMeters>
          </Trackpoint>
          <Trackpoint>
            <Time>2019-07-26T09:43:17.000Z</Time>
            <Position>
              <LatitudeDegrees>42.953299842774868011474609375</LatitudeDegrees>
              <LongitudeDegrees>-7.75578833185136318206787109375</LongitudeDegrees>
            </Position>
            <AltitudeMeters>593.20001220703125</AltitudeMeters>
            <DistanceMeters>20690.658302106</DistanceMeters>
          </Trackpoint>
          <Trackpoint>
            <Time>2019-07-26T09:43:20.000Z</Time>
            <Position>
              <LatitudeDegrees>42.95333730988204479217529296875</LatitudeDegrees>
              <LongitudeDegrees>-7.75588296353816986083984375</LongitudeDegrees>
            </Position>
            <AltitudeMeters>593.4000244140625</AltitudeMeters>
            <DistanceMeters>20699.423454152</DistanceMeters>
          </Trackpoint>
          <Trackpoint>
            <Time>2019-07-26T09:43:21.000Z</Time>
            <Position>
              <LatitudeDegrees>42.95334988273680210113525390625</LatitudeDegrees>
              <LongitudeDegrees>-7.7559173293411731719970703125</LongitudeDegrees>
            </Position>
            <AltitudeMeters>593.4000244140625</AltitudeMeters>
            <DistanceMeters>20702.555013351</DistanceMeters>
          </Trackpoint>
          <Trackpoint>
            <Time>2019-07-26T09:43:25.000Z</Time>
            <Position>
              <LatitudeDegrees>42.9534143395721912384033203125</LatitudeDegrees>
              <LongitudeDegrees>-7.7560397051274776458740234375</LongitudeDegrees>
            </Position>
            <AltitudeMeters>593.79998779296875</AltitudeMeters>
            <DistanceMeters>20714.837377011</DistanceMeters>
          </Trackpoint>
          <Trackpoint>
            <Time>2019-07-26T09:43:28.000Z</Time>
            <Position>
              <LatitudeDegrees>42.953455410897731781005859375</LatitudeDegrees>
              <LongitudeDegrees>-7.7561365999281406402587890625</LongitudeDegrees>
            </Position>
            <AltitudeMeters>594</AltitudeMeters>
            <DistanceMeters>20723.958951675</DistanceMeters>
          </Trackpoint>
          <Trackpoint>
            <Time>2019-07-26T09:43:30.000Z</Time>
            <Position>
              <LatitudeDegrees>42.95347175560891628265380859375</LatitudeDegrees>
              <LongitudeDegrees>-7.75620072148740291595458984375</LongitudeDegrees>
            </Position>
            <AltitudeMeters>594.20001220703125</AltitudeMeters>
            <DistanceMeters>20729.490126866</DistanceMeters>
          </Trackpoint>
          <Trackpoint>
            <Time>2019-07-26T09:43:36.000Z</Time>
            <Position>
              <LatitudeDegrees>42.95352254994213581085205078125</LatitudeDegrees>
              <LongitudeDegrees>-7.7563753165304660797119140625</LongitudeDegrees>
            </Position>
            <AltitudeMeters>595.5999755859375</AltitudeMeters>
            <DistanceMeters>20744.795329022</DistanceMeters>
          </Trackpoint>
          <Trackpoint>
            <Time>2019-07-26T09:43:41.000Z</Time>
            <Position>
              <LatitudeDegrees>42.953521795570850372314453125</LatitudeDegrees>
              <LongitudeDegrees>-7.75650984607636928558349609375</LongitudeDegrees>
            </Position>
            <AltitudeMeters>596.4000244140625</AltitudeMeters>
            <DistanceMeters>20755.754344338</DistanceMeters>
          </Trackpoint>
          <Trackpoint>
            <Time>2019-07-26T09:43:42.000Z</Time>
            <Position>
              <LatitudeDegrees>42.95351567678153514862060546875</LatitudeDegrees>
              <LongitudeDegrees>-7.75653599761426448822021484375</LongitudeDegrees>
            </Position>
            <AltitudeMeters>596.5999755859375</AltitudeMeters>
            <DistanceMeters>20757.991007556</DistanceMeters>
          </Trackpoint>
          <Trackpoint>
            <Time>2019-07-26T09:43:48.000Z</Time>
            <Position>
              <LatitudeDegrees>42.9534894414246082305908203125</LatitudeDegrees>
              <LongitudeDegrees>-7.75666340254247188568115234375</LongitudeDegrees>
            </Position>
            <AltitudeMeters>597.79998779296875</AltitudeMeters>
            <DistanceMeters>20768.77308547</DistanceMeters>
          </Trackpoint>
          <Trackpoint>
            <Time>2019-07-26T09:43:49.000Z</Time>
            <Position>
              <LatitudeDegrees>42.9534824006259441375732421875</LatitudeDegrees>
              <LongitudeDegrees>-7.7566804178059101104736328125</LongitudeDegrees>
            </Position>
            <AltitudeMeters>598</AltitudeMeters>
            <DistanceMeters>20770.363186537</DistanceMeters>
          </Trackpoint>
          <Trackpoint>
            <Time>2019-07-26T09:43:52.000Z</Time>
            <Position>
              <LatitudeDegrees>42.95346437953412532806396484375</LatitudeDegrees>
              <LongitudeDegrees>-7.7567459642887115478515625</LongitudeDegrees>
            </Position>
            <AltitudeMeters>599.20001220703125</AltitudeMeters>
            <DistanceMeters>20776.066372958</DistanceMeters>
          </Trackpoint>
          <Trackpoint>
            <Time>2019-07-26T09:43:55.000Z</Time>
            <Position>
              <LatitudeDegrees>42.95344878919422626495361328125</LatitudeDegrees>
              <LongitudeDegrees>-7.75681092403829097747802734375</LongitudeDegrees>
            </Position>
            <AltitudeMeters>600.20001220703125</AltitudeMeters>
            <DistanceMeters>20781.635781597</DistanceMeters>
          </Trackpoint>
          <Trackpoint>
            <Time>2019-07-26T09:43:58.000Z</Time>
            <Position>
              <LatitudeDegrees>42.9534230567514896392822265625</LatitudeDegrees>
              <LongitudeDegrees>-7.75687378831207752227783203125</LongitudeDegrees>
            </Position>
            <AltitudeMeters>601</AltitudeMeters>
            <DistanceMeters>20787.503633118</DistanceMeters>
          </Trackpoint>
          <Trackpoint>
            <Time>2019-07-26T09:43:59.000Z</Time>
            <Position>
              <LatitudeDegrees>42.95341710560023784637451171875</LatitudeDegrees>
              <LongitudeDegrees>-7.75689306668937206268310546875</LongitudeDegrees>
            </Position>
            <AltitudeMeters>601.4000244140625</AltitudeMeters>
            <DistanceMeters>20789.206176668</DistanceMeters>
          </Trackpoint>
          <Trackpoint>
            <Time>2019-07-26T09:44:02.000Z</Time>
            <Position>
              <LatitudeDegrees>42.95340000651776790618896484375</LatitudeDegrees>
              <LongitudeDegrees>-7.7569591999053955078125</LongitudeDegrees>
            </Position>
            <AltitudeMeters>602.5999755859375</AltitudeMeters>
            <DistanceMeters>20794.919645522</DistanceMeters>
          </Trackpoint>
          <Trackpoint>
            <Time>2019-07-26T09:44:06.000Z</Time>
            <Position>
              <LatitudeDegrees>42.95338332653045654296875</LatitudeDegrees>
              <LongitudeDegrees>-7.75705064646899700164794921875</LongitudeDegrees>
            </Position>
            <AltitudeMeters>603.79998779296875</AltitudeMeters>
            <DistanceMeters>20802.59742769</DistanceMeters>
          </Trackpoint>
          <Trackpoint>
            <Time>2019-07-26T09:44:11.000Z</Time>
            <Position>
              <LatitudeDegrees>42.95338936150074005126953125</LatitudeDegrees>
              <LongitudeDegrees>-7.7571625448763370513916015625</LongitudeDegrees>
            </Position>
            <AltitudeMeters>604.79998779296875</AltitudeMeters>
            <DistanceMeters>20811.737792413</DistanceMeters>
          </Trackpoint>
          <Trackpoint>
            <Time>2019-07-26T09:44:13.000Z</Time>
            <Position>
              <LatitudeDegrees>42.95339849777519702911376953125</LatitudeDegrees>
              <LongitudeDegrees>-7.75720663368701934814453125</LongitudeDegrees>
            </Position>
            <AltitudeMeters>605.20001220703125</AltitudeMeters>
            <DistanceMeters>20815.471749835</DistanceMeters>
          </Trackpoint>
          <Trackpoint>
            <Time>2019-07-26T09:44:16.000Z</Time>
            <Position>
              <LatitudeDegrees>42.9534036107361316680908203125</LatitudeDegrees>
              <LongitudeDegrees>-7.75727813132107257843017578125</LongitudeDegrees>
            </Position>
            <AltitudeMeters>605.79998779296875</AltitudeMeters>
            <DistanceMeters>20821.324192056</DistanceMeters>
          </Trackpoint>
          <Trackpoint>
            <Time>2019-07-26T09:44:20.000Z</Time>
            <Position>
              <LatitudeDegrees>42.953408472239971160888671875</LatitudeDegrees>
              <LongitudeDegrees>-7.75737561285495758056640625</LongitudeDegrees>
            </Position>
            <AltitudeMeters>606.79998779296875</AltitudeMeters>
            <DistanceMeters>20829.282643927</DistanceMeters>
          </Trackpoint>
          <Trackpoint>
            <Time>2019-07-26T09:44:21.000Z</Time>
            <Position>
              <LatitudeDegrees>42.95341006480157375335693359375</LatitudeDegrees>
              <LongitudeDegrees>-7.75739732198417186737060546875</LongitudeDegrees>
            </Position>
            <AltitudeMeters>607</AltitudeMeters>
            <DistanceMeters>20831.060430965</DistanceMeters>
          </Trackpoint>
          <Trackpoint>
            <Time>2019-07-26T09:44:25.000Z</Time>
            <Position>
              <LatitudeDegrees>42.95342179946601390838623046875</LatitudeDegrees>
              <LongitudeDegrees>-7.75749706663191318511962890625</LongitudeDegrees>
            </Position>
            <AltitudeMeters>608</AltitudeMeters>
            <DistanceMeters>20839.291083035</DistanceMeters>
          </Trackpoint>
          <Trackpoint>
            <Time>2019-07-26T09:44:29.000Z</Time>
            <Position>
              <LatitudeDegrees>42.95343202538788318634033203125</LatitudeDegrees>
              <LongitudeDegrees>-7.757600583136081695556640625</LongitudeDegrees>
            </Position>
            <AltitudeMeters>608.79998779296875</AltitudeMeters>
            <DistanceMeters>20847.800087261</DistanceMeters>
          </Trackpoint>
          <Trackpoint>
            <Time>2019-07-26T09:44:30.000Z</Time>
            <Position>
              <LatitudeDegrees>42.95343470759689807891845703125</LatitudeDegrees>
              <LongitudeDegrees>-7.75762505829334259033203125</LongitudeDegrees>
            </Position>
            <AltitudeMeters>609</AltitudeMeters>
            <DistanceMeters>20849.815908285</DistanceMeters>
          </Trackpoint>
          <Trackpoint>
            <Time>2019-07-26T09:44:36.000Z</Time>
            <Position>
              <LatitudeDegrees>42.9534478671848773956298828125</LatitudeDegrees>
              <LongitudeDegrees>-7.75777366943657398223876953125</LongitudeDegrees>
            </Position>
            <AltitudeMeters>610.20001220703125</AltitudeMeters>
            <DistanceMeters>20862.010468502</DistanceMeters>
          </Trackpoint>
          <Trackpoint>
            <Time>2019-07-26T09:44:38.000Z</Time>
            <Position>
              <LatitudeDegrees>42.9534544050693511962890625</LatitudeDegrees>
              <LongitudeDegrees>-7.7578330971300601959228515625</LongitudeDegrees>
            </Position>
            <AltitudeMeters>610.5999755859375</AltitudeMeters>
            <DistanceMeters>20866.905958557</DistanceMeters>
          </Trackpoint>
          <Trackpoint>
            <Time>2019-07-26T09:44:41.000Z</Time>
            <Position>
              <LatitudeDegrees>42.953458093106746673583984375</LatitudeDegrees>
              <LongitudeDegrees>-7.7579195983707904815673828125</LongitudeDegrees>
            </Position>
            <AltitudeMeters>611.20001220703125</AltitudeMeters>
            <DistanceMeters>20873.96485095</DistanceMeters>
          </Trackpoint>
          <Trackpoint>
            <Time>2019-07-26T09:44:45.000Z</Time>
            <Position>
              <LatitudeDegrees>42.95346320606768131256103515625</LatitudeDegrees>
              <LongitudeDegrees>-7.7580620907247066497802734375</LongitudeDegrees>
            </Position>
            <AltitudeMeters>612</AltitudeMeters>
            <DistanceMeters>20885.587282431</DistanceMeters>
          </Trackpoint>
          <Trackpoint>
            <Time>2019-07-26T09:44:47.000Z</Time>
            <Position>
              <LatitudeDegrees>42.95347041450440883636474609375</LatitudeDegrees>
              <LongitudeDegrees>-7.75813174434006214141845703125</LongitudeDegrees>
            </Position>
            <AltitudeMeters>612.4000244140625</AltitudeMeters>
            <DistanceMeters>20891.318898093</DistanceMeters>
          </Trackpoint>
          <Trackpoint>
            <Time>2019-07-26T09:44:51.000Z</Time>
            <Position>
              <LatitudeDegrees>42.95347494073212146759033203125</LatitudeDegrees>
              <LongitudeDegrees>-7.7582743205130100250244140625</LongitudeDegrees>
            </Position>
            <AltitudeMeters>613.4000244140625</AltitudeMeters>
            <DistanceMeters>20902.944825334</DistanceMeters>
          </Trackpoint>
          <Trackpoint>
            <Time>2019-07-26T09:44:52.000Z</Time>
            <Position>
              <LatitudeDegrees>42.9534760303795337677001953125</LatitudeDegrees>
              <LongitudeDegrees>-7.75831379927694797515869140625</LongitudeDegrees>
            </Position>
            <AltitudeMeters>613.4000244140625</AltitudeMeters>
            <DistanceMeters>20906.161728753</DistanceMeters>
          </Trackpoint>
          <Trackpoint>
            <Time>2019-07-26T09:44:57.000Z</Time>
            <Position>
              <LatitudeDegrees>42.95347678475081920623779296875</LatitudeDegrees>
              <LongitudeDegrees>-7.75852250866591930389404296875</LongitudeDegrees>
            </Position>
            <AltitudeMeters>614.4000244140625</AltitudeMeters>
            <DistanceMeters>20923.163811188</DistanceMeters>
          </Trackpoint>
          <Trackpoint>
            <Time>2019-07-26T09:44:58.000Z</Time>
            <Position>
              <LatitudeDegrees>42.95347494073212146759033203125</LatitudeDegrees>
              <LongitudeDegrees>-7.7585671842098236083984375</LongitudeDegrees>
            </Position>
            <AltitudeMeters>614.5999755859375</AltitudeMeters>
            <DistanceMeters>20926.809668087</DistanceMeters>
          </Trackpoint>
          <Trackpoint>
            <Time>2019-07-26T09:45:01.000Z</Time>
            <Position>
              <LatitudeDegrees>42.9534683190286159515380859375</LatitudeDegrees>
              <LongitudeDegrees>-7.75870330631732940673828125</LongitudeDegrees>
            </Position>
            <AltitudeMeters>615</AltitudeMeters>
            <DistanceMeters>20937.922919435</DistanceMeters>
          </Trackpoint>
          <Trackpoint>
            <Time>2019-07-26T09:45:04.000Z</Time>
            <Position>
              <LatitudeDegrees>42.953450046479701995849609375</LatitudeDegrees>
              <LongitudeDegrees>-7.75886423885822296142578125</LongitudeDegrees>
            </Position>
            <AltitudeMeters>615</AltitudeMeters>
            <DistanceMeters>20951.189955654</DistanceMeters>
          </Trackpoint>
          <Trackpoint>
            <Time>2019-07-26T09:45:05.000Z</Time>
            <Position>
              <LatitudeDegrees>42.95343772508203983306884765625</LatitudeDegrees>
              <LongitudeDegrees>-7.75892869569361209869384765625</LongitudeDegrees>
            </Position>
            <AltitudeMeters>615</AltitudeMeters>
            <DistanceMeters>20956.61563987</DistanceMeters>
          </Trackpoint>
          <Trackpoint>
            <Time>2019-07-26T09:45:07.000Z</Time>
            <Position>
              <LatitudeDegrees>42.95341408811509609222412109375</LatitudeDegrees>
              <LongitudeDegrees>-7.75907856412231922149658203125</LongitudeDegrees>
            </Position>
            <AltitudeMeters>615</AltitudeMeters>
            <DistanceMeters>20969.10433397</DistanceMeters>
          </Trackpoint>
          <Trackpoint>
            <Time>2019-07-26T09:45:08.000Z</Time>
            <Position>
              <LatitudeDegrees>42.95340570621192455291748046875</LatitudeDegrees>
              <LongitudeDegrees>-7.75915936566889286041259765625</LongitudeDegrees>
            </Position>
            <AltitudeMeters>615</AltitudeMeters>
            <DistanceMeters>20975.752130155</DistanceMeters>
          </Trackpoint>
          <Trackpoint>
            <Time>2019-07-26T09:45:09.000Z</Time>
            <Position>
              <LatitudeDegrees>42.9533965699374675750732421875</LatitudeDegrees>
              <LongitudeDegrees>-7.75924838148057460784912109375</LongitudeDegrees>
            </Position>
            <AltitudeMeters>615</AltitudeMeters>
            <DistanceMeters>20983.07412195</DistanceMeters>
          </Trackpoint>
          <Trackpoint>
            <Time>2019-07-26T09:45:11.000Z</Time>
            <Position>
              <LatitudeDegrees>42.95337737537920475006103515625</LatitudeDegrees>
              <LongitudeDegrees>-7.75944921188056468963623046875</LongitudeDegrees>
            </Position>
            <AltitudeMeters>615</AltitudeMeters>
            <DistanceMeters>20999.573233577</DistanceMeters>
          </Trackpoint>
          <Trackpoint>
            <Time>2019-07-26T09:45:13.000Z</Time>
            <Position>
              <LatitudeDegrees>42.95334921218454837799072265625</LatitudeDegrees>
              <LongitudeDegrees>-7.75966278277337551116943359375</LongitudeDegrees>
            </Position>
            <AltitudeMeters>614.79998779296875</AltitudeMeters>
            <DistanceMeters>21017.251778363</DistanceMeters>
          </Trackpoint>
          <Trackpoint>
            <Time>2019-07-26T09:45:15.000Z</Time>
            <Position>
              <LatitudeDegrees>42.9533150978386402130126953125</LatitudeDegrees>
              <LongitudeDegrees>-7.759887836873531341552734375</LongitudeDegrees>
            </Position>
            <AltitudeMeters>614.4000244140625</AltitudeMeters>
            <DistanceMeters>21035.974211629</DistanceMeters>
          </Trackpoint>
          <Trackpoint>
            <Time>2019-07-26T09:45:17.000Z</Time>
            <Position>
              <LatitudeDegrees>42.9532695002853870391845703125</LatitudeDegrees>
              <LongitudeDegrees>-7.76012445800006389617919921875</LongitudeDegrees>
            </Position>
            <AltitudeMeters>613</AltitudeMeters>
            <DistanceMeters>21055.90673037</DistanceMeters>
          </Trackpoint>
          <Trackpoint>
            <Time>2019-07-26T09:45:18.000Z</Time>
            <Position>
              <LatitudeDegrees>42.9532497189939022064208984375</LatitudeDegrees>
              <LongitudeDegrees>-7.7602400444447994232177734375</LongitudeDegrees>
            </Position>
            <AltitudeMeters>612.4000244140625</AltitudeMeters>
            <DistanceMeters>21065.57707016</DistanceMeters>
          </Trackpoint>
          <Trackpoint>
            <Time>2019-07-26T09:45:19.000Z</Time>
            <Position>
              <LatitudeDegrees>42.95323069207370281219482421875</LatitudeDegrees>
              <LongitudeDegrees>-7.76035420596599578857421875</LongitudeDegrees>
            </Position>
            <AltitudeMeters>611.79998779296875</AltitudeMeters>
            <DistanceMeters>21075.114836675</DistanceMeters>
          </Trackpoint>
          <Trackpoint>
            <Time>2019-07-26T09:45:21.000Z</Time>
            <Position>
              <LatitudeDegrees>42.95319448225200176239013671875</LatitudeDegrees>
              <LongitudeDegrees>-7.76058948598802089691162109375</LongitudeDegrees>
            </Position>
            <AltitudeMeters>610.79998779296875</AltitudeMeters>
            <DistanceMeters>21094.70048569</DistanceMeters>
          </Trackpoint>
          <Trackpoint>
            <Time>2019-07-26T09:45:24.000Z</Time>
            <Position>
              <LatitudeDegrees>42.95312306843698024749755859375</LatitudeDegrees>
              <LongitudeDegrees>-7.760967426002025604248046875</LongitudeDegrees>
            </Position>
            <AltitudeMeters>609.4000244140625</AltitudeMeters>
            <DistanceMeters>21126.498247552</DistanceMeters>
          </Trackpoint>
          <Trackpoint>
            <Time>2019-07-26T09:45:25.000Z</Time>
            <Position>
              <LatitudeDegrees>42.95309473760426044464111328125</LatitudeDegrees>
              <LongitudeDegrees>-7.76109759695827960968017578125</LongitudeDegrees>
            </Position>
            <AltitudeMeters>609</AltitudeMeters>
            <DistanceMeters>21137.561414193</DistanceMeters>
          </Trackpoint>
          <Trackpoint>
            <Time>2019-07-26T09:45:26.000Z</Time>
            <Position>
              <LatitudeDegrees>42.95306489802896976470947265625</LatitudeDegrees>
              <LongitudeDegrees>-7.76123137213289737701416015625</LongitudeDegrees>
            </Position>
            <AltitudeMeters>608.4000244140625</AltitudeMeters>
            <DistanceMeters>21148.954320706</DistanceMeters>
          </Trackpoint>
          <Trackpoint>
            <Time>2019-07-26T09:45:28.000Z</Time>
            <Position>
              <LatitudeDegrees>42.95300555415451526641845703125</LatitudeDegrees>
              <LongitudeDegrees>-7.76151451282203197479248046875</LongitudeDegrees>
            </Position>
            <AltitudeMeters>607</AltitudeMeters>
            <DistanceMeters>21172.946825433</DistanceMeters>
          </Trackpoint>
          <Trackpoint>
            <Time>2019-07-26T09:45:30.000Z</Time>
            <Position>
              <LatitudeDegrees>42.9529556818306446075439453125</LatitudeDegrees>
              <LongitudeDegrees>-7.761815004050731658935546875</LongitudeDegrees>
            </Position>
            <AltitudeMeters>605.4000244140625</AltitudeMeters>
            <DistanceMeters>21198.047192631</DistanceMeters>
          </Trackpoint>
          <Trackpoint>
            <Time>2019-07-26T09:45:33.000Z</Time>
            <Position>
              <LatitudeDegrees>42.95287647284567356109619140625</LatitudeDegrees>
              <LongitudeDegrees>-7.762279026210308074951171875</LongitudeDegrees>
            </Position>
            <AltitudeMeters>603.5999755859375</AltitudeMeters>
            <DistanceMeters>21236.862319505</DistanceMeters>
          </Trackpoint>
          <Trackpoint>
            <Time>2019-07-26T09:45:35.000Z</Time>
            <Position>
              <LatitudeDegrees>42.952812016010284423828125</LatitudeDegrees>
              <LongitudeDegrees>-7.762591503560543060302734375</LongitudeDegrees>
            </Position>
            <AltitudeMeters>602.20001220703125</AltitudeMeters>
            <DistanceMeters>21263.309467956</DistanceMeters>
          </Trackpoint>
          <Trackpoint>
            <Time>2019-07-26T09:45:37.000Z</Time>
            <Position>
              <LatitudeDegrees>42.952752672135829925537109375</LatitudeDegrees>
              <LongitudeDegrees>-7.762879170477390289306640625</LongitudeDegrees>
            </Position>
            <AltitudeMeters>601</AltitudeMeters>
            <DistanceMeters>21287.656899613</DistanceMeters>
          </Trackpoint>
          <Trackpoint>
            <Time>2019-07-26T09:45:38.000Z</Time>
            <Position>
              <LatitudeDegrees>42.95272073708474636077880859375</LatitudeDegrees>
              <LongitudeDegrees>-7.7630097605288028717041015625</LongitudeDegrees>
            </Position>
            <AltitudeMeters>599.4000244140625</AltitudeMeters>
            <DistanceMeters>21298.873272691</DistanceMeters>
          </Trackpoint>
          <Trackpoint>
            <Time>2019-07-26T09:45:39.000Z</Time>
            <Position>
              <LatitudeDegrees>42.9526867903769016265869140625</LatitudeDegrees>
              <LongitudeDegrees>-7.7631378360092639923095703125</LongitudeDegrees>
            </Position>
            <AltitudeMeters>598.4000244140625</AltitudeMeters>
            <DistanceMeters>21309.969854254</DistanceMeters>
          </Trackpoint>
          <Trackpoint>
            <Time>2019-07-26T09:45:40.000Z</Time>
            <Position>
              <LatitudeDegrees>42.952656783163547515869140625</LatitudeDegrees>
              <LongitudeDegrees>-7.76325744576752185821533203125</LongitudeDegrees>
            </Position>
            <AltitudeMeters>597.20001220703125</AltitudeMeters>
            <DistanceMeters>21320.270504633</DistanceMeters>
          </Trackpoint>
          <Trackpoint>
            <Time>2019-07-26T09:45:41.000Z</Time>
            <Position>
              <LatitudeDegrees>42.9526284523308277130126953125</LatitudeDegrees>
              <LongitudeDegrees>-7.76337579824030399322509765625</LongitudeDegrees>
            </Position>
            <AltitudeMeters>596.20001220703125</AltitudeMeters>
            <DistanceMeters>21330.414801117</DistanceMeters>
          </Trackpoint>
          <Trackpoint>
            <Time>2019-07-26T09:45:42.000Z</Time>
            <Position>
              <LatitudeDegrees>42.95258914120495319366455078125</LatitudeDegrees>
              <LongitudeDegrees>-7.7634982578456401824951171875</LongitudeDegrees>
            </Position>
            <AltitudeMeters>595.4000244140625</AltitudeMeters>
            <DistanceMeters>21341.308527046</DistanceMeters>
          </Trackpoint>
          <Trackpoint>
            <Time>2019-07-26T09:45:43.000Z</Time>
            <Position>
              <LatitudeDegrees>42.952540777623653411865234375</LatitudeDegrees>
              <LongitudeDegrees>-7.763622142374515533447265625</LongitudeDegrees>
            </Position>
            <AltitudeMeters>594.5999755859375</AltitudeMeters>
            <DistanceMeters>21352.746522828</DistanceMeters>
          </Trackpoint>
          <Trackpoint>
            <Time>2019-07-26T09:45:44.000Z</Time>
            <Position>
              <LatitudeDegrees>42.95248587615787982940673828125</LatitudeDegrees>
              <LongitudeDegrees>-7.76374795474112033843994140625</LongitudeDegrees>
            </Position>
            <AltitudeMeters>592.79998779296875</AltitudeMeters>
            <DistanceMeters>21364.679093606</DistanceMeters>
          </Trackpoint>
          <Trackpoint>
            <Time>2019-07-26T09:45:45.000Z</Time>
            <Position>
              <LatitudeDegrees>42.9524282924830913543701171875</LatitudeDegrees>
              <LongitudeDegrees>-7.763875611126422882080078125</LongitudeDegrees>
            </Position>
            <AltitudeMeters>591</AltitudeMeters>
            <DistanceMeters>21376.894370237</DistanceMeters>
          </Trackpoint>
          <Trackpoint>
            <Time>2019-07-26T09:45:46.000Z</Time>
            <Position>
              <LatitudeDegrees>42.95236685313284397125244140625</LatitudeDegrees>
              <LongitudeDegrees>-7.764009051024913787841796875</LongitudeDegrees>
            </Position>
            <AltitudeMeters>588.79998779296875</AltitudeMeters>
            <DistanceMeters>21389.736695422</DistanceMeters>
          </Trackpoint>
          <Trackpoint>
            <Time>2019-07-26T09:45:47.000Z</Time>
            <Position>
              <LatitudeDegrees>42.95230465941131114959716796875</LatitudeDegrees>
              <LongitudeDegrees>-7.76414609514176845550537109375</LongitudeDegrees>
            </Position>
            <AltitudeMeters>586.79998779296875</AltitudeMeters>
            <DistanceMeters>21402.873086131</DistanceMeters>
          </Trackpoint>
          <Trackpoint>
            <Time>2019-07-26T09:45:48.000Z</Time>
            <Position>
              <LatitudeDegrees>42.952241040766239166259765625</LatitudeDegrees>
              <LongitudeDegrees>-7.7642838098108768463134765625</LongitudeDegrees>
            </Position>
            <AltitudeMeters>585.20001220703125</AltitudeMeters>
            <DistanceMeters>21416.139441693</DistanceMeters>
          </Trackpoint>
          <Trackpoint>
            <Time>2019-07-26T09:45:49.000Z</Time>
            <Position>
              <LatitudeDegrees>42.95217708684504032135009765625</LatitudeDegrees>
              <LongitudeDegrees>-7.76442169211804866790771484375</LongitudeDegrees>
            </Position>
            <AltitudeMeters>584</AltitudeMeters>
            <DistanceMeters>21429.437750498</DistanceMeters>
          </Trackpoint>
          <Trackpoint>
            <Time>2019-07-26T09:45:50.000Z</Time>
            <Position>
              <LatitudeDegrees>42.952114641666412353515625</LatitudeDegrees>
              <LongitudeDegrees>-7.764558903872966766357421875</LongitudeDegrees>
            </Position>
            <AltitudeMeters>583</AltitudeMeters>
            <DistanceMeters>21442.59989381</DistanceMeters>
          </Trackpoint>
          <Trackpoint>
            <Time>2019-07-26T09:45:51.000Z</Time>
            <Position>
              <LatitudeDegrees>42.9520569741725921630859375</LatitudeDegrees>
              <LongitudeDegrees>-7.764694355428218841552734375</LongitudeDegrees>
            </Position>
            <AltitudeMeters>581.79998779296875</AltitudeMeters>
            <DistanceMeters>21455.365345604</DistanceMeters>
          </Trackpoint>
          <Trackpoint>
            <Time>2019-07-26T09:45:52.000Z</Time>
            <Position>
              <LatitudeDegrees>42.95199863612651824951171875</LatitudeDegrees>
              <LongitudeDegrees>-7.7648303098976612091064453125</LongitudeDegrees>
            </Position>
            <AltitudeMeters>580.20001220703125</AltitudeMeters>
            <DistanceMeters>21468.203802884</DistanceMeters>
          </Trackpoint>
          <Trackpoint>
            <Time>2019-07-26T09:45:54.000Z</Time>
            <Position>
              <LatitudeDegrees>42.951884977519512176513671875</LatitudeDegrees>
              <LongitudeDegrees>-7.7650876343250274658203125</LongitudeDegrees>
            </Position>
            <AltitudeMeters>578</AltitudeMeters>
            <DistanceMeters>21492.688077121</DistanceMeters>
          </Trackpoint>
          <Trackpoint>
            <Time>2019-07-26T09:45:55.000Z</Time>
            <Position>
              <LatitudeDegrees>42.9518291540443897247314453125</LatitudeDegrees>
              <LongitudeDegrees>-7.7652108483016490936279296875</LongitudeDegrees>
            </Position>
            <AltitudeMeters>576.79998779296875</AltitudeMeters>
            <DistanceMeters>21504.492827846</DistanceMeters>
          </Trackpoint>
          <Trackpoint>
            <Time>2019-07-26T09:45:56.000Z</Time>
            <Position>
              <LatitudeDegrees>42.95177525840699672698974609375</LatitudeDegrees>
              <LongitudeDegrees>-7.765334732830524444580078125</LongitudeDegrees>
            </Position>
            <AltitudeMeters>575.4000244140625</AltitudeMeters>
            <DistanceMeters>21516.233915828</DistanceMeters>
          </Trackpoint>
          <Trackpoint>
            <Time>2019-07-26T09:45:57.000Z</Time>
            <Position>
              <LatitudeDegrees>42.9517201893031597137451171875</LatitudeDegrees>
              <LongitudeDegrees>-7.765462137758731842041015625</LongitudeDegrees>
            </Position>
            <AltitudeMeters>574</AltitudeMeters>
            <DistanceMeters>21528.287709006</DistanceMeters>
          </Trackpoint>
          <Trackpoint>
            <Time>2019-07-26T09:45:58.000Z</Time>
            <Position>
              <LatitudeDegrees>42.9516605101525783538818359375</LatitudeDegrees>
              <LongitudeDegrees>-7.765591554343700408935546875</LongitudeDegrees>
            </Position>
            <AltitudeMeters>572.5999755859375</AltitudeMeters>
            <DistanceMeters>21540.748171854</DistanceMeters>
          </Trackpoint>
          <Trackpoint>
            <Time>2019-07-26T09:45:59.000Z</Time>
            <Position>
              <LatitudeDegrees>42.9515988193452358245849609375</LatitudeDegrees>
              <LongitudeDegrees>-7.76572356931865215301513671875</LongitudeDegrees>
            </Position>
            <AltitudeMeters>570.5999755859375</AltitudeMeters>
            <DistanceMeters>21553.507963321</DistanceMeters>
          </Trackpoint>
          <Trackpoint>
            <Time>2019-07-26T09:46:00.000Z</Time>
            <Position>
              <LatitudeDegrees>42.95153486542403697967529296875</LatitudeDegrees>
              <LongitudeDegrees>-7.76586036197841167449951171875</LongitudeDegrees>
            </Position>
            <AltitudeMeters>568.79998779296875</AltitudeMeters>
            <DistanceMeters>21566.731366826</DistanceMeters>
          </Trackpoint>
          <Trackpoint>
            <Time>2019-07-26T09:46:01.000Z</Time>
            <Position>
              <LatitudeDegrees>42.95146864838898181915283203125</LatitudeDegrees>
              <LongitudeDegrees>-7.7659994177520275115966796875</LongitudeDegrees>
            </Position>
            <AltitudeMeters>567.4000244140625</AltitudeMeters>
            <DistanceMeters>21580.245889613</DistanceMeters>
          </Trackpoint>
          <Trackpoint>
            <Time>2019-07-26T09:46:02.000Z</Time>
            <Position>
              <LatitudeDegrees>42.9514025151729583740234375</LatitudeDegrees>
              <LongitudeDegrees>-7.76613780297338962554931640625</LongitudeDegrees>
            </Position>
            <AltitudeMeters>565.79998779296875</AltitudeMeters>
            <DistanceMeters>21593.709870622</DistanceMeters>
          </Trackpoint>
          <Trackpoint>
            <Time>2019-07-26T09:46:03.000Z</Time>
            <Position>
              <LatitudeDegrees>42.9513379745185375213623046875</LatitudeDegrees>
              <LongitudeDegrees>-7.76627442799508571624755859375</LongitudeDegrees>
            </Position>
            <AltitudeMeters>564.20001220703125</AltitudeMeters>
            <DistanceMeters>21606.957153574</DistanceMeters>
          </Trackpoint>
          <Trackpoint>
            <Time>2019-07-26T09:46:04.000Z</Time>
            <Position>
              <LatitudeDegrees>42.9512756131589412689208984375</LatitudeDegrees>
              <LongitudeDegrees>-7.7664051018655300140380859375</LongitudeDegrees>
            </Position>
            <AltitudeMeters>562.20001220703125</AltitudeMeters>
            <DistanceMeters>21619.665533376</DistanceMeters>
          </Trackpoint>
          <Trackpoint>
            <Time>2019-07-26T09:46:05.000Z</Time>
            <Position>
              <LatitudeDegrees>42.95121719129383563995361328125</LatitudeDegrees>
              <LongitudeDegrees>-7.76652588509023189544677734375</LongitudeDegrees>
            </Position>
            <AltitudeMeters>559.79998779296875</AltitudeMeters>
            <DistanceMeters>21631.459569901</DistanceMeters>
          </Trackpoint>
          <Trackpoint>
            <Time>2019-07-26T09:46:06.000Z</Time>
            <Position>
              <LatitudeDegrees>42.951164804399013519287109375</LatitudeDegrees>
              <LongitudeDegrees>-7.76663518510758876800537109375</LongitudeDegrees>
            </Position>
            <AltitudeMeters>557.79998779296875</AltitudeMeters>
            <DistanceMeters>21642.103410329</DistanceMeters>
          </Trackpoint>
          <Trackpoint>
            <Time>2019-07-26T09:46:07.000Z</Time>
            <Position>
              <LatitudeDegrees>42.9511156864464282989501953125</LatitudeDegrees>
              <LongitudeDegrees>-7.76673610322177410125732421875</LongitudeDegrees>
            </Position>
            <AltitudeMeters>555.79998779296875</AltitudeMeters>
            <DistanceMeters>21651.977047212</DistanceMeters>
          </Trackpoint>
          <Trackpoint>
            <Time>2019-07-26T09:46:08.000Z</Time>
            <Position>
              <LatitudeDegrees>42.951068580150604248046875</LatitudeDegrees>
              <LongitudeDegrees>-7.76683366857469081878662109375</LongitudeDegrees>
            </Position>
            <AltitudeMeters>554.20001220703125</AltitudeMeters>
            <DistanceMeters>21661.498705024</DistanceMeters>
          </Trackpoint>
          <Trackpoint>
            <Time>2019-07-26T09:46:09.000Z</Time>
            <Position>
              <LatitudeDegrees>42.9510271735489368438720703125</LatitudeDegrees>
              <LongitudeDegrees>-7.7669308148324489593505859375</LongitudeDegrees>
            </Position>
            <AltitudeMeters>552.79998779296875</AltitudeMeters>
            <DistanceMeters>21670.656835293</DistanceMeters>
          </Trackpoint>
          <Trackpoint>
            <Time>2019-07-26T09:46:10.000Z</Time>
            <Position>
              <LatitudeDegrees>42.95099691487848758697509765625</LatitudeDegrees>
              <LongitudeDegrees>-7.7670295536518096923828125</LongitudeDegrees>
            </Position>
            <AltitudeMeters>550.79998779296875</AltitudeMeters>
            <DistanceMeters>21679.377057408</DistanceMeters>
          </Trackpoint>
          <Trackpoint>
            <Time>2019-07-26T09:46:11.000Z</Time>
            <Position>
              <LatitudeDegrees>42.9509805701673030853271484375</LatitudeDegrees>
              <LongitudeDegrees>-7.76713659055531024932861328125</LongitudeDegrees>
            </Position>
            <AltitudeMeters>549</AltitudeMeters>
            <DistanceMeters>21688.284259641</DistanceMeters>
          </Trackpoint>
          <Trackpoint>
            <Time>2019-07-26T09:46:12.000Z</Time>
            <Position>
              <LatitudeDegrees>42.95098400674760341644287109375</LatitudeDegrees>
              <LongitudeDegrees>-7.76725393719971179962158203125</LongitudeDegrees>
            </Position>
            <AltitudeMeters>547.4000244140625</AltitudeMeters>
            <DistanceMeters>21697.852274848</DistanceMeters>
          </Trackpoint>
          <Trackpoint>
            <Time>2019-07-26T09:46:13.000Z</Time>
            <Position>
              <LatitudeDegrees>42.95100663788616657257080078125</LatitudeDegrees>
              <LongitudeDegrees>-7.76737899519503116607666015625</LongitudeDegrees>
            </Position>
            <AltitudeMeters>545.79998779296875</AltitudeMeters>
            <DistanceMeters>21708.346597709</DistanceMeters>
          </Trackpoint>
          <Trackpoint>
            <Time>2019-07-26T09:46:14.000Z</Time>
            <Position>
              <LatitudeDegrees>42.951033376157283782958984375</LatitudeDegrees>
              <LongitudeDegrees>-7.76750824414193630218505859375</LongitudeDegrees>
            </Position>
            <AltitudeMeters>543.5999755859375</AltitudeMeters>
            <DistanceMeters>21719.288295634</DistanceMeters>
          </Trackpoint>
          <Trackpoint>
            <Time>2019-07-26T09:46:15.000Z</Time>
            <Position>
              <LatitudeDegrees>42.9510553367435932159423828125</LatitudeDegrees>
              <LongitudeDegrees>-7.76763640344142913818359375</LongitudeDegrees>
            </Position>
            <AltitudeMeters>541.5999755859375</AltitudeMeters>
            <DistanceMeters>21730.011587733</DistanceMeters>
          </Trackpoint>
          <Trackpoint>
            <Time>2019-07-26T09:46:16.000Z</Time>
            <Position>
              <LatitudeDegrees>42.951072938740253448486328125</LatitudeDegrees>
              <LongitudeDegrees>-7.767760790884494781494140625</LongitudeDegrees>
            </Position>
            <AltitudeMeters>539.79998779296875</AltitudeMeters>
            <DistanceMeters>21740.332381391</DistanceMeters>
          </Trackpoint>
          <Trackpoint>
            <Time>2019-07-26T09:46:17.000Z</Time>
            <Position>
              <LatitudeDegrees>42.95108542777597904205322265625</LatitudeDegrees>
              <LongitudeDegrees>-7.76787604205310344696044921875</LongitudeDegrees>
            </Position>
            <AltitudeMeters>538.4000244140625</AltitudeMeters>
            <DistanceMeters>21749.823642772</DistanceMeters>
          </Trackpoint>
          <Trackpoint>
            <Time>2019-07-26T09:46:18.000Z</Time>
            <Position>
              <LatitudeDegrees>42.95109397731721401214599609375</LatitudeDegrees>
              <LongitudeDegrees>-7.7679725177586078643798828125</LongitudeDegrees>
            </Position>
            <AltitudeMeters>537</AltitudeMeters>
            <DistanceMeters>21757.740001185</DistanceMeters>
          </Trackpoint>
          <Trackpoint>
            <Time>2019-07-26T09:46:19.000Z</Time>
            <Position>
              <LatitudeDegrees>42.95109263621270656585693359375</LatitudeDegrees>
              <LongitudeDegrees>-7.76805541478097438812255859375</LongitudeDegrees>
            </Position>
            <AltitudeMeters>535.4000244140625</AltitudeMeters>
            <DistanceMeters>21764.494255119</DistanceMeters>
          </Trackpoint>
          <Trackpoint>
            <Time>2019-07-26T09:46:20.000Z</Time>
            <Position>
              <LatitudeDegrees>42.9510784707963466644287109375</LatitudeDegrees>
              <LongitudeDegrees>-7.7681237272918224334716796875</LongitudeDegrees>
            </Position>
            <AltitudeMeters>532.5999755859375</AltitudeMeters>
            <DistanceMeters>21770.277628109</DistanceMeters>
          </Trackpoint>
          <Trackpoint>
            <Time>2019-07-26T09:46:21.000Z</Time>
            <Position>
              <LatitudeDegrees>42.95104988850653171539306640625</LatitudeDegrees>
              <LongitudeDegrees>-7.7681770361959934234619140625</LongitudeDegrees>
            </Position>
            <AltitudeMeters>531.20001220703125</AltitudeMeters>
            <DistanceMeters>21775.661543542</DistanceMeters>
          </Trackpoint>
          <Trackpoint>
            <Time>2019-07-26T09:46:22.000Z</Time>
            <Position>
              <LatitudeDegrees>42.95100898481905460357666015625</LatitudeDegrees>
              <LongitudeDegrees>-7.768214084208011627197265625</LongitudeDegrees>
            </Position>
            <AltitudeMeters>530.20001220703125</AltitudeMeters>
            <DistanceMeters>21781.124546621</DistanceMeters>
          </Trackpoint>
          <Trackpoint>
            <Time>2019-07-26T09:46:23.000Z</Time>
            <Position>
              <LatitudeDegrees>42.95095953159034252166748046875</LatitudeDegrees>
              <LongitudeDegrees>-7.768236882984638214111328125</LongitudeDegrees>
            </Position>
            <AltitudeMeters>528.79998779296875</AltitudeMeters>
            <DistanceMeters>21786.93362535</DistanceMeters>
          </Trackpoint>
          <Trackpoint>
            <Time>2019-07-26T09:46:24.000Z</Time>
            <Position>
              <LatitudeDegrees>42.95090236701071262359619140625</LatitudeDegrees>
              <LongitudeDegrees>-7.7682387270033359527587890625</LongitudeDegrees>
            </Position>
            <AltitudeMeters>527.4000244140625</AltitudeMeters>
            <DistanceMeters>21793.298287393</DistanceMeters>
          </Trackpoint>
          <Trackpoint>
            <Time>2019-07-26T09:46:25.000Z</Time>
            <Position>
              <LatitudeDegrees>42.95083648525178432464599609375</LatitudeDegrees>
              <LongitudeDegrees>-7.7682392299175262451171875</LongitudeDegrees>
            </Position>
            <AltitudeMeters>525.5999755859375</AltitudeMeters>
            <DistanceMeters>21800.630754587</DistanceMeters>
          </Trackpoint>
          <Trackpoint>
            <Time>2019-07-26T09:46:26.000Z</Time>
            <Position>
              <LatitudeDegrees>42.95076750218868255615234375</LatitudeDegrees>
              <LongitudeDegrees>-7.76824065484106540679931640625</LongitudeDegrees>
            </Position>
            <AltitudeMeters>523.79998779296875</AltitudeMeters>
            <DistanceMeters>21808.309712796</DistanceMeters>
          </Trackpoint>
          <Trackpoint>
            <Time>2019-07-26T09:46:27.000Z</Time>
            <Position>
              <LatitudeDegrees>42.95070069842040538787841796875</LatitudeDegrees>
              <LongitudeDegrees>-7.76824082247912883758544921875</LongitudeDegrees>
            </Position>
            <AltitudeMeters>521.79998779296875</AltitudeMeters>
            <DistanceMeters>21815.744908018</DistanceMeters>
          </Trackpoint>
          <Trackpoint>
            <Time>2019-07-26T09:46:28.000Z</Time>
            <Position>
              <LatitudeDegrees>42.95064168982207775115966796875</LatitudeDegrees>
              <LongitudeDegrees>-7.76825071312487125396728515625</LongitudeDegrees>
            </Position>
            <AltitudeMeters>520.20001220703125</AltitudeMeters>
            <DistanceMeters>21822.361388245</DistanceMeters>
          </Trackpoint>
          <Trackpoint>
            <Time>2019-07-26T09:46:29.000Z</Time>
            <Position>
              <LatitudeDegrees>42.9506144486367702484130859375</LatitudeDegrees>
              <LongitudeDegrees>-7.76828549802303314208984375</LongitudeDegrees>
            </Position>
            <AltitudeMeters>519</AltitudeMeters>
            <DistanceMeters>21826.511129897</DistanceMeters>
          </Trackpoint>
          <Trackpoint>
            <Time>2019-07-26T09:46:31.000Z</Time>
            <Position>
              <LatitudeDegrees>42.9505986906588077545166015625</LatitudeDegrees>
              <LongitudeDegrees>-7.76841365732252597808837890625</LongitudeDegrees>
            </Position>
            <AltitudeMeters>517.4000244140625</AltitudeMeters>
            <DistanceMeters>21837.098828844</DistanceMeters>
          </Trackpoint>
          <Trackpoint>
            <Time>2019-07-26T09:46:32.000Z</Time>
            <Position>
              <LatitudeDegrees>42.95060698874294757843017578125</LatitudeDegrees>
              <LongitudeDegrees>-7.76849999092519283294677734375</LongitudeDegrees>
            </Position>
            <AltitudeMeters>516.79998779296875</AltitudeMeters>
            <DistanceMeters>21844.192813339</DistanceMeters>
          </Trackpoint>
          <Trackpoint>
            <Time>2019-07-26T09:46:33.000Z</Time>
            <Position>
              <LatitudeDegrees>42.95061570592224597930908203125</LatitudeDegrees>
              <LongitudeDegrees>-7.76859638281166553497314453125</LongitudeDegrees>
            </Position>
            <AltitudeMeters>516.20001220703125</AltitudeMeters>
            <DistanceMeters>21852.105178345</DistanceMeters>
          </Trackpoint>
          <Trackpoint>
            <Time>2019-07-26T09:46:36.000Z</Time>
            <Position>
              <LatitudeDegrees>42.950654514133930206298828125</LatitudeDegrees>
              <LongitudeDegrees>-7.76892377994954586029052734375</LongitudeDegrees>
            </Position>
            <AltitudeMeters>514.5999755859375</AltitudeMeters>
            <DistanceMeters>21879.124533633</DistanceMeters>
          </Trackpoint>
          <Trackpoint>
            <Time>2019-07-26T09:46:37.000Z</Time>
            <Position>
              <LatitudeDegrees>42.95067890547215938568115234375</LatitudeDegrees>
              <LongitudeDegrees>-7.7690329961478710174560546875</LongitudeDegrees>
            </Position>
            <AltitudeMeters>514</AltitudeMeters>
            <DistanceMeters>21888.427449984</DistanceMeters>
          </Trackpoint>
          <Trackpoint>
            <Time>2019-07-26T09:46:38.000Z</Time>
            <Position>
              <LatitudeDegrees>42.950702793896198272705078125</LatitudeDegrees>
              <LongitudeDegrees>-7.76914179325103759765625</LongitudeDegrees>
            </Position>
            <AltitudeMeters>513.20001220703125</AltitudeMeters>
            <DistanceMeters>21897.680729665</DistanceMeters>
          </Trackpoint>
          <Trackpoint>
            <Time>2019-07-26T09:46:40.000Z</Time>
            <Position>
              <LatitudeDegrees>42.9507507383823394775390625</LatitudeDegrees>
              <LongitudeDegrees>-7.76934874244034290313720703125</LongitudeDegrees>
            </Position>
            <AltitudeMeters>511.79998779296875</AltitudeMeters>
            <DistanceMeters>21915.364381642</DistanceMeters>
          </Trackpoint>
          <Trackpoint>
            <Time>2019-07-26T09:46:41.000Z</Time>
            <Position>
              <LatitudeDegrees>42.9507690109312534332275390625</LatitudeDegrees>
              <LongitudeDegrees>-7.769447900354862213134765625</LongitudeDegrees>
            </Position>
            <AltitudeMeters>511.20001220703125</AltitudeMeters>
            <DistanceMeters>21923.694274042</DistanceMeters>
          </Trackpoint>
          <Trackpoint>
            <Time>2019-07-26T09:46:42.000Z</Time>
            <Position>
              <LatitudeDegrees>42.950782589614391326904296875</LatitudeDegrees>
              <LongitudeDegrees>-7.76954957284033298492431640625</LongitudeDegrees>
            </Position>
            <AltitudeMeters>510.399993896484375</AltitudeMeters>
            <DistanceMeters>21932.113662386</DistanceMeters>
          </Trackpoint>
          <Trackpoint>
            <Time>2019-07-26T09:46:44.000Z</Time>
            <Position>
              <LatitudeDegrees>42.950814776122570037841796875</LatitudeDegrees>
              <LongitudeDegrees>-7.7697397582232952117919921875</LongitudeDegrees>
            </Position>
            <AltitudeMeters>509</AltitudeMeters>
            <DistanceMeters>21948.016376648</DistanceMeters>
          </Trackpoint>
          <Trackpoint>
            <Time>2019-07-26T09:46:46.000Z</Time>
            <Position>
              <LatitudeDegrees>42.95085073448717594146728515625</LatitudeDegrees>
              <LongitudeDegrees>-7.76992030441761016845703125</LongitudeDegrees>
            </Position>
            <AltitudeMeters>508</AltitudeMeters>
            <DistanceMeters>21963.259799067</DistanceMeters>
          </Trackpoint>
          <Trackpoint>
            <Time>2019-07-26T09:46:47.000Z</Time>
            <Position>
              <LatitudeDegrees>42.9508705995976924896240234375</LatitudeDegrees>
              <LongitudeDegrees>-7.7700079791247844696044921875</LongitudeDegrees>
            </Position>
            <AltitudeMeters>507.399993896484375</AltitudeMeters>
            <DistanceMeters>21970.736173401</DistanceMeters>
          </Trackpoint>
          <Trackpoint>
            <Time>2019-07-26T09:46:49.000Z</Time>
            <Position>
              <LatitudeDegrees>42.950911335647106170654296875</LatitudeDegrees>
              <LongitudeDegrees>-7.77017536573112010955810546875</LongitudeDegrees>
            </Position>
            <AltitudeMeters>506.79998779296875</AltitudeMeters>
            <DistanceMeters>21985.106902272</DistanceMeters>
          </Trackpoint>
          <Trackpoint>
            <Time>2019-07-26T09:46:51.000Z</Time>
            <Position>
              <LatitudeDegrees>42.95094544999301433563232421875</LatitudeDegrees>
              <LongitudeDegrees>-7.77033009566366672515869140625</LongitudeDegrees>
            </Position>
            <AltitudeMeters>506.20001220703125</AltitudeMeters>
            <DistanceMeters>21998.271446591</DistanceMeters>
          </Trackpoint>
          <Trackpoint>
            <Time>2019-07-26T09:46:53.000Z</Time>
            <Position>
              <LatitudeDegrees>42.95096791349351406097412109375</LatitudeDegrees>
              <LongitudeDegrees>-7.77047527022659778594970703125</LongitudeDegrees>
            </Position>
            <AltitudeMeters>506</AltitudeMeters>
            <DistanceMeters>22010.360024964</DistanceMeters>
          </Trackpoint>
          <Trackpoint>
            <Time>2019-07-26T09:46:55.000Z</Time>
            <Position>
              <LatitudeDegrees>42.95097981579601764678955078125</LatitudeDegrees>
              <LongitudeDegrees>-7.7706081233918666839599609375</LongitudeDegrees>
            </Position>
            <AltitudeMeters>506.20001220703125</AltitudeMeters>
            <DistanceMeters>22021.26369345</DistanceMeters>
          </Trackpoint>
          <Trackpoint>
            <Time>2019-07-26T09:46:58.000Z</Time>
            <Position>
              <LatitudeDegrees>42.95099222101271152496337890625</LatitudeDegrees>
              <LongitudeDegrees>-7.7707631886005401611328125</LongitudeDegrees>
            </Position>
            <AltitudeMeters>506</AltitudeMeters>
            <DistanceMeters>22033.971362672</DistanceMeters>
          </Trackpoint>
          <Trackpoint>
            <Time>2019-07-26T09:47:00.000Z</Time>
            <Position>
              <LatitudeDegrees>42.95099305920302867889404296875</LatitudeDegrees>
              <LongitudeDegrees>-7.770839296281337738037109375</LongitudeDegrees>
            </Position>
            <AltitudeMeters>506</AltitudeMeters>
            <DistanceMeters>22040.172174353</DistanceMeters>
          </Trackpoint>
          <Trackpoint>
            <Time>2019-07-26T09:47:02.000Z</Time>
            <Position>
              <LatitudeDegrees>42.9509963281452655792236328125</LatitudeDegrees>
              <LongitudeDegrees>-7.7709058485925197601318359375</LongitudeDegrees>
            </Position>
            <AltitudeMeters>506</AltitudeMeters>
            <DistanceMeters>22045.606173798</DistanceMeters>
          </Trackpoint>
          <Trackpoint>
            <Time>2019-07-26T09:47:04.000Z</Time>
            <Position>
              <LatitudeDegrees>42.9510000161826610565185546875</LatitudeDegrees>
              <LongitudeDegrees>-7.770972065627574920654296875</LongitudeDegrees>
            </Position>
            <AltitudeMeters>506.399993896484375</AltitudeMeters>
            <DistanceMeters>22051.015189206</DistanceMeters>
          </Trackpoint>
          <Trackpoint>
            <Time>2019-07-26T09:47:06.000Z</Time>
            <Position>
              <LatitudeDegrees>42.95100026763975620269775390625</LatitudeDegrees>
              <LongitudeDegrees>-7.7710369415581226348876953125</LongitudeDegrees>
            </Position>
            <AltitudeMeters>506.79998779296875</AltitudeMeters>
            <DistanceMeters>22056.299221413</DistanceMeters>
          </Trackpoint>
          <Trackpoint>
            <Time>2019-07-26T09:47:08.000Z</Time>
            <Position>
              <LatitudeDegrees>42.95100127346813678741455078125</LatitudeDegrees>
              <LongitudeDegrees>-7.77109469287097454071044921875</LongitudeDegrees>
            </Position>
            <AltitudeMeters>507.399993896484375</AltitudeMeters>
            <DistanceMeters>22061.004723239</DistanceMeters>
          </Trackpoint>
          <Trackpoint>
            <Time>2019-07-26T09:47:09.000Z</Time>
            <Position>
              <LatitudeDegrees>42.95100227929651737213134765625</LatitudeDegrees>
              <LongitudeDegrees>-7.7711241133511066436767578125</LongitudeDegrees>
            </Position>
            <AltitudeMeters>507.600006103515625</AltitudeMeters>
            <DistanceMeters>22063.404970887</DistanceMeters>
          </Trackpoint>
          <Trackpoint>
            <Time>2019-07-26T09:47:12.000Z</Time>
            <Position>
              <LatitudeDegrees>42.95100781135261058807373046875</LatitudeDegrees>
              <LongitudeDegrees>-7.77121254242956638336181640625</LongitudeDegrees>
            </Position>
            <AltitudeMeters>508.399993896484375</AltitudeMeters>
            <DistanceMeters>22070.635123896</DistanceMeters>
          </Trackpoint>
          <Trackpoint>
            <Time>2019-07-26T09:47:13.000Z</Time>
            <Position>
              <LatitudeDegrees>42.95101166702806949615478515625</LatitudeDegrees>
              <LongitudeDegrees>-7.77124171145260334014892578125</LongitudeDegrees>
            </Position>
            <AltitudeMeters>508.600006103515625</AltitudeMeters>
            <DistanceMeters>22073.050373238</DistanceMeters>
          </Trackpoint>
          <Trackpoint>
            <Time>2019-07-26T09:47:16.000Z</Time>
            <Position>
              <LatitudeDegrees>42.95102356933057308197021484375</LatitudeDegrees>
              <LongitudeDegrees>-7.7713380195200443267822265625</LongitudeDegrees>
            </Position>
            <AltitudeMeters>509.79998779296875</AltitudeMeters>
            <DistanceMeters>22081.007122948</DistanceMeters>
          </Trackpoint>
          <Trackpoint>
            <Time>2019-07-26T09:47:20.000Z</Time>
            <Position>
              <LatitudeDegrees>42.95102491043508052825927734375</LatitudeDegrees>
              <LongitudeDegrees>-7.77146047912538051605224609375</LongitudeDegrees>
            </Position>
            <AltitudeMeters>511</AltitudeMeters>
            <DistanceMeters>22090.984475438</DistanceMeters>
          </Trackpoint>
          <Trackpoint>
            <Time>2019-07-26T09:47:25.000Z</Time>
            <Position>
              <LatitudeDegrees>42.9510275088250637054443359375</LatitudeDegrees>
              <LongitudeDegrees>-7.77160942554473876953125</LongitudeDegrees>
            </Position>
            <AltitudeMeters>512.20001220703125</AltitudeMeters>
            <DistanceMeters>22103.121883197</DistanceMeters>
          </Trackpoint>
          <Trackpoint>
            <Time>2019-07-26T09:47:28.000Z</Time>
            <Position>
              <LatitudeDegrees>42.95103304088115692138671875</LatitudeDegrees>
              <LongitudeDegrees>-7.77171344496309757232666015625</LongitudeDegrees>
            </Position>
            <AltitudeMeters>513</AltitudeMeters>
            <DistanceMeters>22111.618674425</DistanceMeters>
          </Trackpoint>
          <Trackpoint>
            <Time>2019-07-26T09:47:29.000Z</Time>
            <Position>
              <LatitudeDegrees>42.9510348848998546600341796875</LatitudeDegrees>
              <LongitudeDegrees>-7.77175585739314556121826171875</LongitudeDegrees>
            </Position>
            <AltitudeMeters>513.4000244140625</AltitudeMeters>
            <DistanceMeters>22115.079004086</DistanceMeters>
          </Trackpoint>
          <Trackpoint>
            <Time>2019-07-26T09:47:34.000Z</Time>
            <Position>
              <LatitudeDegrees>42.9510457813739776611328125</LatitudeDegrees>
              <LongitudeDegrees>-7.77197889983654022216796875</LongitudeDegrees>
            </Position>
            <AltitudeMeters>514.20001220703125</AltitudeMeters>
            <DistanceMeters>22133.289951</DistanceMeters>
          </Trackpoint>
          <Trackpoint>
            <Time>2019-07-26T09:47:35.000Z</Time>
            <Position>
              <LatitudeDegrees>42.9510442726314067840576171875</LatitudeDegrees>
              <LongitudeDegrees>-7.772020138800144195556640625</LongitudeDegrees>
            </Position>
            <AltitudeMeters>514.4000244140625</AltitudeMeters>
            <DistanceMeters>22136.653681932</DistanceMeters>
          </Trackpoint>
          <Trackpoint>
            <Time>2019-07-26T09:47:40.000Z</Time>
            <Position>
              <LatitudeDegrees>42.95103664509952068328857421875</LatitudeDegrees>
              <LongitudeDegrees>-7.7722187899053096771240234375</LongitudeDegrees>
            </Position>
            <AltitudeMeters>514.5999755859375</AltitudeMeters>
            <DistanceMeters>22152.859289394</DistanceMeters>
          </Trackpoint>
          <Trackpoint>
            <Time>2019-07-26T09:47:42.000Z</Time>
            <Position>
              <LatitudeDegrees>42.95104268006980419158935546875</LatitudeDegrees>
              <LongitudeDegrees>-7.77228944934904575347900390625</LongitudeDegrees>
            </Position>
            <AltitudeMeters>515</AltitudeMeters>
            <DistanceMeters>22158.655140011</DistanceMeters>
          </Trackpoint>
          <Trackpoint>
            <Time>2019-07-26T09:47:48.000Z</Time>
            <Position>
              <LatitudeDegrees>42.9510496370494365692138671875</LatitudeDegrees>
              <LongitudeDegrees>-7.772519029676914215087890625</LongitudeDegrees>
            </Position>
            <AltitudeMeters>515.4000244140625</AltitudeMeters>
            <DistanceMeters>22177.374437979</DistanceMeters>
          </Trackpoint>
          <Trackpoint>
            <Time>2019-07-26T09:47:49.000Z</Time>
            <Position>
              <LatitudeDegrees>42.95104871504008769989013671875</LatitudeDegrees>
              <LongitudeDegrees>-7.77256437577307224273681640625</LongitudeDegrees>
            </Position>
            <AltitudeMeters>515.4000244140625</AltitudeMeters>
            <DistanceMeters>22181.06949895</DistanceMeters>
          </Trackpoint>
          <Trackpoint>
            <Time>2019-07-26T09:47:56.000Z</Time>
            <Position>
              <LatitudeDegrees>42.95102809555828571319580078125</LatitudeDegrees>
              <LongitudeDegrees>-7.772844918072223663330078125</LongitudeDegrees>
            </Position>
            <AltitudeMeters>516.20001220703125</AltitudeMeters>
            <DistanceMeters>22204.039050021</DistanceMeters>
          </Trackpoint>
          <Trackpoint>
            <Time>2019-07-26T09:47:59.000Z</Time>
            <Position>
              <LatitudeDegrees>42.9510288499295711517333984375</LatitudeDegrees>
              <LongitudeDegrees>-7.772957570850849151611328125</LongitudeDegrees>
            </Position>
            <AltitudeMeters>516.4000244140625</AltitudeMeters>
            <DistanceMeters>22213.216879452</DistanceMeters>
          </Trackpoint>
          <Trackpoint>
            <Time>2019-07-26T09:48:04.000Z</Time>
            <Position>
              <LatitudeDegrees>42.951020635664463043212890625</LatitudeDegrees>
              <LongitudeDegrees>-7.773149348795413970947265625</LongitudeDegrees>
            </Position>
            <AltitudeMeters>517</AltitudeMeters>
            <DistanceMeters>22228.867176365</DistanceMeters>
          </Trackpoint>
          <Trackpoint>
            <Time>2019-07-26T09:48:07.000Z</Time>
            <Position>
              <LatitudeDegrees>42.95100227929651737213134765625</LatitudeDegrees>
              <LongitudeDegrees>-7.77325655333697795867919921875</LongitudeDegrees>
            </Position>
            <AltitudeMeters>517.4000244140625</AltitudeMeters>
            <DistanceMeters>22237.836006889</DistanceMeters>
          </Trackpoint>
          <Trackpoint>
            <Time>2019-07-26T09:48:11.000Z</Time>
            <Position>
              <LatitudeDegrees>42.9509463720023632049560546875</LatitudeDegrees>
              <LongitudeDegrees>-7.7733852155506610870361328125</LongitudeDegrees>
            </Position>
            <AltitudeMeters>518.4000244140625</AltitudeMeters>
            <DistanceMeters>22250.025382501</DistanceMeters>
          </Trackpoint>
          <Trackpoint>
            <Time>2019-07-26T09:48:12.000Z</Time>
            <Position>
              <LatitudeDegrees>42.95092843472957611083984375</LatitudeDegrees>
              <LongitudeDegrees>-7.77341648004949092864990234375</LongitudeDegrees>
            </Position>
            <AltitudeMeters>518.5999755859375</AltitudeMeters>
            <DistanceMeters>22253.260480428</DistanceMeters>
          </Trackpoint>
          <Trackpoint>
            <Time>2019-07-26T09:48:16.000Z</Time>
            <Position>
              <LatitudeDegrees>42.95086406171321868896484375</LatitudeDegrees>
              <LongitudeDegrees>-7.773544304072856903076171875</LongitudeDegrees>
            </Position>
            <AltitudeMeters>519.5999755859375</AltitudeMeters>
            <DistanceMeters>22265.900105124</DistanceMeters>
          </Trackpoint>
          <Trackpoint>
            <Time>2019-07-26T09:48:18.000Z</Time>
            <Position>
              <LatitudeDegrees>42.95083363540470600128173828125</LatitudeDegrees>
              <LongitudeDegrees>-7.7736091800034046173095703125</LongitudeDegrees>
            </Position>
            <AltitudeMeters>520</AltitudeMeters>
            <DistanceMeters>22272.176186182</DistanceMeters>
          </Trackpoint>
          <Trackpoint>
            <Time>2019-07-26T09:48:21.000Z</Time>
            <Position>
              <LatitudeDegrees>42.95080781914293766021728515625</LatitudeDegrees>
              <LongitudeDegrees>-7.77372024022042751312255859375</LongitudeDegrees>
            </Position>
            <AltitudeMeters>520.79998779296875</AltitudeMeters>
            <DistanceMeters>22281.669350191</DistanceMeters>
          </Trackpoint>
          <Trackpoint>
            <Time>2019-07-26T09:48:23.000Z</Time>
            <Position>
              <LatitudeDegrees>42.95082089491188526153564453125</LatitudeDegrees>
              <LongitudeDegrees>-7.77382032014429569244384765625</LongitudeDegrees>
            </Position>
            <AltitudeMeters>521.20001220703125</AltitudeMeters>
            <DistanceMeters>22289.951951881</DistanceMeters>
          </Trackpoint>
          <Trackpoint>
            <Time>2019-07-26T09:48:26.000Z</Time>
            <Position>
              <LatitudeDegrees>42.95094595290720462799072265625</LatitudeDegrees>
              <LongitudeDegrees>-7.77394495904445648193359375</LongitudeDegrees>
            </Position>
            <AltitudeMeters>521.20001220703125</AltitudeMeters>
            <DistanceMeters>22307.181424682</DistanceMeters>
          </Trackpoint>
          <Trackpoint>
            <Time>2019-07-26T09:48:28.000Z</Time>
            <Position>
              <LatitudeDegrees>42.95108308084309101104736328125</LatitudeDegrees>
              <LongitudeDegrees>-7.77400472201406955718994140625</LongitudeDegrees>
            </Position>
            <AltitudeMeters>521.20001220703125</AltitudeMeters>
            <DistanceMeters>22323.201812714</DistanceMeters>
          </Trackpoint>
          <Trackpoint>
            <Time>2019-07-26T09:48:30.000Z</Time>
            <Position>
              <LatitudeDegrees>42.9512484557926654815673828125</LatitudeDegrees>
              <LongitudeDegrees>-7.77406976558268070220947265625</LongitudeDegrees>
            </Position>
            <AltitudeMeters>521.20001220703125</AltitudeMeters>
            <DistanceMeters>22342.355766503</DistanceMeters>
          </Trackpoint>
          <Trackpoint>
            <Time>2019-07-26T09:48:32.000Z</Time>
            <Position>
              <LatitudeDegrees>42.95141818933188915252685546875</LatitudeDegrees>
              <LongitudeDegrees>-7.77413363568484783172607421875</LongitudeDegrees>
            </Position>
            <AltitudeMeters>520.79998779296875</AltitudeMeters>
            <DistanceMeters>22361.950864882</DistanceMeters>
          </Trackpoint>
          <Trackpoint>
            <Time>2019-07-26T09:48:34.000Z</Time>
            <Position>
              <LatitudeDegrees>42.95159052126109600067138671875</LatitudeDegrees>
              <LongitudeDegrees>-7.774198763072490692138671875</LongitudeDegrees>
            </Position>
            <AltitudeMeters>520.5999755859375</AltitudeMeters>
            <DistanceMeters>22381.85209984</DistanceMeters>
          </Trackpoint>
          <Trackpoint>
            <Time>2019-07-26T09:48:36.000Z</Time>
            <Position>
              <LatitudeDegrees>42.95174994505941867828369140625</LatitudeDegrees>
              <LongitudeDegrees>-7.774272523820400238037109375</LongitudeDegrees>
            </Position>
            <AltitudeMeters>519.79998779296875</AltitudeMeters>
            <DistanceMeters>22400.586587055</DistanceMeters>
          </Trackpoint>
          <Trackpoint>
            <Time>2019-07-26T09:48:37.000Z</Time>
            <Position>
              <LatitudeDegrees>42.9518140666186809539794921875</LatitudeDegrees>
              <LongitudeDegrees>-7.77430973947048187255859375</LongitudeDegrees>
            </Position>
            <AltitudeMeters>518.5999755859375</AltitudeMeters>
            <DistanceMeters>22408.341023143</DistanceMeters>
          </Trackpoint>
          <Trackpoint>
            <Time>2019-07-26T09:48:39.000Z</Time>
            <Position>
              <LatitudeDegrees>42.9519317485392093658447265625</LatitudeDegrees>
              <LongitudeDegrees>-7.77438945136964321136474609375</LongitudeDegrees>
            </Position>
            <AltitudeMeters>516.79998779296875</AltitudeMeters>
            <DistanceMeters>22422.960937966</DistanceMeters>
          </Trackpoint>
          <Trackpoint>
            <Time>2019-07-26T09:48:40.000Z</Time>
            <Position>
              <LatitudeDegrees>42.95198765583336353302001953125</LatitudeDegrees>
              <LongitudeDegrees>-7.77443421073257923126220703125</LongitudeDegrees>
            </Position>
            <AltitudeMeters>515.79998779296875</AltitudeMeters>
            <DistanceMeters>22430.173584525</DistanceMeters>
          </Trackpoint>
          <Trackpoint>
            <Time>2019-07-26T09:48:41.000Z</Time>
            <Position>
              <LatitudeDegrees>42.95203509740531444549560546875</LatitudeDegrees>
              <LongitudeDegrees>-7.774485759437084197998046875</LongitudeDegrees>
            </Position>
            <AltitudeMeters>514.79998779296875</AltitudeMeters>
            <DistanceMeters>22436.91981201</DistanceMeters>
          </Trackpoint>
          <Trackpoint>
            <Time>2019-07-26T09:48:42.000Z</Time>
            <Position>
              <LatitudeDegrees>42.9520745761692523956298828125</LatitudeDegrees>
              <LongitudeDegrees>-7.774550803005695343017578125</LongitudeDegrees>
            </Position>
            <AltitudeMeters>514</AltitudeMeters>
            <DistanceMeters>22443.803184084</DistanceMeters>
          </Trackpoint>
          <Trackpoint>
            <Time>2019-07-26T09:48:44.000Z</Time>
            <Position>
              <LatitudeDegrees>42.95211707241833209991455078125</LatitudeDegrees>
              <LongitudeDegrees>-7.77471936307847499847412109375</LongitudeDegrees>
            </Position>
            <AltitudeMeters>512.4000244140625</AltitudeMeters>
            <DistanceMeters>22458.327046715</DistanceMeters>
          </Trackpoint>
          <Trackpoint>
            <Time>2019-07-26T09:48:45.000Z</Time>
            <Position>
              <LatitudeDegrees>42.95211975462734699249267578125</LatitudeDegrees>
              <LongitudeDegrees>-7.77480787597596645355224609375</LongitudeDegrees>
            </Position>
            <AltitudeMeters>511.399993896484375</AltitudeMeters>
            <DistanceMeters>22465.54469945</DistanceMeters>
          </Trackpoint>
          <Trackpoint>
            <Time>2019-07-26T09:48:46.000Z</Time>
            <Position>
              <LatitudeDegrees>42.95211841352283954620361328125</LatitudeDegrees>
              <LongitudeDegrees>-7.77489203028380870819091796875</LongitudeDegrees>
            </Position>
            <AltitudeMeters>510.600006103515625</AltitudeMeters>
            <DistanceMeters>22472.401783965</DistanceMeters>
          </Trackpoint>
          <Trackpoint>
            <Time>2019-07-26T09:48:48.000Z</Time>
            <Position>
              <LatitudeDegrees>42.952112294733524322509765625</LatitudeDegrees>
              <LongitudeDegrees>-7.77505044825375080108642578125</LongitudeDegrees>
            </Position>
            <AltitudeMeters>509</AltitudeMeters>
            <DistanceMeters>22485.324718374</DistanceMeters>
          </Trackpoint>
          <Trackpoint>
            <Time>2019-07-26T09:48:49.000Z</Time>
            <Position>
              <LatitudeDegrees>42.9521101154386997222900390625</LatitudeDegrees>
              <LongitudeDegrees>-7.775123454630374908447265625</LongitudeDegrees>
            </Position>
            <AltitudeMeters>508.20001220703125</AltitudeMeters>
            <DistanceMeters>22491.276607981</DistanceMeters>
          </Trackpoint>
          <Trackpoint>
            <Time>2019-07-26T09:48:50.000Z</Time>
            <Position>
              <LatitudeDegrees>42.95210215263068675994873046875</LatitudeDegrees>
              <LongitudeDegrees>-7.77519461698830127716064453125</LongitudeDegrees>
            </Position>
            <AltitudeMeters>507.600006103515625</AltitudeMeters>
            <DistanceMeters>22497.141380882</DistanceMeters>
          </Trackpoint>
          <Trackpoint>
            <Time>2019-07-26T09:48:51.000Z</Time>
            <Position>
              <LatitudeDegrees>42.95209678821265697479248046875</LatitudeDegrees>
              <LongitudeDegrees>-7.77525982819497585296630859375</LongitudeDegrees>
            </Position>
            <AltitudeMeters>506.79998779296875</AltitudeMeters>
            <DistanceMeters>22502.488269886</DistanceMeters>
          </Trackpoint>
          <Trackpoint>
            <Time>2019-07-26T09:48:52.000Z</Time>
            <Position>
              <LatitudeDegrees>42.95208991505205631256103515625</LatitudeDegrees>
              <LongitudeDegrees>-7.77532135136425495147705078125</LongitudeDegrees>
            </Position>
            <AltitudeMeters>506.399993896484375</AltitudeMeters>
            <DistanceMeters>22507.557746936</DistanceMeters>
          </Trackpoint>
          <Trackpoint>
            <Time>2019-07-26T09:48:54.000Z</Time>
            <Position>
              <LatitudeDegrees>42.95208572410047054290771484375</LatitudeDegrees>
              <LongitudeDegrees>-7.7754357643425464630126953125</LongitudeDegrees>
            </Position>
            <AltitudeMeters>506.20001220703125</AltitudeMeters>
            <DistanceMeters>22516.889738</DistanceMeters>
          </Trackpoint>
          <Trackpoint>
            <Time>2019-07-26T09:48:55.000Z</Time>
            <Position>
              <LatitudeDegrees>42.95209595002233982086181640625</LatitudeDegrees>
              <LongitudeDegrees>-7.77548781596124172210693359375</LongitudeDegrees>
            </Position>
            <AltitudeMeters>506</AltitudeMeters>
            <DistanceMeters>22521.280548086</DistanceMeters>
          </Trackpoint>
          <Trackpoint>
            <Time>2019-07-26T09:48:56.000Z</Time>
            <Position>
              <LatitudeDegrees>42.95211304910480976104736328125</LatitudeDegrees>
              <LongitudeDegrees>-7.77553861029446125030517578125</LongitudeDegrees>
            </Position>
            <AltitudeMeters>506</AltitudeMeters>
            <DistanceMeters>22525.835887334</DistanceMeters>
          </Trackpoint>
          <Trackpoint>
            <Time>2019-07-26T09:48:58.000Z</Time>
            <Position>
              <LatitudeDegrees>42.95214942656457424163818359375</LatitudeDegrees>
              <LongitudeDegrees>-7.77563684619963169097900390625</LongitudeDegrees>
            </Position>
            <AltitudeMeters>506</AltitudeMeters>
            <DistanceMeters>22534.804214429</DistanceMeters>
          </Trackpoint>
          <Trackpoint>
            <Time>2019-07-26T09:49:00.000Z</Time>
            <Position>
              <LatitudeDegrees>42.95219267718493938446044921875</LatitudeDegrees>
              <LongitudeDegrees>-7.77572854422032833099365234375</LongitudeDegrees>
            </Position>
            <AltitudeMeters>506</AltitudeMeters>
            <DistanceMeters>22543.691117634</DistanceMeters>
          </Trackpoint>
          <Trackpoint>
            <Time>2019-07-26T09:49:04.000Z</Time>
            <Position>
              <LatitudeDegrees>42.9522613249719142913818359375</LatitudeDegrees>
              <LongitudeDegrees>-7.77591998688876628875732421875</LongitudeDegrees>
            </Position>
            <AltitudeMeters>506.600006103515625</AltitudeMeters>
            <DistanceMeters>22561.058143382</DistanceMeters>
          </Trackpoint>
          <Trackpoint>
            <Time>2019-07-26T09:49:07.000Z</Time>
            <Position>
              <LatitudeDegrees>42.9522795975208282470703125</LatitudeDegrees>
              <LongitudeDegrees>-7.776048146188259124755859375</LongitudeDegrees>
            </Position>
            <AltitudeMeters>507</AltitudeMeters>
            <DistanceMeters>22571.695194563</DistanceMeters>
          </Trackpoint>
          <Trackpoint>
            <Time>2019-07-26T09:49:09.000Z</Time>
            <Position>
              <LatitudeDegrees>42.95227582566440105438232421875</LatitudeDegrees>
              <LongitudeDegrees>-7.7761294506490230560302734375</LongitudeDegrees>
            </Position>
            <AltitudeMeters>507.20001220703125</AltitudeMeters>
            <DistanceMeters>22578.331434675</DistanceMeters>
          </Trackpoint>
          <Trackpoint>
            <Time>2019-07-26T09:49:10.000Z</Time>
            <Position>
              <LatitudeDegrees>42.952275909483432769775390625</LatitudeDegrees>
              <LongitudeDegrees>-7.77616021223366260528564453125</LongitudeDegrees>
            </Position>
            <AltitudeMeters>507.399993896484375</AltitudeMeters>
            <DistanceMeters>22580.836609944</DistanceMeters>
          </Trackpoint>
          <Trackpoint>
            <Time>2019-07-26T09:49:14.000Z</Time>
            <Position>
              <LatitudeDegrees>42.952306754887104034423828125</LatitudeDegrees>
              <LongitudeDegrees>-7.77627588249742984771728515625</LongitudeDegrees>
            </Position>
            <AltitudeMeters>508.20001220703125</AltitudeMeters>
            <DistanceMeters>22590.86541802</DistanceMeters>
          </Trackpoint>
          <Trackpoint>
            <Time>2019-07-26T09:49:16.000Z</Time>
            <Position>
              <LatitudeDegrees>42.95231589116156101226806640625</LatitudeDegrees>
              <LongitudeDegrees>-7.7763363160192966461181640625</LongitudeDegrees>
            </Position>
            <AltitudeMeters>508.79998779296875</AltitudeMeters>
            <DistanceMeters>22595.891962946</DistanceMeters>
          </Trackpoint>
          <Trackpoint>
            <Time>2019-07-26T09:49:19.000Z</Time>
            <Position>
              <LatitudeDegrees>42.95230977237224578857421875</LatitudeDegrees>
              <LongitudeDegrees>-7.77642977423965930938720703125</LongitudeDegrees>
            </Position>
            <AltitudeMeters>509.600006103515625</AltitudeMeters>
            <DistanceMeters>22603.535561221</DistanceMeters>
          </Trackpoint>
          <Trackpoint>
            <Time>2019-07-26T09:49:20.000Z</Time>
            <Position>
              <LatitudeDegrees>42.95230465941131114959716796875</LatitudeDegrees>
              <LongitudeDegrees>-7.77645525522530078887939453125</LongitudeDegrees>
            </Position>
            <AltitudeMeters>509.79998779296875</AltitudeMeters>
            <DistanceMeters>22605.687869102</DistanceMeters>
          </Trackpoint>
          <Trackpoint>
            <Time>2019-07-26T09:49:24.000Z</Time>
            <Position>
              <LatitudeDegrees>42.9523116163909435272216796875</LatitudeDegrees>
              <LongitudeDegrees>-7.77656539343297481536865234375</LongitudeDegrees>
            </Position>
            <AltitudeMeters>510.79998779296875</AltitudeMeters>
            <DistanceMeters>22614.693875244</DistanceMeters>
          </Trackpoint>
          <Trackpoint>
            <Time>2019-07-26T09:49:25.000Z</Time>
            <Position>
              <LatitudeDegrees>42.952313460409641265869140625</LatitudeDegrees>
              <LongitudeDegrees>-7.7765948139131069183349609375</LongitudeDegrees>
            </Position>
            <AltitudeMeters>511</AltitudeMeters>
            <DistanceMeters>22617.097882092</DistanceMeters>
          </Trackpoint>
          <Trackpoint>
            <Time>2019-07-26T09:49:26.000Z</Time>
            <Position>
              <LatitudeDegrees>42.952314801514148712158203125</LatitudeDegrees>
              <LongitudeDegrees>-7.7766239829361438751220703125</LongitudeDegrees>
            </Position>
            <AltitudeMeters>511.20001220703125</AltitudeMeters>
            <DistanceMeters>22619.479244728</DistanceMeters>
          </Trackpoint>
          <Trackpoint>
            <Time>2019-07-26T09:49:29.000Z</Time>
            <Position>
              <LatitudeDegrees>42.952317483723163604736328125</LatitudeDegrees>
              <LongitudeDegrees>-7.77671542949974536895751953125</LongitudeDegrees>
            </Position>
            <AltitudeMeters>512</AltitudeMeters>
            <DistanceMeters>22626.935057936</DistanceMeters>
          </Trackpoint>
          <Trackpoint>
            <Time>2019-07-26T09:49:32.000Z</Time>
            <Position>
              <LatitudeDegrees>42.9523297213017940521240234375</LatitudeDegrees>
              <LongitudeDegrees>-7.77680595405399799346923828125</LongitudeDegrees>
            </Position>
            <AltitudeMeters>513</AltitudeMeters>
            <DistanceMeters>22634.43494768</DistanceMeters>
          </Trackpoint>
          <Trackpoint>
            <Time>2019-07-26T09:49:35.000Z</Time>
            <Position>
              <LatitudeDegrees>42.95236433856189250946044921875</LatitudeDegrees>
              <LongitudeDegrees>-7.77688792906701564788818359375</LongitudeDegrees>
            </Position>
            <AltitudeMeters>513.79998779296875</AltitudeMeters>
            <DistanceMeters>22642.145591188</DistanceMeters>
          </Trackpoint>
          <Trackpoint>
            <Time>2019-07-26T09:49:36.000Z</Time>
            <Position>
              <LatitudeDegrees>42.95238026417791843414306640625</LatitudeDegrees>
              <LongitudeDegrees>-7.77691106311976909637451171875</LongitudeDegrees>
            </Position>
            <AltitudeMeters>514.20001220703125</AltitudeMeters>
            <DistanceMeters>22644.730597294</DistanceMeters>
          </Trackpoint>
          <Trackpoint>
            <Time>2019-07-26T09:49:40.000Z</Time>
            <Position>
              <LatitudeDegrees>42.95242502354085445404052734375</LatitudeDegrees>
              <LongitudeDegrees>-7.7770269848406314849853515625</LongitudeDegrees>
            </Position>
            <AltitudeMeters>515.4000244140625</AltitudeMeters>
            <DistanceMeters>22655.407473477</DistanceMeters>
          </Trackpoint>
          <Trackpoint>
            <Time>2019-07-26T09:49:41.000Z</Time>
            <Position>
              <LatitudeDegrees>42.95243105851113796234130859375</LatitudeDegrees>
              <LongitudeDegrees>-7.77706143446266651153564453125</LongitudeDegrees>
            </Position>
            <AltitudeMeters>515.79998779296875</AltitudeMeters>
            <DistanceMeters>22658.29290767</DistanceMeters>
          </Trackpoint>
          <Trackpoint>
            <Time>2019-07-26T09:49:43.000Z</Time>
            <Position>
              <LatitudeDegrees>42.9524440504610538482666015625</LatitudeDegrees>
              <LongitudeDegrees>-7.777128405869007110595703125</LongitudeDegrees>
            </Position>
            <AltitudeMeters>516.5999755859375</AltitudeMeters>
            <DistanceMeters>22663.937206536</DistanceMeters>
          </Trackpoint>
          <Trackpoint>
            <Time>2019-07-26T09:49:49.000Z</Time>
            <Position>
              <LatitudeDegrees>42.95246542431414127349853515625</LatitudeDegrees>
              <LongitudeDegrees>-7.77733518742024898529052734375</LongitudeDegrees>
            </Position>
            <AltitudeMeters>517.5999755859375</AltitudeMeters>
            <DistanceMeters>22680.94937718</DistanceMeters>
          </Trackpoint>
          <Trackpoint>
            <Time>2019-07-26T09:49:50.000Z</Time>
            <Position>
              <LatitudeDegrees>42.9524671845138072967529296875</LatitudeDegrees>
              <LongitudeDegrees>-7.777370475232601165771484375</LongitudeDegrees>
            </Position>
            <AltitudeMeters>517.79998779296875</AltitudeMeters>
            <DistanceMeters>22683.828545494</DistanceMeters>
          </Trackpoint>
          <Trackpoint>
            <Time>2019-07-26T09:49:55.000Z</Time>
            <Position>
              <LatitudeDegrees>42.95247715897858142852783203125</LatitudeDegrees>
              <LongitudeDegrees>-7.77753719128668308258056640625</LongitudeDegrees>
            </Position>
            <AltitudeMeters>518.5999755859375</AltitudeMeters>
            <DistanceMeters>22697.454859443</DistanceMeters>
          </Trackpoint>
          <Trackpoint>
            <Time>2019-07-26T09:49:58.000Z</Time>
            <Position>
              <LatitudeDegrees>42.952471710741519927978515625</LatitudeDegrees>
              <LongitudeDegrees>-7.77763978578150272369384765625</LongitudeDegrees>
            </Position>
            <AltitudeMeters>519</AltitudeMeters>
            <DistanceMeters>22705.835008875</DistanceMeters>
          </Trackpoint>
          <Trackpoint>
            <Time>2019-07-26T09:50:01.000Z</Time>
            <Position>
              <LatitudeDegrees>42.95247330330312252044677734375</LatitudeDegrees>
              <LongitudeDegrees>-7.77773617766797542572021484375</LongitudeDegrees>
            </Position>
            <AltitudeMeters>519.79998779296875</AltitudeMeters>
            <DistanceMeters>22713.689528737</DistanceMeters>
          </Trackpoint>
          <Trackpoint>
            <Time>2019-07-26T09:50:05.000Z</Time>
            <Position>
              <LatitudeDegrees>42.95248554088175296783447265625</LatitudeDegrees>
              <LongitudeDegrees>-7.7778504230082035064697265625</LongitudeDegrees>
            </Position>
            <AltitudeMeters>520.5999755859375</AltitudeMeters>
            <DistanceMeters>22723.094773489</DistanceMeters>
          </Trackpoint>
          <Trackpoint>
            <Time>2019-07-26T09:50:07.000Z</Time>
            <Position>
              <LatitudeDegrees>42.95248704962432384490966796875</LatitudeDegrees>
              <LongitudeDegrees>-7.77791320346295833587646484375</LongitudeDegrees>
            </Position>
            <AltitudeMeters>521</AltitudeMeters>
            <DistanceMeters>22728.212118669</DistanceMeters>
          </Trackpoint>
          <Trackpoint>
            <Time>2019-07-26T09:50:12.000Z</Time>
            <Position>
              <LatitudeDegrees>42.95247598551213741302490234375</LatitudeDegrees>
              <LongitudeDegrees>-7.7780559472739696502685546875</LongitudeDegrees>
            </Position>
            <AltitudeMeters>522</AltitudeMeters>
            <DistanceMeters>22739.906197413</DistanceMeters>
          </Trackpoint>
          <Trackpoint>
            <Time>2019-07-26T09:50:13.000Z</Time>
            <Position>
              <LatitudeDegrees>42.9524727165699005126953125</LatitudeDegrees>
              <LongitudeDegrees>-7.77808754704892635345458984375</LongitudeDegrees>
            </Position>
            <AltitudeMeters>522</AltitudeMeters>
            <DistanceMeters>22742.508611164</DistanceMeters>
          </Trackpoint>
          <Trackpoint>
            <Time>2019-07-26T09:50:17.000Z</Time>
            <Position>
              <LatitudeDegrees>42.9524406976997852325439453125</LatitudeDegrees>
              <LongitudeDegrees>-7.77820908464491367340087890625</LongitudeDegrees>
            </Position>
            <AltitudeMeters>523.5999755859375</AltitudeMeters>
            <DistanceMeters>22753.031291305</DistanceMeters>
          </Trackpoint>
          <Trackpoint>
            <Time>2019-07-26T09:50:20.000Z</Time>
            <Position>
              <LatitudeDegrees>42.95242921449244022369384765625</LatitudeDegrees>
              <LongitudeDegrees>-7.77830681763589382171630859375</LongitudeDegrees>
            </Position>
            <AltitudeMeters>524.4000244140625</AltitudeMeters>
            <DistanceMeters>22761.0945754</DistanceMeters>
          </Trackpoint>
          <Trackpoint>
            <Time>2019-07-26T09:50:21.000Z</Time>
            <Position>
              <LatitudeDegrees>42.952423095703125</LatitudeDegrees>
              <LongitudeDegrees>-7.7783379144966602325439453125</LongitudeDegrees>
            </Position>
            <AltitudeMeters>524.79998779296875</AltitudeMeters>
            <DistanceMeters>22763.717725844</DistanceMeters>
          </Trackpoint>
          <Trackpoint>
            <Time>2019-07-26T09:50:25.000Z</Time>
            <Position>
              <LatitudeDegrees>42.95241169631481170654296875</LatitudeDegrees>
              <LongitudeDegrees>-7.7784529142081737518310546875</LongitudeDegrees>
            </Position>
            <AltitudeMeters>526</AltitudeMeters>
            <DistanceMeters>22773.17180944</DistanceMeters>
          </Trackpoint>
          <Trackpoint>
            <Time>2019-07-26T09:50:27.000Z</Time>
            <Position>
              <LatitudeDegrees>42.952395267784595489501953125</LatitudeDegrees>
              <LongitudeDegrees>-7.77850982733070850372314453125</LongitudeDegrees>
            </Position>
            <AltitudeMeters>526.79998779296875</AltitudeMeters>
            <DistanceMeters>22778.155052382</DistanceMeters>
          </Trackpoint>
          <Trackpoint>
            <Time>2019-07-26T09:50:28.000Z</Time>
            <Position>
              <LatitudeDegrees>42.95238663442432880401611328125</LatitudeDegrees>
              <LongitudeDegrees>-7.77853530831634998321533203125</LongitudeDegrees>
            </Position>
            <AltitudeMeters>527</AltitudeMeters>
            <DistanceMeters>22780.441624983</DistanceMeters>
          </Trackpoint>
          <Trackpoint>
            <Time>2019-07-26T09:50:33.000Z</Time>
            <Position>
              <LatitudeDegrees>42.95238219201564788818359375</LatitudeDegrees>
              <LongitudeDegrees>-7.77866221033036708831787109375</LongitudeDegrees>
            </Position>
            <AltitudeMeters>528</AltitudeMeters>
            <DistanceMeters>22790.791687633</DistanceMeters>
          </Trackpoint>
          <Trackpoint>
            <Time>2019-07-26T09:50:34.000Z</Time>
            <Position>
              <LatitudeDegrees>42.95237657614052295684814453125</LatitudeDegrees>
              <LongitudeDegrees>-7.778687439858913421630859375</LongitudeDegrees>
            </Position>
            <AltitudeMeters>528.20001220703125</AltitudeMeters>
            <DistanceMeters>22792.939795885</DistanceMeters>
          </Trackpoint>
          <Trackpoint>
            <Time>2019-07-26T09:50:38.000Z</Time>
            <Position>
              <LatitudeDegrees>42.952346317470073699951171875</LatitudeDegrees>
              <LongitudeDegrees>-7.77878140099346637725830078125</LongitudeDegrees>
            </Position>
            <AltitudeMeters>529.20001220703125</AltitudeMeters>
            <DistanceMeters>22801.30214675</DistanceMeters>
          </Trackpoint>
          <Trackpoint>
            <Time>2019-07-26T09:50:42.000Z</Time>
            <Position>
              <LatitudeDegrees>42.95232050120830535888671875</LatitudeDegrees>
              <LongitudeDegrees>-7.77887846343219280242919921875</LongitudeDegrees>
            </Position>
            <AltitudeMeters>530.4000244140625</AltitudeMeters>
            <DistanceMeters>22809.715097431</DistanceMeters>
          </Trackpoint>
          <Trackpoint>
            <Time>2019-07-26T09:50:46.000Z</Time>
            <Position>
              <LatitudeDegrees>42.9522868059575557708740234375</LatitudeDegrees>
              <LongitudeDegrees>-7.77896680869162082672119140625</LongitudeDegrees>
            </Position>
            <AltitudeMeters>531.4000244140625</AltitudeMeters>
            <DistanceMeters>22817.83084617</DistanceMeters>
          </Trackpoint>
          <Trackpoint>
            <Time>2019-07-26T09:50:50.000Z</Time>
            <Position>
              <LatitudeDegrees>42.95224330388009548187255859375</LatitudeDegrees>
              <LongitudeDegrees>-7.7790517173707485198974609375</LongitudeDegrees>
            </Position>
            <AltitudeMeters>532.4000244140625</AltitudeMeters>
            <DistanceMeters>22826.274866752</DistanceMeters>
          </Trackpoint>
          <Trackpoint>
            <Time>2019-07-26T09:50:52.000Z</Time>
            <Position>
              <LatitudeDegrees>42.95222260057926177978515625</LatitudeDegrees>
              <LongitudeDegrees>-7.7790999971330165863037109375</LongitudeDegrees>
            </Position>
            <AltitudeMeters>533</AltitudeMeters>
            <DistanceMeters>22830.834168889</DistanceMeters>
          </Trackpoint>
          <Trackpoint>
            <Time>2019-07-26T09:50:54.000Z</Time>
            <Position>
              <LatitudeDegrees>42.95219787396490573883056640625</LatitudeDegrees>
              <LongitudeDegrees>-7.7791395597159862518310546875</LongitudeDegrees>
            </Position>
            <AltitudeMeters>533.79998779296875</AltitudeMeters>
            <DistanceMeters>22835.072189895</DistanceMeters>
          </Trackpoint>
          <Trackpoint>
            <Time>2019-07-26T09:50:59.000Z</Time>
            <Position>
              <LatitudeDegrees>42.95214171521365642547607421875</LatitudeDegrees>
              <LongitudeDegrees>-7.779262103140354156494140625</LongitudeDegrees>
            </Position>
            <AltitudeMeters>535</AltitudeMeters>
            <DistanceMeters>22846.850136844</DistanceMeters>
          </Trackpoint>
          <Trackpoint>
            <Time>2019-07-26T09:51:03.000Z</Time>
            <Position>
              <LatitudeDegrees>42.9520998895168304443359375</LatitudeDegrees>
              <LongitudeDegrees>-7.77935841120779514312744140625</LongitudeDegrees>
            </Position>
            <AltitudeMeters>536</AltitudeMeters>
            <DistanceMeters>22855.972701423</DistanceMeters>
          </Trackpoint>
          <Trackpoint>
            <Time>2019-07-26T09:51:07.000Z</Time>
            <Position>
              <LatitudeDegrees>42.95204968191683292388916015625</LatitudeDegrees>
              <LongitudeDegrees>-7.77946670539677143096923828125</LongitudeDegrees>
            </Position>
            <AltitudeMeters>537.20001220703125</AltitudeMeters>
            <DistanceMeters>22866.416133009</DistanceMeters>
          </Trackpoint>
          <Trackpoint>
            <Time>2019-07-26T09:51:08.000Z</Time>
            <Position>
              <LatitudeDegrees>42.952039539813995361328125</LatitudeDegrees>
              <LongitudeDegrees>-7.7794946171343326568603515625</LongitudeDegrees>
            </Position>
            <AltitudeMeters>537.4000244140625</AltitudeMeters>
            <DistanceMeters>22868.955320789</DistanceMeters>
          </Trackpoint>
          <Trackpoint>
            <Time>2019-07-26T09:51:11.000Z</Time>
            <Position>
              <LatitudeDegrees>42.9520086944103240966796875</LatitudeDegrees>
              <LongitudeDegrees>-7.77956829406321048736572265625</LongitudeDegrees>
            </Position>
            <AltitudeMeters>538.20001220703125</AltitudeMeters>
            <DistanceMeters>22875.869453034</DistanceMeters>
          </Trackpoint>
          <Trackpoint>
            <Time>2019-07-26T09:51:13.000Z</Time>
            <Position>
              <LatitudeDegrees>42.951990924775600433349609375</LatitudeDegrees>
              <LongitudeDegrees>-7.77961917221546173095703125</LongitudeDegrees>
            </Position>
            <AltitudeMeters>538.5999755859375</AltitudeMeters>
            <DistanceMeters>22880.461318504</DistanceMeters>
          </Trackpoint>
          <Trackpoint>
            <Time>2019-07-26T09:51:14.000Z</Time>
            <Position>
              <LatitudeDegrees>42.9519850574433803558349609375</LatitudeDegrees>
              <LongitudeDegrees>-7.7796471677720546722412109375</LongitudeDegrees>
            </Position>
            <AltitudeMeters>538.79998779296875</AltitudeMeters>
            <DistanceMeters>22882.835085068</DistanceMeters>
          </Trackpoint>
          <Trackpoint>
            <Time>2019-07-26T09:51:16.000Z</Time>
            <Position>
              <LatitudeDegrees>42.9519746638834476470947265625</LatitudeDegrees>
              <LongitudeDegrees>-7.77970366179943084716796875</LongitudeDegrees>
            </Position>
            <AltitudeMeters>539.4000244140625</AltitudeMeters>
            <DistanceMeters>22887.579764254</DistanceMeters>
          </Trackpoint>
          <Trackpoint>
            <Time>2019-07-26T09:51:21.000Z</Time>
            <Position>
              <LatitudeDegrees>42.9519468359649181365966796875</LatitudeDegrees>
              <LongitudeDegrees>-7.7798466570675373077392578125</LongitudeDegrees>
            </Position>
            <AltitudeMeters>540.5999755859375</AltitudeMeters>
            <DistanceMeters>22899.633557432</DistanceMeters>
          </Trackpoint>
          <Trackpoint>
            <Time>2019-07-26T09:51:23.000Z</Time>
            <Position>
              <LatitudeDegrees>42.95194406993687152862548828125</LatitudeDegrees>
              <LongitudeDegrees>-7.779906503856182098388671875</LongitudeDegrees>
            </Position>
            <AltitudeMeters>541</AltitudeMeters>
            <DistanceMeters>22904.519815931</DistanceMeters>
          </Trackpoint>
          <Trackpoint>
            <Time>2019-07-26T09:51:27.000Z</Time>
            <Position>
              <LatitudeDegrees>42.9519364424049854278564453125</LatitudeDegrees>
              <LongitudeDegrees>-7.7800226770341396331787109375</LongitudeDegrees>
            </Position>
            <AltitudeMeters>541.79998779296875</AltitudeMeters>
            <DistanceMeters>22914.021537053</DistanceMeters>
          </Trackpoint>
          <Trackpoint>
            <Time>2019-07-26T09:51:32.000Z</Time>
            <Position>
              <LatitudeDegrees>42.95194457285106182098388671875</LatitudeDegrees>
              <LongitudeDegrees>-7.7801671810448169708251953125</LongitudeDegrees>
            </Position>
            <AltitudeMeters>542.79998779296875</AltitudeMeters>
            <DistanceMeters>22925.828582413</DistanceMeters>
          </Trackpoint>
          <Trackpoint>
            <Time>2019-07-26T09:51:33.000Z</Time>
            <Position>
              <LatitudeDegrees>42.9519461654126644134521484375</LatitudeDegrees>
              <LongitudeDegrees>-7.78019442223012447357177734375</LongitudeDegrees>
            </Position>
            <AltitudeMeters>543.20001220703125</AltitudeMeters>
            <DistanceMeters>22928.053100764</DistanceMeters>
          </Trackpoint>
          <Trackpoint>
            <Time>2019-07-26T09:51:38.000Z</Time>
            <Position>
              <LatitudeDegrees>42.95195915736258029937744140625</LatitudeDegrees>
              <LongitudeDegrees>-7.78032903559505939483642578125</LongitudeDegrees>
            </Position>
            <AltitudeMeters>544</AltitudeMeters>
            <DistanceMeters>22939.113818447</DistanceMeters>
          </Trackpoint>
          <Trackpoint>
            <Time>2019-07-26T09:51:41.000Z</Time>
            <Position>
              <LatitudeDegrees>42.95196334831416606903076171875</LatitudeDegrees>
              <LongitudeDegrees>-7.78039189986884593963623046875</LongitudeDegrees>
            </Position>
            <AltitudeMeters>544.79998779296875</AltitudeMeters>
            <DistanceMeters>22944.255808706</DistanceMeters>
          </Trackpoint>
          <Trackpoint>
            <Time>2019-07-26T09:51:42.000Z</Time>
            <Position>
              <LatitudeDegrees>42.9519629292190074920654296875</LatitudeDegrees>
              <LongitudeDegrees>-7.78041587211191654205322265625</LongitudeDegrees>
            </Position>
            <AltitudeMeters>545</AltitudeMeters>
            <DistanceMeters>22946.207908155</DistanceMeters>
          </Trackpoint>
          <Trackpoint>
            <Time>2019-07-26T09:51:43.000Z</Time>
            <Position>
              <LatitudeDegrees>42.9519666172564029693603515625</LatitudeDegrees>
              <LongitudeDegrees>-7.78044252656400203704833984375</LongitudeDegrees>
            </Position>
            <AltitudeMeters>545.4000244140625</AltitudeMeters>
            <DistanceMeters>22948.416129449</DistanceMeters>
          </Trackpoint>
          <Trackpoint>
            <Time>2019-07-26T09:51:47.000Z</Time>
            <Position>
              <LatitudeDegrees>42.95199486427009105682373046875</LatitudeDegrees>
              <LongitudeDegrees>-7.7805336378514766693115234375</LongitudeDegrees>
            </Position>
            <AltitudeMeters>546.20001220703125</AltitudeMeters>
            <DistanceMeters>22956.477173431</DistanceMeters>
          </Trackpoint>
          <Trackpoint>
            <Time>2019-07-26T09:51:48.000Z</Time>
            <Position>
              <LatitudeDegrees>42.95200207270681858062744140625</LatitudeDegrees>
              <LongitudeDegrees>-7.78055920265614986419677734375</LongitudeDegrees>
            </Position>
            <AltitudeMeters>546.4000244140625</AltitudeMeters>
            <DistanceMeters>22958.711817088</DistanceMeters>
          </Trackpoint>
          <Trackpoint>
            <Time>2019-07-26T09:51:51.000Z</Time>
            <Position>
              <LatitudeDegrees>42.9520333372056484222412109375</LatitudeDegrees>
              <LongitudeDegrees>-7.78063899837434291839599609375</LongitudeDegrees>
            </Position>
            <AltitudeMeters>547.5999755859375</AltitudeMeters>
            <DistanceMeters>22966.084812422</DistanceMeters>
          </Trackpoint>
          <Trackpoint>
            <Time>2019-07-26T09:51:54.000Z</Time>
            <Position>
              <LatitudeDegrees>42.95208538882434368133544921875</LatitudeDegrees>
              <LongitudeDegrees>-7.7807022817432880401611328125</LongitudeDegrees>
            </Position>
            <AltitudeMeters>548.20001220703125</AltitudeMeters>
            <DistanceMeters>22973.83983074</DistanceMeters>
          </Trackpoint>
          <Trackpoint>
            <Time>2019-07-26T09:51:56.000Z</Time>
            <Position>
              <LatitudeDegrees>42.95211556367576122283935546875</LatitudeDegrees>
              <LongitudeDegrees>-7.78074226342141628265380859375</LongitudeDegrees>
            </Position>
            <AltitudeMeters>548.79998779296875</AltitudeMeters>
            <DistanceMeters>22978.518388777</DistanceMeters>
          </Trackpoint>
          <Trackpoint>
            <Time>2019-07-26T09:52:00.000Z</Time>
            <Position>
              <LatitudeDegrees>42.9521818645298480987548828125</LatitudeDegrees>
              <LongitudeDegrees>-7.78082909993827342987060546875</LongitudeDegrees>
            </Position>
            <AltitudeMeters>550.20001220703125</AltitudeMeters>
            <DistanceMeters>22988.741161135</DistanceMeters>
          </Trackpoint>
          <Trackpoint>
            <Time>2019-07-26T09:52:02.000Z</Time>
            <Position>
              <LatitudeDegrees>42.95221346430480480194091796875</LatitudeDegrees>
              <LongitudeDegrees>-7.78087369166314601898193359375</LongitudeDegrees>
            </Position>
            <AltitudeMeters>550.79998779296875</AltitudeMeters>
            <DistanceMeters>22993.798153966</DistanceMeters>
          </Trackpoint>
          <Trackpoint>
            <Time>2019-07-26T09:52:05.000Z</Time>
            <Position>
              <LatitudeDegrees>42.95226459391415119171142578125</LatitudeDegrees>
              <LongitudeDegrees>-7.780924737453460693359375</LongitudeDegrees>
            </Position>
            <AltitudeMeters>551.20001220703125</AltitudeMeters>
            <DistanceMeters>23000.84616436</DistanceMeters>
          </Trackpoint>
          <Trackpoint>
            <Time>2019-07-26T09:52:09.000Z</Time>
            <Position>
              <LatitudeDegrees>42.9523370973765850067138671875</LatitudeDegrees>
              <LongitudeDegrees>-7.78099422343075275421142578125</LongitudeDegrees>
            </Position>
            <AltitudeMeters>552.4000244140625</AltitudeMeters>
            <DistanceMeters>23010.704241388</DistanceMeters>
          </Trackpoint>
          <Trackpoint>
            <Time>2019-07-26T09:52:12.000Z</Time>
            <Position>
              <LatitudeDegrees>42.9523910768330097198486328125</LatitudeDegrees>
              <LongitudeDegrees>-7.78104451484978199005126953125</LongitudeDegrees>
            </Position>
            <AltitudeMeters>552.79998779296875</AltitudeMeters>
            <DistanceMeters>23017.97611375</DistanceMeters>
          </Trackpoint>
          <Trackpoint>
            <Time>2019-07-26T09:52:14.000Z</Time>
            <Position>
              <LatitudeDegrees>42.95242351479828357696533203125</LatitudeDegrees>
              <LongitudeDegrees>-7.78107619844377040863037109375</LongitudeDegrees>
            </Position>
            <AltitudeMeters>553.5999755859375</AltitudeMeters>
            <DistanceMeters>23022.4149905</DistanceMeters>
          </Trackpoint>
          <Trackpoint>
            <Time>2019-07-26T09:52:16.000Z</Time>
            <Position>
              <LatitudeDegrees>42.95246374793350696563720703125</LatitudeDegrees>
              <LongitudeDegrees>-7.78110050596296787261962890625</LongitudeDegrees>
            </Position>
            <AltitudeMeters>554.5999755859375</AltitudeMeters>
            <DistanceMeters>23027.312324779</DistanceMeters>
          </Trackpoint>
          <Trackpoint>
            <Time>2019-07-26T09:52:20.000Z</Time>
            <Position>
              <LatitudeDegrees>42.95253985561430454254150390625</LatitudeDegrees>
              <LongitudeDegrees>-7.78116605244576930999755859375</LongitudeDegrees>
            </Position>
            <AltitudeMeters>555.5999755859375</AltitudeMeters>
            <DistanceMeters>23037.325814122</DistanceMeters>
          </Trackpoint>
          <Trackpoint>
            <Time>2019-07-26T09:52:21.000Z</Time>
            <Position>
              <LatitudeDegrees>42.95255695469677448272705078125</LatitudeDegrees>
              <LongitudeDegrees>-7.78118683956563472747802734375</LongitudeDegrees>
            </Position>
            <AltitudeMeters>555.79998779296875</AltitudeMeters>
            <DistanceMeters>23039.875648438</DistanceMeters>
          </Trackpoint>
          <Trackpoint>
            <Time>2019-07-26T09:52:25.000Z</Time>
            <Position>
              <LatitudeDegrees>42.95262870378792285919189453125</LatitudeDegrees>
              <LongitudeDegrees>-7.78125129640102386474609375</LongitudeDegrees>
            </Position>
            <AltitudeMeters>556.79998779296875</AltitudeMeters>
            <DistanceMeters>23049.433276455</DistanceMeters>
          </Trackpoint>
          <Trackpoint>
            <Time>2019-07-26T09:52:28.000Z</Time>
            <Position>
              <LatitudeDegrees>42.95268218033015727996826171875</LatitudeDegrees>
              <LongitudeDegrees>-7.78128742240369319915771484375</LongitudeDegrees>
            </Position>
            <AltitudeMeters>557.79998779296875</AltitudeMeters>
            <DistanceMeters>23056.073597477</DistanceMeters>
          </Trackpoint>
          <Trackpoint>
            <Time>2019-07-26T09:52:29.000Z</Time>
            <Position>
              <LatitudeDegrees>42.95270145870745182037353515625</LatitudeDegrees>
              <LongitudeDegrees>-7.7812977321445941925048828125</LongitudeDegrees>
            </Position>
            <AltitudeMeters>558</AltitudeMeters>
            <DistanceMeters>23058.379831426</DistanceMeters>
          </Trackpoint>
          <Trackpoint>
            <Time>2019-07-26T09:52:33.000Z</Time>
            <Position>
              <LatitudeDegrees>42.9527746327221393585205078125</LatitudeDegrees>
              <LongitudeDegrees>-7.781360261142253875732421875</LongitudeDegrees>
            </Position>
            <AltitudeMeters>559.20001220703125</AltitudeMeters>
            <DistanceMeters>23067.986463575</DistanceMeters>
          </Trackpoint>
          <Trackpoint>
            <Time>2019-07-26T09:52:36.000Z</Time>
            <Position>
              <LatitudeDegrees>42.9528323002159595489501953125</LatitudeDegrees>
              <LongitudeDegrees>-7.78140929527580738067626953125</LongitudeDegrees>
            </Position>
            <AltitudeMeters>559.79998779296875</AltitudeMeters>
            <DistanceMeters>23075.546315017</DistanceMeters>
          </Trackpoint>
          <Trackpoint>
            <Time>2019-07-26T09:52:38.000Z</Time>
            <Position>
              <LatitudeDegrees>42.95286457054316997528076171875</LatitudeDegrees>
              <LongitudeDegrees>-7.78144919313490390777587890625</LongitudeDegrees>
            </Position>
            <AltitudeMeters>560.4000244140625</AltitudeMeters>
            <DistanceMeters>23080.391745725</DistanceMeters>
          </Trackpoint>
          <Trackpoint>
            <Time>2019-07-26T09:52:42.000Z</Time>
            <Position>
              <LatitudeDegrees>42.95293581672012805938720703125</LatitudeDegrees>
              <LongitudeDegrees>-7.78150753118097782135009765625</LongitudeDegrees>
            </Position>
            <AltitudeMeters>561.4000244140625</AltitudeMeters>
            <DistanceMeters>23089.636238327</DistanceMeters>
          </Trackpoint>
          <Trackpoint>
            <Time>2019-07-26T09:52:47.000Z</Time>
            <Position>
              <LatitudeDegrees>42.95302349142730236053466796875</LatitudeDegrees>
              <LongitudeDegrees>-7.7815793640911579132080078125</LongitudeDegrees>
            </Position>
            <AltitudeMeters>562.79998779296875</AltitudeMeters>
            <DistanceMeters>23101.014472196</DistanceMeters>
          </Trackpoint>
          <Trackpoint>
            <Time>2019-07-26T09:52:49.000Z</Time>
            <Position>
              <LatitudeDegrees>42.953054420650005340576171875</LatitudeDegrees>
              <LongitudeDegrees>-7.78161196969449520111083984375</LongitudeDegrees>
            </Position>
            <AltitudeMeters>563.4000244140625</AltitudeMeters>
            <DistanceMeters>23105.362917904</DistanceMeters>
          </Trackpoint>
          <Trackpoint>
            <Time>2019-07-26T09:52:52.000Z</Time>
            <Position>
              <LatitudeDegrees>42.95311217196285724639892578125</LatitudeDegrees>
              <LongitudeDegrees>-7.7816457487642765045166015625</LongitudeDegrees>
            </Position>
            <AltitudeMeters>564</AltitudeMeters>
            <DistanceMeters>23112.354327189</DistanceMeters>
          </Trackpoint>
          <Trackpoint>
            <Time>2019-07-26T09:52:56.000Z</Time>
            <Position>
              <LatitudeDegrees>42.95317880809307098388671875</LatitudeDegrees>
              <LongitudeDegrees>-7.781710289418697357177734375</LongitudeDegrees>
            </Position>
            <AltitudeMeters>565</AltitudeMeters>
            <DistanceMeters>23121.445161013</DistanceMeters>
          </Trackpoint>
          <Trackpoint>
            <Time>2019-07-26T09:53:00.000Z</Time>
            <Position>
              <LatitudeDegrees>42.95323739759624004364013671875</LatitudeDegrees>
              <LongitudeDegrees>-7.7817709743976593017578125</LongitudeDegrees>
            </Position>
            <AltitudeMeters>566</AltitudeMeters>
            <DistanceMeters>23129.627948853</DistanceMeters>
          </Trackpoint>
          <Trackpoint>
            <Time>2019-07-26T09:53:03.000Z</Time>
            <Position>
              <LatitudeDegrees>42.95329489745199680328369140625</LatitudeDegrees>
              <LongitudeDegrees>-7.7818033285439014434814453125</LongitudeDegrees>
            </Position>
            <AltitudeMeters>566.79998779296875</AltitudeMeters>
            <DistanceMeters>23136.548608175</DistanceMeters>
          </Trackpoint>
          <Trackpoint>
            <Time>2019-07-26T09:53:04.000Z</Time>
            <Position>
              <LatitudeDegrees>42.95331769622862339019775390625</LatitudeDegrees>
              <LongitudeDegrees>-7.7818090282380580902099609375</LongitudeDegrees>
            </Position>
            <AltitudeMeters>567.20001220703125</AltitudeMeters>
            <DistanceMeters>23139.130118666</DistanceMeters>
          </Trackpoint>
          <Trackpoint>
            <Time>2019-07-26T09:53:08.000Z</Time>
            <Position>
              <LatitudeDegrees>42.953385002911090850830078125</LatitudeDegrees>
              <LongitudeDegrees>-7.7818807773292064666748046875</LongitudeDegrees>
            </Position>
            <AltitudeMeters>568.20001220703125</AltitudeMeters>
            <DistanceMeters>23148.631839789</DistanceMeters>
          </Trackpoint>
          <Trackpoint>
            <Time>2019-07-26T09:53:09.000Z</Time>
            <Position>
              <LatitudeDegrees>42.9534032754600048065185546875</LatitudeDegrees>
              <LongitudeDegrees>-7.7818995527923107147216796875</LongitudeDegrees>
            </Position>
            <AltitudeMeters>568.5999755859375</AltitudeMeters>
            <DistanceMeters>23151.178130206</DistanceMeters>
          </Trackpoint>
          <Trackpoint>
            <Time>2019-07-26T09:53:12.000Z</Time>
            <Position>
              <LatitudeDegrees>42.9534582607448101043701171875</LatitudeDegrees>
              <LongitudeDegrees>-7.78195143677294254302978515625</LongitudeDegrees>
            </Position>
            <AltitudeMeters>569.4000244140625</AltitudeMeters>
            <DistanceMeters>23158.61575404</DistanceMeters>
          </Trackpoint>
          <Trackpoint>
            <Time>2019-07-26T09:53:16.000Z</Time>
            <Position>
              <LatitudeDegrees>42.95353109948337078094482421875</LatitudeDegrees>
              <LongitudeDegrees>-7.78201480396091938018798828125</LongitudeDegrees>
            </Position>
            <AltitudeMeters>570.79998779296875</AltitudeMeters>
            <DistanceMeters>23168.227084958</DistanceMeters>
          </Trackpoint>
          <Trackpoint>
            <Time>2019-07-26T09:53:19.000Z</Time>
            <Position>
              <LatitudeDegrees>42.95357401482760906219482421875</LatitudeDegrees>
              <LongitudeDegrees>-7.78208387084305286407470703125</LongitudeDegrees>
            </Position>
            <AltitudeMeters>571.79998779296875</AltitudeMeters>
            <DistanceMeters>23175.608036874</DistanceMeters>
          </Trackpoint>
          <Trackpoint>
            <Time>2019-07-26T09:53:20.000Z</Time>
            <Position>
              <LatitudeDegrees>42.95357577502727508544921875</LatitudeDegrees>
              <LongitudeDegrees>-7.7821121178567409515380859375</LongitudeDegrees>
            </Position>
            <AltitudeMeters>572.4000244140625</AltitudeMeters>
            <DistanceMeters>23177.916227746</DistanceMeters>
          </Trackpoint>
          <Trackpoint>
            <Time>2019-07-26T09:53:21.000Z</Time>
            <Position>
              <LatitudeDegrees>42.95356831513345241546630859375</LatitudeDegrees>
              <LongitudeDegrees>-7.78213977813720703125</LongitudeDegrees>
            </Position>
            <AltitudeMeters>572.5999755859375</AltitudeMeters>
            <DistanceMeters>23180.316475394</DistanceMeters>
          </Trackpoint>
          <Trackpoint>
            <Time>2019-07-26T09:53:22.000Z</Time>
            <Position>
              <LatitudeDegrees>42.95355699956417083740234375</LatitudeDegrees>
              <LongitudeDegrees>-7.78216869570314884185791015625</LongitudeDegrees>
            </Position>
            <AltitudeMeters>573</AltitudeMeters>
            <DistanceMeters>23182.989075339</DistanceMeters>
          </Trackpoint>
          <Trackpoint>
            <Time>2019-07-26T09:53:26.000Z</Time>
            <Position>
              <LatitudeDegrees>42.9535088874399662017822265625</LatitudeDegrees>
              <LongitudeDegrees>-7.78225318528711795806884765625</LongitudeDegrees>
            </Position>
            <AltitudeMeters>574.20001220703125</AltitudeMeters>
            <DistanceMeters>23191.709815205</DistanceMeters>
          </Trackpoint>
          <Trackpoint>
            <Time>2019-07-26T09:53:27.000Z</Time>
            <Position>
              <LatitudeDegrees>42.95349237509071826934814453125</LatitudeDegrees>
              <LongitudeDegrees>-7.7822670154273509979248046875</LongitudeDegrees>
            </Position>
            <AltitudeMeters>574.5999755859375</AltitudeMeters>
            <DistanceMeters>23193.864219831</DistanceMeters>
          </Trackpoint>
          <Trackpoint>
            <Time>2019-07-26T09:53:30.000Z</Time>
            <Position>
              <LatitudeDegrees>42.95344007201492786407470703125</LatitudeDegrees>
              <LongitudeDegrees>-7.7823038958013057708740234375</LongitudeDegrees>
            </Position>
            <AltitudeMeters>575</AltitudeMeters>
            <DistanceMeters>23200.416241154</DistanceMeters>
          </Trackpoint>
          <Trackpoint>
            <Time>2019-07-26T09:53:31.000Z</Time>
            <Position>
              <LatitudeDegrees>42.953425236046314239501953125</LatitudeDegrees>
              <LongitudeDegrees>-7.78231881558895111083984375</LongitudeDegrees>
            </Position>
            <AltitudeMeters>575.20001220703125</AltitudeMeters>
            <DistanceMeters>23202.463179226</DistanceMeters>
          </Trackpoint>
          <Trackpoint>
            <Time>2019-07-26T09:53:35.000Z</Time>
            <Position>
              <LatitudeDegrees>42.953354828059673309326171875</LatitudeDegrees>
              <LongitudeDegrees>-7.78238846920430660247802734375</LongitudeDegrees>
            </Position>
            <AltitudeMeters>575.5999755859375</AltitudeMeters>
            <DistanceMeters>23212.138653503</DistanceMeters>
          </Trackpoint>
          <Trackpoint>
            <Time>2019-07-26T09:53:40.000Z</Time>
            <Position>
              <LatitudeDegrees>42.95322733931243419647216796875</LatitudeDegrees>
              <LongitudeDegrees>-7.78247128240764141082763671875</LongitudeDegrees>
            </Position>
            <AltitudeMeters>576.4000244140625</AltitudeMeters>
            <DistanceMeters>23227.85056713</DistanceMeters>
          </Trackpoint>
          <Trackpoint>
            <Time>2019-07-26T09:53:42.000Z</Time>
            <Position>
              <LatitudeDegrees>42.9531781375408172607421875</LatitudeDegrees>
              <LongitudeDegrees>-7.78250866569578647613525390625</LongitudeDegrees>
            </Position>
            <AltitudeMeters>576.5999755859375</AltitudeMeters>
            <DistanceMeters>23234.116568437</DistanceMeters>
          </Trackpoint>
          <Trackpoint>
            <Time>2019-07-26T09:53:45.000Z</Time>
            <Position>
              <LatitudeDegrees>42.9531021974980831146240234375</LatitudeDegrees>
              <LongitudeDegrees>-7.78255359269678592681884765625</LongitudeDegrees>
            </Position>
            <AltitudeMeters>577</AltitudeMeters>
            <DistanceMeters>23243.326809374</DistanceMeters>
          </Trackpoint>
          <Trackpoint>
            <Time>2019-07-26T09:53:47.000Z</Time>
            <Position>
              <LatitudeDegrees>42.95305567793548107147216796875</LatitudeDegrees>
              <LongitudeDegrees>-7.78259583748877048492431640625</LongitudeDegrees>
            </Position>
            <AltitudeMeters>577</AltitudeMeters>
            <DistanceMeters>23249.543619423</DistanceMeters>
          </Trackpoint>
          <Trackpoint>
            <Time>2019-07-26T09:53:48.000Z</Time>
            <Position>
              <LatitudeDegrees>42.953022904694080352783203125</LatitudeDegrees>
              <LongitudeDegrees>-7.782619893550872802734375</LongitudeDegrees>
            </Position>
            <AltitudeMeters>577</AltitudeMeters>
            <DistanceMeters>23253.683557235</DistanceMeters>
          </Trackpoint>
          <Trackpoint>
            <Time>2019-07-26T09:53:52.000Z</Time>
            <Position>
              <LatitudeDegrees>42.95291787944734096527099609375</LatitudeDegrees>
              <LongitudeDegrees>-7.782754339277744293212890625</LongitudeDegrees>
            </Position>
            <AltitudeMeters>577.20001220703125</AltitudeMeters>
            <DistanceMeters>23269.702536051</DistanceMeters>
          </Trackpoint>
          <Trackpoint>
            <Time>2019-07-26T09:53:53.000Z</Time>
            <Position>
              <LatitudeDegrees>42.95290790498256683349609375</LatitudeDegrees>
              <LongitudeDegrees>-7.7828064747154712677001953125</LongitudeDegrees>
            </Position>
            <AltitudeMeters>577.4000244140625</AltitudeMeters>
            <DistanceMeters>23274.092317724</DistanceMeters>
          </Trackpoint>
          <Trackpoint>
            <Time>2019-07-26T09:53:55.000Z</Time>
            <Position>
              <LatitudeDegrees>42.9529037140309810638427734375</LatitudeDegrees>
              <LongitudeDegrees>-7.78292105533182621002197265625</LongitudeDegrees>
            </Position>
            <AltitudeMeters>577.4000244140625</AltitudeMeters>
            <DistanceMeters>23283.437846032</DistanceMeters>
          </Trackpoint>
          <Trackpoint>
            <Time>2019-07-26T09:53:58.000Z</Time>
            <Position>
              <LatitudeDegrees>42.95292542316019535064697265625</LatitudeDegrees>
              <LongitudeDegrees>-7.7831021882593631744384765625</LongitudeDegrees>
            </Position>
            <AltitudeMeters>577.4000244140625</AltitudeMeters>
            <DistanceMeters>23298.389990781</DistanceMeters>
          </Trackpoint>
          <Trackpoint>
            <Time>2019-07-26T09:54:01.000Z</Time>
            <Position>
              <LatitudeDegrees>42.95298996381461620330810546875</LatitudeDegrees>
              <LongitudeDegrees>-7.7832792140543460845947265625</LongitudeDegrees>
            </Position>
            <AltitudeMeters>577.4000244140625</AltitudeMeters>
            <DistanceMeters>23314.50143322</DistanceMeters>
          </Trackpoint>
          <Trackpoint>
            <Time>2019-07-26T09:54:03.000Z</Time>
            <Position>
              <LatitudeDegrees>42.9530324600636959075927734375</LatitudeDegrees>
              <LongitudeDegrees>-7.7833999134600162506103515625</LongitudeDegrees>
            </Position>
            <AltitudeMeters>577.4000244140625</AltitudeMeters>
            <DistanceMeters>23325.412552678</DistanceMeters>
          </Trackpoint>
          <Trackpoint>
            <Time>2019-07-26T09:54:05.000Z</Time>
            <Position>
              <LatitudeDegrees>42.95308283530175685882568359375</LatitudeDegrees>
              <LongitudeDegrees>-7.783516086637973785400390625</LongitudeDegrees>
            </Position>
            <AltitudeMeters>577.4000244140625</AltitudeMeters>
            <DistanceMeters>23336.411869212</DistanceMeters>
          </Trackpoint>
          <Trackpoint>
            <Time>2019-07-26T09:54:08.000Z</Time>
            <Position>
              <LatitudeDegrees>42.95316531322896480560302734375</LatitudeDegrees>
              <LongitudeDegrees>-7.78370811603963375091552734375</LongitudeDegrees>
            </Position>
            <AltitudeMeters>577.20001220703125</AltitudeMeters>
            <DistanceMeters>23354.54977827</DistanceMeters>
          </Trackpoint>
          <Trackpoint>
            <Time>2019-07-26T09:54:10.000Z</Time>
            <Position>
              <LatitudeDegrees>42.9532262496650218963623046875</LatitudeDegrees>
              <LongitudeDegrees>-7.78384641744196414947509765625</LongitudeDegrees>
            </Position>
            <AltitudeMeters>577</AltitudeMeters>
            <DistanceMeters>23367.70059665</DistanceMeters>
          </Trackpoint>
          <Trackpoint>
            <Time>2019-07-26T09:54:12.000Z</Time>
            <Position>
              <LatitudeDegrees>42.9532919637858867645263671875</LatitudeDegrees>
              <LongitudeDegrees>-7.7839869819581508636474609375</LongitudeDegrees>
            </Position>
            <AltitudeMeters>576.5999755859375</AltitudeMeters>
            <DistanceMeters>23381.287755397</DistanceMeters>
          </Trackpoint>
          <Trackpoint>
            <Time>2019-07-26T09:54:14.000Z</Time>
            <Position>
              <LatitudeDegrees>42.9533533193171024322509765625</LatitudeDegrees>
              <LongitudeDegrees>-7.78413156978785991668701171875</LongitudeDegrees>
            </Position>
            <AltitudeMeters>576.4000244140625</AltitudeMeters>
            <DistanceMeters>23394.903130504</DistanceMeters>
          </Trackpoint>
          <Trackpoint>
            <Time>2019-07-26T09:54:16.000Z</Time>
            <Position>
              <LatitudeDegrees>42.9534136690199375152587890625</LatitudeDegrees>
              <LongitudeDegrees>-7.784272469580173492431640625</LongitudeDegrees>
            </Position>
            <AltitudeMeters>576.20001220703125</AltitudeMeters>
            <DistanceMeters>23408.202118332</DistanceMeters>
          </Trackpoint>
          <Trackpoint>
            <Time>2019-07-26T09:54:18.000Z</Time>
            <Position>
              <LatitudeDegrees>42.95347862876951694488525390625</LatitudeDegrees>
              <LongitudeDegrees>-7.78441856615245342254638671875</LongitudeDegrees>
            </Position>
            <AltitudeMeters>575.79998779296875</AltitudeMeters>
            <DistanceMeters>23422.127342264</DistanceMeters>
          </Trackpoint>
          <Trackpoint>
            <Time>2019-07-26T09:54:21.000Z</Time>
            <Position>
              <LatitudeDegrees>42.95357309281826019287109375</LatitudeDegrees>
              <LongitudeDegrees>-7.7846337296068668365478515625</LongitudeDegrees>
            </Position>
            <AltitudeMeters>575.5999755859375</AltitudeMeters>
            <DistanceMeters>23442.566702738</DistanceMeters>
          </Trackpoint>
          <Trackpoint>
            <Time>2019-07-26T09:54:24.000Z</Time>
            <Position>
              <LatitudeDegrees>42.95366420410573482513427734375</LatitudeDegrees>
              <LongitudeDegrees>-7.7848590351641178131103515625</LongitudeDegrees>
            </Position>
            <AltitudeMeters>575</AltitudeMeters>
            <DistanceMeters>23463.535763573</DistanceMeters>
          </Trackpoint>
          <Trackpoint>
            <Time>2019-07-26T09:54:25.000Z</Time>
            <Position>
              <LatitudeDegrees>42.95369186438620090484619140625</LatitudeDegrees>
              <LongitudeDegrees>-7.7849411778151988983154296875</LongitudeDegrees>
            </Position>
            <AltitudeMeters>574.79998779296875</AltitudeMeters>
            <DistanceMeters>23470.90140674</DistanceMeters>
          </Trackpoint>
          <Trackpoint>
            <Time>2019-07-26T09:54:26.000Z</Time>
            <Position>
              <LatitudeDegrees>42.953716926276683807373046875</LatitudeDegrees>
              <LongitudeDegrees>-7.78502256609499454498291015625</LongitudeDegrees>
            </Position>
            <AltitudeMeters>574.4000244140625</AltitudeMeters>
            <DistanceMeters>23478.094621461</DistanceMeters>
          </Trackpoint>
          <Trackpoint>
            <Time>2019-07-26T09:54:27.000Z</Time>
            <Position>
              <LatitudeDegrees>42.95373930595815181732177734375</LatitudeDegrees>
              <LongitudeDegrees>-7.78511711396276950836181640625</LongitudeDegrees>
            </Position>
            <AltitudeMeters>574.20001220703125</AltitudeMeters>
            <DistanceMeters>23486.19031753</DistanceMeters>
          </Trackpoint>
          <Trackpoint>
            <Time>2019-07-26T09:54:29.000Z</Time>
            <Position>
              <LatitudeDegrees>42.953781969845294952392578125</LatitudeDegrees>
              <LongitudeDegrees>-7.78531911782920360565185546875</LongitudeDegrees>
            </Position>
            <AltitudeMeters>573.5999755859375</AltitudeMeters>
            <DistanceMeters>23503.317811899</DistanceMeters>
          </Trackpoint>
          <Trackpoint>
            <Time>2019-07-26T09:54:30.000Z</Time>
            <Position>
              <LatitudeDegrees>42.9537978954613208770751953125</LatitudeDegrees>
              <LongitudeDegrees>-7.7854296751320362091064453125</LongitudeDegrees>
            </Position>
            <AltitudeMeters>573.4000244140625</AltitudeMeters>
            <DistanceMeters>23512.496625178</DistanceMeters>
          </Trackpoint>
          <Trackpoint>
            <Time>2019-07-26T09:54:33.000Z</Time>
            <Position>
              <LatitudeDegrees>42.95384894125163555145263671875</LatitudeDegrees>
              <LongitudeDegrees>-7.78578883968293666839599609375</LongitudeDegrees>
            </Position>
            <AltitudeMeters>572.4000244140625</AltitudeMeters>
            <DistanceMeters>23542.301402314</DistanceMeters>
          </Trackpoint>
          <Trackpoint>
            <Time>2019-07-26T09:54:35.000Z</Time>
            <Position>
              <LatitudeDegrees>42.95388582162559032440185546875</LatitudeDegrees>
              <LongitudeDegrees>-7.78602839447557926177978515625</LongitudeDegrees>
            </Position>
            <AltitudeMeters>571.5999755859375</AltitudeMeters>
            <DistanceMeters>23562.243432466</DistanceMeters>
          </Trackpoint>
          <Trackpoint>
            <Time>2019-07-26T09:54:36.000Z</Time>
            <Position>
              <LatitudeDegrees>42.95390359126031398773193359375</LatitudeDegrees>
              <LongitudeDegrees>-7.786132581532001495361328125</LongitudeDegrees>
            </Position>
            <AltitudeMeters>571.20001220703125</AltitudeMeters>
            <DistanceMeters>23570.957957289</DistanceMeters>
          </Trackpoint>
          <Trackpoint>
            <Time>2019-07-26T09:54:37.000Z</Time>
            <Position>
              <LatitudeDegrees>42.953913398087024688720703125</LatitudeDegrees>
              <LongitudeDegrees>-7.78622352518141269683837890625</LongitudeDegrees>
            </Position>
            <AltitudeMeters>570.79998779296875</AltitudeMeters>
            <DistanceMeters>23578.445797074</DistanceMeters>
          </Trackpoint>
          <Trackpoint>
            <Time>2019-07-26T09:54:38.000Z</Time>
            <Position>
              <LatitudeDegrees>42.95389361679553985595703125</LatitudeDegrees>
              <LongitudeDegrees>-7.78631069697439670562744140625</LongitudeDegrees>
            </Position>
            <AltitudeMeters>570.20001220703125</AltitudeMeters>
            <DistanceMeters>23585.879777692</DistanceMeters>
          </Trackpoint>
          <Trackpoint>
            <Time>2019-07-26T09:54:39.000Z</Time>
            <Position>
              <LatitudeDegrees>42.95385765843093395233154296875</LatitudeDegrees>
              <LongitudeDegrees>-7.78638504445552825927734375</LongitudeDegrees>
            </Position>
            <AltitudeMeters>569.5999755859375</AltitudeMeters>
            <DistanceMeters>23593.139221619</DistanceMeters>
          </Trackpoint>
          <Trackpoint>
            <Time>2019-07-26T09:54:41.000Z</Time>
            <Position>
              <LatitudeDegrees>42.95375145971775054931640625</LatitudeDegrees>
              <LongitudeDegrees>-7.78651513159275054931640625</LongitudeDegrees>
            </Position>
            <AltitudeMeters>568.4000244140625</AltitudeMeters>
            <DistanceMeters>23609.01408771</DistanceMeters>
          </Trackpoint>
          <Trackpoint>
            <Time>2019-07-26T09:54:43.000Z</Time>
            <Position>
              <LatitudeDegrees>42.95358591713011264801025390625</LatitudeDegrees>
              <LongitudeDegrees>-7.78662736527621746063232421875</LongitudeDegrees>
            </Position>
            <AltitudeMeters>566.4000244140625</AltitudeMeters>
            <DistanceMeters>23629.582926801</DistanceMeters>
          </Trackpoint>
          <Trackpoint>
            <Time>2019-07-26T09:54:44.000Z</Time>
            <Position>
              <LatitudeDegrees>42.953500337898731231689453125</LatitudeDegrees>
              <LongitudeDegrees>-7.7866712026298046112060546875</LongitudeDegrees>
            </Position>
            <AltitudeMeters>565</AltitudeMeters>
            <DistanceMeters>23639.75522477</DistanceMeters>
          </Trackpoint>
          <Trackpoint>
            <Time>2019-07-26T09:54:45.000Z</Time>
            <Position>
              <LatitudeDegrees>42.95341827906668186187744140625</LatitudeDegrees>
              <LongitudeDegrees>-7.786713279783725738525390625</LongitudeDegrees>
            </Position>
            <AltitudeMeters>563.79998779296875</AltitudeMeters>
            <DistanceMeters>23649.510632278</DistanceMeters>
          </Trackpoint>
          <Trackpoint>
            <Time>2019-07-26T09:54:46.000Z</Time>
            <Position>
              <LatitudeDegrees>42.9533471167087554931640625</LatitudeDegrees>
              <LongitudeDegrees>-7.786766588687896728515625</LongitudeDegrees>
            </Position>
            <AltitudeMeters>562.5999755859375</AltitudeMeters>
            <DistanceMeters>23658.543670014</DistanceMeters>
          </Trackpoint>
          <Trackpoint>
            <Time>2019-07-26T09:54:47.000Z</Time>
            <Position>
              <LatitudeDegrees>42.9532983340322971343994140625</LatitudeDegrees>
              <LongitudeDegrees>-7.786838673055171966552734375</LongitudeDegrees>
            </Position>
            <AltitudeMeters>561.5999755859375</AltitudeMeters>
            <DistanceMeters>23666.540607014</DistanceMeters>
          </Trackpoint>
          <Trackpoint>
            <Time>2019-07-26T09:54:48.000Z</Time>
            <Position>
              <LatitudeDegrees>42.95327159576117992401123046875</LatitudeDegrees>
              <LongitudeDegrees>-7.786935903131961822509765625</LongitudeDegrees>
            </Position>
            <AltitudeMeters>560.5999755859375</AltitudeMeters>
            <DistanceMeters>23675.001720773</DistanceMeters>
          </Trackpoint>
          <Trackpoint>
            <Time>2019-07-26T09:54:49.000Z</Time>
            <Position>
              <LatitudeDegrees>42.9532611183822154998779296875</LatitudeDegrees>
              <LongitudeDegrees>-7.78704763390123844146728515625</LongitudeDegrees>
            </Position>
            <AltitudeMeters>559.79998779296875</AltitudeMeters>
            <DistanceMeters>23684.177582191</DistanceMeters>
          </Trackpoint>
          <Trackpoint>
            <Time>2019-07-26T09:54:50.000Z</Time>
            <Position>
              <LatitudeDegrees>42.9532795585691928863525390625</LatitudeDegrees>
              <LongitudeDegrees>-7.78717369772493839263916015625</LongitudeDegrees>
            </Position>
            <AltitudeMeters>558.79998779296875</AltitudeMeters>
            <DistanceMeters>23694.650371146</DistanceMeters>
          </Trackpoint>
          <Trackpoint>
            <Time>2019-07-26T09:54:51.000Z</Time>
            <Position>
              <LatitudeDegrees>42.953292466700077056884765625</LatitudeDegrees>
              <LongitudeDegrees>-7.78731711208820343017578125</LongitudeDegrees>
            </Position>
            <AltitudeMeters>557.5999755859375</AltitudeMeters>
            <DistanceMeters>23706.42141583</DistanceMeters>
          </Trackpoint>
          <Trackpoint>
            <Time>2019-07-26T09:54:52.000Z</Time>
            <Position>
              <LatitudeDegrees>42.95330495573580265045166015625</LatitudeDegrees>
              <LongitudeDegrees>-7.78746555559337139129638671875</LongitudeDegrees>
            </Position>
            <AltitudeMeters>556.4000244140625</AltitudeMeters>
            <DistanceMeters>23718.593740764</DistanceMeters>
          </Trackpoint>
          <Trackpoint>
            <Time>2019-07-26T09:54:53.000Z</Time>
            <Position>
              <LatitudeDegrees>42.9533135890960693359375</LatitudeDegrees>
              <LongitudeDegrees>-7.78762280009686946868896484375</LongitudeDegrees>
            </Position>
            <AltitudeMeters>555.20001220703125</AltitudeMeters>
            <DistanceMeters>23731.439229733</DistanceMeters>
          </Trackpoint>
          <Trackpoint>
            <Time>2019-07-26T09:54:54.000Z</Time>
            <Position>
              <LatitudeDegrees>42.95331828296184539794921875</LatitudeDegrees>
              <LongitudeDegrees>-7.7877890132367610931396484375</LongitudeDegrees>
            </Position>
            <AltitudeMeters>553.4000244140625</AltitudeMeters>
            <DistanceMeters>23744.989785973</DistanceMeters>
          </Trackpoint>
          <Trackpoint>
            <Time>2019-07-26T09:54:55.000Z</Time>
            <Position>
              <LatitudeDegrees>42.95331970788538455963134765625</LatitudeDegrees>
              <LongitudeDegrees>-7.7879559807479381561279296875</LongitudeDegrees>
            </Position>
            <AltitudeMeters>552</AltitudeMeters>
            <DistanceMeters>23758.592222017</DistanceMeters>
          </Trackpoint>
          <Trackpoint>
            <Time>2019-07-26T09:54:56.000Z</Time>
            <Position>
              <LatitudeDegrees>42.95331032015383243560791015625</LatitudeDegrees>
              <LongitudeDegrees>-7.78812051750719547271728515625</LongitudeDegrees>
            </Position>
            <AltitudeMeters>550.79998779296875</AltitudeMeters>
            <DistanceMeters>23772.03640329</DistanceMeters>
          </Trackpoint>
          <Trackpoint>
            <Time>2019-07-26T09:54:57.000Z</Time>
            <Position>
              <LatitudeDegrees>42.953286431729793548583984375</LatitudeDegrees>
              <LongitudeDegrees>-7.788281701505184173583984375</LongitudeDegrees>
            </Position>
            <AltitudeMeters>549.5999755859375</AltitudeMeters>
            <DistanceMeters>23785.433148019</DistanceMeters>
          </Trackpoint>
          <Trackpoint>
            <Time>2019-07-26T09:54:59.000Z</Time>
            <Position>
              <LatitudeDegrees>42.95320537872612476348876953125</LatitudeDegrees>
              <LongitudeDegrees>-7.78859250247478485107421875</LongitudeDegrees>
            </Position>
            <AltitudeMeters>547.5999755859375</AltitudeMeters>
            <DistanceMeters>23812.311097637</DistanceMeters>
          </Trackpoint>
          <Trackpoint>
            <Time>2019-07-26T09:55:00.000Z</Time>
            <Position>
              <LatitudeDegrees>42.9531658999621868133544921875</LatitudeDegrees>
              <LongitudeDegrees>-7.7887445501983165740966796875</LongitudeDegrees>
            </Position>
            <AltitudeMeters>546.20001220703125</AltitudeMeters>
            <DistanceMeters>23825.453673572</DistanceMeters>
          </Trackpoint>
          <Trackpoint>
            <Time>2019-07-26T09:55:01.000Z</Time>
            <Position>
              <LatitudeDegrees>42.95313061214983463287353515625</LatitudeDegrees>
              <LongitudeDegrees>-7.78889022767543792724609375</LongitudeDegrees>
            </Position>
            <AltitudeMeters>544.5999755859375</AltitudeMeters>
            <DistanceMeters>23837.953931281</DistanceMeters>
          </Trackpoint>
          <Trackpoint>
            <Time>2019-07-26T09:55:02.000Z</Time>
            <Position>
              <LatitudeDegrees>42.9530884511768817901611328125</LatitudeDegrees>
              <LongitudeDegrees>-7.78902408666908740997314453125</LongitudeDegrees>
            </Position>
            <AltitudeMeters>543.5999755859375</AltitudeMeters>
            <DistanceMeters>23849.825426682</DistanceMeters>
          </Trackpoint>
          <Trackpoint>
            <Time>2019-07-26T09:55:03.000Z</Time>
            <Position>
              <LatitudeDegrees>42.9530448652803897857666015625</LatitudeDegrees>
              <LongitudeDegrees>-7.78913992457091808319091796875</LongitudeDegrees>
            </Position>
            <AltitudeMeters>542.4000244140625</AltitudeMeters>
            <DistanceMeters>23860.436128502</DistanceMeters>
          </Trackpoint>
          <Trackpoint>
            <Time>2019-07-26T09:55:04.000Z</Time>
            <Position>
              <LatitudeDegrees>42.95299105346202850341796875</LatitudeDegrees>
              <LongitudeDegrees>-7.78922952711582183837890625</LongitudeDegrees>
            </Position>
            <AltitudeMeters>541.4000244140625</AltitudeMeters>
            <DistanceMeters>23869.877786971</DistanceMeters>
          </Trackpoint>
          <Trackpoint>
            <Time>2019-07-26T09:55:06.000Z</Time>
            <Position>
              <LatitudeDegrees>42.95286339707672595977783203125</LatitudeDegrees>
              <LongitudeDegrees>-7.78933279216289520263671875</LongitudeDegrees>
            </Position>
            <AltitudeMeters>538.20001220703125</AltitudeMeters>
            <DistanceMeters>23886.3897553</DistanceMeters>
          </Trackpoint>
          <Trackpoint>
            <Time>2019-07-26T09:55:08.000Z</Time>
            <Position>
              <LatitudeDegrees>42.952707074582576751708984375</LatitudeDegrees>
              <LongitudeDegrees>-7.7893939800560474395751953125</LongitudeDegrees>
            </Position>
            <AltitudeMeters>536.20001220703125</AltitudeMeters>
            <DistanceMeters>23904.488290957</DistanceMeters>
          </Trackpoint>
          <Trackpoint>
            <Time>2019-07-26T09:55:09.000Z</Time>
            <Position>
              <LatitudeDegrees>42.95263507403433322906494140625</LatitudeDegrees>
              <LongitudeDegrees>-7.7894298546016216278076171875</LongitudeDegrees>
            </Position>
            <AltitudeMeters>534.79998779296875</AltitudeMeters>
            <DistanceMeters>23913.018493533</DistanceMeters>
          </Trackpoint>
          <Trackpoint>
            <Time>2019-07-26T09:55:10.000Z</Time>
            <Position>
              <LatitudeDegrees>42.95254672877490520477294921875</LatitudeDegrees>
              <LongitudeDegrees>-7.78947536833584308624267578125</LongitudeDegrees>
            </Position>
            <AltitudeMeters>533.4000244140625</AltitudeMeters>
            <DistanceMeters>23923.526574935</DistanceMeters>
          </Trackpoint>
          <Trackpoint>
            <Time>2019-07-26T09:55:11.000Z</Time>
            <Position>
              <LatitudeDegrees>42.95245536603033542633056640625</LatitudeDegrees>
              <LongitudeDegrees>-7.7895118296146392822265625</LongitudeDegrees>
            </Position>
            <AltitudeMeters>531.79998779296875</AltitudeMeters>
            <DistanceMeters>23934.120242385</DistanceMeters>
          </Trackpoint>
          <Trackpoint>
            <Time>2019-07-26T09:55:12.000Z</Time>
            <Position>
              <LatitudeDegrees>42.95236266218125820159912109375</LatitudeDegrees>
              <LongitudeDegrees>-7.78953957371413707733154296875</LongitudeDegrees>
            </Position>
            <AltitudeMeters>530.4000244140625</AltitudeMeters>
            <DistanceMeters>23944.682323827</DistanceMeters>
          </Trackpoint>
          <Trackpoint>
            <Time>2019-07-26T09:55:13.000Z</Time>
            <Position>
              <LatitudeDegrees>42.95226559974253177642822265625</LatitudeDegrees>
              <LongitudeDegrees>-7.78957611881196498870849609375</LongitudeDegrees>
            </Position>
            <AltitudeMeters>528.79998779296875</AltitudeMeters>
            <DistanceMeters>23955.887823055</DistanceMeters>
          </Trackpoint>
          <Trackpoint>
            <Time>2019-07-26T09:55:15.000Z</Time>
            <Position>
              <LatitudeDegrees>42.95207449235022068023681640625</LatitudeDegrees>
              <LongitudeDegrees>-7.7896115742623805999755859375</LongitudeDegrees>
            </Position>
            <AltitudeMeters>527.20001220703125</AltitudeMeters>
            <DistanceMeters>23977.353766798</DistanceMeters>
          </Trackpoint>
          <Trackpoint>
            <Time>2019-07-26T09:55:16.000Z</Time>
            <Position>
              <LatitudeDegrees>42.95198597945272922515869140625</LatitudeDegrees>
              <LongitudeDegrees>-7.789639569818973541259765625</LongitudeDegrees>
            </Position>
            <AltitudeMeters>526.5999755859375</AltitudeMeters>
            <DistanceMeters>23987.465966641</DistanceMeters>
          </Trackpoint>
          <Trackpoint>
            <Time>2019-07-26T09:55:17.000Z</Time>
            <Position>
              <LatitudeDegrees>42.95191540382802486419677734375</LatitudeDegrees>
              <LongitudeDegrees>-7.78969581238925457000732421875</LongitudeDegrees>
            </Position>
            <AltitudeMeters>525.79998779296875</AltitudeMeters>
            <DistanceMeters>23996.559779926</DistanceMeters>
          </Trackpoint>
          <Trackpoint>
            <Time>2019-07-26T09:55:18.000Z</Time>
            <Position>
              <LatitudeDegrees>42.95185974799096584320068359375</LatitudeDegrees>
              <LongitudeDegrees>-7.78976202942430973052978515625</LongitudeDegrees>
            </Position>
            <AltitudeMeters>524.79998779296875</AltitudeMeters>
            <DistanceMeters>24004.773958594</DistanceMeters>
          </Trackpoint>
          <Trackpoint>
            <Time>2019-07-26T09:55:19.000Z</Time>
            <Position>
              <LatitudeDegrees>42.951824963092803955078125</LatitudeDegrees>
              <LongitudeDegrees>-7.78983009047806262969970703125</LongitudeDegrees>
            </Position>
            <AltitudeMeters>523.79998779296875</AltitudeMeters>
            <DistanceMeters>24011.536229449</DistanceMeters>
          </Trackpoint>
          <Trackpoint>
            <Time>2019-07-26T09:55:21.000Z</Time>
            <Position>
              <LatitudeDegrees>42.951771318912506103515625</LatitudeDegrees>
              <LongitudeDegrees>-7.789949364960193634033203125</LongitudeDegrees>
            </Position>
            <AltitudeMeters>522.4000244140625</AltitudeMeters>
            <DistanceMeters>24022.940622946</DistanceMeters>
          </Trackpoint>
          <Trackpoint>
            <Time>2019-07-26T09:55:22.000Z</Time>
            <Position>
              <LatitudeDegrees>42.95174726285040378570556640625</LatitudeDegrees>
              <LongitudeDegrees>-7.79000979848206043243408203125</LongitudeDegrees>
            </Position>
            <AltitudeMeters>522.20001220703125</AltitudeMeters>
            <DistanceMeters>24028.544782639</DistanceMeters>
          </Trackpoint>
          <Trackpoint>
            <Time>2019-07-26T09:55:23.000Z</Time>
            <Position>
              <LatitudeDegrees>42.95172379352152347564697265625</LatitudeDegrees>
              <LongitudeDegrees>-7.790068723261356353759765625</LongitudeDegrees>
            </Position>
            <AltitudeMeters>522</AltitudeMeters>
            <DistanceMeters>24034.010264583</DistanceMeters>
          </Trackpoint>
          <Trackpoint>
            <Time>2019-07-26T09:55:25.000Z</Time>
            <Position>
              <LatitudeDegrees>42.9516789503395557403564453125</LatitudeDegrees>
              <LongitudeDegrees>-7.7901775203645229339599609375</LongitudeDegrees>
            </Position>
            <AltitudeMeters>522</AltitudeMeters>
            <DistanceMeters>24044.182562552</DistanceMeters>
          </Trackpoint>
          <Trackpoint>
            <Time>2019-07-26T09:55:26.000Z</Time>
            <Position>
              <LatitudeDegrees>42.95166109688580036163330078125</LatitudeDegrees>
              <LongitudeDegrees>-7.79022538103163242340087890625</LongitudeDegrees>
            </Position>
            <AltitudeMeters>522</AltitudeMeters>
            <DistanceMeters>24048.557921058</DistanceMeters>
          </Trackpoint>
          <Trackpoint>
            <Time>2019-07-26T09:55:28.000Z</Time>
            <Position>
              <LatitudeDegrees>42.951627485454082489013671875</LatitudeDegrees>
              <LongitudeDegrees>-7.7903163246810436248779296875</LongitudeDegrees>
            </Position>
            <AltitudeMeters>522</AltitudeMeters>
            <DistanceMeters>24056.857404363</DistanceMeters>
          </Trackpoint>
          <Trackpoint>
            <Time>2019-07-26T09:55:30.000Z</Time>
            <Position>
              <LatitudeDegrees>42.95159571804106235504150390625</LatitudeDegrees>
              <LongitudeDegrees>-7.790403999388217926025390625</LongitudeDegrees>
            </Position>
            <AltitudeMeters>522</AltitudeMeters>
            <DistanceMeters>24064.827761179</DistanceMeters>
          </Trackpoint>
          <Trackpoint>
            <Time>2019-07-26T09:55:32.000Z</Time>
            <Position>
              <LatitudeDegrees>42.9515642859041690826416015625</LatitudeDegrees>
              <LongitudeDegrees>-7.79048823751509189605712890625</LongitudeDegrees>
            </Position>
            <AltitudeMeters>522.20001220703125</AltitudeMeters>
            <DistanceMeters>24072.530788656</DistanceMeters>
          </Trackpoint>
          <Trackpoint>
            <Time>2019-07-26T09:55:34.000Z</Time>
            <Position>
              <LatitudeDegrees>42.9515393078327178955078125</LatitudeDegrees>
              <LongitudeDegrees>-7.79057691805064678192138671875</LongitudeDegrees>
            </Position>
            <AltitudeMeters>523</AltitudeMeters>
            <DistanceMeters>24080.271821358</DistanceMeters>
          </Trackpoint>
          <Trackpoint>
            <Time>2019-07-26T09:55:37.000Z</Time>
            <Position>
              <LatitudeDegrees>42.9514935426414012908935546875</LatitudeDegrees>
              <LongitudeDegrees>-7.79071337543427944183349609375</LongitudeDegrees>
            </Position>
            <AltitudeMeters>523.4000244140625</AltitudeMeters>
            <DistanceMeters>24092.499658687</DistanceMeters>
          </Trackpoint>
          <Trackpoint>
            <Time>2019-07-26T09:55:39.000Z</Time>
            <Position>
              <LatitudeDegrees>42.9514603503048419952392578125</LatitudeDegrees>
              <LongitudeDegrees>-7.79080121777951717376708984375</LongitudeDegrees>
            </Position>
            <AltitudeMeters>523.79998779296875</AltitudeMeters>
            <DistanceMeters>24100.55285737</DistanceMeters>
          </Trackpoint>
          <Trackpoint>
            <Time>2019-07-26T09:55:43.000Z</Time>
            <Position>
              <LatitudeDegrees>42.95139974914491176605224609375</LatitudeDegrees>
              <LongitudeDegrees>-7.7909701131284236907958984375</LongitudeDegrees>
            </Position>
            <AltitudeMeters>524.5999755859375</AltitudeMeters>
            <DistanceMeters>24115.876043973</DistanceMeters>
          </Trackpoint>
          <Trackpoint>
            <Time>2019-07-26T09:55:46.000Z</Time>
            <Position>
              <LatitudeDegrees>42.95138415880501270294189453125</LatitudeDegrees>
              <LongitudeDegrees>-7.7910988591611385345458984375</LongitudeDegrees>
            </Position>
            <AltitudeMeters>525.20001220703125</AltitudeMeters>
            <DistanceMeters>24126.507151008</DistanceMeters>
          </Trackpoint>
          <Trackpoint>
            <Time>2019-07-26T09:55:50.000Z</Time>
            <Position>
              <LatitudeDegrees>42.95138843357563018798828125</LatitudeDegrees>
              <LongitudeDegrees>-7.791267000138759613037109375</LongitudeDegrees>
            </Position>
            <AltitudeMeters>525.79998779296875</AltitudeMeters>
            <DistanceMeters>24140.213416376</DistanceMeters>
          </Trackpoint>
          <Trackpoint>
            <Time>2019-07-26T09:55:54.000Z</Time>
            <Position>
              <LatitudeDegrees>42.95140008442103862762451171875</LatitudeDegrees>
              <LongitudeDegrees>-7.79142147861421108245849609375</LongitudeDegrees>
            </Position>
            <AltitudeMeters>526.5999755859375</AltitudeMeters>
            <DistanceMeters>24152.864823609</DistanceMeters>
          </Trackpoint>
          <Trackpoint>
            <Time>2019-07-26T09:55:56.000Z</Time>
            <Position>
              <LatitudeDegrees>42.95140712521970272064208984375</LatitudeDegrees>
              <LongitudeDegrees>-7.79149423353374004364013671875</LongitudeDegrees>
            </Position>
            <AltitudeMeters>527</AltitudeMeters>
            <DistanceMeters>24158.843204875</DistanceMeters>
          </Trackpoint>
          <Trackpoint>
            <Time>2019-07-26T09:56:00.000Z</Time>
            <Position>
              <LatitudeDegrees>42.95143478550016880035400390625</LatitudeDegrees>
              <LongitudeDegrees>-7.79163454659283161163330078125</LongitudeDegrees>
            </Position>
            <AltitudeMeters>528</AltitudeMeters>
            <DistanceMeters>24170.680802868</DistanceMeters>
          </Trackpoint>
          <Trackpoint>
            <Time>2019-07-26T09:56:02.000Z</Time>
            <Position>
              <LatitudeDegrees>42.95144744217395782470703125</LatitudeDegrees>
              <LongitudeDegrees>-7.79171098954975605010986328125</LongitudeDegrees>
            </Position>
            <AltitudeMeters>528.79998779296875</AltitudeMeters>
            <DistanceMeters>24177.065296981</DistanceMeters>
          </Trackpoint>
          <Trackpoint>
            <Time>2019-07-26T09:56:03.000Z</Time>
            <Position>
              <LatitudeDegrees>42.95144836418330669403076171875</LatitudeDegrees>
              <LongitudeDegrees>-7.79175306670367717742919921875</LongitudeDegrees>
            </Position>
            <AltitudeMeters>529.20001220703125</AltitudeMeters>
            <DistanceMeters>24180.494168446</DistanceMeters>
          </Trackpoint>
          <Trackpoint>
            <Time>2019-07-26T09:56:07.000Z</Time>
            <Position>
              <LatitudeDegrees>42.95147426426410675048828125</LatitudeDegrees>
              <LongitudeDegrees>-7.79191173613071441650390625</LongitudeDegrees>
            </Position>
            <AltitudeMeters>530.20001220703125</AltitudeMeters>
            <DistanceMeters>24193.738042685</DistanceMeters>
          </Trackpoint>
          <Trackpoint>
            <Time>2019-07-26T09:56:08.000Z</Time>
            <Position>
              <LatitudeDegrees>42.95148155651986598968505859375</LatitudeDegrees>
              <LongitudeDegrees>-7.79194937087595462799072265625</LongitudeDegrees>
            </Position>
            <AltitudeMeters>530.5999755859375</AltitudeMeters>
            <DistanceMeters>24196.909714982</DistanceMeters>
          </Trackpoint>
          <Trackpoint>
            <Time>2019-07-26T09:56:10.000Z</Time>
            <Position>
              <LatitudeDegrees>42.95149764977395534515380859375</LatitudeDegrees>
              <LongitudeDegrees>-7.7920175157487392425537109375</LongitudeDegrees>
            </Position>
            <AltitudeMeters>531.20001220703125</AltitudeMeters>
            <DistanceMeters>24202.742838334</DistanceMeters>
          </Trackpoint>
          <Trackpoint>
            <Time>2019-07-26T09:56:14.000Z</Time>
            <Position>
              <LatitudeDegrees>42.9515404812991619110107421875</LatitudeDegrees>
              <LongitudeDegrees>-7.79215179383754730224609375</LongitudeDegrees>
            </Position>
            <AltitudeMeters>532.5999755859375</AltitudeMeters>
            <DistanceMeters>24214.675409112</DistanceMeters>
          </Trackpoint>
          <Trackpoint>
            <Time>2019-07-26T09:56:19.000Z</Time>
            <Position>
              <LatitudeDegrees>42.9515956342220306396484375</LatitudeDegrees>
              <LongitudeDegrees>-7.7923263050615787506103515625</LongitudeDegrees>
            </Position>
            <AltitudeMeters>533.79998779296875</AltitudeMeters>
            <DistanceMeters>24230.160682115</DistanceMeters>
          </Trackpoint>
          <Trackpoint>
            <Time>2019-07-26T09:56:20.000Z</Time>
            <Position>
              <LatitudeDegrees>42.95160359703004360198974609375</LatitudeDegrees>
              <LongitudeDegrees>-7.79236276634037494659423828125</LongitudeDegrees>
            </Position>
            <AltitudeMeters>534</AltitudeMeters>
            <DistanceMeters>24233.260359733</DistanceMeters>
          </Trackpoint>
          <Trackpoint>
            <Time>2019-07-26T09:56:23.000Z</Time>
            <Position>
              <LatitudeDegrees>42.951624803245067596435546875</LatitudeDegrees>
              <LongitudeDegrees>-7.79246988706290721893310546875</LongitudeDegrees>
            </Position>
            <AltitudeMeters>534.79998779296875</AltitudeMeters>
            <DistanceMeters>24242.300392466</DistanceMeters>
          </Trackpoint>
          <Trackpoint>
            <Time>2019-07-26T09:56:28.000Z</Time>
            <Position>
              <LatitudeDegrees>42.95166059397161006927490234375</LatitudeDegrees>
              <LongitudeDegrees>-7.79264540411531925201416015625</LongitudeDegrees>
            </Position>
            <AltitudeMeters>536</AltitudeMeters>
            <DistanceMeters>24257.143431409</DistanceMeters>
          </Trackpoint>
          <Trackpoint>
            <Time>2019-07-26T09:56:29.000Z</Time>
            <Position>
              <LatitudeDegrees>42.951673083007335662841796875</LatitudeDegrees>
              <LongitudeDegrees>-7.79267524369060993194580078125</LongitudeDegrees>
            </Position>
            <AltitudeMeters>536.20001220703125</AltitudeMeters>
            <DistanceMeters>24259.944705482</DistanceMeters>
          </Trackpoint>
          <Trackpoint>
            <Time>2019-07-26T09:56:33.000Z</Time>
            <Position>
              <LatitudeDegrees>42.95171239413321018218994140625</LatitudeDegrees>
              <LongitudeDegrees>-7.7928282134234905242919921875</LongitudeDegrees>
            </Position>
            <AltitudeMeters>537.20001220703125</AltitudeMeters>
            <DistanceMeters>24273.152393272</DistanceMeters>
          </Trackpoint>
          <Trackpoint>
            <Time>2019-07-26T09:56:35.000Z</Time>
            <Position>
              <LatitudeDegrees>42.951728738844394683837890625</LatitudeDegrees>
              <LongitudeDegrees>-7.79291882179677486419677734375</LongitudeDegrees>
            </Position>
            <AltitudeMeters>537.5999755859375</AltitudeMeters>
            <DistanceMeters>24280.754530421</DistanceMeters>
          </Trackpoint>
          <Trackpoint>
            <Time>2019-07-26T09:56:38.000Z</Time>
            <Position>
              <LatitudeDegrees>42.95174960978329181671142578125</LatitudeDegrees>
              <LongitudeDegrees>-7.79306106269359588623046875</LongitudeDegrees>
            </Position>
            <AltitudeMeters>538.20001220703125</AltitudeMeters>
            <DistanceMeters>24292.572278188</DistanceMeters>
          </Trackpoint>
          <Trackpoint>
            <Time>2019-07-26T09:56:43.000Z</Time>
            <Position>
              <LatitudeDegrees>42.95177425257861614227294921875</LatitudeDegrees>
              <LongitudeDegrees>-7.79328770935535430908203125</LongitudeDegrees>
            </Position>
            <AltitudeMeters>539.20001220703125</AltitudeMeters>
            <DistanceMeters>24311.238679278</DistanceMeters>
          </Trackpoint>
          <Trackpoint>
            <Time>2019-07-26T09:56:44.000Z</Time>
            <Position>
              <LatitudeDegrees>42.9517765156924724578857421875</LatitudeDegrees>
              <LongitudeDegrees>-7.79333054088056087493896484375</LongitudeDegrees>
            </Position>
            <AltitudeMeters>539.20001220703125</AltitudeMeters>
            <DistanceMeters>24314.737934007</DistanceMeters>
          </Trackpoint>
          <Trackpoint>
            <Time>2019-07-26T09:56:50.000Z</Time>
            <Position>
              <LatitudeDegrees>42.9517315886914730072021484375</LatitudeDegrees>
              <LongitudeDegrees>-7.79360295273363590240478515625</LongitudeDegrees>
            </Position>
            <AltitudeMeters>539.5999755859375</AltitudeMeters>
            <DistanceMeters>24337.486464088</DistanceMeters>
          </Trackpoint>
          <Trackpoint>
            <Time>2019-07-26T09:56:55.000Z</Time>
            <Position>
              <LatitudeDegrees>42.95168071053922176361083984375</LatitudeDegrees>
              <LongitudeDegrees>-7.79382524080574512481689453125</LongitudeDegrees>
            </Position>
            <AltitudeMeters>540.20001220703125</AltitudeMeters>
            <DistanceMeters>24356.459946307</DistanceMeters>
          </Trackpoint>
          <Trackpoint>
            <Time>2019-07-26T09:57:00.000Z</Time>
            <Position>
              <LatitudeDegrees>42.9516591690480709075927734375</LatitudeDegrees>
              <LongitudeDegrees>-7.79405306093394756317138671875</LongitudeDegrees>
            </Position>
            <AltitudeMeters>541</AltitudeMeters>
            <DistanceMeters>24375.173454652</DistanceMeters>
          </Trackpoint>
          <Trackpoint>
            <Time>2019-07-26T09:57:03.000Z</Time>
            <Position>
              <LatitudeDegrees>42.9516286589205265045166015625</LatitudeDegrees>
              <LongitudeDegrees>-7.79418784193694591522216796875</LongitudeDegrees>
            </Position>
            <AltitudeMeters>541.4000244140625</AltitudeMeters>
            <DistanceMeters>24386.666581217</DistanceMeters>
          </Trackpoint>
          <Trackpoint>
            <Time>2019-07-26T09:57:08.000Z</Time>
            <Position>
              <LatitudeDegrees>42.9515874199569225311279296875</LatitudeDegrees>
              <LongitudeDegrees>-7.79440778307616710662841796875</LongitudeDegrees>
            </Position>
            <AltitudeMeters>542.20001220703125</AltitudeMeters>
            <DistanceMeters>24405.162646909</DistanceMeters>
          </Trackpoint>
          <Trackpoint>
            <Time>2019-07-26T09:57:10.000Z</Time>
            <Position>
              <LatitudeDegrees>42.95157350599765777587890625</LatitudeDegrees>
              <LongitudeDegrees>-7.79449210502207279205322265625</LongitudeDegrees>
            </Position>
            <AltitudeMeters>542.4000244140625</AltitudeMeters>
            <DistanceMeters>24412.203607047</DistanceMeters>
          </Trackpoint>
          <Trackpoint>
            <Time>2019-07-26T09:57:17.000Z</Time>
            <Position>
              <LatitudeDegrees>42.9514995776116847991943359375</LatitudeDegrees>
              <LongitudeDegrees>-7.79478999786078929901123046875</LongitudeDegrees>
            </Position>
            <AltitudeMeters>543.4000244140625</AltitudeMeters>
            <DistanceMeters>24437.828419997</DistanceMeters>
          </Trackpoint>
          <Trackpoint>
            <Time>2019-07-26T09:57:18.000Z</Time>
            <Position>
              <LatitudeDegrees>42.951492369174957275390625</LatitudeDegrees>
              <LongitudeDegrees>-7.79483157210052013397216796875</LongitudeDegrees>
            </Position>
            <AltitudeMeters>543.5999755859375</AltitudeMeters>
            <DistanceMeters>24441.306968895</DistanceMeters>
          </Trackpoint>
          <Trackpoint>
            <Time>2019-07-26T09:57:23.000Z</Time>
            <Position>
              <LatitudeDegrees>42.95145959593355655670166015625</LatitudeDegrees>
              <LongitudeDegrees>-7.79503474943339824676513671875</LongitudeDegrees>
            </Position>
            <AltitudeMeters>544.5999755859375</AltitudeMeters>
            <DistanceMeters>24458.255856523</DistanceMeters>
          </Trackpoint>
          <Trackpoint>
            <Time>2019-07-26T09:57:28.000Z</Time>
            <Position>
              <LatitudeDegrees>42.9514643736183643341064453125</LatitudeDegrees>
              <LongitudeDegrees>-7.7952230907976627349853515625</LongitudeDegrees>
            </Position>
            <AltitudeMeters>545.79998779296875</AltitudeMeters>
            <DistanceMeters>24473.608480251</DistanceMeters>
          </Trackpoint>
          <Trackpoint>
            <Time>2019-07-26T09:57:30.000Z</Time>
            <Position>
              <LatitudeDegrees>42.95147962868213653564453125</LatitudeDegrees>
              <LongitudeDegrees>-7.79528654180467128753662109375</LongitudeDegrees>
            </Position>
            <AltitudeMeters>546</AltitudeMeters>
            <DistanceMeters>24479.04912273</DistanceMeters>
          </Trackpoint>
          <Trackpoint>
            <Time>2019-07-26T09:57:34.000Z</Time>
            <Position>
              <LatitudeDegrees>42.9514891840517520904541015625</LatitudeDegrees>
              <LongitudeDegrees>-7.7954314649105072021484375</LongitudeDegrees>
            </Position>
            <AltitudeMeters>546.79998779296875</AltitudeMeters>
            <DistanceMeters>24490.903110226</DistanceMeters>
          </Trackpoint>
          <Trackpoint>
            <Time>2019-07-26T09:57:36.000Z</Time>
            <Position>
              <LatitudeDegrees>42.95148205943405628204345703125</LatitudeDegrees>
              <LongitudeDegrees>-7.7955006994307041168212890625</LongitudeDegrees>
            </Position>
            <AltitudeMeters>547.20001220703125</AltitudeMeters>
            <DistanceMeters>24496.599167166</DistanceMeters>
          </Trackpoint>
          <Trackpoint>
            <Time>2019-07-26T09:57:40.000Z</Time>
            <Position>
              <LatitudeDegrees>42.951474599540233612060546875</LatitudeDegrees>
              <LongitudeDegrees>-7.795637659728527069091796875</LongitudeDegrees>
            </Position>
            <AltitudeMeters>548.20001220703125</AltitudeMeters>
            <DistanceMeters>24507.787730511</DistanceMeters>
          </Trackpoint>
          <Trackpoint>
            <Time>2019-07-26T09:57:43.000Z</Time>
            <Position>
              <LatitudeDegrees>42.95144744217395782470703125</LatitudeDegrees>
              <LongitudeDegrees>-7.7957447804510593414306640625</LongitudeDegrees>
            </Position>
            <AltitudeMeters>548.79998779296875</AltitudeMeters>
            <DistanceMeters>24517.022449887</DistanceMeters>
          </Trackpoint>
          <Trackpoint>
            <Time>2019-07-26T09:57:45.000Z</Time>
            <Position>
              <LatitudeDegrees>42.95143713243305683135986328125</LatitudeDegrees>
              <LongitudeDegrees>-7.79581409879028797149658203125</LongitudeDegrees>
            </Position>
            <AltitudeMeters>549.4000244140625</AltitudeMeters>
            <DistanceMeters>24522.783922008</DistanceMeters>
          </Trackpoint>
          <Trackpoint>
            <Time>2019-07-26T09:57:50.000Z</Time>
            <Position>
              <LatitudeDegrees>42.9514278285205364227294921875</LatitudeDegrees>
              <LongitudeDegrees>-7.795984335243701934814453125</LongitudeDegrees>
            </Position>
            <AltitudeMeters>550.5999755859375</AltitudeMeters>
            <DistanceMeters>24536.690976954</DistanceMeters>
          </Trackpoint>
          <Trackpoint>
            <Time>2019-07-26T09:57:55.000Z</Time>
            <Position>
              <LatitudeDegrees>42.95143327675759792327880859375</LatitudeDegrees>
              <LongitudeDegrees>-7.79615725390613079071044921875</LongitudeDegrees>
            </Position>
            <AltitudeMeters>551.79998779296875</AltitudeMeters>
            <DistanceMeters>24550.79084089</DistanceMeters>
          </Trackpoint>
          <Trackpoint>
            <Time>2019-07-26T09:57:57.000Z</Time>
            <Position>
              <LatitudeDegrees>42.9514341987669467926025390625</LatitudeDegrees>
              <LongitudeDegrees>-7.79623151756823062896728515625</LongitudeDegrees>
            </Position>
            <AltitudeMeters>552.20001220703125</AltitudeMeters>
            <DistanceMeters>24556.841289625</DistanceMeters>
          </Trackpoint>
          <Trackpoint>
            <Time>2019-07-26T09:58:01.000Z</Time>
            <Position>
              <LatitudeDegrees>42.95144920237362384796142578125</LatitudeDegrees>
              <LongitudeDegrees>-7.79637895524501800537109375</LongitudeDegrees>
            </Position>
            <AltitudeMeters>553</AltitudeMeters>
            <DistanceMeters>24568.96753244</DistanceMeters>
          </Trackpoint>
          <Trackpoint>
            <Time>2019-07-26T09:58:05.000Z</Time>
            <Position>
              <LatitudeDegrees>42.95146680437028408050537109375</LatitudeDegrees>
              <LongitudeDegrees>-7.7965128980576992034912109375</LongitudeDegrees>
            </Position>
            <AltitudeMeters>553.79998779296875</AltitudeMeters>
            <DistanceMeters>24580.053529933</DistanceMeters>
          </Trackpoint>
          <Trackpoint>
            <Time>2019-07-26T09:58:07.000Z</Time>
            <Position>
              <LatitudeDegrees>42.95145708136260509490966796875</LatitudeDegrees>
              <LongitudeDegrees>-7.7965839765965938568115234375</LongitudeDegrees>
            </Position>
            <AltitudeMeters>554</AltitudeMeters>
            <DistanceMeters>24585.943653336</DistanceMeters>
          </Trackpoint>
          <Trackpoint>
            <Time>2019-07-26T09:58:10.000Z</Time>
            <Position>
              <LatitudeDegrees>42.95146529562771320343017578125</LatitudeDegrees>
              <LongitudeDegrees>-7.796688079833984375</LongitudeDegrees>
            </Position>
            <AltitudeMeters>554.5999755859375</AltitudeMeters>
            <DistanceMeters>24594.473855911</DistanceMeters>
          </Trackpoint>
          <Trackpoint>
            <Time>2019-07-26T09:58:13.000Z</Time>
            <Position>
              <LatitudeDegrees>42.951472587883472442626953125</LatitudeDegrees>
              <LongitudeDegrees>-7.7967918477952480316162109375</LongitudeDegrees>
            </Position>
            <AltitudeMeters>555.20001220703125</AltitudeMeters>
            <DistanceMeters>24602.966395023</DistanceMeters>
          </Trackpoint>
          <Trackpoint>
            <Time>2019-07-26T09:58:17.000Z</Time>
            <Position>
              <LatitudeDegrees>42.9514774493873119354248046875</LatitudeDegrees>
              <LongitudeDegrees>-7.79693911783397197723388671875</LongitudeDegrees>
            </Position>
            <AltitudeMeters>556.20001220703125</AltitudeMeters>
            <DistanceMeters>24614.975907126</DistanceMeters>
          </Trackpoint>
          <Trackpoint>
            <Time>2019-07-26T09:58:19.000Z</Time>
            <Position>
              <LatitudeDegrees>42.9514804668724536895751953125</LatitudeDegrees>
              <LongitudeDegrees>-7.79701639898121356964111328125</LongitudeDegrees>
            </Position>
            <AltitudeMeters>556.79998779296875</AltitudeMeters>
            <DistanceMeters>24621.280698678</DistanceMeters>
          </Trackpoint>
          <Trackpoint>
            <Time>2019-07-26T09:58:23.000Z</Time>
            <Position>
              <LatitudeDegrees>42.95148272998631000518798828125</LatitudeDegrees>
              <LongitudeDegrees>-7.79716375283896923065185546875</LongitudeDegrees>
            </Position>
            <AltitudeMeters>557.4000244140625</AltitudeMeters>
            <DistanceMeters>24633.287578806</DistanceMeters>
          </Trackpoint>
          <Trackpoint>
            <Time>2019-07-26T09:58:28.000Z</Time>
            <Position>
              <LatitudeDegrees>42.951500080525875091552734375</LatitudeDegrees>
              <LongitudeDegrees>-7.797365002334117889404296875</LongitudeDegrees>
            </Position>
            <AltitudeMeters>558.20001220703125</AltitudeMeters>
            <DistanceMeters>24649.79544502</DistanceMeters>
          </Trackpoint>
          <Trackpoint>
            <Time>2019-07-26T09:58:29.000Z</Time>
            <Position>
              <LatitudeDegrees>42.951503098011016845703125</LatitudeDegrees>
              <LongitudeDegrees>-7.797413282096385955810546875</LongitudeDegrees>
            </Position>
            <AltitudeMeters>558.4000244140625</AltitudeMeters>
            <DistanceMeters>24653.743344707</DistanceMeters>
          </Trackpoint>
          <Trackpoint>
            <Time>2019-07-26T09:58:34.000Z</Time>
            <Position>
              <LatitudeDegrees>42.951512821018695831298828125</LatitudeDegrees>
              <LongitudeDegrees>-7.79764764010906219482421875</LongitudeDegrees>
            </Position>
            <AltitudeMeters>559.20001220703125</AltitudeMeters>
            <DistanceMeters>24672.866157672</DistanceMeters>
          </Trackpoint>
          <Trackpoint>
            <Time>2019-07-26T09:58:36.000Z</Time>
            <Position>
              <LatitudeDegrees>42.95152681879699230194091796875</LatitudeDegrees>
              <LongitudeDegrees>-7.7977416850626468658447265625</LongitudeDegrees>
            </Position>
            <AltitudeMeters>559.4000244140625</AltitudeMeters>
            <DistanceMeters>24680.68380165</DistanceMeters>
          </Trackpoint>
          <Trackpoint>
            <Time>2019-07-26T09:58:42.000Z</Time>
            <Position>
              <LatitudeDegrees>42.9515629447996616363525390625</LatitudeDegrees>
              <LongitudeDegrees>-7.79806380160152912139892578125</LongitudeDegrees>
            </Position>
            <AltitudeMeters>560</AltitudeMeters>
            <DistanceMeters>24707.231143253</DistanceMeters>
          </Trackpoint>
          <Trackpoint>
            <Time>2019-07-26T09:58:45.000Z</Time>
            <Position>
              <LatitudeDegrees>42.95157090760767459869384765625</LatitudeDegrees>
              <LongitudeDegrees>-7.79822322539985179901123046875</LongitudeDegrees>
            </Position>
            <AltitudeMeters>560.4000244140625</AltitudeMeters>
            <DistanceMeters>24720.248762641</DistanceMeters>
          </Trackpoint>
          <Trackpoint>
            <Time>2019-07-26T09:58:49.000Z</Time>
            <Position>
              <LatitudeDegrees>42.95155498199164867401123046875</LatitudeDegrees>
              <LongitudeDegrees>-7.798451296985149383544921875</LongitudeDegrees>
            </Position>
            <AltitudeMeters>560.5999755859375</AltitudeMeters>
            <DistanceMeters>24738.91298668</DistanceMeters>
          </Trackpoint>
          <Trackpoint>
            <Time>2019-07-26T09:58:55.000Z</Time>
            <Position>
              <LatitudeDegrees>42.9515726678073406219482421875</LatitudeDegrees>
              <LongitudeDegrees>-7.79877441935241222381591796875</LongitudeDegrees>
            </Position>
            <AltitudeMeters>560.79998779296875</AltitudeMeters>
            <DistanceMeters>24765.309895945</DistanceMeters>
          </Trackpoint>
          <Trackpoint>
            <Time>2019-07-26T09:58:58.000Z</Time>
            <Position>
              <LatitudeDegrees>42.951573841273784637451171875</LatitudeDegrees>
              <LongitudeDegrees>-7.7989376150071620941162109375</LongitudeDegrees>
            </Position>
            <AltitudeMeters>561.20001220703125</AltitudeMeters>
            <DistanceMeters>24778.605488315</DistanceMeters>
          </Trackpoint>
          <Trackpoint>
            <Time>2019-07-26T09:59:01.000Z</Time>
            <Position>
              <LatitudeDegrees>42.9515669681131839752197265625</LatitudeDegrees>
              <LongitudeDegrees>-7.79910550452768802642822265625</LongitudeDegrees>
            </Position>
            <AltitudeMeters>561.4000244140625</AltitudeMeters>
            <DistanceMeters>24792.304175061</DistanceMeters>
          </Trackpoint>
          <Trackpoint>
            <Time>2019-07-26T09:59:03.000Z</Time>
            <Position>
              <LatitudeDegrees>42.95157409273087978363037109375</LatitudeDegrees>
              <LongitudeDegrees>-7.79920558445155620574951171875</LongitudeDegrees>
            </Position>
            <AltitudeMeters>561.5999755859375</AltitudeMeters>
            <DistanceMeters>24800.495235309</DistanceMeters>
          </Trackpoint>
          <Trackpoint>
            <Time>2019-07-26T09:59:06.000Z</Time>
            <Position>
              <LatitudeDegrees>42.95156420208513736724853515625</LatitudeDegrees>
              <LongitudeDegrees>-7.7993721328675746917724609375</LongitudeDegrees>
            </Position>
            <AltitudeMeters>561.79998779296875</AltitudeMeters>
            <DistanceMeters>24814.10762557</DistanceMeters>
          </Trackpoint>
          <Trackpoint>
            <Time>2019-07-26T09:59:11.000Z</Time>
            <Position>
              <LatitudeDegrees>42.95154911465942859649658203125</LatitudeDegrees>
              <LongitudeDegrees>-7.7996356599032878875732421875</LongitudeDegrees>
            </Position>
            <AltitudeMeters>562.20001220703125</AltitudeMeters>
            <DistanceMeters>24835.641610003</DistanceMeters>
          </Trackpoint>
          <Trackpoint>
            <Time>2019-07-26T09:59:14.000Z</Time>
            <Position>
              <LatitudeDegrees>42.951532267034053802490234375</LatitudeDegrees>
              <LongitudeDegrees>-7.7997714467346668243408203125</LongitudeDegrees>
            </Position>
            <AltitudeMeters>562.5999755859375</AltitudeMeters>
            <DistanceMeters>24846.861202938</DistanceMeters>
          </Trackpoint>
          <Trackpoint>
            <Time>2019-07-26T09:59:17.000Z</Time>
            <Position>
              <LatitudeDegrees>42.951536290347576141357421875</LatitudeDegrees>
              <LongitudeDegrees>-7.79990497045218944549560546875</LongitudeDegrees>
            </Position>
            <AltitudeMeters>563</AltitudeMeters>
            <DistanceMeters>24857.747880729</DistanceMeters>
          </Trackpoint>
          <Trackpoint>
            <Time>2019-07-26T09:59:22.000Z</Time>
            <Position>
              <LatitudeDegrees>42.95157828368246555328369140625</LatitudeDegrees>
              <LongitudeDegrees>-7.80009825713932514190673828125</LongitudeDegrees>
            </Position>
            <AltitudeMeters>563.5999755859375</AltitudeMeters>
            <DistanceMeters>24874.17293975</DistanceMeters>
          </Trackpoint>
          <Trackpoint>
            <Time>2019-07-26T09:59:30.000Z</Time>
            <Position>
              <LatitudeDegrees>42.95158666558563709259033203125</LatitudeDegrees>
              <LongitudeDegrees>-7.80041593126952648162841796875</LongitudeDegrees>
            </Position>
            <AltitudeMeters>564.5999755859375</AltitudeMeters>
            <DistanceMeters>24900.069070678</DistanceMeters>
          </Trackpoint>
          <Trackpoint>
            <Time>2019-07-26T09:59:32.000Z</Time>
            <Position>
              <LatitudeDegrees>42.951587252318859100341796875</LatitudeDegrees>
              <LongitudeDegrees>-7.80050209723412990570068359375</LongitudeDegrees>
            </Position>
            <AltitudeMeters>564.79998779296875</AltitudeMeters>
            <DistanceMeters>24907.089480725</DistanceMeters>
          </Trackpoint>
          <Trackpoint>
            <Time>2019-07-26T09:59:36.000Z</Time>
            <Position>
              <LatitudeDegrees>42.9515894316136837005615234375</LatitudeDegrees>
              <LongitudeDegrees>-7.800682894885540008544921875</LongitudeDegrees>
            </Position>
            <AltitudeMeters>565.4000244140625</AltitudeMeters>
            <DistanceMeters>24921.820154062</DistanceMeters>
          </Trackpoint>
          <Trackpoint>
            <Time>2019-07-26T09:59:39.000Z</Time>
            <Position>
              <LatitudeDegrees>42.951589263975620269775390625</LatitudeDegrees>
              <LongitudeDegrees>-7.80083888210356235504150390625</LongitudeDegrees>
            </Position>
            <AltitudeMeters>565.79998779296875</AltitudeMeters>
            <DistanceMeters>24934.527467978</DistanceMeters>
          </Trackpoint>
          <Trackpoint>
            <Time>2019-07-26T09:59:43.000Z</Time>
            <Position>
              <LatitudeDegrees>42.9515780322253704071044921875</LatitudeDegrees>
              <LongitudeDegrees>-7.801053039729595184326171875</LongitudeDegrees>
            </Position>
            <AltitudeMeters>566.20001220703125</AltitudeMeters>
            <DistanceMeters>24952.018579719</DistanceMeters>
          </Trackpoint>
          <Trackpoint>
            <Time>2019-07-26T09:59:44.000Z</Time>
            <Position>
              <LatitudeDegrees>42.95157350599765777587890625</LatitudeDegrees>
              <LongitudeDegrees>-7.8011123836040496826171875</LongitudeDegrees>
            </Position>
            <AltitudeMeters>566.20001220703125</AltitudeMeters>
            <DistanceMeters>24956.878896579</DistanceMeters>
          </Trackpoint>
          <Trackpoint>
            <Time>2019-07-26T09:59:49.000Z</Time>
            <Position>
              <LatitudeDegrees>42.95154131948947906494140625</LatitudeDegrees>
              <LongitudeDegrees>-7.80141882598400115966796875</LongitudeDegrees>
            </Position>
            <AltitudeMeters>566.4000244140625</AltitudeMeters>
            <DistanceMeters>24982.098778902</DistanceMeters>
          </Trackpoint>
          <Trackpoint>
            <Time>2019-07-26T09:59:50.000Z</Time>
            <Position>
              <LatitudeDegrees>42.9515210352838039398193359375</LatitudeDegrees>
              <LongitudeDegrees>-7.8014783374965190887451171875</LongitudeDegrees>
            </Position>
            <AltitudeMeters>566.4000244140625</AltitudeMeters>
            <DistanceMeters>24987.446512263</DistanceMeters>
          </Trackpoint>
          <Trackpoint>
            <Time>2019-07-26T09:59:55.000Z</Time>
            <Position>
              <LatitudeDegrees>42.951388098299503326416015625</LatitudeDegrees>
              <LongitudeDegrees>-7.80183188617229461669921875</LongitudeDegrees>
            </Position>
            <AltitudeMeters>566.4000244140625</AltitudeMeters>
            <DistanceMeters>25019.826786751</DistanceMeters>
          </Trackpoint>
          <Trackpoint>
            <Time>2019-07-26T09:59:59.000Z</Time>
            <Position>
              <LatitudeDegrees>42.951262705028057098388671875</LatitudeDegrees>
              <LongitudeDegrees>-7.802116870880126953125</LongitudeDegrees>
            </Position>
            <AltitudeMeters>566</AltitudeMeters>
            <DistanceMeters>25046.915401368</DistanceMeters>
          </Trackpoint>
          <Trackpoint>
            <Time>2019-07-26T10:00:00.000Z</Time>
            <Position>
              <LatitudeDegrees>42.95123630203306674957275390625</LatitudeDegrees>
              <LongitudeDegrees>-7.80218618921935558319091796875</LongitudeDegrees>
            </Position>
            <AltitudeMeters>566</AltitudeMeters>
            <DistanceMeters>25053.281482037</DistanceMeters>
          </Trackpoint>
          <Trackpoint>
            <Time>2019-07-26T10:00:05.000Z</Time>
            <Position>
              <LatitudeDegrees>42.95107939280569553375244140625</LatitudeDegrees>
              <LongitudeDegrees>-7.80255750752985477447509765625</LongitudeDegrees>
            </Position>
            <AltitudeMeters>565.5999755859375</AltitudeMeters>
            <DistanceMeters>25088.210748109</DistanceMeters>
          </Trackpoint>
          <Trackpoint>
            <Time>2019-07-26T10:00:09.000Z</Time>
            <Position>
              <LatitudeDegrees>42.9509651474654674530029296875</LatitudeDegrees>
              <LongitudeDegrees>-7.8028623573482036590576171875</LongitudeDegrees>
            </Position>
            <AltitudeMeters>564.79998779296875</AltitudeMeters>
            <DistanceMeters>25116.11173071</DistanceMeters>
          </Trackpoint>
          <Trackpoint>
            <Time>2019-07-26T10:00:10.000Z</Time>
            <Position>
              <LatitudeDegrees>42.95094209723174571990966796875</LatitudeDegrees>
              <LongitudeDegrees>-7.802935950458049774169921875</LongitudeDegrees>
            </Position>
            <AltitudeMeters>564.5999755859375</AltitudeMeters>
            <DistanceMeters>25122.633360878</DistanceMeters>
          </Trackpoint>
          <Trackpoint>
            <Time>2019-07-26T10:00:13.000Z</Time>
            <Position>
              <LatitudeDegrees>42.95088208280503749847412109375</LatitudeDegrees>
              <LongitudeDegrees>-7.80317089520394802093505859375</LongitudeDegrees>
            </Position>
            <AltitudeMeters>564.20001220703125</AltitudeMeters>
            <DistanceMeters>25142.905479144</DistanceMeters>
          </Trackpoint>
          <Trackpoint>
            <Time>2019-07-26T10:00:14.000Z</Time>
            <Position>
              <LatitudeDegrees>42.9508648999035358428955078125</LatitudeDegrees>
              <LongitudeDegrees>-7.8032425604760646820068359375</LongitudeDegrees>
            </Position>
            <AltitudeMeters>564.20001220703125</AltitudeMeters>
            <DistanceMeters>25149.049233658</DistanceMeters>
          </Trackpoint>
          <Trackpoint>
            <Time>2019-07-26T10:00:15.000Z</Time>
            <Position>
              <LatitudeDegrees>42.9508441127836704254150390625</LatitudeDegrees>
              <LongitudeDegrees>-7.8033149801194667816162109375</LongitudeDegrees>
            </Position>
            <AltitudeMeters>563.79998779296875</AltitudeMeters>
            <DistanceMeters>25155.386169033</DistanceMeters>
          </Trackpoint>
          <Trackpoint>
            <Time>2019-07-26T10:00:16.000Z</Time>
            <Position>
              <LatitudeDegrees>42.950824163854122161865234375</LatitudeDegrees>
              <LongitudeDegrees>-7.803391255438327789306640625</LongitudeDegrees>
            </Position>
            <AltitudeMeters>563.5999755859375</AltitudeMeters>
            <DistanceMeters>25161.984883197</DistanceMeters>
          </Trackpoint>
          <Trackpoint>
            <Time>2019-07-26T10:00:18.000Z</Time>
            <Position>
              <LatitudeDegrees>42.9507936537265777587890625</LatitudeDegrees>
              <LongitudeDegrees>-7.80356836505234241485595703125</LongitudeDegrees>
            </Position>
            <AltitudeMeters>563.20001220703125</AltitudeMeters>
            <DistanceMeters>25176.807527696</DistanceMeters>
          </Trackpoint>
          <Trackpoint>
            <Time>2019-07-26T10:00:19.000Z</Time>
            <Position>
              <LatitudeDegrees>42.9507856070995330810546875</LatitudeDegrees>
              <LongitudeDegrees>-7.8036596439778804779052734375</LongitudeDegrees>
            </Position>
            <AltitudeMeters>563.20001220703125</AltitudeMeters>
            <DistanceMeters>25184.297176211</DistanceMeters>
          </Trackpoint>
          <Trackpoint>
            <Time>2019-07-26T10:00:20.000Z</Time>
            <Position>
              <LatitudeDegrees>42.95078518800437450408935546875</LatitudeDegrees>
              <LongitudeDegrees>-7.8037521801888942718505859375</LongitudeDegrees>
            </Position>
            <AltitudeMeters>563</AltitudeMeters>
            <DistanceMeters>25191.835496386</DistanceMeters>
          </Trackpoint>
          <Trackpoint>
            <Time>2019-07-26T10:00:22.000Z</Time>
            <Position>
              <LatitudeDegrees>42.950789630413055419921875</LatitudeDegrees>
              <LongitudeDegrees>-7.8039349056780338287353515625</LongitudeDegrees>
            </Position>
            <AltitudeMeters>562.5999755859375</AltitudeMeters>
            <DistanceMeters>25206.729550834</DistanceMeters>
          </Trackpoint>
          <Trackpoint>
            <Time>2019-07-26T10:00:25.000Z</Time>
            <Position>
              <LatitudeDegrees>42.9508124291896820068359375</LatitudeDegrees>
              <LongitudeDegrees>-7.8042088262736797332763671875</LongitudeDegrees>
            </Position>
            <AltitudeMeters>561.5999755859375</AltitudeMeters>
            <DistanceMeters>25229.188848913</DistanceMeters>
          </Trackpoint>
          <Trackpoint>
            <Time>2019-07-26T10:00:26.000Z</Time>
            <Position>
              <LatitudeDegrees>42.95081385411322116851806640625</LatitudeDegrees>
              <LongitudeDegrees>-7.80430681072175502777099609375</LongitudeDegrees>
            </Position>
            <AltitudeMeters>561.20001220703125</AltitudeMeters>
            <DistanceMeters>25237.172789645</DistanceMeters>
          </Trackpoint>
          <Trackpoint>
            <Time>2019-07-26T10:00:29.000Z</Time>
            <Position>
              <LatitudeDegrees>42.950855009257793426513671875</LatitudeDegrees>
              <LongitudeDegrees>-7.80457637272775173187255859375</LongitudeDegrees>
            </Position>
            <AltitudeMeters>560.20001220703125</AltitudeMeters>
            <DistanceMeters>25259.6055358</DistanceMeters>
          </Trackpoint>
          <Trackpoint>
            <Time>2019-07-26T10:00:31.000Z</Time>
            <Position>
              <LatitudeDegrees>42.9508752934634685516357421875</LatitudeDegrees>
              <LongitudeDegrees>-7.8047405742108821868896484375</LongitudeDegrees>
            </Position>
            <AltitudeMeters>559.79998779296875</AltitudeMeters>
            <DistanceMeters>25273.171410557</DistanceMeters>
          </Trackpoint>
          <Trackpoint>
            <Time>2019-07-26T10:00:32.000Z</Time>
            <Position>
              <LatitudeDegrees>42.9508741199970245361328125</LatitudeDegrees>
              <LongitudeDegrees>-7.8048213757574558258056640625</LongitudeDegrees>
            </Position>
            <AltitudeMeters>559.5999755859375</AltitudeMeters>
            <DistanceMeters>25279.755054452</DistanceMeters>
          </Trackpoint>
          <Trackpoint>
            <Time>2019-07-26T10:00:35.000Z</Time>
            <Position>
              <LatitudeDegrees>42.95085961930453777313232421875</LatitudeDegrees>
              <LongitudeDegrees>-7.8050480224192142486572265625</LongitudeDegrees>
            </Position>
            <AltitudeMeters>559.20001220703125</AltitudeMeters>
            <DistanceMeters>25298.289405481</DistanceMeters>
          </Trackpoint>
          <Trackpoint>
            <Time>2019-07-26T10:00:36.000Z</Time>
            <Position>
              <LatitudeDegrees>42.9508504830300807952880859375</LatitudeDegrees>
              <LongitudeDegrees>-7.80512002296745777130126953125</LongitudeDegrees>
            </Position>
            <AltitudeMeters>559</AltitudeMeters>
            <DistanceMeters>25304.242053629</DistanceMeters>
          </Trackpoint>
          <Trackpoint>
            <Time>2019-07-26T10:00:39.000Z</Time>
            <Position>
              <LatitudeDegrees>42.95080480165779590606689453125</LatitudeDegrees>
              <LongitudeDegrees>-7.805316410958766937255859375</LongitudeDegrees>
            </Position>
            <AltitudeMeters>559</AltitudeMeters>
            <DistanceMeters>25321.029538722</DistanceMeters>
          </Trackpoint>
          <Trackpoint>
            <Time>2019-07-26T10:00:42.000Z</Time>
            <Position>
              <LatitudeDegrees>42.950757443904876708984375</LatitudeDegrees>
              <LongitudeDegrees>-7.80549385584890842437744140625</LongitudeDegrees>
            </Position>
            <AltitudeMeters>559</AltitudeMeters>
            <DistanceMeters>25336.416825824</DistanceMeters>
          </Trackpoint>
          <Trackpoint>
            <Time>2019-07-26T10:00:44.000Z</Time>
            <Position>
              <LatitudeDegrees>42.95072768814861774444580078125</LatitudeDegrees>
              <LongitudeDegrees>-7.80560969375073909759521484375</LongitudeDegrees>
            </Position>
            <AltitudeMeters>559</AltitudeMeters>
            <DistanceMeters>25346.418585011</DistanceMeters>
          </Trackpoint>
          <Trackpoint>
            <Time>2019-07-26T10:00:48.000Z</Time>
            <Position>
              <LatitudeDegrees>42.95068703591823577880859375</LatitudeDegrees>
              <LongitudeDegrees>-7.8058560378849506378173828125</LongitudeDegrees>
            </Position>
            <AltitudeMeters>559.5999755859375</AltitudeMeters>
            <DistanceMeters>25366.991374879</DistanceMeters>
          </Trackpoint>
          <Trackpoint>
            <Time>2019-07-26T10:00:49.000Z</Time>
            <Position>
              <LatitudeDegrees>42.95067907311022281646728515625</LatitudeDegrees>
              <LongitudeDegrees>-7.805914543569087982177734375</LongitudeDegrees>
            </Position>
            <AltitudeMeters>559.79998779296875</AltitudeMeters>
            <DistanceMeters>25371.840531409</DistanceMeters>
          </Trackpoint>
          <Trackpoint>
            <Time>2019-07-26T10:00:51.000Z</Time>
            <Position>
              <LatitudeDegrees>42.950696758925914764404296875</LatitudeDegrees>
              <LongitudeDegrees>-7.80602677725255489349365234375</LongitudeDegrees>
            </Position>
            <AltitudeMeters>560.20001220703125</AltitudeMeters>
            <DistanceMeters>25381.193786489</DistanceMeters>
          </Trackpoint>
          <Trackpoint>
            <Time>2019-07-26T10:00:52.000Z</Time>
            <Position>
              <LatitudeDegrees>42.95071410946547985076904296875</LatitudeDegrees>
              <LongitudeDegrees>-7.80607908032834529876708984375</LongitudeDegrees>
            </Position>
            <AltitudeMeters>560.5999755859375</AltitudeMeters>
            <DistanceMeters>25385.872344526</DistanceMeters>
          </Trackpoint>
          <Trackpoint>
            <Time>2019-07-26T10:00:53.000Z</Time>
            <Position>
              <LatitudeDegrees>42.95073355548083782196044921875</LatitudeDegrees>
              <LongitudeDegrees>-7.806128449738025665283203125</LongitudeDegrees>
            </Position>
            <AltitudeMeters>560.79998779296875</AltitudeMeters>
            <DistanceMeters>25390.439562123</DistanceMeters>
          </Trackpoint>
          <Trackpoint>
            <Time>2019-07-26T10:00:54.000Z</Time>
            <Position>
              <LatitudeDegrees>42.950748391449451446533203125</LatitudeDegrees>
              <LongitudeDegrees>-7.806179411709308624267578125</LongitudeDegrees>
            </Position>
            <AltitudeMeters>561</AltitudeMeters>
            <DistanceMeters>25394.907839086</DistanceMeters>
          </Trackpoint>
          <Trackpoint>
            <Time>2019-07-26T10:00:58.000Z</Time>
            <Position>
              <LatitudeDegrees>42.95080094598233699798583984375</LatitudeDegrees>
              <LongitudeDegrees>-7.8063877858221530914306640625</LongitudeDegrees>
            </Position>
            <AltitudeMeters>561.4000244140625</AltitudeMeters>
            <DistanceMeters>25412.86285953</DistanceMeters>
          </Trackpoint>
          <Trackpoint>
            <Time>2019-07-26T10:01:03.000Z</Time>
            <Position>
              <LatitudeDegrees>42.95088954269886016845703125</LatitudeDegrees>
              <LongitudeDegrees>-7.8066281788051128387451171875</LongitudeDegrees>
            </Position>
            <AltitudeMeters>562</AltitudeMeters>
            <DistanceMeters>25434.789128475</DistanceMeters>
          </Trackpoint>
          <Trackpoint>
            <Time>2019-07-26T10:01:05.000Z</Time>
            <Position>
              <LatitudeDegrees>42.9509242437779903411865234375</LatitudeDegrees>
              <LongitudeDegrees>-7.8067250736057758331298828125</LongitudeDegrees>
            </Position>
            <AltitudeMeters>562.4000244140625</AltitudeMeters>
            <DistanceMeters>25443.576916237</DistanceMeters>
          </Trackpoint>
          <Trackpoint>
            <Time>2019-07-26T10:01:12.000Z</Time>
            <Position>
              <LatitudeDegrees>42.95105307362973690032958984375</LatitudeDegrees>
              <LongitudeDegrees>-7.8070694021880626678466796875</LongitudeDegrees>
            </Position>
            <AltitudeMeters>563.4000244140625</AltitudeMeters>
            <DistanceMeters>25475.080386074</DistanceMeters>
          </Trackpoint>
          <Trackpoint>
            <Time>2019-07-26T10:01:13.000Z</Time>
            <Position>
              <LatitudeDegrees>42.9510737769305706024169921875</LatitudeDegrees>
              <LongitudeDegrees>-7.80711910687386989593505859375</LongitudeDegrees>
            </Position>
            <AltitudeMeters>563.4000244140625</AltitudeMeters>
            <DistanceMeters>25479.739603151</DistanceMeters>
          </Trackpoint>
          <Trackpoint>
            <Time>2019-07-26T10:01:21.000Z</Time>
            <Position>
              <LatitudeDegrees>42.951246611773967742919921875</LatitudeDegrees>
              <LongitudeDegrees>-7.807523198425769805908203125</LongitudeDegrees>
            </Position>
            <AltitudeMeters>563.4000244140625</AltitudeMeters>
            <DistanceMeters>25517.867703113</DistanceMeters>
          </Trackpoint>
          <Trackpoint>
            <Time>2019-07-26T10:01:27.000Z</Time>
            <Position>
              <LatitudeDegrees>42.95136856846511363983154296875</LatitudeDegrees>
              <LongitudeDegrees>-7.80777859501540660858154296875</LongitudeDegrees>
            </Position>
            <AltitudeMeters>563.4000244140625</AltitudeMeters>
            <DistanceMeters>25542.710056351</DistanceMeters>
          </Trackpoint>
          <Trackpoint>
            <Time>2019-07-26T10:01:33.000Z</Time>
            <Position>
              <LatitudeDegrees>42.9514714144170284271240234375</LatitudeDegrees>
              <LongitudeDegrees>-7.8079991228878498077392578125</LongitudeDegrees>
            </Position>
            <AltitudeMeters>563.79998779296875</AltitudeMeters>
            <DistanceMeters>25564.012154874</DistanceMeters>
          </Trackpoint>
          <Trackpoint>
            <Time>2019-07-26T10:01:37.000Z</Time>
            <Position>
              <LatitudeDegrees>42.9515384696424007415771484375</LatitudeDegrees>
              <LongitudeDegrees>-7.8081317245960235595703125</LongitudeDegrees>
            </Position>
            <AltitudeMeters>564.4000244140625</AltitudeMeters>
            <DistanceMeters>25577.14201357</DistanceMeters>
          </Trackpoint>
          <Trackpoint>
            <Time>2019-07-26T10:01:38.000Z</Time>
            <Position>
              <LatitudeDegrees>42.95154928229749202728271484375</LatitudeDegrees>
              <LongitudeDegrees>-7.8081758134067058563232421875</LongitudeDegrees>
            </Position>
            <AltitudeMeters>564.5999755859375</AltitudeMeters>
            <DistanceMeters>25580.931185187</DistanceMeters>
          </Trackpoint>
          <Trackpoint>
            <Time>2019-07-26T10:01:43.000Z</Time>
            <Position>
              <LatitudeDegrees>42.95156185515224933624267578125</LatitudeDegrees>
              <LongitudeDegrees>-7.8084504045546054840087890625</LongitudeDegrees>
            </Position>
            <AltitudeMeters>565.20001220703125</AltitudeMeters>
            <DistanceMeters>25603.344601097</DistanceMeters>
          </Trackpoint>
          <Trackpoint>
            <Time>2019-07-26T10:01:45.000Z</Time>
            <Position>
              <LatitudeDegrees>42.9515699855983257293701171875</LatitudeDegrees>
              <LongitudeDegrees>-7.80857026576995849609375</LongitudeDegrees>
            </Position>
            <AltitudeMeters>565.20001220703125</AltitudeMeters>
            <DistanceMeters>25613.150787106</DistanceMeters>
          </Trackpoint>
          <Trackpoint>
            <Time>2019-07-26T10:01:47.000Z</Time>
            <Position>
              <LatitudeDegrees>42.95156805776059627532958984375</LatitudeDegrees>
              <LongitudeDegrees>-7.808695994317531585693359375</LongitudeDegrees>
            </Position>
            <AltitudeMeters>565.20001220703125</AltitudeMeters>
            <DistanceMeters>25623.396059606</DistanceMeters>
          </Trackpoint>
          <Trackpoint>
            <Time>2019-07-26T10:01:49.000Z</Time>
            <Position>
              <LatitudeDegrees>42.95156302861869335174560546875</LatitudeDegrees>
              <LongitudeDegrees>-7.80883119441568851470947265625</LongitudeDegrees>
            </Position>
            <AltitudeMeters>565.20001220703125</AltitudeMeters>
            <DistanceMeters>25634.424891352</DistanceMeters>
          </Trackpoint>
          <Trackpoint>
            <Time>2019-07-26T10:01:54.000Z</Time>
            <Position>
              <LatitudeDegrees>42.9515391401946544647216796875</LatitudeDegrees>
              <LongitudeDegrees>-7.809195555746555328369140625</LongitudeDegrees>
            </Position>
            <AltitudeMeters>565</AltitudeMeters>
            <DistanceMeters>25664.226638593</DistanceMeters>
          </Trackpoint>
          <Trackpoint>
            <Time>2019-07-26T10:01:55.000Z</Time>
            <Position>
              <LatitudeDegrees>42.9515327699482440948486328125</LatitudeDegrees>
              <LongitudeDegrees>-7.809275686740875244140625</LongitudeDegrees>
            </Position>
            <AltitudeMeters>565</AltitudeMeters>
            <DistanceMeters>25670.793115199</DistanceMeters>
          </Trackpoint>
          <Trackpoint>
            <Time>2019-07-26T10:02:00.000Z</Time>
            <Position>
              <LatitudeDegrees>42.9514539800584316253662109375</LatitudeDegrees>
              <LongitudeDegrees>-7.809738703072071075439453125</LongitudeDegrees>
            </Position>
            <AltitudeMeters>564.20001220703125</AltitudeMeters>
            <DistanceMeters>25709.51868744</DistanceMeters>
          </Trackpoint>
          <Trackpoint>
            <Time>2019-07-26T10:02:01.000Z</Time>
            <Position>
              <LatitudeDegrees>42.951437048614025115966796875</LatitudeDegrees>
              <LongitudeDegrees>-7.8098394535481929779052734375</LongitudeDegrees>
            </Position>
            <AltitudeMeters>564</AltitudeMeters>
            <DistanceMeters>25717.940220578</DistanceMeters>
          </Trackpoint>
          <Trackpoint>
            <Time>2019-07-26T10:02:06.000Z</Time>
            <Position>
              <LatitudeDegrees>42.95135758817195892333984375</LatitudeDegrees>
              <LongitudeDegrees>-7.8103638254106044769287109375</LongitudeDegrees>
            </Position>
            <AltitudeMeters>563.20001220703125</AltitudeMeters>
            <DistanceMeters>25761.564313925</DistanceMeters>
          </Trackpoint>
          <Trackpoint>
            <Time>2019-07-26T10:02:08.000Z</Time>
            <Position>
              <LatitudeDegrees>42.9513302631676197052001953125</LatitudeDegrees>
              <LongitudeDegrees>-7.8105763904750347137451171875</LongitudeDegrees>
            </Position>
            <AltitudeMeters>562.79998779296875</AltitudeMeters>
            <DistanceMeters>25779.146053794</DistanceMeters>
          </Trackpoint>
          <Trackpoint>
            <Time>2019-07-26T10:02:11.000Z</Time>
            <Position>
              <LatitudeDegrees>42.9512883536517620086669921875</LatitudeDegrees>
              <LongitudeDegrees>-7.81089842319488525390625</LongitudeDegrees>
            </Position>
            <AltitudeMeters>562</AltitudeMeters>
            <DistanceMeters>25805.792195178</DistanceMeters>
          </Trackpoint>
          <Trackpoint>
            <Time>2019-07-26T10:02:13.000Z</Time>
            <Position>
              <LatitudeDegrees>42.9512544907629489898681640625</LatitudeDegrees>
              <LongitudeDegrees>-7.81111911870539188385009765625</LongitudeDegrees>
            </Position>
            <AltitudeMeters>561.5999755859375</AltitudeMeters>
            <DistanceMeters>25824.162115067</DistanceMeters>
          </Trackpoint>
          <Trackpoint>
            <Time>2019-07-26T10:02:16.000Z</Time>
            <Position>
              <LatitudeDegrees>42.9512147605419158935546875</LatitudeDegrees>
              <LongitudeDegrees>-7.81146964989602565765380859375</LongitudeDegrees>
            </Position>
            <AltitudeMeters>561</AltitudeMeters>
            <DistanceMeters>25853.058674875</DistanceMeters>
          </Trackpoint>
          <Trackpoint>
            <Time>2019-07-26T10:02:19.000Z</Time>
            <Position>
              <LatitudeDegrees>42.95117310248315334320068359375</LatitudeDegrees>
              <LongitudeDegrees>-7.81184733845293521881103515625</LongitudeDegrees>
            </Position>
            <AltitudeMeters>560</AltitudeMeters>
            <DistanceMeters>25884.174664275</DistanceMeters>
          </Trackpoint>
          <Trackpoint>
            <Time>2019-07-26T10:02:20.000Z</Time>
            <Position>
              <LatitudeDegrees>42.9511549137532711029052734375</LatitudeDegrees>
              <LongitudeDegrees>-7.8119785152375698089599609375</LongitudeDegrees>
            </Position>
            <AltitudeMeters>559.4000244140625</AltitudeMeters>
            <DistanceMeters>25895.050968859</DistanceMeters>
          </Trackpoint>
          <Trackpoint>
            <Time>2019-07-26T10:02:22.000Z</Time>
            <Position>
              <LatitudeDegrees>42.95112834312021732330322265625</LatitudeDegrees>
              <LongitudeDegrees>-7.81224095262587070465087890625</LongitudeDegrees>
            </Position>
            <AltitudeMeters>558.5999755859375</AltitudeMeters>
            <DistanceMeters>25916.634378775</DistanceMeters>
          </Trackpoint>
          <Trackpoint>
            <Time>2019-07-26T10:02:23.000Z</Time>
            <Position>
              <LatitudeDegrees>42.951119206845760345458984375</LatitudeDegrees>
              <LongitudeDegrees>-7.8123711235821247100830078125</LongitudeDegrees>
            </Position>
            <AltitudeMeters>558</AltitudeMeters>
            <DistanceMeters>25927.287547353</DistanceMeters>
          </Trackpoint>
          <Trackpoint>
            <Time>2019-07-26T10:02:25.000Z</Time>
            <Position>
              <LatitudeDegrees>42.95109808444976806640625</LatitudeDegrees>
              <LongitudeDegrees>-7.8126324713230133056640625</LongitudeDegrees>
            </Position>
            <AltitudeMeters>556.79998779296875</AltitudeMeters>
            <DistanceMeters>25948.708010566</DistanceMeters>
          </Trackpoint>
          <Trackpoint>
            <Time>2019-07-26T10:02:27.000Z</Time>
            <Position>
              <LatitudeDegrees>42.95106790959835052490234375</LatitudeDegrees>
              <LongitudeDegrees>-7.81289943493902683258056640625</LongitudeDegrees>
            </Position>
            <AltitudeMeters>555.5999755859375</AltitudeMeters>
            <DistanceMeters>25970.714441437</DistanceMeters>
          </Trackpoint>
          <Trackpoint>
            <Time>2019-07-26T10:02:28.000Z</Time>
            <Position>
              <LatitudeDegrees>42.95105743221938610076904296875</LatitudeDegrees>
              <LongitudeDegrees>-7.813033796846866607666015625</LongitudeDegrees>
            </Position>
            <AltitudeMeters>555</AltitudeMeters>
            <DistanceMeters>25981.72196458</DistanceMeters>
          </Trackpoint>
          <Trackpoint>
            <Time>2019-07-26T10:02:29.000Z</Time>
            <Position>
              <LatitudeDegrees>42.95104318298399448394775390625</LatitudeDegrees>
              <LongitudeDegrees>-7.8131710924208164215087890625</LongitudeDegrees>
            </Position>
            <AltitudeMeters>554.5999755859375</AltitudeMeters>
            <DistanceMeters>25993.01855877</DistanceMeters>
          </Trackpoint>
          <Trackpoint>
            <Time>2019-07-26T10:02:32.000Z</Time>
            <Position>
              <LatitudeDegrees>42.95099758543074131011962890625</LatitudeDegrees>
              <LongitudeDegrees>-7.81358775682747364044189453125</LongitudeDegrees>
            </Position>
            <AltitudeMeters>553.20001220703125</AltitudeMeters>
            <DistanceMeters>26027.339782261</DistanceMeters>
          </Trackpoint>
          <Trackpoint>
            <Time>2019-07-26T10:02:35.000Z</Time>
            <Position>
              <LatitudeDegrees>42.950942516326904296875</LatitudeDegrees>
              <LongitudeDegrees>-7.81400785781443119049072265625</LongitudeDegrees>
            </Position>
            <AltitudeMeters>552</AltitudeMeters>
            <DistanceMeters>26062.108393587</DistanceMeters>
          </Trackpoint>
          <Trackpoint>
            <Time>2019-07-26T10:02:37.000Z</Time>
            <Position>
              <LatitudeDegrees>42.95088275335729122161865234375</LatitudeDegrees>
              <LongitudeDegrees>-7.81426467932760715484619140625</LongitudeDegrees>
            </Position>
            <AltitudeMeters>550.79998779296875</AltitudeMeters>
            <DistanceMeters>26084.062649673</DistanceMeters>
          </Trackpoint>
          <Trackpoint>
            <Time>2019-07-26T10:02:39.000Z</Time>
            <Position>
              <LatitudeDegrees>42.95079356990754604339599609375</LatitudeDegrees>
              <LongitudeDegrees>-7.81449819914996623992919921875</LongitudeDegrees>
            </Position>
            <AltitudeMeters>549.5999755859375</AltitudeMeters>
            <DistanceMeters>26105.520599199</DistanceMeters>
          </Trackpoint>
          <Trackpoint>
            <Time>2019-07-26T10:02:41.000Z</Time>
            <Position>
              <LatitudeDegrees>42.95068812556564807891845703125</LatitudeDegrees>
              <LongitudeDegrees>-7.81472752802073955535888671875</LongitudeDegrees>
            </Position>
            <AltitudeMeters>548.4000244140625</AltitudeMeters>
            <DistanceMeters>26127.583584056</DistanceMeters>
          </Trackpoint>
          <Trackpoint>
            <Time>2019-07-26T10:02:43.000Z</Time>
            <Position>
              <LatitudeDegrees>42.95058117248117923736572265625</LatitudeDegrees>
              <LongitudeDegrees>-7.814949564635753631591796875</LongitudeDegrees>
            </Position>
            <AltitudeMeters>547</AltitudeMeters>
            <DistanceMeters>26149.237793335</DistanceMeters>
          </Trackpoint>
          <Trackpoint>
            <Time>2019-07-26T10:02:46.000Z</Time>
            <Position>
              <LatitudeDegrees>42.950434572994709014892578125</LatitudeDegrees>
              <LongitudeDegrees>-7.8152635507285594940185546875</LongitudeDegrees>
            </Position>
            <AltitudeMeters>545.5999755859375</AltitudeMeters>
            <DistanceMeters>26179.578262231</DistanceMeters>
          </Trackpoint>
          <Trackpoint>
            <Time>2019-07-26T10:02:50.000Z</Time>
            <Position>
              <LatitudeDegrees>42.9502650909125804901123046875</LatitudeDegrees>
              <LongitudeDegrees>-7.81563327647745609283447265625</LongitudeDegrees>
            </Position>
            <AltitudeMeters>544.4000244140625</AltitudeMeters>
            <DistanceMeters>26215.117999323</DistanceMeters>
          </Trackpoint>
          <Trackpoint>
            <Time>2019-07-26T10:02:52.000Z</Time>
            <Position>
              <LatitudeDegrees>42.95018420554697513580322265625</LatitudeDegrees>
              <LongitudeDegrees>-7.81579420901834964752197265625</LongitudeDegrees>
            </Position>
            <AltitudeMeters>543.79998779296875</AltitudeMeters>
            <DistanceMeters>26231.022133102</DistanceMeters>
          </Trackpoint>
          <Trackpoint>
            <Time>2019-07-26T10:02:53.000Z</Time>
            <Position>
              <LatitudeDegrees>42.9501427151262760162353515625</LatitudeDegrees>
              <LongitudeDegrees>-7.815868891775608062744140625</LongitudeDegrees>
            </Position>
            <AltitudeMeters>543</AltitudeMeters>
            <DistanceMeters>26238.661004352</DistanceMeters>
          </Trackpoint>
          <Trackpoint>
            <Time>2019-07-26T10:02:57.000Z</Time>
            <Position>
              <LatitudeDegrees>42.9499770887196063995361328125</LatitudeDegrees>
              <LongitudeDegrees>-7.8161389566957950592041015625</LongitudeDegrees>
            </Position>
            <AltitudeMeters>542.4000244140625</AltitudeMeters>
            <DistanceMeters>26267.364735377</DistanceMeters>
          </Trackpoint>
          <Trackpoint>
            <Time>2019-07-26T10:02:58.000Z</Time>
            <Position>
              <LatitudeDegrees>42.94993593357503414154052734375</LatitudeDegrees>
              <LongitudeDegrees>-7.816199474036693572998046875</LongitudeDegrees>
            </Position>
            <AltitudeMeters>542.20001220703125</AltitudeMeters>
            <DistanceMeters>26274.094881248</DistanceMeters>
          </Trackpoint>
          <Trackpoint>
            <Time>2019-07-26T10:03:00.000Z</Time>
            <Position>
              <LatitudeDegrees>42.9498912580311298370361328125</LatitudeDegrees>
              <LongitudeDegrees>-7.81626644544303417205810546875</LongitudeDegrees>
            </Position>
            <AltitudeMeters>542</AltitudeMeters>
            <DistanceMeters>26281.476444854</DistanceMeters>
          </Trackpoint>
          <Trackpoint>
            <Time>2019-07-26T10:03:01.000Z</Time>
            <Position>
              <LatitudeDegrees>42.94987994246184825897216796875</LatitudeDegrees>
              <LongitudeDegrees>-7.81626225449144840240478515625</LongitudeDegrees>
            </Position>
            <AltitudeMeters>542</AltitudeMeters>
            <DistanceMeters>26282.779385517</DistanceMeters>
          </Trackpoint>
          <Trackpoint>
            <Time>2019-07-26T10:03:02.000Z</Time>
            <Position>
              <LatitudeDegrees>42.94987055473029613494873046875</LatitudeDegrees>
              <LongitudeDegrees>-7.81623543240129947662353515625</LongitudeDegrees>
            </Position>
            <AltitudeMeters>542</AltitudeMeters>
            <DistanceMeters>26285.202100871</DistanceMeters>
          </Trackpoint>
          <Trackpoint>
            <Time>2019-07-26T10:03:05.000Z</Time>
            <Position>
              <LatitudeDegrees>42.9498480074107646942138671875</LatitudeDegrees>
              <LongitudeDegrees>-7.816132418811321258544921875</LongitudeDegrees>
            </Position>
            <AltitudeMeters>542</AltitudeMeters>
            <DistanceMeters>26293.961069387</DistanceMeters>
          </Trackpoint>
          <Trackpoint>
            <Time>2019-07-26T10:03:07.000Z</Time>
            <Position>
              <LatitudeDegrees>42.949822358787059783935546875</LatitudeDegrees>
              <LongitudeDegrees>-7.81607550568878650665283203125</LongitudeDegrees>
            </Position>
            <AltitudeMeters>541.79998779296875</AltitudeMeters>
            <DistanceMeters>26299.406688823</DistanceMeters>
          </Trackpoint>
          <Trackpoint>
            <Time>2019-07-26T10:03:09.000Z</Time>
            <Position>
              <LatitudeDegrees>42.9497824609279632568359375</LatitudeDegrees>
              <LongitudeDegrees>-7.8160725720226764678955078125</LongitudeDegrees>
            </Position>
            <AltitudeMeters>541.5999755859375</AltitudeMeters>
            <DistanceMeters>26303.853695391</DistanceMeters>
          </Trackpoint>
          <Trackpoint>
            <Time>2019-07-26T10:03:11.000Z</Time>
            <Position>
              <LatitudeDegrees>42.9497360251843929290771484375</LatitudeDegrees>
              <LongitudeDegrees>-7.81609578989446163177490234375</LongitudeDegrees>
            </Position>
            <AltitudeMeters>541.20001220703125</AltitudeMeters>
            <DistanceMeters>26309.357046769</DistanceMeters>
          </Trackpoint>
          <Trackpoint>
            <Time>2019-07-26T10:03:14.000Z</Time>
            <Position>
              <LatitudeDegrees>42.94963871128857135772705078125</LatitudeDegrees>
              <LongitudeDegrees>-7.816138453781604766845703125</LongitudeDegrees>
            </Position>
            <AltitudeMeters>541</AltitudeMeters>
            <DistanceMeters>26320.732502604</DistanceMeters>
          </Trackpoint>
          <Trackpoint>
            <Time>2019-07-26T10:03:15.000Z</Time>
            <Position>
              <LatitudeDegrees>42.9495921917259693145751953125</LatitudeDegrees>
              <LongitudeDegrees>-7.8161506913602352142333984375</LongitudeDegrees>
            </Position>
            <AltitudeMeters>541</AltitudeMeters>
            <DistanceMeters>26326.004558682</DistanceMeters>
          </Trackpoint>
          <Trackpoint>
            <Time>2019-07-26T10:03:18.000Z</Time>
            <Position>
              <LatitudeDegrees>42.94942363165318965911865234375</LatitudeDegrees>
              <LongitudeDegrees>-7.81617592088878154754638671875</LongitudeDegrees>
            </Position>
            <AltitudeMeters>540.5999755859375</AltitudeMeters>
            <DistanceMeters>26344.877591436</DistanceMeters>
          </Trackpoint>
          <Trackpoint>
            <Time>2019-07-26T10:03:23.000Z</Time>
            <Position>
              <LatitudeDegrees>42.9491073824465274810791015625</LatitudeDegrees>
              <LongitudeDegrees>-7.816149853169918060302734375</LongitudeDegrees>
            </Position>
            <AltitudeMeters>540.20001220703125</AltitudeMeters>
            <DistanceMeters>26380.14056985</DistanceMeters>
          </Trackpoint>
          <Trackpoint>
            <Time>2019-07-26T10:03:25.000Z</Time>
            <Position>
              <LatitudeDegrees>42.94899162836372852325439453125</LatitudeDegrees>
              <LongitudeDegrees>-7.81610526144504547119140625</LongitudeDegrees>
            </Position>
            <AltitudeMeters>539.5999755859375</AltitudeMeters>
            <DistanceMeters>26393.526862726</DistanceMeters>
          </Trackpoint>
          <Trackpoint>
            <Time>2019-07-26T10:03:26.000Z</Time>
            <Position>
              <LatitudeDegrees>42.94893781654536724090576171875</LatitudeDegrees>
              <LongitudeDegrees>-7.8160759247839450836181640625</LongitudeDegrees>
            </Position>
            <AltitudeMeters>539.5999755859375</AltitudeMeters>
            <DistanceMeters>26399.976089974</DistanceMeters>
          </Trackpoint>
          <Trackpoint>
            <Time>2019-07-26T10:03:30.000Z</Time>
            <Position>
              <LatitudeDegrees>42.948721311986446380615234375</LatitudeDegrees>
              <LongitudeDegrees>-7.8159619309008121490478515625</LongitudeDegrees>
            </Position>
            <AltitudeMeters>538.79998779296875</AltitudeMeters>
            <DistanceMeters>26425.80133704</DistanceMeters>
          </Trackpoint>
          <Trackpoint>
            <Time>2019-07-26T10:03:31.000Z</Time>
            <Position>
              <LatitudeDegrees>42.94867797754704952239990234375</LatitudeDegrees>
              <LongitudeDegrees>-7.81594374217092990875244140625</LongitudeDegrees>
            </Position>
            <AltitudeMeters>538.5999755859375</AltitudeMeters>
            <DistanceMeters>26430.847604529</DistanceMeters>
          </Trackpoint>
          <Trackpoint>
            <Time>2019-07-26T10:03:33.000Z</Time>
            <Position>
              <LatitudeDegrees>42.94862835668027400970458984375</LatitudeDegrees>
              <LongitudeDegrees>-7.815923206508159637451171875</LongitudeDegrees>
            </Position>
            <AltitudeMeters>538.20001220703125</AltitudeMeters>
            <DistanceMeters>26436.618472915</DistanceMeters>
          </Trackpoint>
          <Trackpoint>
            <Time>2019-07-26T10:03:36.000Z</Time>
            <Position>
              <LatitudeDegrees>42.9486235789954662322998046875</LatitudeDegrees>
              <LongitudeDegrees>-7.815923206508159637451171875</LongitudeDegrees>
            </Position>
            <AltitudeMeters>538</AltitudeMeters>
            <DistanceMeters>26437.156025188</DistanceMeters>
          </Trackpoint>
          <Trackpoint>
            <Time>2019-07-26T10:04:45.000Z</Time>
            <Position>
              <LatitudeDegrees>42.9485411010682582855224609375</LatitudeDegrees>
              <LongitudeDegrees>-7.8159123100340366363525390625</LongitudeDegrees>
            </Position>
            <AltitudeMeters>536</AltitudeMeters>
            <DistanceMeters>26446.378513465</DistanceMeters>
          </Trackpoint>
          <Trackpoint>
            <Time>2019-07-26T10:04:46.000Z</Time>
            <Position>
              <LatitudeDegrees>42.94855241663753986358642578125</LatitudeDegrees>
              <LongitudeDegrees>-7.81590987928211688995361328125</LongitudeDegrees>
            </Position>
            <AltitudeMeters>536</AltitudeMeters>
            <DistanceMeters>26447.653430623</DistanceMeters>
          </Trackpoint>
          <Trackpoint>
            <Time>2019-07-26T10:04:53.000Z</Time>
            <Position>
              <LatitudeDegrees>42.948643863201141357421875</LatitudeDegrees>
              <LongitudeDegrees>-7.81592278741300106048583984375</LongitudeDegrees>
            </Position>
            <AltitudeMeters>535.79998779296875</AltitudeMeters>
            <DistanceMeters>26457.886356229</DistanceMeters>
          </Trackpoint>
          <Trackpoint>
            <Time>2019-07-26T10:05:00.000Z</Time>
            <Position>
              <LatitudeDegrees>42.94872005470097064971923828125</LatitudeDegrees>
              <LongitudeDegrees>-7.81593762338161468505859375</LongitudeDegrees>
            </Position>
            <AltitudeMeters>535.79998779296875</AltitudeMeters>
            <DistanceMeters>26466.452475606</DistanceMeters>
          </Trackpoint>
          <Trackpoint>
            <Time>2019-07-26T10:05:01.000Z</Time>
            <Position>
              <LatitudeDegrees>42.948730699717998504638671875</LatitudeDegrees>
              <LongitudeDegrees>-7.8159287385642528533935546875</LongitudeDegrees>
            </Position>
            <AltitudeMeters>535.79998779296875</AltitudeMeters>
            <DistanceMeters>26467.836085452</DistanceMeters>
          </Trackpoint>
          <Trackpoint>
            <Time>2019-07-26T10:05:07.000Z</Time>
            <Position>
              <LatitudeDegrees>42.94878912158310413360595703125</LatitudeDegrees>
              <LongitudeDegrees>-7.815924547612667083740234375</LongitudeDegrees>
            </Position>
            <AltitudeMeters>535.79998779296875</AltitudeMeters>
            <DistanceMeters>26474.347322577</DistanceMeters>
          </Trackpoint>
          <Trackpoint>
            <Time>2019-07-26T10:05:09.000Z</Time>
            <Position>
              <LatitudeDegrees>42.948794066905975341796875</LatitudeDegrees>
              <LongitudeDegrees>-7.81592412851750850677490234375</LongitudeDegrees>
            </Position>
            <AltitudeMeters>536</AltitudeMeters>
            <DistanceMeters>26474.901418778</DistanceMeters>
          </Trackpoint>
          <Trackpoint>
            <Time>2019-07-26T10:24:37.000Z</Time>
            <Position>
              <LatitudeDegrees>42.94875525869429111480712890625</LatitudeDegrees>
              <LongitudeDegrees>-7.81585204415023326873779296875</LongitudeDegrees>
            </Position>
            <AltitudeMeters>538.4000244140625</AltitudeMeters>
            <DistanceMeters>26482.191894067</DistanceMeters>
          </Trackpoint>
          <Trackpoint>
            <Time>2019-07-26T10:24:38.000Z</Time>
            <Position>
              <LatitudeDegrees>42.948727346956729888916015625</LatitudeDegrees>
              <LongitudeDegrees>-7.815856151282787322998046875</LongitudeDegrees>
            </Position>
            <AltitudeMeters>538.4000244140625</AltitudeMeters>
            <DistanceMeters>26485.314790569</DistanceMeters>
          </Trackpoint>
          <Trackpoint>
            <Time>2019-07-26T10:24:43.000Z</Time>
            <Position>
              <LatitudeDegrees>42.94853364117443561553955078125</LatitudeDegrees>
              <LongitudeDegrees>-7.8158750943839550018310546875</LongitudeDegrees>
            </Position>
            <AltitudeMeters>538.4000244140625</AltitudeMeters>
            <DistanceMeters>26506.92997401</DistanceMeters>
          </Trackpoint>
          <Trackpoint>
            <Time>2019-07-26T10:24:50.000Z</Time>
            <Position>
              <LatitudeDegrees>42.94819124042987823486328125</LatitudeDegrees>
              <LongitudeDegrees>-7.815962769091129302978515625</LongitudeDegrees>
            </Position>
            <AltitudeMeters>538</AltitudeMeters>
            <DistanceMeters>26545.703435383</DistanceMeters>
          </Trackpoint>
          <Trackpoint>
            <Time>2019-07-26T10:24:55.000Z</Time>
            <Position>
              <LatitudeDegrees>42.94800155796110630035400390625</LatitudeDegrees>
              <LongitudeDegrees>-7.8159807063639163970947265625</LongitudeDegrees>
            </Position>
            <AltitudeMeters>537.20001220703125</AltitudeMeters>
            <DistanceMeters>26566.866036153</DistanceMeters>
          </Trackpoint>
          <Trackpoint>
            <Time>2019-07-26T10:24:56.000Z</Time>
            <Position>
              <LatitudeDegrees>42.94796668924391269683837890625</LatitudeDegrees>
              <LongitudeDegrees>-7.81597928144037723541259765625</LongitudeDegrees>
            </Position>
            <AltitudeMeters>537</AltitudeMeters>
            <DistanceMeters>26570.749363033</DistanceMeters>
          </Trackpoint>
          <Trackpoint>
            <Time>2019-07-26T10:25:00.000Z</Time>
            <Position>
              <LatitudeDegrees>42.9478378593921661376953125</LatitudeDegrees>
              <LongitudeDegrees>-7.81602001748979091644287109375</LongitudeDegrees>
            </Position>
            <AltitudeMeters>536</AltitudeMeters>
            <DistanceMeters>26585.467464263</DistanceMeters>
          </Trackpoint>
          <Trackpoint>
            <Time>2019-07-26T10:25:01.000Z</Time>
            <Position>
              <LatitudeDegrees>42.94781162403523921966552734375</LatitudeDegrees>
              <LongitudeDegrees>-7.81603627838194370269775390625</LongitudeDegrees>
            </Position>
            <AltitudeMeters>535.79998779296875</AltitudeMeters>
            <DistanceMeters>26588.673119733</DistanceMeters>
          </Trackpoint>
          <Trackpoint>
            <Time>2019-07-26T10:25:06.000Z</Time>
            <Position>
              <LatitudeDegrees>42.94774532318115234375</LatitudeDegrees>
              <LongitudeDegrees>-7.81614951789379119873046875</LongitudeDegrees>
            </Position>
            <AltitudeMeters>535.4000244140625</AltitudeMeters>
            <DistanceMeters>26600.487046325</DistanceMeters>
          </Trackpoint>
          <Trackpoint>
            <Time>2019-07-26T10:25:08.000Z</Time>
            <Position>
              <LatitudeDegrees>42.9477200098335742950439453125</LatitudeDegrees>
              <LongitudeDegrees>-7.8162197582423686981201171875</LongitudeDegrees>
            </Position>
            <AltitudeMeters>535</AltitudeMeters>
            <DistanceMeters>26606.864464635</DistanceMeters>
          </Trackpoint>
          <Trackpoint>
            <Time>2019-07-26T10:25:11.000Z</Time>
            <Position>
              <LatitudeDegrees>42.947709448635578155517578125</LatitudeDegrees>
              <LongitudeDegrees>-7.81638479791581630706787109375</LongitudeDegrees>
            </Position>
            <AltitudeMeters>534.4000244140625</AltitudeMeters>
            <DistanceMeters>26620.361603672</DistanceMeters>
          </Trackpoint>
          <Trackpoint>
            <Time>2019-07-26T10:25:14.000Z</Time>
            <Position>
              <LatitudeDegrees>42.94767432846128940582275390625</LatitudeDegrees>
              <LongitudeDegrees>-7.8165191598236560821533203125</LongitudeDegrees>
            </Position>
            <AltitudeMeters>534.20001220703125</AltitudeMeters>
            <DistanceMeters>26631.985200523</DistanceMeters>
          </Trackpoint>
          <Trackpoint>
            <Time>2019-07-26T10:25:15.000Z</Time>
            <Position>
              <LatitudeDegrees>42.947655804455280303955078125</LatitudeDegrees>
              <LongitudeDegrees>-7.81654103659093379974365234375</LongitudeDegrees>
            </Position>
            <AltitudeMeters>534</AltitudeMeters>
            <DistanceMeters>26634.711324679</DistanceMeters>
          </Trackpoint>
          <Trackpoint>
            <Time>2019-07-26T10:25:16.000Z</Time>
            <Position>
              <LatitudeDegrees>42.947641052305698394775390625</LatitudeDegrees>
              <LongitudeDegrees>-7.8165565431118011474609375</LongitudeDegrees>
            </Position>
            <AltitudeMeters>533.79998779296875</AltitudeMeters>
            <DistanceMeters>26636.78456282</DistanceMeters>
          </Trackpoint>
          <Trackpoint>
            <Time>2019-07-26T10:25:19.000Z</Time>
            <Position>
              <LatitudeDegrees>42.9476200975477695465087890625</LatitudeDegrees>
              <LongitudeDegrees>-7.8165590576827526092529296875</LongitudeDegrees>
            </Position>
            <AltitudeMeters>532.79998779296875</AltitudeMeters>
            <DistanceMeters>26639.12577114</DistanceMeters>
          </Trackpoint>
          <Trackpoint>
            <Time>2019-07-26T10:25:20.000Z</Time>
            <Position>
              <LatitudeDegrees>42.94762034900486469268798828125</LatitudeDegrees>
              <LongitudeDegrees>-7.8165645897388458251953125</LongitudeDegrees>
            </Position>
            <AltitudeMeters>532.20001220703125</AltitudeMeters>
            <DistanceMeters>26639.581503253</DistanceMeters>
          </Trackpoint>
          <Trackpoint>
            <Time>2019-07-26T10:26:03.000Z</Time>
            <Position>
              <LatitudeDegrees>42.94753921218216419219970703125</LatitudeDegrees>
              <LongitudeDegrees>-7.81655830331146717071533203125</LongitudeDegrees>
            </Position>
            <AltitudeMeters>530.20001220703125</AltitudeMeters>
            <DistanceMeters>26648.6265291</DistanceMeters>
          </Trackpoint>
          <Trackpoint>
            <Time>2019-07-26T10:26:04.000Z</Time>
            <Position>
              <LatitudeDegrees>42.94750970788300037384033203125</LatitudeDegrees>
              <LongitudeDegrees>-7.81655780039727687835693359375</LongitudeDegrees>
            </Position>
            <AltitudeMeters>530.20001220703125</AltitudeMeters>
            <DistanceMeters>26651.91011118</DistanceMeters>
          </Trackpoint>
          <Trackpoint>
            <Time>2019-07-26T10:26:07.000Z</Time>
            <Position>
              <LatitudeDegrees>42.947398982942104339599609375</LatitudeDegrees>
              <LongitudeDegrees>-7.81654405407607555389404296875</LongitudeDegrees>
            </Position>
            <AltitudeMeters>530</AltitudeMeters>
            <DistanceMeters>26664.284764158</DistanceMeters>
          </Trackpoint>
          <Trackpoint>
            <Time>2019-07-26T10:26:09.000Z</Time>
            <Position>
              <LatitudeDegrees>42.94730854220688343048095703125</LatitudeDegrees>
              <LongitudeDegrees>-7.81653332524001598358154296875</LongitudeDegrees>
            </Position>
            <AltitudeMeters>529.79998779296875</AltitudeMeters>
            <DistanceMeters>26674.389370749</DistanceMeters>
          </Trackpoint>
          <Trackpoint>
            <Time>2019-07-26T10:26:14.000Z</Time>
            <Position>
              <LatitudeDegrees>42.9470300115644931793212890625</LatitudeDegrees>
              <LongitudeDegrees>-7.81647230498492717742919921875</LongitudeDegrees>
            </Position>
            <AltitudeMeters>529.5999755859375</AltitudeMeters>
            <DistanceMeters>26705.786461778</DistanceMeters>
          </Trackpoint>
          <Trackpoint>
            <Time>2019-07-26T10:26:16.000Z</Time>
            <Position>
              <LatitudeDegrees>42.94690235517919063568115234375</LatitudeDegrees>
              <LongitudeDegrees>-7.8164329938590526580810546875</LongitudeDegrees>
            </Position>
            <AltitudeMeters>529.5999755859375</AltitudeMeters>
            <DistanceMeters>26720.351611482</DistanceMeters>
          </Trackpoint>
          <Trackpoint>
            <Time>2019-07-26T10:26:18.000Z</Time>
            <Position>
              <LatitudeDegrees>42.94676925055682659149169921875</LatitudeDegrees>
              <LongitudeDegrees>-7.81647347845137119293212890625</LongitudeDegrees>
            </Position>
            <AltitudeMeters>529.5999755859375</AltitudeMeters>
            <DistanceMeters>26735.529433465</DistanceMeters>
          </Trackpoint>
          <Trackpoint>
            <Time>2019-07-26T10:26:21.000Z</Time>
            <Position>
              <LatitudeDegrees>42.94659708626568317413330078125</LatitudeDegrees>
              <LongitudeDegrees>-7.8166187368333339691162109375</LongitudeDegrees>
            </Position>
            <AltitudeMeters>529.20001220703125</AltitudeMeters>
            <DistanceMeters>26758.05156667</DistanceMeters>
          </Trackpoint>
          <Trackpoint>
            <Time>2019-07-26T10:26:22.000Z</Time>
            <Position>
              <LatitudeDegrees>42.9465445317327976226806640625</LatitudeDegrees>
              <LongitudeDegrees>-7.8166619874536991119384765625</LongitudeDegrees>
            </Position>
            <AltitudeMeters>529</AltitudeMeters>
            <DistanceMeters>26764.880279196</DistanceMeters>
          </Trackpoint>
          <Trackpoint>
            <Time>2019-07-26T10:26:24.000Z</Time>
            <Position>
              <LatitudeDegrees>42.9464268498122692108154296875</LatitudeDegrees>
              <LongitudeDegrees>-7.8167389333248138427734375</LongitudeDegrees>
            </Position>
            <AltitudeMeters>527.79998779296875</AltitudeMeters>
            <DistanceMeters>26779.401654651</DistanceMeters>
          </Trackpoint>
          <Trackpoint>
            <Time>2019-07-26T10:26:25.000Z</Time>
            <Position>
              <LatitudeDegrees>42.9463688470423221588134765625</LatitudeDegrees>
              <LongitudeDegrees>-7.816767431795597076416015625</LongitudeDegrees>
            </Position>
            <AltitudeMeters>527</AltitudeMeters>
            <DistanceMeters>26786.262030619</DistanceMeters>
          </Trackpoint>
          <Trackpoint>
            <Time>2019-07-26T10:26:26.000Z</Time>
            <Position>
              <LatitudeDegrees>42.9463145323097705841064453125</LatitudeDegrees>
              <LongitudeDegrees>-7.81677807681262493133544921875</LongitudeDegrees>
            </Position>
            <AltitudeMeters>526.4000244140625</AltitudeMeters>
            <DistanceMeters>26792.368929645</DistanceMeters>
          </Trackpoint>
          <Trackpoint>
            <Time>2019-07-26T10:26:28.000Z</Time>
            <Position>
              <LatitudeDegrees>42.94621646404266357421875</LatitudeDegrees>
              <LongitudeDegrees>-7.81677170656621456146240234375</LongitudeDegrees>
            </Position>
            <AltitudeMeters>524.79998779296875</AltitudeMeters>
            <DistanceMeters>26803.29658863</DistanceMeters>
          </Trackpoint>
          <Trackpoint>
            <Time>2019-07-26T10:26:30.000Z</Time>
            <Position>
              <LatitudeDegrees>42.9461468942463397979736328125</LatitudeDegrees>
              <LongitudeDegrees>-7.816758714616298675537109375</LongitudeDegrees>
            </Position>
            <AltitudeMeters>523.5999755859375</AltitudeMeters>
            <DistanceMeters>26811.111344352</DistanceMeters>
          </Trackpoint>
          <Trackpoint>
            <Time>2019-07-26T10:26:32.000Z</Time>
            <Position>
              <LatitudeDegrees>42.9460955969989299774169921875</LatitudeDegrees>
              <LongitudeDegrees>-7.8167806752026081085205078125</LongitudeDegrees>
            </Position>
            <AltitudeMeters>522</AltitudeMeters>
            <DistanceMeters>26817.095764389</DistanceMeters>
          </Trackpoint>
          <Trackpoint>
            <Time>2019-07-26T10:26:33.000Z</Time>
            <Position>
              <LatitudeDegrees>42.946081347763538360595703125</LatitudeDegrees>
              <LongitudeDegrees>-7.816812694072723388671875</LongitudeDegrees>
            </Position>
            <AltitudeMeters>521.5999755859375</AltitudeMeters>
            <DistanceMeters>26820.148474478</DistanceMeters>
          </Trackpoint>
          <Trackpoint>
            <Time>2019-07-26T10:26:35.000Z</Time>
            <Position>
              <LatitudeDegrees>42.9460836946964263916015625</LatitudeDegrees>
              <LongitudeDegrees>-7.81690095551311969757080078125</LongitudeDegrees>
            </Position>
            <AltitudeMeters>520.79998779296875</AltitudeMeters>
            <DistanceMeters>26827.344199482</DistanceMeters>
          </Trackpoint>
          <Trackpoint>
            <Time>2019-07-26T10:26:36.000Z</Time>
            <Position>
              <LatitudeDegrees>42.94608847238123416900634765625</LatitudeDegrees>
              <LongitudeDegrees>-7.8169577009975910186767578125</LongitudeDegrees>
            </Position>
            <AltitudeMeters>520.5999755859375</AltitudeMeters>
            <DistanceMeters>26831.998568762</DistanceMeters>
          </Trackpoint>
          <Trackpoint>
            <Time>2019-07-26T10:26:37.000Z</Time>
            <Position>
              <LatitudeDegrees>42.94609819538891315460205078125</LatitudeDegrees>
              <LongitudeDegrees>-7.81701310537755489349365234375</LongitudeDegrees>
            </Position>
            <AltitudeMeters>520.4000244140625</AltitudeMeters>
            <DistanceMeters>26836.640310072</DistanceMeters>
          </Trackpoint>
          <Trackpoint>
            <Time>2019-07-26T10:26:39.000Z</Time>
            <Position>
              <LatitudeDegrees>42.94612384401261806488037109375</LatitudeDegrees>
              <LongitudeDegrees>-7.81707429327070713043212890625</LongitudeDegrees>
            </Position>
            <AltitudeMeters>520</AltitudeMeters>
            <DistanceMeters>26842.38451579</DistanceMeters>
          </Trackpoint>
          <Trackpoint>
            <Time>2019-07-26T10:26:40.000Z</Time>
            <Position>
              <LatitudeDegrees>42.94612728059291839599609375</LatitudeDegrees>
              <LongitudeDegrees>-7.8170824237167835235595703125</LongitudeDegrees>
            </Position>
            <AltitudeMeters>520</AltitudeMeters>
            <DistanceMeters>26843.144729505</DistanceMeters>
          </Trackpoint>
          <Trackpoint>
            <Time>2019-07-26T10:26:42.000Z</Time>
            <Position>
              <LatitudeDegrees>42.946126274764537811279296875</LatitudeDegrees>
              <LongitudeDegrees>-7.81708150170743465423583984375</LongitudeDegrees>
            </Position>
            <AltitudeMeters>519.79998779296875</AltitudeMeters>
            <DistanceMeters>26843.309320602</DistanceMeters>
          </Trackpoint>
          <Trackpoint>
            <Time>2019-07-26T10:26:48.000Z</Time>
            <Position>
              <LatitudeDegrees>42.94615217484533786773681640625</LatitudeDegrees>
              <LongitudeDegrees>-7.8171665780246257781982421875</LongitudeDegrees>
            </Position>
            <AltitudeMeters>518.79998779296875</AltitudeMeters>
            <DistanceMeters>26850.817032448</DistanceMeters>
          </Trackpoint>
          <Trackpoint>
            <Time>2019-07-26T10:26:49.000Z</Time>
            <Position>
              <LatitudeDegrees>42.946149073541164398193359375</LatitudeDegrees>
              <LongitudeDegrees>-7.81721326522529125213623046875</LongitudeDegrees>
            </Position>
            <AltitudeMeters>518.79998779296875</AltitudeMeters>
            <DistanceMeters>26854.635876967</DistanceMeters>
          </Trackpoint>
          <Trackpoint>
            <Time>2019-07-26T10:26:50.000Z</Time>
            <Position>
              <LatitudeDegrees>42.9461415298283100128173828125</LatitudeDegrees>
              <LongitudeDegrees>-7.81727160327136516571044921875</LongitudeDegrees>
            </Position>
            <AltitudeMeters>518.79998779296875</AltitudeMeters>
            <DistanceMeters>26859.462635426</DistanceMeters>
          </Trackpoint>
          <Trackpoint>
            <Time>2019-07-26T10:26:51.000Z</Time>
            <Position>
              <LatitudeDegrees>42.94614915736019611358642578125</LatitudeDegrees>
              <LongitudeDegrees>-7.81732700765132904052734375</LongitudeDegrees>
            </Position>
            <AltitudeMeters>518.5999755859375</AltitudeMeters>
            <DistanceMeters>26864.054500896</DistanceMeters>
          </Trackpoint>
          <Trackpoint>
            <Time>2019-07-26T10:26:52.000Z</Time>
            <Position>
              <LatitudeDegrees>42.94616290368139743804931640625</LatitudeDegrees>
              <LongitudeDegrees>-7.8173778019845485687255859375</LongitudeDegrees>
            </Position>
            <AltitudeMeters>518.5999755859375</AltitudeMeters>
            <DistanceMeters>26868.466852289</DistanceMeters>
          </Trackpoint>
          <Trackpoint>
            <Time>2019-07-26T10:26:54.000Z</Time>
            <Position>
              <LatitudeDegrees>42.94617782346904277801513671875</LatitudeDegrees>
              <LongitudeDegrees>-7.8174619562923908233642578125</LongitudeDegrees>
            </Position>
            <AltitudeMeters>518.5999755859375</AltitudeMeters>
            <DistanceMeters>26875.521265892</DistanceMeters>
          </Trackpoint>
          <Trackpoint>
            <Time>2019-07-26T10:26:57.000Z</Time>
            <Position>
              <LatitudeDegrees>42.94620716013014316558837890625</LatitudeDegrees>
              <LongitudeDegrees>-7.817576788365840911865234375</LongitudeDegrees>
            </Position>
            <AltitudeMeters>518.5999755859375</AltitudeMeters>
            <DistanceMeters>26885.430506592</DistanceMeters>
          </Trackpoint>
          <Trackpoint>
            <Time>2019-07-26T10:27:00.000Z</Time>
            <Position>
              <LatitudeDegrees>42.94623130001127719879150390625</LatitudeDegrees>
              <LongitudeDegrees>-7.81767904758453369140625</LongitudeDegrees>
            </Position>
            <AltitudeMeters>519</AltitudeMeters>
            <DistanceMeters>26894.185350329</DistanceMeters>
          </Trackpoint>
          <Trackpoint>
            <Time>2019-07-26T10:27:03.000Z</Time>
            <Position>
              <LatitudeDegrees>42.946245633065700531005859375</LatitudeDegrees>
              <LongitudeDegrees>-7.817771919071674346923828125</LongitudeDegrees>
            </Position>
            <AltitudeMeters>519.4000244140625</AltitudeMeters>
            <DistanceMeters>26901.918213073</DistanceMeters>
          </Trackpoint>
          <Trackpoint>
            <Time>2019-07-26T10:27:05.000Z</Time>
            <Position>
              <LatitudeDegrees>42.9462592117488384246826171875</LatitudeDegrees>
              <LongitudeDegrees>-7.81783486716449260711669921875</LongitudeDegrees>
            </Position>
            <AltitudeMeters>519.5999755859375</AltitudeMeters>
            <DistanceMeters>26907.265102077</DistanceMeters>
          </Trackpoint>
          <Trackpoint>
            <Time>2019-07-26T10:27:07.000Z</Time>
            <Position>
              <LatitudeDegrees>42.946271114051342010498046875</LatitudeDegrees>
              <LongitudeDegrees>-7.81789404340088367462158203125</LongitudeDegrees>
            </Position>
            <AltitudeMeters>520</AltitudeMeters>
            <DistanceMeters>26912.264627214</DistanceMeters>
          </Trackpoint>
          <Trackpoint>
            <Time>2019-07-26T10:27:10.000Z</Time>
            <Position>
              <LatitudeDegrees>42.94628242962062358856201171875</LatitudeDegrees>
              <LongitudeDegrees>-7.817979119718074798583984375</LongitudeDegrees>
            </Position>
            <AltitudeMeters>520.79998779296875</AltitudeMeters>
            <DistanceMeters>26919.310074695</DistanceMeters>
          </Trackpoint>
          <Trackpoint>
            <Time>2019-07-26T10:27:12.000Z</Time>
            <Position>
              <LatitudeDegrees>42.94629634357988834381103515625</LatitudeDegrees>
              <LongitudeDegrees>-7.81803804449737071990966796875</LongitudeDegrees>
            </Position>
            <AltitudeMeters>521.20001220703125</AltitudeMeters>
            <DistanceMeters>26924.35455241</DistanceMeters>
          </Trackpoint>
          <Trackpoint>
            <Time>2019-07-26T10:27:15.000Z</Time>
            <Position>
              <LatitudeDegrees>42.9463269375264644622802734375</LatitudeDegrees>
              <LongitudeDegrees>-7.81811649911105632781982421875</LongitudeDegrees>
            </Position>
            <AltitudeMeters>521.79998779296875</AltitudeMeters>
            <DistanceMeters>26931.596560694</DistanceMeters>
          </Trackpoint>
          <Trackpoint>
            <Time>2019-07-26T10:27:17.000Z</Time>
            <Position>
              <LatitudeDegrees>42.94634856283664703369140625</LatitudeDegrees>
              <LongitudeDegrees>-7.8181600011885166168212890625</LongitudeDegrees>
            </Position>
            <AltitudeMeters>522.20001220703125</AltitudeMeters>
            <DistanceMeters>26935.880147432</DistanceMeters>
          </Trackpoint>
          <Trackpoint>
            <Time>2019-07-26T10:27:21.000Z</Time>
            <Position>
              <LatitudeDegrees>42.94638636521995067596435546875</LatitudeDegrees>
              <LongitudeDegrees>-7.818202078342437744140625</LongitudeDegrees>
            </Position>
            <AltitudeMeters>522.4000244140625</AltitudeMeters>
            <DistanceMeters>26941.307495712</DistanceMeters>
          </Trackpoint>
          <Trackpoint>
            <Time>2019-07-26T10:27:22.000Z</Time>
            <Position>
              <LatitudeDegrees>42.94639424420893192291259765625</LatitudeDegrees>
              <LongitudeDegrees>-7.8182206861674785614013671875</LongitudeDegrees>
            </Position>
            <AltitudeMeters>522.79998779296875</AltitudeMeters>
            <DistanceMeters>26943.062276629</DistanceMeters>
          </Trackpoint>
          <Trackpoint>
            <Time>2019-07-26T10:27:25.000Z</Time>
            <Position>
              <LatitudeDegrees>42.94642710126936435699462890625</LatitudeDegrees>
              <LongitudeDegrees>-7.81829553656280040740966796875</LongitudeDegrees>
            </Position>
            <AltitudeMeters>523.4000244140625</AltitudeMeters>
            <DistanceMeters>26950.172789832</DistanceMeters>
          </Trackpoint>
          <Trackpoint>
            <Time>2019-07-26T10:27:29.000Z</Time>
            <Position>
              <LatitudeDegrees>42.94646783731877803802490234375</LatitudeDegrees>
              <LongitudeDegrees>-7.81838170252740383148193359375</LongitudeDegrees>
            </Position>
            <AltitudeMeters>524.4000244140625</AltitudeMeters>
            <DistanceMeters>26958.529739708</DistanceMeters>
          </Trackpoint>
          <Trackpoint>
            <Time>2019-07-26T10:27:30.000Z</Time>
            <Position>
              <LatitudeDegrees>42.94646834023296833038330078125</LatitudeDegrees>
              <LongitudeDegrees>-7.81840282492339611053466796875</LongitudeDegrees>
            </Position>
            <AltitudeMeters>524.79998779296875</AltitudeMeters>
            <DistanceMeters>26960.250746702</DistanceMeters>
          </Trackpoint>
          <Trackpoint>
            <Time>2019-07-26T10:27:32.000Z</Time>
            <Position>
              <LatitudeDegrees>42.9464701004326343536376953125</LatitudeDegrees>
              <LongitudeDegrees>-7.8184367716312408447265625</LongitudeDegrees>
            </Position>
            <AltitudeMeters>525.4000244140625</AltitudeMeters>
            <DistanceMeters>26963.021227703</DistanceMeters>
          </Trackpoint>
          <Trackpoint>
            <Time>2019-07-26T10:27:36.000Z</Time>
            <Position>
              <LatitudeDegrees>42.946487702429294586181640625</LatitudeDegrees>
              <LongitudeDegrees>-7.8185063414275646209716796875</LongitudeDegrees>
            </Position>
            <AltitudeMeters>526.5999755859375</AltitudeMeters>
            <DistanceMeters>26969.019212744</DistanceMeters>
          </Trackpoint>
          <Trackpoint>
            <Time>2019-07-26T10:27:40.000Z</Time>
            <Position>
              <LatitudeDegrees>42.94650354422628879547119140625</LatitudeDegrees>
              <LongitudeDegrees>-7.81859301030635833740234375</LongitudeDegrees>
            </Position>
            <AltitudeMeters>527.5999755859375</AltitudeMeters>
            <DistanceMeters>26976.2979117</DistanceMeters>
          </Trackpoint>
          <Trackpoint>
            <Time>2019-07-26T10:27:44.000Z</Time>
            <Position>
              <LatitudeDegrees>42.94653539545834064483642578125</LatitudeDegrees>
              <LongitudeDegrees>-7.81869602389633655548095703125</LongitudeDegrees>
            </Position>
            <AltitudeMeters>528.79998779296875</AltitudeMeters>
            <DistanceMeters>26985.408094607</DistanceMeters>
          </Trackpoint>
          <Trackpoint>
            <Time>2019-07-26T10:27:47.000Z</Time>
            <Position>
              <LatitudeDegrees>42.94656758196651935577392578125</LatitudeDegrees>
              <LongitudeDegrees>-7.8187849558889865875244140625</LongitudeDegrees>
            </Position>
            <AltitudeMeters>529.5999755859375</AltitudeMeters>
            <DistanceMeters>26993.490394589</DistanceMeters>
          </Trackpoint>
          <Trackpoint>
            <Time>2019-07-26T10:27:48.000Z</Time>
            <Position>
              <LatitudeDegrees>42.946564815938472747802734375</LatitudeDegrees>
              <LongitudeDegrees>-7.818821333348751068115234375</LongitudeDegrees>
            </Position>
            <AltitudeMeters>530</AltitudeMeters>
            <DistanceMeters>26996.469751087</DistanceMeters>
          </Trackpoint>
          <Trackpoint>
            <Time>2019-07-26T10:27:52.000Z</Time>
            <Position>
              <LatitudeDegrees>42.9465200565755367279052734375</LatitudeDegrees>
              <LongitudeDegrees>-7.81898218207061290740966796875</LongitudeDegrees>
            </Position>
            <AltitudeMeters>531.20001220703125</AltitudeMeters>
            <DistanceMeters>27010.489331818</DistanceMeters>
          </Trackpoint>
          <Trackpoint>
            <Time>2019-07-26T10:27:55.000Z</Time>
            <Position>
              <LatitudeDegrees>42.94646297581493854522705078125</LatitudeDegrees>
              <LongitudeDegrees>-7.8190981037914752960205078125</LongitudeDegrees>
            </Position>
            <AltitudeMeters>531.79998779296875</AltitudeMeters>
            <DistanceMeters>27021.871533132</DistanceMeters>
          </Trackpoint>
          <Trackpoint>
            <Time>2019-07-26T10:27:57.000Z</Time>
            <Position>
              <LatitudeDegrees>42.94642173685133457183837890625</LatitudeDegrees>
              <LongitudeDegrees>-7.8191772289574146270751953125</LongitudeDegrees>
            </Position>
            <AltitudeMeters>532.20001220703125</AltitudeMeters>
            <DistanceMeters>27029.785039317</DistanceMeters>
          </Trackpoint>
          <Trackpoint>
            <Time>2019-07-26T10:28:01.000Z</Time>
            <Position>
              <LatitudeDegrees>42.94637949205935001373291015625</LatitudeDegrees>
              <LongitudeDegrees>-7.8193482197821140289306640625</LongitudeDegrees>
            </Position>
            <AltitudeMeters>532.5999755859375</AltitudeMeters>
            <DistanceMeters>27044.488715395</DistanceMeters>
          </Trackpoint>
          <Trackpoint>
            <Time>2019-07-26T10:28:07.000Z</Time>
            <Position>
              <LatitudeDegrees>42.9463411867618560791015625</LatitudeDegrees>
              <LongitudeDegrees>-7.81960554420948028564453125</LongitudeDegrees>
            </Position>
            <AltitudeMeters>533.4000244140625</AltitudeMeters>
            <DistanceMeters>27065.88260365</DistanceMeters>
          </Trackpoint>
          <Trackpoint>
            <Time>2019-07-26T10:28:10.000Z</Time>
            <Position>
              <LatitudeDegrees>42.9463358223438262939453125</LatitudeDegrees>
              <LongitudeDegrees>-7.81973169185221195220947265625</LongitudeDegrees>
            </Position>
            <AltitudeMeters>534</AltitudeMeters>
            <DistanceMeters>27076.177554219</DistanceMeters>
          </Trackpoint>
          <Trackpoint>
            <Time>2019-07-26T10:28:13.000Z</Time>
            <Position>
              <LatitudeDegrees>42.94633649289608001708984375</LatitudeDegrees>
              <LongitudeDegrees>-7.81985959969460964202880859375</LongitudeDegrees>
            </Position>
            <AltitudeMeters>534.4000244140625</AltitudeMeters>
            <DistanceMeters>27086.598913506</DistanceMeters>
          </Trackpoint>
          <Trackpoint>
            <Time>2019-07-26T10:28:19.000Z</Time>
            <Position>
              <LatitudeDegrees>42.9463349841535091400146484375</LatitudeDegrees>
              <LongitudeDegrees>-7.82012295909225940704345703125</LongitudeDegrees>
            </Position>
            <AltitudeMeters>535.5999755859375</AltitudeMeters>
            <DistanceMeters>27108.056021363</DistanceMeters>
          </Trackpoint>
          <Trackpoint>
            <Time>2019-07-26T10:28:23.000Z</Time>
            <Position>
              <LatitudeDegrees>42.94632366858422756195068359375</LatitudeDegrees>
              <LongitudeDegrees>-7.8202957101166248321533203125</LongitudeDegrees>
            </Position>
            <AltitudeMeters>536.5999755859375</AltitudeMeters>
            <DistanceMeters>27122.186592842</DistanceMeters>
          </Trackpoint>
          <Trackpoint>
            <Time>2019-07-26T10:28:28.000Z</Time>
            <Position>
              <LatitudeDegrees>42.946304976940155029296875</LatitudeDegrees>
              <LongitudeDegrees>-7.8205235302448272705078125</LongitudeDegrees>
            </Position>
            <AltitudeMeters>537.5999755859375</AltitudeMeters>
            <DistanceMeters>27140.863633642</DistanceMeters>
          </Trackpoint>
          <Trackpoint>
            <Time>2019-07-26T10:28:29.000Z</Time>
            <Position>
              <LatitudeDegrees>42.94629894196987152099609375</LatitudeDegrees>
              <LongitudeDegrees>-7.82057105563580989837646484375</LongitudeDegrees>
            </Position>
            <AltitudeMeters>537.79998779296875</AltitudeMeters>
            <DistanceMeters>27144.793192232</DistanceMeters>
          </Trackpoint>
          <Trackpoint>
            <Time>2019-07-26T10:28:34.000Z</Time>
            <Position>
              <LatitudeDegrees>42.94627672992646694183349609375</LatitudeDegrees>
              <LongitudeDegrees>-7.8208070062100887298583984375</LongitudeDegrees>
            </Position>
            <AltitudeMeters>538.79998779296875</AltitudeMeters>
            <DistanceMeters>27164.174915068</DistanceMeters>
          </Trackpoint>
          <Trackpoint>
            <Time>2019-07-26T10:28:38.000Z</Time>
            <Position>
              <LatitudeDegrees>42.94627388007938861846923828125</LatitudeDegrees>
              <LongitudeDegrees>-7.820980511605739593505859375</LongitudeDegrees>
            </Position>
            <AltitudeMeters>539.4000244140625</AltitudeMeters>
            <DistanceMeters>27178.314430352</DistanceMeters>
          </Trackpoint>
          <Trackpoint>
            <Time>2019-07-26T10:28:40.000Z</Time>
            <Position>
              <LatitudeDegrees>42.94627052731812000274658203125</LatitudeDegrees>
              <LongitudeDegrees>-7.82106676138937473297119140625</LongitudeDegrees>
            </Position>
            <AltitudeMeters>539.79998779296875</AltitudeMeters>
            <DistanceMeters>27185.35154192</DistanceMeters>
          </Trackpoint>
          <Trackpoint>
            <Time>2019-07-26T10:28:45.000Z</Time>
            <Position>
              <LatitudeDegrees>42.9462709464132785797119140625</LatitudeDegrees>
              <LongitudeDegrees>-7.8212602995336055755615234375</LongitudeDegrees>
            </Position>
            <AltitudeMeters>540.5999755859375</AltitudeMeters>
            <DistanceMeters>27201.119678297</DistanceMeters>
          </Trackpoint>
          <Trackpoint>
            <Time>2019-07-26T10:28:46.000Z</Time>
            <Position>
              <LatitudeDegrees>42.94626968912780284881591796875</LatitudeDegrees>
              <LongitudeDegrees>-7.82129894010722637176513671875</LongitudeDegrees>
            </Position>
            <AltitudeMeters>540.79998779296875</AltitudeMeters>
            <DistanceMeters>27204.271357863</DistanceMeters>
          </Trackpoint>
          <Trackpoint>
            <Time>2019-07-26T10:28:47.000Z</Time>
            <Position>
              <LatitudeDegrees>42.94626750983297824859619140625</LatitudeDegrees>
              <LongitudeDegrees>-7.82133498229086399078369140625</LongitudeDegrees>
            </Position>
            <AltitudeMeters>540.79998779296875</AltitudeMeters>
            <DistanceMeters>27207.218718299</DistanceMeters>
          </Trackpoint>
          <Trackpoint>
            <Time>2019-07-26T10:28:51.000Z</Time>
            <Position>
              <LatitudeDegrees>42.94626633636653423309326171875</LatitudeDegrees>
              <LongitudeDegrees>-7.8214698471128940582275390625</LongitudeDegrees>
            </Position>
            <AltitudeMeters>541.4000244140625</AltitudeMeters>
            <DistanceMeters>27218.206946188</DistanceMeters>
          </Trackpoint>
          <Trackpoint>
            <Time>2019-07-26T10:28:54.000Z</Time>
            <Position>
              <LatitudeDegrees>42.94625870883464813232421875</LatitudeDegrees>
              <LongitudeDegrees>-7.82158367335796356201171875</LongitudeDegrees>
            </Position>
            <AltitudeMeters>541.79998779296875</AltitudeMeters>
            <DistanceMeters>27227.519564196</DistanceMeters>
          </Trackpoint>
          <Trackpoint>
            <Time>2019-07-26T10:28:55.000Z</Time>
            <Position>
              <LatitudeDegrees>42.94624621979892253875732421875</LatitudeDegrees>
              <LongitudeDegrees>-7.821627594530582427978515625</LongitudeDegrees>
            </Position>
            <AltitudeMeters>542</AltitudeMeters>
            <DistanceMeters>27231.35845528</DistanceMeters>
          </Trackpoint>
          <Trackpoint>
            <Time>2019-07-26T10:29:00.000Z</Time>
            <Position>
              <LatitudeDegrees>42.94617799110710620880126953125</LatitudeDegrees>
              <LongitudeDegrees>-7.8218534030020236968994140625</LongitudeDegrees>
            </Position>
            <AltitudeMeters>542.5999755859375</AltitudeMeters>
            <DistanceMeters>27251.261505133</DistanceMeters>
          </Trackpoint>
          <Trackpoint>
            <Time>2019-07-26T10:29:05.000Z</Time>
            <Position>
              <LatitudeDegrees>42.94608176685869693756103515625</LatitudeDegrees>
              <LongitudeDegrees>-7.8220636211335659027099609375</LongitudeDegrees>
            </Position>
            <AltitudeMeters>543</AltitudeMeters>
            <DistanceMeters>27271.461332711</DistanceMeters>
          </Trackpoint>
          <Trackpoint>
            <Time>2019-07-26T10:29:06.000Z</Time>
            <Position>
              <LatitudeDegrees>42.94605796225368976593017578125</LatitudeDegrees>
              <LongitudeDegrees>-7.82209874130785465240478515625</LongitudeDegrees>
            </Position>
            <AltitudeMeters>543.20001220703125</AltitudeMeters>
            <DistanceMeters>27275.362060696</DistanceMeters>
          </Trackpoint>
          <Trackpoint>
            <Time>2019-07-26T10:29:12.000Z</Time>
            <Position>
              <LatitudeDegrees>42.945938520133495330810546875</LatitudeDegrees>
              <LongitudeDegrees>-7.8223150782287120819091796875</LongitudeDegrees>
            </Position>
            <AltitudeMeters>544</AltitudeMeters>
            <DistanceMeters>27297.438956899</DistanceMeters>
          </Trackpoint>
          <Trackpoint>
            <Time>2019-07-26T10:29:14.000Z</Time>
            <Position>
              <LatitudeDegrees>42.94590222649276256561279296875</LatitudeDegrees>
              <LongitudeDegrees>-7.82238741405308246612548828125</LongitudeDegrees>
            </Position>
            <AltitudeMeters>544.4000244140625</AltitudeMeters>
            <DistanceMeters>27304.583676778</DistanceMeters>
          </Trackpoint>
          <Trackpoint>
            <Time>2019-07-26T10:29:17.000Z</Time>
            <Position>
              <LatitudeDegrees>42.94586517848074436187744140625</LatitudeDegrees>
              <LongitudeDegrees>-7.822473160922527313232421875</LongitudeDegrees>
            </Position>
            <AltitudeMeters>545</AltitudeMeters>
            <DistanceMeters>27312.696086846</DistanceMeters>
          </Trackpoint>
          <Trackpoint>
            <Time>2019-07-26T10:29:18.000Z</Time>
            <Position>
              <LatitudeDegrees>42.94585327617824077606201171875</LatitudeDegrees>
              <LongitudeDegrees>-7.82249403186142444610595703125</LongitudeDegrees>
            </Position>
            <AltitudeMeters>545.20001220703125</AltitudeMeters>
            <DistanceMeters>27314.850491472</DistanceMeters>
          </Trackpoint>
          <Trackpoint>
            <Time>2019-07-26T10:29:20.000Z</Time>
            <Position>
              <LatitudeDegrees>42.945825196802616119384765625</LatitudeDegrees>
              <LongitudeDegrees>-7.8225403837859630584716796875</LongitudeDegrees>
            </Position>
            <AltitudeMeters>546</AltitudeMeters>
            <DistanceMeters>27319.752433273</DistanceMeters>
          </Trackpoint>
          <Trackpoint>
            <Time>2019-07-26T10:29:22.000Z</Time>
            <Position>
              <LatitudeDegrees>42.9457904957234859466552734375</LatitudeDegrees>
              <LongitudeDegrees>-7.82260425388813018798828125</LongitudeDegrees>
            </Position>
            <AltitudeMeters>546.5999755859375</AltitudeMeters>
            <DistanceMeters>27326.232391256</DistanceMeters>
          </Trackpoint>
          <Trackpoint>
            <Time>2019-07-26T10:29:26.000Z</Time>
            <Position>
              <LatitudeDegrees>42.94571480713784694671630859375</LatitudeDegrees>
              <LongitudeDegrees>-7.822718918323516845703125</LongitudeDegrees>
            </Position>
            <AltitudeMeters>547.4000244140625</AltitudeMeters>
            <DistanceMeters>27338.811861023</DistanceMeters>
          </Trackpoint>
          <Trackpoint>
            <Time>2019-07-26T10:29:27.000Z</Time>
            <Position>
              <LatitudeDegrees>42.9456972889602184295654296875</LatitudeDegrees>
              <LongitudeDegrees>-7.82274766825139522552490234375</LongitudeDegrees>
            </Position>
            <AltitudeMeters>547.79998779296875</AltitudeMeters>
            <DistanceMeters>27341.860130804</DistanceMeters>
          </Trackpoint>
          <Trackpoint>
            <Time>2019-07-26T10:29:31.000Z</Time>
            <Position>
              <LatitudeDegrees>42.9456399567425251007080078125</LatitudeDegrees>
              <LongitudeDegrees>-7.822889573872089385986328125</LongitudeDegrees>
            </Position>
            <AltitudeMeters>549</AltitudeMeters>
            <DistanceMeters>27355.065767339</DistanceMeters>
          </Trackpoint>
          <Trackpoint>
            <Time>2019-07-26T10:29:33.000Z</Time>
            <Position>
              <LatitudeDegrees>42.9456178285181522369384765625</LatitudeDegrees>
              <LongitudeDegrees>-7.8229645080864429473876953125</LongitudeDegrees>
            </Position>
            <AltitudeMeters>549.5999755859375</AltitudeMeters>
            <DistanceMeters>27361.649411233</DistanceMeters>
          </Trackpoint>
          <Trackpoint>
            <Time>2019-07-26T10:29:35.000Z</Time>
            <Position>
              <LatitudeDegrees>42.94558472000062465667724609375</LatitudeDegrees>
              <LongitudeDegrees>-7.8230523504316806793212890625</LongitudeDegrees>
            </Position>
            <AltitudeMeters>550</AltitudeMeters>
            <DistanceMeters>27369.699245304</DistanceMeters>
          </Trackpoint>
          <Trackpoint>
            <Time>2019-07-26T10:29:39.000Z</Time>
            <Position>
              <LatitudeDegrees>42.9455420561134815216064453125</LatitudeDegrees>
              <LongitudeDegrees>-7.82323591411113739013671875</LongitudeDegrees>
            </Position>
            <AltitudeMeters>551</AltitudeMeters>
            <DistanceMeters>27385.390455083</DistanceMeters>
          </Trackpoint>
          <Trackpoint>
            <Time>2019-07-26T10:29:40.000Z</Time>
            <Position>
              <LatitudeDegrees>42.94553761370480060577392578125</LatitudeDegrees>
              <LongitudeDegrees>-7.82328360714018344879150390625</LongitudeDegrees>
            </Position>
            <AltitudeMeters>551.20001220703125</AltitudeMeters>
            <DistanceMeters>27389.307354351</DistanceMeters>
          </Trackpoint>
          <Trackpoint>
            <Time>2019-07-26T10:29:47.000Z</Time>
            <Position>
              <LatitudeDegrees>42.94552252627909183502197265625</LatitudeDegrees>
              <LongitudeDegrees>-7.82358451746404170989990234375</LongitudeDegrees>
            </Position>
            <AltitudeMeters>552.5999755859375</AltitudeMeters>
            <DistanceMeters>27413.881086303</DistanceMeters>
          </Trackpoint>
          <Trackpoint>
            <Time>2019-07-26T10:29:52.000Z</Time>
            <Position>
              <LatitudeDegrees>42.9454957880079746246337890625</LatitudeDegrees>
              <LongitudeDegrees>-7.823791466653347015380859375</LongitudeDegrees>
            </Position>
            <AltitudeMeters>553.79998779296875</AltitudeMeters>
            <DistanceMeters>27431.002780193</DistanceMeters>
          </Trackpoint>
          <Trackpoint>
            <Time>2019-07-26T10:29:54.000Z</Time>
            <Position>
              <LatitudeDegrees>42.9454907588660717010498046875</LatitudeDegrees>
              <LongitudeDegrees>-7.82388308085501194000244140625</LongitudeDegrees>
            </Position>
            <AltitudeMeters>554.20001220703125</AltitudeMeters>
            <DistanceMeters>27438.488207658</DistanceMeters>
          </Trackpoint>
          <Trackpoint>
            <Time>2019-07-26T10:29:55.000Z</Time>
            <Position>
              <LatitudeDegrees>42.94548799283802509307861328125</LatitudeDegrees>
              <LongitudeDegrees>-7.823928929865360260009765625</LongitudeDegrees>
            </Position>
            <AltitudeMeters>554.4000244140625</AltitudeMeters>
            <DistanceMeters>27442.236647193</DistanceMeters>
          </Trackpoint>
          <Trackpoint>
            <Time>2019-07-26T10:29:58.000Z</Time>
            <Position>
              <LatitudeDegrees>42.945477850735187530517578125</LatitudeDegrees>
              <LongitudeDegrees>-7.82407385297119617462158203125</LongitudeDegrees>
            </Position>
            <AltitudeMeters>555</AltitudeMeters>
            <DistanceMeters>27454.097869347</DistanceMeters>
          </Trackpoint>
          <Trackpoint>
            <Time>2019-07-26T10:30:02.000Z</Time>
            <Position>
              <LatitudeDegrees>42.94548363424837589263916015625</LatitudeDegrees>
              <LongitudeDegrees>-7.82426227815449237823486328125</LongitudeDegrees>
            </Position>
            <AltitudeMeters>555.5999755859375</AltitudeMeters>
            <DistanceMeters>27469.46283985</DistanceMeters>
          </Trackpoint>
          <Trackpoint>
            <Time>2019-07-26T10:30:06.000Z</Time>
            <Position>
              <LatitudeDegrees>42.94551598839461803436279296875</LatitudeDegrees>
              <LongitudeDegrees>-7.82445506192743778228759765625</LongitudeDegrees>
            </Position>
            <AltitudeMeters>556</AltitudeMeters>
            <DistanceMeters>27485.577084425</DistanceMeters>
          </Trackpoint>
          <Trackpoint>
            <Time>2019-07-26T10:30:08.000Z</Time>
            <Position>
              <LatitudeDegrees>42.94553275220096111297607421875</LatitudeDegrees>
              <LongitudeDegrees>-7.82452999614179134368896484375</LongitudeDegrees>
            </Position>
            <AltitudeMeters>556.20001220703125</AltitudeMeters>
            <DistanceMeters>27491.960164004</DistanceMeters>
          </Trackpoint>
          <Trackpoint>
            <Time>2019-07-26T10:30:10.000Z</Time>
            <Position>
              <LatitudeDegrees>42.9455480910837650299072265625</LatitudeDegrees>
              <LongitudeDegrees>-7.82458833418786525726318359375</LongitudeDegrees>
            </Position>
            <AltitudeMeters>556.4000244140625</AltitudeMeters>
            <DistanceMeters>27497.010009139</DistanceMeters>
          </Trackpoint>
          <Trackpoint>
            <Time>2019-07-26T10:30:13.000Z</Time>
            <Position>
              <LatitudeDegrees>42.9455477558076381683349609375</LatitudeDegrees>
              <LongitudeDegrees>-7.82462487928569316864013671875</LongitudeDegrees>
            </Position>
            <AltitudeMeters>556.4000244140625</AltitudeMeters>
            <DistanceMeters>27499.987849811</DistanceMeters>
          </Trackpoint>
          <Trackpoint>
            <Time>2019-07-26T10:30:15.000Z</Time>
            <Position>
              <LatitudeDegrees>42.9455383680760860443115234375</LatitudeDegrees>
              <LongitudeDegrees>-7.82463208772242069244384765625</LongitudeDegrees>
            </Position>
            <AltitudeMeters>556.5999755859375</AltitudeMeters>
            <DistanceMeters>27501.182317089</DistanceMeters>
          </Trackpoint>
          <Trackpoint>
            <Time>2019-07-26T10:33:41.000Z</Time>
            <Position>
              <LatitudeDegrees>42.9453338496387004852294921875</LatitudeDegrees>
              <LongitudeDegrees>-7.82480073161423206329345703125</LongitudeDegrees>
            </Position>
            <AltitudeMeters>556.20001220703125</AltitudeMeters>
            <DistanceMeters>27527.770784977</DistanceMeters>
          </Trackpoint>
          <Trackpoint>
            <Time>2019-07-26T10:33:42.000Z</Time>
            <Position>
              <LatitudeDegrees>42.94534047134220600128173828125</LatitudeDegrees>
              <LongitudeDegrees>-7.82485286705195903778076171875</LongitudeDegrees>
            </Position>
            <AltitudeMeters>556.4000244140625</AltitudeMeters>
            <DistanceMeters>27532.082736669</DistanceMeters>
          </Trackpoint>
          <Trackpoint>
            <Time>2019-07-26T10:33:44.000Z</Time>
            <Position>
              <LatitudeDegrees>42.94534818269312381744384765625</LatitudeDegrees>
              <LongitudeDegrees>-7.82497239299118518829345703125</LongitudeDegrees>
            </Position>
            <AltitudeMeters>556.5999755859375</AltitudeMeters>
            <DistanceMeters>27541.858949079</DistanceMeters>
          </Trackpoint>
          <Trackpoint>
            <Time>2019-07-26T10:33:46.000Z</Time>
            <Position>
              <LatitudeDegrees>42.9453573189675807952880859375</LatitudeDegrees>
              <LongitudeDegrees>-7.8250873088836669921875</LongitudeDegrees>
            </Position>
            <AltitudeMeters>556.5999755859375</AltitudeMeters>
            <DistanceMeters>27551.277146407</DistanceMeters>
          </Trackpoint>
          <Trackpoint>
            <Time>2019-07-26T10:33:47.000Z</Time>
            <Position>
              <LatitudeDegrees>42.94536176137626171112060546875</LatitudeDegrees>
              <LongitudeDegrees>-7.82515394501388072967529296875</LongitudeDegrees>
            </Position>
            <AltitudeMeters>556.5999755859375</AltitudeMeters>
            <DistanceMeters>27556.72856655</DistanceMeters>
          </Trackpoint>
          <Trackpoint>
            <Time>2019-07-26T10:33:51.000Z</Time>
            <Position>
              <LatitudeDegrees>42.94538623653352260589599609375</LatitudeDegrees>
              <LongitudeDegrees>-7.825425602495670318603515625</LongitudeDegrees>
            </Position>
            <AltitudeMeters>557</AltitudeMeters>
            <DistanceMeters>27579.028483809</DistanceMeters>
          </Trackpoint>
          <Trackpoint>
            <Time>2019-07-26T10:33:53.000Z</Time>
            <Position>
              <LatitudeDegrees>42.9454213567078113555908203125</LatitudeDegrees>
              <LongitudeDegrees>-7.82555778510868549346923828125</LongitudeDegrees>
            </Position>
            <AltitudeMeters>557</AltitudeMeters>
            <DistanceMeters>27590.48541146</DistanceMeters>
          </Trackpoint>
          <Trackpoint>
            <Time>2019-07-26T10:33:55.000Z</Time>
            <Position>
              <LatitudeDegrees>42.94544138945639133453369140625</LatitudeDegrees>
              <LongitudeDegrees>-7.82569491304457187652587890625</LongitudeDegrees>
            </Position>
            <AltitudeMeters>557.20001220703125</AltitudeMeters>
            <DistanceMeters>27601.877921663</DistanceMeters>
          </Trackpoint>
          <Trackpoint>
            <Time>2019-07-26T10:33:57.000Z</Time>
            <Position>
              <LatitudeDegrees>42.94546569697558879852294921875</LatitudeDegrees>
              <LongitudeDegrees>-7.82581510953605175018310546875</LongitudeDegrees>
            </Position>
            <AltitudeMeters>557.20001220703125</AltitudeMeters>
            <DistanceMeters>27612.037339646</DistanceMeters>
          </Trackpoint>
          <Trackpoint>
            <Time>2019-07-26T10:33:59.000Z</Time>
            <Position>
              <LatitudeDegrees>42.9454924352467060089111328125</LatitudeDegrees>
              <LongitudeDegrees>-7.82593949697911739349365234375</LongitudeDegrees>
            </Position>
            <AltitudeMeters>557.4000244140625</AltitudeMeters>
            <DistanceMeters>27622.599421088</DistanceMeters>
          </Trackpoint>
          <Trackpoint>
            <Time>2019-07-26T10:34:02.000Z</Time>
            <Position>
              <LatitudeDegrees>42.945504672825336456298828125</LatitudeDegrees>
              <LongitudeDegrees>-7.826153822243213653564453125</LongitudeDegrees>
            </Position>
            <AltitudeMeters>557.5999755859375</AltitudeMeters>
            <DistanceMeters>27640.114007206</DistanceMeters>
          </Trackpoint>
          <Trackpoint>
            <Time>2019-07-26T10:34:05.000Z</Time>
            <Position>
              <LatitudeDegrees>42.945516407489776611328125</LatitudeDegrees>
              <LongitudeDegrees>-7.82639086246490478515625</LongitudeDegrees>
            </Position>
            <AltitudeMeters>557.5999755859375</AltitudeMeters>
            <DistanceMeters>27659.470554724</DistanceMeters>
          </Trackpoint>
          <Trackpoint>
            <Time>2019-07-26T10:34:10.000Z</Time>
            <Position>
              <LatitudeDegrees>42.94554901309311389923095703125</LatitudeDegrees>
              <LongitudeDegrees>-7.82681574113667011260986328125</LongitudeDegrees>
            </Position>
            <AltitudeMeters>557.5999755859375</AltitudeMeters>
            <DistanceMeters>27694.276415804</DistanceMeters>
          </Trackpoint>
          <Trackpoint>
            <Time>2019-07-26T10:34:12.000Z</Time>
            <Position>
              <LatitudeDegrees>42.94555370695888996124267578125</LatitudeDegrees>
              <LongitudeDegrees>-7.826956473290920257568359375</LongitudeDegrees>
            </Position>
            <AltitudeMeters>557.5999755859375</AltitudeMeters>
            <DistanceMeters>27705.754211116</DistanceMeters>
          </Trackpoint>
          <Trackpoint>
            <Time>2019-07-26T10:34:16.000Z</Time>
            <Position>
              <LatitudeDegrees>42.94556041248142719268798828125</LatitudeDegrees>
              <LongitudeDegrees>-7.8272500075399875640869140625</LongitudeDegrees>
            </Position>
            <AltitudeMeters>557.4000244140625</AltitudeMeters>
            <DistanceMeters>27729.681137715</DistanceMeters>
          </Trackpoint>
          <Trackpoint>
            <Time>2019-07-26T10:34:21.000Z</Time>
            <Position>
              <LatitudeDegrees>42.94560902751982212066650390625</LatitudeDegrees>
              <LongitudeDegrees>-7.8275621496140956878662109375</LongitudeDegrees>
            </Position>
            <AltitudeMeters>557.4000244140625</AltitudeMeters>
            <DistanceMeters>27755.681669304</DistanceMeters>
          </Trackpoint>
          <Trackpoint>
            <Time>2019-07-26T10:34:26.000Z</Time>
            <Position>
              <LatitudeDegrees>42.9456677846610546112060546875</LatitudeDegrees>
              <LongitudeDegrees>-7.82784202136099338531494140625</LongitudeDegrees>
            </Position>
            <AltitudeMeters>558</AltitudeMeters>
            <DistanceMeters>27779.402971619</DistanceMeters>
          </Trackpoint>
          <Trackpoint>
            <Time>2019-07-26T10:34:27.000Z</Time>
            <Position>
              <LatitudeDegrees>42.94568471610546112060546875</LatitudeDegrees>
              <LongitudeDegrees>-7.82789700664579868316650390625</LongitudeDegrees>
            </Position>
            <AltitudeMeters>558.5999755859375</AltitudeMeters>
            <DistanceMeters>27784.263288479</DistanceMeters>
          </Trackpoint>
          <Trackpoint>
            <Time>2019-07-26T10:34:28.000Z</Time>
            <Position>
              <LatitudeDegrees>42.94570256955921649932861328125</LatitudeDegrees>
              <LongitudeDegrees>-7.827949561178684234619140625</LongitudeDegrees>
            </Position>
            <AltitudeMeters>559</AltitudeMeters>
            <DistanceMeters>27788.983161209</DistanceMeters>
          </Trackpoint>
          <Trackpoint>
            <Time>2019-07-26T10:34:31.000Z</Time>
            <Position>
              <LatitudeDegrees>42.9457311518490314483642578125</LatitudeDegrees>
              <LongitudeDegrees>-7.828114517033100128173828125</LongitudeDegrees>
            </Position>
            <AltitudeMeters>560</AltitudeMeters>
            <DistanceMeters>27802.793783014</DistanceMeters>
          </Trackpoint>
          <Trackpoint>
            <Time>2019-07-26T10:34:34.000Z</Time>
            <Position>
              <LatitudeDegrees>42.9457432217895984649658203125</LatitudeDegrees>
              <LongitudeDegrees>-7.8282662294805049896240234375</LongitudeDegrees>
            </Position>
            <AltitudeMeters>560.79998779296875</AltitudeMeters>
            <DistanceMeters>27815.226676827</DistanceMeters>
          </Trackpoint>
          <Trackpoint>
            <Time>2019-07-26T10:34:35.000Z</Time>
            <Position>
              <LatitudeDegrees>42.94574732892215251922607421875</LatitudeDegrees>
              <LongitudeDegrees>-7.82831174321472644805908203125</LongitudeDegrees>
            </Position>
            <AltitudeMeters>561</AltitudeMeters>
            <DistanceMeters>27818.963051833</DistanceMeters>
          </Trackpoint>
          <Trackpoint>
            <Time>2019-07-26T10:34:38.000Z</Time>
            <Position>
              <LatitudeDegrees>42.945774905383586883544921875</LatitudeDegrees>
              <LongitudeDegrees>-7.828486673533916473388671875</LongitudeDegrees>
            </Position>
            <AltitudeMeters>561.79998779296875</AltitudeMeters>
            <DistanceMeters>27833.541834679</DistanceMeters>
          </Trackpoint>
          <Trackpoint>
            <Time>2019-07-26T10:34:40.000Z</Time>
            <Position>
              <LatitudeDegrees>42.94579661451280117034912109375</LatitudeDegrees>
              <LongitudeDegrees>-7.82859790138900279998779296875</LongitudeDegrees>
            </Position>
            <AltitudeMeters>562.20001220703125</AltitudeMeters>
            <DistanceMeters>27842.9201578</DistanceMeters>
          </Trackpoint>
          <Trackpoint>
            <Time>2019-07-26T10:34:41.000Z</Time>
            <Position>
              <LatitudeDegrees>42.94580541551113128662109375</LatitudeDegrees>
              <LongitudeDegrees>-7.8286533057689666748046875</LongitudeDegrees>
            </Position>
            <AltitudeMeters>562.4000244140625</AltitudeMeters>
            <DistanceMeters>27847.538495224</DistanceMeters>
          </Trackpoint>
          <Trackpoint>
            <Time>2019-07-26T10:34:45.000Z</Time>
            <Position>
              <LatitudeDegrees>42.94583366252481937408447265625</LatitudeDegrees>
              <LongitudeDegrees>-7.82888188026845455169677734375</LongitudeDegrees>
            </Position>
            <AltitudeMeters>563.4000244140625</AltitudeMeters>
            <DistanceMeters>27866.424442101</DistanceMeters>
          </Trackpoint>
          <Trackpoint>
            <Time>2019-07-26T10:34:48.000Z</Time>
            <Position>
              <LatitudeDegrees>42.94585444964468479156494140625</LatitudeDegrees>
              <LongitudeDegrees>-7.82905362546443939208984375</LongitudeDegrees>
            </Position>
            <AltitudeMeters>563.79998779296875</AltitudeMeters>
            <DistanceMeters>27880.607000149</DistanceMeters>
          </Trackpoint>
          <Trackpoint>
            <Time>2019-07-26T10:34:51.000Z</Time>
            <Position>
              <LatitudeDegrees>42.94587356038391590118408203125</LatitudeDegrees>
              <LongitudeDegrees>-7.829222939908504486083984375</LongitudeDegrees>
            </Position>
            <AltitudeMeters>564.4000244140625</AltitudeMeters>
            <DistanceMeters>27894.564609873</DistanceMeters>
          </Trackpoint>
          <Trackpoint>
            <Time>2019-07-26T10:34:55.000Z</Time>
            <Position>
              <LatitudeDegrees>42.94590733945369720458984375</LatitudeDegrees>
              <LongitudeDegrees>-7.829441539943218231201171875</LongitudeDegrees>
            </Position>
            <AltitudeMeters>565.5999755859375</AltitudeMeters>
            <DistanceMeters>27912.767125218</DistanceMeters>
          </Trackpoint>
          <Trackpoint>
            <Time>2019-07-26T10:34:57.000Z</Time>
            <Position>
              <LatitudeDegrees>42.94592167250812053680419921875</LatitudeDegrees>
              <LongitudeDegrees>-7.82954589463770389556884765625</LongitudeDegrees>
            </Position>
            <AltitudeMeters>566</AltitudeMeters>
            <DistanceMeters>27921.417166456</DistanceMeters>
          </Trackpoint>
          <Trackpoint>
            <Time>2019-07-26T10:35:01.000Z</Time>
            <Position>
              <LatitudeDegrees>42.9459470696747303009033203125</LatitudeDegrees>
              <LongitudeDegrees>-7.82975309528410434722900390625</LongitudeDegrees>
            </Position>
            <AltitudeMeters>566.79998779296875</AltitudeMeters>
            <DistanceMeters>27938.533321692</DistanceMeters>
          </Trackpoint>
          <Trackpoint>
            <Time>2019-07-26T10:35:05.000Z</Time>
            <Position>
              <LatitudeDegrees>42.9459759034216403961181640625</LatitudeDegrees>
              <LongitudeDegrees>-7.82995794899761676788330078125</LongitudeDegrees>
            </Position>
            <AltitudeMeters>567.79998779296875</AltitudeMeters>
            <DistanceMeters>27955.529029541</DistanceMeters>
          </Trackpoint>
          <Trackpoint>
            <Time>2019-07-26T10:35:07.000Z</Time>
            <Position>
              <LatitudeDegrees>42.94598822481930255889892578125</LatitudeDegrees>
              <LongitudeDegrees>-7.8300535865128040313720703125</LongitudeDegrees>
            </Position>
            <AltitudeMeters>568.20001220703125</AltitudeMeters>
            <DistanceMeters>27963.440253203</DistanceMeters>
          </Trackpoint>
          <Trackpoint>
            <Time>2019-07-26T10:35:10.000Z</Time>
            <Position>
              <LatitudeDegrees>42.94601353816688060760498046875</LatitudeDegrees>
              <LongitudeDegrees>-7.830195240676403045654296875</LongitudeDegrees>
            </Position>
            <AltitudeMeters>569</AltitudeMeters>
            <DistanceMeters>27975.32011283</DistanceMeters>
          </Trackpoint>
          <Trackpoint>
            <Time>2019-07-26T10:35:14.000Z</Time>
            <Position>
              <LatitudeDegrees>42.9460637457668781280517578125</LatitudeDegrees>
              <LongitudeDegrees>-7.83038056455552577972412109375</LongitudeDegrees>
            </Position>
            <AltitudeMeters>569.79998779296875</AltitudeMeters>
            <DistanceMeters>27991.419780971</DistanceMeters>
          </Trackpoint>
          <Trackpoint>
            <Time>2019-07-26T10:35:16.000Z</Time>
            <Position>
              <LatitudeDegrees>42.94608562253415584564208984375</LatitudeDegrees>
              <LongitudeDegrees>-7.8304696641862392425537109375</LongitudeDegrees>
            </Position>
            <AltitudeMeters>570.4000244140625</AltitudeMeters>
            <DistanceMeters>27999.076363516</DistanceMeters>
          </Trackpoint>
          <Trackpoint>
            <Time>2019-07-26T10:35:21.000Z</Time>
            <Position>
              <LatitudeDegrees>42.9461373388767242431640625</LatitudeDegrees>
              <LongitudeDegrees>-7.83068683929741382598876953125</LongitudeDegrees>
            </Position>
            <AltitudeMeters>571.4000244140625</AltitudeMeters>
            <DistanceMeters>28017.683166865</DistanceMeters>
          </Trackpoint>
          <Trackpoint>
            <Time>2019-07-26T10:35:22.000Z</Time>
            <Position>
              <LatitudeDegrees>42.94614848680794239044189453125</LatitudeDegrees>
              <LongitudeDegrees>-7.83073076047003269195556640625</LongitudeDegrees>
            </Position>
            <AltitudeMeters>571.5999755859375</AltitudeMeters>
            <DistanceMeters>28021.469954605</DistanceMeters>
          </Trackpoint>
          <Trackpoint>
            <Time>2019-07-26T10:35:28.000Z</Time>
            <Position>
              <LatitudeDegrees>42.94617824256420135498046875</LatitudeDegrees>
              <LongitudeDegrees>-7.8310416452586650848388671875</LongitudeDegrees>
            </Position>
            <AltitudeMeters>572.5999755859375</AltitudeMeters>
            <DistanceMeters>28047.013941446</DistanceMeters>
          </Trackpoint>
          <Trackpoint>
            <Time>2019-07-26T10:35:35.000Z</Time>
            <Position>
              <LatitudeDegrees>42.94620246626436710357666015625</LatitudeDegrees>
              <LongitudeDegrees>-7.8314131312072277069091796875</LongitudeDegrees>
            </Position>
            <AltitudeMeters>573.79998779296875</AltitudeMeters>
            <DistanceMeters>28077.399615637</DistanceMeters>
          </Trackpoint>
          <Trackpoint>
            <Time>2019-07-26T10:35:36.000Z</Time>
            <Position>
              <LatitudeDegrees>42.9462099261581897735595703125</LatitudeDegrees>
              <LongitudeDegrees>-7.831463925540447235107421875</LongitudeDegrees>
            </Position>
            <AltitudeMeters>574</AltitudeMeters>
            <DistanceMeters>28081.621625929</DistanceMeters>
          </Trackpoint>
          <Trackpoint>
            <Time>2019-07-26T10:35:40.000Z</Time>
            <Position>
              <LatitudeDegrees>42.9462156258523464202880859375</LatitudeDegrees>
              <LongitudeDegrees>-7.83170155249536037445068359375</LongitudeDegrees>
            </Position>
            <AltitudeMeters>575</AltitudeMeters>
            <DistanceMeters>28100.992163774</DistanceMeters>
          </Trackpoint>
          <Trackpoint>
            <Time>2019-07-26T10:35:43.000Z</Time>
            <Position>
              <LatitudeDegrees>42.94622979126870632171630859375</LatitudeDegrees>
              <LongitudeDegrees>-7.8318692743778228759765625</LongitudeDegrees>
            </Position>
            <AltitudeMeters>575.20001220703125</AltitudeMeters>
            <DistanceMeters>28114.747752522</DistanceMeters>
          </Trackpoint>
          <Trackpoint>
            <Time>2019-07-26T10:35:46.000Z</Time>
            <Position>
              <LatitudeDegrees>42.94625409878790378570556640625</LatitudeDegrees>
              <LongitudeDegrees>-7.83202677033841609954833984375</LongitudeDegrees>
            </Position>
            <AltitudeMeters>575.5999755859375</AltitudeMeters>
            <DistanceMeters>28127.861439105</DistanceMeters>
          </Trackpoint>
          <Trackpoint>
            <Time>2019-07-26T10:35:49.000Z</Time>
            <Position>
              <LatitudeDegrees>42.94627874158322811126708984375</LatitudeDegrees>
              <LongitudeDegrees>-7.83220161683857440948486328125</LongitudeDegrees>
            </Position>
            <AltitudeMeters>576.20001220703125</AltitudeMeters>
            <DistanceMeters>28142.367882551</DistanceMeters>
          </Trackpoint>
          <Trackpoint>
            <Time>2019-07-26T10:35:50.000Z</Time>
            <Position>
              <LatitudeDegrees>42.9462880454957485198974609375</LatitudeDegrees>
              <LongitudeDegrees>-7.8322630561888217926025390625</LongitudeDegrees>
            </Position>
            <AltitudeMeters>576.4000244140625</AltitudeMeters>
            <DistanceMeters>28147.479931184</DistanceMeters>
          </Trackpoint>
          <Trackpoint>
            <Time>2019-07-26T10:35:56.000Z</Time>
            <Position>
              <LatitudeDegrees>42.94633875600993633270263671875</LatitudeDegrees>
              <LongitudeDegrees>-7.832616604864597320556640625</LongitudeDegrees>
            </Position>
            <AltitudeMeters>577.20001220703125</AltitudeMeters>
            <DistanceMeters>28176.83195894</DistanceMeters>
          </Trackpoint>
          <Trackpoint>
            <Time>2019-07-26T10:35:57.000Z</Time>
            <Position>
              <LatitudeDegrees>42.94634663499891757965087890625</LatitudeDegrees>
              <LongitudeDegrees>-7.83267569728195667266845703125</LongitudeDegrees>
            </Position>
            <AltitudeMeters>577.20001220703125</AltitudeMeters>
            <DistanceMeters>28181.725604077</DistanceMeters>
          </Trackpoint>
          <Trackpoint>
            <Time>2019-07-26T10:35:58.000Z</Time>
            <Position>
              <LatitudeDegrees>42.9463545978069305419921875</LatitudeDegrees>
              <LongitudeDegrees>-7.83273453824222087860107421875</LongitudeDegrees>
            </Position>
            <AltitudeMeters>577.20001220703125</AltitudeMeters>
            <DistanceMeters>28186.600761633</DistanceMeters>
          </Trackpoint>
          <Trackpoint>
            <Time>2019-07-26T10:36:02.000Z</Time>
            <Position>
              <LatitudeDegrees>42.946395836770534515380859375</LatitudeDegrees>
              <LongitudeDegrees>-7.83296286128461360931396484375</LongitudeDegrees>
            </Position>
            <AltitudeMeters>577.5999755859375</AltitudeMeters>
            <DistanceMeters>28205.760843255</DistanceMeters>
          </Trackpoint>
          <Trackpoint>
            <Time>2019-07-26T10:36:07.000Z</Time>
            <Position>
              <LatitudeDegrees>42.94644705019891262054443359375</LatitudeDegrees>
              <LongitudeDegrees>-7.833252958953380584716796875</LongitudeDegrees>
            </Position>
            <AltitudeMeters>578.20001220703125</AltitudeMeters>
            <DistanceMeters>28230.073201098</DistanceMeters>
          </Trackpoint>
          <Trackpoint>
            <Time>2019-07-26T10:36:08.000Z</Time>
            <Position>
              <LatitudeDegrees>42.9464583657681941986083984375</LatitudeDegrees>
              <LongitudeDegrees>-7.8333107940852642059326171875</LongitudeDegrees>
            </Position>
            <AltitudeMeters>578.20001220703125</AltitudeMeters>
            <DistanceMeters>28234.952061775</DistanceMeters>
          </Trackpoint>
          <Trackpoint>
            <Time>2019-07-26T10:36:16.000Z</Time>
            <Position>
              <LatitudeDegrees>42.9465291090309619903564453125</LatitudeDegrees>
              <LongitudeDegrees>-7.83378328196704387664794921875</LongitudeDegrees>
            </Position>
            <AltitudeMeters>579</AltitudeMeters>
            <DistanceMeters>28274.243511088</DistanceMeters>
          </Trackpoint>
          <Trackpoint>
            <Time>2019-07-26T10:36:20.000Z</Time>
            <Position>
              <LatitudeDegrees>42.94656691141426563262939453125</LatitudeDegrees>
              <LongitudeDegrees>-7.83400674350559711456298828125</LongitudeDegrees>
            </Position>
            <AltitudeMeters>579.4000244140625</AltitudeMeters>
            <DistanceMeters>28292.929252599</DistanceMeters>
          </Trackpoint>
          <Trackpoint>
            <Time>2019-07-26T10:36:25.000Z</Time>
            <Position>
              <LatitudeDegrees>42.94661737047135829925537109375</LatitudeDegrees>
              <LongitudeDegrees>-7.8342673368752002716064453125</LongitudeDegrees>
            </Position>
            <AltitudeMeters>580.20001220703125</AltitudeMeters>
            <DistanceMeters>28314.890499896</DistanceMeters>
          </Trackpoint>
          <Trackpoint>
            <Time>2019-07-26T10:36:26.000Z</Time>
            <Position>
              <LatitudeDegrees>42.9466266743838787078857421875</LatitudeDegrees>
              <LongitudeDegrees>-7.83431787975132465362548828125</LongitudeDegrees>
            </Position>
            <AltitudeMeters>580.5999755859375</AltitudeMeters>
            <DistanceMeters>28319.135971906</DistanceMeters>
          </Trackpoint>
          <Trackpoint>
            <Time>2019-07-26T10:36:32.000Z</Time>
            <Position>
              <LatitudeDegrees>42.94667503796517848968505859375</LatitudeDegrees>
              <LongitudeDegrees>-7.8346078097820281982421875</LongitudeDegrees>
            </Position>
            <AltitudeMeters>581.79998779296875</AltitudeMeters>
            <DistanceMeters>28343.362752722</DistanceMeters>
          </Trackpoint>
          <Trackpoint>
            <Time>2019-07-26T10:36:33.000Z</Time>
            <Position>
              <LatitudeDegrees>42.9466813243925571441650390625</LatitudeDegrees>
              <LongitudeDegrees>-7.83465013839304447174072265625</LongitudeDegrees>
            </Position>
            <AltitudeMeters>582.20001220703125</AltitudeMeters>
            <DistanceMeters>28346.881308506</DistanceMeters>
          </Trackpoint>
          <Trackpoint>
            <Time>2019-07-26T10:36:35.000Z</Time>
            <Position>
              <LatitudeDegrees>42.946698255836963653564453125</LatitudeDegrees>
              <LongitudeDegrees>-7.83473454415798187255859375</LongitudeDegrees>
            </Position>
            <AltitudeMeters>582.79998779296875</AltitudeMeters>
            <DistanceMeters>28354.011478937</DistanceMeters>
          </Trackpoint>
          <Trackpoint>
            <Time>2019-07-26T10:36:38.000Z</Time>
            <Position>
              <LatitudeDegrees>42.9467166960239410400390625</LatitudeDegrees>
              <LongitudeDegrees>-7.8348654694855213165283203125</LongitudeDegrees>
            </Position>
            <AltitudeMeters>583.79998779296875</AltitudeMeters>
            <DistanceMeters>28364.873660063</DistanceMeters>
          </Trackpoint>
          <Trackpoint>
            <Time>2019-07-26T10:36:40.000Z</Time>
            <Position>
              <LatitudeDegrees>42.946728765964508056640625</LatitudeDegrees>
              <LongitudeDegrees>-7.83494903706014156341552734375</LongitudeDegrees>
            </Position>
            <AltitudeMeters>584.4000244140625</AltitudeMeters>
            <DistanceMeters>28371.813863788</DistanceMeters>
          </Trackpoint>
          <Trackpoint>
            <Time>2019-07-26T10:36:43.000Z</Time>
            <Position>
              <LatitudeDegrees>42.94674326665699481964111328125</LatitudeDegrees>
              <LongitudeDegrees>-7.8350771963596343994140625</LongitudeDegrees>
            </Position>
            <AltitudeMeters>585</AltitudeMeters>
            <DistanceMeters>28382.379364487</DistanceMeters>
          </Trackpoint>
          <Trackpoint>
            <Time>2019-07-26T10:36:46.000Z</Time>
            <Position>
              <LatitudeDegrees>42.94675466604530811309814453125</LatitudeDegrees>
              <LongitudeDegrees>-7.83521038480103015899658203125</LongitudeDegrees>
            </Position>
            <AltitudeMeters>585.79998779296875</AltitudeMeters>
            <DistanceMeters>28393.30371757</DistanceMeters>
          </Trackpoint>
          <Trackpoint>
            <Time>2019-07-26T10:36:48.000Z</Time>
            <Position>
              <LatitudeDegrees>42.94675885699689388275146484375</LatitudeDegrees>
              <LongitudeDegrees>-7.83530409447848796844482421875</LongitudeDegrees>
            </Position>
            <AltitudeMeters>586.20001220703125</AltitudeMeters>
            <DistanceMeters>28400.952039948</DistanceMeters>
          </Trackpoint>
          <Trackpoint>
            <Time>2019-07-26T10:36:53.000Z</Time>
            <Position>
              <LatitudeDegrees>42.94674997217953205108642578125</LatitudeDegrees>
              <LongitudeDegrees>-7.835556305944919586181640625</LongitudeDegrees>
            </Position>
            <AltitudeMeters>587.4000244140625</AltitudeMeters>
            <DistanceMeters>28421.523951931</DistanceMeters>
          </Trackpoint>
          <Trackpoint>
            <Time>2019-07-26T10:36:54.000Z</Time>
            <Position>
              <LatitudeDegrees>42.94674343429505825042724609375</LatitudeDegrees>
              <LongitudeDegrees>-7.83560785464942455291748046875</LongitudeDegrees>
            </Position>
            <AltitudeMeters>587.5999755859375</AltitudeMeters>
            <DistanceMeters>28425.786405896</DistanceMeters>
          </Trackpoint>
          <Trackpoint>
            <Time>2019-07-26T10:36:57.000Z</Time>
            <Position>
              <LatitudeDegrees>42.9467188753187656402587890625</LatitudeDegrees>
              <LongitudeDegrees>-7.83575956709682941436767578125</LongitudeDegrees>
            </Position>
            <AltitudeMeters>588.4000244140625</AltitudeMeters>
            <DistanceMeters>28438.445305397</DistanceMeters>
          </Trackpoint>
          <Trackpoint>
            <Time>2019-07-26T10:37:02.000Z</Time>
            <Position>
              <LatitudeDegrees>42.94666363857686519622802734375</LatitudeDegrees>
              <LongitudeDegrees>-7.83600230701267719268798828125</LongitudeDegrees>
            </Position>
            <AltitudeMeters>589.4000244140625</AltitudeMeters>
            <DistanceMeters>28459.155461623</DistanceMeters>
          </Trackpoint>
          <Trackpoint>
            <Time>2019-07-26T10:37:03.000Z</Time>
            <Position>
              <LatitudeDegrees>42.94664888642728328704833984375</LatitudeDegrees>
              <LongitudeDegrees>-7.83605025149881839752197265625</LongitudeDegrees>
            </Position>
            <AltitudeMeters>589.79998779296875</AltitudeMeters>
            <DistanceMeters>28463.391351364</DistanceMeters>
          </Trackpoint>
          <Trackpoint>
            <Time>2019-07-26T10:37:07.000Z</Time>
            <Position>
              <LatitudeDegrees>42.9465951584279537200927734375</LatitudeDegrees>
              <LongitudeDegrees>-7.836257033050060272216796875</LongitudeDegrees>
            </Position>
            <AltitudeMeters>591</AltitudeMeters>
            <DistanceMeters>28481.267995494</DistanceMeters>
          </Trackpoint>
          <Trackpoint>
            <Time>2019-07-26T10:37:10.000Z</Time>
            <Position>
              <LatitudeDegrees>42.94655517674982547760009765625</LatitudeDegrees>
              <LongitudeDegrees>-7.8364120982587337493896484375</LongitudeDegrees>
            </Position>
            <AltitudeMeters>591.79998779296875</AltitudeMeters>
            <DistanceMeters>28494.66238084</DistanceMeters>
          </Trackpoint>
          <Trackpoint>
            <Time>2019-07-26T10:37:11.000Z</Time>
            <Position>
              <LatitudeDegrees>42.94654260389506816864013671875</LatitudeDegrees>
              <LongitudeDegrees>-7.83646163530647754669189453125</LongitudeDegrees>
            </Position>
            <AltitudeMeters>592.20001220703125</AltitudeMeters>
            <DistanceMeters>28498.935414255</DistanceMeters>
          </Trackpoint>
          <Trackpoint>
            <Time>2019-07-26T10:37:16.000Z</Time>
            <Position>
              <LatitudeDegrees>42.94647462666034698486328125</LatitudeDegrees>
              <LongitudeDegrees>-7.836698926985263824462890625</LongitudeDegrees>
            </Position>
            <AltitudeMeters>592.79998779296875</AltitudeMeters>
            <DistanceMeters>28519.696087382</DistanceMeters>
          </Trackpoint>
          <Trackpoint>
            <Time>2019-07-26T10:37:17.000Z</Time>
            <Position>
              <LatitudeDegrees>42.94645895250141620635986328125</LatitudeDegrees>
              <LongitudeDegrees>-7.836746871471405029296875</LongitudeDegrees>
            </Position>
            <AltitudeMeters>593</AltitudeMeters>
            <DistanceMeters>28523.973345251</DistanceMeters>
          </Trackpoint>
          <Trackpoint>
            <Time>2019-07-26T10:37:22.000Z</Time>
            <Position>
              <LatitudeDegrees>42.94639206491410732269287109375</LatitudeDegrees>
              <LongitudeDegrees>-7.83699539490044116973876953125</LongitudeDegrees>
            </Position>
            <AltitudeMeters>593.20001220703125</AltitudeMeters>
            <DistanceMeters>28545.54629312</DistanceMeters>
          </Trackpoint>
          <Trackpoint>
            <Time>2019-07-26T10:37:23.000Z</Time>
            <Position>
              <LatitudeDegrees>42.94637345708906650543212890625</LatitudeDegrees>
              <LongitudeDegrees>-7.83704853616654872894287109375</LongitudeDegrees>
            </Position>
            <AltitudeMeters>593.4000244140625</AltitudeMeters>
            <DistanceMeters>28550.346788416</DistanceMeters>
          </Trackpoint>
          <Trackpoint>
            <Time>2019-07-26T10:37:25.000Z</Time>
            <Position>
              <LatitudeDegrees>42.946332804858684539794921875</LatitudeDegrees>
              <LongitudeDegrees>-7.83715917728841304779052734375</LongitudeDegrees>
            </Position>
            <AltitudeMeters>593.5999755859375</AltitudeMeters>
            <DistanceMeters>28560.432610699</DistanceMeters>
          </Trackpoint>
          <Trackpoint>
            <Time>2019-07-26T10:37:26.000Z</Time>
            <Position>
              <LatitudeDegrees>42.94631847180426120758056640625</LatitudeDegrees>
              <LongitudeDegrees>-7.83721433021128177642822265625</LongitudeDegrees>
            </Position>
            <AltitudeMeters>593.5999755859375</AltitudeMeters>
            <DistanceMeters>28565.201020548</DistanceMeters>
          </Trackpoint>
          <Trackpoint>
            <Time>2019-07-26T10:37:32.000Z</Time>
            <Position>
              <LatitudeDegrees>42.94621981680393218994140625</LatitudeDegrees>
              <LongitudeDegrees>-7.83753083087503910064697265625</LongitudeDegrees>
            </Position>
            <AltitudeMeters>594</AltitudeMeters>
            <DistanceMeters>28593.227619157</DistanceMeters>
          </Trackpoint>
          <Trackpoint>
            <Time>2019-07-26T10:37:34.000Z</Time>
            <Position>
              <LatitudeDegrees>42.946187295019626617431640625</LatitudeDegrees>
              <LongitudeDegrees>-7.8376387059688568115234375</LongitudeDegrees>
            </Position>
            <AltitudeMeters>594.4000244140625</AltitudeMeters>
            <DistanceMeters>28602.732190938</DistanceMeters>
          </Trackpoint>
          <Trackpoint>
            <Time>2019-07-26T10:37:39.000Z</Time>
            <Position>
              <LatitudeDegrees>42.94611713849008083343505859375</LatitudeDegrees>
              <LongitudeDegrees>-7.83791790716350078582763671875</LongitudeDegrees>
            </Position>
            <AltitudeMeters>594.79998779296875</AltitudeMeters>
            <DistanceMeters>28626.782399181</DistanceMeters>
          </Trackpoint>
          <Trackpoint>
            <Time>2019-07-26T10:37:41.000Z</Time>
            <Position>
              <LatitudeDegrees>42.94609165750443935394287109375</LatitudeDegrees>
              <LongitudeDegrees>-7.8380294702947139739990234375</LongitudeDegrees>
            </Position>
            <AltitudeMeters>595.20001220703125</AltitudeMeters>
            <DistanceMeters>28636.304531168</DistanceMeters>
          </Trackpoint>
          <Trackpoint>
            <Time>2019-07-26T10:37:45.000Z</Time>
            <Position>
              <LatitudeDegrees>42.9460273683071136474609375</LatitudeDegrees>
              <LongitudeDegrees>-7.8382400237023830413818359375</LongitudeDegrees>
            </Position>
            <AltitudeMeters>596.20001220703125</AltitudeMeters>
            <DistanceMeters>28654.891426137</DistanceMeters>
          </Trackpoint>
          <Trackpoint>
            <Time>2019-07-26T10:37:46.000Z</Time>
            <Position>
              <LatitudeDegrees>42.94600926339626312255859375</LatitudeDegrees>
              <LongitudeDegrees>-7.838294170796871185302734375</LongitudeDegrees>
            </Position>
            <AltitudeMeters>596.4000244140625</AltitudeMeters>
            <DistanceMeters>28659.740582668</DistanceMeters>
          </Trackpoint>
          <Trackpoint>
            <Time>2019-07-26T10:37:48.000Z</Time>
            <Position>
              <LatitudeDegrees>42.9459764063358306884765625</LatitudeDegrees>
              <LongitudeDegrees>-7.83839919604361057281494140625</LongitudeDegrees>
            </Position>
            <AltitudeMeters>596.5999755859375</AltitudeMeters>
            <DistanceMeters>28669.046410578</DistanceMeters>
          </Trackpoint>
          <Trackpoint>
            <Time>2019-07-26T10:37:54.000Z</Time>
            <Position>
              <LatitudeDegrees>42.94587875716388225555419921875</LatitudeDegrees>
              <LongitudeDegrees>-7.83875492401421070098876953125</LongitudeDegrees>
            </Position>
            <AltitudeMeters>597.5999755859375</AltitudeMeters>
            <DistanceMeters>28699.999457451</DistanceMeters>
          </Trackpoint>
          <Trackpoint>
            <Time>2019-07-26T10:37:56.000Z</Time>
            <Position>
              <LatitudeDegrees>42.9458498395979404449462890625</LatitudeDegrees>
              <LongitudeDegrees>-7.83887009136378765106201171875</LongitudeDegrees>
            </Position>
            <AltitudeMeters>597.5999755859375</AltitudeMeters>
            <DistanceMeters>28709.919172316</DistanceMeters>
          </Trackpoint>
          <Trackpoint>
            <Time>2019-07-26T10:38:00.000Z</Time>
            <Position>
              <LatitudeDegrees>42.94578873552381992340087890625</LatitudeDegrees>
              <LongitudeDegrees>-7.83909271471202373504638671875</LongitudeDegrees>
            </Position>
            <AltitudeMeters>598.4000244140625</AltitudeMeters>
            <DistanceMeters>28729.290176331</DistanceMeters>
          </Trackpoint>
          <Trackpoint>
            <Time>2019-07-26T10:38:04.000Z</Time>
            <Position>
              <LatitudeDegrees>42.94573291204869747161865234375</LatitudeDegrees>
              <LongitudeDegrees>-7.839300669729709625244140625</LongitudeDegrees>
            </Position>
            <AltitudeMeters>599</AltitudeMeters>
            <DistanceMeters>28747.336247285</DistanceMeters>
          </Trackpoint>
          <Trackpoint>
            <Time>2019-07-26T10:38:06.000Z</Time>
            <Position>
              <LatitudeDegrees>42.945704497396945953369140625</LatitudeDegrees>
              <LongitudeDegrees>-7.8394027613103389739990234375</LongitudeDegrees>
            </Position>
            <AltitudeMeters>599.5999755859375</AltitudeMeters>
            <DistanceMeters>28756.235335464</DistanceMeters>
          </Trackpoint>
          <Trackpoint>
            <Time>2019-07-26T10:38:11.000Z</Time>
            <Position>
              <LatitudeDegrees>42.9456406272947788238525390625</LatitudeDegrees>
              <LongitudeDegrees>-7.83966301940381526947021484375</LongitudeDegrees>
            </Position>
            <AltitudeMeters>601</AltitudeMeters>
            <DistanceMeters>28778.599545132</DistanceMeters>
          </Trackpoint>
          <Trackpoint>
            <Time>2019-07-26T10:38:12.000Z</Time>
            <Position>
              <LatitudeDegrees>42.94562361203134059906005859375</LatitudeDegrees>
              <LongitudeDegrees>-7.839714400470256805419921875</LongitudeDegrees>
            </Position>
            <AltitudeMeters>601.4000244140625</AltitudeMeters>
            <DistanceMeters>28783.194359462</DistanceMeters>
          </Trackpoint>
          <Trackpoint>
            <Time>2019-07-26T10:38:15.000Z</Time>
            <Position>
              <LatitudeDegrees>42.9455752484500408172607421875</LatitudeDegrees>
              <LongitudeDegrees>-7.83987239934504032135009765625</LongitudeDegrees>
            </Position>
            <AltitudeMeters>602.20001220703125</AltitudeMeters>
            <DistanceMeters>28797.146792511</DistanceMeters>
          </Trackpoint>
          <Trackpoint>
            <Time>2019-07-26T10:38:19.000Z</Time>
            <Position>
              <LatitudeDegrees>42.94551582075655460357666015625</LatitudeDegrees>
              <LongitudeDegrees>-7.84008244983851909637451171875</LongitudeDegrees>
            </Position>
            <AltitudeMeters>603</AltitudeMeters>
            <DistanceMeters>28815.494086308</DistanceMeters>
          </Trackpoint>
          <Trackpoint>
            <Time>2019-07-26T10:38:20.000Z</Time>
            <Position>
              <LatitudeDegrees>42.945501990616321563720703125</LatitudeDegrees>
              <LongitudeDegrees>-7.84013357944786548614501953125</LongitudeDegrees>
            </Position>
            <AltitudeMeters>603.20001220703125</AltitudeMeters>
            <DistanceMeters>28819.934996907</DistanceMeters>
          </Trackpoint>
          <Trackpoint>
            <Time>2019-07-26T10:38:26.000Z</Time>
            <Position>
              <LatitudeDegrees>42.9454092867672443389892578125</LatitudeDegrees>
              <LongitudeDegrees>-7.84043633379042148590087890625</LongitudeDegrees>
            </Position>
            <AltitudeMeters>604.5999755859375</AltitudeMeters>
            <DistanceMeters>28846.672481679</DistanceMeters>
          </Trackpoint>
          <Trackpoint>
            <Time>2019-07-26T10:38:27.000Z</Time>
            <Position>
              <LatitudeDegrees>42.94539512135088443756103515625</LatitudeDegrees>
              <LongitudeDegrees>-7.84048494882881641387939453125</LongitudeDegrees>
            </Position>
            <AltitudeMeters>604.79998779296875</AltitudeMeters>
            <DistanceMeters>28850.934935644</DistanceMeters>
          </Trackpoint>
          <Trackpoint>
            <Time>2019-07-26T10:38:30.000Z</Time>
            <Position>
              <LatitudeDegrees>42.9453532956540584564208984375</LatitudeDegrees>
              <LongitudeDegrees>-7.8406412713229656219482421875</LongitudeDegrees>
            </Position>
            <AltitudeMeters>605.79998779296875</AltitudeMeters>
            <DistanceMeters>28864.495151226</DistanceMeters>
          </Trackpoint>
          <Trackpoint>
            <Time>2019-07-26T10:38:34.000Z</Time>
            <Position>
              <LatitudeDegrees>42.945303507149219512939453125</LatitudeDegrees>
              <LongitudeDegrees>-7.84084034152328968048095703125</LongitudeDegrees>
            </Position>
            <AltitudeMeters>606.5999755859375</AltitudeMeters>
            <DistanceMeters>28881.634767525</DistanceMeters>
          </Trackpoint>
          <Trackpoint>
            <Time>2019-07-26T10:38:36.000Z</Time>
            <Position>
              <LatitudeDegrees>42.9452815465629100799560546875</LatitudeDegrees>
              <LongitudeDegrees>-7.840931452810764312744140625</LongitudeDegrees>
            </Position>
            <AltitudeMeters>607.20001220703125</AltitudeMeters>
            <DistanceMeters>28889.450100984</DistanceMeters>
          </Trackpoint>
          <Trackpoint>
            <Time>2019-07-26T10:38:40.000Z</Time>
            <Position>
              <LatitudeDegrees>42.9452077858150005340576171875</LatitudeDegrees>
              <LongitudeDegrees>-7.84110018052160739898681640625</LongitudeDegrees>
            </Position>
            <AltitudeMeters>607.79998779296875</AltitudeMeters>
            <DistanceMeters>28905.461749878</DistanceMeters>
          </Trackpoint>
          <Trackpoint>
            <Time>2019-07-26T10:38:41.000Z</Time>
            <Position>
              <LatitudeDegrees>42.94517853297293186187744140625</LatitudeDegrees>
              <LongitudeDegrees>-7.841142676770687103271484375</LongitudeDegrees>
            </Position>
            <AltitudeMeters>608</AltitudeMeters>
            <DistanceMeters>28910.214985751</DistanceMeters>
          </Trackpoint>
          <Trackpoint>
            <Time>2019-07-26T10:38:42.000Z</Time>
            <Position>
              <LatitudeDegrees>42.9451502859592437744140625</LatitudeDegrees>
              <LongitudeDegrees>-7.84118601121008396148681640625</LongitudeDegrees>
            </Position>
            <AltitudeMeters>608.5999755859375</AltitudeMeters>
            <DistanceMeters>28914.9425051</DistanceMeters>
          </Trackpoint>
          <Trackpoint>
            <Time>2019-07-26T10:38:43.000Z</Time>
            <Position>
              <LatitudeDegrees>42.94512371532618999481201171875</LatitudeDegrees>
              <LongitudeDegrees>-7.84123311750590801239013671875</LongitudeDegrees>
            </Position>
            <AltitudeMeters>608.79998779296875</AltitudeMeters>
            <DistanceMeters>28919.787935809</DistanceMeters>
          </Trackpoint>
          <Trackpoint>
            <Time>2019-07-26T10:38:46.000Z</Time>
            <Position>
              <LatitudeDegrees>42.9450538940727710723876953125</LatitudeDegrees>
              <LongitudeDegrees>-7.84139589406549930572509765625</LongitudeDegrees>
            </Position>
            <AltitudeMeters>609.79998779296875</AltitudeMeters>
            <DistanceMeters>28935.158782243</DistanceMeters>
          </Trackpoint>
          <Trackpoint>
            <Time>2019-07-26T10:38:49.000Z</Time>
            <Position>
              <LatitudeDegrees>42.94497191905975341796875</LatitudeDegrees>
              <LongitudeDegrees>-7.84157375805079936981201171875</LongitudeDegrees>
            </Position>
            <AltitudeMeters>609.79998779296875</AltitudeMeters>
            <DistanceMeters>28952.283112958</DistanceMeters>
          </Trackpoint>
          <Trackpoint>
            <Time>2019-07-26T10:38:50.000Z</Time>
            <Position>
              <LatitudeDegrees>42.9449412412941455841064453125</LatitudeDegrees>
              <LongitudeDegrees>-7.8416343592107295989990234375</LongitudeDegrees>
            </Position>
            <AltitudeMeters>609.79998779296875</AltitudeMeters>
            <DistanceMeters>28958.286365</DistanceMeters>
          </Trackpoint>
          <Trackpoint>
            <Time>2019-07-26T10:38:52.000Z</Time>
            <Position>
              <LatitudeDegrees>42.9448713362216949462890625</LatitudeDegrees>
              <LongitudeDegrees>-7.8417478501796722412109375</LongitudeDegrees>
            </Position>
            <AltitudeMeters>609.79998779296875</AltitudeMeters>
            <DistanceMeters>28970.370086948</DistanceMeters>
          </Trackpoint>
          <Trackpoint>
            <Time>2019-07-26T10:38:55.000Z</Time>
            <Position>
              <LatitudeDegrees>42.94472641311585903167724609375</LatitudeDegrees>
              <LongitudeDegrees>-7.8418948687613010406494140625</LongitudeDegrees>
            </Position>
            <AltitudeMeters>609.79998779296875</AltitudeMeters>
            <DistanceMeters>28990.461440242</DistanceMeters>
          </Trackpoint>
          <Trackpoint>
            <Time>2019-07-26T10:38:57.000Z</Time>
            <Position>
              <LatitudeDegrees>42.94460940174758434295654296875</LatitudeDegrees>
              <LongitudeDegrees>-7.84198380075395107269287109375</LongitudeDegrees>
            </Position>
            <AltitudeMeters>609.79998779296875</AltitudeMeters>
            <DistanceMeters>29005.364889181</DistanceMeters>
          </Trackpoint>
          <Trackpoint>
            <Time>2019-07-26T10:38:59.000Z</Time>
            <Position>
              <LatitudeDegrees>42.9444824159145355224609375</LatitudeDegrees>
              <LongitudeDegrees>-7.84206946380436420440673828125</LongitudeDegrees>
            </Position>
            <AltitudeMeters>609.79998779296875</AltitudeMeters>
            <DistanceMeters>29021.127870607</DistanceMeters>
          </Trackpoint>
          <Trackpoint>
            <Time>2019-07-26T10:39:01.000Z</Time>
            <Position>
              <LatitudeDegrees>42.9443407617509365081787109375</LatitudeDegrees>
              <LongitudeDegrees>-7.842159233987331390380859375</LongitudeDegrees>
            </Position>
            <AltitudeMeters>608.79998779296875</AltitudeMeters>
            <DistanceMeters>29038.508150156</DistanceMeters>
          </Trackpoint>
          <Trackpoint>
            <Time>2019-07-26T10:39:02.000Z</Time>
            <Position>
              <LatitudeDegrees>42.94427496381103992462158203125</LatitudeDegrees>
              <LongitudeDegrees>-7.84219653345644474029541015625</LongitudeDegrees>
            </Position>
            <AltitudeMeters>608.4000244140625</AltitudeMeters>
            <DistanceMeters>29046.437046183</DistanceMeters>
          </Trackpoint>
          <Trackpoint>
            <Time>2019-07-26T10:39:03.000Z</Time>
            <Position>
              <LatitudeDegrees>42.94421561993658542633056640625</LatitudeDegrees>
              <LongitudeDegrees>-7.84223400056362152099609375</LongitudeDegrees>
            </Position>
            <AltitudeMeters>607.79998779296875</AltitudeMeters>
            <DistanceMeters>29053.713883976</DistanceMeters>
          </Trackpoint>
          <Trackpoint>
            <Time>2019-07-26T10:39:04.000Z</Time>
            <Position>
              <LatitudeDegrees>42.9441684298217296600341796875</LatitudeDegrees>
              <LongitudeDegrees>-7.84228202886879444122314453125</LongitudeDegrees>
            </Position>
            <AltitudeMeters>607.79998779296875</AltitudeMeters>
            <DistanceMeters>29060.264526942</DistanceMeters>
          </Trackpoint>
          <Trackpoint>
            <Time>2019-07-26T10:39:05.000Z</Time>
            <Position>
              <LatitudeDegrees>42.94413280673325061798095703125</LatitudeDegrees>
              <LongitudeDegrees>-7.84234757535159587860107421875</LongitudeDegrees>
            </Position>
            <AltitudeMeters>607.4000244140625</AltitudeMeters>
            <DistanceMeters>29066.915718151</DistanceMeters>
          </Trackpoint>
          <Trackpoint>
            <Time>2019-07-26T10:39:06.000Z</Time>
            <Position>
              <LatitudeDegrees>42.94411294162273406982421875</LatitudeDegrees>
              <LongitudeDegrees>-7.84242737106978893280029296875</LongitudeDegrees>
            </Position>
            <AltitudeMeters>607.20001220703125</AltitudeMeters>
            <DistanceMeters>29073.782672293</DistanceMeters>
          </Trackpoint>
          <Trackpoint>
            <Time>2019-07-26T10:39:07.000Z</Time>
            <Position>
              <LatitudeDegrees>42.94409994967281818389892578125</LatitudeDegrees>
              <LongitudeDegrees>-7.84251839853823184967041015625</LongitudeDegrees>
            </Position>
            <AltitudeMeters>606.5999755859375</AltitudeMeters>
            <DistanceMeters>29081.338341904</DistanceMeters>
          </Trackpoint>
          <Trackpoint>
            <Time>2019-07-26T10:39:08.000Z</Time>
            <Position>
              <LatitudeDegrees>42.9440913163125514984130859375</LatitudeDegrees>
              <LongitudeDegrees>-7.84261395223438739776611328125</LongitudeDegrees>
            </Position>
            <AltitudeMeters>606</AltitudeMeters>
            <DistanceMeters>29089.182507946</DistanceMeters>
          </Trackpoint>
          <Trackpoint>
            <Time>2019-07-26T10:39:09.000Z</Time>
            <Position>
              <LatitudeDegrees>42.9440846107900142669677734375</LatitudeDegrees>
              <LongitudeDegrees>-7.84271419979631900787353515625</LongitudeDegrees>
            </Position>
            <AltitudeMeters>605.4000244140625</AltitudeMeters>
            <DistanceMeters>29097.384585092</DistanceMeters>
          </Trackpoint>
          <Trackpoint>
            <Time>2019-07-26T10:39:11.000Z</Time>
            <Position>
              <LatitudeDegrees>42.9440587945282459259033203125</LatitudeDegrees>
              <LongitudeDegrees>-7.84293363802134990692138671875</LongitudeDegrees>
            </Position>
            <AltitudeMeters>604.5999755859375</AltitudeMeters>
            <DistanceMeters>29115.49259812</DistanceMeters>
          </Trackpoint>
          <Trackpoint>
            <Time>2019-07-26T10:39:12.000Z</Time>
            <Position>
              <LatitudeDegrees>42.94403373263776302337646484375</LatitudeDegrees>
              <LongitudeDegrees>-7.8430465422570705413818359375</LongitudeDegrees>
            </Position>
            <AltitudeMeters>603.79998779296875</AltitudeMeters>
            <DistanceMeters>29125.104868517</DistanceMeters>
          </Trackpoint>
          <Trackpoint>
            <Time>2019-07-26T10:39:13.000Z</Time>
            <Position>
              <LatitudeDegrees>42.94399986974895000457763671875</LatitudeDegrees>
              <LongitudeDegrees>-7.84316196106374263763427734375</LongitudeDegrees>
            </Position>
            <AltitudeMeters>603.4000244140625</AltitudeMeters>
            <DistanceMeters>29135.235803758</DistanceMeters>
          </Trackpoint>
          <Trackpoint>
            <Time>2019-07-26T10:39:15.000Z</Time>
            <Position>
              <LatitudeDegrees>42.9439260251820087432861328125</LatitudeDegrees>
              <LongitudeDegrees>-7.84337955527007579803466796875</LongitudeDegrees>
            </Position>
            <AltitudeMeters>602.79998779296875</AltitudeMeters>
            <DistanceMeters>29154.776910241</DistanceMeters>
          </Trackpoint>
          <Trackpoint>
            <Time>2019-07-26T10:39:17.000Z</Time>
            <Position>
              <LatitudeDegrees>42.94387363828718662261962890625</LatitudeDegrees>
              <LongitudeDegrees>-7.84359178505837917327880859375</LongitudeDegrees>
            </Position>
            <AltitudeMeters>601.79998779296875</AltitudeMeters>
            <DistanceMeters>29173.025008743</DistanceMeters>
          </Trackpoint>
          <Trackpoint>
            <Time>2019-07-26T10:39:18.000Z</Time>
            <Position>
              <LatitudeDegrees>42.94385050423443317413330078125</LatitudeDegrees>
              <LongitudeDegrees>-7.84369580447673797607421875</LongitudeDegrees>
            </Position>
            <AltitudeMeters>601.4000244140625</AltitudeMeters>
            <DistanceMeters>29181.882395725</DistanceMeters>
          </Trackpoint>
          <Trackpoint>
            <Time>2019-07-26T10:39:20.000Z</Time>
            <Position>
              <LatitudeDegrees>42.9438064992427825927734375</LatitudeDegrees>
              <LongitudeDegrees>-7.84389303065836429595947265625</LongitudeDegrees>
            </Position>
            <AltitudeMeters>600.20001220703125</AltitudeMeters>
            <DistanceMeters>29198.6814418</DistanceMeters>
          </Trackpoint>
          <Trackpoint>
            <Time>2019-07-26T10:39:22.000Z</Time>
            <Position>
              <LatitudeDegrees>42.943780012428760528564453125</LatitudeDegrees>
              <LongitudeDegrees>-7.84405765123665332794189453125</LongitudeDegrees>
            </Position>
            <AltitudeMeters>598.79998779296875</AltitudeMeters>
            <DistanceMeters>29212.414035017</DistanceMeters>
          </Trackpoint>
          <Trackpoint>
            <Time>2019-07-26T10:39:23.000Z</Time>
            <Position>
              <LatitudeDegrees>42.943769954144954681396484375</LatitudeDegrees>
              <LongitudeDegrees>-7.84412621520459651947021484375</LongitudeDegrees>
            </Position>
            <AltitudeMeters>597.79998779296875</AltitudeMeters>
            <DistanceMeters>29218.110884562</DistanceMeters>
          </Trackpoint>
          <Trackpoint>
            <Time>2019-07-26T10:39:24.000Z</Time>
            <Position>
              <LatitudeDegrees>42.9437624104321002960205078125</LatitudeDegrees>
              <LongitudeDegrees>-7.84418555907905101776123046875</LongitudeDegrees>
            </Position>
            <AltitudeMeters>597.5999755859375</AltitudeMeters>
            <DistanceMeters>29223.019269628</DistanceMeters>
          </Trackpoint>
          <Trackpoint>
            <Time>2019-07-26T10:39:28.000Z</Time>
            <Position>
              <LatitudeDegrees>42.943741790950298309326171875</LatitudeDegrees>
              <LongitudeDegrees>-7.84438856877386569976806640625</LongitudeDegrees>
            </Position>
            <AltitudeMeters>597</AltitudeMeters>
            <DistanceMeters>29239.718305248</DistanceMeters>
          </Trackpoint>
          <Trackpoint>
            <Time>2019-07-26T10:39:30.000Z</Time>
            <Position>
              <LatitudeDegrees>42.94374371878802776336669921875</LatitudeDegrees>
              <LongitudeDegrees>-7.844478674232959747314453125</LongitudeDegrees>
            </Position>
            <AltitudeMeters>597</AltitudeMeters>
            <DistanceMeters>29247.063077313</DistanceMeters>
          </Trackpoint>
          <Trackpoint>
            <Time>2019-07-26T10:39:33.000Z</Time>
            <Position>
              <LatitudeDegrees>42.94374489225447177886962890625</LatitudeDegrees>
              <LongitudeDegrees>-7.84458537586033344268798828125</LongitudeDegrees>
            </Position>
            <AltitudeMeters>597</AltitudeMeters>
            <DistanceMeters>29255.757891859</DistanceMeters>
          </Trackpoint>
          <Trackpoint>
            <Time>2019-07-26T10:39:38.000Z</Time>
            <Position>
              <LatitudeDegrees>42.94382519088685512542724609375</LatitudeDegrees>
              <LongitudeDegrees>-7.84473289735615253448486328125</LongitudeDegrees>
            </Position>
            <AltitudeMeters>598.20001220703125</AltitudeMeters>
            <DistanceMeters>29270.735983165</DistanceMeters>
          </Trackpoint>
          <Trackpoint>
            <Time>2019-07-26T10:39:40.000Z</Time>
            <Position>
              <LatitudeDegrees>42.9438569582998752593994140625</LatitudeDegrees>
              <LongitudeDegrees>-7.8448109328746795654296875</LongitudeDegrees>
            </Position>
            <AltitudeMeters>599</AltitudeMeters>
            <DistanceMeters>29278.011579918</DistanceMeters>
          </Trackpoint>
          <Trackpoint>
            <Time>2019-07-26T10:39:44.000Z</Time>
            <Position>
              <LatitudeDegrees>42.9438945092260837554931640625</LatitudeDegrees>
              <LongitudeDegrees>-7.844965159893035888671875</LongitudeDegrees>
            </Position>
            <AltitudeMeters>599.79998779296875</AltitudeMeters>
            <DistanceMeters>29291.254090425</DistanceMeters>
          </Trackpoint>
          <Trackpoint>
            <Time>2019-07-26T10:39:45.000Z</Time>
            <Position>
              <LatitudeDegrees>42.9438978619873523712158203125</LatitudeDegrees>
              <LongitudeDegrees>-7.8450062312185764312744140625</LongitudeDegrees>
            </Position>
            <AltitudeMeters>599.79998779296875</AltitudeMeters>
            <DistanceMeters>29294.621845763</DistanceMeters>
          </Trackpoint>
          <Trackpoint>
            <Time>2019-07-26T10:39:49.000Z</Time>
            <Position>
              <LatitudeDegrees>42.9438976943492889404296875</LatitudeDegrees>
              <LongitudeDegrees>-7.84515970386564731597900390625</LongitudeDegrees>
            </Position>
            <AltitudeMeters>600.79998779296875</AltitudeMeters>
            <DistanceMeters>29307.126075992</DistanceMeters>
          </Trackpoint>
          <Trackpoint>
            <Time>2019-07-26T10:39:51.000Z</Time>
            <Position>
              <LatitudeDegrees>42.94390331022441387176513671875</LatitudeDegrees>
              <LongitudeDegrees>-7.84524536691606044769287109375</LongitudeDegrees>
            </Position>
            <AltitudeMeters>601</AltitudeMeters>
            <DistanceMeters>29314.133611629</DistanceMeters>
          </Trackpoint>
          <Trackpoint>
            <Time>2019-07-26T10:39:56.000Z</Time>
            <Position>
              <LatitudeDegrees>42.9439022205770015716552734375</LatitudeDegrees>
              <LongitudeDegrees>-7.84548374824225902557373046875</LongitudeDegrees>
            </Position>
            <AltitudeMeters>602.20001220703125</AltitudeMeters>
            <DistanceMeters>29333.556290989</DistanceMeters>
          </Trackpoint>
          <Trackpoint>
            <Time>2019-07-26T10:40:00.000Z</Time>
            <Position>
              <LatitudeDegrees>42.94390448369085788726806640625</LatitudeDegrees>
              <LongitudeDegrees>-7.84568055532872676849365234375</LongitudeDegrees>
            </Position>
            <AltitudeMeters>602.79998779296875</AltitudeMeters>
            <DistanceMeters>29349.593016875</DistanceMeters>
          </Trackpoint>
          <Trackpoint>
            <Time>2019-07-26T10:40:03.000Z</Time>
            <Position>
              <LatitudeDegrees>42.9438867978751659393310546875</LatitudeDegrees>
              <LongitudeDegrees>-7.8458548150956630706787109375</LongitudeDegrees>
            </Position>
            <AltitudeMeters>602.79998779296875</AltitudeMeters>
            <DistanceMeters>29363.92662421</DistanceMeters>
          </Trackpoint>
          <Trackpoint>
            <Time>2019-07-26T10:40:07.000Z</Time>
            <Position>
              <LatitudeDegrees>42.94387430883944034576416015625</LatitudeDegrees>
              <LongitudeDegrees>-7.84610903821885585784912109375</LongitudeDegrees>
            </Position>
            <AltitudeMeters>602.79998779296875</AltitudeMeters>
            <DistanceMeters>29384.686427397</DistanceMeters>
          </Trackpoint>
          <Trackpoint>
            <Time>2019-07-26T10:40:09.000Z</Time>
            <Position>
              <LatitudeDegrees>42.943883277475833892822265625</LatitudeDegrees>
              <LongitudeDegrees>-7.84622420556843280792236328125</LongitudeDegrees>
            </Position>
            <AltitudeMeters>603</AltitudeMeters>
            <DistanceMeters>29394.122824157</DistanceMeters>
          </Trackpoint>
          <Trackpoint>
            <Time>2019-07-26T10:40:11.000Z</Time>
            <Position>
              <LatitudeDegrees>42.94389895163476467132568359375</LatitudeDegrees>
              <LongitudeDegrees>-7.846328057348728179931640625</LongitudeDegrees>
            </Position>
            <AltitudeMeters>603</AltitudeMeters>
            <DistanceMeters>29402.762942326</DistanceMeters>
          </Trackpoint>
          <Trackpoint>
            <Time>2019-07-26T10:40:13.000Z</Time>
            <Position>
              <LatitudeDegrees>42.94388227164745330810546875</LatitudeDegrees>
              <LongitudeDegrees>-7.8464435599744319915771484375</LongitudeDegrees>
            </Position>
            <AltitudeMeters>603</AltitudeMeters>
            <DistanceMeters>29412.354993664</DistanceMeters>
          </Trackpoint>
          <Trackpoint>
            <Time>2019-07-26T10:40:15.000Z</Time>
            <Position>
              <LatitudeDegrees>42.94384061358869075775146484375</LatitudeDegrees>
              <LongitudeDegrees>-7.84654355607926845550537109375</LongitudeDegrees>
            </Position>
            <AltitudeMeters>603</AltitudeMeters>
            <DistanceMeters>29421.729464527</DistanceMeters>
          </Trackpoint>
          <Trackpoint>
            <Time>2019-07-26T10:40:16.000Z</Time>
            <Position>
              <LatitudeDegrees>42.94382032938301563262939453125</LatitudeDegrees>
              <LongitudeDegrees>-7.84659468568861484527587890625</LongitudeDegrees>
            </Position>
            <AltitudeMeters>603</AltitudeMeters>
            <DistanceMeters>29426.467477828</DistanceMeters>
          </Trackpoint>
          <Trackpoint>
            <Time>2019-07-26T10:40:18.000Z</Time>
            <Position>
              <LatitudeDegrees>42.94379602186381816864013671875</LatitudeDegrees>
              <LongitudeDegrees>-7.84670348279178142547607421875</LongitudeDegrees>
            </Position>
            <AltitudeMeters>603</AltitudeMeters>
            <DistanceMeters>29435.735384125</DistanceMeters>
          </Trackpoint>
          <Trackpoint>
            <Time>2019-07-26T10:40:23.000Z</Time>
            <Position>
              <LatitudeDegrees>42.9437627457082271575927734375</LatitudeDegrees>
              <LongitudeDegrees>-7.84693851135671138763427734375</LongitudeDegrees>
            </Position>
            <AltitudeMeters>603</AltitudeMeters>
            <DistanceMeters>29455.239255543</DistanceMeters>
          </Trackpoint>
          <Trackpoint>
            <Time>2019-07-26T10:40:26.000Z</Time>
            <Position>
              <LatitudeDegrees>42.94375059194862842559814453125</LatitudeDegrees>
              <LongitudeDegrees>-7.847096510231494903564453125</LongitudeDegrees>
            </Position>
            <AltitudeMeters>603.20001220703125</AltitudeMeters>
            <DistanceMeters>29468.183135886</DistanceMeters>
          </Trackpoint>
          <Trackpoint>
            <Time>2019-07-26T10:40:28.000Z</Time>
            <Position>
              <LatitudeDegrees>42.94375997968018054962158203125</LatitudeDegrees>
              <LongitudeDegrees>-7.8471667505800724029541015625</LongitudeDegrees>
            </Position>
            <AltitudeMeters>603.20001220703125</AltitudeMeters>
            <DistanceMeters>29474.000757953</DistanceMeters>
          </Trackpoint>
          <Trackpoint>
            <Time>2019-07-26T10:40:31.000Z</Time>
            <Position>
              <LatitudeDegrees>42.94375411234796047210693359375</LatitudeDegrees>
              <LongitudeDegrees>-7.8473429381847381591796875</LongitudeDegrees>
            </Position>
            <AltitudeMeters>603.20001220703125</AltitudeMeters>
            <DistanceMeters>29488.370544244</DistanceMeters>
          </Trackpoint>
          <Trackpoint>
            <Time>2019-07-26T10:40:32.000Z</Time>
            <Position>
              <LatitudeDegrees>42.94375226832926273345947265625</LatitudeDegrees>
              <LongitudeDegrees>-7.84742248244583606719970703125</LongitudeDegrees>
            </Position>
            <AltitudeMeters>603.20001220703125</AltitudeMeters>
            <DistanceMeters>29494.854681497</DistanceMeters>
          </Trackpoint>
          <Trackpoint>
            <Time>2019-07-26T10:40:38.000Z</Time>
            <Position>
              <LatitudeDegrees>42.94375595636665821075439453125</LatitudeDegrees>
              <LongitudeDegrees>-7.84794568084180355072021484375</LongitudeDegrees>
            </Position>
            <AltitudeMeters>602.79998779296875</AltitudeMeters>
            <DistanceMeters>29537.48451711</DistanceMeters>
          </Trackpoint>
          <Trackpoint>
            <Time>2019-07-26T10:40:44.000Z</Time>
            <Position>
              <LatitudeDegrees>42.943731732666492462158203125</LatitudeDegrees>
              <LongitudeDegrees>-7.84852772019803524017333984375</LongitudeDegrees>
            </Position>
            <AltitudeMeters>602</AltitudeMeters>
            <DistanceMeters>29584.983047814</DistanceMeters>
          </Trackpoint>
          <Trackpoint>
            <Time>2019-07-26T10:40:45.000Z</Time>
            <Position>
              <LatitudeDegrees>42.94373533688485622406005859375</LatitudeDegrees>
              <LongitudeDegrees>-7.84862511791288852691650390625</LongitudeDegrees>
            </Position>
            <AltitudeMeters>601.79998779296875</AltitudeMeters>
            <DistanceMeters>29592.927872189</DistanceMeters>
          </Trackpoint>
          <Trackpoint>
            <Time>2019-07-26T10:40:49.000Z</Time>
            <Position>
              <LatitudeDegrees>42.94376685284078121185302734375</LatitudeDegrees>
              <LongitudeDegrees>-7.8489645011723041534423828125</LongitudeDegrees>
            </Position>
            <AltitudeMeters>601.20001220703125</AltitudeMeters>
            <DistanceMeters>29620.801007228</DistanceMeters>
          </Trackpoint>
          <Trackpoint>
            <Time>2019-07-26T10:40:53.000Z</Time>
            <Position>
              <LatitudeDegrees>42.94371387921273708343505859375</LatitudeDegrees>
              <LongitudeDegrees>-7.84927505068480968475341796875</LongitudeDegrees>
            </Position>
            <AltitudeMeters>601</AltitudeMeters>
            <DistanceMeters>29646.781213616</DistanceMeters>
          </Trackpoint>
          <Trackpoint>
            <Time>2019-07-26T10:40:55.000Z</Time>
            <Position>
              <LatitudeDegrees>42.943667359650135040283203125</LatitudeDegrees>
              <LongitudeDegrees>-7.84942902624607086181640625</LongitudeDegrees>
            </Position>
            <AltitudeMeters>600.79998779296875</AltitudeMeters>
            <DistanceMeters>29660.353077869</DistanceMeters>
          </Trackpoint>
          <Trackpoint>
            <Time>2019-07-26T10:40:58.000Z</Time>
            <Position>
              <LatitudeDegrees>42.94359049759805202484130859375</LatitudeDegrees>
              <LongitudeDegrees>-7.8496548347175121307373046875</LongitudeDegrees>
            </Position>
            <AltitudeMeters>600.79998779296875</AltitudeMeters>
            <DistanceMeters>29680.642560981</DistanceMeters>
          </Trackpoint>
          <Trackpoint>
            <Time>2019-07-26T10:41:00.000Z</Time>
            <Position>
              <LatitudeDegrees>42.94351522810757160186767578125</LatitudeDegrees>
              <LongitudeDegrees>-7.84979037009179592132568359375</LongitudeDegrees>
            </Position>
            <AltitudeMeters>600.5999755859375</AltitudeMeters>
            <DistanceMeters>29694.503763544</DistanceMeters>
          </Trackpoint>
          <Trackpoint>
            <Time>2019-07-26T10:41:03.000Z</Time>
            <Position>
              <LatitudeDegrees>42.94334314763545989990234375</LatitudeDegrees>
              <LongitudeDegrees>-7.84989883191883563995361328125</LongitudeDegrees>
            </Position>
            <AltitudeMeters>600.5999755859375</AltitudeMeters>
            <DistanceMeters>29715.597125688</DistanceMeters>
          </Trackpoint>
          <Trackpoint>
            <Time>2019-07-26T10:41:04.000Z</Time>
            <Position>
              <LatitudeDegrees>42.94327718205749988555908203125</LatitudeDegrees>
              <LongitudeDegrees>-7.8499160148203372955322265625</LongitudeDegrees>
            </Position>
            <AltitudeMeters>600.5999755859375</AltitudeMeters>
            <DistanceMeters>29723.071084002</DistanceMeters>
          </Trackpoint>
          <Trackpoint>
            <Time>2019-07-26T10:41:05.000Z</Time>
            <Position>
              <LatitudeDegrees>42.94321213848888874053955078125</LatitudeDegrees>
              <LongitudeDegrees>-7.84994124434888362884521484375</LongitudeDegrees>
            </Position>
            <AltitudeMeters>600.5999755859375</AltitudeMeters>
            <DistanceMeters>29730.596815824</DistanceMeters>
          </Trackpoint>
          <Trackpoint>
            <Time>2019-07-26T10:41:08.000Z</Time>
            <Position>
              <LatitudeDegrees>42.94307149015367031097412109375</LatitudeDegrees>
              <LongitudeDegrees>-7.85007367841899394989013671875</LongitudeDegrees>
            </Position>
            <AltitudeMeters>600.4000244140625</AltitudeMeters>
            <DistanceMeters>29749.609996786</DistanceMeters>
          </Trackpoint>
          <Trackpoint>
            <Time>2019-07-26T10:41:10.000Z</Time>
            <Position>
              <LatitudeDegrees>42.94302086345851421356201171875</LatitudeDegrees>
              <LongitudeDegrees>-7.8502182662487030029296875</LongitudeDegrees>
            </Position>
            <AltitudeMeters>600.20001220703125</AltitudeMeters>
            <DistanceMeters>29762.669170716</DistanceMeters>
          </Trackpoint>
          <Trackpoint>
            <Time>2019-07-26T10:41:12.000Z</Time>
            <Position>
              <LatitudeDegrees>42.94298884458839893341064453125</LatitudeDegrees>
              <LongitudeDegrees>-7.850370816886425018310546875</LongitudeDegrees>
            </Position>
            <AltitudeMeters>600</AltitudeMeters>
            <DistanceMeters>29775.599090873</DistanceMeters>
          </Trackpoint>
          <Trackpoint>
            <Time>2019-07-26T10:41:14.000Z</Time>
            <Position>
              <LatitudeDegrees>42.94298104941844940185546875</LatitudeDegrees>
              <LongitudeDegrees>-7.85053535364568233489990234375</LongitudeDegrees>
            </Position>
            <AltitudeMeters>599.79998779296875</AltitudeMeters>
            <DistanceMeters>29789.033193292</DistanceMeters>
          </Trackpoint>
          <Trackpoint>
            <Time>2019-07-26T10:41:15.000Z</Time>
            <Position>
              <LatitudeDegrees>42.94299236498773097991943359375</LatitudeDegrees>
              <LongitudeDegrees>-7.85059939138591289520263671875</LongitudeDegrees>
            </Position>
            <AltitudeMeters>599.79998779296875</AltitudeMeters>
            <DistanceMeters>29794.400310196</DistanceMeters>
          </Trackpoint>
          <Trackpoint>
            <Time>2019-07-26T10:41:16.000Z</Time>
            <Position>
              <LatitudeDegrees>42.94299873523414134979248046875</LatitudeDegrees>
              <LongitudeDegrees>-7.85066745243966579437255859375</LongitudeDegrees>
            </Position>
            <AltitudeMeters>599.5999755859375</AltitudeMeters>
            <DistanceMeters>29799.989949227</DistanceMeters>
          </Trackpoint>
          <Trackpoint>
            <Time>2019-07-26T10:41:18.000Z</Time>
            <Position>
              <LatitudeDegrees>42.9430348612368106842041015625</LatitudeDegrees>
              <LongitudeDegrees>-7.8507706336677074432373046875</LongitudeDegrees>
            </Position>
            <AltitudeMeters>599.4000244140625</AltitudeMeters>
            <DistanceMeters>29809.308383381</DistanceMeters>
          </Trackpoint>
          <Trackpoint>
            <Time>2019-07-26T10:41:19.000Z</Time>
            <Position>
              <LatitudeDegrees>42.94306595809757709503173828125</LatitudeDegrees>
              <LongitudeDegrees>-7.85081715323030948638916015625</LongitudeDegrees>
            </Position>
            <AltitudeMeters>599.4000244140625</AltitudeMeters>
            <DistanceMeters>29814.440705759</DistanceMeters>
          </Trackpoint>
          <Trackpoint>
            <Time>2019-07-26T10:41:21.000Z</Time>
            <Position>
              <LatitudeDegrees>42.94313385151326656341552734375</LatitudeDegrees>
              <LongitudeDegrees>-7.85092008300125598907470703125</LongitudeDegrees>
            </Position>
            <AltitudeMeters>598.79998779296875</AltitudeMeters>
            <DistanceMeters>29825.729303492</DistanceMeters>
          </Trackpoint>
          <Trackpoint>
            <Time>2019-07-26T10:41:23.000Z</Time>
            <Position>
              <LatitudeDegrees>42.9431515373289585113525390625</LatitudeDegrees>
              <LongitudeDegrees>-7.85104430280625820159912109375</LongitudeDegrees>
            </Position>
            <AltitudeMeters>598</AltitudeMeters>
            <DistanceMeters>29836.040468317</DistanceMeters>
          </Trackpoint>
          <Trackpoint>
            <Time>2019-07-26T10:41:24.000Z</Time>
            <Position>
              <LatitudeDegrees>42.94312697835266590118408203125</LatitudeDegrees>
              <LongitudeDegrees>-7.85111303441226482391357421875</LongitudeDegrees>
            </Position>
            <AltitudeMeters>597.4000244140625</AltitudeMeters>
            <DistanceMeters>29842.271786693</DistanceMeters>
          </Trackpoint>
          <Trackpoint>
            <Time>2019-07-26T10:41:26.000Z</Time>
            <Position>
              <LatitudeDegrees>42.94304450042545795440673828125</LatitudeDegrees>
              <LongitudeDegrees>-7.85127840936183929443359375</LongitudeDegrees>
            </Position>
            <AltitudeMeters>596.4000244140625</AltitudeMeters>
            <DistanceMeters>29858.576000577</DistanceMeters>
          </Trackpoint>
          <Trackpoint>
            <Time>2019-07-26T10:41:27.000Z</Time>
            <Position>
              <LatitudeDegrees>42.942994125187397003173828125</LatitudeDegrees>
              <LongitudeDegrees>-7.85136398859322071075439453125</LongitudeDegrees>
            </Position>
            <AltitudeMeters>596</AltitudeMeters>
            <DistanceMeters>29867.523158096</DistanceMeters>
          </Trackpoint>
          <Trackpoint>
            <Time>2019-07-26T10:41:29.000Z</Time>
            <Position>
              <LatitudeDegrees>42.94288239441812038421630859375</LatitudeDegrees>
              <LongitudeDegrees>-7.851530872285366058349609375</LongitudeDegrees>
            </Position>
            <AltitudeMeters>594.5999755859375</AltitudeMeters>
            <DistanceMeters>29885.949521663</DistanceMeters>
          </Trackpoint>
          <Trackpoint>
            <Time>2019-07-26T10:41:30.000Z</Time>
            <Position>
              <LatitudeDegrees>42.94282279908657073974609375</LatitudeDegrees>
              <LongitudeDegrees>-7.851622402667999267578125</LongitudeDegrees>
            </Position>
            <AltitudeMeters>594.20001220703125</AltitudeMeters>
            <DistanceMeters>29895.930493726</DistanceMeters>
          </Trackpoint>
          <Trackpoint>
            <Time>2019-07-26T10:41:32.000Z</Time>
            <Position>
              <LatitudeDegrees>42.94270235113799571990966796875</LatitudeDegrees>
              <LongitudeDegrees>-7.8518141806125640869140625</LongitudeDegrees>
            </Position>
            <AltitudeMeters>593.20001220703125</AltitudeMeters>
            <DistanceMeters>29916.518640517</DistanceMeters>
          </Trackpoint>
          <Trackpoint>
            <Time>2019-07-26T10:41:35.000Z</Time>
            <Position>
              <LatitudeDegrees>42.942513339221477508544921875</LatitudeDegrees>
              <LongitudeDegrees>-7.8521194495260715484619140625</LongitudeDegrees>
            </Position>
            <AltitudeMeters>592.5999755859375</AltitudeMeters>
            <DistanceMeters>29949.09492919</DistanceMeters>
          </Trackpoint>
          <Trackpoint>
            <Time>2019-07-26T10:41:36.000Z</Time>
            <Position>
              <LatitudeDegrees>42.94244837947189807891845703125</LatitudeDegrees>
              <LongitudeDegrees>-7.85222648642957210540771484375</LongitudeDegrees>
            </Position>
            <AltitudeMeters>592</AltitudeMeters>
            <DistanceMeters>29960.423452766</DistanceMeters>
          </Trackpoint>
          <Trackpoint>
            <Time>2019-07-26T10:41:38.000Z</Time>
            <Position>
              <LatitudeDegrees>42.94231762178242206573486328125</LatitudeDegrees>
              <LongitudeDegrees>-7.85244072787463665008544921875</LongitudeDegrees>
            </Position>
            <AltitudeMeters>591.20001220703125</AltitudeMeters>
            <DistanceMeters>29983.150139996</DistanceMeters>
          </Trackpoint>
          <Trackpoint>
            <Time>2019-07-26T10:41:39.000Z</Time>
            <Position>
              <LatitudeDegrees>42.942255847156047821044921875</LatitudeDegrees>
              <LongitudeDegrees>-7.85254516638815402984619140625</LongitudeDegrees>
            </Position>
            <AltitudeMeters>591</AltitudeMeters>
            <DistanceMeters>29994.090599916</DistanceMeters>
          </Trackpoint>
          <Trackpoint>
            <Time>2019-07-26T10:41:42.000Z</Time>
            <Position>
              <LatitudeDegrees>42.94208577834069728851318359375</LatitudeDegrees>
              <LongitudeDegrees>-7.852818332612514495849609375</LongitudeDegrees>
            </Position>
            <AltitudeMeters>589.79998779296875</AltitudeMeters>
            <DistanceMeters>30023.30849455</DistanceMeters>
          </Trackpoint>
          <Trackpoint>
            <Time>2019-07-26T10:41:43.000Z</Time>
            <Position>
              <LatitudeDegrees>42.94204520992934703826904296875</LatitudeDegrees>
              <LongitudeDegrees>-7.85286954604089260101318359375</LongitudeDegrees>
            </Position>
            <AltitudeMeters>589.20001220703125</AltitudeMeters>
            <DistanceMeters>30029.456656877</DistanceMeters>
          </Trackpoint>
          <Trackpoint>
            <Time>2019-07-26T10:41:44.000Z</Time>
            <Position>
              <LatitudeDegrees>42.94201754964888095855712890625</LatitudeDegrees>
              <LongitudeDegrees>-7.85290273837745189666748046875</LongitudeDegrees>
            </Position>
            <AltitudeMeters>588.5999755859375</AltitudeMeters>
            <DistanceMeters>30033.554942151</DistanceMeters>
          </Trackpoint>
          <Trackpoint>
            <Time>2019-07-26T10:41:45.000Z</Time>
            <Position>
              <LatitudeDegrees>42.94200380332767963409423828125</LatitudeDegrees>
              <LongitudeDegrees>-7.8529345057904720306396484375</LongitudeDegrees>
            </Position>
            <AltitudeMeters>588</AltitudeMeters>
            <DistanceMeters>30036.55995071</DistanceMeters>
          </Trackpoint>
          <Trackpoint>
            <Time>2019-07-26T10:41:46.000Z</Time>
            <Position>
              <LatitudeDegrees>42.942005060613155364990234375</LatitudeDegrees>
              <LongitudeDegrees>-7.85296761430799961090087890625</LongitudeDegrees>
            </Position>
            <AltitudeMeters>587.4000244140625</AltitudeMeters>
            <DistanceMeters>30039.261117452</DistanceMeters>
          </Trackpoint>
          <Trackpoint>
            <Time>2019-07-26T10:41:47.000Z</Time>
            <Position>
              <LatitudeDegrees>42.94199944473803043365478515625</LatitudeDegrees>
              <LongitudeDegrees>-7.853018157184123992919921875</LongitudeDegrees>
            </Position>
            <AltitudeMeters>586.4000244140625</AltitudeMeters>
            <DistanceMeters>30043.427147568</DistanceMeters>
          </Trackpoint>
          <Trackpoint>
            <Time>2019-07-26T10:41:48.000Z</Time>
            <Position>
              <LatitudeDegrees>42.94197295792400836944580078125</LatitudeDegrees>
              <LongitudeDegrees>-7.853095941245555877685546875</LongitudeDegrees>
            </Position>
            <AltitudeMeters>584.20001220703125</AltitudeMeters>
            <DistanceMeters>30050.41661919</DistanceMeters>
          </Trackpoint>
          <Trackpoint>
            <Time>2019-07-26T10:41:49.000Z</Time>
            <Position>
              <LatitudeDegrees>42.94193440116941928863525390625</LatitudeDegrees>
              <LongitudeDegrees>-7.85318118520081043243408203125</LongitudeDegrees>
            </Position>
            <AltitudeMeters>583.4000244140625</AltitudeMeters>
            <DistanceMeters>30058.58117823</DistanceMeters>
          </Trackpoint>
          <Trackpoint>
            <Time>2019-07-26T10:41:50.000Z</Time>
            <Position>
              <LatitudeDegrees>42.94188913889229297637939453125</LatitudeDegrees>
              <LongitudeDegrees>-7.85326668061316013336181640625</LongitudeDegrees>
            </Position>
            <AltitudeMeters>582.4000244140625</AltitudeMeters>
            <DistanceMeters>30067.177813945</DistanceMeters>
          </Trackpoint>
          <Trackpoint>
            <Time>2019-07-26T10:41:51.000Z</Time>
            <Position>
              <LatitudeDegrees>42.94184890575706958770751953125</LatitudeDegrees>
              <LongitudeDegrees>-7.85334748215973377227783203125</LongitudeDegrees>
            </Position>
            <AltitudeMeters>581.4000244140625</AltitudeMeters>
            <DistanceMeters>30075.139669045</DistanceMeters>
          </Trackpoint>
          <Trackpoint>
            <Time>2019-07-26T10:41:52.000Z</Time>
            <Position>
              <LatitudeDegrees>42.9418147914111614227294921875</LatitudeDegrees>
              <LongitudeDegrees>-7.85342149436473846435546875</LongitudeDegrees>
            </Position>
            <AltitudeMeters>580.79998779296875</AltitudeMeters>
            <DistanceMeters>30082.266039083</DistanceMeters>
          </Trackpoint>
          <Trackpoint>
            <Time>2019-07-26T10:41:53.000Z</Time>
            <Position>
              <LatitudeDegrees>42.9417866282165050506591796875</LatitudeDegrees>
              <LongitudeDegrees>-7.853496931493282318115234375</LongitudeDegrees>
            </Position>
            <AltitudeMeters>580.20001220703125</AltitudeMeters>
            <DistanceMeters>30089.165790022</DistanceMeters>
          </Trackpoint>
          <Trackpoint>
            <Time>2019-07-26T10:41:55.000Z</Time>
            <Position>
              <LatitudeDegrees>42.9417470656335353851318359375</LatitudeDegrees>
              <LongitudeDegrees>-7.8536610491573810577392578125</LongitudeDegrees>
            </Position>
            <AltitudeMeters>579.4000244140625</AltitudeMeters>
            <DistanceMeters>30103.244503668</DistanceMeters>
          </Trackpoint>
          <Trackpoint>
            <Time>2019-07-26T10:41:57.000Z</Time>
            <Position>
              <LatitudeDegrees>42.94173792935907840728759765625</LatitudeDegrees>
              <LongitudeDegrees>-7.8538199700415134429931640625</LongitudeDegrees>
            </Position>
            <AltitudeMeters>577.79998779296875</AltitudeMeters>
            <DistanceMeters>30116.23330339</DistanceMeters>
          </Trackpoint>
          <Trackpoint>
            <Time>2019-07-26T10:41:59.000Z</Time>
            <Position>
              <LatitudeDegrees>42.94174899347126483917236328125</LatitudeDegrees>
              <LongitudeDegrees>-7.85395952872931957244873046875</LongitudeDegrees>
            </Position>
            <AltitudeMeters>576.5999755859375</AltitudeMeters>
            <DistanceMeters>30127.671299172</DistanceMeters>
          </Trackpoint>
          <Trackpoint>
            <Time>2019-07-26T10:42:00.000Z</Time>
            <Position>
              <LatitudeDegrees>42.941758967936038970947265625</LatitudeDegrees>
              <LongitudeDegrees>-7.8540308587253093719482421875</LongitudeDegrees>
            </Position>
            <AltitudeMeters>576</AltitudeMeters>
            <DistanceMeters>30133.588190786</DistanceMeters>
          </Trackpoint>
          <Trackpoint>
            <Time>2019-07-26T10:42:01.000Z</Time>
            <Position>
              <LatitudeDegrees>42.9417819343507289886474609375</LatitudeDegrees>
              <LongitudeDegrees>-7.85410168580710887908935546875</LongitudeDegrees>
            </Position>
            <AltitudeMeters>575.5999755859375</AltitudeMeters>
            <DistanceMeters>30139.8994242</DistanceMeters>
          </Trackpoint>
          <Trackpoint>
            <Time>2019-07-26T10:42:02.000Z</Time>
            <Position>
              <LatitudeDegrees>42.9418100975453853607177734375</LatitudeDegrees>
              <LongitudeDegrees>-7.85417527891695499420166015625</LongitudeDegrees>
            </Position>
            <AltitudeMeters>575.20001220703125</AltitudeMeters>
            <DistanceMeters>30146.665699953</DistanceMeters>
          </Trackpoint>
          <Trackpoint>
            <Time>2019-07-26T10:42:03.000Z</Time>
            <Position>
              <LatitudeDegrees>42.94182778336107730865478515625</LatitudeDegrees>
              <LongitudeDegrees>-7.85425943322479724884033203125</LongitudeDegrees>
            </Position>
            <AltitudeMeters>574.5999755859375</AltitudeMeters>
            <DistanceMeters>30153.799668753</DistanceMeters>
          </Trackpoint>
          <Trackpoint>
            <Time>2019-07-26T10:42:04.000Z</Time>
            <Position>
              <LatitudeDegrees>42.94181604869663715362548828125</LatitudeDegrees>
              <LongitudeDegrees>-7.85435968078672885894775390625</LongitudeDegrees>
            </Position>
            <AltitudeMeters>574</AltitudeMeters>
            <DistanceMeters>30162.070814933</DistanceMeters>
          </Trackpoint>
          <Trackpoint>
            <Time>2019-07-26T10:42:05.000Z</Time>
            <Position>
              <LatitudeDegrees>42.941787131130695343017578125</LatitudeDegrees>
              <LongitudeDegrees>-7.854449786245822906494140625</LongitudeDegrees>
            </Position>
            <AltitudeMeters>572.79998779296875</AltitudeMeters>
            <DistanceMeters>30170.08692521</DistanceMeters>
          </Trackpoint>
          <Trackpoint>
            <Time>2019-07-26T10:42:06.000Z</Time>
            <Position>
              <LatitudeDegrees>42.94174253940582275390625</LatitudeDegrees>
              <LongitudeDegrees>-7.8545233793556690216064453125</LongitudeDegrees>
            </Position>
            <AltitudeMeters>571.79998779296875</AltitudeMeters>
            <DistanceMeters>30177.870999525</DistanceMeters>
          </Trackpoint>
          <Trackpoint>
            <Time>2019-07-26T10:42:08.000Z</Time>
            <Position>
              <LatitudeDegrees>42.94163164682686328887939453125</LatitudeDegrees>
              <LongitudeDegrees>-7.85462555475533008575439453125</LongitudeDegrees>
            </Position>
            <AltitudeMeters>569.4000244140625</AltitudeMeters>
            <DistanceMeters>30192.758686596</DistanceMeters>
          </Trackpoint>
          <Trackpoint>
            <Time>2019-07-26T10:42:09.000Z</Time>
            <Position>
              <LatitudeDegrees>42.941573224961757659912109375</LatitudeDegrees>
              <LongitudeDegrees>-7.85466595552861690521240234375</LongitudeDegrees>
            </Position>
            <AltitudeMeters>568</AltitudeMeters>
            <DistanceMeters>30200.046684239</DistanceMeters>
          </Trackpoint>
          <Trackpoint>
            <Time>2019-07-26T10:42:10.000Z</Time>
            <Position>
              <LatitudeDegrees>42.94152016751468181610107421875</LatitudeDegrees>
              <LongitudeDegrees>-7.85470887087285518646240234375</LongitudeDegrees>
            </Position>
            <AltitudeMeters>567.20001220703125</AltitudeMeters>
            <DistanceMeters>30206.909692233</DistanceMeters>
          </Trackpoint>
          <Trackpoint>
            <Time>2019-07-26T10:42:11.000Z</Time>
            <Position>
              <LatitudeDegrees>42.94147071428596973419189453125</LatitudeDegrees>
              <LongitudeDegrees>-7.8547557257115840911865234375</LongitudeDegrees>
            </Position>
            <AltitudeMeters>566.79998779296875</AltitudeMeters>
            <DistanceMeters>30213.608907107</DistanceMeters>
          </Trackpoint>
          <Trackpoint>
            <Time>2019-07-26T10:42:13.000Z</Time>
            <Position>
              <LatitudeDegrees>42.94137775897979736328125</LatitudeDegrees>
              <LongitudeDegrees>-7.8548553027212619781494140625</LongitudeDegrees>
            </Position>
            <AltitudeMeters>566.4000244140625</AltitudeMeters>
            <DistanceMeters>30226.756635176</DistanceMeters>
          </Trackpoint>
          <Trackpoint>
            <Time>2019-07-26T10:42:17.000Z</Time>
            <Position>
              <LatitudeDegrees>42.941213808953762054443359375</LatitudeDegrees>
              <LongitudeDegrees>-7.85504498519003391265869140625</LongitudeDegrees>
            </Position>
            <AltitudeMeters>566.4000244140625</AltitudeMeters>
            <DistanceMeters>30250.669971434</DistanceMeters>
          </Trackpoint>
          <Trackpoint>
            <Time>2019-07-26T10:42:19.000Z</Time>
            <Position>
              <LatitudeDegrees>42.941153459250926971435546875</LatitudeDegrees>
              <LongitudeDegrees>-7.85514724440872669219970703125</LongitudeDegrees>
            </Position>
            <AltitudeMeters>566.4000244140625</AltitudeMeters>
            <DistanceMeters>30261.372190344</DistanceMeters>
          </Trackpoint>
          <Trackpoint>
            <Time>2019-07-26T10:42:21.000Z</Time>
            <Position>
              <LatitudeDegrees>42.9410973004996776580810546875</LatitudeDegrees>
              <LongitudeDegrees>-7.85524866543710231781005859375</LongitudeDegrees>
            </Position>
            <AltitudeMeters>566.79998779296875</AltitudeMeters>
            <DistanceMeters>30271.733153078</DistanceMeters>
          </Trackpoint>
          <Trackpoint>
            <Time>2019-07-26T10:42:23.000Z</Time>
            <Position>
              <LatitudeDegrees>42.941047847270965576171875</LatitudeDegrees>
              <LongitudeDegrees>-7.85535871982574462890625</LongitudeDegrees>
            </Position>
            <AltitudeMeters>567.4000244140625</AltitudeMeters>
            <DistanceMeters>30282.254975031</DistanceMeters>
          </Trackpoint>
          <Trackpoint>
            <Time>2019-07-26T10:42:26.000Z</Time>
            <Position>
              <LatitudeDegrees>42.941001914441585540771484375</LatitudeDegrees>
              <LongitudeDegrees>-7.8555385954678058624267578125</LongitudeDegrees>
            </Position>
            <AltitudeMeters>567.79998779296875</AltitudeMeters>
            <DistanceMeters>30297.776942354</DistanceMeters>
          </Trackpoint>
          <Trackpoint>
            <Time>2019-07-26T10:42:27.000Z</Time>
            <Position>
              <LatitudeDegrees>42.9409977234899997711181640625</LatitudeDegrees>
              <LongitudeDegrees>-7.855603806674480438232421875</LongitudeDegrees>
            </Position>
            <AltitudeMeters>567.79998779296875</AltitudeMeters>
            <DistanceMeters>30303.110303471</DistanceMeters>
          </Trackpoint>
          <Trackpoint>
            <Time>2019-07-26T10:42:29.000Z</Time>
            <Position>
              <LatitudeDegrees>42.94101557694375514984130859375</LatitudeDegrees>
              <LongitudeDegrees>-7.855738587677478790283203125</LongitudeDegrees>
            </Position>
            <AltitudeMeters>568.20001220703125</AltitudeMeters>
            <DistanceMeters>30314.270178663</DistanceMeters>
          </Trackpoint>
          <Trackpoint>
            <Time>2019-07-26T10:42:30.000Z</Time>
            <Position>
              <LatitudeDegrees>42.9410309158265590667724609375</LatitudeDegrees>
              <LongitudeDegrees>-7.85580656491219997406005859375</LongitudeDegrees>
            </Position>
            <AltitudeMeters>568.20001220703125</AltitudeMeters>
            <DistanceMeters>30320.06602928</DistanceMeters>
          </Trackpoint>
          <Trackpoint>
            <Time>2019-07-26T10:42:33.000Z</Time>
            <Position>
              <LatitudeDegrees>42.94110291637480258941650390625</LatitudeDegrees>
              <LongitudeDegrees>-7.85600689239799976348876953125</LongitudeDegrees>
            </Position>
            <AltitudeMeters>568.20001220703125</AltitudeMeters>
            <DistanceMeters>30338.249683453</DistanceMeters>
          </Trackpoint>
          <Trackpoint>
            <Time>2019-07-26T10:42:36.000Z</Time>
            <Position>
              <LatitudeDegrees>42.94119059108197689056396484375</LatitudeDegrees>
              <LongitudeDegrees>-7.85621979273855686187744140625</LongitudeDegrees>
            </Position>
            <AltitudeMeters>568.5999755859375</AltitudeMeters>
            <DistanceMeters>30358.152733306</DistanceMeters>
          </Trackpoint>
          <Trackpoint>
            <Time>2019-07-26T10:42:44.000Z</Time>
            <Position>
              <LatitudeDegrees>42.94139393605291843414306640625</LatitudeDegrees>
              <LongitudeDegrees>-7.856769897043704986572265625</LongitudeDegrees>
            </Position>
            <AltitudeMeters>568.5999755859375</AltitudeMeters>
            <DistanceMeters>30408.364618985</DistanceMeters>
          </Trackpoint>
          <Trackpoint>
            <Time>2019-07-26T10:42:49.000Z</Time>
            <Position>
              <LatitudeDegrees>42.941496111452579498291015625</LatitudeDegrees>
              <LongitudeDegrees>-7.85709536634385585784912109375</LongitudeDegrees>
            </Position>
            <AltitudeMeters>568.4000244140625</AltitudeMeters>
            <DistanceMeters>30437.218960914</DistanceMeters>
          </Trackpoint>
          <Trackpoint>
            <Time>2019-07-26T10:42:51.000Z</Time>
            <Position>
              <LatitudeDegrees>42.94152083806693553924560546875</LatitudeDegrees>
              <LongitudeDegrees>-7.85723132081329822540283203125</LongitudeDegrees>
            </Position>
            <AltitudeMeters>568.4000244140625</AltitudeMeters>
            <DistanceMeters>30448.633247704</DistanceMeters>
          </Trackpoint>
          <Trackpoint>
            <Time>2019-07-26T10:42:57.000Z</Time>
            <Position>
              <LatitudeDegrees>42.941598705947399139404296875</LatitudeDegrees>
              <LongitudeDegrees>-7.85763926804065704345703125</LongitudeDegrees>
            </Position>
            <AltitudeMeters>568.79998779296875</AltitudeMeters>
            <DistanceMeters>30482.983531965</DistanceMeters>
          </Trackpoint>
          <Trackpoint>
            <Time>2019-07-26T10:43:00.000Z</Time>
            <Position>
              <LatitudeDegrees>42.94163399375975131988525390625</LatitudeDegrees>
              <LongitudeDegrees>-7.85784085281193256378173828125</LongitudeDegrees>
            </Position>
            <AltitudeMeters>569</AltitudeMeters>
            <DistanceMeters>30499.871305777</DistanceMeters>
          </Trackpoint>
          <Trackpoint>
            <Time>2019-07-26T10:43:09.000Z</Time>
            <Position>
              <LatitudeDegrees>42.9417276196181774139404296875</LatitudeDegrees>
              <LongitudeDegrees>-7.858414761722087860107421875</LongitudeDegrees>
            </Position>
            <AltitudeMeters>569.4000244140625</AltitudeMeters>
            <DistanceMeters>30547.779474077</DistanceMeters>
          </Trackpoint>
          <Trackpoint>
            <Time>2019-07-26T10:43:14.000Z</Time>
            <Position>
              <LatitudeDegrees>42.94176508672535419464111328125</LatitudeDegrees>
              <LongitudeDegrees>-7.85870871506631374359130859375</LongitudeDegrees>
            </Position>
            <AltitudeMeters>569.79998779296875</AltitudeMeters>
            <DistanceMeters>30572.090346198</DistanceMeters>
          </Trackpoint>
          <Trackpoint>
            <Time>2019-07-26T10:43:16.000Z</Time>
            <Position>
              <LatitudeDegrees>42.9417668469250202178955078125</LatitudeDegrees>
              <LongitudeDegrees>-7.85881583578884601593017578125</LongitudeDegrees>
            </Position>
            <AltitudeMeters>570</AltitudeMeters>
            <DistanceMeters>30580.820400332</DistanceMeters>
          </Trackpoint>
          <Trackpoint>
            <Time>2019-07-26T10:43:19.000Z</Time>
            <Position>
              <LatitudeDegrees>42.9417725466191768646240234375</LatitudeDegrees>
              <LongitudeDegrees>-7.8589781932532787322998046875</LongitudeDegrees>
            </Position>
            <AltitudeMeters>570.5999755859375</AltitudeMeters>
            <DistanceMeters>30594.063592723</DistanceMeters>
          </Trackpoint>
          <Trackpoint>
            <Time>2019-07-26T10:43:21.000Z</Time>
            <Position>
              <LatitudeDegrees>42.941779755055904388427734375</LatitudeDegrees>
              <LongitudeDegrees>-7.85907701589167118072509765625</LongitudeDegrees>
            </Position>
            <AltitudeMeters>571</AltitudeMeters>
            <DistanceMeters>30602.154825893</DistanceMeters>
          </Trackpoint>
          <Trackpoint>
            <Time>2019-07-26T10:43:23.000Z</Time>
            <Position>
              <LatitudeDegrees>42.941784448921680450439453125</LatitudeDegrees>
              <LongitudeDegrees>-7.85915865562856197357177734375</LongitudeDegrees>
            </Position>
            <AltitudeMeters>571.4000244140625</AltitudeMeters>
            <DistanceMeters>30608.827027694</DistanceMeters>
          </Trackpoint>
          <Trackpoint>
            <Time>2019-07-26T10:43:28.000Z</Time>
            <Position>
              <LatitudeDegrees>42.941833399236202239990234375</LatitudeDegrees>
              <LongitudeDegrees>-7.859380356967449188232421875</LongitudeDegrees>
            </Position>
            <AltitudeMeters>572.20001220703125</AltitudeMeters>
            <DistanceMeters>30627.694557303</DistanceMeters>
          </Trackpoint>
          <Trackpoint>
            <Time>2019-07-26T10:43:29.000Z</Time>
            <Position>
              <LatitudeDegrees>42.94184605590999126434326171875</LatitudeDegrees>
              <LongitudeDegrees>-7.85943877883255481719970703125</LongitudeDegrees>
            </Position>
            <AltitudeMeters>572.4000244140625</AltitudeMeters>
            <DistanceMeters>30632.658736855</DistanceMeters>
          </Trackpoint>
          <Trackpoint>
            <Time>2019-07-26T10:43:33.000Z</Time>
            <Position>
              <LatitudeDegrees>42.94186801649630069732666015625</LatitudeDegrees>
              <LongitudeDegrees>-7.85972225479781627655029296875</LongitudeDegrees>
            </Position>
            <AltitudeMeters>573.4000244140625</AltitudeMeters>
            <DistanceMeters>30655.884751078</DistanceMeters>
          </Trackpoint>
          <Trackpoint>
            <Time>2019-07-26T10:43:36.000Z</Time>
            <Position>
              <LatitudeDegrees>42.94190556742250919342041015625</LatitudeDegrees>
              <LongitudeDegrees>-7.85992258228361606597900390625</LongitudeDegrees>
            </Position>
            <AltitudeMeters>573.79998779296875</AltitudeMeters>
            <DistanceMeters>30672.733713753</DistanceMeters>
          </Trackpoint>
          <Trackpoint>
            <Time>2019-07-26T10:43:40.000Z</Time>
            <Position>
              <LatitudeDegrees>42.9419415257871150970458984375</LatitudeDegrees>
              <LongitudeDegrees>-7.86018141545355319976806640625</LongitudeDegrees>
            </Position>
            <AltitudeMeters>574.20001220703125</AltitudeMeters>
            <DistanceMeters>30694.19944716</DistanceMeters>
          </Trackpoint>
          <Trackpoint>
            <Time>2019-07-26T10:43:42.000Z</Time>
            <Position>
              <LatitudeDegrees>42.9419448785483837127685546875</LatitudeDegrees>
              <LongitudeDegrees>-7.8603052161633968353271484375</LongitudeDegrees>
            </Position>
            <AltitudeMeters>574.4000244140625</AltitudeMeters>
            <DistanceMeters>30704.293324142</DistanceMeters>
          </Trackpoint>
          <Trackpoint>
            <Time>2019-07-26T10:43:43.000Z</Time>
            <Position>
              <LatitudeDegrees>42.941942028701305389404296875</LatitudeDegrees>
              <LongitudeDegrees>-7.86036414094269275665283203125</LongitudeDegrees>
            </Position>
            <AltitudeMeters>574.5999755859375</AltitudeMeters>
            <DistanceMeters>30709.104154208</DistanceMeters>
          </Trackpoint>
          <Trackpoint>
            <Time>2019-07-26T10:43:45.000Z</Time>
            <Position>
              <LatitudeDegrees>42.941927611827850341796875</LatitudeDegrees>
              <LongitudeDegrees>-7.86048375070095062255859375</LongitudeDegrees>
            </Position>
            <AltitudeMeters>574.5999755859375</AltitudeMeters>
            <DistanceMeters>30718.981448671</DistanceMeters>
          </Trackpoint>
          <Trackpoint>
            <Time>2019-07-26T10:43:49.000Z</Time>
            <Position>
              <LatitudeDegrees>42.94190338812768459320068359375</LatitudeDegrees>
              <LongitudeDegrees>-7.86069975234568119049072265625</LongitudeDegrees>
            </Position>
            <AltitudeMeters>574.79998779296875</AltitudeMeters>
            <DistanceMeters>30736.786726646</DistanceMeters>
          </Trackpoint>
          <Trackpoint>
            <Time>2019-07-26T10:43:51.000Z</Time>
            <Position>
              <LatitudeDegrees>42.94187773950397968292236328125</LatitudeDegrees>
              <LongitudeDegrees>-7.8607672266662120819091796875</LongitudeDegrees>
            </Position>
            <AltitudeMeters>574.79998779296875</AltitudeMeters>
            <DistanceMeters>30742.981710495</DistanceMeters>
          </Trackpoint>
          <Trackpoint>
            <Time>2019-07-26T10:43:53.000Z</Time>
            <Position>
              <LatitudeDegrees>42.9418297111988067626953125</LatitudeDegrees>
              <LongitudeDegrees>-7.8608369641005992889404296875</LongitudeDegrees>
            </Position>
            <AltitudeMeters>575</AltitudeMeters>
            <DistanceMeters>30750.783166464</DistanceMeters>
          </Trackpoint>
          <Trackpoint>
            <Time>2019-07-26T10:43:56.000Z</Time>
            <Position>
              <LatitudeDegrees>42.94177271425724029541015625</LatitudeDegrees>
              <LongitudeDegrees>-7.860991694033145904541015625</LongitudeDegrees>
            </Position>
            <AltitudeMeters>575.20001220703125</AltitudeMeters>
            <DistanceMeters>30764.896473171</DistanceMeters>
          </Trackpoint>
          <Trackpoint>
            <Time>2019-07-26T10:43:57.000Z</Time>
            <Position>
              <LatitudeDegrees>42.941746227443218231201171875</LatitudeDegrees>
              <LongitudeDegrees>-7.861057408154010772705078125</LongitudeDegrees>
            </Position>
            <AltitudeMeters>575.20001220703125</AltitudeMeters>
            <DistanceMeters>30771.008545344</DistanceMeters>
          </Trackpoint>
          <Trackpoint>
            <Time>2019-07-26T10:43:59.000Z</Time>
            <Position>
              <LatitudeDegrees>42.94169518165290355682373046875</LatitudeDegrees>
              <LongitudeDegrees>-7.8611992299556732177734375</LongitudeDegrees>
            </Position>
            <AltitudeMeters>575.20001220703125</AltitudeMeters>
            <DistanceMeters>30783.885278767</DistanceMeters>
          </Trackpoint>
          <Trackpoint>
            <Time>2019-07-26T10:44:00.000Z</Time>
            <Position>
              <LatitudeDegrees>42.94166349805891513824462890625</LatitudeDegrees>
              <LongitudeDegrees>-7.86126804538071155548095703125</LongitudeDegrees>
            </Position>
            <AltitudeMeters>575.20001220703125</AltitudeMeters>
            <DistanceMeters>30790.508579407</DistanceMeters>
          </Trackpoint>
          <Trackpoint>
            <Time>2019-07-26T10:44:02.000Z</Time>
            <Position>
              <LatitudeDegrees>42.9415733925998210906982421875</LatitudeDegrees>
              <LongitudeDegrees>-7.86137533374130725860595703125</LongitudeDegrees>
            </Position>
            <AltitudeMeters>575.20001220703125</AltitudeMeters>
            <DistanceMeters>30803.812319419</DistanceMeters>
          </Trackpoint>
          <Trackpoint>
            <Time>2019-07-26T10:44:03.000Z</Time>
            <Position>
              <LatitudeDegrees>42.9415324889123439788818359375</LatitudeDegrees>
              <LongitudeDegrees>-7.86143484525382518768310546875</LongitudeDegrees>
            </Position>
            <AltitudeMeters>575.20001220703125</AltitudeMeters>
            <DistanceMeters>30810.463510628</DistanceMeters>
          </Trackpoint>
          <Trackpoint>
            <Time>2019-07-26T10:44:05.000Z</Time>
            <Position>
              <LatitudeDegrees>42.94147138483822345733642578125</LatitudeDegrees>
              <LongitudeDegrees>-7.86158085800707340240478515625</LongitudeDegrees>
            </Position>
            <AltitudeMeters>574.79998779296875</AltitudeMeters>
            <DistanceMeters>30824.167140429</DistanceMeters>
          </Trackpoint>
          <Trackpoint>
            <Time>2019-07-26T10:44:07.000Z</Time>
            <Position>
              <LatitudeDegrees>42.94143467210233211517333984375</LatitudeDegrees>
              <LongitudeDegrees>-7.86176257766783237457275390625</LongitudeDegrees>
            </Position>
            <AltitudeMeters>574.4000244140625</AltitudeMeters>
            <DistanceMeters>30839.526820672</DistanceMeters>
          </Trackpoint>
          <Trackpoint>
            <Time>2019-07-26T10:44:09.000Z</Time>
            <Position>
              <LatitudeDegrees>42.94140282087028026580810546875</LatitudeDegrees>
              <LongitudeDegrees>-7.86197346635162830352783203125</LongitudeDegrees>
            </Position>
            <AltitudeMeters>573.79998779296875</AltitudeMeters>
            <DistanceMeters>30857.071541982</DistanceMeters>
          </Trackpoint>
          <Trackpoint>
            <Time>2019-07-26T10:44:11.000Z</Time>
            <Position>
              <LatitudeDegrees>42.94138245284557342529296875</LatitudeDegrees>
              <LongitudeDegrees>-7.86218536086380481719970703125</LongitudeDegrees>
            </Position>
            <AltitudeMeters>573.20001220703125</AltitudeMeters>
            <DistanceMeters>30874.484522968</DistanceMeters>
          </Trackpoint>
          <Trackpoint>
            <Time>2019-07-26T10:44:13.000Z</Time>
            <Position>
              <LatitudeDegrees>42.94137532822787761688232421875</LatitudeDegrees>
              <LongitudeDegrees>-7.8624022006988525390625</LongitudeDegrees>
            </Position>
            <AltitudeMeters>572</AltitudeMeters>
            <DistanceMeters>30892.170217409</DistanceMeters>
          </Trackpoint>
          <Trackpoint>
            <Time>2019-07-26T10:44:14.000Z</Time>
            <Position>
              <LatitudeDegrees>42.94137968681752681732177734375</LatitudeDegrees>
              <LongitudeDegrees>-7.86250337027013301849365234375</LongitudeDegrees>
            </Position>
            <AltitudeMeters>571.4000244140625</AltitudeMeters>
            <DistanceMeters>30900.427705358</DistanceMeters>
          </Trackpoint>
          <Trackpoint>
            <Time>2019-07-26T10:44:15.000Z</Time>
            <Position>
              <LatitudeDegrees>42.94138672761619091033935546875</LatitudeDegrees>
              <LongitudeDegrees>-7.8625978343188762664794921875</LongitudeDegrees>
            </Position>
            <AltitudeMeters>570.79998779296875</AltitudeMeters>
            <DistanceMeters>30908.164070569</DistanceMeters>
          </Trackpoint>
          <Trackpoint>
            <Time>2019-07-26T10:44:17.000Z</Time>
            <Position>
              <LatitudeDegrees>42.9414107836782932281494140625</LatitudeDegrees>
              <LongitudeDegrees>-7.86276404745876789093017578125</LongitudeDegrees>
            </Position>
            <AltitudeMeters>569.79998779296875</AltitudeMeters>
            <DistanceMeters>30921.968806469</DistanceMeters>
          </Trackpoint>
          <Trackpoint>
            <Time>2019-07-26T10:44:19.000Z</Time>
            <Position>
              <LatitudeDegrees>42.94144540093839168548583984375</LatitudeDegrees>
              <LongitudeDegrees>-7.86291182041168212890625</LongitudeDegrees>
            </Position>
            <AltitudeMeters>569</AltitudeMeters>
            <DistanceMeters>30934.610574261</DistanceMeters>
          </Trackpoint>
          <Trackpoint>
            <Time>2019-07-26T10:44:20.000Z</Time>
            <Position>
              <LatitudeDegrees>42.9414610750973224639892578125</LatitudeDegrees>
              <LongitudeDegrees>-7.86298901773989200592041015625</LongitudeDegrees>
            </Position>
            <AltitudeMeters>568.5999755859375</AltitudeMeters>
            <DistanceMeters>30941.137740619</DistanceMeters>
          </Trackpoint>
          <Trackpoint>
            <Time>2019-07-26T10:44:23.000Z</Time>
            <Position>
              <LatitudeDegrees>42.941514551639556884765625</LatitudeDegrees>
              <LongitudeDegrees>-7.8632740862667560577392578125</LongitudeDegrees>
            </Position>
            <AltitudeMeters>567.4000244140625</AltitudeMeters>
            <DistanceMeters>30965.115374093</DistanceMeters>
          </Trackpoint>
          <Trackpoint>
            <Time>2019-07-26T10:44:24.000Z</Time>
            <Position>
              <LatitudeDegrees>42.9415328241884708404541015625</LatitudeDegrees>
              <LongitudeDegrees>-7.86338028497993946075439453125</LongitudeDegrees>
            </Position>
            <AltitudeMeters>567</AltitudeMeters>
            <DistanceMeters>30974.003801334</DistanceMeters>
          </Trackpoint>
          <Trackpoint>
            <Time>2019-07-26T10:44:26.000Z</Time>
            <Position>
              <LatitudeDegrees>42.94155268929898738861083984375</LatitudeDegrees>
              <LongitudeDegrees>-7.8635788522660732269287109375</LongitudeDegrees>
            </Position>
            <AltitudeMeters>566.5999755859375</AltitudeMeters>
            <DistanceMeters>30990.332919413</DistanceMeters>
          </Trackpoint>
          <Trackpoint>
            <Time>2019-07-26T10:44:28.000Z</Time>
            <Position>
              <LatitudeDegrees>42.94156677089631557464599609375</LatitudeDegrees>
              <LongitudeDegrees>-7.86372788250446319580078125</LongitudeDegrees>
            </Position>
            <AltitudeMeters>566.4000244140625</AltitudeMeters>
            <DistanceMeters>31002.575517536</DistanceMeters>
          </Trackpoint>
          <Trackpoint>
            <Time>2019-07-26T10:44:30.000Z</Time>
            <Position>
              <LatitudeDegrees>42.9415717162191867828369140625</LatitudeDegrees>
              <LongitudeDegrees>-7.86386626772582530975341796875</LongitudeDegrees>
            </Position>
            <AltitudeMeters>566</AltitudeMeters>
            <DistanceMeters>31013.864115269</DistanceMeters>
          </Trackpoint>
          <Trackpoint>
            <Time>2019-07-26T10:44:33.000Z</Time>
            <Position>
              <LatitudeDegrees>42.94159275479614734649658203125</LatitudeDegrees>
              <LongitudeDegrees>-7.86412359215319156646728515625</LongitudeDegrees>
            </Position>
            <AltitudeMeters>565.79998779296875</AltitudeMeters>
            <DistanceMeters>31034.960901939</DistanceMeters>
          </Trackpoint>
          <Trackpoint>
            <Time>2019-07-26T10:44:38.000Z</Time>
            <Position>
              <LatitudeDegrees>42.94163701124489307403564453125</LatitudeDegrees>
              <LongitudeDegrees>-7.86454754881560802459716796875</LongitudeDegrees>
            </Position>
            <AltitudeMeters>565</AltitudeMeters>
            <DistanceMeters>31069.853696994</DistanceMeters>
          </Trackpoint>
          <Trackpoint>
            <Time>2019-07-26T10:44:39.000Z</Time>
            <Position>
              <LatitudeDegrees>42.94162829406559467315673828125</LatitudeDegrees>
              <LongitudeDegrees>-7.86464226432144641876220703125</LongitudeDegrees>
            </Position>
            <AltitudeMeters>564.79998779296875</AltitudeMeters>
            <DistanceMeters>31077.631968793</DistanceMeters>
          </Trackpoint>
          <Trackpoint>
            <Time>2019-07-26T10:44:40.000Z</Time>
            <Position>
              <LatitudeDegrees>42.941620834171772003173828125</LatitudeDegrees>
              <LongitudeDegrees>-7.86473429761826992034912109375</LongitudeDegrees>
            </Position>
            <AltitudeMeters>564.79998779296875</AltitudeMeters>
            <DistanceMeters>31085.176874485</DistanceMeters>
          </Trackpoint>
          <Trackpoint>
            <Time>2019-07-26T10:44:43.000Z</Time>
            <Position>
              <LatitudeDegrees>42.9416085965931415557861328125</LatitudeDegrees>
              <LongitudeDegrees>-7.865010984241962432861328125</LongitudeDegrees>
            </Position>
            <AltitudeMeters>564.20001220703125</AltitudeMeters>
            <DistanceMeters>31107.761867912</DistanceMeters>
          </Trackpoint>
          <Trackpoint>
            <Time>2019-07-26T10:44:46.000Z</Time>
            <Position>
              <LatitudeDegrees>42.9416008852422237396240234375</LatitudeDegrees>
              <LongitudeDegrees>-7.8653018362820148468017578125</LongitudeDegrees>
            </Position>
            <AltitudeMeters>563.79998779296875</AltitudeMeters>
            <DistanceMeters>31131.47555553</DistanceMeters>
          </Trackpoint>
          <Trackpoint>
            <Time>2019-07-26T10:44:49.000Z</Time>
            <Position>
              <LatitudeDegrees>42.94160767458379268646240234375</LatitudeDegrees>
              <LongitudeDegrees>-7.865601070225238800048828125</LongitudeDegrees>
            </Position>
            <AltitudeMeters>563.20001220703125</AltitudeMeters>
            <DistanceMeters>31155.868378185</DistanceMeters>
          </Trackpoint>
          <Trackpoint>
            <Time>2019-07-26T10:44:50.000Z</Time>
            <Position>
              <LatitudeDegrees>42.94161153025925159454345703125</LatitudeDegrees>
              <LongitudeDegrees>-7.8656931035220623016357421875</LongitudeDegrees>
            </Position>
            <AltitudeMeters>563</AltitudeMeters>
            <DistanceMeters>31163.379697484</DistanceMeters>
          </Trackpoint>
          <Trackpoint>
            <Time>2019-07-26T10:44:52.000Z</Time>
            <Position>
              <LatitudeDegrees>42.9416166432201862335205078125</LatitudeDegrees>
              <LongitudeDegrees>-7.86585931666195392608642578125</LongitudeDegrees>
            </Position>
            <AltitudeMeters>562.79998779296875</AltitudeMeters>
            <DistanceMeters>31176.934584625</DistanceMeters>
          </Trackpoint>
          <Trackpoint>
            <Time>2019-07-26T10:44:55.000Z</Time>
            <Position>
              <LatitudeDegrees>42.9416357539594173431396484375</LatitudeDegrees>
              <LongitudeDegrees>-7.8660374321043491363525390625</LongitudeDegrees>
            </Position>
            <AltitudeMeters>562.4000244140625</AltitudeMeters>
            <DistanceMeters>31191.60228967</DistanceMeters>
          </Trackpoint>
          <Trackpoint>
            <Time>2019-07-26T10:44:56.000Z</Time>
            <Position>
              <LatitudeDegrees>42.9416327364742755889892578125</LatitudeDegrees>
              <LongitudeDegrees>-7.86606634967029094696044921875</LongitudeDegrees>
            </Position>
            <AltitudeMeters>562.20001220703125</AltitudeMeters>
            <DistanceMeters>31193.981755562</DistanceMeters>
          </Trackpoint>
          <Trackpoint>
            <Time>2019-07-26T10:44:57.000Z</Time>
            <Position>
              <LatitudeDegrees>42.941624186933040618896484375</LatitudeDegrees>
              <LongitudeDegrees>-7.86608194001019001007080078125</LongitudeDegrees>
            </Position>
            <AltitudeMeters>562.20001220703125</AltitudeMeters>
            <DistanceMeters>31195.566167519</DistanceMeters>
          </Trackpoint>
          <Trackpoint>
            <Time>2019-07-26T10:44:58.000Z</Time>
            <Position>
              <LatitudeDegrees>42.94161069206893444061279296875</LatitudeDegrees>
              <LongitudeDegrees>-7.8660835325717926025390625</LongitudeDegrees>
            </Position>
            <AltitudeMeters>562</AltitudeMeters>
            <DistanceMeters>31197.071673809</DistanceMeters>
          </Trackpoint>
          <Trackpoint>
            <Time>2019-07-26T10:45:00.000Z</Time>
            <Position>
              <LatitudeDegrees>42.94159946031868457794189453125</LatitudeDegrees>
              <LongitudeDegrees>-7.86606534384191036224365234375</LongitudeDegrees>
            </Position>
            <AltitudeMeters>561.5999755859375</AltitudeMeters>
            <DistanceMeters>31199.009846092</DistanceMeters>
          </Trackpoint>
          <Trackpoint>
            <Time>2019-07-26T10:45:02.000Z</Time>
            <Position>
              <LatitudeDegrees>42.94159174896776676177978515625</LatitudeDegrees>
              <LongitudeDegrees>-7.8660555370151996612548828125</LongitudeDegrees>
            </Position>
            <AltitudeMeters>560.5999755859375</AltitudeMeters>
            <DistanceMeters>31200.18141411</DistanceMeters>
          </Trackpoint>
          <Trackpoint>
            <Time>2019-07-26T10:45:12.000Z</Time>
            <Position>
              <LatitudeDegrees>42.94164128601551055908203125</LatitudeDegrees>
              <LongitudeDegrees>-7.8659616596996784210205078125</LongitudeDegrees>
            </Position>
            <AltitudeMeters>559</AltitudeMeters>
            <DistanceMeters>31209.61063108</DistanceMeters>
          </Trackpoint>
          <Trackpoint>
            <Time>2019-07-26T10:45:13.000Z</Time>
            <Position>
              <LatitudeDegrees>42.9416595585644245147705078125</LatitudeDegrees>
              <LongitudeDegrees>-7.8660075925290584564208984375</LongitudeDegrees>
            </Position>
            <AltitudeMeters>559</AltitudeMeters>
            <DistanceMeters>31213.870966002</DistanceMeters>
          </Trackpoint>
          <Trackpoint>
            <Time>2019-07-26T10:45:15.000Z</Time>
            <Position>
              <LatitudeDegrees>42.941692583262920379638671875</LatitudeDegrees>
              <LongitudeDegrees>-7.86611161194741725921630859375</LongitudeDegrees>
            </Position>
            <AltitudeMeters>559</AltitudeMeters>
            <DistanceMeters>31223.109595909</DistanceMeters>
          </Trackpoint>
          <Trackpoint>
            <Time>2019-07-26T10:45:18.000Z</Time>
            <Position>
              <LatitudeDegrees>42.941750586032867431640625</LatitudeDegrees>
              <LongitudeDegrees>-7.86629919894039630889892578125</LongitudeDegrees>
            </Position>
            <AltitudeMeters>559</AltitudeMeters>
            <DistanceMeters>31239.701488823</DistanceMeters>
          </Trackpoint>
          <Trackpoint>
            <Time>2019-07-26T10:45:20.000Z</Time>
            <Position>
              <LatitudeDegrees>42.941779755055904388427734375</LatitudeDegrees>
              <LongitudeDegrees>-7.86642886698246002197265625</LongitudeDegrees>
            </Position>
            <AltitudeMeters>559</AltitudeMeters>
            <DistanceMeters>31250.754039394</DistanceMeters>
          </Trackpoint>
          <Trackpoint>
            <Time>2019-07-26T10:45:23.000Z</Time>
            <Position>
              <LatitudeDegrees>42.94182711280882358551025390625</LatitudeDegrees>
              <LongitudeDegrees>-7.8666318766772747039794921875</LongitudeDegrees>
            </Position>
            <AltitudeMeters>558.5999755859375</AltitudeMeters>
            <DistanceMeters>31268.114564484</DistanceMeters>
          </Trackpoint>
          <Trackpoint>
            <Time>2019-07-26T10:45:26.000Z</Time>
            <Position>
              <LatitudeDegrees>42.94199776835739612579345703125</LatitudeDegrees>
              <LongitudeDegrees>-7.86682340316474437713623046875</LongitudeDegrees>
            </Position>
            <AltitudeMeters>558</AltitudeMeters>
            <DistanceMeters>31292.697114102</DistanceMeters>
          </Trackpoint>
          <Trackpoint>
            <Time>2019-07-26T10:45:27.000Z</Time>
            <Position>
              <LatitudeDegrees>42.9420444555580615997314453125</LatitudeDegrees>
              <LongitudeDegrees>-7.86687687970697879791259765625</LongitudeDegrees>
            </Position>
            <AltitudeMeters>557.79998779296875</AltitudeMeters>
            <DistanceMeters>31299.478054247</DistanceMeters>
          </Trackpoint>
          <Trackpoint>
            <Time>2019-07-26T10:45:28.000Z</Time>
            <Position>
              <LatitudeDegrees>42.94208728708326816558837890625</LatitudeDegrees>
              <LongitudeDegrees>-7.866922728717327117919921875</LongitudeDegrees>
            </Position>
            <AltitudeMeters>557.5999755859375</AltitudeMeters>
            <DistanceMeters>31305.533724354</DistanceMeters>
          </Trackpoint>
          <Trackpoint>
            <Time>2019-07-26T10:45:29.000Z</Time>
            <Position>
              <LatitudeDegrees>42.94213171117007732391357421875</LatitudeDegrees>
              <LongitudeDegrees>-7.86697444505989551544189453125</LongitudeDegrees>
            </Position>
            <AltitudeMeters>557.4000244140625</AltitudeMeters>
            <DistanceMeters>31312.028993181</DistanceMeters>
          </Trackpoint>
          <Trackpoint>
            <Time>2019-07-26T10:45:30.000Z</Time>
            <Position>
              <LatitudeDegrees>42.94217026792466640472412109375</LatitudeDegrees>
              <LongitudeDegrees>-7.8670325316488742828369140625</LongitudeDegrees>
            </Position>
            <AltitudeMeters>557.20001220703125</AltitudeMeters>
            <DistanceMeters>31318.417729013</DistanceMeters>
          </Trackpoint>
          <Trackpoint>
            <Time>2019-07-26T10:45:31.000Z</Time>
            <Position>
              <LatitudeDegrees>42.942203544080257415771484375</LatitudeDegrees>
              <LongitudeDegrees>-7.86709682084619998931884765625</LongitudeDegrees>
            </Position>
            <AltitudeMeters>557.20001220703125</AltitudeMeters>
            <DistanceMeters>31324.833263943</DistanceMeters>
          </Trackpoint>
          <Trackpoint>
            <Time>2019-07-26T10:45:32.000Z</Time>
            <Position>
              <LatitudeDegrees>42.9422191344201564788818359375</LatitudeDegrees>
              <LongitudeDegrees>-7.8671780414879322052001953125</LongitudeDegrees>
            </Position>
            <AltitudeMeters>556.5999755859375</AltitudeMeters>
            <DistanceMeters>31331.673867434</DistanceMeters>
          </Trackpoint>
          <Trackpoint>
            <Time>2019-07-26T10:45:33.000Z</Time>
            <Position>
              <LatitudeDegrees>42.94222072698175907135009765625</LatitudeDegrees>
              <LongitudeDegrees>-7.86727242171764373779296875</LongitudeDegrees>
            </Position>
            <AltitudeMeters>555.79998779296875</AltitudeMeters>
            <DistanceMeters>31339.365750225</DistanceMeters>
          </Trackpoint>
          <Trackpoint>
            <Time>2019-07-26T10:45:34.000Z</Time>
            <Position>
              <LatitudeDegrees>42.9422204755246639251708984375</LatitudeDegrees>
              <LongitudeDegrees>-7.867370657622814178466796875</LongitudeDegrees>
            </Position>
            <AltitudeMeters>555</AltitudeMeters>
            <DistanceMeters>31347.370023606</DistanceMeters>
          </Trackpoint>
          <Trackpoint>
            <Time>2019-07-26T10:45:35.000Z</Time>
            <Position>
              <LatitudeDegrees>42.94221335090696811676025390625</LatitudeDegrees>
              <LongitudeDegrees>-7.8674811311066150665283203125</LongitudeDegrees>
            </Position>
            <AltitudeMeters>553.79998779296875</AltitudeMeters>
            <DistanceMeters>31356.405060466</DistanceMeters>
          </Trackpoint>
          <Trackpoint>
            <Time>2019-07-26T10:45:36.000Z</Time>
            <Position>
              <LatitudeDegrees>42.94216968119144439697265625</LatitudeDegrees>
              <LongitudeDegrees>-7.86763644777238368988037109375</LongitudeDegrees>
            </Position>
            <AltitudeMeters>552.5999755859375</AltitudeMeters>
            <DistanceMeters>31369.960946849</DistanceMeters>
          </Trackpoint>
          <Trackpoint>
            <Time>2019-07-26T10:45:37.000Z</Time>
            <Position>
              <LatitudeDegrees>42.94212567619979381561279296875</LatitudeDegrees>
              <LongitudeDegrees>-7.8677728213369846343994140625</LongitudeDegrees>
            </Position>
            <AltitudeMeters>551.4000244140625</AltitudeMeters>
            <DistanceMeters>31382.104305047</DistanceMeters>
          </Trackpoint>
          <Trackpoint>
            <Time>2019-07-26T10:45:38.000Z</Time>
            <Position>
              <LatitudeDegrees>42.9420934058725833892822265625</LatitudeDegrees>
              <LongitudeDegrees>-7.8678653575479984283447265625</LongitudeDegrees>
            </Position>
            <AltitudeMeters>550.4000244140625</AltitudeMeters>
            <DistanceMeters>31390.455850441</DistanceMeters>
          </Trackpoint>
          <Trackpoint>
            <Time>2019-07-26T10:45:39.000Z</Time>
            <Position>
              <LatitudeDegrees>42.94205359183251857757568359375</LatitudeDegrees>
              <LongitudeDegrees>-7.86795747466385364532470703125</LongitudeDegrees>
            </Position>
            <AltitudeMeters>549.20001220703125</AltitudeMeters>
            <DistanceMeters>31399.171411412</DistanceMeters>
          </Trackpoint>
          <Trackpoint>
            <Time>2019-07-26T10:45:40.000Z</Time>
            <Position>
              <LatitudeDegrees>42.94201411306858062744140625</LatitudeDegrees>
              <LongitudeDegrees>-7.86804514937102794647216796875</LongitudeDegrees>
            </Position>
            <AltitudeMeters>547.20001220703125</AltitudeMeters>
            <DistanceMeters>31407.558023685</DistanceMeters>
          </Trackpoint>
          <Trackpoint>
            <Time>2019-07-26T10:45:41.000Z</Time>
            <Position>
              <LatitudeDegrees>42.9419599659740924835205078125</LatitudeDegrees>
              <LongitudeDegrees>-7.868137769401073455810546875</LongitudeDegrees>
            </Position>
            <AltitudeMeters>546.4000244140625</AltitudeMeters>
            <DistanceMeters>31417.216216563</DistanceMeters>
          </Trackpoint>
          <Trackpoint>
            <Time>2019-07-26T10:45:42.000Z</Time>
            <Position>
              <LatitudeDegrees>42.9419053159654140472412109375</LatitudeDegrees>
              <LongitudeDegrees>-7.86821278743445873260498046875</LongitudeDegrees>
            </Position>
            <AltitudeMeters>545.4000244140625</AltitudeMeters>
            <DistanceMeters>31425.839596383</DistanceMeters>
          </Trackpoint>
          <Trackpoint>
            <Time>2019-07-26T10:45:43.000Z</Time>
            <Position>
              <LatitudeDegrees>42.9418473131954669952392578125</LatitudeDegrees>
              <LongitudeDegrees>-7.8682867996394634246826171875</LongitudeDegrees>
            </Position>
            <AltitudeMeters>544.5999755859375</AltitudeMeters>
            <DistanceMeters>31434.673503821</DistanceMeters>
          </Trackpoint>
          <Trackpoint>
            <Time>2019-07-26T10:45:44.000Z</Time>
            <Position>
              <LatitudeDegrees>42.94178956188261508941650390625</LatitudeDegrees>
              <LongitudeDegrees>-7.8683702833950519561767578125</LongitudeDegrees>
            </Position>
            <AltitudeMeters>543.5999755859375</AltitudeMeters>
            <DistanceMeters>31444.031584893</DistanceMeters>
          </Trackpoint>
          <Trackpoint>
            <Time>2019-07-26T10:45:46.000Z</Time>
            <Position>
              <LatitudeDegrees>42.94170272536575794219970703125</LatitudeDegrees>
              <LongitudeDegrees>-7.8685137815773487091064453125</LongitudeDegrees>
            </Position>
            <AltitudeMeters>541.79998779296875</AltitudeMeters>
            <DistanceMeters>31459.200777619</DistanceMeters>
          </Trackpoint>
          <Trackpoint>
            <Time>2019-07-26T10:45:47.000Z</Time>
            <Position>
              <LatitudeDegrees>42.9416907392442226409912109375</LatitudeDegrees>
              <LongitudeDegrees>-7.86857807077467441558837890625</LongitudeDegrees>
            </Position>
            <AltitudeMeters>540.5999755859375</AltitudeMeters>
            <DistanceMeters>31464.606453097</DistanceMeters>
          </Trackpoint>
          <Trackpoint>
            <Time>2019-07-26T10:45:49.000Z</Time>
            <Position>
              <LatitudeDegrees>42.941685207188129425048828125</LatitudeDegrees>
              <LongitudeDegrees>-7.86871201358735561370849609375</LongitudeDegrees>
            </Position>
            <AltitudeMeters>539</AltitudeMeters>
            <DistanceMeters>31475.537003926</DistanceMeters>
          </Trackpoint>
          <Trackpoint>
            <Time>2019-07-26T10:45:51.000Z</Time>
            <Position>
              <LatitudeDegrees>42.941747568547725677490234375</LatitudeDegrees>
              <LongitudeDegrees>-7.86880530416965484619140625</LongitudeDegrees>
            </Position>
            <AltitudeMeters>537.79998779296875</AltitudeMeters>
            <DistanceMeters>31485.831077321</DistanceMeters>
          </Trackpoint>
          <Trackpoint>
            <Time>2019-07-26T10:45:53.000Z</Time>
            <Position>
              <LatitudeDegrees>42.94181185774505138397216796875</LatitudeDegrees>
              <LongitudeDegrees>-7.8688998520374298095703125</LongitudeDegrees>
            </Position>
            <AltitudeMeters>536.4000244140625</AltitudeMeters>
            <DistanceMeters>31496.345601842</DistanceMeters>
          </Trackpoint>
          <Trackpoint>
            <Time>2019-07-26T10:45:55.000Z</Time>
            <Position>
              <LatitudeDegrees>42.9418540187180042266845703125</LatitudeDegrees>
              <LongitudeDegrees>-7.8690019436180591583251953125</LongitudeDegrees>
            </Position>
            <AltitudeMeters>534.79998779296875</AltitudeMeters>
            <DistanceMeters>31505.896613948</DistanceMeters>
          </Trackpoint>
          <Trackpoint>
            <Time>2019-07-26T10:45:56.000Z</Time>
            <Position>
              <LatitudeDegrees>42.94186231680214405059814453125</LatitudeDegrees>
              <LongitudeDegrees>-7.869060449302196502685546875</LongitudeDegrees>
            </Position>
            <AltitudeMeters>534.4000244140625</AltitudeMeters>
            <DistanceMeters>31510.753213548</DistanceMeters>
          </Trackpoint>
          <Trackpoint>
            <Time>2019-07-26T10:45:58.000Z</Time>
            <Position>
              <LatitudeDegrees>42.94189475476741790771484375</LatitudeDegrees>
              <LongitudeDegrees>-7.8691779635846614837646484375</LongitudeDegrees>
            </Position>
            <AltitudeMeters>534.20001220703125</AltitudeMeters>
            <DistanceMeters>31520.985697917</DistanceMeters>
          </Trackpoint>
          <Trackpoint>
            <Time>2019-07-26T10:45:59.000Z</Time>
            <Position>
              <LatitudeDegrees>42.9419056512415409088134765625</LatitudeDegrees>
              <LongitudeDegrees>-7.8692420013248920440673828125</LongitudeDegrees>
            </Position>
            <AltitudeMeters>534</AltitudeMeters>
            <DistanceMeters>31526.342710418</DistanceMeters>
          </Trackpoint>
          <Trackpoint>
            <Time>2019-07-26T10:46:01.000Z</Time>
            <Position>
              <LatitudeDegrees>42.9419128596782684326171875</LatitudeDegrees>
              <LongitudeDegrees>-7.869369573891162872314453125</LongitudeDegrees>
            </Position>
            <AltitudeMeters>534</AltitudeMeters>
            <DistanceMeters>31536.76840129</DistanceMeters>
          </Trackpoint>
          <Trackpoint>
            <Time>2019-07-26T10:46:03.000Z</Time>
            <Position>
              <LatitudeDegrees>42.94194093905389308929443359375</LatitudeDegrees>
              <LongitudeDegrees>-7.8694827295839786529541015625</LongitudeDegrees>
            </Position>
            <AltitudeMeters>534</AltitudeMeters>
            <DistanceMeters>31546.502959431</DistanceMeters>
          </Trackpoint>
          <Trackpoint>
            <Time>2019-07-26T10:46:05.000Z</Time>
            <Position>
              <LatitudeDegrees>42.94197681359946727752685546875</LatitudeDegrees>
              <LongitudeDegrees>-7.86961340345442295074462890625</LongitudeDegrees>
            </Position>
            <AltitudeMeters>534</AltitudeMeters>
            <DistanceMeters>31557.874445468</DistanceMeters>
          </Trackpoint>
          <Trackpoint>
            <Time>2019-07-26T10:46:06.000Z</Time>
            <Position>
              <LatitudeDegrees>42.9419894702732563018798828125</LatitudeDegrees>
              <LongitudeDegrees>-7.8696822188794612884521484375</LongitudeDegrees>
            </Position>
            <AltitudeMeters>534</AltitudeMeters>
            <DistanceMeters>31563.656256862</DistanceMeters>
          </Trackpoint>
          <Trackpoint>
            <Time>2019-07-26T10:46:07.000Z</Time>
            <Position>
              <LatitudeDegrees>42.9419985227286815643310546875</LatitudeDegrees>
              <LongitudeDegrees>-7.86975488997995853424072265625</LongitudeDegrees>
            </Position>
            <AltitudeMeters>534</AltitudeMeters>
            <DistanceMeters>31569.663268221</DistanceMeters>
          </Trackpoint>
          <Trackpoint>
            <Time>2019-07-26T10:46:09.000Z</Time>
            <Position>
              <LatitudeDegrees>42.9420246742665767669677734375</LatitudeDegrees>
              <LongitudeDegrees>-7.86989604122936725616455078125</LongitudeDegrees>
            </Position>
            <AltitudeMeters>534</AltitudeMeters>
            <DistanceMeters>31581.526012899</DistanceMeters>
          </Trackpoint>
          <Trackpoint>
            <Time>2019-07-26T10:46:11.000Z</Time>
            <Position>
              <LatitudeDegrees>42.9420364089310169219970703125</LatitudeDegrees>
              <LongitudeDegrees>-7.870044820010662078857421875</LongitudeDegrees>
            </Position>
            <AltitudeMeters>534</AltitudeMeters>
            <DistanceMeters>31593.718351412</DistanceMeters>
          </Trackpoint>
          <Trackpoint>
            <Time>2019-07-26T10:46:15.000Z</Time>
            <Position>
              <LatitudeDegrees>42.94203146360814571380615234375</LatitudeDegrees>
              <LongitudeDegrees>-7.8703348338603973388671875</LongitudeDegrees>
            </Position>
            <AltitudeMeters>534</AltitudeMeters>
            <DistanceMeters>31617.354611045</DistanceMeters>
          </Trackpoint>
          <Trackpoint>
            <Time>2019-07-26T10:46:18.000Z</Time>
            <Position>
              <LatitudeDegrees>42.94203431345522403717041015625</LatitudeDegrees>
              <LongitudeDegrees>-7.87051211111247539520263671875</LongitudeDegrees>
            </Position>
            <AltitudeMeters>534.4000244140625</AltitudeMeters>
            <DistanceMeters>31631.80179717</DistanceMeters>
          </Trackpoint>
          <Trackpoint>
            <Time>2019-07-26T10:46:20.000Z</Time>
            <Position>
              <LatitudeDegrees>42.94203565455973148345947265625</LatitudeDegrees>
              <LongitudeDegrees>-7.87062007002532482147216796875</LongitudeDegrees>
            </Position>
            <AltitudeMeters>534.20001220703125</AltitudeMeters>
            <DistanceMeters>31640.599854642</DistanceMeters>
          </Trackpoint>
          <Trackpoint>
            <Time>2019-07-26T10:46:23.000Z</Time>
            <Position>
              <LatitudeDegrees>42.94204219244420528411865234375</LatitudeDegrees>
              <LongitudeDegrees>-7.87078184075653553009033203125</LongitudeDegrees>
            </Position>
            <AltitudeMeters>534.5999755859375</AltitudeMeters>
            <DistanceMeters>31653.800703676</DistanceMeters>
          </Trackpoint>
          <Trackpoint>
            <Time>2019-07-26T10:46:25.000Z</Time>
            <Position>
              <LatitudeDegrees>42.9420461319386959075927734375</LatitudeDegrees>
              <LongitudeDegrees>-7.8708815015852451324462890625</LongitudeDegrees>
            </Position>
            <AltitudeMeters>535.20001220703125</AltitudeMeters>
            <DistanceMeters>31661.933125202</DistanceMeters>
          </Trackpoint>
          <Trackpoint>
            <Time>2019-07-26T10:46:26.000Z</Time>
            <Position>
              <LatitudeDegrees>42.9420511610805988311767578125</LatitudeDegrees>
              <LongitudeDegrees>-7.870928607881069183349609375</LongitudeDegrees>
            </Position>
            <AltitudeMeters>535.20001220703125</AltitudeMeters>
            <DistanceMeters>31665.811798603</DistanceMeters>
          </Trackpoint>
          <Trackpoint>
            <Time>2019-07-26T10:46:29.000Z</Time>
            <Position>
              <LatitudeDegrees>42.94203917495906352996826171875</LatitudeDegrees>
              <LongitudeDegrees>-7.87110353820025920867919921875</LongitudeDegrees>
            </Position>
            <AltitudeMeters>535.79998779296875</AltitudeMeters>
            <DistanceMeters>31680.127124475</DistanceMeters>
          </Trackpoint>
          <Trackpoint>
            <Time>2019-07-26T10:46:32.000Z</Time>
            <Position>
              <LatitudeDegrees>42.9420260153710842132568359375</LatitudeDegrees>
              <LongitudeDegrees>-7.87127804942429065704345703125</LongitudeDegrees>
            </Position>
            <AltitudeMeters>536.5999755859375</AltitudeMeters>
            <DistanceMeters>31694.421618862</DistanceMeters>
          </Trackpoint>
          <Trackpoint>
            <Time>2019-07-26T10:46:33.000Z</Time>
            <Position>
              <LatitudeDegrees>42.9420203156769275665283203125</LatitudeDegrees>
              <LongitudeDegrees>-7.87133504636585712432861328125</LongitudeDegrees>
            </Position>
            <AltitudeMeters>536.79998779296875</AltitudeMeters>
            <DistanceMeters>31699.108854293</DistanceMeters>
          </Trackpoint>
          <Trackpoint>
            <Time>2019-07-26T10:46:38.000Z</Time>
            <Position>
              <LatitudeDegrees>42.94200447387993335723876953125</LatitudeDegrees>
              <LongitudeDegrees>-7.871608547866344451904296875</LongitudeDegrees>
            </Position>
            <AltitudeMeters>538</AltitudeMeters>
            <DistanceMeters>31721.462765364</DistanceMeters>
          </Trackpoint>
          <Trackpoint>
            <Time>2019-07-26T10:46:39.000Z</Time>
            <Position>
              <LatitudeDegrees>42.942008078098297119140625</LatitudeDegrees>
              <LongitudeDegrees>-7.871658168733119964599609375</LongitudeDegrees>
            </Position>
            <AltitudeMeters>538.20001220703125</AltitudeMeters>
            <DistanceMeters>31725.52453218</DistanceMeters>
          </Trackpoint>
          <Trackpoint>
            <Time>2019-07-26T10:46:44.000Z</Time>
            <Position>
              <LatitudeDegrees>42.94201369397342205047607421875</LatitudeDegrees>
              <LongitudeDegrees>-7.87190325558185577392578125</LongitudeDegrees>
            </Position>
            <AltitudeMeters>539</AltitudeMeters>
            <DistanceMeters>31745.503432777</DistanceMeters>
          </Trackpoint>
          <Trackpoint>
            <Time>2019-07-26T10:46:46.000Z</Time>
            <Position>
              <LatitudeDegrees>42.94201319105923175811767578125</LatitudeDegrees>
              <LongitudeDegrees>-7.871994785964488983154296875</LongitudeDegrees>
            </Position>
            <AltitudeMeters>539.4000244140625</AltitudeMeters>
            <DistanceMeters>31752.961667882</DistanceMeters>
          </Trackpoint>
          <Trackpoint>
            <Time>2019-07-26T10:46:51.000Z</Time>
            <Position>
              <LatitudeDegrees>42.94205275364220142364501953125</LatitudeDegrees>
              <LongitudeDegrees>-7.872230149805545806884765625</LongitudeDegrees>
            </Position>
            <AltitudeMeters>540</AltitudeMeters>
            <DistanceMeters>31772.637705781</DistanceMeters>
          </Trackpoint>
          <Trackpoint>
            <Time>2019-07-26T10:46:52.000Z</Time>
            <Position>
              <LatitudeDegrees>42.94206381775438785552978515625</LatitudeDegrees>
              <LongitudeDegrees>-7.87227968685328960418701171875</LongitudeDegrees>
            </Position>
            <AltitudeMeters>540.20001220703125</AltitudeMeters>
            <DistanceMeters>31776.857576721</DistanceMeters>
          </Trackpoint>
          <Trackpoint>
            <Time>2019-07-26T10:46:56.000Z</Time>
            <Position>
              <LatitudeDegrees>42.94211394153535366058349609375</LatitudeDegrees>
              <LongitudeDegrees>-7.8724650107324123382568359375</LongitudeDegrees>
            </Position>
            <AltitudeMeters>541.20001220703125</AltitudeMeters>
            <DistanceMeters>31792.955001162</DistanceMeters>
          </Trackpoint>
          <Trackpoint>
            <Time>2019-07-26T10:46:57.000Z</Time>
            <Position>
              <LatitudeDegrees>42.94213321991264820098876953125</LatitudeDegrees>
              <LongitudeDegrees>-7.8725039027631282806396484375</LongitudeDegrees>
            </Position>
            <AltitudeMeters>541.20001220703125</AltitudeMeters>
            <DistanceMeters>31796.782112865</DistanceMeters>
          </Trackpoint>
          <Trackpoint>
            <Time>2019-07-26T10:47:02.000Z</Time>
            <Position>
              <LatitudeDegrees>42.94220681302249431610107421875</LatitudeDegrees>
              <LongitudeDegrees>-7.8727218322455883026123046875</LongitudeDegrees>
            </Position>
            <AltitudeMeters>542.20001220703125</AltitudeMeters>
            <DistanceMeters>31816.336846745</DistanceMeters>
          </Trackpoint>
          <Trackpoint>
            <Time>2019-07-26T10:47:03.000Z</Time>
            <Position>
              <LatitudeDegrees>42.94222139753401279449462890625</LatitudeDegrees>
              <LongitudeDegrees>-7.8727617301046848297119140625</LongitudeDegrees>
            </Position>
            <AltitudeMeters>542.4000244140625</AltitudeMeters>
            <DistanceMeters>31819.970298514</DistanceMeters>
          </Trackpoint>
          <Trackpoint>
            <Time>2019-07-26T10:47:06.000Z</Time>
            <Position>
              <LatitudeDegrees>42.94229281134903430938720703125</LatitudeDegrees>
              <LongitudeDegrees>-7.872857116162776947021484375</LongitudeDegrees>
            </Position>
            <AltitudeMeters>543.20001220703125</AltitudeMeters>
            <DistanceMeters>31831.087205738</DistanceMeters>
          </Trackpoint>
          <Trackpoint>
            <Time>2019-07-26T10:47:08.000Z</Time>
            <Position>
              <LatitudeDegrees>42.9423462040722370147705078125</LatitudeDegrees>
              <LongitudeDegrees>-7.872889973223209381103515625</LongitudeDegrees>
            </Position>
            <AltitudeMeters>543.5999755859375</AltitudeMeters>
            <DistanceMeters>31837.606066048</DistanceMeters>
          </Trackpoint>
          <Trackpoint>
            <Time>2019-07-26T10:47:11.000Z</Time>
            <Position>
              <LatitudeDegrees>42.942424826323986053466796875</LatitudeDegrees>
              <LongitudeDegrees>-7.87292710505425930023193359375</LongitudeDegrees>
            </Position>
            <AltitudeMeters>544.4000244140625</AltitudeMeters>
            <DistanceMeters>31846.865686766</DistanceMeters>
          </Trackpoint>
          <Trackpoint>
            <Time>2019-07-26T10:47:15.000Z</Time>
            <Position>
              <LatitudeDegrees>42.942537479102611541748046875</LatitudeDegrees>
              <LongitudeDegrees>-7.87300036288797855377197265625</LongitudeDegrees>
            </Position>
            <AltitudeMeters>545.5999755859375</AltitudeMeters>
            <DistanceMeters>31860.752273188</DistanceMeters>
          </Trackpoint>
          <Trackpoint>
            <Time>2019-07-26T10:47:19.000Z</Time>
            <Position>
              <LatitudeDegrees>42.94264443218708038330078125</LatitudeDegrees>
              <LongitudeDegrees>-7.87312240339815616607666015625</LongitudeDegrees>
            </Position>
            <AltitudeMeters>546.5999755859375</AltitudeMeters>
            <DistanceMeters>31876.263474198</DistanceMeters>
          </Trackpoint>
          <Trackpoint>
            <Time>2019-07-26T10:47:23.000Z</Time>
            <Position>
              <LatitudeDegrees>42.94272917322814464569091796875</LatitudeDegrees>
              <LongitudeDegrees>-7.87325064651668071746826171875</LongitudeDegrees>
            </Position>
            <AltitudeMeters>547.4000244140625</AltitudeMeters>
            <DistanceMeters>31890.339622014</DistanceMeters>
          </Trackpoint>
          <Trackpoint>
            <Time>2019-07-26T10:47:26.000Z</Time>
            <Position>
              <LatitudeDegrees>42.94276907108724117279052734375</LatitudeDegrees>
              <LongitudeDegrees>-7.87333178333938121795654296875</LongitudeDegrees>
            </Position>
            <AltitudeMeters>547.5999755859375</AltitudeMeters>
            <DistanceMeters>31898.303178183</DistanceMeters>
          </Trackpoint>
          <Trackpoint>
            <Time>2019-07-26T10:47:29.000Z</Time>
            <Position>
              <LatitudeDegrees>42.94281181879341602325439453125</LatitudeDegrees>
              <LongitudeDegrees>-7.8734349645674228668212890625</LongitudeDegrees>
            </Position>
            <AltitudeMeters>548.20001220703125</AltitudeMeters>
            <DistanceMeters>31907.963240811</DistanceMeters>
          </Trackpoint>
          <Trackpoint>
            <Time>2019-07-26T10:47:31.000Z</Time>
            <Position>
              <LatitudeDegrees>42.94283931143581867218017578125</LatitudeDegrees>
              <LongitudeDegrees>-7.873514257371425628662109375</LongitudeDegrees>
            </Position>
            <AltitudeMeters>548.79998779296875</AltitudeMeters>
            <DistanceMeters>31915.111751327</DistanceMeters>
          </Trackpoint>
          <Trackpoint>
            <Time>2019-07-26T10:47:33.000Z</Time>
            <Position>
              <LatitudeDegrees>42.94285188429057598114013671875</LatitudeDegrees>
              <LongitudeDegrees>-7.8735751099884510040283203125</LongitudeDegrees>
            </Position>
            <AltitudeMeters>549.20001220703125</AltitudeMeters>
            <DistanceMeters>31920.262514823</DistanceMeters>
          </Trackpoint>
          <Trackpoint>
            <Time>2019-07-26T10:47:34.000Z</Time>
            <Position>
              <LatitudeDegrees>42.9428491182625293731689453125</LatitudeDegrees>
              <LongitudeDegrees>-7.87358391098678112030029296875</LongitudeDegrees>
            </Position>
            <AltitudeMeters>549.4000244140625</AltitudeMeters>
            <DistanceMeters>31921.046125184</DistanceMeters>
          </Trackpoint>
          <Trackpoint>
            <Time>2019-07-26T10:47:36.000Z</Time>
            <Position>
              <LatitudeDegrees>42.9428474418818950653076171875</LatitudeDegrees>
              <LongitudeDegrees>-7.873592376708984375</LongitudeDegrees>
            </Position>
            <AltitudeMeters>549.79998779296875</AltitudeMeters>
            <DistanceMeters>31921.75724</DistanceMeters>
          </Trackpoint>
          <Trackpoint>
            <Time>2019-07-26T10:47:43.000Z</Time>
            <Position>
              <LatitudeDegrees>42.94288021512329578399658203125</LatitudeDegrees>
              <LongitudeDegrees>-7.87367108277976512908935546875</LongitudeDegrees>
            </Position>
            <AltitudeMeters>550.79998779296875</AltitudeMeters>
            <DistanceMeters>31929.135132707</DistanceMeters>
          </Trackpoint>
          <Trackpoint>
            <Time>2019-07-26T10:47:44.000Z</Time>
            <Position>
              <LatitudeDegrees>42.94289161451160907745361328125</LatitudeDegrees>
              <LongitudeDegrees>-7.873691953718662261962890625</LongitudeDegrees>
            </Position>
            <AltitudeMeters>550.79998779296875</AltitudeMeters>
            <DistanceMeters>31931.255740655</DistanceMeters>
          </Trackpoint>
          <Trackpoint>
            <Time>2019-07-26T10:47:45.000Z</Time>
            <Position>
              <LatitudeDegrees>42.94290452264249324798583984375</LatitudeDegrees>
              <LongitudeDegrees>-7.87371232174336910247802734375</LongitudeDegrees>
            </Position>
            <AltitudeMeters>550.79998779296875</AltitudeMeters>
            <DistanceMeters>31933.449602717</DistanceMeters>
          </Trackpoint>
          <Trackpoint>
            <Time>2019-07-26T10:47:48.000Z</Time>
            <Position>
              <LatitudeDegrees>42.94294056482613086700439453125</LatitudeDegrees>
              <LongitudeDegrees>-7.87379563786089420318603515625</LongitudeDegrees>
            </Position>
            <AltitudeMeters>550.79998779296875</AltitudeMeters>
            <DistanceMeters>31941.333957239</DistanceMeters>
          </Trackpoint>
          <Trackpoint>
            <Time>2019-07-26T10:47:50.000Z</Time>
            <Position>
              <LatitudeDegrees>42.9429481923580169677734375</LatitudeDegrees>
              <LongitudeDegrees>-7.87386101670563220977783203125</LongitudeDegrees>
            </Position>
            <AltitudeMeters>550.79998779296875</AltitudeMeters>
            <DistanceMeters>31946.727926678</DistanceMeters>
          </Trackpoint>
          <Trackpoint>
            <Time>2019-07-26T10:47:55.000Z</Time>
            <Position>
              <LatitudeDegrees>42.94294794090092182159423828125</LatitudeDegrees>
              <LongitudeDegrees>-7.87399630062282085418701171875</LongitudeDegrees>
            </Position>
            <AltitudeMeters>551.79998779296875</AltitudeMeters>
            <DistanceMeters>31957.751025545</DistanceMeters>
          </Trackpoint>
          <Trackpoint>
            <Time>2019-07-26T10:47:58.000Z</Time>
            <Position>
              <LatitudeDegrees>42.942937798798084259033203125</LatitudeDegrees>
              <LongitudeDegrees>-7.874070815742015838623046875</LongitudeDegrees>
            </Position>
            <AltitudeMeters>552.4000244140625</AltitudeMeters>
            <DistanceMeters>31963.926299856</DistanceMeters>
          </Trackpoint>
          <Trackpoint>
            <Time>2019-07-26T10:47:59.000Z</Time>
            <Position>
              <LatitudeDegrees>42.942937798798084259033203125</LatitudeDegrees>
              <LongitudeDegrees>-7.8740914352238178253173828125</LongitudeDegrees>
            </Position>
            <AltitudeMeters>553</AltitudeMeters>
            <DistanceMeters>31965.604806291</DistanceMeters>
          </Trackpoint>
          <Trackpoint>
            <Time>2019-07-26T10:48:03.000Z</Time>
            <Position>
              <LatitudeDegrees>42.94293218292295932769775390625</LatitudeDegrees>
              <LongitudeDegrees>-7.87418422289192676544189453125</LongitudeDegrees>
            </Position>
            <AltitudeMeters>554.20001220703125</AltitudeMeters>
            <DistanceMeters>31973.190295537</DistanceMeters>
          </Trackpoint>
          <Trackpoint>
            <Time>2019-07-26T10:48:05.000Z</Time>
            <Position>
              <LatitudeDegrees>42.942923717200756072998046875</LatitudeDegrees>
              <LongitudeDegrees>-7.87422965280711650848388671875</LongitudeDegrees>
            </Position>
            <AltitudeMeters>554.5999755859375</AltitudeMeters>
            <DistanceMeters>31977.010322177</DistanceMeters>
          </Trackpoint>
          <Trackpoint>
            <Time>2019-07-26T10:48:09.000Z</Time>
            <Position>
              <LatitudeDegrees>42.94289547018706798553466796875</LatitudeDegrees>
              <LongitudeDegrees>-7.8743291459977626800537109375</LongitudeDegrees>
            </Position>
            <AltitudeMeters>555.20001220703125</AltitudeMeters>
            <DistanceMeters>31985.705136723</DistanceMeters>
          </Trackpoint>
          <Trackpoint>
            <Time>2019-07-26T10:48:10.000Z</Time>
            <Position>
              <LatitudeDegrees>42.942893207073211669921875</LatitudeDegrees>
              <LongitudeDegrees>-7.87435236386954784393310546875</LongitudeDegrees>
            </Position>
            <AltitudeMeters>555.4000244140625</AltitudeMeters>
            <DistanceMeters>31987.615150043</DistanceMeters>
          </Trackpoint>
          <Trackpoint>
            <Time>2019-07-26T10:48:14.000Z</Time>
            <Position>
              <LatitudeDegrees>42.94286563061177730560302734375</LatitudeDegrees>
              <LongitudeDegrees>-7.8744431398808956146240234375</LongitudeDegrees>
            </Position>
            <AltitudeMeters>556.4000244140625</AltitudeMeters>
            <DistanceMeters>31995.62280718</DistanceMeters>
          </Trackpoint>
          <Trackpoint>
            <Time>2019-07-26T10:48:15.000Z</Time>
            <Position>
              <LatitudeDegrees>42.9428655467927455902099609375</LatitudeDegrees>
              <LongitudeDegrees>-7.8744595684111118316650390625</LongitudeDegrees>
            </Position>
            <AltitudeMeters>556.5999755859375</AltitudeMeters>
            <DistanceMeters>31996.959951577</DistanceMeters>
          </Trackpoint>
          <Trackpoint>
            <Time>2019-07-26T10:48:17.000Z</Time>
            <Position>
              <LatitudeDegrees>42.942855991423130035400390625</LatitudeDegrees>
              <LongitudeDegrees>-7.8744984604418277740478515625</LongitudeDegrees>
            </Position>
            <AltitudeMeters>557</AltitudeMeters>
            <DistanceMeters>32000.303487824</DistanceMeters>
          </Trackpoint>
          <Trackpoint>
            <Time>2019-07-26T10:48:22.000Z</Time>
            <Position>
              <LatitudeDegrees>42.94279723428189754486083984375</LatitudeDegrees>
              <LongitudeDegrees>-7.8746546991169452667236328125</LongitudeDegrees>
            </Position>
            <AltitudeMeters>557.5999755859375</AltitudeMeters>
            <DistanceMeters>32014.614712923</DistanceMeters>
          </Trackpoint>
          <Trackpoint>
            <Time>2019-07-26T10:48:29.000Z</Time>
            <Position>
              <LatitudeDegrees>42.94271073304116725921630859375</LatitudeDegrees>
              <LongitudeDegrees>-7.8749182261526584625244140625</LongitudeDegrees>
            </Position>
            <AltitudeMeters>558.79998779296875</AltitudeMeters>
            <DistanceMeters>32038.145676086</DistanceMeters>
          </Trackpoint>
          <Trackpoint>
            <Time>2019-07-26T10:48:36.000Z</Time>
            <Position>
              <LatitudeDegrees>42.942660860717296600341796875</LatitudeDegrees>
              <LongitudeDegrees>-7.875241935253143310546875</LongitudeDegrees>
            </Position>
            <AltitudeMeters>560</AltitudeMeters>
            <DistanceMeters>32065.098441988</DistanceMeters>
          </Trackpoint>
          <Trackpoint>
            <Time>2019-07-26T10:48:43.000Z</Time>
            <Position>
              <LatitudeDegrees>42.94260059483349323272705078125</LatitudeDegrees>
              <LongitudeDegrees>-7.8755892813205718994140625</LongitudeDegrees>
            </Position>
            <AltitudeMeters>560.4000244140625</AltitudeMeters>
            <DistanceMeters>32094.183137295</DistanceMeters>
          </Trackpoint>
          <Trackpoint>
            <Time>2019-07-26T10:48:47.000Z</Time>
            <Position>
              <LatitudeDegrees>42.9425694979727268218994140625</LatitudeDegrees>
              <LongitudeDegrees>-7.87578332237899303436279296875</LongitudeDegrees>
            </Position>
            <AltitudeMeters>561.20001220703125</AltitudeMeters>
            <DistanceMeters>32110.367277598</DistanceMeters>
          </Trackpoint>
          <Trackpoint>
            <Time>2019-07-26T10:48:49.000Z</Time>
            <Position>
              <LatitudeDegrees>42.9425627924501895904541015625</LatitudeDegrees>
              <LongitudeDegrees>-7.875869907438755035400390625</LongitudeDegrees>
            </Position>
            <AltitudeMeters>561.5999755859375</AltitudeMeters>
            <DistanceMeters>32117.461898525</DistanceMeters>
          </Trackpoint>
          <Trackpoint>
            <Time>2019-07-26T10:48:53.000Z</Time>
            <Position>
              <LatitudeDegrees>42.9425493814051151275634765625</LatitudeDegrees>
              <LongitudeDegrees>-7.8760568238794803619384765625</LongitudeDegrees>
            </Position>
            <AltitudeMeters>562</AltitudeMeters>
            <DistanceMeters>32132.764445448</DistanceMeters>
          </Trackpoint>
          <Trackpoint>
            <Time>2019-07-26T10:48:55.000Z</Time>
            <Position>
              <LatitudeDegrees>42.9425409995019435882568359375</LatitudeDegrees>
              <LongitudeDegrees>-7.876144163310527801513671875</LongitudeDegrees>
            </Position>
            <AltitudeMeters>562.4000244140625</AltitudeMeters>
            <DistanceMeters>32139.94132193</DistanceMeters>
          </Trackpoint>
          <Trackpoint>
            <Time>2019-07-26T10:48:59.000Z</Time>
            <Position>
              <LatitudeDegrees>42.94252867810428142547607421875</LatitudeDegrees>
              <LongitudeDegrees>-7.87629059515893459320068359375</LongitudeDegrees>
            </Position>
            <AltitudeMeters>562.79998779296875</AltitudeMeters>
            <DistanceMeters>32151.950458072</DistanceMeters>
          </Trackpoint>
          <Trackpoint>
            <Time>2019-07-26T10:49:01.000Z</Time>
            <Position>
              <LatitudeDegrees>42.9425324499607086181640625</LatitudeDegrees>
              <LongitudeDegrees>-7.876339294016361236572265625</LongitudeDegrees>
            </Position>
            <AltitudeMeters>563.20001220703125</AltitudeMeters>
            <DistanceMeters>32155.940448645</DistanceMeters>
          </Trackpoint>
          <Trackpoint>
            <Time>2019-07-26T10:49:05.000Z</Time>
            <Position>
              <LatitudeDegrees>42.94255315326154232025146484375</LatitudeDegrees>
              <LongitudeDegrees>-7.87641230039298534393310546875</LongitudeDegrees>
            </Position>
            <AltitudeMeters>564.20001220703125</AltitudeMeters>
            <DistanceMeters>32162.319282744</DistanceMeters>
          </Trackpoint>
          <Trackpoint>
            <Time>2019-07-26T10:49:08.000Z</Time>
            <Position>
              <LatitudeDegrees>42.9425574280321598052978515625</LatitudeDegrees>
              <LongitudeDegrees>-7.87648337893187999725341796875</LongitudeDegrees>
            </Position>
            <AltitudeMeters>565.4000244140625</AltitudeMeters>
            <DistanceMeters>32168.130692719</DistanceMeters>
          </Trackpoint>
          <Trackpoint>
            <Time>2019-07-26T10:49:12.000Z</Time>
            <Position>
              <LatitudeDegrees>42.9425403289496898651123046875</LatitudeDegrees>
              <LongitudeDegrees>-7.87660181522369384765625</LongitudeDegrees>
            </Position>
            <AltitudeMeters>566.79998779296875</AltitudeMeters>
            <DistanceMeters>32177.96630195</DistanceMeters>
          </Trackpoint>
          <Trackpoint>
            <Time>2019-07-26T10:49:16.000Z</Time>
            <Position>
              <LatitudeDegrees>42.9425145126879215240478515625</LatitudeDegrees>
              <LongitudeDegrees>-7.87675009109079837799072265625</LongitudeDegrees>
            </Position>
            <AltitudeMeters>567.5999755859375</AltitudeMeters>
            <DistanceMeters>32190.383933985</DistanceMeters>
          </Trackpoint>
          <Trackpoint>
            <Time>2019-07-26T10:49:17.000Z</Time>
            <Position>
              <LatitudeDegrees>42.94251090846955776214599609375</LatitudeDegrees>
              <LongitudeDegrees>-7.876781523227691650390625</LongitudeDegrees>
            </Position>
            <AltitudeMeters>567.79998779296875</AltitudeMeters>
            <DistanceMeters>32192.974174668</DistanceMeters>
          </Trackpoint>
          <Trackpoint>
            <Time>2019-07-26T10:49:21.000Z</Time>
            <Position>
              <LatitudeDegrees>42.94249431230127811431884765625</LatitudeDegrees>
              <LongitudeDegrees>-7.87691303528845310211181640625</LongitudeDegrees>
            </Position>
            <AltitudeMeters>569</AltitudeMeters>
            <DistanceMeters>32203.847572982</DistanceMeters>
          </Trackpoint>
          <Trackpoint>
            <Time>2019-07-26T10:49:22.000Z</Time>
            <Position>
              <LatitudeDegrees>42.9424900375306606292724609375</LatitudeDegrees>
              <LongitudeDegrees>-7.8769486583769321441650390625</LongitudeDegrees>
            </Position>
            <AltitudeMeters>569.4000244140625</AltitudeMeters>
            <DistanceMeters>32206.788799466</DistanceMeters>
          </Trackpoint>
          <Trackpoint>
            <Time>2019-07-26T10:49:25.000Z</Time>
            <Position>
              <LatitudeDegrees>42.9424776323139667510986328125</LatitudeDegrees>
              <LongitudeDegrees>-7.8770663402974605560302734375</LongitudeDegrees>
            </Position>
            <AltitudeMeters>570.20001220703125</AltitudeMeters>
            <DistanceMeters>32216.475932912</DistanceMeters>
          </Trackpoint>
          <Trackpoint>
            <Time>2019-07-26T10:49:30.000Z</Time>
            <Position>
              <LatitudeDegrees>42.94245558790862560272216796875</LatitudeDegrees>
              <LongitudeDegrees>-7.87732324562966823577880859375</LongitudeDegrees>
            </Position>
            <AltitudeMeters>571</AltitudeMeters>
            <DistanceMeters>32237.551307171</DistanceMeters>
          </Trackpoint>
          <Trackpoint>
            <Time>2019-07-26T10:49:32.000Z</Time>
            <Position>
              <LatitudeDegrees>42.942453324794769287109375</LatitudeDegrees>
              <LongitudeDegrees>-7.87742299027740955352783203125</LongitudeDegrees>
            </Position>
            <AltitudeMeters>571.20001220703125</AltitudeMeters>
            <DistanceMeters>32245.682618241</DistanceMeters>
          </Trackpoint>
          <Trackpoint>
            <Time>2019-07-26T10:49:36.000Z</Time>
            <Position>
              <LatitudeDegrees>42.9424410872161388397216796875</LatitudeDegrees>
              <LongitudeDegrees>-7.877636142075061798095703125</LongitudeDegrees>
            </Position>
            <AltitudeMeters>571.5999755859375</AltitudeMeters>
            <DistanceMeters>32263.102857877</DistanceMeters>
          </Trackpoint>
          <Trackpoint>
            <Time>2019-07-26T10:49:38.000Z</Time>
            <Position>
              <LatitudeDegrees>42.942425496876239776611328125</LatitudeDegrees>
              <LongitudeDegrees>-7.87775122560560703277587890625</LongitudeDegrees>
            </Position>
            <AltitudeMeters>571.79998779296875</AltitudeMeters>
            <DistanceMeters>32272.638730663</DistanceMeters>
          </Trackpoint>
          <Trackpoint>
            <Time>2019-07-26T10:49:42.000Z</Time>
            <Position>
              <LatitudeDegrees>42.94239406473934650421142578125</LatitudeDegrees>
              <LongitudeDegrees>-7.87796814925968647003173828125</LongitudeDegrees>
            </Position>
            <AltitudeMeters>572</AltitudeMeters>
            <DistanceMeters>32290.656256802</DistanceMeters>
          </Trackpoint>
          <Trackpoint>
            <Time>2019-07-26T10:49:45.000Z</Time>
            <Position>
              <LatitudeDegrees>42.94236858375370502471923828125</LatitudeDegrees>
              <LongitudeDegrees>-7.8781325183808803558349609375</LongitudeDegrees>
            </Position>
            <AltitudeMeters>572.20001220703125</AltitudeMeters>
            <DistanceMeters>32304.346041552</DistanceMeters>
          </Trackpoint>
          <Trackpoint>
            <Time>2019-07-26T10:49:46.000Z</Time>
            <Position>
              <LatitudeDegrees>42.942357100546360015869140625</LatitudeDegrees>
              <LongitudeDegrees>-7.87818557582795619964599609375</LongitudeDegrees>
            </Position>
            <AltitudeMeters>572.4000244140625</AltitudeMeters>
            <DistanceMeters>32308.85455595</DistanceMeters>
          </Trackpoint>
          <Trackpoint>
            <Time>2019-07-26T10:49:52.000Z</Time>
            <Position>
              <LatitudeDegrees>42.9422741197049617767333984375</LatitudeDegrees>
              <LongitudeDegrees>-7.878492437303066253662109375</LongitudeDegrees>
            </Position>
            <AltitudeMeters>572.79998779296875</AltitudeMeters>
            <DistanceMeters>32335.508321239</DistanceMeters>
          </Trackpoint>
          <Trackpoint>
            <Time>2019-07-26T10:49:57.000Z</Time>
            <Position>
              <LatitudeDegrees>42.94224604032933712005615234375</LatitudeDegrees>
              <LongitudeDegrees>-7.87880147807300090789794921875</LongitudeDegrees>
            </Position>
            <AltitudeMeters>573.20001220703125</AltitudeMeters>
            <DistanceMeters>32360.881699614</DistanceMeters>
          </Trackpoint>
          <Trackpoint>
            <Time>2019-07-26T10:49:58.000Z</Time>
            <Position>
              <LatitudeDegrees>42.942243106663227081298828125</LatitudeDegrees>
              <LongitudeDegrees>-7.87887926213443279266357421875</LongitudeDegrees>
            </Position>
            <AltitudeMeters>573.4000244140625</AltitudeMeters>
            <DistanceMeters>32367.227890672</DistanceMeters>
          </Trackpoint>
          <Trackpoint>
            <Time>2019-07-26T10:50:03.000Z</Time>
            <Position>
              <LatitudeDegrees>42.94223732315003871917724609375</LatitudeDegrees>
              <LongitudeDegrees>-7.8792617283761501312255859375</LongitudeDegrees>
            </Position>
            <AltitudeMeters>573.5999755859375</AltitudeMeters>
            <DistanceMeters>32398.396942699</DistanceMeters>
          </Trackpoint>
          <Trackpoint>
            <Time>2019-07-26T10:50:04.000Z</Time>
            <Position>
              <LatitudeDegrees>42.942235060036182403564453125</LatitudeDegrees>
              <LongitudeDegrees>-7.879342697560787200927734375</LongitudeDegrees>
            </Position>
            <AltitudeMeters>573.5999755859375</AltitudeMeters>
            <DistanceMeters>32404.999077126</DistanceMeters>
          </Trackpoint>
          <Trackpoint>
            <Time>2019-07-26T10:50:06.000Z</Time>
            <Position>
              <LatitudeDegrees>42.942241095006465911865234375</LatitudeDegrees>
              <LongitudeDegrees>-7.87950329482555389404296875</LongitudeDegrees>
            </Position>
            <AltitudeMeters>573.5999755859375</AltitudeMeters>
            <DistanceMeters>32418.101741487</DistanceMeters>
          </Trackpoint>
          <Trackpoint>
            <Time>2019-07-26T10:50:09.000Z</Time>
            <Position>
              <LatitudeDegrees>42.94225526042282581329345703125</LatitudeDegrees>
              <LongitudeDegrees>-7.87971342913806438446044921875</LongitudeDegrees>
            </Position>
            <AltitudeMeters>573.5999755859375</AltitudeMeters>
            <DistanceMeters>32435.295538119</DistanceMeters>
          </Trackpoint>
          <Trackpoint>
            <Time>2019-07-26T10:50:14.000Z</Time>
            <Position>
              <LatitudeDegrees>42.94227805919945240020751953125</LatitudeDegrees>
              <LongitudeDegrees>-7.8800311870872974395751953125</LongitudeDegrees>
            </Position>
            <AltitudeMeters>573</AltitudeMeters>
            <DistanceMeters>32461.30995814</DistanceMeters>
          </Trackpoint>
          <Trackpoint>
            <Time>2019-07-26T10:50:17.000Z</Time>
            <Position>
              <LatitudeDegrees>42.94228258542716503143310546875</LatitudeDegrees>
              <LongitudeDegrees>-7.88021818734705448150634765625</LongitudeDegrees>
            </Position>
            <AltitudeMeters>572.79998779296875</AltitudeMeters>
            <DistanceMeters>32476.554565297</DistanceMeters>
          </Trackpoint>
          <Trackpoint>
            <Time>2019-07-26T10:50:24.000Z</Time>
            <Position>
              <LatitudeDegrees>42.942266575992107391357421875</LatitudeDegrees>
              <LongitudeDegrees>-7.880646251142024993896484375</LongitudeDegrees>
            </Position>
            <AltitudeMeters>572.79998779296875</AltitudeMeters>
            <DistanceMeters>32511.477496941</DistanceMeters>
          </Trackpoint>
          <Trackpoint>
            <Time>2019-07-26T10:50:31.000Z</Time>
            <Position>
              <LatitudeDegrees>42.94227437116205692291259765625</LatitudeDegrees>
              <LongitudeDegrees>-7.8809853829443454742431640625</LongitudeDegrees>
            </Position>
            <AltitudeMeters>573.5999755859375</AltitudeMeters>
            <DistanceMeters>32539.122595778</DistanceMeters>
          </Trackpoint>
          <Trackpoint>
            <Time>2019-07-26T10:50:34.000Z</Time>
            <Position>
              <LatitudeDegrees>42.94231192208826541900634765625</LatitudeDegrees>
              <LongitudeDegrees>-7.8811255283653736114501953125</LongitudeDegrees>
            </Position>
            <AltitudeMeters>574.5999755859375</AltitudeMeters>
            <DistanceMeters>32551.281931353</DistanceMeters>
          </Trackpoint>
          <Trackpoint>
            <Time>2019-07-26T10:50:38.000Z</Time>
            <Position>
              <LatitudeDegrees>42.942359447479248046875</LatitudeDegrees>
              <LongitudeDegrees>-7.88129610009491443634033203125</LongitudeDegrees>
            </Position>
            <AltitudeMeters>575.5999755859375</AltitudeMeters>
            <DistanceMeters>32566.152018168</DistanceMeters>
          </Trackpoint>
          <Trackpoint>
            <Time>2019-07-26T10:50:39.000Z</Time>
            <Position>
              <LatitudeDegrees>42.9423780553042888641357421875</LatitudeDegrees>
              <LongitudeDegrees>-7.88132577203214168548583984375</LongitudeDegrees>
            </Position>
            <AltitudeMeters>575.79998779296875</AltitudeMeters>
            <DistanceMeters>32569.335058502</DistanceMeters>
          </Trackpoint>
          <Trackpoint>
            <Time>2019-07-26T10:50:45.000Z</Time>
            <Position>
              <LatitudeDegrees>42.9424270056188106536865234375</LatitudeDegrees>
              <LongitudeDegrees>-7.88156331516802310943603515625</LongitudeDegrees>
            </Position>
            <AltitudeMeters>576.5999755859375</AltitudeMeters>
            <DistanceMeters>32589.44168732</DistanceMeters>
          </Trackpoint>
          <Trackpoint>
            <Time>2019-07-26T10:50:46.000Z</Time>
            <Position>
              <LatitudeDegrees>42.94243521988391876220703125</LatitudeDegrees>
              <LongitudeDegrees>-7.8816120140254497528076171875</LongitudeDegrees>
            </Position>
            <AltitudeMeters>576.79998779296875</AltitudeMeters>
            <DistanceMeters>32593.515663326</DistanceMeters>
          </Trackpoint>
          <Trackpoint>
            <Time>2019-07-26T10:50:52.000Z</Time>
            <Position>
              <LatitudeDegrees>42.942501604557037353515625</LatitudeDegrees>
              <LongitudeDegrees>-7.88186724297702312469482421875</LongitudeDegrees>
            </Position>
            <AltitudeMeters>577.20001220703125</AltitudeMeters>
            <DistanceMeters>32615.584582036</DistanceMeters>
          </Trackpoint>
          <Trackpoint>
            <Time>2019-07-26T10:50:57.000Z</Time>
            <Position>
              <LatitudeDegrees>42.94260847382247447967529296875</LatitudeDegrees>
              <LongitudeDegrees>-7.88203437812626361846923828125</LongitudeDegrees>
            </Position>
            <AltitudeMeters>577.79998779296875</AltitudeMeters>
            <DistanceMeters>32633.665646373</DistanceMeters>
          </Trackpoint>
          <Trackpoint>
            <Time>2019-07-26T10:50:58.000Z</Time>
            <Position>
              <LatitudeDegrees>42.9426268301904201507568359375</LatitudeDegrees>
              <LongitudeDegrees>-7.882073856890201568603515625</LongitudeDegrees>
            </Position>
            <AltitudeMeters>577.79998779296875</AltitudeMeters>
            <DistanceMeters>32637.476205771</DistanceMeters>
          </Trackpoint>
          <Trackpoint>
            <Time>2019-07-26T10:51:03.000Z</Time>
            <Position>
              <LatitudeDegrees>42.94267804361879825592041015625</LatitudeDegrees>
              <LongitudeDegrees>-7.88227728568017482757568359375</LongitudeDegrees>
            </Position>
            <AltitudeMeters>578.20001220703125</AltitudeMeters>
            <DistanceMeters>32655.003934111</DistanceMeters>
          </Trackpoint>
          <Trackpoint>
            <Time>2019-07-26T10:51:07.000Z</Time>
            <Position>
              <LatitudeDegrees>42.942688353359699249267578125</LatitudeDegrees>
              <LongitudeDegrees>-7.88245062343776226043701171875</LongitudeDegrees>
            </Position>
            <AltitudeMeters>579</AltitudeMeters>
            <DistanceMeters>32669.173433738</DistanceMeters>
          </Trackpoint>
          <Trackpoint>
            <Time>2019-07-26T10:51:09.000Z</Time>
            <Position>
              <LatitudeDegrees>42.94267502613365650177001953125</LatitudeDegrees>
              <LongitudeDegrees>-7.882535867393016815185546875</LongitudeDegrees>
            </Position>
            <AltitudeMeters>579.4000244140625</AltitudeMeters>
            <DistanceMeters>32676.275687395</DistanceMeters>
          </Trackpoint>
          <Trackpoint>
            <Time>2019-07-26T10:51:13.000Z</Time>
            <Position>
              <LatitudeDegrees>42.94264904223382472991943359375</LatitudeDegrees>
              <LongitudeDegrees>-7.8827194310724735260009765625</LongitudeDegrees>
            </Position>
            <AltitudeMeters>580.20001220703125</AltitudeMeters>
            <DistanceMeters>32691.508739433</DistanceMeters>
          </Trackpoint>
          <Trackpoint>
            <Time>2019-07-26T10:51:16.000Z</Time>
            <Position>
              <LatitudeDegrees>42.94262875802814960479736328125</LatitudeDegrees>
              <LongitudeDegrees>-7.88287089206278324127197265625</LongitudeDegrees>
            </Position>
            <AltitudeMeters>580.4000244140625</AltitudeMeters>
            <DistanceMeters>32704.054065349</DistanceMeters>
          </Trackpoint>
          <Trackpoint>
            <Time>2019-07-26T10:51:21.000Z</Time>
            <Position>
              <LatitudeDegrees>42.94261048547923564910888671875</LatitudeDegrees>
              <LongitudeDegrees>-7.8831137157976627349853515625</LongitudeDegrees>
            </Position>
            <AltitudeMeters>581.4000244140625</AltitudeMeters>
            <DistanceMeters>32723.942591402</DistanceMeters>
          </Trackpoint>
          <Trackpoint>
            <Time>2019-07-26T10:51:22.000Z</Time>
            <Position>
              <LatitudeDegrees>42.9426070488989353179931640625</LatitudeDegrees>
              <LongitudeDegrees>-7.88316040299832820892333984375</LongitudeDegrees>
            </Position>
            <AltitudeMeters>581.5999755859375</AltitudeMeters>
            <DistanceMeters>32727.764981189</DistanceMeters>
          </Trackpoint>
          <Trackpoint>
            <Time>2019-07-26T10:51:24.000Z</Time>
            <Position>
              <LatitudeDegrees>42.94260679744184017181396484375</LatitudeDegrees>
              <LongitudeDegrees>-7.883241288363933563232421875</LongitudeDegrees>
            </Position>
            <AltitudeMeters>582</AltitudeMeters>
            <DistanceMeters>32734.355479478</DistanceMeters>
          </Trackpoint>
          <Trackpoint>
            <Time>2019-07-26T10:51:27.000Z</Time>
            <Position>
              <LatitudeDegrees>42.94258140027523040771484375</LatitudeDegrees>
              <LongitudeDegrees>-7.88337481208145618438720703125</LongitudeDegrees>
            </Position>
            <AltitudeMeters>582.20001220703125</AltitudeMeters>
            <DistanceMeters>32745.595979004</DistanceMeters>
          </Trackpoint>
          <Trackpoint>
            <Time>2019-07-26T10:51:31.000Z</Time>
            <Position>
              <LatitudeDegrees>42.94253588654100894927978515625</LatitudeDegrees>
              <LongitudeDegrees>-7.8835244290530681610107421875</LongitudeDegrees>
            </Position>
            <AltitudeMeters>582.5999755859375</AltitudeMeters>
            <DistanceMeters>32758.796828038</DistanceMeters>
          </Trackpoint>
          <Trackpoint>
            <Time>2019-07-26T10:51:33.000Z</Time>
            <Position>
              <LatitudeDegrees>42.9425322823226451873779296875</LatitudeDegrees>
              <LongitudeDegrees>-7.88359592668712139129638671875</LongitudeDegrees>
            </Position>
            <AltitudeMeters>583</AltitudeMeters>
            <DistanceMeters>32764.636140382</DistanceMeters>
          </Trackpoint>
          <Trackpoint>
            <Time>2019-07-26T10:51:36.000Z</Time>
            <Position>
              <LatitudeDegrees>42.942514009773731231689453125</LatitudeDegrees>
              <LongitudeDegrees>-7.88372433744370937347412109375</LongitudeDegrees>
            </Position>
            <AltitudeMeters>583.4000244140625</AltitudeMeters>
            <DistanceMeters>32775.2943936</DistanceMeters>
          </Trackpoint>
          <Trackpoint>
            <Time>2019-07-26T10:51:37.000Z</Time>
            <Position>
              <LatitudeDegrees>42.94249246828258037567138671875</LatitudeDegrees>
              <LongitudeDegrees>-7.883775047957897186279296875</LongitudeDegrees>
            </Position>
            <AltitudeMeters>583.79998779296875</AltitudeMeters>
            <DistanceMeters>32780.070372359</DistanceMeters>
          </Trackpoint>
          <Trackpoint>
            <Time>2019-07-26T10:51:38.000Z</Time>
            <Position>
              <LatitudeDegrees>42.942467071115970611572265625</LatitudeDegrees>
              <LongitudeDegrees>-7.883828021585941314697265625</LongitudeDegrees>
            </Position>
            <AltitudeMeters>583.79998779296875</AltitudeMeters>
            <DistanceMeters>32785.229894173</DistanceMeters>
          </Trackpoint>
          <Trackpoint>
            <Time>2019-07-26T10:51:41.000Z</Time>
            <Position>
              <LatitudeDegrees>42.94238870032131671905517578125</LatitudeDegrees>
              <LongitudeDegrees>-7.8840125910937786102294921875</LongitudeDegrees>
            </Position>
            <AltitudeMeters>584</AltitudeMeters>
            <DistanceMeters>32802.614849122</DistanceMeters>
          </Trackpoint>
          <Trackpoint>
            <Time>2019-07-26T10:51:42.000Z</Time>
            <Position>
              <LatitudeDegrees>42.9423676617443561553955078125</LatitudeDegrees>
              <LongitudeDegrees>-7.8840809874236583709716796875</LongitudeDegrees>
            </Position>
            <AltitudeMeters>584</AltitudeMeters>
            <DistanceMeters>32808.659325054</DistanceMeters>
          </Trackpoint>
          <Trackpoint>
            <Time>2019-07-26T10:51:43.000Z</Time>
            <Position>
              <LatitudeDegrees>42.94235735200345516204833984375</LatitudeDegrees>
              <LongitudeDegrees>-7.8841487132012844085693359375</LongitudeDegrees>
            </Position>
            <AltitudeMeters>584</AltitudeMeters>
            <DistanceMeters>32814.295618955</DistanceMeters>
          </Trackpoint>
          <Trackpoint>
            <Time>2019-07-26T10:51:46.000Z</Time>
            <Position>
              <LatitudeDegrees>42.9423824138939380645751953125</LatitudeDegrees>
              <LongitudeDegrees>-7.8843656368553638458251953125</LongitudeDegrees>
            </Position>
            <AltitudeMeters>584</AltitudeMeters>
            <DistanceMeters>32832.188924697</DistanceMeters>
          </Trackpoint>
          <Trackpoint>
            <Time>2019-07-26T10:51:47.000Z</Time>
            <Position>
              <LatitudeDegrees>42.94240294955670833587646484375</LatitudeDegrees>
              <LongitudeDegrees>-7.884443588554859161376953125</LongitudeDegrees>
            </Position>
            <AltitudeMeters>584</AltitudeMeters>
            <DistanceMeters>32838.939166599</DistanceMeters>
          </Trackpoint>
          <Trackpoint>
            <Time>2019-07-26T10:51:50.000Z</Time>
            <Position>
              <LatitudeDegrees>42.94252700172364711761474609375</LatitudeDegrees>
              <LongitudeDegrees>-7.88462874479591846466064453125</LongitudeDegrees>
            </Position>
            <AltitudeMeters>583.79998779296875</AltitudeMeters>
            <DistanceMeters>32859.389789829</DistanceMeters>
          </Trackpoint>
          <Trackpoint>
            <Time>2019-07-26T10:51:52.000Z</Time>
            <Position>
              <LatitudeDegrees>42.94264845550060272216796875</LatitudeDegrees>
              <LongitudeDegrees>-7.88475774228572845458984375</LongitudeDegrees>
            </Position>
            <AltitudeMeters>583.20001220703125</AltitudeMeters>
            <DistanceMeters>32876.512802183</DistanceMeters>
          </Trackpoint>
          <Trackpoint>
            <Time>2019-07-26T10:51:53.000Z</Time>
            <Position>
              <LatitudeDegrees>42.94270503334701061248779296875</LatitudeDegrees>
              <LongitudeDegrees>-7.88482471369206905364990234375</LongitudeDegrees>
            </Position>
            <AltitudeMeters>582.79998779296875</AltitudeMeters>
            <DistanceMeters>32884.844862414</DistanceMeters>
          </Trackpoint>
          <Trackpoint>
            <Time>2019-07-26T10:51:54.000Z</Time>
            <Position>
              <LatitudeDegrees>42.9427388124167919158935546875</LatitudeDegrees>
              <LongitudeDegrees>-7.88491389714181423187255859375</LongitudeDegrees>
            </Position>
            <AltitudeMeters>582.5999755859375</AltitudeMeters>
            <DistanceMeters>32893.025994769</DistanceMeters>
          </Trackpoint>
          <Trackpoint>
            <Time>2019-07-26T10:51:55.000Z</Time>
            <Position>
              <LatitudeDegrees>42.94275515712797641754150390625</LatitudeDegrees>
              <LongitudeDegrees>-7.885016910731792449951171875</LongitudeDegrees>
            </Position>
            <AltitudeMeters>582.4000244140625</AltitudeMeters>
            <DistanceMeters>32901.613697274</DistanceMeters>
          </Trackpoint>
          <Trackpoint>
            <Time>2019-07-26T10:51:57.000Z</Time>
            <Position>
              <LatitudeDegrees>42.9427948035299777984619140625</LatitudeDegrees>
              <LongitudeDegrees>-7.8852289728820323944091796875</LongitudeDegrees>
            </Position>
            <AltitudeMeters>581.4000244140625</AltitudeMeters>
            <DistanceMeters>32919.446340714</DistanceMeters>
          </Trackpoint>
          <Trackpoint>
            <Time>2019-07-26T10:51:59.000Z</Time>
            <Position>
              <LatitudeDegrees>42.942860014736652374267578125</LatitudeDegrees>
              <LongitudeDegrees>-7.88543902337551116943359375</LongitudeDegrees>
            </Position>
            <AltitudeMeters>580.20001220703125</AltitudeMeters>
            <DistanceMeters>32938.036150436</DistanceMeters>
          </Trackpoint>
          <Trackpoint>
            <Time>2019-07-26T10:52:01.000Z</Time>
            <Position>
              <LatitudeDegrees>42.9429508745670318603515625</LatitudeDegrees>
              <LongitudeDegrees>-7.885644547641277313232421875</LongitudeDegrees>
            </Position>
            <AltitudeMeters>578.79998779296875</AltitudeMeters>
            <DistanceMeters>32957.598271475</DistanceMeters>
          </Trackpoint>
          <Trackpoint>
            <Time>2019-07-26T10:52:03.000Z</Time>
            <Position>
              <LatitudeDegrees>42.943046428263187408447265625</LatitudeDegrees>
              <LongitudeDegrees>-7.8858488984405994415283203125</LongitudeDegrees>
            </Position>
            <AltitudeMeters>577.4000244140625</AltitudeMeters>
            <DistanceMeters>32977.354917301</DistanceMeters>
          </Trackpoint>
          <Trackpoint>
            <Time>2019-07-26T10:52:04.000Z</Time>
            <Position>
              <LatitudeDegrees>42.9430921934545040130615234375</LatitudeDegrees>
              <LongitudeDegrees>-7.885953672230243682861328125</LongitudeDegrees>
            </Position>
            <AltitudeMeters>577</AltitudeMeters>
            <DistanceMeters>32987.296001578</DistanceMeters>
          </Trackpoint>
          <Trackpoint>
            <Time>2019-07-26T10:52:05.000Z</Time>
            <Position>
              <LatitudeDegrees>42.94313753955066204071044921875</LatitudeDegrees>
              <LongitudeDegrees>-7.8860587812960147857666015625</LongitudeDegrees>
            </Position>
            <AltitudeMeters>576.20001220703125</AltitudeMeters>
            <DistanceMeters>32997.236177454</DistanceMeters>
          </Trackpoint>
          <Trackpoint>
            <Time>2019-07-26T10:52:06.000Z</Time>
            <Position>
              <LatitudeDegrees>42.94316947460174560546875</LatitudeDegrees>
              <LongitudeDegrees>-7.88616145960986614227294921875</LongitudeDegrees>
            </Position>
            <AltitudeMeters>575.79998779296875</AltitudeMeters>
            <DistanceMeters>33006.325024428</DistanceMeters>
          </Trackpoint>
          <Trackpoint>
            <Time>2019-07-26T10:52:08.000Z</Time>
            <Position>
              <LatitudeDegrees>42.94322186149656772613525390625</LatitudeDegrees>
              <LongitudeDegrees>-7.8863300196826457977294921875</LongitudeDegrees>
            </Position>
            <AltitudeMeters>574.5999755859375</AltitudeMeters>
            <DistanceMeters>33021.245126455</DistanceMeters>
          </Trackpoint>
          <Trackpoint>
            <Time>2019-07-26T10:52:09.000Z</Time>
            <Position>
              <LatitudeDegrees>42.94324717484414577484130859375</LatitudeDegrees>
              <LongitudeDegrees>-7.88640034385025501251220703125</LongitudeDegrees>
            </Position>
            <AltitudeMeters>573.79998779296875</AltitudeMeters>
            <DistanceMeters>33027.631034786</DistanceMeters>
          </Trackpoint>
          <Trackpoint>
            <Time>2019-07-26T10:52:10.000Z</Time>
            <Position>
              <LatitudeDegrees>42.94327919371426105499267578125</LatitudeDegrees>
              <LongitudeDegrees>-7.88643739186227321624755859375</LongitudeDegrees>
            </Position>
            <AltitudeMeters>573.20001220703125</AltitudeMeters>
            <DistanceMeters>33032.30186605</DistanceMeters>
          </Trackpoint>
          <Trackpoint>
            <Time>2019-07-26T10:52:11.000Z</Time>
            <Position>
              <LatitudeDegrees>42.94330920092761516571044921875</LatitudeDegrees>
              <LongitudeDegrees>-7.886465974152088165283203125</LongitudeDegrees>
            </Position>
            <AltitudeMeters>572.79998779296875</AltitudeMeters>
            <DistanceMeters>33036.373624926</DistanceMeters>
          </Trackpoint>
          <Trackpoint>
            <Time>2019-07-26T10:52:12.000Z</Time>
            <Position>
              <LatitudeDegrees>42.94333132915198802947998046875</LatitudeDegrees>
              <LongitudeDegrees>-7.88648617453873157501220703125</LongitudeDegrees>
            </Position>
            <AltitudeMeters>572.5999755859375</AltitudeMeters>
            <DistanceMeters>33039.334740295</DistanceMeters>
          </Trackpoint>
          <Trackpoint>
            <Time>2019-07-26T10:52:14.000Z</Time>
            <Position>
              <LatitudeDegrees>42.94337374158203601837158203125</LatitudeDegrees>
              <LongitudeDegrees>-7.88651903159916400909423828125</LongitudeDegrees>
            </Position>
            <AltitudeMeters>572.4000244140625</AltitudeMeters>
            <DistanceMeters>33044.762088576</DistanceMeters>
          </Trackpoint>
          <Trackpoint>
            <Time>2019-07-26T10:52:15.000Z</Time>
            <Position>
              <LatitudeDegrees>42.94339335523545742034912109375</LatitudeDegrees>
              <LongitudeDegrees>-7.8865325264632701873779296875</LongitudeDegrees>
            </Position>
            <AltitudeMeters>572.4000244140625</AltitudeMeters>
            <DistanceMeters>33047.207065182</DistanceMeters>
          </Trackpoint>
          <Trackpoint>
            <Time>2019-07-26T10:52:18.000Z</Time>
            <Position>
              <LatitudeDegrees>42.9434576444327831268310546875</LatitudeDegrees>
              <LongitudeDegrees>-7.88655725307762622833251953125</LongitudeDegrees>
            </Position>
            <AltitudeMeters>572.4000244140625</AltitudeMeters>
            <DistanceMeters>33054.641045801</DistanceMeters>
          </Trackpoint>
          <Trackpoint>
            <Time>2019-07-26T10:52:21.000Z</Time>
            <Position>
              <LatitudeDegrees>42.9435049183666706085205078125</LatitudeDegrees>
              <LongitudeDegrees>-7.88659715093672275543212890625</LongitudeDegrees>
            </Position>
            <AltitudeMeters>572.4000244140625</AltitudeMeters>
            <DistanceMeters>33060.82581773</DistanceMeters>
          </Trackpoint>
          <Trackpoint>
            <Time>2019-07-26T10:52:22.000Z</Time>
            <Position>
              <LatitudeDegrees>42.94351824559271335601806640625</LatitudeDegrees>
              <LongitudeDegrees>-7.886612154543399810791015625</LongitudeDegrees>
            </Position>
            <AltitudeMeters>572.79998779296875</AltitudeMeters>
            <DistanceMeters>33062.749962044</DistanceMeters>
          </Trackpoint>
          <Trackpoint>
            <Time>2019-07-26T10:52:26.000Z</Time>
            <Position>
              <LatitudeDegrees>42.9435615800321102142333984375</LatitudeDegrees>
              <LongitudeDegrees>-7.88669563829898834228515625</LongitudeDegrees>
            </Position>
            <AltitudeMeters>573.4000244140625</AltitudeMeters>
            <DistanceMeters>33071.088522389</DistanceMeters>
          </Trackpoint>
          <Trackpoint>
            <Time>2019-07-26T10:52:28.000Z</Time>
            <Position>
              <LatitudeDegrees>42.94357373379170894622802734375</LatitudeDegrees>
              <LongitudeDegrees>-7.8867474384605884552001953125</LongitudeDegrees>
            </Position>
            <AltitudeMeters>573.79998779296875</AltitudeMeters>
            <DistanceMeters>33075.520273314</DistanceMeters>
          </Trackpoint>
          <Trackpoint>
            <Time>2019-07-26T10:52:30.000Z</Time>
            <Position>
              <LatitudeDegrees>42.9435615800321102142333984375</LatitudeDegrees>
              <LongitudeDegrees>-7.8867943771183490753173828125</LongitudeDegrees>
            </Position>
            <AltitudeMeters>574</AltitudeMeters>
            <DistanceMeters>33079.576478349</DistanceMeters>
          </Trackpoint>
          <Trackpoint>
            <Time>2019-07-26T10:52:32.000Z</Time>
            <Position>
              <LatitudeDegrees>42.94353358447551727294921875</LatitudeDegrees>
              <LongitudeDegrees>-7.8868436627089977264404296875</LongitudeDegrees>
            </Position>
            <AltitudeMeters>574.4000244140625</AltitudeMeters>
            <DistanceMeters>33084.658408949</DistanceMeters>
          </Trackpoint>
          <Trackpoint>
            <Time>2019-07-26T10:52:33.000Z</Time>
            <Position>
              <LatitudeDegrees>42.9435267113149166107177734375</LatitudeDegrees>
              <LongitudeDegrees>-7.88686386309564113616943359375</LongitudeDegrees>
            </Position>
            <AltitudeMeters>574.5999755859375</AltitudeMeters>
            <DistanceMeters>33086.473891778</DistanceMeters>
          </Trackpoint>
          <Trackpoint>
            <Time>2019-07-26T10:52:36.000Z</Time>
            <Position>
              <LatitudeDegrees>42.94349829666316509246826171875</LatitudeDegrees>
              <LongitudeDegrees>-7.886935360729694366455078125</LongitudeDegrees>
            </Position>
            <AltitudeMeters>575.4000244140625</AltitudeMeters>
            <DistanceMeters>33093.101281296</DistanceMeters>
          </Trackpoint>
          <Trackpoint>
            <Time>2019-07-26T10:52:40.000Z</Time>
            <Position>
              <LatitudeDegrees>42.943456135690212249755859375</LatitudeDegrees>
              <LongitudeDegrees>-7.88703535683453083038330078125</LongitudeDegrees>
            </Position>
            <AltitudeMeters>576.4000244140625</AltitudeMeters>
            <DistanceMeters>33102.502684821</DistanceMeters>
          </Trackpoint>
          <Trackpoint>
            <Time>2019-07-26T10:52:44.000Z</Time>
            <Position>
              <LatitudeDegrees>42.94341933913528919219970703125</LatitudeDegrees>
              <LongitudeDegrees>-7.88711314089596271514892578125</LongitudeDegrees>
            </Position>
            <AltitudeMeters>577.79998779296875</AltitudeMeters>
            <DistanceMeters>33110.048787262</DistanceMeters>
          </Trackpoint>
          <Trackpoint>
            <Time>2019-07-26T10:52:46.000Z</Time>
            <Position>
              <LatitudeDegrees>42.94341833330690860748291015625</LatitudeDegrees>
              <LongitudeDegrees>-7.8871549665927886962890625</LongitudeDegrees>
            </Position>
            <AltitudeMeters>578.4000244140625</AltitudeMeters>
            <DistanceMeters>33113.459174111</DistanceMeters>
          </Trackpoint>
          <Trackpoint>
            <Time>2019-07-26T10:52:49.000Z</Time>
            <Position>
              <LatitudeDegrees>42.9434231109917163848876953125</LatitudeDegrees>
              <LongitudeDegrees>-7.88722411729395389556884765625</LongitudeDegrees>
            </Position>
            <AltitudeMeters>579</AltitudeMeters>
            <DistanceMeters>33119.11865122</DistanceMeters>
          </Trackpoint>
          <Trackpoint>
            <Time>2019-07-26T10:52:52.000Z</Time>
            <Position>
              <LatitudeDegrees>42.9434552974998950958251953125</LatitudeDegrees>
              <LongitudeDegrees>-7.88732059299945831298828125</LongitudeDegrees>
            </Position>
            <AltitudeMeters>579.5999755859375</AltitudeMeters>
            <DistanceMeters>33127.757201546</DistanceMeters>
          </Trackpoint>
          <Trackpoint>
            <Time>2019-07-26T10:52:54.000Z</Time>
            <Position>
              <LatitudeDegrees>42.9434807784855365753173828125</LatitudeDegrees>
              <LongitudeDegrees>-7.887391336262226104736328125</LongitudeDegrees>
            </Position>
            <AltitudeMeters>580.20001220703125</AltitudeMeters>
            <DistanceMeters>33134.181176122</DistanceMeters>
          </Trackpoint>
          <Trackpoint>
            <Time>2019-07-26T10:52:57.000Z</Time>
            <Position>
              <LatitudeDegrees>42.94351388700306415557861328125</LatitudeDegrees>
              <LongitudeDegrees>-7.8874733112752437591552734375</LongitudeDegrees>
            </Position>
            <AltitudeMeters>581</AltitudeMeters>
            <DistanceMeters>33141.809400857</DistanceMeters>
          </Trackpoint>
          <Trackpoint>
            <Time>2019-07-26T10:52:58.000Z</Time>
            <Position>
              <LatitudeDegrees>42.94352344237267971038818359375</LatitudeDegrees>
              <LongitudeDegrees>-7.887503318488597869873046875</LongitudeDegrees>
            </Position>
            <AltitudeMeters>581.20001220703125</AltitudeMeters>
            <DistanceMeters>33144.476927846</DistanceMeters>
          </Trackpoint>
          <Trackpoint>
            <Time>2019-07-26T10:52:59.000Z</Time>
            <Position>
              <LatitudeDegrees>42.94353735633194446563720703125</LatitudeDegrees>
              <LongitudeDegrees>-7.88753676228225231170654296875</LongitudeDegrees>
            </Position>
            <AltitudeMeters>581.20001220703125</AltitudeMeters>
            <DistanceMeters>33147.61280942</DistanceMeters>
          </Trackpoint>
          <Trackpoint>
            <Time>2019-07-26T10:53:04.000Z</Time>
            <Position>
              <LatitudeDegrees>42.943621762096881866455078125</LatitudeDegrees>
              <LongitudeDegrees>-7.88771026767790317535400390625</LongitudeDegrees>
            </Position>
            <AltitudeMeters>582</AltitudeMeters>
            <DistanceMeters>33164.58645337</DistanceMeters>
          </Trackpoint>
          <Trackpoint>
            <Time>2019-07-26T10:53:07.000Z</Time>
            <Position>
              <LatitudeDegrees>42.943680100142955780029296875</LatitudeDegrees>
              <LongitudeDegrees>-7.8878072462975978851318359375</LongitudeDegrees>
            </Position>
            <AltitudeMeters>582.20001220703125</AltitudeMeters>
            <DistanceMeters>33174.813199938</DistanceMeters>
          </Trackpoint>
          <Trackpoint>
            <Time>2019-07-26T10:53:12.000Z</Time>
            <Position>
              <LatitudeDegrees>42.9437627457082271575927734375</LatitudeDegrees>
              <LongitudeDegrees>-7.88795736618340015411376953125</LongitudeDegrees>
            </Position>
            <AltitudeMeters>582.79998779296875</AltitudeMeters>
            <DistanceMeters>33190.117222048</DistanceMeters>
          </Trackpoint>
          <Trackpoint>
            <Time>2019-07-26T10:53:17.000Z</Time>
            <Position>
              <LatitudeDegrees>42.94380188919603824615478515625</LatitudeDegrees>
              <LongitudeDegrees>-7.8880892135202884674072265625</LongitudeDegrees>
            </Position>
            <AltitudeMeters>583.20001220703125</AltitudeMeters>
            <DistanceMeters>33201.708923281</DistanceMeters>
          </Trackpoint>
          <Trackpoint>
            <Time>2019-07-26T10:53:18.000Z</Time>
            <Position>
              <LatitudeDegrees>42.9438016377389430999755859375</LatitudeDegrees>
              <LongitudeDegrees>-7.88812869228422641754150390625</LongitudeDegrees>
            </Position>
            <AltitudeMeters>583.20001220703125</AltitudeMeters>
            <DistanceMeters>33204.9258267</DistanceMeters>
          </Trackpoint>
          <Trackpoint>
            <Time>2019-07-26T10:53:22.000Z</Time>
            <Position>
              <LatitudeDegrees>42.94375754892826080322265625</LatitudeDegrees>
              <LongitudeDegrees>-7.88832415826618671417236328125</LongitudeDegrees>
            </Position>
            <AltitudeMeters>583.79998779296875</AltitudeMeters>
            <DistanceMeters>33221.590489041</DistanceMeters>
          </Trackpoint>
          <Trackpoint>
            <Time>2019-07-26T10:53:26.000Z</Time>
            <Position>
              <LatitudeDegrees>42.9437473230063915252685546875</LatitudeDegrees>
              <LongitudeDegrees>-7.88847218267619609832763671875</LongitudeDegrees>
            </Position>
            <AltitudeMeters>584.20001220703125</AltitudeMeters>
            <DistanceMeters>33233.704065814</DistanceMeters>
          </Trackpoint>
          <Trackpoint>
            <Time>2019-07-26T10:53:28.000Z</Time>
            <Position>
              <LatitudeDegrees>42.9437298886477947235107421875</LatitudeDegrees>
              <LongitudeDegrees>-7.88856723345816135406494140625</LongitudeDegrees>
            </Position>
            <AltitudeMeters>584.5999755859375</AltitudeMeters>
            <DistanceMeters>33241.687441011</DistanceMeters>
          </Trackpoint>
          <Trackpoint>
            <Time>2019-07-26T10:53:31.000Z</Time>
            <Position>
              <LatitudeDegrees>42.94371287338435649871826171875</LatitudeDegrees>
              <LongitudeDegrees>-7.8886963985860347747802734375</LongitudeDegrees>
            </Position>
            <AltitudeMeters>585.20001220703125</AltitudeMeters>
            <DistanceMeters>33252.380374562</DistanceMeters>
          </Trackpoint>
          <Trackpoint>
            <Time>2019-07-26T10:53:35.000Z</Time>
            <Position>
              <LatitudeDegrees>42.943708933889865875244140625</LatitudeDegrees>
              <LongitudeDegrees>-7.888851799070835113525390625</LongitudeDegrees>
            </Position>
            <AltitudeMeters>586.4000244140625</AltitudeMeters>
            <DistanceMeters>33265.049256862</DistanceMeters>
          </Trackpoint>
          <Trackpoint>
            <Time>2019-07-26T10:53:41.000Z</Time>
            <Position>
              <LatitudeDegrees>42.94367582537233829498291015625</LatitudeDegrees>
              <LongitudeDegrees>-7.88907014764845371246337890625</LongitudeDegrees>
            </Position>
            <AltitudeMeters>587.4000244140625</AltitudeMeters>
            <DistanceMeters>33283.217012754</DistanceMeters>
          </Trackpoint>
          <Trackpoint>
            <Time>2019-07-26T10:53:42.000Z</Time>
            <Position>
              <LatitudeDegrees>42.94367968104779720306396484375</LatitudeDegrees>
              <LongitudeDegrees>-7.88909881375730037689208984375</LongitudeDegrees>
            </Position>
            <AltitudeMeters>587.4000244140625</AltitudeMeters>
            <DistanceMeters>33285.590779319</DistanceMeters>
          </Trackpoint>
          <Trackpoint>
            <Time>2019-07-26T10:53:47.000Z</Time>
            <Position>
              <LatitudeDegrees>42.9436832852661609649658203125</LatitudeDegrees>
              <LongitudeDegrees>-7.88928589783608913421630859375</LongitudeDegrees>
            </Position>
            <AltitudeMeters>588</AltitudeMeters>
            <DistanceMeters>33300.838347916</DistanceMeters>
          </Trackpoint>
          <Trackpoint>
            <Time>2019-07-26T10:53:51.000Z</Time>
            <Position>
              <LatitudeDegrees>42.94368923641741275787353515625</LatitudeDegrees>
              <LongitudeDegrees>-7.88947197608649730682373046875</LongitudeDegrees>
            </Position>
            <AltitudeMeters>588.5999755859375</AltitudeMeters>
            <DistanceMeters>33316.013492379</DistanceMeters>
          </Trackpoint>
          <Trackpoint>
            <Time>2019-07-26T10:53:52.000Z</Time>
            <Position>
              <LatitudeDegrees>42.9436965286731719970703125</LatitudeDegrees>
              <LongitudeDegrees>-7.88950391113758087158203125</LongitudeDegrees>
            </Position>
            <AltitudeMeters>588.79998779296875</AltitudeMeters>
            <DistanceMeters>33318.741272243</DistanceMeters>
          </Trackpoint>
          <Trackpoint>
            <Time>2019-07-26T10:53:55.000Z</Time>
            <Position>
              <LatitudeDegrees>42.94369560666382312774658203125</LatitudeDegrees>
              <LongitudeDegrees>-7.889631651341915130615234375</LongitudeDegrees>
            </Position>
            <AltitudeMeters>589.20001220703125</AltitudeMeters>
            <DistanceMeters>33329.150059741</DistanceMeters>
          </Trackpoint>
          <Trackpoint>
            <Time>2019-07-26T10:53:56.000Z</Time>
            <Position>
              <LatitudeDegrees>42.94367549009621143341064453125</LatitudeDegrees>
              <LongitudeDegrees>-7.88968202657997608184814453125</LongitudeDegrees>
            </Position>
            <AltitudeMeters>589.20001220703125</AltitudeMeters>
            <DistanceMeters>33333.824755987</DistanceMeters>
          </Trackpoint>
          <Trackpoint>
            <Time>2019-07-26T10:54:02.000Z</Time>
            <Position>
              <LatitudeDegrees>42.94361581094563007354736328125</LatitudeDegrees>
              <LongitudeDegrees>-7.889909259974956512451171875</LongitudeDegrees>
            </Position>
            <AltitudeMeters>589.5999755859375</AltitudeMeters>
            <DistanceMeters>33353.494138163</DistanceMeters>
          </Trackpoint>
          <Trackpoint>
            <Time>2019-07-26T10:54:03.000Z</Time>
            <Position>
              <LatitudeDegrees>42.94360273517668247222900390625</LatitudeDegrees>
              <LongitudeDegrees>-7.88994186557829380035400390625</LongitudeDegrees>
            </Position>
            <AltitudeMeters>589.5999755859375</AltitudeMeters>
            <DistanceMeters>33356.523091392</DistanceMeters>
          </Trackpoint>
          <Trackpoint>
            <Time>2019-07-26T10:54:04.000Z</Time>
            <Position>
              <LatitudeDegrees>42.9435785114765167236328125</LatitudeDegrees>
              <LongitudeDegrees>-7.8899828530848026275634765625</LongitudeDegrees>
            </Position>
            <AltitudeMeters>589.5999755859375</AltitudeMeters>
            <DistanceMeters>33360.816153938</DistanceMeters>
          </Trackpoint>
          <Trackpoint>
            <Time>2019-07-26T10:54:06.000Z</Time>
            <Position>
              <LatitudeDegrees>42.94351187534630298614501953125</LatitudeDegrees>
              <LongitudeDegrees>-7.89004663936793804168701171875</LongitudeDegrees>
            </Position>
            <AltitudeMeters>589.5999755859375</AltitudeMeters>
            <DistanceMeters>33369.872653502</DistanceMeters>
          </Trackpoint>
          <Trackpoint>
            <Time>2019-07-26T10:54:07.000Z</Time>
            <Position>
              <LatitudeDegrees>42.94346862472593784332275390625</LatitudeDegrees>
              <LongitudeDegrees>-7.890069186687469482421875</LongitudeDegrees>
            </Position>
            <AltitudeMeters>589.5999755859375</AltitudeMeters>
            <DistanceMeters>33375.025169852</DistanceMeters>
          </Trackpoint>
          <Trackpoint>
            <Time>2019-07-26T10:54:10.000Z</Time>
            <Position>
              <LatitudeDegrees>42.94334138743579387664794921875</LatitudeDegrees>
              <LongitudeDegrees>-7.890170104801654815673828125</LongitudeDegrees>
            </Position>
            <AltitudeMeters>589.5999755859375</AltitudeMeters>
            <DistanceMeters>33391.400950144</DistanceMeters>
          </Trackpoint>
          <Trackpoint>
            <Time>2019-07-26T10:54:12.000Z</Time>
            <Position>
              <LatitudeDegrees>42.94324482791125774383544921875</LatitudeDegrees>
              <LongitudeDegrees>-7.89029692299664020538330078125</LongitudeDegrees>
            </Position>
            <AltitudeMeters>589.4000244140625</AltitudeMeters>
            <DistanceMeters>33406.309548388</DistanceMeters>
          </Trackpoint>
          <Trackpoint>
            <Time>2019-07-26T10:54:14.000Z</Time>
            <Position>
              <LatitudeDegrees>42.943152375519275665283203125</LatitudeDegrees>
              <LongitudeDegrees>-7.89041477255523204803466796875</LongitudeDegrees>
            </Position>
            <AltitudeMeters>589.4000244140625</AltitudeMeters>
            <DistanceMeters>33420.383771523</DistanceMeters>
          </Trackpoint>
          <Trackpoint>
            <Time>2019-07-26T10:54:16.000Z</Time>
            <Position>
              <LatitudeDegrees>42.94304810464382171630859375</LatitudeDegrees>
              <LongitudeDegrees>-7.890480570495128631591796875</LongitudeDegrees>
            </Position>
            <AltitudeMeters>589.20001220703125</AltitudeMeters>
            <DistanceMeters>33433.167602071</DistanceMeters>
          </Trackpoint>
          <Trackpoint>
            <Time>2019-07-26T10:54:17.000Z</Time>
            <Position>
              <LatitudeDegrees>42.94300493784248828887939453125</LatitudeDegrees>
              <LongitudeDegrees>-7.89049574173986911773681640625</LongitudeDegrees>
            </Position>
            <AltitudeMeters>589</AltitudeMeters>
            <DistanceMeters>33438.129052302</DistanceMeters>
          </Trackpoint>
          <Trackpoint>
            <Time>2019-07-26T10:54:19.000Z</Time>
            <Position>
              <LatitudeDegrees>42.942936457693576812744140625</LatitudeDegrees>
              <LongitudeDegrees>-7.890498004853725433349609375</LongitudeDegrees>
            </Position>
            <AltitudeMeters>588.79998779296875</AltitudeMeters>
            <DistanceMeters>33445.753724894</DistanceMeters>
          </Trackpoint>
          <Trackpoint>
            <Time>2019-07-26T10:54:20.000Z</Time>
            <Position>
              <LatitudeDegrees>42.94291558675467967987060546875</LatitudeDegrees>
              <LongitudeDegrees>-7.89049373008310794830322265625</LongitudeDegrees>
            </Position>
            <AltitudeMeters>588.79998779296875</AltitudeMeters>
            <DistanceMeters>33448.100711607</DistanceMeters>
          </Trackpoint>
          <Trackpoint>
            <Time>2019-07-26T10:54:22.000Z</Time>
            <Position>
              <LatitudeDegrees>42.94288105331361293792724609375</LatitudeDegrees>
              <LongitudeDegrees>-7.890471853315830230712890625</LongitudeDegrees>
            </Position>
            <AltitudeMeters>588.79998779296875</AltitudeMeters>
            <DistanceMeters>33452.337667115</DistanceMeters>
          </Trackpoint>
          <Trackpoint>
            <Time>2019-07-26T10:54:24.000Z</Time>
            <Position>
              <LatitudeDegrees>42.94284048490226268768310546875</LatitudeDegrees>
              <LongitudeDegrees>-7.89046321995556354522705078125</LongitudeDegrees>
            </Position>
            <AltitudeMeters>588.79998779296875</AltitudeMeters>
            <DistanceMeters>33456.906861435</DistanceMeters>
          </Trackpoint>
          <Trackpoint>
            <Time>2019-07-26T10:54:26.000Z</Time>
            <Position>
              <LatitudeDegrees>42.9428025148808956146240234375</LatitudeDegrees>
              <LongitudeDegrees>-7.8904415108263492584228515625</LongitudeDegrees>
            </Position>
            <AltitudeMeters>588.79998779296875</AltitudeMeters>
            <DistanceMeters>33461.48789818</DistanceMeters>
          </Trackpoint>
          <Trackpoint>
            <Time>2019-07-26T10:54:27.000Z</Time>
            <Position>
              <LatitudeDegrees>42.9427810572087764739990234375</LatitudeDegrees>
              <LongitudeDegrees>-7.8904401697218418121337890625</LongitudeDegrees>
            </Position>
            <AltitudeMeters>588.79998779296875</AltitudeMeters>
            <DistanceMeters>33463.876832736</DistanceMeters>
          </Trackpoint>
          <Trackpoint>
            <Time>2019-07-26T10:54:29.000Z</Time>
            <Position>
              <LatitudeDegrees>42.94271710328757762908935546875</LatitudeDegrees>
              <LongitudeDegrees>-7.8904643096029758453369140625</LongitudeDegrees>
            </Position>
            <AltitudeMeters>589</AltitudeMeters>
            <DistanceMeters>33471.261454029</DistanceMeters>
          </Trackpoint>
          <Trackpoint>
            <Time>2019-07-26T10:54:31.000Z</Time>
            <Position>
              <LatitudeDegrees>42.94266127981245517730712890625</LatitudeDegrees>
              <LongitudeDegrees>-7.89050160907208919525146484375</LongitudeDegrees>
            </Position>
            <AltitudeMeters>589.79998779296875</AltitudeMeters>
            <DistanceMeters>33478.178197844</DistanceMeters>
          </Trackpoint>
          <Trackpoint>
            <Time>2019-07-26T10:54:32.000Z</Time>
            <Position>
              <LatitudeDegrees>42.94264443218708038330078125</LatitudeDegrees>
              <LongitudeDegrees>-7.89052239619195461273193359375</LongitudeDegrees>
            </Position>
            <AltitudeMeters>590.20001220703125</AltitudeMeters>
            <DistanceMeters>33480.706694259</DistanceMeters>
          </Trackpoint>
          <Trackpoint>
            <Time>2019-07-26T10:54:33.000Z</Time>
            <Position>
              <LatitudeDegrees>42.94262121431529521942138671875</LatitudeDegrees>
              <LongitudeDegrees>-7.890557684004306793212890625</LongitudeDegrees>
            </Position>
            <AltitudeMeters>590.5999755859375</AltitudeMeters>
            <DistanceMeters>33484.571373604</DistanceMeters>
          </Trackpoint>
          <Trackpoint>
            <Time>2019-07-26T10:54:36.000Z</Time>
            <Position>
              <LatitudeDegrees>42.94257025234401226043701171875</LatitudeDegrees>
              <LongitudeDegrees>-7.89063974283635616302490234375</LongitudeDegrees>
            </Position>
            <AltitudeMeters>591.5999755859375</AltitudeMeters>
            <DistanceMeters>33493.339100833</DistanceMeters>
          </Trackpoint>
          <Trackpoint>
            <Time>2019-07-26T10:54:38.000Z</Time>
            <Position>
              <LatitudeDegrees>42.9425356350839138031005859375</LatitudeDegrees>
              <LongitudeDegrees>-7.89069523103535175323486328125</LongitudeDegrees>
            </Position>
            <AltitudeMeters>592.4000244140625</AltitudeMeters>
            <DistanceMeters>33499.279600706</DistanceMeters>
          </Trackpoint>
          <Trackpoint>
            <Time>2019-07-26T10:54:39.000Z</Time>
            <Position>
              <LatitudeDegrees>42.94251392595469951629638671875</LatitudeDegrees>
              <LongitudeDegrees>-7.89072205312550067901611328125</LongitudeDegrees>
            </Position>
            <AltitudeMeters>592.79998779296875</AltitudeMeters>
            <DistanceMeters>33502.538338176</DistanceMeters>
          </Trackpoint>
          <Trackpoint>
            <Time>2019-07-26T10:54:43.000Z</Time>
            <Position>
              <LatitudeDegrees>42.94245961122214794158935546875</LatitudeDegrees>
              <LongitudeDegrees>-7.8908351249992847442626953125</LongitudeDegrees>
            </Position>
            <AltitudeMeters>593.5999755859375</AltitudeMeters>
            <DistanceMeters>33513.557340303</DistanceMeters>
          </Trackpoint>
          <Trackpoint>
            <Time>2019-07-26T10:54:46.000Z</Time>
            <Position>
              <LatitudeDegrees>42.94243362732231616973876953125</LatitudeDegrees>
              <LongitudeDegrees>-7.89091617800295352935791015625</LongitudeDegrees>
            </Position>
            <AltitudeMeters>594</AltitudeMeters>
            <DistanceMeters>33520.766856238</DistanceMeters>
          </Trackpoint>
          <Trackpoint>
            <Time>2019-07-26T10:54:49.000Z</Time>
            <Position>
              <LatitudeDegrees>42.94242373667657375335693359375</LatitudeDegrees>
              <LongitudeDegrees>-7.89098289795219898223876953125</LongitudeDegrees>
            </Position>
            <AltitudeMeters>594.79998779296875</AltitudeMeters>
            <DistanceMeters>33526.314333188</DistanceMeters>
          </Trackpoint>
          <Trackpoint>
            <Time>2019-07-26T10:54:51.000Z</Time>
            <Position>
              <LatitudeDegrees>42.94241284020245075225830078125</LatitudeDegrees>
              <LongitudeDegrees>-7.891033105552196502685546875</LongitudeDegrees>
            </Position>
            <AltitudeMeters>595.20001220703125</AltitudeMeters>
            <DistanceMeters>33530.581022082</DistanceMeters>
          </Trackpoint>
          <Trackpoint>
            <Time>2019-07-26T10:54:56.000Z</Time>
            <Position>
              <LatitudeDegrees>42.94238819740712642669677734375</LatitudeDegrees>
              <LongitudeDegrees>-7.89116947911679744720458984375</LongitudeDegrees>
            </Position>
            <AltitudeMeters>596.20001220703125</AltitudeMeters>
            <DistanceMeters>33542.025331967</DistanceMeters>
          </Trackpoint>
          <Trackpoint>
            <Time>2019-07-26T10:54:57.000Z</Time>
            <Position>
              <LatitudeDegrees>42.9423854313790798187255859375</LatitudeDegrees>
              <LongitudeDegrees>-7.8911970555782318115234375</LongitudeDegrees>
            </Position>
            <AltitudeMeters>596.4000244140625</AltitudeMeters>
            <DistanceMeters>33544.292072688</DistanceMeters>
          </Trackpoint>
          <Trackpoint>
            <Time>2019-07-26T10:55:03.000Z</Time>
            <Position>
              <LatitudeDegrees>42.9423532448709011077880859375</LatitudeDegrees>
              <LongitudeDegrees>-7.8913786076009273529052734375</LongitudeDegrees>
            </Position>
            <AltitudeMeters>597.4000244140625</AltitudeMeters>
            <DistanceMeters>33559.512374297</DistanceMeters>
          </Trackpoint>
          <Trackpoint>
            <Time>2019-07-26T10:55:04.000Z</Time>
            <Position>
              <LatitudeDegrees>42.94234880246222019195556640625</LatitudeDegrees>
              <LongitudeDegrees>-7.8914094530045986175537109375</LongitudeDegrees>
            </Position>
            <AltitudeMeters>597.5999755859375</AltitudeMeters>
            <DistanceMeters>33562.072810881</DistanceMeters>
          </Trackpoint>
          <Trackpoint>
            <Time>2019-07-26T10:55:08.000Z</Time>
            <Position>
              <LatitudeDegrees>42.94233606196939945220947265625</LatitudeDegrees>
              <LongitudeDegrees>-7.8915296494960784912109375</LongitudeDegrees>
            </Position>
            <AltitudeMeters>598.4000244140625</AltitudeMeters>
            <DistanceMeters>33571.967916685</DistanceMeters>
          </Trackpoint>
          <Trackpoint>
            <Time>2019-07-26T10:55:12.000Z</Time>
            <Position>
              <LatitudeDegrees>42.94233589433133602142333984375</LatitudeDegrees>
              <LongitudeDegrees>-7.8916449844837188720703125</LongitudeDegrees>
            </Position>
            <AltitudeMeters>599.20001220703125</AltitudeMeters>
            <DistanceMeters>33581.364516468</DistanceMeters>
          </Trackpoint>
          <Trackpoint>
            <Time>2019-07-26T10:55:14.000Z</Time>
            <Position>
              <LatitudeDegrees>42.9423301108181476593017578125</LatitudeDegrees>
              <LongitudeDegrees>-7.89170675911009311676025390625</LongitudeDegrees>
            </Position>
            <AltitudeMeters>599.5999755859375</AltitudeMeters>
            <DistanceMeters>33586.437554795</DistanceMeters>
          </Trackpoint>
          <Trackpoint>
            <Time>2019-07-26T10:55:20.000Z</Time>
            <Position>
              <LatitudeDegrees>42.94229616411030292510986328125</LatitudeDegrees>
              <LongitudeDegrees>-7.891894094645977020263671875</LongitudeDegrees>
            </Position>
            <AltitudeMeters>600.79998779296875</AltitudeMeters>
            <DistanceMeters>33602.161820218</DistanceMeters>
          </Trackpoint>
          <Trackpoint>
            <Time>2019-07-26T10:55:26.000Z</Time>
            <Position>
              <LatitudeDegrees>42.9422654025256633758544921875</LatitudeDegrees>
              <LongitudeDegrees>-7.89205209352076053619384765625</LongitudeDegrees>
            </Position>
            <AltitudeMeters>602</AltitudeMeters>
            <DistanceMeters>33615.482518478</DistanceMeters>
          </Trackpoint>
          <Trackpoint>
            <Time>2019-07-26T10:55:28.000Z</Time>
            <Position>
              <LatitudeDegrees>42.94225425459444522857666015625</LatitudeDegrees>
              <LongitudeDegrees>-7.89211395196616649627685546875</LongitudeDegrees>
            </Position>
            <AltitudeMeters>602.4000244140625</AltitudeMeters>
            <DistanceMeters>33620.672578018</DistanceMeters>
          </Trackpoint>
          <Trackpoint>
            <Time>2019-07-26T10:55:32.000Z</Time>
            <Position>
              <LatitudeDegrees>42.94222793541848659515380859375</LatitudeDegrees>
              <LongitudeDegrees>-7.89224378764629364013671875</LongitudeDegrees>
            </Position>
            <AltitudeMeters>603</AltitudeMeters>
            <DistanceMeters>33631.64929474</DistanceMeters>
          </Trackpoint>
          <Trackpoint>
            <Time>2019-07-26T10:55:37.000Z</Time>
            <Position>
              <LatitudeDegrees>42.94221100397408008575439453125</LatitudeDegrees>
              <LongitudeDegrees>-7.892386280000209808349609375</LongitudeDegrees>
            </Position>
            <AltitudeMeters>604</AltitudeMeters>
            <DistanceMeters>33643.411130104</DistanceMeters>
          </Trackpoint>
          <Trackpoint>
            <Time>2019-07-26T10:55:42.000Z</Time>
            <Position>
              <LatitudeDegrees>42.94221435673534870147705078125</LatitudeDegrees>
              <LongitudeDegrees>-7.8925061412155628204345703125</LongitudeDegrees>
            </Position>
            <AltitudeMeters>605.20001220703125</AltitudeMeters>
            <DistanceMeters>33653.184571085</DistanceMeters>
          </Trackpoint>
          <Trackpoint>
            <Time>2019-07-26T10:55:44.000Z</Time>
            <Position>
              <LatitudeDegrees>42.9422127641737461090087890625</LatitudeDegrees>
              <LongitudeDegrees>-7.89255752228200435638427734375</LongitudeDegrees>
            </Position>
            <AltitudeMeters>605.79998779296875</AltitudeMeters>
            <DistanceMeters>33657.374376404</DistanceMeters>
          </Trackpoint>
          <Trackpoint>
            <Time>2019-07-26T10:55:46.000Z</Time>
            <Position>
              <LatitudeDegrees>42.94220832176506519317626953125</LatitudeDegrees>
              <LongitudeDegrees>-7.89260831661522388458251953125</LongitudeDegrees>
            </Position>
            <AltitudeMeters>606.20001220703125</AltitudeMeters>
            <DistanceMeters>33661.542573506</DistanceMeters>
          </Trackpoint>
          <Trackpoint>
            <Time>2019-07-26T10:55:50.000Z</Time>
            <Position>
              <LatitudeDegrees>42.94219407252967357635498046875</LatitudeDegrees>
              <LongitudeDegrees>-7.89270906709134578704833984375</LongitudeDegrees>
            </Position>
            <AltitudeMeters>607.5999755859375</AltitudeMeters>
            <DistanceMeters>33669.902764393</DistanceMeters>
          </Trackpoint>
          <Trackpoint>
            <Time>2019-07-26T10:55:53.000Z</Time>
            <Position>
              <LatitudeDegrees>42.94218518771231174468994140625</LatitudeDegrees>
              <LongitudeDegrees>-7.8927871026098728179931640625</LongitudeDegrees>
            </Position>
            <AltitudeMeters>608.5999755859375</AltitudeMeters>
            <DistanceMeters>33676.33727296</DistanceMeters>
          </Trackpoint>
          <Trackpoint>
            <Time>2019-07-26T10:55:54.000Z</Time>
            <Position>
              <LatitudeDegrees>42.942179739475250244140625</LatitudeDegrees>
              <LongitudeDegrees>-7.89281484670937061309814453125</LongitudeDegrees>
            </Position>
            <AltitudeMeters>608.79998779296875</AltitudeMeters>
            <DistanceMeters>33678.678481281</DistanceMeters>
          </Trackpoint>
          <Trackpoint>
            <Time>2019-07-26T10:55:59.000Z</Time>
            <Position>
              <LatitudeDegrees>42.9421587847173213958740234375</LatitudeDegrees>
              <LongitudeDegrees>-7.892950884997844696044921875</LongitudeDegrees>
            </Position>
            <AltitudeMeters>610</AltitudeMeters>
            <DistanceMeters>33690.005410525</DistanceMeters>
          </Trackpoint>
          <Trackpoint>
            <Time>2019-07-26T10:56:00.000Z</Time>
            <Position>
              <LatitudeDegrees>42.94215652160346508026123046875</LatitudeDegrees>
              <LongitudeDegrees>-7.89297410286962985992431640625</LongitudeDegrees>
            </Position>
            <AltitudeMeters>610.4000244140625</AltitudeMeters>
            <DistanceMeters>33691.915423846</DistanceMeters>
          </Trackpoint>
          <Trackpoint>
            <Time>2019-07-26T10:56:03.000Z</Time>
            <Position>
              <LatitudeDegrees>42.94214956462383270263671875</LatitudeDegrees>
              <LongitudeDegrees>-7.89305205456912517547607421875</LongitudeDegrees>
            </Position>
            <AltitudeMeters>611.20001220703125</AltitudeMeters>
            <DistanceMeters>33698.314046088</DistanceMeters>
          </Trackpoint>
          <Trackpoint>
            <Time>2019-07-26T10:56:08.000Z</Time>
            <Position>
              <LatitudeDegrees>42.9421462118625640869140625</LatitudeDegrees>
              <LongitudeDegrees>-7.893205024302005767822265625</LongitudeDegrees>
            </Position>
            <AltitudeMeters>612.4000244140625</AltitudeMeters>
            <DistanceMeters>33710.783202283</DistanceMeters>
          </Trackpoint>
          <Trackpoint>
            <Time>2019-07-26T10:56:14.000Z</Time>
            <Position>
              <LatitudeDegrees>42.94216356240212917327880859375</LatitudeDegrees>
              <LongitudeDegrees>-7.893384397029876708984375</LongitudeDegrees>
            </Position>
            <AltitudeMeters>613.5999755859375</AltitudeMeters>
            <DistanceMeters>33725.524905702</DistanceMeters>
          </Trackpoint>
          <Trackpoint>
            <Time>2019-07-26T10:56:18.000Z</Time>
            <Position>
              <LatitudeDegrees>42.942185439169406890869140625</LatitudeDegrees>
              <LongitudeDegrees>-7.89349026046693325042724609375</LongitudeDegrees>
            </Position>
            <AltitudeMeters>614.79998779296875</AltitudeMeters>
            <DistanceMeters>33734.487189449</DistanceMeters>
          </Trackpoint>
          <Trackpoint>
            <Time>2019-07-26T10:56:20.000Z</Time>
            <Position>
              <LatitudeDegrees>42.94219658710062503814697265625</LatitudeDegrees>
              <LongitudeDegrees>-7.8935552202165126800537109375</LongitudeDegrees>
            </Position>
            <AltitudeMeters>615.4000244140625</AltitudeMeters>
            <DistanceMeters>33739.922850414</DistanceMeters>
          </Trackpoint>
          <Trackpoint>
            <Time>2019-07-26T10:56:23.000Z</Time>
            <Position>
              <LatitudeDegrees>42.9422092437744140625</LatitudeDegrees>
              <LongitudeDegrees>-7.8936608321964740753173828125</LongitudeDegrees>
            </Position>
            <AltitudeMeters>616</AltitudeMeters>
            <DistanceMeters>33748.642554747</DistanceMeters>
          </Trackpoint>
          <Trackpoint>
            <Time>2019-07-26T10:56:27.000Z</Time>
            <Position>
              <LatitudeDegrees>42.94222609139978885650634765625</LatitudeDegrees>
              <LongitudeDegrees>-7.8937907516956329345703125</LongitudeDegrees>
            </Position>
            <AltitudeMeters>617</AltitudeMeters>
            <DistanceMeters>33759.392760249</DistanceMeters>
          </Trackpoint>
          <Trackpoint>
            <Time>2019-07-26T10:56:32.000Z</Time>
            <Position>
              <LatitudeDegrees>42.94224536977708339691162109375</LatitudeDegrees>
              <LongitudeDegrees>-7.89395528845489025115966796875</LongitudeDegrees>
            </Position>
            <AltitudeMeters>618.20001220703125</AltitudeMeters>
            <DistanceMeters>33772.96961373</DistanceMeters>
          </Trackpoint>
          <Trackpoint>
            <Time>2019-07-26T10:56:34.000Z</Time>
            <Position>
              <LatitudeDegrees>42.94226615689694881439208984375</LatitudeDegrees>
              <LongitudeDegrees>-7.89401815272867679595947265625</LongitudeDegrees>
            </Position>
            <AltitudeMeters>618.4000244140625</AltitudeMeters>
            <DistanceMeters>33778.591469968</DistanceMeters>
          </Trackpoint>
          <Trackpoint>
            <Time>2019-07-26T10:56:37.000Z</Time>
            <Position>
              <LatitudeDegrees>42.9423120059072971343994140625</LatitudeDegrees>
              <LongitudeDegrees>-7.89409585297107696533203125</LongitudeDegrees>
            </Position>
            <AltitudeMeters>619.20001220703125</AltitudeMeters>
            <DistanceMeters>33786.722781038</DistanceMeters>
          </Trackpoint>
          <Trackpoint>
            <Time>2019-07-26T10:56:40.000Z</Time>
            <Position>
              <LatitudeDegrees>42.94234209693968296051025390625</LatitudeDegrees>
              <LongitudeDegrees>-7.89417455904185771942138671875</LongitudeDegrees>
            </Position>
            <AltitudeMeters>620</AltitudeMeters>
            <DistanceMeters>33793.95730404</DistanceMeters>
          </Trackpoint>
          <Trackpoint>
            <Time>2019-07-26T10:56:41.000Z</Time>
            <Position>
              <LatitudeDegrees>42.9423458687961101531982421875</LatitudeDegrees>
              <LongitudeDegrees>-7.894204147160053253173828125</LongitudeDegrees>
            </Position>
            <AltitudeMeters>620.20001220703125</AltitudeMeters>
            <DistanceMeters>33796.405971179</DistanceMeters>
          </Trackpoint>
          <Trackpoint>
            <Time>2019-07-26T10:56:45.000Z</Time>
            <Position>
              <LatitudeDegrees>42.9423686675727367401123046875</LatitudeDegrees>
              <LongitudeDegrees>-7.89430917240679264068603515625</LongitudeDegrees>
            </Position>
            <AltitudeMeters>621.4000244140625</AltitudeMeters>
            <DistanceMeters>33805.331403067</DistanceMeters>
          </Trackpoint>
          <Trackpoint>
            <Time>2019-07-26T10:56:46.000Z</Time>
            <Position>
              <LatitudeDegrees>42.94236657209694385528564453125</LatitudeDegrees>
              <LongitudeDegrees>-7.89434337057173252105712890625</LongitudeDegrees>
            </Position>
            <AltitudeMeters>621.5999755859375</AltitudeMeters>
            <DistanceMeters>33808.127837619</DistanceMeters>
          </Trackpoint>
          <Trackpoint>
            <Time>2019-07-26T10:56:50.000Z</Time>
            <Position>
              <LatitudeDegrees>42.94234528206288814544677734375</LatitudeDegrees>
              <LongitudeDegrees>-7.89444856345653533935546875</LongitudeDegrees>
            </Position>
            <AltitudeMeters>622.4000244140625</AltitudeMeters>
            <DistanceMeters>33817.020327676</DistanceMeters>
          </Trackpoint>
          <Trackpoint>
            <Time>2019-07-26T10:56:53.000Z</Time>
            <Position>
              <LatitudeDegrees>42.9423069767653942108154296875</LatitudeDegrees>
              <LongitudeDegrees>-7.894526682794094085693359375</LongitudeDegrees>
            </Position>
            <AltitudeMeters>623</AltitudeMeters>
            <DistanceMeters>33824.680447566</DistanceMeters>
          </Trackpoint>
          <Trackpoint>
            <Time>2019-07-26T10:56:57.000Z</Time>
            <Position>
              <LatitudeDegrees>42.94224939309060573577880859375</LatitudeDegrees>
              <LongitudeDegrees>-7.89463891647756099700927734375</LongitudeDegrees>
            </Position>
            <AltitudeMeters>623.4000244140625</AltitudeMeters>
            <DistanceMeters>33835.848007092</DistanceMeters>
          </Trackpoint>
          <Trackpoint>
            <Time>2019-07-26T10:56:59.000Z</Time>
            <Position>
              <LatitudeDegrees>42.94222491793334484100341796875</LatitudeDegrees>
              <LongitudeDegrees>-7.89468300528824329376220703125</LongitudeDegrees>
            </Position>
            <AltitudeMeters>623.5999755859375</AltitudeMeters>
            <DistanceMeters>33840.357522826</DistanceMeters>
          </Trackpoint>
          <Trackpoint>
            <Time>2019-07-26T10:57:06.000Z</Time>
            <Position>
              <LatitudeDegrees>42.94214294292032718658447265625</LatitudeDegrees>
              <LongitudeDegrees>-7.8948239050805568695068359375</LongitudeDegrees>
            </Position>
            <AltitudeMeters>624.20001220703125</AltitudeMeters>
            <DistanceMeters>33855.021841441</DistanceMeters>
          </Trackpoint>
          <Trackpoint>
            <Time>2019-07-26T10:57:08.000Z</Time>
            <Position>
              <LatitudeDegrees>42.9421086609363555908203125</LatitudeDegrees>
              <LongitudeDegrees>-7.8948638029396533966064453125</LongitudeDegrees>
            </Position>
            <AltitudeMeters>624.5999755859375</AltitudeMeters>
            <DistanceMeters>33860.033993939</DistanceMeters>
          </Trackpoint>
          <Trackpoint>
            <Time>2019-07-26T10:57:12.000Z</Time>
            <Position>
              <LatitudeDegrees>42.942047975957393646240234375</LatitudeDegrees>
              <LongitudeDegrees>-7.8949301876127719879150390625</LongitudeDegrees>
            </Position>
            <AltitudeMeters>625.5999755859375</AltitudeMeters>
            <DistanceMeters>33868.687166414</DistanceMeters>
          </Trackpoint>
          <Trackpoint>
            <Time>2019-07-26T10:57:18.000Z</Time>
            <Position>
              <LatitudeDegrees>42.94196994043886661529541015625</LatitudeDegrees>
              <LongitudeDegrees>-7.89501492865383625030517578125</LongitudeDegrees>
            </Position>
            <AltitudeMeters>626.5999755859375</AltitudeMeters>
            <DistanceMeters>33879.782934176</DistanceMeters>
          </Trackpoint>
          <Trackpoint>
            <Time>2019-07-26T10:57:24.000Z</Time>
            <Position>
              <LatitudeDegrees>42.941845469176769256591796875</LatitudeDegrees>
              <LongitudeDegrees>-7.89513529278337955474853515625</LongitudeDegrees>
            </Position>
            <AltitudeMeters>627.5999755859375</AltitudeMeters>
            <DistanceMeters>33896.756844127</DistanceMeters>
          </Trackpoint>
          <Trackpoint>
            <Time>2019-07-26T10:57:25.000Z</Time>
            <Position>
              <LatitudeDegrees>42.94181822799146175384521484375</LatitudeDegrees>
              <LongitudeDegrees>-7.89516546763479709625244140625</LongitudeDegrees>
            </Position>
            <AltitudeMeters>627.79998779296875</AltitudeMeters>
            <DistanceMeters>33900.659886397</DistanceMeters>
          </Trackpoint>
          <Trackpoint>
            <Time>2019-07-26T10:57:28.000Z</Time>
            <Position>
              <LatitudeDegrees>42.941715717315673828125</LatitudeDegrees>
              <LongitudeDegrees>-7.89532690308988094329833984375</LongitudeDegrees>
            </Position>
            <AltitudeMeters>628.20001220703125</AltitudeMeters>
            <DistanceMeters>33918.072348793</DistanceMeters>
          </Trackpoint>
          <Trackpoint>
            <Time>2019-07-26T10:57:31.000Z</Time>
            <Position>
              <LatitudeDegrees>42.9416612349450588226318359375</LatitudeDegrees>
              <LongitudeDegrees>-7.89546855725347995758056640625</LongitudeDegrees>
            </Position>
            <AltitudeMeters>628.20001220703125</AltitudeMeters>
            <DistanceMeters>33931.110762007</DistanceMeters>
          </Trackpoint>
          <Trackpoint>
            <Time>2019-07-26T10:57:33.000Z</Time>
            <Position>
              <LatitudeDegrees>42.9416253603994846343994140625</LatitudeDegrees>
              <LongitudeDegrees>-7.89556142874062061309814453125</LongitudeDegrees>
            </Position>
            <AltitudeMeters>628.20001220703125</AltitudeMeters>
            <DistanceMeters>33939.666333271</DistanceMeters>
          </Trackpoint>
          <Trackpoint>
            <Time>2019-07-26T10:57:37.000Z</Time>
            <Position>
              <LatitudeDegrees>42.94159728102385997772216796875</LatitudeDegrees>
              <LongitudeDegrees>-7.895735688507556915283203125</LongitudeDegrees>
            </Position>
            <AltitudeMeters>628.20001220703125</AltitudeMeters>
            <DistanceMeters>33954.204488905</DistanceMeters>
          </Trackpoint>
          <Trackpoint>
            <Time>2019-07-26T10:57:42.000Z</Time>
            <Position>
              <LatitudeDegrees>42.94158655218780040740966796875</LatitudeDegrees>
              <LongitudeDegrees>-7.8959071822464466094970703125</LongitudeDegrees>
            </Position>
            <AltitudeMeters>628.20001220703125</AltitudeMeters>
            <DistanceMeters>33968.228255691</DistanceMeters>
          </Trackpoint>
          <Trackpoint>
            <Time>2019-07-26T10:57:49.000Z</Time>
            <Position>
              <LatitudeDegrees>42.941566519439220428466796875</LatitudeDegrees>
              <LongitudeDegrees>-7.89612201042473316192626953125</LongitudeDegrees>
            </Position>
            <AltitudeMeters>628.4000244140625</AltitudeMeters>
            <DistanceMeters>33985.873567697</DistanceMeters>
          </Trackpoint>
          <Trackpoint>
            <Time>2019-07-26T10:57:52.000Z</Time>
            <Position>
              <LatitudeDegrees>42.9415547847747802734375</LatitudeDegrees>
              <LongitudeDegrees>-7.8962476551532745361328125</LongitudeDegrees>
            </Position>
            <AltitudeMeters>628.79998779296875</AltitudeMeters>
            <DistanceMeters>33996.193486378</DistanceMeters>
          </Trackpoint>
          <Trackpoint>
            <Time>2019-07-26T10:57:56.000Z</Time>
            <Position>
              <LatitudeDegrees>42.9415110312402248382568359375</LatitudeDegrees>
              <LongitudeDegrees>-7.89646566845476627349853515625</LongitudeDegrees>
            </Position>
            <AltitudeMeters>629.5999755859375</AltitudeMeters>
            <DistanceMeters>34014.612497535</DistanceMeters>
          </Trackpoint>
          <Trackpoint>
            <Time>2019-07-26T10:57:59.000Z</Time>
            <Position>
              <LatitudeDegrees>42.9414979554712772369384765625</LatitudeDegrees>
              <LongitudeDegrees>-7.89659072645008563995361328125</LongitudeDegrees>
            </Position>
            <AltitudeMeters>630</AltitudeMeters>
            <DistanceMeters>34024.905255029</DistanceMeters>
          </Trackpoint>
          <Trackpoint>
            <Time>2019-07-26T10:58:02.000Z</Time>
            <Position>
              <LatitudeDegrees>42.9415140487253665924072265625</LatitudeDegrees>
              <LongitudeDegrees>-7.89671762846410274505615234375</LongitudeDegrees>
            </Position>
            <AltitudeMeters>630.4000244140625</AltitudeMeters>
            <DistanceMeters>34035.399147645</DistanceMeters>
          </Trackpoint>
          <Trackpoint>
            <Time>2019-07-26T10:58:05.000Z</Time>
            <Position>
              <LatitudeDegrees>42.94154481031000614166259765625</LatitudeDegrees>
              <LongitudeDegrees>-7.89682005532085895538330078125</LongitudeDegrees>
            </Position>
            <AltitudeMeters>631.20001220703125</AltitudeMeters>
            <DistanceMeters>34044.419680824</DistanceMeters>
          </Trackpoint>
          <Trackpoint>
            <Time>2019-07-26T10:58:09.000Z</Time>
            <Position>
              <LatitudeDegrees>42.94157934375107288360595703125</LatitudeDegrees>
              <LongitudeDegrees>-7.8969716839492321014404296875</LongitudeDegrees>
            </Position>
            <AltitudeMeters>631.5999755859375</AltitudeMeters>
            <DistanceMeters>34057.358327863</DistanceMeters>
          </Trackpoint>
          <Trackpoint>
            <Time>2019-07-26T10:58:11.000Z</Time>
            <Position>
              <LatitudeDegrees>42.941601388156414031982421875</LatitudeDegrees>
              <LongitudeDegrees>-7.897024489939212799072265625</LongitudeDegrees>
            </Position>
            <AltitudeMeters>631.5999755859375</AltitudeMeters>
            <DistanceMeters>34062.311581107</DistanceMeters>
          </Trackpoint>
          <Trackpoint>
            <Time>2019-07-26T10:58:13.000Z</Time>
            <Position>
              <LatitudeDegrees>42.941634245216846466064453125</LatitudeDegrees>
              <LongitudeDegrees>-7.89702926762402057647705078125</LongitudeDegrees>
            </Position>
            <AltitudeMeters>631.79998779296875</AltitudeMeters>
            <DistanceMeters>34065.989495531</DistanceMeters>
          </Trackpoint>
          <Trackpoint>
            <Time>2019-07-26T10:58:15.000Z</Time>
            <Position>
              <LatitudeDegrees>42.941656373441219329833984375</LatitudeDegrees>
              <LongitudeDegrees>-7.8970149345695972442626953125</LongitudeDegrees>
            </Position>
            <AltitudeMeters>632</AltitudeMeters>
            <DistanceMeters>34068.713962972</DistanceMeters>
          </Trackpoint>
          <Trackpoint>
            <Time>2019-07-26T10:58:17.000Z</Time>
            <Position>
              <LatitudeDegrees>42.941680513322353363037109375</LatitudeDegrees>
              <LongitudeDegrees>-7.8970055468380451202392578125</LongitudeDegrees>
            </Position>
            <AltitudeMeters>632.4000244140625</AltitudeMeters>
            <DistanceMeters>34071.507166518</DistanceMeters>
          </Trackpoint>
          <Trackpoint>
            <Time>2019-07-26T10:58:20.000Z</Time>
            <Position>
              <LatitudeDegrees>42.941721417009830474853515625</LatitudeDegrees>
              <LongitudeDegrees>-7.89696606807410717010498046875</LongitudeDegrees>
            </Position>
            <AltitudeMeters>633.20001220703125</AltitudeMeters>
            <DistanceMeters>34077.081437147</DistanceMeters>
          </Trackpoint>
          <Trackpoint>
            <Time>2019-07-26T10:58:21.000Z</Time>
            <Position>
              <LatitudeDegrees>42.941736839711666107177734375</LatitudeDegrees>
              <LongitudeDegrees>-7.89695131592452526092529296875</LongitudeDegrees>
            </Position>
            <AltitudeMeters>633.5999755859375</AltitudeMeters>
            <DistanceMeters>34079.176339806</DistanceMeters>
          </Trackpoint>
          <Trackpoint>
            <Time>2019-07-26T10:58:26.000Z</Time>
            <Position>
              <LatitudeDegrees>42.9418245144188404083251953125</LatitudeDegrees>
              <LongitudeDegrees>-7.89688526652753353118896484375</LongitudeDegrees>
            </Position>
            <AltitudeMeters>634.79998779296875</AltitudeMeters>
            <DistanceMeters>34090.320020134</DistanceMeters>
          </Trackpoint>
          <Trackpoint>
            <Time>2019-07-26T10:58:27.000Z</Time>
            <Position>
              <LatitudeDegrees>42.94183951802551746368408203125</LatitudeDegrees>
              <LongitudeDegrees>-7.89686548523604869842529296875</LongitudeDegrees>
            </Position>
            <AltitudeMeters>635.20001220703125</AltitudeMeters>
            <DistanceMeters>34092.64186329</DistanceMeters>
          </Trackpoint>
          <Trackpoint>
            <Time>2019-07-26T10:58:30.000Z</Time>
            <Position>
              <LatitudeDegrees>42.94188193045556545257568359375</LatitudeDegrees>
              <LongitudeDegrees>-7.89682491682469844818115234375</LongitudeDegrees>
            </Position>
            <AltitudeMeters>636</AltitudeMeters>
            <DistanceMeters>34098.404902519</DistanceMeters>
          </Trackpoint>
          <Trackpoint>
            <Time>2019-07-26T10:58:32.000Z</Time>
            <Position>
              <LatitudeDegrees>42.9419100098311901092529296875</LatitudeDegrees>
              <LongitudeDegrees>-7.89678988046944141387939453125</LongitudeDegrees>
            </Position>
            <AltitudeMeters>636.4000244140625</AltitudeMeters>
            <DistanceMeters>34102.637593349</DistanceMeters>
          </Trackpoint>
          <Trackpoint>
            <Time>2019-07-26T10:58:34.000Z</Time>
            <Position>
              <LatitudeDegrees>42.94193356297910213470458984375</LatitudeDegrees>
              <LongitudeDegrees>-7.89674595929682254791259765625</LongitudeDegrees>
            </Position>
            <AltitudeMeters>637.20001220703125</AltitudeMeters>
            <DistanceMeters>34107.073417576</DistanceMeters>
          </Trackpoint>
          <Trackpoint>
            <Time>2019-07-26T10:58:38.000Z</Time>
            <Position>
              <LatitudeDegrees>42.94197195209562778472900390625</LatitudeDegrees>
              <LongitudeDegrees>-7.8966471366584300994873046875</LongitudeDegrees>
            </Position>
            <AltitudeMeters>638.4000244140625</AltitudeMeters>
            <DistanceMeters>34116.189050491</DistanceMeters>
          </Trackpoint>
          <Trackpoint>
            <Time>2019-07-26T10:58:39.000Z</Time>
            <Position>
              <LatitudeDegrees>42.94198192656040191650390625</LatitudeDegrees>
              <LongitudeDegrees>-7.89662291295826435089111328125</LongitudeDegrees>
            </Position>
            <AltitudeMeters>638.5999755859375</AltitudeMeters>
            <DistanceMeters>34118.453798473</DistanceMeters>
          </Trackpoint>
          <Trackpoint>
            <Time>2019-07-26T10:58:43.000Z</Time>
            <Position>
              <LatitudeDegrees>42.94202710501849651336669921875</LatitudeDegrees>
              <LongitudeDegrees>-7.896539010107517242431640625</LongitudeDegrees>
            </Position>
            <AltitudeMeters>639.4000244140625</AltitudeMeters>
            <DistanceMeters>34126.941019443</DistanceMeters>
          </Trackpoint>
          <Trackpoint>
            <Time>2019-07-26T10:58:47.000Z</Time>
            <Position>
              <LatitudeDegrees>42.9420779831707477569580078125</LatitudeDegrees>
              <LongitudeDegrees>-7.8964546881616115570068359375</LongitudeDegrees>
            </Position>
            <AltitudeMeters>640.5999755859375</AltitudeMeters>
            <DistanceMeters>34135.844165573</DistanceMeters>
          </Trackpoint>
          <Trackpoint>
            <Time>2019-07-26T10:58:52.000Z</Time>
            <Position>
              <LatitudeDegrees>42.9421691782772541046142578125</LatitudeDegrees>
              <LongitudeDegrees>-7.896399199962615966796875</LongitudeDegrees>
            </Position>
            <AltitudeMeters>641.20001220703125</AltitudeMeters>
            <DistanceMeters>34146.956198029</DistanceMeters>
          </Trackpoint>
          <Trackpoint>
            <Time>2019-07-26T10:58:55.000Z</Time>
            <Position>
              <LatitudeDegrees>42.94222458265721797943115234375</LatitudeDegrees>
              <LongitudeDegrees>-7.896409928798675537109375</LongitudeDegrees>
            </Position>
            <AltitudeMeters>641.5999755859375</AltitudeMeters>
            <DistanceMeters>34153.18534231</DistanceMeters>
          </Trackpoint>
          <Trackpoint>
            <Time>2019-07-26T10:58:58.000Z</Time>
            <Position>
              <LatitudeDegrees>42.9422664083540439605712890625</LatitudeDegrees>
              <LongitudeDegrees>-7.896438427269458770751953125</LongitudeDegrees>
            </Position>
            <AltitudeMeters>642</AltitudeMeters>
            <DistanceMeters>34158.386698771</DistanceMeters>
          </Trackpoint>
          <Trackpoint>
            <Time>2019-07-26T10:58:59.000Z</Time>
            <Position>
              <LatitudeDegrees>42.94227990321815013885498046875</LatitudeDegrees>
              <LongitudeDegrees>-7.89644949138164520263671875</LongitudeDegrees>
            </Position>
            <AltitudeMeters>642.20001220703125</AltitudeMeters>
            <DistanceMeters>34160.138904806</DistanceMeters>
          </Trackpoint>
          <Trackpoint>
            <Time>2019-07-26T10:59:00.000Z</Time>
            <Position>
              <LatitudeDegrees>42.942292727530002593994140625</LatitudeDegrees>
              <LongitudeDegrees>-7.8964644111692905426025390625</LongitudeDegrees>
            </Position>
            <AltitudeMeters>642.5999755859375</AltitudeMeters>
            <DistanceMeters>34162.010714001</DistanceMeters>
          </Trackpoint>
          <Trackpoint>
            <Time>2019-07-26T10:59:02.000Z</Time>
            <Position>
              <LatitudeDegrees>42.94232114218175411224365234375</LatitudeDegrees>
              <LongitudeDegrees>-7.8964892216026782989501953125</LongitudeDegrees>
            </Position>
            <AltitudeMeters>643.5999755859375</AltitudeMeters>
            <DistanceMeters>34165.763968489</DistanceMeters>
          </Trackpoint>
          <Trackpoint>
            <Time>2019-07-26T10:59:05.000Z</Time>
            <Position>
              <LatitudeDegrees>42.94235433451831340789794921875</LatitudeDegrees>
              <LongitudeDegrees>-7.89653557352721691131591796875</LongitudeDegrees>
            </Position>
            <AltitudeMeters>644.79998779296875</AltitudeMeters>
            <DistanceMeters>34171.047146158</DistanceMeters>
          </Trackpoint>
          <Trackpoint>
            <Time>2019-07-26T10:59:06.000Z</Time>
            <Position>
              <LatitudeDegrees>42.9423661530017852783203125</LatitudeDegrees>
              <LongitudeDegrees>-7.8965512476861476898193359375</LongitudeDegrees>
            </Position>
            <AltitudeMeters>645.20001220703125</AltitudeMeters>
            <DistanceMeters>34172.884875352</DistanceMeters>
          </Trackpoint>
          <Trackpoint>
            <Time>2019-07-26T10:59:08.000Z</Time>
            <Position>
              <LatitudeDegrees>42.94238735921680927276611328125</LatitudeDegrees>
              <LongitudeDegrees>-7.89658586494624614715576171875</LongitudeDegrees>
            </Position>
            <AltitudeMeters>646</AltitudeMeters>
            <DistanceMeters>34176.562789777</DistanceMeters>
          </Trackpoint>
          <Trackpoint>
            <Time>2019-07-26T10:59:12.000Z</Time>
            <Position>
              <LatitudeDegrees>42.9424223117530345916748046875</LatitudeDegrees>
              <LongitudeDegrees>-7.8966639004647731781005859375</LongitudeDegrees>
            </Position>
            <AltitudeMeters>647</AltitudeMeters>
            <DistanceMeters>34184.016180299</DistanceMeters>
          </Trackpoint>
          <Trackpoint>
            <Time>2019-07-26T10:59:13.000Z</Time>
            <Position>
              <LatitudeDegrees>42.94243429787456989288330078125</LatitudeDegrees>
              <LongitudeDegrees>-7.89668158628046512603759765625</LongitudeDegrees>
            </Position>
            <AltitudeMeters>647.4000244140625</AltitudeMeters>
            <DistanceMeters>34185.977509584</DistanceMeters>
          </Trackpoint>
          <Trackpoint>
            <Time>2019-07-26T10:59:16.000Z</Time>
            <Position>
              <LatitudeDegrees>42.94246916659176349639892578125</LatitudeDegrees>
              <LongitudeDegrees>-7.896731793880462646484375</LongitudeDegrees>
            </Position>
            <AltitudeMeters>648.20001220703125</AltitudeMeters>
            <DistanceMeters>34191.617006835</DistanceMeters>
          </Trackpoint>
          <Trackpoint>
            <Time>2019-07-26T10:59:20.000Z</Time>
            <Position>
              <LatitudeDegrees>42.9425004310905933380126953125</LatitudeDegrees>
              <LongitudeDegrees>-7.8968208096921443939208984375</LongitudeDegrees>
            </Position>
            <AltitudeMeters>649.4000244140625</AltitudeMeters>
            <DistanceMeters>34199.661230091</DistanceMeters>
          </Trackpoint>
          <Trackpoint>
            <Time>2019-07-26T10:59:26.000Z</Time>
            <Position>
              <LatitudeDegrees>42.942537479102611541748046875</LatitudeDegrees>
              <LongitudeDegrees>-7.89696824736893177032470703125</LongitudeDegrees>
            </Position>
            <AltitudeMeters>650.4000244140625</AltitudeMeters>
            <DistanceMeters>34212.362146814</DistanceMeters>
          </Trackpoint>
          <Trackpoint>
            <Time>2019-07-26T10:59:29.000Z</Time>
            <Position>
              <LatitudeDegrees>42.94255415908992290496826171875</LatitudeDegrees>
              <LongitudeDegrees>-7.897045612335205078125</LongitudeDegrees>
            </Position>
            <AltitudeMeters>651</AltitudeMeters>
            <DistanceMeters>34218.933434781</DistanceMeters>
          </Trackpoint>
          <Trackpoint>
            <Time>2019-07-26T10:59:30.000Z</Time>
            <Position>
              <LatitudeDegrees>42.94255952350795269012451171875</LatitudeDegrees>
              <LongitudeDegrees>-7.897070758044719696044921875</LongitudeDegrees>
            </Position>
            <AltitudeMeters>651.4000244140625</AltitudeMeters>
            <DistanceMeters>34221.066779228</DistanceMeters>
          </Trackpoint>
          <Trackpoint>
            <Time>2019-07-26T10:59:36.000Z</Time>
            <Position>
              <LatitudeDegrees>42.9425872676074504852294921875</LatitudeDegrees>
              <LongitudeDegrees>-7.897218279540538787841796875</LongitudeDegrees>
            </Position>
            <AltitudeMeters>652.5999755859375</AltitudeMeters>
            <DistanceMeters>34233.476773336</DistanceMeters>
          </Trackpoint>
          <Trackpoint>
            <Time>2019-07-26T10:59:39.000Z</Time>
            <Position>
              <LatitudeDegrees>42.94260227121412754058837890625</LatitudeDegrees>
              <LongitudeDegrees>-7.89728977717459201812744140625</LongitudeDegrees>
            </Position>
            <AltitudeMeters>653.4000244140625</AltitudeMeters>
            <DistanceMeters>34239.536915322</DistanceMeters>
          </Trackpoint>
          <Trackpoint>
            <Time>2019-07-26T10:59:41.000Z</Time>
            <Position>
              <LatitudeDegrees>42.94260931201279163360595703125</LatitudeDegrees>
              <LongitudeDegrees>-7.89733855985105037689208984375</LongitudeDegrees>
            </Position>
            <AltitudeMeters>653.79998779296875</AltitudeMeters>
            <DistanceMeters>34243.587550939</DistanceMeters>
          </Trackpoint>
          <Trackpoint>
            <Time>2019-07-26T10:59:47.000Z</Time>
            <Position>
              <LatitudeDegrees>42.9426477849483489990234375</LatitudeDegrees>
              <LongitudeDegrees>-7.89746780879795551300048828125</LongitudeDegrees>
            </Position>
            <AltitudeMeters>655</AltitudeMeters>
            <DistanceMeters>34254.955462972</DistanceMeters>
          </Trackpoint>
          <Trackpoint>
            <Time>2019-07-26T10:59:51.000Z</Time>
            <Position>
              <LatitudeDegrees>42.94268357567489147186279296875</LatitudeDegrees>
              <LongitudeDegrees>-7.89755028672516345977783203125</LongitudeDegrees>
            </Position>
            <AltitudeMeters>656.20001220703125</AltitudeMeters>
            <DistanceMeters>34262.767329369</DistanceMeters>
          </Trackpoint>
          <Trackpoint>
            <Time>2019-07-26T10:59:52.000Z</Time>
            <Position>
              <LatitudeDegrees>42.94269262813031673431396484375</LatitudeDegrees>
              <LongitudeDegrees>-7.8975681401789188385009765625</LongitudeDegrees>
            </Position>
            <AltitudeMeters>656.4000244140625</AltitudeMeters>
            <DistanceMeters>34264.534928433</DistanceMeters>
          </Trackpoint>
          <Trackpoint>
            <Time>2019-07-26T10:59:53.000Z</Time>
            <Position>
              <LatitudeDegrees>42.942703776061534881591796875</LatitudeDegrees>
              <LongitudeDegrees>-7.8975828923285007476806640625</LongitudeDegrees>
            </Position>
            <AltitudeMeters>656.5999755859375</AltitudeMeters>
            <DistanceMeters>34266.261174425</DistanceMeters>
          </Trackpoint>
          <Trackpoint>
            <Time>2019-07-26T10:59:56.000Z</Time>
            <Position>
              <LatitudeDegrees>42.9427408240735530853271484375</LatitudeDegrees>
              <LongitudeDegrees>-7.897624634206295013427734375</LongitudeDegrees>
            </Position>
            <AltitudeMeters>657.4000244140625</AltitudeMeters>
            <DistanceMeters>34271.606374315</DistanceMeters>
          </Trackpoint>
          <Trackpoint>
            <Time>2019-07-26T11:00:00.000Z</Time>
            <Position>
              <LatitudeDegrees>42.9428129084408283233642578125</LatitudeDegrees>
              <LongitudeDegrees>-7.89765237830579280853271484375</LongitudeDegrees>
            </Position>
            <AltitudeMeters>658</AltitudeMeters>
            <DistanceMeters>34279.941685237</DistanceMeters>
          </Trackpoint>
          <Trackpoint>
            <Time>2019-07-26T11:00:02.000Z</Time>
            <Position>
              <LatitudeDegrees>42.942853309214115142822265625</LatitudeDegrees>
              <LongitudeDegrees>-7.8976531326770782470703125</LongitudeDegrees>
            </Position>
            <AltitudeMeters>658.5999755859375</AltitudeMeters>
            <DistanceMeters>34284.439170227</DistanceMeters>
          </Trackpoint>
          <Trackpoint>
            <Time>2019-07-26T11:00:05.000Z</Time>
            <Position>
              <LatitudeDegrees>42.94291944243013858795166015625</LatitudeDegrees>
              <LongitudeDegrees>-7.89764173328876495361328125</LongitudeDegrees>
            </Position>
            <AltitudeMeters>659.79998779296875</AltitudeMeters>
            <DistanceMeters>34291.857342903</DistanceMeters>
          </Trackpoint>
          <Trackpoint>
            <Time>2019-07-26T11:00:07.000Z</Time>
            <Position>
              <LatitudeDegrees>42.942970655858516693115234375</LatitudeDegrees>
              <LongitudeDegrees>-7.8976368717849254608154296875</LongitudeDegrees>
            </Position>
            <AltitudeMeters>660.20001220703125</AltitudeMeters>
            <DistanceMeters>34297.570021458</DistanceMeters>
          </Trackpoint>
          <Trackpoint>
            <Time>2019-07-26T11:00:10.000Z</Time>
            <Position>
              <LatitudeDegrees>42.94305372051894664764404296875</LatitudeDegrees>
              <LongitudeDegrees>-7.89762991480529308319091796875</LongitudeDegrees>
            </Position>
            <AltitudeMeters>660.79998779296875</AltitudeMeters>
            <DistanceMeters>34306.83207988</DistanceMeters>
          </Trackpoint>
          <Trackpoint>
            <Time>2019-07-26T11:00:15.000Z</Time>
            <Position>
              <LatitudeDegrees>42.94319688342511653900146484375</LatitudeDegrees>
              <LongitudeDegrees>-7.89763159118592739105224609375</LongitudeDegrees>
            </Position>
            <AltitudeMeters>661.5999755859375</AltitudeMeters>
            <DistanceMeters>34322.767127718</DistanceMeters>
          </Trackpoint>
          <Trackpoint>
            <Time>2019-07-26T11:00:19.000Z</Time>
            <Position>
              <LatitudeDegrees>42.94330635108053684234619140625</LatitudeDegrees>
              <LongitudeDegrees>-7.89764567278325557708740234375</LongitudeDegrees>
            </Position>
            <AltitudeMeters>662</AltitudeMeters>
            <DistanceMeters>34335.005299473</DistanceMeters>
          </Trackpoint>
          <Trackpoint>
            <Time>2019-07-26T11:00:24.000Z</Time>
            <Position>
              <LatitudeDegrees>42.943429313600063323974609375</LatitudeDegrees>
              <LongitudeDegrees>-7.8976543061435222625732421875</LongitudeDegrees>
            </Position>
            <AltitudeMeters>662.5999755859375</AltitudeMeters>
            <DistanceMeters>34348.709588213</DistanceMeters>
          </Trackpoint>
          <Trackpoint>
            <Time>2019-07-26T11:00:28.000Z</Time>
            <Position>
              <LatitudeDegrees>42.94354028999805450439453125</LatitudeDegrees>
              <LongitudeDegrees>-7.8976590000092983245849609375</LongitudeDegrees>
            </Position>
            <AltitudeMeters>663</AltitudeMeters>
            <DistanceMeters>34361.067080788</DistanceMeters>
          </Trackpoint>
          <Trackpoint>
            <Time>2019-07-26T11:00:31.000Z</Time>
            <Position>
              <LatitudeDegrees>42.94363819062709808349609375</LatitudeDegrees>
              <LongitudeDegrees>-7.89766478352248668670654296875</LongitudeDegrees>
            </Position>
            <AltitudeMeters>663.4000244140625</AltitudeMeters>
            <DistanceMeters>34371.974061446</DistanceMeters>
          </Trackpoint>
          <Trackpoint>
            <Time>2019-07-26T11:00:36.000Z</Time>
            <Position>
              <LatitudeDegrees>42.94381261803209781646728515625</LatitudeDegrees>
              <LongitudeDegrees>-7.8976697288453578948974609375</LongitudeDegrees>
            </Position>
            <AltitudeMeters>664.20001220703125</AltitudeMeters>
            <DistanceMeters>34391.392091006</DistanceMeters>
          </Trackpoint>
          <Trackpoint>
            <Time>2019-07-26T11:00:41.000Z</Time>
            <Position>
              <LatitudeDegrees>42.94398796744644641876220703125</LatitudeDegrees>
              <LongitudeDegrees>-7.89768624119460582733154296875</LongitudeDegrees>
            </Position>
            <AltitudeMeters>664.5999755859375</AltitudeMeters>
            <DistanceMeters>34410.954904448</DistanceMeters>
          </Trackpoint>
          <Trackpoint>
            <Time>2019-07-26T11:00:45.000Z</Time>
            <Position>
              <LatitudeDegrees>42.94415225274860858917236328125</LatitudeDegrees>
              <LongitudeDegrees>-7.8976824693381786346435546875</LongitudeDegrees>
            </Position>
            <AltitudeMeters>664.5999755859375</AltitudeMeters>
            <DistanceMeters>34429.243041897</DistanceMeters>
          </Trackpoint>
          <Trackpoint>
            <Time>2019-07-26T11:00:46.000Z</Time>
            <Position>
              <LatitudeDegrees>42.94419399462640285491943359375</LatitudeDegrees>
              <LongitudeDegrees>-7.897681295871734619140625</LongitudeDegrees>
            </Position>
            <AltitudeMeters>664.79998779296875</AltitudeMeters>
            <DistanceMeters>34433.88964418</DistanceMeters>
          </Trackpoint>
          <Trackpoint>
            <Time>2019-07-26T11:00:53.000Z</Time>
            <Position>
              <LatitudeDegrees>42.9444701783359050750732421875</LatitudeDegrees>
              <LongitudeDegrees>-7.89766578935086727142333984375</LongitudeDegrees>
            </Position>
            <AltitudeMeters>665</AltitudeMeters>
            <DistanceMeters>34464.655414329</DistanceMeters>
          </Trackpoint>
          <Trackpoint>
            <Time>2019-07-26T11:00:54.000Z</Time>
            <Position>
              <LatitudeDegrees>42.94450722634792327880859375</LatitudeDegrees>
              <LongitudeDegrees>-7.89766277186572551727294921875</LongitudeDegrees>
            </Position>
            <AltitudeMeters>665.20001220703125</AltitudeMeters>
            <DistanceMeters>34468.78552503</DistanceMeters>
          </Trackpoint>
          <Trackpoint>
            <Time>2019-07-26T11:00:56.000Z</Time>
            <Position>
              <LatitudeDegrees>42.9445794783532619476318359375</LatitudeDegrees>
              <LongitudeDegrees>-7.89765690453350543975830078125</LongitudeDegrees>
            </Position>
            <AltitudeMeters>665.4000244140625</AltitudeMeters>
            <DistanceMeters>34476.840966006</DistanceMeters>
          </Trackpoint>
          <Trackpoint>
            <Time>2019-07-26T11:01:04.000Z</Time>
            <Position>
              <LatitudeDegrees>42.94488541781902313232421875</LatitudeDegrees>
              <LongitudeDegrees>-7.89763812907040119171142578125</LongitudeDegrees>
            </Position>
            <AltitudeMeters>666.20001220703125</AltitudeMeters>
            <DistanceMeters>34510.926957053</DistanceMeters>
          </Trackpoint>
          <Trackpoint>
            <Time>2019-07-26T11:01:05.000Z</Time>
            <Position>
              <LatitudeDegrees>42.94492288492619991302490234375</LatitudeDegrees>
              <LongitudeDegrees>-7.89763368666172027587890625</LongitudeDegrees>
            </Position>
            <AltitudeMeters>666.20001220703125</AltitudeMeters>
            <DistanceMeters>34515.112449653</DistanceMeters>
          </Trackpoint>
          <Trackpoint>
            <Time>2019-07-26T11:01:12.000Z</Time>
            <Position>
              <LatitudeDegrees>42.945206947624683380126953125</LatitudeDegrees>
              <LongitudeDegrees>-7.89760015904903411865234375</LongitudeDegrees>
            </Position>
            <AltitudeMeters>666.79998779296875</AltitudeMeters>
            <DistanceMeters>34546.847104299</DistanceMeters>
          </Trackpoint>
          <Trackpoint>
            <Time>2019-07-26T11:01:18.000Z</Time>
            <Position>
              <LatitudeDegrees>42.94545178301632404327392578125</LatitudeDegrees>
              <LongitudeDegrees>-7.897582389414310455322265625</LongitudeDegrees>
            </Position>
            <AltitudeMeters>667</AltitudeMeters>
            <DistanceMeters>34574.136156026</DistanceMeters>
          </Trackpoint>
          <Trackpoint>
            <Time>2019-07-26T11:01:22.000Z</Time>
            <Position>
              <LatitudeDegrees>42.94559662230312824249267578125</LatitudeDegrees>
              <LongitudeDegrees>-7.8975755162537097930908203125</LongitudeDegrees>
            </Position>
            <AltitudeMeters>667</AltitudeMeters>
            <DistanceMeters>34590.266923297</DistanceMeters>
          </Trackpoint>
          <Trackpoint>
            <Time>2019-07-26T11:01:26.000Z</Time>
            <Position>
              <LatitudeDegrees>42.945744730532169342041015625</LatitudeDegrees>
              <LongitudeDegrees>-7.89756252430379390716552734375</LongitudeDegrees>
            </Position>
            <AltitudeMeters>667.20001220703125</AltitudeMeters>
            <DistanceMeters>34606.785452889</DistanceMeters>
          </Trackpoint>
          <Trackpoint>
            <Time>2019-07-26T11:01:27.000Z</Time>
            <Position>
              <LatitudeDegrees>42.94577985070645809173583984375</LatitudeDegrees>
              <LongitudeDegrees>-7.89756185375154018402099609375</LongitudeDegrees>
            </Position>
            <AltitudeMeters>667.20001220703125</AltitudeMeters>
            <DistanceMeters>34610.696584375</DistanceMeters>
          </Trackpoint>
          <Trackpoint>
            <Time>2019-07-26T11:01:30.000Z</Time>
            <Position>
              <LatitudeDegrees>42.94587691314518451690673828125</LatitudeDegrees>
              <LongitudeDegrees>-7.89756487123668193817138671875</LongitudeDegrees>
            </Position>
            <AltitudeMeters>667.79998779296875</AltitudeMeters>
            <DistanceMeters>34621.502504905</DistanceMeters>
          </Trackpoint>
          <Trackpoint>
            <Time>2019-07-26T11:01:34.000Z</Time>
            <Position>
              <LatitudeDegrees>42.9460027255117893218994140625</LatitudeDegrees>
              <LongitudeDegrees>-7.89755523204803466796875</LongitudeDegrees>
            </Position>
            <AltitudeMeters>668.4000244140625</AltitudeMeters>
            <DistanceMeters>34635.527237526</DistanceMeters>
          </Trackpoint>
          <Trackpoint>
            <Time>2019-07-26T11:01:37.000Z</Time>
            <Position>
              <LatitudeDegrees>42.94610372744500637054443359375</LatitudeDegrees>
              <LongitudeDegrees>-7.89754056371748447418212890625</LongitudeDegrees>
            </Position>
            <AltitudeMeters>669</AltitudeMeters>
            <DistanceMeters>34646.831822518</DistanceMeters>
          </Trackpoint>
          <Trackpoint>
            <Time>2019-07-26T11:01:39.000Z</Time>
            <Position>
              <LatitudeDegrees>42.94617128558456897735595703125</LatitudeDegrees>
              <LongitudeDegrees>-7.8975285775959491729736328125</LongitudeDegrees>
            </Position>
            <AltitudeMeters>669.5999755859375</AltitudeMeters>
            <DistanceMeters>34654.4137396</DistanceMeters>
          </Trackpoint>
          <Trackpoint>
            <Time>2019-07-26T11:01:46.000Z</Time>
            <Position>
              <LatitudeDegrees>42.9464298672974109649658203125</LatitudeDegrees>
              <LongitudeDegrees>-7.897472083568572998046875</LongitudeDegrees>
            </Position>
            <AltitudeMeters>670.5999755859375</AltitudeMeters>
            <DistanceMeters>34683.560153986</DistanceMeters>
          </Trackpoint>
          <Trackpoint>
            <Time>2019-07-26T11:01:52.000Z</Time>
            <Position>
              <LatitudeDegrees>42.946661375463008880615234375</LatitudeDegrees>
              <LongitudeDegrees>-7.8974038548767566680908203125</LongitudeDegrees>
            </Position>
            <AltitudeMeters>671.79998779296875</AltitudeMeters>
            <DistanceMeters>34709.920091812</DistanceMeters>
          </Trackpoint>
          <Trackpoint>
            <Time>2019-07-26T11:01:55.000Z</Time>
            <Position>
              <LatitudeDegrees>42.946775369346141815185546875</LatitudeDegrees>
              <LongitudeDegrees>-7.8973827324807643890380859375</LongitudeDegrees>
            </Position>
            <AltitudeMeters>672.5999755859375</AltitudeMeters>
            <DistanceMeters>34722.724390618</DistanceMeters>
          </Trackpoint>
          <Trackpoint>
            <Time>2019-07-26T11:01:56.000Z</Time>
            <Position>
              <LatitudeDegrees>42.94681233353912830352783203125</LatitudeDegrees>
              <LongitudeDegrees>-7.89738415740430355072021484375</LongitudeDegrees>
            </Position>
            <AltitudeMeters>672.79998779296875</AltitudeMeters>
            <DistanceMeters>34726.841362015</DistanceMeters>
          </Trackpoint>
          <Trackpoint>
            <Time>2019-07-26T11:02:01.000Z</Time>
            <Position>
              <LatitudeDegrees>42.94701014645397663116455078125</LatitudeDegrees>
              <LongitudeDegrees>-7.89741097949445247650146484375</LongitudeDegrees>
            </Position>
            <AltitudeMeters>673.79998779296875</AltitudeMeters>
            <DistanceMeters>34748.96647092</DistanceMeters>
          </Trackpoint>
          <Trackpoint>
            <Time>2019-07-26T11:02:03.000Z</Time>
            <Position>
              <LatitudeDegrees>42.947087176144123077392578125</LatitudeDegrees>
              <LongitudeDegrees>-7.89742321707308292388916015625</LongitudeDegrees>
            </Position>
            <AltitudeMeters>674.4000244140625</AltitudeMeters>
            <DistanceMeters>34757.597700882</DistanceMeters>
          </Trackpoint>
          <Trackpoint>
            <Time>2019-07-26T11:02:07.000Z</Time>
            <Position>
              <LatitudeDegrees>42.94724081642925739288330078125</LatitudeDegrees>
              <LongitudeDegrees>-7.8974390588700771331787109375</LongitudeDegrees>
            </Position>
            <AltitudeMeters>675</AltitudeMeters>
            <DistanceMeters>34774.746797932</DistanceMeters>
          </Trackpoint>
          <Trackpoint>
            <Time>2019-07-26T11:02:11.000Z</Time>
            <Position>
              <LatitudeDegrees>42.94739537872374057769775390625</LatitudeDegrees>
              <LongitudeDegrees>-7.8974541462957859039306640625</LongitudeDegrees>
            </Position>
            <AltitudeMeters>675.4000244140625</AltitudeMeters>
            <DistanceMeters>34791.993557572</DistanceMeters>
          </Trackpoint>
          <Trackpoint>
            <Time>2019-07-26T11:02:14.000Z</Time>
            <Position>
              <LatitudeDegrees>42.94751607812941074371337890625</LatitudeDegrees>
              <LongitudeDegrees>-7.89746412076056003570556640625</LongitudeDegrees>
            </Position>
            <AltitudeMeters>676.20001220703125</AltitudeMeters>
            <DistanceMeters>34805.452172039</DistanceMeters>
          </Trackpoint>
          <Trackpoint>
            <Time>2019-07-26T11:02:18.000Z</Time>
            <Position>
              <LatitudeDegrees>42.94770441949367523193359375</LatitudeDegrees>
              <LongitudeDegrees>-7.8974930383265018463134765625</LongitudeDegrees>
            </Position>
            <AltitudeMeters>676.4000244140625</AltitudeMeters>
            <DistanceMeters>34826.547032482</DistanceMeters>
          </Trackpoint>
          <Trackpoint>
            <Time>2019-07-26T11:02:21.000Z</Time>
            <Position>
              <LatitudeDegrees>42.947858311235904693603515625</LatitudeDegrees>
              <LongitudeDegrees>-7.897524721920490264892578125</LongitudeDegrees>
            </Position>
            <AltitudeMeters>676.5999755859375</AltitudeMeters>
            <DistanceMeters>34843.869023709</DistanceMeters>
          </Trackpoint>
          <Trackpoint>
            <Time>2019-07-26T11:02:25.000Z</Time>
            <Position>
              <LatitudeDegrees>42.94805721379816532135009765625</LatitudeDegrees>
              <LongitudeDegrees>-7.89756529033184051513671875</LongitudeDegrees>
            </Position>
            <AltitudeMeters>676.5999755859375</AltitudeMeters>
            <DistanceMeters>34866.252807828</DistanceMeters>
          </Trackpoint>
          <Trackpoint>
            <Time>2019-07-26T11:02:31.000Z</Time>
            <Position>
              <LatitudeDegrees>42.9484212398529052734375</LatitudeDegrees>
              <LongitudeDegrees>-7.89770166389644145965576171875</LongitudeDegrees>
            </Position>
            <AltitudeMeters>676.4000244140625</AltitudeMeters>
            <DistanceMeters>34908.265363833</DistanceMeters>
          </Trackpoint>
          <Trackpoint>
            <Time>2019-07-26T11:02:35.000Z</Time>
            <Position>
              <LatitudeDegrees>42.9486842639744281768798828125</LatitudeDegrees>
              <LongitudeDegrees>-7.89785069413483142852783203125</LongitudeDegrees>
            </Position>
            <AltitudeMeters>676</AltitudeMeters>
            <DistanceMeters>34939.958304578</DistanceMeters>
          </Trackpoint>
          <Trackpoint>
            <Time>2019-07-26T11:02:37.000Z</Time>
            <Position>
              <LatitudeDegrees>42.94881510548293590545654296875</LatitudeDegrees>
              <LongitudeDegrees>-7.89793451316654682159423828125</LongitudeDegrees>
            </Position>
            <AltitudeMeters>675.4000244140625</AltitudeMeters>
            <DistanceMeters>34956.042821671</DistanceMeters>
          </Trackpoint>
          <Trackpoint>
            <Time>2019-07-26T11:02:40.000Z</Time>
            <Position>
              <LatitudeDegrees>42.9490128345787525177001953125</LatitudeDegrees>
              <LongitudeDegrees>-7.8980576433241367340087890625</LongitudeDegrees>
            </Position>
            <AltitudeMeters>675</AltitudeMeters>
            <DistanceMeters>34980.228567306</DistanceMeters>
          </Trackpoint>
          <Trackpoint>
            <Time>2019-07-26T11:02:43.000Z</Time>
            <Position>
              <LatitudeDegrees>42.9492066241800785064697265625</LatitudeDegrees>
              <LongitudeDegrees>-7.89818110875785350799560546875</LongitudeDegrees>
            </Position>
            <AltitudeMeters>674.4000244140625</AltitudeMeters>
            <DistanceMeters>35004.02777979</DistanceMeters>
          </Trackpoint>
          <Trackpoint>
            <Time>2019-07-26T11:02:45.000Z</Time>
            <Position>
              <LatitudeDegrees>42.94934819452464580535888671875</LatitudeDegrees>
              <LongitudeDegrees>-7.89827062748372554779052734375</LongitudeDegrees>
            </Position>
            <AltitudeMeters>674</AltitudeMeters>
            <DistanceMeters>35021.390905435</DistanceMeters>
          </Trackpoint>
          <Trackpoint>
            <Time>2019-07-26T11:02:46.000Z</Time>
            <Position>
              <LatitudeDegrees>42.94942128472030162811279296875</LatitudeDegrees>
              <LongitudeDegrees>-7.898319661617279052734375</LongitudeDegrees>
            </Position>
            <AltitudeMeters>673.79998779296875</AltitudeMeters>
            <DistanceMeters>35030.453883716</DistanceMeters>
          </Trackpoint>
          <Trackpoint>
            <Time>2019-07-26T11:02:47.000Z</Time>
            <Position>
              <LatitudeDegrees>42.94949672184884548187255859375</LatitudeDegrees>
              <LongitudeDegrees>-7.8983694501221179962158203125</LongitudeDegrees>
            </Position>
            <AltitudeMeters>673.4000244140625</AltitudeMeters>
            <DistanceMeters>35039.778130389</DistanceMeters>
          </Trackpoint>
          <Trackpoint>
            <Time>2019-07-26T11:02:50.000Z</Time>
            <Position>
              <LatitudeDegrees>42.949732504785060882568359375</LatitudeDegrees>
              <LongitudeDegrees>-7.8984723798930644989013671875</LongitudeDegrees>
            </Position>
            <AltitudeMeters>672.4000244140625</AltitudeMeters>
            <DistanceMeters>35067.328339923</DistanceMeters>
          </Trackpoint>
          <Trackpoint>
            <Time>2019-07-26T11:02:51.000Z</Time>
            <Position>
              <LatitudeDegrees>42.9498101212084293365478515625</LatitudeDegrees>
              <LongitudeDegrees>-7.898494340479373931884765625</LongitudeDegrees>
            </Position>
            <AltitudeMeters>672.20001220703125</AltitudeMeters>
            <DistanceMeters>35076.150995926</DistanceMeters>
          </Trackpoint>
          <Trackpoint>
            <Time>2019-07-26T11:02:52.000Z</Time>
            <Position>
              <LatitudeDegrees>42.9498889110982418060302734375</LatitudeDegrees>
              <LongitudeDegrees>-7.8985099308192729949951171875</LongitudeDegrees>
            </Position>
            <AltitudeMeters>671.79998779296875</AltitudeMeters>
            <DistanceMeters>35085.011950428</DistanceMeters>
          </Trackpoint>
          <Trackpoint>
            <Time>2019-07-26T11:02:53.000Z</Time>
            <Position>
              <LatitudeDegrees>42.94997155666351318359375</LatitudeDegrees>
              <LongitudeDegrees>-7.89851747453212738037109375</LongitudeDegrees>
            </Position>
            <AltitudeMeters>671.4000244140625</AltitudeMeters>
            <DistanceMeters>35094.23101109</DistanceMeters>
          </Trackpoint>
          <Trackpoint>
            <Time>2019-07-26T11:02:54.000Z</Time>
            <Position>
              <LatitudeDegrees>42.95005512423813343048095703125</LatitudeDegrees>
              <LongitudeDegrees>-7.89851554669439792633056640625</LongitudeDegrees>
            </Position>
            <AltitudeMeters>670.79998779296875</AltitudeMeters>
            <DistanceMeters>35103.532956719</DistanceMeters>
          </Trackpoint>
          <Trackpoint>
            <Time>2019-07-26T11:02:55.000Z</Time>
            <Position>
              <LatitudeDegrees>42.95013274066150188446044921875</LatitudeDegrees>
              <LongitudeDegrees>-7.8985062427818775177001953125</LongitudeDegrees>
            </Position>
            <AltitudeMeters>670.20001220703125</AltitudeMeters>
            <DistanceMeters>35112.204892871</DistanceMeters>
          </Trackpoint>
          <Trackpoint>
            <Time>2019-07-26T11:02:57.000Z</Time>
            <Position>
              <LatitudeDegrees>42.95026198960840702056884765625</LatitudeDegrees>
              <LongitudeDegrees>-7.89849442429840564727783203125</LongitudeDegrees>
            </Position>
            <AltitudeMeters>669.4000244140625</AltitudeMeters>
            <DistanceMeters>35126.622672164</DistanceMeters>
          </Trackpoint>
          <Trackpoint>
            <Time>2019-07-26T11:02:58.000Z</Time>
            <Position>
              <LatitudeDegrees>42.950323261320590972900390625</LatitudeDegrees>
              <LongitudeDegrees>-7.89850716479122638702392578125</LongitudeDegrees>
            </Position>
            <AltitudeMeters>669.20001220703125</AltitudeMeters>
            <DistanceMeters>35133.521114225</DistanceMeters>
          </Trackpoint>
          <Trackpoint>
            <Time>2019-07-26T11:02:59.000Z</Time>
            <Position>
              <LatitudeDegrees>42.950384281575679779052734375</LatitudeDegrees>
              <LongitudeDegrees>-7.89853666909039020538330078125</LongitudeDegrees>
            </Position>
            <AltitudeMeters>668.79998779296875</AltitudeMeters>
            <DistanceMeters>35140.72561833</DistanceMeters>
          </Trackpoint>
          <Trackpoint>
            <Time>2019-07-26T11:03:01.000Z</Time>
            <Position>
              <LatitudeDegrees>42.95051730237901210784912109375</LatitudeDegrees>
              <LongitudeDegrees>-7.89857019670307636260986328125</LongitudeDegrees>
            </Position>
            <AltitudeMeters>668</AltitudeMeters>
            <DistanceMeters>35155.780681224</DistanceMeters>
          </Trackpoint>
          <Trackpoint>
            <Time>2019-07-26T11:03:03.000Z</Time>
            <Position>
              <LatitudeDegrees>42.9506422765552997589111328125</LatitudeDegrees>
              <LongitudeDegrees>-7.8985494934022426605224609375</LongitudeDegrees>
            </Position>
            <AltitudeMeters>667.20001220703125</AltitudeMeters>
            <DistanceMeters>35169.792208334</DistanceMeters>
          </Trackpoint>
          <Trackpoint>
            <Time>2019-07-26T11:03:04.000Z</Time>
            <Position>
              <LatitudeDegrees>42.9506939090788364410400390625</LatitudeDegrees>
              <LongitudeDegrees>-7.89853566326200962066650390625</LongitudeDegrees>
            </Position>
            <AltitudeMeters>666.5999755859375</AltitudeMeters>
            <DistanceMeters>35175.648506682</DistanceMeters>
          </Trackpoint>
          <Trackpoint>
            <Time>2019-07-26T11:03:06.000Z</Time>
            <Position>
              <LatitudeDegrees>42.9507616348564624786376953125</LatitudeDegrees>
              <LongitudeDegrees>-7.898537255823612213134765625</LongitudeDegrees>
            </Position>
            <AltitudeMeters>665.5999755859375</AltitudeMeters>
            <DistanceMeters>35183.187425778</DistanceMeters>
          </Trackpoint>
          <Trackpoint>
            <Time>2019-07-26T11:03:07.000Z</Time>
            <Position>
              <LatitudeDegrees>42.950773537158966064453125</LatitudeDegrees>
              <LongitudeDegrees>-7.89856768213212490081787109375</LongitudeDegrees>
            </Position>
            <AltitudeMeters>665.20001220703125</AltitudeMeters>
            <DistanceMeters>35185.996747193</DistanceMeters>
          </Trackpoint>
          <Trackpoint>
            <Time>2019-07-26T11:03:09.000Z</Time>
            <Position>
              <LatitudeDegrees>42.95075275003910064697265625</LatitudeDegrees>
              <LongitudeDegrees>-7.89864714257419109344482421875</LongitudeDegrees>
            </Position>
            <AltitudeMeters>663.79998779296875</AltitudeMeters>
            <DistanceMeters>35192.871586835</DistanceMeters>
          </Trackpoint>
          <Trackpoint>
            <Time>2019-07-26T11:03:11.000Z</Time>
            <Position>
              <LatitudeDegrees>42.95067890547215938568115234375</LatitudeDegrees>
              <LongitudeDegrees>-7.89873481728136539459228515625</LongitudeDegrees>
            </Position>
            <AltitudeMeters>662.79998779296875</AltitudeMeters>
            <DistanceMeters>35203.760338081</DistanceMeters>
          </Trackpoint>
          <Trackpoint>
            <Time>2019-07-26T11:03:12.000Z</Time>
            <Position>
              <LatitudeDegrees>42.95063414610922336578369140625</LatitudeDegrees>
              <LongitudeDegrees>-7.89878728799521923065185546875</LongitudeDegrees>
            </Position>
            <AltitudeMeters>662.5999755859375</AltitudeMeters>
            <DistanceMeters>35210.324751596</DistanceMeters>
          </Trackpoint>
          <Trackpoint>
            <Time>2019-07-26T11:03:13.000Z</Time>
            <Position>
              <LatitudeDegrees>42.95058469288051128387451171875</LatitudeDegrees>
              <LongitudeDegrees>-7.8988458774983882904052734375</LongitudeDegrees>
            </Position>
            <AltitudeMeters>662.4000244140625</AltitudeMeters>
            <DistanceMeters>35217.61027075</DistanceMeters>
          </Trackpoint>
          <Trackpoint>
            <Time>2019-07-26T11:03:16.000Z</Time>
            <Position>
              <LatitudeDegrees>42.95041655190289020538330078125</LatitudeDegrees>
              <LongitudeDegrees>-7.89903757162392139434814453125</LongitudeDegrees>
            </Position>
            <AltitudeMeters>662</AltitudeMeters>
            <DistanceMeters>35241.984947149</DistanceMeters>
          </Trackpoint>
          <Trackpoint>
            <Time>2019-07-26T11:03:18.000Z</Time>
            <Position>
              <LatitudeDegrees>42.95029602013528347015380859375</LatitudeDegrees>
              <LongitudeDegrees>-7.899156510829925537109375</LongitudeDegrees>
            </Position>
            <AltitudeMeters>661.5999755859375</AltitudeMeters>
            <DistanceMeters>35258.533788751</DistanceMeters>
          </Trackpoint>
          <Trackpoint>
            <Time>2019-07-26T11:03:22.000Z</Time>
            <Position>
              <LatitudeDegrees>42.95008127577602863311767578125</LatitudeDegrees>
              <LongitudeDegrees>-7.89940050803124904632568359375</LongitudeDegrees>
            </Position>
            <AltitudeMeters>659.79998779296875</AltitudeMeters>
            <DistanceMeters>35289.62074391</DistanceMeters>
          </Trackpoint>
          <Trackpoint>
            <Time>2019-07-26T11:03:24.000Z</Time>
            <Position>
              <LatitudeDegrees>42.95005193911492824554443359375</LatitudeDegrees>
              <LongitudeDegrees>-7.89951953105628490447998046875</LongitudeDegrees>
            </Position>
            <AltitudeMeters>658.5999755859375</AltitudeMeters>
            <DistanceMeters>35299.85234575</DistanceMeters>
          </Trackpoint>
          <Trackpoint>
            <Time>2019-07-26T11:03:25.000Z</Time>
            <Position>
              <LatitudeDegrees>42.95006250031292438507080078125</LatitudeDegrees>
              <LongitudeDegrees>-7.89958289824426174163818359375</LongitudeDegrees>
            </Position>
            <AltitudeMeters>657.79998779296875</AltitudeMeters>
            <DistanceMeters>35305.146621648</DistanceMeters>
          </Trackpoint>
          <Trackpoint>
            <Time>2019-07-26T11:03:26.000Z</Time>
            <Position>
              <LatitudeDegrees>42.95008915476500988006591796875</LatitudeDegrees>
              <LongitudeDegrees>-7.8996486961841583251953125</LongitudeDegrees>
            </Position>
            <AltitudeMeters>657.20001220703125</AltitudeMeters>
            <DistanceMeters>35311.2727132</DistanceMeters>
          </Trackpoint>
          <Trackpoint>
            <Time>2019-07-26T11:03:27.000Z</Time>
            <Position>
              <LatitudeDegrees>42.95012176036834716796875</LatitudeDegrees>
              <LongitudeDegrees>-7.8997165895998477935791015625</LongitudeDegrees>
            </Position>
            <AltitudeMeters>656.20001220703125</AltitudeMeters>
            <DistanceMeters>35317.887828501</DistanceMeters>
          </Trackpoint>
          <Trackpoint>
            <Time>2019-07-26T11:03:28.000Z</Time>
            <Position>
              <LatitudeDegrees>42.95015503652393817901611328125</LatitudeDegrees>
              <LongitudeDegrees>-7.8997802920639514923095703125</LongitudeDegrees>
            </Position>
            <AltitudeMeters>655.4000244140625</AltitudeMeters>
            <DistanceMeters>35324.263830708</DistanceMeters>
          </Trackpoint>
          <Trackpoint>
            <Time>2019-07-26T11:03:29.000Z</Time>
            <Position>
              <LatitudeDegrees>42.950189821422100067138671875</LatitudeDegrees>
              <LongitudeDegrees>-7.89983686991035938262939453125</LongitudeDegrees>
            </Position>
            <AltitudeMeters>654.4000244140625</AltitudeMeters>
            <DistanceMeters>35330.282856102</DistanceMeters>
          </Trackpoint>
          <Trackpoint>
            <Time>2019-07-26T11:03:30.000Z</Time>
            <Position>
              <LatitudeDegrees>42.95021907426416873931884765625</LatitudeDegrees>
              <LongitudeDegrees>-7.8998922742903232574462890625</LongitudeDegrees>
            </Position>
            <AltitudeMeters>653.5999755859375</AltitudeMeters>
            <DistanceMeters>35335.849021055</DistanceMeters>
          </Trackpoint>
          <Trackpoint>
            <Time>2019-07-26T11:03:31.000Z</Time>
            <Position>
              <LatitudeDegrees>42.95024581253528594970703125</LatitudeDegrees>
              <LongitudeDegrees>-7.89994097314774990081787109375</LongitudeDegrees>
            </Position>
            <AltitudeMeters>652.5999755859375</AltitudeMeters>
            <DistanceMeters>35340.808650903</DistanceMeters>
          </Trackpoint>
          <Trackpoint>
            <Time>2019-07-26T11:03:32.000Z</Time>
            <Position>
              <LatitudeDegrees>42.95027137733995914459228515625</LatitudeDegrees>
              <LongitudeDegrees>-7.89998137392103672027587890625</LongitudeDegrees>
            </Position>
            <AltitudeMeters>651.79998779296875</AltitudeMeters>
            <DistanceMeters>35345.159172737</DistanceMeters>
          </Trackpoint>
          <Trackpoint>
            <Time>2019-07-26T11:03:34.000Z</Time>
            <Position>
              <LatitudeDegrees>42.9503163881599903106689453125</LatitudeDegrees>
              <LongitudeDegrees>-7.9000510275363922119140625</LongitudeDegrees>
            </Position>
            <AltitudeMeters>650.79998779296875</AltitudeMeters>
            <DistanceMeters>35352.728573971</DistanceMeters>
          </Trackpoint>
          <Trackpoint>
            <Time>2019-07-26T11:03:36.000Z</Time>
            <Position>
              <LatitudeDegrees>42.9503495804965496063232421875</LatitudeDegrees>
              <LongitudeDegrees>-7.9001138918101787567138671875</LongitudeDegrees>
            </Position>
            <AltitudeMeters>650.5999755859375</AltitudeMeters>
            <DistanceMeters>35359.043383356</DistanceMeters>
          </Trackpoint>
          <Trackpoint>
            <Time>2019-07-26T11:03:38.000Z</Time>
            <Position>
              <LatitudeDegrees>42.95037615112960338592529296875</LatitudeDegrees>
              <LongitudeDegrees>-7.90018237195909023284912109375</LongitudeDegrees>
            </Position>
            <AltitudeMeters>650.4000244140625</AltitudeMeters>
            <DistanceMeters>35365.356762596</DistanceMeters>
          </Trackpoint>
          <Trackpoint>
            <Time>2019-07-26T11:03:40.000Z</Time>
            <Position>
              <LatitudeDegrees>42.95039467513561248779296875</LatitudeDegrees>
              <LongitudeDegrees>-7.900264598429203033447265625</LongitudeDegrees>
            </Position>
            <AltitudeMeters>650.4000244140625</AltitudeMeters>
            <DistanceMeters>35372.366230902</DistanceMeters>
          </Trackpoint>
          <Trackpoint>
            <Time>2019-07-26T11:03:42.000Z</Time>
            <Position>
              <LatitudeDegrees>42.9504122771322727203369140625</LatitudeDegrees>
              <LongitudeDegrees>-7.900343723595142364501953125</LongitudeDegrees>
            </Position>
            <AltitudeMeters>650.4000244140625</AltitudeMeters>
            <DistanceMeters>35379.103082111</DistanceMeters>
          </Trackpoint>
          <Trackpoint>
            <Time>2019-07-26T11:03:45.000Z</Time>
            <Position>
              <LatitudeDegrees>42.95045209117233753204345703125</LatitudeDegrees>
              <LongitudeDegrees>-7.900443635880947113037109375</LongitudeDegrees>
            </Position>
            <AltitudeMeters>651</AltitudeMeters>
            <DistanceMeters>35388.370988408</DistanceMeters>
          </Trackpoint>
          <Trackpoint>
            <Time>2019-07-26T11:03:47.000Z</Time>
            <Position>
              <LatitudeDegrees>42.95047589577734470367431640625</LatitudeDegrees>
              <LongitudeDegrees>-7.900496609508991241455078125</LongitudeDegrees>
            </Position>
            <AltitudeMeters>651.4000244140625</AltitudeMeters>
            <DistanceMeters>35393.435118847</DistanceMeters>
          </Trackpoint>
          <Trackpoint>
            <Time>2019-07-26T11:03:50.000Z</Time>
            <Position>
              <LatitudeDegrees>42.9505088366568088531494140625</LatitudeDegrees>
              <LongitudeDegrees>-7.900575064122676849365234375</LongitudeDegrees>
            </Position>
            <AltitudeMeters>651.79998779296875</AltitudeMeters>
            <DistanceMeters>35400.804439014</DistanceMeters>
          </Trackpoint>
          <Trackpoint>
            <Time>2019-07-26T11:03:54.000Z</Time>
            <Position>
              <LatitudeDegrees>42.95054328627884387969970703125</LatitudeDegrees>
              <LongitudeDegrees>-7.90067799389362335205078125</LongitudeDegrees>
            </Position>
            <AltitudeMeters>653</AltitudeMeters>
            <DistanceMeters>35410.024479125</DistanceMeters>
          </Trackpoint>
          <Trackpoint>
            <Time>2019-07-26T11:03:57.000Z</Time>
            <Position>
              <LatitudeDegrees>42.9505638219416141510009765625</LatitudeDegrees>
              <LongitudeDegrees>-7.90077011100947856903076171875</LongitudeDegrees>
            </Position>
            <AltitudeMeters>653.5999755859375</AltitudeMeters>
            <DistanceMeters>35417.869796266</DistanceMeters>
          </Trackpoint>
          <Trackpoint>
            <Time>2019-07-26T11:03:58.000Z</Time>
            <Position>
              <LatitudeDegrees>42.95056977309286594390869140625</LatitudeDegrees>
              <LongitudeDegrees>-7.900798022747039794921875</LongitudeDegrees>
            </Position>
            <AltitudeMeters>654</AltitudeMeters>
            <DistanceMeters>35420.239755664</DistanceMeters>
          </Trackpoint>
          <Trackpoint>
            <Time>2019-07-26T11:04:02.000Z</Time>
            <Position>
              <LatitudeDegrees>42.95059760101139545440673828125</LatitudeDegrees>
              <LongitudeDegrees>-7.9009162075817584991455078125</LongitudeDegrees>
            </Position>
            <AltitudeMeters>654.79998779296875</AltitudeMeters>
            <DistanceMeters>35430.353741325</DistanceMeters>
          </Trackpoint>
          <Trackpoint>
            <Time>2019-07-26T11:04:04.000Z</Time>
            <Position>
              <LatitudeDegrees>42.95061486773192882537841796875</LatitudeDegrees>
              <LongitudeDegrees>-7.90097295306622982025146484375</LongitudeDegrees>
            </Position>
            <AltitudeMeters>655.20001220703125</AltitudeMeters>
            <DistanceMeters>35435.360485997</DistanceMeters>
          </Trackpoint>
          <Trackpoint>
            <Time>2019-07-26T11:04:08.000Z</Time>
            <Position>
              <LatitudeDegrees>42.95064051635563373565673828125</LatitudeDegrees>
              <LongitudeDegrees>-7.9010915569961071014404296875</LongitudeDegrees>
            </Position>
            <AltitudeMeters>656.20001220703125</AltitudeMeters>
            <DistanceMeters>35445.436006797</DistanceMeters>
          </Trackpoint>
          <Trackpoint>
            <Time>2019-07-26T11:04:09.000Z</Time>
            <Position>
              <LatitudeDegrees>42.9506446234881877899169921875</LatitudeDegrees>
              <LongitudeDegrees>-7.90112785063683986663818359375</LongitudeDegrees>
            </Position>
            <AltitudeMeters>656.4000244140625</AltitudeMeters>
            <DistanceMeters>35448.428971185</DistanceMeters>
          </Trackpoint>
          <Trackpoint>
            <Time>2019-07-26T11:04:14.000Z</Time>
            <Position>
              <LatitudeDegrees>42.95067639090120792388916015625</LatitudeDegrees>
              <LongitudeDegrees>-7.9013007692992687225341796875</LongitudeDegrees>
            </Position>
            <AltitudeMeters>657</AltitudeMeters>
            <DistanceMeters>35462.953144684</DistanceMeters>
          </Trackpoint>
          <Trackpoint>
            <Time>2019-07-26T11:04:16.000Z</Time>
            <Position>
              <LatitudeDegrees>42.95069315470755100250244140625</LatitudeDegrees>
              <LongitudeDegrees>-7.9013733565807342529296875</LongitudeDegrees>
            </Position>
            <AltitudeMeters>657.4000244140625</AltitudeMeters>
            <DistanceMeters>35469.154684458</DistanceMeters>
          </Trackpoint>
          <Trackpoint>
            <Time>2019-07-26T11:04:20.000Z</Time>
            <Position>
              <LatitudeDegrees>42.95072835870087146759033203125</LatitudeDegrees>
              <LongitudeDegrees>-7.901504449546337127685546875</LongitudeDegrees>
            </Position>
            <AltitudeMeters>658.20001220703125</AltitudeMeters>
            <DistanceMeters>35480.530934086</DistanceMeters>
          </Trackpoint>
          <Trackpoint>
            <Time>2019-07-26T11:04:23.000Z</Time>
            <Position>
              <LatitudeDegrees>42.9507535882294178009033203125</LatitudeDegrees>
              <LongitudeDegrees>-7.90160461328923702239990234375</LongitudeDegrees>
            </Position>
            <AltitudeMeters>658.79998779296875</AltitudeMeters>
            <DistanceMeters>35489.161117775</DistanceMeters>
          </Trackpoint>
          <Trackpoint>
            <Time>2019-07-26T11:04:27.000Z</Time>
            <Position>
              <LatitudeDegrees>42.95077781192958354949951171875</LatitudeDegrees>
              <LongitudeDegrees>-7.9017165116965770721435546875</LongitudeDegrees>
            </Position>
            <AltitudeMeters>659.20001220703125</AltitudeMeters>
            <DistanceMeters>35498.667589521</DistanceMeters>
          </Trackpoint>
          <Trackpoint>
            <Time>2019-07-26T11:04:28.000Z</Time>
            <Position>
              <LatitudeDegrees>42.95079072006046772003173828125</LatitudeDegrees>
              <LongitudeDegrees>-7.90173637680709362030029296875</LongitudeDegrees>
            </Position>
            <AltitudeMeters>659.4000244140625</AltitudeMeters>
            <DistanceMeters>35500.830360798</DistanceMeters>
          </Trackpoint>
          <Trackpoint>
            <Time>2019-07-26T11:04:33.000Z</Time>
            <Position>
              <LatitudeDegrees>42.95085408724844455718994140625</LatitudeDegrees>
              <LongitudeDegrees>-7.90186009369790554046630859375</LongitudeDegrees>
            </Position>
            <AltitudeMeters>660</AltitudeMeters>
            <DistanceMeters>35513.131824981</DistanceMeters>
          </Trackpoint>
          <Trackpoint>
            <Time>2019-07-26T11:04:34.000Z</Time>
            <Position>
              <LatitudeDegrees>42.950865738093852996826171875</LatitudeDegrees>
              <LongitudeDegrees>-7.901888005435466766357421875</LongitudeDegrees>
            </Position>
            <AltitudeMeters>660.4000244140625</AltitudeMeters>
            <DistanceMeters>35515.751530709</DistanceMeters>
          </Trackpoint>
          <Trackpoint>
            <Time>2019-07-26T11:04:39.000Z</Time>
            <Position>
              <LatitudeDegrees>42.95091929845511913299560546875</LatitudeDegrees>
              <LongitudeDegrees>-7.90202102623879909515380859375</LongitudeDegrees>
            </Position>
            <AltitudeMeters>661.5999755859375</AltitudeMeters>
            <DistanceMeters>35528.119614431</DistanceMeters>
          </Trackpoint>
          <Trackpoint>
            <Time>2019-07-26T11:04:40.000Z</Time>
            <Position>
              <LatitudeDegrees>42.950936816632747650146484375</LatitudeDegrees>
              <LongitudeDegrees>-7.90204198099672794342041015625</LongitudeDegrees>
            </Position>
            <AltitudeMeters>661.79998779296875</AltitudeMeters>
            <DistanceMeters>35530.711597624</DistanceMeters>
          </Trackpoint>
          <Trackpoint>
            <Time>2019-07-26T11:04:44.000Z</Time>
            <Position>
              <LatitudeDegrees>42.9509840905666351318359375</LatitudeDegrees>
              <LongitudeDegrees>-7.90213351137936115264892578125</LongitudeDegrees>
            </Position>
            <AltitudeMeters>662.79998779296875</AltitudeMeters>
            <DistanceMeters>35539.837131305</DistanceMeters>
          </Trackpoint>
          <Trackpoint>
            <Time>2019-07-26T11:04:46.000Z</Time>
            <Position>
              <LatitudeDegrees>42.9510006867349147796630859375</LatitudeDegrees>
              <LongitudeDegrees>-7.902171649038791656494140625</LongitudeDegrees>
            </Position>
            <AltitudeMeters>663.20001220703125</AltitudeMeters>
            <DistanceMeters>35543.450646289</DistanceMeters>
          </Trackpoint>
          <Trackpoint>
            <Time>2019-07-26T11:04:50.000Z</Time>
            <Position>
              <LatitudeDegrees>42.9510055482387542724609375</LatitudeDegrees>
              <LongitudeDegrees>-7.90220551192760467529296875</LongitudeDegrees>
            </Position>
            <AltitudeMeters>664</AltitudeMeters>
            <DistanceMeters>35546.263180194</DistanceMeters>
          </Trackpoint>
          <Trackpoint>
            <Time>2019-07-26T11:07:17.000Z</Time>
            <Position>
              <LatitudeDegrees>42.95107352547347545623779296875</LatitudeDegrees>
              <LongitudeDegrees>-7.9022496007382869720458984375</LongitudeDegrees>
            </Position>
            <AltitudeMeters>665</AltitudeMeters>
            <DistanceMeters>35554.638479222</DistanceMeters>
          </Trackpoint>
          <Trackpoint>
            <Time>2019-07-26T11:07:18.000Z</Time>
            <Position>
              <LatitudeDegrees>42.9510838352143764495849609375</LatitudeDegrees>
              <LongitudeDegrees>-7.90226988494396209716796875</LongitudeDegrees>
            </Position>
            <AltitudeMeters>665</AltitudeMeters>
            <DistanceMeters>35556.649815655</DistanceMeters>
          </Trackpoint>
          <Trackpoint>
            <Time>2019-07-26T11:07:19.000Z</Time>
            <Position>
              <LatitudeDegrees>42.9510948993265628814697265625</LatitudeDegrees>
              <LongitudeDegrees>-7.902295030653476715087890625</LongitudeDegrees>
            </Position>
            <AltitudeMeters>665</AltitudeMeters>
            <DistanceMeters>35559.038750211</DistanceMeters>
          </Trackpoint>
          <Trackpoint>
            <Time>2019-07-26T11:07:24.000Z</Time>
            <Position>
              <LatitudeDegrees>42.9511691629886627197265625</LatitudeDegrees>
              <LongitudeDegrees>-7.9024189151823520660400390625</LongitudeDegrees>
            </Position>
            <AltitudeMeters>665.20001220703125</AltitudeMeters>
            <DistanceMeters>35572.084087335</DistanceMeters>
          </Trackpoint>
          <Trackpoint>
            <Time>2019-07-26T11:07:26.000Z</Time>
            <Position>
              <LatitudeDegrees>42.95119791291654109954833984375</LatitudeDegrees>
              <LongitudeDegrees>-7.9024703800678253173828125</LongitudeDegrees>
            </Position>
            <AltitudeMeters>665.4000244140625</AltitudeMeters>
            <DistanceMeters>35577.358712016</DistanceMeters>
          </Trackpoint>
          <Trackpoint>
            <Time>2019-07-26T11:07:29.000Z</Time>
            <Position>
              <LatitudeDegrees>42.951243259012699127197265625</LatitudeDegrees>
              <LongitudeDegrees>-7.90254891850054264068603515625</LongitudeDegrees>
            </Position>
            <AltitudeMeters>665.79998779296875</AltitudeMeters>
            <DistanceMeters>35585.507772217</DistanceMeters>
          </Trackpoint>
          <Trackpoint>
            <Time>2019-07-26T11:07:30.000Z</Time>
            <Position>
              <LatitudeDegrees>42.95125323347747325897216796875</LatitudeDegrees>
              <LongitudeDegrees>-7.90257976390421390533447265625</LongitudeDegrees>
            </Position>
            <AltitudeMeters>666</AltitudeMeters>
            <DistanceMeters>35588.255342763</DistanceMeters>
          </Trackpoint>
          <Trackpoint>
            <Time>2019-07-26T11:07:32.000Z</Time>
            <Position>
              <LatitudeDegrees>42.95127586461603641510009765625</LatitudeDegrees>
              <LongitudeDegrees>-7.9026393592357635498046875</LongitudeDegrees>
            </Position>
            <AltitudeMeters>666.4000244140625</AltitudeMeters>
            <DistanceMeters>35593.724953651</DistanceMeters>
          </Trackpoint>
          <Trackpoint>
            <Time>2019-07-26T11:07:35.000Z</Time>
            <Position>
              <LatitudeDegrees>42.95130528509616851806640625</LatitudeDegrees>
              <LongitudeDegrees>-7.90273415856063365936279296875</LongitudeDegrees>
            </Position>
            <AltitudeMeters>667</AltitudeMeters>
            <DistanceMeters>35602.113180856</DistanceMeters>
          </Trackpoint>
          <Trackpoint>
            <Time>2019-07-26T11:07:36.000Z</Time>
            <Position>
              <LatitudeDegrees>42.95131593011319637298583984375</LatitudeDegrees>
              <LongitudeDegrees>-7.902769781649112701416015625</LongitudeDegrees>
            </Position>
            <AltitudeMeters>667.20001220703125</AltitudeMeters>
            <DistanceMeters>35605.24906243</DistanceMeters>
          </Trackpoint>
          <Trackpoint>
            <Time>2019-07-26T11:07:40.000Z</Time>
            <Position>
              <LatitudeDegrees>42.951345182955265045166015625</LatitudeDegrees>
              <LongitudeDegrees>-7.9029137827455997467041015625</LongitudeDegrees>
            </Position>
            <AltitudeMeters>668</AltitudeMeters>
            <DistanceMeters>35617.42361272</DistanceMeters>
          </Trackpoint>
          <Trackpoint>
            <Time>2019-07-26T11:07:43.000Z</Time>
            <Position>
              <LatitudeDegrees>42.9513476975262165069580078125</LatitudeDegrees>
              <LongitudeDegrees>-7.9030277766287326812744140625</LongitudeDegrees>
            </Position>
            <AltitudeMeters>668.20001220703125</AltitudeMeters>
            <DistanceMeters>35626.713901771</DistanceMeters>
          </Trackpoint>
          <Trackpoint>
            <Time>2019-07-26T11:07:44.000Z</Time>
            <Position>
              <LatitudeDegrees>42.951349206268787384033203125</LatitudeDegrees>
              <LongitudeDegrees>-7.9030649922788143157958984375</LongitudeDegrees>
            </Position>
            <AltitudeMeters>668.4000244140625</AltitudeMeters>
            <DistanceMeters>35629.74881165</DistanceMeters>
          </Trackpoint>
          <Trackpoint>
            <Time>2019-07-26T11:07:48.000Z</Time>
            <Position>
              <LatitudeDegrees>42.9513609409332275390625</LatitudeDegrees>
              <LongitudeDegrees>-7.903195582330226898193359375</LongitudeDegrees>
            </Position>
            <AltitudeMeters>668.79998779296875</AltitudeMeters>
            <DistanceMeters>35640.467049962</DistanceMeters>
          </Trackpoint>
          <Trackpoint>
            <Time>2019-07-26T11:07:51.000Z</Time>
            <Position>
              <LatitudeDegrees>42.95136630535125732421875</LatitudeDegrees>
              <LongitudeDegrees>-7.903298176825046539306640625</LongitudeDegrees>
            </Position>
            <AltitudeMeters>669.4000244140625</AltitudeMeters>
            <DistanceMeters>35648.846660599</DistanceMeters>
          </Trackpoint>
          <Trackpoint>
            <Time>2019-07-26T11:07:56.000Z</Time>
            <Position>
              <LatitudeDegrees>42.95139287598431110382080078125</LatitudeDegrees>
              <LongitudeDegrees>-7.90348090231418609619140625</LongitudeDegrees>
            </Position>
            <AltitudeMeters>670</AltitudeMeters>
            <DistanceMeters>35664.023590128</DistanceMeters>
          </Trackpoint>
          <Trackpoint>
            <Time>2019-07-26T11:07:57.000Z</Time>
            <Position>
              <LatitudeDegrees>42.9513956420123577117919921875</LatitudeDegrees>
              <LongitudeDegrees>-7.90351753123104572296142578125</LongitudeDegrees>
            </Position>
            <AltitudeMeters>670.20001220703125</AltitudeMeters>
            <DistanceMeters>35667.02408779</DistanceMeters>
          </Trackpoint>
          <Trackpoint>
            <Time>2019-07-26T11:08:01.000Z</Time>
            <Position>
              <LatitudeDegrees>42.9514087177813053131103515625</LatitudeDegrees>
              <LongitudeDegrees>-7.9036607779562473297119140625</LongitudeDegrees>
            </Position>
            <AltitudeMeters>670.5999755859375</AltitudeMeters>
            <DistanceMeters>35678.784387565</DistanceMeters>
          </Trackpoint>
          <Trackpoint>
            <Time>2019-07-26T11:08:04.000Z</Time>
            <Position>
              <LatitudeDegrees>42.95142388902604579925537109375</LatitudeDegrees>
              <LongitudeDegrees>-7.90376664139330387115478515625</LongitudeDegrees>
            </Position>
            <AltitudeMeters>670.79998779296875</AltitudeMeters>
            <DistanceMeters>35687.572689098</DistanceMeters>
          </Trackpoint>
          <Trackpoint>
            <Time>2019-07-26T11:08:10.000Z</Time>
            <Position>
              <LatitudeDegrees>42.9514315165579319000244140625</LatitudeDegrees>
              <LongitudeDegrees>-7.90399094112217426300048828125</LongitudeDegrees>
            </Position>
            <AltitudeMeters>671.20001220703125</AltitudeMeters>
            <DistanceMeters>35705.865269908</DistanceMeters>
          </Trackpoint>
          <Trackpoint>
            <Time>2019-07-26T11:08:11.000Z</Time>
            <Position>
              <LatitudeDegrees>42.951427660882472991943359375</LatitudeDegrees>
              <LongitudeDegrees>-7.9040287435054779052734375</LongitudeDegrees>
            </Position>
            <AltitudeMeters>671.4000244140625</AltitudeMeters>
            <DistanceMeters>35708.973674932</DistanceMeters>
          </Trackpoint>
          <Trackpoint>
            <Time>2019-07-26T11:08:16.000Z</Time>
            <Position>
              <LatitudeDegrees>42.9514375515282154083251953125</LatitudeDegrees>
              <LongitudeDegrees>-7.904198728501796722412109375</LongitudeDegrees>
            </Position>
            <AltitudeMeters>671.79998779296875</AltitudeMeters>
            <DistanceMeters>35722.865137548</DistanceMeters>
          </Trackpoint>
          <Trackpoint>
            <Time>2019-07-26T11:08:18.000Z</Time>
            <Position>
              <LatitudeDegrees>42.951444089412689208984375</LatitudeDegrees>
              <LongitudeDegrees>-7.90426519699394702911376953125</LongitudeDegrees>
            </Position>
            <AltitudeMeters>672.79998779296875</AltitudeMeters>
            <DistanceMeters>35728.328967041</DistanceMeters>
          </Trackpoint>
          <Trackpoint>
            <Time>2019-07-26T11:08:23.000Z</Time>
            <Position>
              <LatitudeDegrees>42.95146009884774684906005859375</LatitudeDegrees>
              <LongitudeDegrees>-7.9044309072196483612060546875</LongitudeDegrees>
            </Position>
            <AltitudeMeters>673.79998779296875</AltitudeMeters>
            <DistanceMeters>35741.946000113</DistanceMeters>
          </Trackpoint>
          <Trackpoint>
            <Time>2019-07-26T11:08:28.000Z</Time>
            <Position>
              <LatitudeDegrees>42.95146864838898181915283203125</LatitudeDegrees>
              <LongitudeDegrees>-7.90459510870277881622314453125</LongitudeDegrees>
            </Position>
            <AltitudeMeters>674.79998779296875</AltitudeMeters>
            <DistanceMeters>35755.356892423</DistanceMeters>
          </Trackpoint>
          <Trackpoint>
            <Time>2019-07-26T11:08:30.000Z</Time>
            <Position>
              <LatitudeDegrees>42.95147183351218700408935546875</LatitudeDegrees>
              <LongitudeDegrees>-7.90465730242431163787841796875</LongitudeDegrees>
            </Position>
            <AltitudeMeters>675.4000244140625</AltitudeMeters>
            <DistanceMeters>35760.436156976</DistanceMeters>
          </Trackpoint>
          <Trackpoint>
            <Time>2019-07-26T11:08:32.000Z</Time>
            <Position>
              <LatitudeDegrees>42.95147820375859737396240234375</LatitudeDegrees>
              <LongitudeDegrees>-7.90472201071679592132568359375</LongitudeDegrees>
            </Position>
            <AltitudeMeters>675.79998779296875</AltitudeMeters>
            <DistanceMeters>35765.754258087</DistanceMeters>
          </Trackpoint>
          <Trackpoint>
            <Time>2019-07-26T11:08:38.000Z</Time>
            <Position>
              <LatitudeDegrees>42.95146697200834751129150390625</LatitudeDegrees>
              <LongitudeDegrees>-7.904950417578220367431640625</LongitudeDegrees>
            </Position>
            <AltitudeMeters>676.79998779296875</AltitudeMeters>
            <DistanceMeters>35784.403477755</DistanceMeters>
          </Trackpoint>
          <Trackpoint>
            <Time>2019-07-26T11:08:39.000Z</Time>
            <Position>
              <LatitudeDegrees>42.951463870704174041748046875</LatitudeDegrees>
              <LongitudeDegrees>-7.9049898125231266021728515625</LongitudeDegrees>
            </Position>
            <AltitudeMeters>677</AltitudeMeters>
            <DistanceMeters>35787.63158993</DistanceMeters>
          </Trackpoint>
          <Trackpoint>
            <Time>2019-07-26T11:08:45.000Z</Time>
            <Position>
              <LatitudeDegrees>42.9514586739242076873779296875</LatitudeDegrees>
              <LongitudeDegrees>-7.905203215777873992919921875</LongitudeDegrees>
            </Position>
            <AltitudeMeters>677.79998779296875</AltitudeMeters>
            <DistanceMeters>35805.025891909</DistanceMeters>
          </Trackpoint>
          <Trackpoint>
            <Time>2019-07-26T11:08:46.000Z</Time>
            <Position>
              <LatitudeDegrees>42.95145138166844844818115234375</LatitudeDegrees>
              <LongitudeDegrees>-7.90524420328438282012939453125</LongitudeDegrees>
            </Position>
            <AltitudeMeters>678.20001220703125</AltitudeMeters>
            <DistanceMeters>35808.462654919</DistanceMeters>
          </Trackpoint>
          <Trackpoint>
            <Time>2019-07-26T11:08:52.000Z</Time>
            <Position>
              <LatitudeDegrees>42.95140712521970272064208984375</LatitudeDegrees>
              <LongitudeDegrees>-7.90547654964029788970947265625</LongitudeDegrees>
            </Position>
            <AltitudeMeters>678.5999755859375</AltitudeMeters>
            <DistanceMeters>35828.021544419</DistanceMeters>
          </Trackpoint>
          <Trackpoint>
            <Time>2019-07-26T11:08:53.000Z</Time>
            <Position>
              <LatitudeDegrees>42.95139958150684833526611328125</LatitudeDegrees>
              <LongitudeDegrees>-7.90551493875682353973388671875</LongitudeDegrees>
            </Position>
            <AltitudeMeters>678.79998779296875</AltitudeMeters>
            <DistanceMeters>35831.260826566</DistanceMeters>
          </Trackpoint>
          <Trackpoint>
            <Time>2019-07-26T11:08:56.000Z</Time>
            <Position>
              <LatitudeDegrees>42.95137636363506317138671875</LatitudeDegrees>
              <LongitudeDegrees>-7.9056265018880367279052734375</LongitudeDegrees>
            </Position>
            <AltitudeMeters>679</AltitudeMeters>
            <DistanceMeters>35840.710133201</DistanceMeters>
          </Trackpoint>
          <Trackpoint>
            <Time>2019-07-26T11:09:00.000Z</Time>
            <Position>
              <LatitudeDegrees>42.95134074054658412933349609375</LatitudeDegrees>
              <LongitudeDegrees>-7.90576823987066745758056640625</LongitudeDegrees>
            </Position>
            <AltitudeMeters>679.5999755859375</AltitudeMeters>
            <DistanceMeters>35852.918754818</DistanceMeters>
          </Trackpoint>
          <Trackpoint>
            <Time>2019-07-26T11:09:03.000Z</Time>
            <Position>
              <LatitudeDegrees>42.9513086378574371337890625</LatitudeDegrees>
              <LongitudeDegrees>-7.90587888099253177642822265625</LongitudeDegrees>
            </Position>
            <AltitudeMeters>680</AltitudeMeters>
            <DistanceMeters>35862.614739856</DistanceMeters>
          </Trackpoint>
          <Trackpoint>
            <Time>2019-07-26T11:09:07.000Z</Time>
            <Position>
              <LatitudeDegrees>42.95126714743673801422119140625</LatitudeDegrees>
              <LongitudeDegrees>-7.9060238040983676910400390625</LongitudeDegrees>
            </Position>
            <AltitudeMeters>680.5999755859375</AltitudeMeters>
            <DistanceMeters>35875.292172583</DistanceMeters>
          </Trackpoint>
          <Trackpoint>
            <Time>2019-07-26T11:09:13.000Z</Time>
            <Position>
              <LatitudeDegrees>42.95121551491320133209228515625</LatitudeDegrees>
              <LongitudeDegrees>-7.90625556372106075286865234375</LongitudeDegrees>
            </Position>
            <AltitudeMeters>681.20001220703125</AltitudeMeters>
            <DistanceMeters>35895.027782208</DistanceMeters>
          </Trackpoint>
          <Trackpoint>
            <Time>2019-07-26T11:09:14.000Z</Time>
            <Position>
              <LatitudeDegrees>42.9512078873813152313232421875</LatitudeDegrees>
              <LongitudeDegrees>-7.90629043243825435638427734375</LongitudeDegrees>
            </Position>
            <AltitudeMeters>681.4000244140625</AltitudeMeters>
            <DistanceMeters>35897.99194556</DistanceMeters>
          </Trackpoint>
          <Trackpoint>
            <Time>2019-07-26T11:09:20.000Z</Time>
            <Position>
              <LatitudeDegrees>42.95114594511687755584716796875</LatitudeDegrees>
              <LongitudeDegrees>-7.90651003830134868621826171875</LongitudeDegrees>
            </Position>
            <AltitudeMeters>682.20001220703125</AltitudeMeters>
            <DistanceMeters>35917.164276971</DistanceMeters>
          </Trackpoint>
          <Trackpoint>
            <Time>2019-07-26T11:09:21.000Z</Time>
            <Position>
              <LatitudeDegrees>42.9511374793946743011474609375</LatitudeDegrees>
              <LongitudeDegrees>-7.9065434820950031280517578125</LongitudeDegrees>
            </Position>
            <AltitudeMeters>682.4000244140625</AltitudeMeters>
            <DistanceMeters>35920.04814597</DistanceMeters>
          </Trackpoint>
          <Trackpoint>
            <Time>2019-07-26T11:09:26.000Z</Time>
            <Position>
              <LatitudeDegrees>42.9510972462594509124755859375</LatitudeDegrees>
              <LongitudeDegrees>-7.9067241959273815155029296875</LongitudeDegrees>
            </Position>
            <AltitudeMeters>683.4000244140625</AltitudeMeters>
            <DistanceMeters>35935.436606734</DistanceMeters>
          </Trackpoint>
          <Trackpoint>
            <Time>2019-07-26T11:09:28.000Z</Time>
            <Position>
              <LatitudeDegrees>42.9510801471769809722900390625</LatitudeDegrees>
              <LongitudeDegrees>-7.90679334662854671478271484375</LongitudeDegrees>
            </Position>
            <AltitudeMeters>683.5999755859375</AltitudeMeters>
            <DistanceMeters>35941.382424531</DistanceMeters>
          </Trackpoint>
          <Trackpoint>
            <Time>2019-07-26T11:09:34.000Z</Time>
            <Position>
              <LatitudeDegrees>42.95099557377398014068603515625</LatitudeDegrees>
              <LongitudeDegrees>-7.907034493982791900634765625</LongitudeDegrees>
            </Position>
            <AltitudeMeters>684.20001220703125</AltitudeMeters>
            <DistanceMeters>35963.16656044</DistanceMeters>
          </Trackpoint>
          <Trackpoint>
            <Time>2019-07-26T11:09:35.000Z</Time>
            <Position>
              <LatitudeDegrees>42.950979061424732208251953125</LatitudeDegrees>
              <LongitudeDegrees>-7.90706693194806575775146484375</LongitudeDegrees>
            </Position>
            <AltitudeMeters>684.20001220703125</AltitudeMeters>
            <DistanceMeters>35966.387671713</DistanceMeters>
          </Trackpoint>
          <Trackpoint>
            <Time>2019-07-26T11:09:40.000Z</Time>
            <Position>
              <LatitudeDegrees>42.9508954100310802459716796875</LatitudeDegrees>
              <LongitudeDegrees>-7.9072098433971405029296875</LongitudeDegrees>
            </Position>
            <AltitudeMeters>684.79998779296875</AltitudeMeters>
            <DistanceMeters>35981.295058515</DistanceMeters>
          </Trackpoint>
          <Trackpoint>
            <Time>2019-07-26T11:09:41.000Z</Time>
            <Position>
              <LatitudeDegrees>42.950875461101531982421875</LatitudeDegrees>
              <LongitudeDegrees>-7.9072284512221813201904296875</LongitudeDegrees>
            </Position>
            <AltitudeMeters>685.20001220703125</AltitudeMeters>
            <DistanceMeters>35983.98281988</DistanceMeters>
          </Trackpoint>
          <Trackpoint>
            <Time>2019-07-26T11:09:46.000Z</Time>
            <Position>
              <LatitudeDegrees>42.95078895986080169677734375</LatitudeDegrees>
              <LongitudeDegrees>-7.9073444567620754241943359375</LongitudeDegrees>
            </Position>
            <AltitudeMeters>686.5999755859375</AltitudeMeters>
            <DistanceMeters>35997.473936247</DistanceMeters>
          </Trackpoint>
          <Trackpoint>
            <Time>2019-07-26T11:09:48.000Z</Time>
            <Position>
              <LatitudeDegrees>42.95075937174260616302490234375</LatitudeDegrees>
              <LongitudeDegrees>-7.90740405209362506866455078125</LongitudeDegrees>
            </Position>
            <AltitudeMeters>687.20001220703125</AltitudeMeters>
            <DistanceMeters>36003.339478954</DistanceMeters>
          </Trackpoint>
          <Trackpoint>
            <Time>2019-07-26T11:09:49.000Z</Time>
            <Position>
              <LatitudeDegrees>42.9507438652217388153076171875</LatitudeDegrees>
              <LongitudeDegrees>-7.907434143126010894775390625</LongitudeDegrees>
            </Position>
            <AltitudeMeters>687.5999755859375</AltitudeMeters>
            <DistanceMeters>36006.335458925</DistanceMeters>
          </Trackpoint>
          <Trackpoint>
            <Time>2019-07-26T11:09:52.000Z</Time>
            <Position>
              <LatitudeDegrees>42.9507193900644779205322265625</LatitudeDegrees>
              <LongitudeDegrees>-7.90752508677542209625244140625</LongitudeDegrees>
            </Position>
            <AltitudeMeters>688.5999755859375</AltitudeMeters>
            <DistanceMeters>36014.228970657</DistanceMeters>
          </Trackpoint>
          <Trackpoint>
            <Time>2019-07-26T11:09:54.000Z</Time>
            <Position>
              <LatitudeDegrees>42.9507079906761646270751953125</LatitudeDegrees>
              <LongitudeDegrees>-7.90757705457508563995361328125</LongitudeDegrees>
            </Position>
            <AltitudeMeters>689.20001220703125</AltitudeMeters>
            <DistanceMeters>36018.648479153</DistanceMeters>
          </Trackpoint>
          <Trackpoint>
            <Time>2019-07-26T11:09:56.000Z</Time>
            <Position>
              <LatitudeDegrees>42.950696088373661041259765625</LatitudeDegrees>
              <LongitudeDegrees>-7.907627262175083160400390625</LongitudeDegrees>
            </Position>
            <AltitudeMeters>689.79998779296875</AltitudeMeters>
            <DistanceMeters>36022.948897337</DistanceMeters>
          </Trackpoint>
          <Trackpoint>
            <Time>2019-07-26T11:10:00.000Z</Time>
            <Position>
              <LatitudeDegrees>42.95067320577800273895263671875</LatitudeDegrees>
              <LongitudeDegrees>-7.9077431000769138336181640625</LongitudeDegrees>
            </Position>
            <AltitudeMeters>691</AltitudeMeters>
            <DistanceMeters>36032.723262215</DistanceMeters>
          </Trackpoint>
          <Trackpoint>
            <Time>2019-07-26T11:10:04.000Z</Time>
            <Position>
              <LatitudeDegrees>42.95066365040838718414306640625</LatitudeDegrees>
              <LongitudeDegrees>-7.90787343867123126983642578125</LongitudeDegrees>
            </Position>
            <AltitudeMeters>692.20001220703125</AltitudeMeters>
            <DistanceMeters>36043.394216435</DistanceMeters>
          </Trackpoint>
          <Trackpoint>
            <Time>2019-07-26T11:10:08.000Z</Time>
            <Position>
              <LatitudeDegrees>42.95065887272357940673828125</LatitudeDegrees>
              <LongitudeDegrees>-7.9080002568662166595458984375</LongitudeDegrees>
            </Position>
            <AltitudeMeters>693.4000244140625</AltitudeMeters>
            <DistanceMeters>36053.73947941</DistanceMeters>
          </Trackpoint>
          <Trackpoint>
            <Time>2019-07-26T11:10:10.000Z</Time>
            <Position>
              <LatitudeDegrees>42.95066960155963897705078125</LatitudeDegrees>
              <LongitudeDegrees>-7.90805934928357601165771484375</LongitudeDegrees>
            </Position>
            <AltitudeMeters>694.5999755859375</AltitudeMeters>
            <DistanceMeters>36058.698198817</DistanceMeters>
          </Trackpoint>
          <Trackpoint>
            <Time>2019-07-26T11:10:13.000Z</Time>
            <Position>
              <LatitudeDegrees>42.95067655853927135467529296875</LatitudeDegrees>
              <LongitudeDegrees>-7.90815926156938076019287109375</LongitudeDegrees>
            </Position>
            <AltitudeMeters>696</AltitudeMeters>
            <DistanceMeters>36066.874914905</DistanceMeters>
          </Trackpoint>
          <Trackpoint>
            <Time>2019-07-26T11:10:15.000Z</Time>
            <Position>
              <LatitudeDegrees>42.950682006776332855224609375</LatitudeDegrees>
              <LongitudeDegrees>-7.90822061710059642791748046875</LongitudeDegrees>
            </Position>
            <AltitudeMeters>696.79998779296875</AltitudeMeters>
            <DistanceMeters>36071.910434208</DistanceMeters>
          </Trackpoint>
          <Trackpoint>
            <Time>2019-07-26T11:10:16.000Z</Time>
            <Position>
              <LatitudeDegrees>42.9506882093846797943115234375</LatitudeDegrees>
              <LongitudeDegrees>-7.90824945084750652313232421875</LongitudeDegrees>
            </Position>
            <AltitudeMeters>697.20001220703125</AltitudeMeters>
            <DistanceMeters>36074.359101348</DistanceMeters>
          </Trackpoint>
          <Trackpoint>
            <Time>2019-07-26T11:10:19.000Z</Time>
            <Position>
              <LatitudeDegrees>42.950715534389019012451171875</LatitudeDegrees>
              <LongitudeDegrees>-7.90833662264049053192138671875</LongitudeDegrees>
            </Position>
            <AltitudeMeters>698.20001220703125</AltitudeMeters>
            <DistanceMeters>36082.084369965</DistanceMeters>
          </Trackpoint>
          <Trackpoint>
            <Time>2019-07-26T11:10:22.000Z</Time>
            <Position>
              <LatitudeDegrees>42.950746715068817138671875</LatitudeDegrees>
              <LongitudeDegrees>-7.9084240458905696868896484375</LongitudeDegrees>
            </Position>
            <AltitudeMeters>699</AltitudeMeters>
            <DistanceMeters>36090.006429753</DistanceMeters>
          </Trackpoint>
          <Trackpoint>
            <Time>2019-07-26T11:10:24.000Z</Time>
            <Position>
              <LatitudeDegrees>42.95076725073158740997314453125</LatitudeDegrees>
              <LongitudeDegrees>-7.9084833897650241851806640625</LongitudeDegrees>
            </Position>
            <AltitudeMeters>699.5999755859375</AltitudeMeters>
            <DistanceMeters>36095.353318758</DistanceMeters>
          </Trackpoint>
          <Trackpoint>
            <Time>2019-07-26T11:10:30.000Z</Time>
            <Position>
              <LatitudeDegrees>42.95085492543876171112060546875</LatitudeDegrees>
              <LongitudeDegrees>-7.908657230436801910400390625</LongitudeDegrees>
            </Position>
            <AltitudeMeters>700.79998779296875</AltitudeMeters>
            <DistanceMeters>36112.551841485</DistanceMeters>
          </Trackpoint>
          <Trackpoint>
            <Time>2019-07-26T11:10:35.000Z</Time>
            <Position>
              <LatitudeDegrees>42.95094595290720462799072265625</LatitudeDegrees>
              <LongitudeDegrees>-7.90882428176701068878173828125</LongitudeDegrees>
            </Position>
            <AltitudeMeters>701.79998779296875</AltitudeMeters>
            <DistanceMeters>36129.518035719</DistanceMeters>
          </Trackpoint>
          <Trackpoint>
            <Time>2019-07-26T11:10:36.000Z</Time>
            <Position>
              <LatitudeDegrees>42.95096975751221179962158203125</LatitudeDegrees>
              <LongitudeDegrees>-7.90887105278670787811279296875</LongitudeDegrees>
            </Position>
            <AltitudeMeters>701.79998779296875</AltitudeMeters>
            <DistanceMeters>36134.158804224</DistanceMeters>
          </Trackpoint>
          <Trackpoint>
            <Time>2019-07-26T11:10:37.000Z</Time>
            <Position>
              <LatitudeDegrees>42.9509948194026947021484375</LatitudeDegrees>
              <LongitudeDegrees>-7.9089237749576568603515625</LongitudeDegrees>
            </Position>
            <AltitudeMeters>702</AltitudeMeters>
            <DistanceMeters>36139.279677392</DistanceMeters>
          </Trackpoint>
          <Trackpoint>
            <Time>2019-07-26T11:10:39.000Z</Time>
            <Position>
              <LatitudeDegrees>42.9510496370494365692138671875</LatitudeDegrees>
              <LongitudeDegrees>-7.9090386070311069488525390625</LongitudeDegrees>
            </Position>
            <AltitudeMeters>702</AltitudeMeters>
            <DistanceMeters>36150.44844975</DistanceMeters>
          </Trackpoint>
          <Trackpoint>
            <Time>2019-07-26T11:10:42.000Z</Time>
            <Position>
              <LatitudeDegrees>42.951149046421051025390625</LatitudeDegrees>
              <LongitudeDegrees>-7.90922946296632289886474609375</LongitudeDegrees>
            </Position>
            <AltitudeMeters>702</AltitudeMeters>
            <DistanceMeters>36169.531555442</DistanceMeters>
          </Trackpoint>
          <Trackpoint>
            <Time>2019-07-26T11:10:45.000Z</Time>
            <Position>
              <LatitudeDegrees>42.951261699199676513671875</LatitudeDegrees>
              <LongitudeDegrees>-7.909456528723239898681640625</LongitudeDegrees>
            </Position>
            <AltitudeMeters>701.79998779296875</AltitudeMeters>
            <DistanceMeters>36191.878396102</DistanceMeters>
          </Trackpoint>
          <Trackpoint>
            <Time>2019-07-26T11:10:47.000Z</Time>
            <Position>
              <LatitudeDegrees>42.95131593011319637298583984375</LatitudeDegrees>
              <LongitudeDegrees>-7.9096551798284053802490234375</LongitudeDegrees>
            </Position>
            <AltitudeMeters>701.5999755859375</AltitudeMeters>
            <DistanceMeters>36209.150792159</DistanceMeters>
          </Trackpoint>
          <Trackpoint>
            <Time>2019-07-26T11:10:49.000Z</Time>
            <Position>
              <LatitudeDegrees>42.9513423331081867218017578125</LatitudeDegrees>
              <LongitudeDegrees>-7.909897752106189727783203125</LongitudeDegrees>
            </Position>
            <AltitudeMeters>701.20001220703125</AltitudeMeters>
            <DistanceMeters>36229.12924077</DistanceMeters>
          </Trackpoint>
          <Trackpoint>
            <Time>2019-07-26T11:10:51.000Z</Time>
            <Position>
              <LatitudeDegrees>42.9513587616384029388427734375</LatitudeDegrees>
              <LongitudeDegrees>-7.91016370989382266998291015625</LongitudeDegrees>
            </Position>
            <AltitudeMeters>700.5999755859375</AltitudeMeters>
            <DistanceMeters>36250.872715246</DistanceMeters>
          </Trackpoint>
          <Trackpoint>
            <Time>2019-07-26T11:10:52.000Z</Time>
            <Position>
              <LatitudeDegrees>42.95136689208447933197021484375</LatitudeDegrees>
              <LongitudeDegrees>-7.910301424562931060791015625</LongitudeDegrees>
            </Position>
            <AltitudeMeters>700.20001220703125</AltitudeMeters>
            <DistanceMeters>36262.127665817</DistanceMeters>
          </Trackpoint>
          <Trackpoint>
            <Time>2019-07-26T11:10:54.000Z</Time>
            <Position>
              <LatitudeDegrees>42.9513778723776340484619140625</LatitudeDegrees>
              <LongitudeDegrees>-7.91057559661567211151123046875</LongitudeDegrees>
            </Position>
            <AltitudeMeters>699.5999755859375</AltitudeMeters>
            <DistanceMeters>36284.496316554</DistanceMeters>
          </Trackpoint>
          <Trackpoint>
            <Time>2019-07-26T11:10:55.000Z</Time>
            <Position>
              <LatitudeDegrees>42.951378710567951202392578125</LatitudeDegrees>
              <LongitudeDegrees>-7.9107139818370342254638671875</LongitudeDegrees>
            </Position>
            <AltitudeMeters>698.79998779296875</AltitudeMeters>
            <DistanceMeters>36295.77050637</DistanceMeters>
          </Trackpoint>
          <Trackpoint>
            <Time>2019-07-26T11:10:56.000Z</Time>
            <Position>
              <LatitudeDegrees>42.951377369463443756103515625</LatitudeDegrees>
              <LongitudeDegrees>-7.91085706092417240142822265625</LongitudeDegrees>
            </Position>
            <AltitudeMeters>698</AltitudeMeters>
            <DistanceMeters>36307.427460961</DistanceMeters>
          </Trackpoint>
          <Trackpoint>
            <Time>2019-07-26T11:10:57.000Z</Time>
            <Position>
              <LatitudeDegrees>42.9513745196163654327392578125</LatitudeDegrees>
              <LongitudeDegrees>-7.91100307367742061614990234375</LongitudeDegrees>
            </Position>
            <AltitudeMeters>697.4000244140625</AltitudeMeters>
            <DistanceMeters>36319.32668777</DistanceMeters>
          </Trackpoint>
          <Trackpoint>
            <Time>2019-07-26T11:10:58.000Z</Time>
            <Position>
              <LatitudeDegrees>42.95137292705476284027099609375</LatitudeDegrees>
              <LongitudeDegrees>-7.9111501760780811309814453125</LongitudeDegrees>
            </Position>
            <AltitudeMeters>696.79998779296875</AltitudeMeters>
            <DistanceMeters>36331.31211459</DistanceMeters>
          </Trackpoint>
          <Trackpoint>
            <Time>2019-07-26T11:10:59.000Z</Time>
            <Position>
              <LatitudeDegrees>42.95136295258998870849609375</LatitudeDegrees>
              <LongitudeDegrees>-7.9112956859171390533447265625</LongitudeDegrees>
            </Position>
            <AltitudeMeters>696</AltitudeMeters>
            <DistanceMeters>36343.218169353</DistanceMeters>
          </Trackpoint>
          <Trackpoint>
            <Time>2019-07-26T11:11:00.000Z</Time>
            <Position>
              <LatitudeDegrees>42.9513500444591045379638671875</LatitudeDegrees>
              <LongitudeDegrees>-7.9114415310323238372802734375</LongitudeDegrees>
            </Position>
            <AltitudeMeters>695.5999755859375</AltitudeMeters>
            <DistanceMeters>36355.186254937</DistanceMeters>
          </Trackpoint>
          <Trackpoint>
            <Time>2019-07-26T11:11:02.000Z</Time>
            <Position>
              <LatitudeDegrees>42.9513305984437465667724609375</LatitudeDegrees>
              <LongitudeDegrees>-7.91172089986503124237060546875</LongitudeDegrees>
            </Position>
            <AltitudeMeters>693.4000244140625</AltitudeMeters>
            <DistanceMeters>36378.048031434</DistanceMeters>
          </Trackpoint>
          <Trackpoint>
            <Time>2019-07-26T11:11:03.000Z</Time>
            <Position>
              <LatitudeDegrees>42.9513285867869853973388671875</LatitudeDegrees>
              <LongitudeDegrees>-7.9118502326309680938720703125</LongitudeDegrees>
            </Position>
            <AltitudeMeters>692.20001220703125</AltitudeMeters>
            <DistanceMeters>36388.58657546</DistanceMeters>
          </Trackpoint>
          <Trackpoint>
            <Time>2019-07-26T11:11:05.000Z</Time>
            <Position>
              <LatitudeDegrees>42.9513305984437465667724609375</LatitudeDegrees>
              <LongitudeDegrees>-7.9120983369648456573486328125</LongitudeDegrees>
            </Position>
            <AltitudeMeters>690</AltitudeMeters>
            <DistanceMeters>36408.799809708</DistanceMeters>
          </Trackpoint>
          <Trackpoint>
            <Time>2019-07-26T11:11:06.000Z</Time>
            <Position>
              <LatitudeDegrees>42.95132162980735301971435546875</LatitudeDegrees>
              <LongitudeDegrees>-7.9122228920459747314453125</LongitudeDegrees>
            </Position>
            <AltitudeMeters>689.4000244140625</AltitudeMeters>
            <DistanceMeters>36418.995604921</DistanceMeters>
          </Trackpoint>
          <Trackpoint>
            <Time>2019-07-26T11:11:07.000Z</Time>
            <Position>
              <LatitudeDegrees>42.9513010941445827484130859375</LatitudeDegrees>
              <LongitudeDegrees>-7.91234585456550121307373046875</LongitudeDegrees>
            </Position>
            <AltitudeMeters>689</AltitudeMeters>
            <DistanceMeters>36429.269922107</DistanceMeters>
          </Trackpoint>
          <Trackpoint>
            <Time>2019-07-26T11:11:09.000Z</Time>
            <Position>
              <LatitudeDegrees>42.9512387327849864959716796875</LatitudeDegrees>
              <LongitudeDegrees>-7.912576608359813690185546875</LongitudeDegrees>
            </Position>
            <AltitudeMeters>688</AltitudeMeters>
            <DistanceMeters>36449.309071277</DistanceMeters>
          </Trackpoint>
          <Trackpoint>
            <Time>2019-07-26T11:11:10.000Z</Time>
            <Position>
              <LatitudeDegrees>42.9511998407542705535888671875</LatitudeDegrees>
              <LongitudeDegrees>-7.912683226168155670166015625</LongitudeDegrees>
            </Position>
            <AltitudeMeters>687.79998779296875</AltitudeMeters>
            <DistanceMeters>36459.014365058</DistanceMeters>
          </Trackpoint>
          <Trackpoint>
            <Time>2019-07-26T11:11:11.000Z</Time>
            <Position>
              <LatitudeDegrees>42.9511502198874950408935546875</LatitudeDegrees>
              <LongitudeDegrees>-7.9127826355397701263427734375</LongitudeDegrees>
            </Position>
            <AltitudeMeters>687.5999755859375</AltitudeMeters>
            <DistanceMeters>36468.817327545</DistanceMeters>
          </Trackpoint>
          <Trackpoint>
            <Time>2019-07-26T11:11:14.000Z</Time>
            <Position>
              <LatitudeDegrees>42.950970344245433807373046875</LatitudeDegrees>
              <LongitudeDegrees>-7.9130302369594573974609375</LongitudeDegrees>
            </Position>
            <AltitudeMeters>687</AltitudeMeters>
            <DistanceMeters>36497.237147345</DistanceMeters>
          </Trackpoint>
          <Trackpoint>
            <Time>2019-07-26T11:11:15.000Z</Time>
            <Position>
              <LatitudeDegrees>42.9509051330387592315673828125</LatitudeDegrees>
              <LongitudeDegrees>-7.91309955529868602752685546875</LongitudeDegrees>
            </Position>
            <AltitudeMeters>686.5999755859375</AltitudeMeters>
            <DistanceMeters>36506.433651897</DistanceMeters>
          </Trackpoint>
          <Trackpoint>
            <Time>2019-07-26T11:11:18.000Z</Time>
            <Position>
              <LatitudeDegrees>42.95073271729052066802978515625</LatitudeDegrees>
              <LongitudeDegrees>-7.9133113659918308258056640625</LongitudeDegrees>
            </Position>
            <AltitudeMeters>685.4000244140625</AltitudeMeters>
            <DistanceMeters>36532.240710196</DistanceMeters>
          </Trackpoint>
          <Trackpoint>
            <Time>2019-07-26T11:11:19.000Z</Time>
            <Position>
              <LatitudeDegrees>42.950676977634429931640625</LatitudeDegrees>
              <LongitudeDegrees>-7.91338755749166011810302734375</LongitudeDegrees>
            </Position>
            <AltitudeMeters>684.79998779296875</AltitudeMeters>
            <DistanceMeters>36541.016672935</DistanceMeters>
          </Trackpoint>
          <Trackpoint>
            <Time>2019-07-26T11:11:22.000Z</Time>
            <Position>
              <LatitudeDegrees>42.95052031986415386199951171875</LatitudeDegrees>
              <LongitudeDegrees>-7.913627363741397857666015625</LongitudeDegrees>
            </Position>
            <AltitudeMeters>684.20001220703125</AltitudeMeters>
            <DistanceMeters>36567.202180274</DistanceMeters>
          </Trackpoint>
          <Trackpoint>
            <Time>2019-07-26T11:11:25.000Z</Time>
            <Position>
              <LatitudeDegrees>42.9503767378628253936767578125</LatitudeDegrees>
              <LongitudeDegrees>-7.91389784775674343109130859375</LongitudeDegrees>
            </Position>
            <AltitudeMeters>684</AltitudeMeters>
            <DistanceMeters>36594.422648538</DistanceMeters>
          </Trackpoint>
          <Trackpoint>
            <Time>2019-07-26T11:11:26.000Z</Time>
            <Position>
              <LatitudeDegrees>42.95032736845314502716064453125</LatitudeDegrees>
              <LongitudeDegrees>-7.91399222798645496368408203125</LongitudeDegrees>
            </Position>
            <AltitudeMeters>683.79998779296875</AltitudeMeters>
            <DistanceMeters>36603.872910759</DistanceMeters>
          </Trackpoint>
          <Trackpoint>
            <Time>2019-07-26T11:11:29.000Z</Time>
            <Position>
              <LatitudeDegrees>42.950163669884204864501953125</LatitudeDegrees>
              <LongitudeDegrees>-7.914279140532016754150390625</LongitudeDegrees>
            </Position>
            <AltitudeMeters>683.4000244140625</AltitudeMeters>
            <DistanceMeters>36633.509060226</DistanceMeters>
          </Trackpoint>
          <Trackpoint>
            <Time>2019-07-26T11:11:30.000Z</Time>
            <Position>
              <LatitudeDegrees>42.95010508038103580474853515625</LatitudeDegrees>
              <LongitudeDegrees>-7.91437578387558460235595703125</LongitudeDegrees>
            </Position>
            <AltitudeMeters>683</AltitudeMeters>
            <DistanceMeters>36643.732274239</DistanceMeters>
          </Trackpoint>
          <Trackpoint>
            <Time>2019-07-26T11:11:32.000Z</Time>
            <Position>
              <LatitudeDegrees>42.94998287223279476165771484375</LatitudeDegrees>
              <LongitudeDegrees>-7.91457611136138439178466796875</LongitudeDegrees>
            </Position>
            <AltitudeMeters>682</AltitudeMeters>
            <DistanceMeters>36664.977493489</DistanceMeters>
          </Trackpoint>
          <Trackpoint>
            <Time>2019-07-26T11:11:34.000Z</Time>
            <Position>
              <LatitudeDegrees>42.949856221675872802734375</LatitudeDegrees>
              <LongitudeDegrees>-7.914778031408786773681640625</LongitudeDegrees>
            </Position>
            <AltitudeMeters>680.5999755859375</AltitudeMeters>
            <DistanceMeters>36686.641083518</DistanceMeters>
          </Trackpoint>
          <Trackpoint>
            <Time>2019-07-26T11:11:36.000Z</Time>
            <Position>
              <LatitudeDegrees>42.94974147342145442962646484375</LatitudeDegrees>
              <LongitudeDegrees>-7.91499218903481960296630859375</LongitudeDegrees>
            </Position>
            <AltitudeMeters>679.79998779296875</AltitudeMeters>
            <DistanceMeters>36708.26315899</DistanceMeters>
          </Trackpoint>
          <Trackpoint>
            <Time>2019-07-26T11:11:37.000Z</Time>
            <Position>
              <LatitudeDegrees>42.9496904276311397552490234375</LatitudeDegrees>
              <LongitudeDegrees>-7.91510752402245998382568359375</LongitudeDegrees>
            </Position>
            <AltitudeMeters>679.20001220703125</AltitudeMeters>
            <DistanceMeters>36719.243577046</DistanceMeters>
          </Trackpoint>
          <Trackpoint>
            <Time>2019-07-26T11:11:38.000Z</Time>
            <Position>
              <LatitudeDegrees>42.949641644954681396484375</LatitudeDegrees>
              <LongitudeDegrees>-7.9152254574000835418701171875</LongitudeDegrees>
            </Position>
            <AltitudeMeters>678.5999755859375</AltitudeMeters>
            <DistanceMeters>36730.279775263</DistanceMeters>
          </Trackpoint>
          <Trackpoint>
            <Time>2019-07-26T11:11:39.000Z</Time>
            <Position>
              <LatitudeDegrees>42.9495925270020961761474609375</LatitudeDegrees>
              <LongitudeDegrees>-7.91534557007253170013427734375</LongitudeDegrees>
            </Position>
            <AltitudeMeters>678</AltitudeMeters>
            <DistanceMeters>36741.48890028</DistanceMeters>
          </Trackpoint>
          <Trackpoint>
            <Time>2019-07-26T11:11:41.000Z</Time>
            <Position>
              <LatitudeDegrees>42.94949420727789402008056640625</LatitudeDegrees>
              <LongitudeDegrees>-7.91559300385415554046630859375</LongitudeDegrees>
            </Position>
            <AltitudeMeters>677</AltitudeMeters>
            <DistanceMeters>36764.425601298</DistanceMeters>
          </Trackpoint>
          <Trackpoint>
            <Time>2019-07-26T11:11:43.000Z</Time>
            <Position>
              <LatitudeDegrees>42.949398569762706756591796875</LatitudeDegrees>
              <LongitudeDegrees>-7.91584764607250690460205078125</LongitudeDegrees>
            </Position>
            <AltitudeMeters>675.79998779296875</AltitudeMeters>
            <DistanceMeters>36787.742608879</DistanceMeters>
          </Trackpoint>
          <Trackpoint>
            <Time>2019-07-26T11:11:45.000Z</Time>
            <Position>
              <LatitudeDegrees>42.949296645820140838623046875</LatitudeDegrees>
              <LongitudeDegrees>-7.9160981811583042144775390625</LongitudeDegrees>
            </Position>
            <AltitudeMeters>675</AltitudeMeters>
            <DistanceMeters>36811.094058431</DistanceMeters>
          </Trackpoint>
          <Trackpoint>
            <Time>2019-07-26T11:11:46.000Z</Time>
            <Position>
              <LatitudeDegrees>42.949243001639842987060546875</LatitudeDegrees>
              <LongitudeDegrees>-7.91622047312557697296142578125</LongitudeDegrees>
            </Position>
            <AltitudeMeters>674.20001220703125</AltitudeMeters>
            <DistanceMeters>36822.709106518</DistanceMeters>
          </Trackpoint>
          <Trackpoint>
            <Time>2019-07-26T11:11:48.000Z</Time>
            <Position>
              <LatitudeDegrees>42.9491358809173107147216796875</LatitudeDegrees>
              <LongitudeDegrees>-7.91646220721304416656494140625</LongitudeDegrees>
            </Position>
            <AltitudeMeters>672.79998779296875</AltitudeMeters>
            <DistanceMeters>36845.730688711</DistanceMeters>
          </Trackpoint>
          <Trackpoint>
            <Time>2019-07-26T11:11:50.000Z</Time>
            <Position>
              <LatitudeDegrees>42.94904007576406002044677734375</LatitudeDegrees>
              <LongitudeDegrees>-7.9167073778808116912841796875</LongitudeDegrees>
            </Position>
            <AltitudeMeters>671</AltitudeMeters>
            <DistanceMeters>36868.372585713</DistanceMeters>
          </Trackpoint>
          <Trackpoint>
            <Time>2019-07-26T11:11:51.000Z</Time>
            <Position>
              <LatitudeDegrees>42.94899850152432918548583984375</LatitudeDegrees>
              <LongitudeDegrees>-7.916835956275463104248046875</LongitudeDegrees>
            </Position>
            <AltitudeMeters>670.20001220703125</AltitudeMeters>
            <DistanceMeters>36879.823994802</DistanceMeters>
          </Trackpoint>
          <Trackpoint>
            <Time>2019-07-26T11:11:52.000Z</Time>
            <Position>
              <LatitudeDegrees>42.94895759783685207366943359375</LatitudeDegrees>
              <LongitudeDegrees>-7.916966713964939117431640625</LongitudeDegrees>
            </Position>
            <AltitudeMeters>669.4000244140625</AltitudeMeters>
            <DistanceMeters>36891.408682804</DistanceMeters>
          </Trackpoint>
          <Trackpoint>
            <Time>2019-07-26T11:11:55.000Z</Time>
            <Position>
              <LatitudeDegrees>42.94883639551699161529541015625</LatitudeDegrees>
              <LongitudeDegrees>-7.91735865175724029541015625</LongitudeDegrees>
            </Position>
            <AltitudeMeters>668</AltitudeMeters>
            <DistanceMeters>36926.072078508</DistanceMeters>
          </Trackpoint>
          <Trackpoint>
            <Time>2019-07-26T11:11:58.000Z</Time>
            <Position>
              <LatitudeDegrees>42.94872022233903408050537109375</LatitudeDegrees>
              <LongitudeDegrees>-7.91773541830480098724365234375</LongitudeDegrees>
            </Position>
            <AltitudeMeters>666.79998779296875</AltitudeMeters>
            <DistanceMeters>36959.379179122</DistanceMeters>
          </Trackpoint>
          <Trackpoint>
            <Time>2019-07-26T11:12:00.000Z</Time>
            <Position>
              <LatitudeDegrees>42.948649227619171142578125</LatitudeDegrees>
              <LongitudeDegrees>-7.917985953390598297119140625</LongitudeDegrees>
            </Position>
            <AltitudeMeters>665.5999755859375</AltitudeMeters>
            <DistanceMeters>36981.266082175</DistanceMeters>
          </Trackpoint>
          <Trackpoint>
            <Time>2019-07-26T11:12:01.000Z</Time>
            <Position>
              <LatitudeDegrees>42.94861310161650180816650390625</LatitudeDegrees>
              <LongitudeDegrees>-7.9181125201284885406494140625</LongitudeDegrees>
            </Position>
            <AltitudeMeters>664.20001220703125</AltitudeMeters>
            <DistanceMeters>36992.333737165</DistanceMeters>
          </Trackpoint>
          <Trackpoint>
            <Time>2019-07-26T11:12:04.000Z</Time>
            <Position>
              <LatitudeDegrees>42.9485058970749378204345703125</LatitudeDegrees>
              <LongitudeDegrees>-7.9184913821518421173095703125</LongitudeDegrees>
            </Position>
            <AltitudeMeters>663.20001220703125</AltitudeMeters>
            <DistanceMeters>37025.425417542</DistanceMeters>
          </Trackpoint>
          <Trackpoint>
            <Time>2019-07-26T11:12:08.000Z</Time>
            <Position>
              <LatitudeDegrees>42.94838368892669677734375</LatitudeDegrees>
              <LongitudeDegrees>-7.91899052448570728302001953125</LongitudeDegrees>
            </Position>
            <AltitudeMeters>662</AltitudeMeters>
            <DistanceMeters>37068.304794345</DistanceMeters>
          </Trackpoint>
          <Trackpoint>
            <Time>2019-07-26T11:12:11.000Z</Time>
            <Position>
              <LatitudeDegrees>42.94831973500549793243408203125</LatitudeDegrees>
              <LongitudeDegrees>-7.91936234571039676666259765625</LongitudeDegrees>
            </Position>
            <AltitudeMeters>660.5999755859375</AltitudeMeters>
            <DistanceMeters>37099.421944551</DistanceMeters>
          </Trackpoint>
          <Trackpoint>
            <Time>2019-07-26T11:12:13.000Z</Time>
            <Position>
              <LatitudeDegrees>42.94827497564256191253662109375</LatitudeDegrees>
              <LongitudeDegrees>-7.9196101985871791839599609375</LongitudeDegrees>
            </Position>
            <AltitudeMeters>659.20001220703125</AltitudeMeters>
            <DistanceMeters>37120.219990657</DistanceMeters>
          </Trackpoint>
          <Trackpoint>
            <Time>2019-07-26T11:12:15.000Z</Time>
            <Position>
              <LatitudeDegrees>42.94822275638580322265625</LatitudeDegrees>
              <LongitudeDegrees>-7.91985704563558101654052734375</LongitudeDegrees>
            </Position>
            <AltitudeMeters>658.5999755859375</AltitudeMeters>
            <DistanceMeters>37141.1534937</DistanceMeters>
          </Trackpoint>
          <Trackpoint>
            <Time>2019-07-26T11:12:18.000Z</Time>
            <Position>
              <LatitudeDegrees>42.948121167719364166259765625</LatitudeDegrees>
              <LongitudeDegrees>-7.92021788656711578369140625</LongitudeDegrees>
            </Position>
            <AltitudeMeters>658</AltitudeMeters>
            <DistanceMeters>37172.650513532</DistanceMeters>
          </Trackpoint>
          <Trackpoint>
            <Time>2019-07-26T11:12:20.000Z</Time>
            <Position>
              <LatitudeDegrees>42.94803709723055362701416015625</LatitudeDegrees>
              <LongitudeDegrees>-7.92045685462653636932373046875</LongitudeDegrees>
            </Position>
            <AltitudeMeters>657</AltitudeMeters>
            <DistanceMeters>37194.251070235</DistanceMeters>
          </Trackpoint>
          <Trackpoint>
            <Time>2019-07-26T11:12:22.000Z</Time>
            <Position>
              <LatitudeDegrees>42.947950847446918487548828125</LatitudeDegrees>
              <LongitudeDegrees>-7.9207058809697628021240234375</LongitudeDegrees>
            </Position>
            <AltitudeMeters>655.20001220703125</AltitudeMeters>
            <DistanceMeters>37216.695688177</DistanceMeters>
          </Trackpoint>
          <Trackpoint>
            <Time>2019-07-26T11:12:24.000Z</Time>
            <Position>
              <LatitudeDegrees>42.94785772450268268585205078125</LatitudeDegrees>
              <LongitudeDegrees>-7.92096446268260478973388671875</LongitudeDegrees>
            </Position>
            <AltitudeMeters>653.79998779296875</AltitudeMeters>
            <DistanceMeters>37240.174210629</DistanceMeters>
          </Trackpoint>
          <Trackpoint>
            <Time>2019-07-26T11:12:26.000Z</Time>
            <Position>
              <LatitudeDegrees>42.9477689601480960845947265625</LatitudeDegrees>
              <LongitudeDegrees>-7.9212295822799205780029296875</LongitudeDegrees>
            </Position>
            <AltitudeMeters>652.5999755859375</AltitudeMeters>
            <DistanceMeters>37263.925757224</DistanceMeters>
          </Trackpoint>
          <Trackpoint>
            <Time>2019-07-26T11:12:29.000Z</Time>
            <Position>
              <LatitudeDegrees>42.9476398788392543792724609375</LatitudeDegrees>
              <LongitudeDegrees>-7.92162068188190460205078125</LongitudeDegrees>
            </Position>
            <AltitudeMeters>651</AltitudeMeters>
            <DistanceMeters>37298.878024418</DistanceMeters>
          </Trackpoint>
          <Trackpoint>
            <Time>2019-07-26T11:12:31.000Z</Time>
            <Position>
              <LatitudeDegrees>42.947557233273983001708984375</LatitudeDegrees>
              <LongitudeDegrees>-7.921874821186065673828125</LongitudeDegrees>
            </Position>
            <AltitudeMeters>649.5999755859375</AltitudeMeters>
            <DistanceMeters>37321.534274447</DistanceMeters>
          </Trackpoint>
          <Trackpoint>
            <Time>2019-07-26T11:12:32.000Z</Time>
            <Position>
              <LatitudeDegrees>42.94751356355845928192138671875</LatitudeDegrees>
              <LongitudeDegrees>-7.921998202800750732421875</LongitudeDegrees>
            </Position>
            <AltitudeMeters>648.4000244140625</AltitudeMeters>
            <DistanceMeters>37332.699003518</DistanceMeters>
          </Trackpoint>
          <Trackpoint>
            <Time>2019-07-26T11:12:34.000Z</Time>
            <Position>
              <LatitudeDegrees>42.947425805032253265380859375</LatitudeDegrees>
              <LongitudeDegrees>-7.92224228382110595703125</LongitudeDegrees>
            </Position>
            <AltitudeMeters>647</AltitudeMeters>
            <DistanceMeters>37354.853682597</DistanceMeters>
          </Trackpoint>
          <Trackpoint>
            <Time>2019-07-26T11:12:36.000Z</Time>
            <Position>
              <LatitudeDegrees>42.9473428241908550262451171875</LatitudeDegrees>
              <LongitudeDegrees>-7.92248359881341457366943359375</LongitudeDegrees>
            </Position>
            <AltitudeMeters>646</AltitudeMeters>
            <DistanceMeters>37376.575134993</DistanceMeters>
          </Trackpoint>
          <Trackpoint>
            <Time>2019-07-26T11:12:38.000Z</Time>
            <Position>
              <LatitudeDegrees>42.9472569935023784637451171875</LatitudeDegrees>
              <LongitudeDegrees>-7.9227185435593128204345703125</LongitudeDegrees>
            </Position>
            <AltitudeMeters>644.79998779296875</AltitudeMeters>
            <DistanceMeters>37397.96775695</DistanceMeters>
          </Trackpoint>
          <Trackpoint>
            <Time>2019-07-26T11:12:40.000Z</Time>
            <Position>
              <LatitudeDegrees>42.94717091135680675506591796875</LatitudeDegrees>
              <LongitudeDegrees>-7.9229545779526233673095703125</LongitudeDegrees>
            </Position>
            <AltitudeMeters>643.20001220703125</AltitudeMeters>
            <DistanceMeters>37419.452202196</DistanceMeters>
          </Trackpoint>
          <Trackpoint>
            <Time>2019-07-26T11:12:41.000Z</Time>
            <Position>
              <LatitudeDegrees>42.94712774455547332763671875</LatitudeDegrees>
              <LongitudeDegrees>-7.9230724275112152099609375</LongitudeDegrees>
            </Position>
            <AltitudeMeters>642.5999755859375</AltitudeMeters>
            <DistanceMeters>37430.188538899</DistanceMeters>
          </Trackpoint>
          <Trackpoint>
            <Time>2019-07-26T11:12:42.000Z</Time>
            <Position>
              <LatitudeDegrees>42.947084493935108184814453125</LatitudeDegrees>
              <LongitudeDegrees>-7.92319002561271190643310546875</LongitudeDegrees>
            </Position>
            <AltitudeMeters>642.20001220703125</AltitudeMeters>
            <DistanceMeters>37440.910567775</DistanceMeters>
          </Trackpoint>
          <Trackpoint>
            <Time>2019-07-26T11:12:46.000Z</Time>
            <Position>
              <LatitudeDegrees>42.9469334520399570465087890625</LatitudeDegrees>
              <LongitudeDegrees>-7.9235835559666156768798828125</LongitudeDegrees>
            </Position>
            <AltitudeMeters>640.79998779296875</AltitudeMeters>
            <DistanceMeters>37477.112129267</DistanceMeters>
          </Trackpoint>
          <Trackpoint>
            <Time>2019-07-26T11:12:48.000Z</Time>
            <Position>
              <LatitudeDegrees>42.94685910455882549285888671875</LatitudeDegrees>
              <LongitudeDegrees>-7.92360090650618076324462890625</LongitudeDegrees>
            </Position>
            <AltitudeMeters>640</AltitudeMeters>
            <DistanceMeters>37485.506813094</DistanceMeters>
          </Trackpoint>
          <Trackpoint>
            <Time>2019-07-26T11:12:49.000Z</Time>
            <Position>
              <LatitudeDegrees>42.9468161053955554962158203125</LatitudeDegrees>
              <LongitudeDegrees>-7.923579700291156768798828125</LongitudeDegrees>
            </Position>
            <AltitudeMeters>639</AltitudeMeters>
            <DistanceMeters>37490.595846327</DistanceMeters>
          </Trackpoint>
          <Trackpoint>
            <Time>2019-07-26T11:12:51.000Z</Time>
            <Position>
              <LatitudeDegrees>42.94673287309706211090087890625</LatitudeDegrees>
              <LongitudeDegrees>-7.92354977689683437347412109375</LongitudeDegrees>
            </Position>
            <AltitudeMeters>637.79998779296875</AltitudeMeters>
            <DistanceMeters>37500.175180167</DistanceMeters>
          </Trackpoint>
          <Trackpoint>
            <Time>2019-07-26T11:12:52.000Z</Time>
            <Position>
              <LatitudeDegrees>42.9466920532286167144775390625</LatitudeDegrees>
              <LongitudeDegrees>-7.92356519959867000579833984375</LongitudeDegrees>
            </Position>
            <AltitudeMeters>637.5999755859375</AltitudeMeters>
            <DistanceMeters>37504.889309793</DistanceMeters>
          </Trackpoint>
          <Trackpoint>
            <Time>2019-07-26T11:12:54.000Z</Time>
            <Position>
              <LatitudeDegrees>42.9466209746897220611572265625</LatitudeDegrees>
              <LongitudeDegrees>-7.92366058565676212310791015625</LongitudeDegrees>
            </Position>
            <AltitudeMeters>636.5999755859375</AltitudeMeters>
            <DistanceMeters>37515.978564999</DistanceMeters>
          </Trackpoint>
          <Trackpoint>
            <Time>2019-07-26T11:12:55.000Z</Time>
            <Position>
              <LatitudeDegrees>42.9465871118009090423583984375</LatitudeDegrees>
              <LongitudeDegrees>-7.9237253777682781219482421875</LongitudeDegrees>
            </Position>
            <AltitudeMeters>635.5999755859375</AltitudeMeters>
            <DistanceMeters>37522.464094744</DistanceMeters>
          </Trackpoint>
          <Trackpoint>
            <Time>2019-07-26T11:12:56.000Z</Time>
            <Position>
              <LatitudeDegrees>42.9465472139418125152587890625</LatitudeDegrees>
              <LongitudeDegrees>-7.9237927682697772979736328125</LongitudeDegrees>
            </Position>
            <AltitudeMeters>633.5999755859375</AltitudeMeters>
            <DistanceMeters>37529.524905749</DistanceMeters>
          </Trackpoint>
          <Trackpoint>
            <Time>2019-07-26T11:12:58.000Z</Time>
            <Position>
              <LatitudeDegrees>42.9464570246636867523193359375</LatitudeDegrees>
              <LongitudeDegrees>-7.92392964474856853485107421875</LongitudeDegrees>
            </Position>
            <AltitudeMeters>632.20001220703125</AltitudeMeters>
            <DistanceMeters>37544.528898742</DistanceMeters>
          </Trackpoint>
          <Trackpoint>
            <Time>2019-07-26T11:13:00.000Z</Time>
            <Position>
              <LatitudeDegrees>42.94637136161327362060546875</LatitudeDegrees>
              <LongitudeDegrees>-7.92407951317727565765380859375</LongitudeDegrees>
            </Position>
            <AltitudeMeters>631.5999755859375</AltitudeMeters>
            <DistanceMeters>37560.020876399</DistanceMeters>
          </Trackpoint>
          <Trackpoint>
            <Time>2019-07-26T11:13:02.000Z</Time>
            <Position>
              <LatitudeDegrees>42.94628192670643329620361328125</LatitudeDegrees>
              <LongitudeDegrees>-7.9242276214063167572021484375</LongitudeDegrees>
            </Position>
            <AltitudeMeters>631</AltitudeMeters>
            <DistanceMeters>37575.663959265</DistanceMeters>
          </Trackpoint>
          <Trackpoint>
            <Time>2019-07-26T11:13:05.000Z</Time>
            <Position>
              <LatitudeDegrees>42.94612971134483814239501953125</LatitudeDegrees>
              <LongitudeDegrees>-7.924452759325504302978515625</LongitudeDegrees>
            </Position>
            <AltitudeMeters>629.79998779296875</AltitudeMeters>
            <DistanceMeters>37600.633392539</DistanceMeters>
          </Trackpoint>
          <Trackpoint>
            <Time>2019-07-26T11:13:06.000Z</Time>
            <Position>
              <LatitudeDegrees>42.946076653897762298583984375</LatitudeDegrees>
              <LongitudeDegrees>-7.9245330579578876495361328125</LongitudeDegrees>
            </Position>
            <AltitudeMeters>629.5999755859375</AltitudeMeters>
            <DistanceMeters>37609.446319833</DistanceMeters>
          </Trackpoint>
          <Trackpoint>
            <Time>2019-07-26T11:13:10.000Z</Time>
            <Position>
              <LatitudeDegrees>42.94587154872715473175048828125</LatitudeDegrees>
              <LongitudeDegrees>-7.92487420141696929931640625</LongitudeDegrees>
            </Position>
            <AltitudeMeters>628.5999755859375</AltitudeMeters>
            <DistanceMeters>37645.413523245</DistanceMeters>
          </Trackpoint>
          <Trackpoint>
            <Time>2019-07-26T11:13:12.000Z</Time>
            <Position>
              <LatitudeDegrees>42.94574934057891368865966796875</LatitudeDegrees>
              <LongitudeDegrees>-7.9250492155551910400390625</LongitudeDegrees>
            </Position>
            <AltitudeMeters>627.5999755859375</AltitudeMeters>
            <DistanceMeters>37665.119598638</DistanceMeters>
          </Trackpoint>
          <Trackpoint>
            <Time>2019-07-26T11:13:16.000Z</Time>
            <Position>
              <LatitudeDegrees>42.94550676830112934112548828125</LatitudeDegrees>
              <LongitudeDegrees>-7.92539865709841251373291015625</LongitudeDegrees>
            </Position>
            <AltitudeMeters>626.20001220703125</AltitudeMeters>
            <DistanceMeters>37704.355851676</DistanceMeters>
          </Trackpoint>
          <Trackpoint>
            <Time>2019-07-26T11:13:19.000Z</Time>
            <Position>
              <LatitudeDegrees>42.94533879496157169342041015625</LatitudeDegrees>
              <LongitudeDegrees>-7.92565246112644672393798828125</LongitudeDegrees>
            </Position>
            <AltitudeMeters>624.79998779296875</AltitudeMeters>
            <DistanceMeters>37732.232874092</DistanceMeters>
          </Trackpoint>
          <Trackpoint>
            <Time>2019-07-26T11:13:21.000Z</Time>
            <Position>
              <LatitudeDegrees>42.9452309198677539825439453125</LatitudeDegrees>
              <LongitudeDegrees>-7.92582236230373382568359375</LongitudeDegrees>
            </Position>
            <AltitudeMeters>623.79998779296875</AltitudeMeters>
            <DistanceMeters>37750.557021071</DistanceMeters>
          </Trackpoint>
          <Trackpoint>
            <Time>2019-07-26T11:13:23.000Z</Time>
            <Position>
              <LatitudeDegrees>42.9451186023652553558349609375</LatitudeDegrees>
              <LongitudeDegrees>-7.92599804699420928955078125</LongitudeDegrees>
            </Position>
            <AltitudeMeters>622.5999755859375</AltitudeMeters>
            <DistanceMeters>37769.561176074</DistanceMeters>
          </Trackpoint>
          <Trackpoint>
            <Time>2019-07-26T11:13:25.000Z</Time>
            <Position>
              <LatitudeDegrees>42.94501324184238910675048828125</LatitudeDegrees>
              <LongitudeDegrees>-7.926179431378841400146484375</LongitudeDegrees>
            </Position>
            <AltitudeMeters>622</AltitudeMeters>
            <DistanceMeters>37788.42679117</DistanceMeters>
          </Trackpoint>
          <Trackpoint>
            <Time>2019-07-26T11:13:27.000Z</Time>
            <Position>
              <LatitudeDegrees>42.94493244029581546783447265625</LatitudeDegrees>
              <LongitudeDegrees>-7.92637498117983341217041015625</LongitudeDegrees>
            </Position>
            <AltitudeMeters>621.4000244140625</AltitudeMeters>
            <DistanceMeters>37806.722086837</DistanceMeters>
          </Trackpoint>
          <Trackpoint>
            <Time>2019-07-26T11:13:28.000Z</Time>
            <Position>
              <LatitudeDegrees>42.944903858006000518798828125</LatitudeDegrees>
              <LongitudeDegrees>-7.9264815151691436767578125</LongitudeDegrees>
            </Position>
            <AltitudeMeters>621</AltitudeMeters>
            <DistanceMeters>37815.966091023</DistanceMeters>
          </Trackpoint>
          <Trackpoint>
            <Time>2019-07-26T11:13:29.000Z</Time>
            <Position>
              <LatitudeDegrees>42.94487410224974155426025390625</LatitudeDegrees>
              <LongitudeDegrees>-7.9265876300632953643798828125</LongitudeDegrees>
            </Position>
            <AltitudeMeters>620.4000244140625</AltitudeMeters>
            <DistanceMeters>37825.22424881</DistanceMeters>
          </Trackpoint>
          <Trackpoint>
            <Time>2019-07-26T11:13:31.000Z</Time>
            <Position>
              <LatitudeDegrees>42.94481056742370128631591796875</LatitudeDegrees>
              <LongitudeDegrees>-7.92680480517446994781494140625</LongitudeDegrees>
            </Position>
            <AltitudeMeters>619.4000244140625</AltitudeMeters>
            <DistanceMeters>37844.278941504</DistanceMeters>
          </Trackpoint>
          <Trackpoint>
            <Time>2019-07-26T11:13:34.000Z</Time>
            <Position>
              <LatitudeDegrees>42.94470093213021755218505859375</LatitudeDegrees>
              <LongitudeDegrees>-7.92715382762253284454345703125</LongitudeDegrees>
            </Position>
            <AltitudeMeters>618.5999755859375</AltitudeMeters>
            <DistanceMeters>37875.222943281</DistanceMeters>
          </Trackpoint>
          <Trackpoint>
            <Time>2019-07-26T11:13:35.000Z</Time>
            <Position>
              <LatitudeDegrees>42.94466606341302394866943359375</LatitudeDegrees>
              <LongitudeDegrees>-7.92726212181150913238525390625</LongitudeDegrees>
            </Position>
            <AltitudeMeters>618</AltitudeMeters>
            <DistanceMeters>37884.861950311</DistanceMeters>
          </Trackpoint>
          <Trackpoint>
            <Time>2019-07-26T11:13:38.000Z</Time>
            <Position>
              <LatitudeDegrees>42.9445570148527622222900390625</LatitudeDegrees>
              <LongitudeDegrees>-7.92756571434438228607177734375</LongitudeDegrees>
            </Position>
            <AltitudeMeters>616.79998779296875</AltitudeMeters>
            <DistanceMeters>37912.414454126</DistanceMeters>
          </Trackpoint>
          <Trackpoint>
            <Time>2019-07-26T11:13:39.000Z</Time>
            <Position>
              <LatitudeDegrees>42.94450278393924236297607421875</LatitudeDegrees>
              <LongitudeDegrees>-7.9276777803897857666015625</LongitudeDegrees>
            </Position>
            <AltitudeMeters>616.4000244140625</AltitudeMeters>
            <DistanceMeters>37923.359452715</DistanceMeters>
          </Trackpoint>
          <Trackpoint>
            <Time>2019-07-26T11:13:41.000Z</Time>
            <Position>
              <LatitudeDegrees>42.9443880356848239898681640625</LatitudeDegrees>
              <LongitudeDegrees>-7.92784449644386768341064453125</LongitudeDegrees>
            </Position>
            <AltitudeMeters>615.20001220703125</AltitudeMeters>
            <DistanceMeters>37942.004071853</DistanceMeters>
          </Trackpoint>
          <Trackpoint>
            <Time>2019-07-26T11:13:42.000Z</Time>
            <Position>
              <LatitudeDegrees>42.94432751834392547607421875</LatitudeDegrees>
              <LongitudeDegrees>-7.92790669016540050506591796875</LongitudeDegrees>
            </Position>
            <AltitudeMeters>614.79998779296875</AltitudeMeters>
            <DistanceMeters>37950.433107471</DistanceMeters>
          </Trackpoint>
          <Trackpoint>
            <Time>2019-07-26T11:13:44.000Z</Time>
            <Position>
              <LatitudeDegrees>42.9442012868821620941162109375</LatitudeDegrees>
              <LongitudeDegrees>-7.92801909148693084716796875</LongitudeDegrees>
            </Position>
            <AltitudeMeters>614.20001220703125</AltitudeMeters>
            <DistanceMeters>37967.204178429</DistanceMeters>
          </Trackpoint>
          <Trackpoint>
            <Time>2019-07-26T11:13:45.000Z</Time>
            <Position>
              <LatitudeDegrees>42.9441355727612972259521484375</LatitudeDegrees>
              <LongitudeDegrees>-7.92808304540812969207763671875</LongitudeDegrees>
            </Position>
            <AltitudeMeters>613.79998779296875</AltitudeMeters>
            <DistanceMeters>37976.185082771</DistanceMeters>
          </Trackpoint>
          <Trackpoint>
            <Time>2019-07-26T11:13:47.000Z</Time>
            <Position>
              <LatitudeDegrees>42.944014705717563629150390625</LatitudeDegrees>
              <LongitudeDegrees>-7.92825914919376373291015625</LongitudeDegrees>
            </Position>
            <AltitudeMeters>613</AltitudeMeters>
            <DistanceMeters>37995.85331718</DistanceMeters>
          </Trackpoint>
          <Trackpoint>
            <Time>2019-07-26T11:13:48.000Z</Time>
            <Position>
              <LatitudeDegrees>42.94396332465112209320068359375</LatitudeDegrees>
              <LongitudeDegrees>-7.928356714546680450439453125</LongitudeDegrees>
            </Position>
            <AltitudeMeters>611.5999755859375</AltitudeMeters>
            <DistanceMeters>38005.646141688</DistanceMeters>
          </Trackpoint>
          <Trackpoint>
            <Time>2019-07-26T11:13:49.000Z</Time>
            <Position>
              <LatitudeDegrees>42.943908758461475372314453125</LatitudeDegrees>
              <LongitudeDegrees>-7.9284695349633693695068359375</LongitudeDegrees>
            </Position>
            <AltitudeMeters>610.4000244140625</AltitudeMeters>
            <DistanceMeters>38016.663504692</DistanceMeters>
          </Trackpoint>
          <Trackpoint>
            <Time>2019-07-26T11:13:50.000Z</Time>
            <Position>
              <LatitudeDegrees>42.943857796490192413330078125</LatitudeDegrees>
              <LongitudeDegrees>-7.92857640422880649566650390625</LongitudeDegrees>
            </Position>
            <AltitudeMeters>609.20001220703125</AltitudeMeters>
            <DistanceMeters>38027.055361321</DistanceMeters>
          </Trackpoint>
          <Trackpoint>
            <Time>2019-07-26T11:13:51.000Z</Time>
            <Position>
              <LatitudeDegrees>42.94380624778568744659423828125</LatitudeDegrees>
              <LongitudeDegrees>-7.92867799289524555206298828125</LongitudeDegrees>
            </Position>
            <AltitudeMeters>607.79998779296875</AltitudeMeters>
            <DistanceMeters>38037.126848236</DistanceMeters>
          </Trackpoint>
          <Trackpoint>
            <Time>2019-07-26T11:13:52.000Z</Time>
            <Position>
              <LatitudeDegrees>42.943753190338611602783203125</LatitudeDegrees>
              <LongitudeDegrees>-7.9287749715149402618408203125</LongitudeDegrees>
            </Position>
            <AltitudeMeters>607.4000244140625</AltitudeMeters>
            <DistanceMeters>38046.991335236</DistanceMeters>
          </Trackpoint>
          <Trackpoint>
            <Time>2019-07-26T11:13:54.000Z</Time>
            <Position>
              <LatitudeDegrees>42.94366090558469295501708984375</LatitudeDegrees>
              <LongitudeDegrees>-7.92893649078905582427978515625</LongitudeDegrees>
            </Position>
            <AltitudeMeters>606.4000244140625</AltitudeMeters>
            <DistanceMeters>38063.684962437</DistanceMeters>
          </Trackpoint>
          <Trackpoint>
            <Time>2019-07-26T11:13:56.000Z</Time>
            <Position>
              <LatitudeDegrees>42.9435890726745128631591796875</LatitudeDegrees>
              <LongitudeDegrees>-7.9290726967155933380126953125</LongitudeDegrees>
            </Position>
            <AltitudeMeters>604.5999755859375</AltitudeMeters>
            <DistanceMeters>38077.362538746</DistanceMeters>
          </Trackpoint>
          <Trackpoint>
            <Time>2019-07-26T11:13:58.000Z</Time>
            <Position>
              <LatitudeDegrees>42.94353350065648555755615234375</LatitudeDegrees>
              <LongitudeDegrees>-7.92919121682643890380859375</LongitudeDegrees>
            </Position>
            <AltitudeMeters>603.4000244140625</AltitudeMeters>
            <DistanceMeters>38088.830495553</DistanceMeters>
          </Trackpoint>
          <Trackpoint>
            <Time>2019-07-26T11:14:00.000Z</Time>
            <Position>
              <LatitudeDegrees>42.94346661306917667388916015625</LatitudeDegrees>
              <LongitudeDegrees>-7.929317615926265716552734375</LongitudeDegrees>
            </Position>
            <AltitudeMeters>602.4000244140625</AltitudeMeters>
            <DistanceMeters>38101.538164775</DistanceMeters>
          </Trackpoint>
          <Trackpoint>
            <Time>2019-07-26T11:14:01.000Z</Time>
            <Position>
              <LatitudeDegrees>42.94342369772493839263916015625</LatitudeDegrees>
              <LongitudeDegrees>-7.92938861064612865447998046875</LongitudeDegrees>
            </Position>
            <AltitudeMeters>601.5999755859375</AltitudeMeters>
            <DistanceMeters>38109.039860343</DistanceMeters>
          </Trackpoint>
          <Trackpoint>
            <Time>2019-07-26T11:14:02.000Z</Time>
            <Position>
              <LatitudeDegrees>42.94337935745716094970703125</LatitudeDegrees>
              <LongitudeDegrees>-7.92945382185280323028564453125</LongitudeDegrees>
            </Position>
            <AltitudeMeters>600.5999755859375</AltitudeMeters>
            <DistanceMeters>38116.291214364</DistanceMeters>
          </Trackpoint>
          <Trackpoint>
            <Time>2019-07-26T11:14:04.000Z</Time>
            <Position>
              <LatitudeDegrees>42.943283133208751678466796875</LatitudeDegrees>
              <LongitudeDegrees>-7.92957209050655364990234375</LongitudeDegrees>
            </Position>
            <AltitudeMeters>598.79998779296875</AltitudeMeters>
            <DistanceMeters>38130.698342361</DistanceMeters>
          </Trackpoint>
          <Trackpoint>
            <Time>2019-07-26T11:14:05.000Z</Time>
            <Position>
              <LatitudeDegrees>42.9432360269129276275634765625</LatitudeDegrees>
              <LongitudeDegrees>-7.9296413250267505645751953125</LongitudeDegrees>
            </Position>
            <AltitudeMeters>598</AltitudeMeters>
            <DistanceMeters>38138.399611223</DistanceMeters>
          </Trackpoint>
          <Trackpoint>
            <Time>2019-07-26T11:14:06.000Z</Time>
            <Position>
              <LatitudeDegrees>42.9431974701583385467529296875</LatitudeDegrees>
              <LongitudeDegrees>-7.929713241755962371826171875</LongitudeDegrees>
            </Position>
            <AltitudeMeters>597</AltitudeMeters>
            <DistanceMeters>38145.662164253</DistanceMeters>
          </Trackpoint>
          <Trackpoint>
            <Time>2019-07-26T11:14:08.000Z</Time>
            <Position>
              <LatitudeDegrees>42.9431213624775409698486328125</LatitudeDegrees>
              <LongitudeDegrees>-7.92987341992557048797607421875</LongitudeDegrees>
            </Position>
            <AltitudeMeters>595.20001220703125</AltitudeMeters>
            <DistanceMeters>38161.221029549</DistanceMeters>
          </Trackpoint>
          <Trackpoint>
            <Time>2019-07-26T11:14:10.000Z</Time>
            <Position>
              <LatitudeDegrees>42.94303578324615955352783203125</LatitudeDegrees>
              <LongitudeDegrees>-7.93005631305277347564697265625</LongitudeDegrees>
            </Position>
            <AltitudeMeters>594</AltitudeMeters>
            <DistanceMeters>38178.906979282</DistanceMeters>
          </Trackpoint>
          <Trackpoint>
            <Time>2019-07-26T11:14:12.000Z</Time>
            <Position>
              <LatitudeDegrees>42.94292212463915348052978515625</LatitudeDegrees>
              <LongitudeDegrees>-7.93024264276027679443359375</LongitudeDegrees>
            </Position>
            <AltitudeMeters>593</AltitudeMeters>
            <DistanceMeters>38198.66842371</DistanceMeters>
          </Trackpoint>
          <Trackpoint>
            <Time>2019-07-26T11:14:13.000Z</Time>
            <Position>
              <LatitudeDegrees>42.9428611882030963897705078125</LatitudeDegrees>
              <LongitudeDegrees>-7.93032042682170867919921875</LongitudeDegrees>
            </Position>
            <AltitudeMeters>592.20001220703125</AltitudeMeters>
            <DistanceMeters>38207.951419967</DistanceMeters>
          </Trackpoint>
          <Trackpoint>
            <Time>2019-07-26T11:14:14.000Z</Time>
            <Position>
              <LatitudeDegrees>42.94279254041612148284912109375</LatitudeDegrees>
              <LongitudeDegrees>-7.930391170084476470947265625</LongitudeDegrees>
            </Position>
            <AltitudeMeters>592</AltitudeMeters>
            <DistanceMeters>38217.522266087</DistanceMeters>
          </Trackpoint>
          <Trackpoint>
            <Time>2019-07-26T11:14:16.000Z</Time>
            <Position>
              <LatitudeDegrees>42.942652814090251922607421875</LatitudeDegrees>
              <LongitudeDegrees>-7.93057180009782314300537109375</LongitudeDegrees>
            </Position>
            <AltitudeMeters>590.79998779296875</AltitudeMeters>
            <DistanceMeters>38238.933874645</DistanceMeters>
          </Trackpoint>
          <Trackpoint>
            <Time>2019-07-26T11:14:17.000Z</Time>
            <Position>
              <LatitudeDegrees>42.94259388931095600128173828125</LatitudeDegrees>
              <LongitudeDegrees>-7.93065394274890422821044921875</LongitudeDegrees>
            </Position>
            <AltitudeMeters>590</AltitudeMeters>
            <DistanceMeters>38248.304491666</DistanceMeters>
          </Trackpoint>
          <Trackpoint>
            <Time>2019-07-26T11:14:18.000Z</Time>
            <Position>
              <LatitudeDegrees>42.94254058040678501129150390625</LatitudeDegrees>
              <LongitudeDegrees>-7.9307490773499011993408203125</LongitudeDegrees>
            </Position>
            <AltitudeMeters>588.20001220703125</AltitudeMeters>
            <DistanceMeters>38258.065914033</DistanceMeters>
          </Trackpoint>
          <Trackpoint>
            <Time>2019-07-26T11:14:20.000Z</Time>
            <Position>
              <LatitudeDegrees>42.94245860539376735687255859375</LatitudeDegrees>
              <LongitudeDegrees>-7.93094412423670291900634765625</LongitudeDegrees>
            </Position>
            <AltitudeMeters>586.79998779296875</AltitudeMeters>
            <DistanceMeters>38276.390553802</DistanceMeters>
          </Trackpoint>
          <Trackpoint>
            <Time>2019-07-26T11:14:22.000Z</Time>
            <Position>
              <LatitudeDegrees>42.9423998482525348663330078125</LatitudeDegrees>
              <LongitudeDegrees>-7.93116389773786067962646484375</LongitudeDegrees>
            </Position>
            <AltitudeMeters>585.5999755859375</AltitudeMeters>
            <DistanceMeters>38295.454248527</DistanceMeters>
          </Trackpoint>
          <Trackpoint>
            <Time>2019-07-26T11:14:25.000Z</Time>
            <Position>
              <LatitudeDegrees>42.94233824126422405242919921875</LatitudeDegrees>
              <LongitudeDegrees>-7.9315347969532012939453125</LongitudeDegrees>
            </Position>
            <AltitudeMeters>584</AltitudeMeters>
            <DistanceMeters>38326.442575187</DistanceMeters>
          </Trackpoint>
          <Trackpoint>
            <Time>2019-07-26T11:14:27.000Z</Time>
            <Position>
              <LatitudeDegrees>42.9423032887279987335205078125</LatitudeDegrees>
              <LongitudeDegrees>-7.93174870312213897705078125</LongitudeDegrees>
            </Position>
            <AltitudeMeters>582.4000244140625</AltitudeMeters>
            <DistanceMeters>38344.30001396</DistanceMeters>
          </Trackpoint>
          <Trackpoint>
            <Time>2019-07-26T11:14:28.000Z</Time>
            <Position>
              <LatitudeDegrees>42.942304797470569610595703125</LatitudeDegrees>
              <LongitudeDegrees>-7.9318417422473430633544921875</LongitudeDegrees>
            </Position>
            <AltitudeMeters>581.4000244140625</AltitudeMeters>
            <DistanceMeters>38351.88252652</DistanceMeters>
          </Trackpoint>
          <Trackpoint>
            <Time>2019-07-26T11:14:29.000Z</Time>
            <Position>
              <LatitudeDegrees>42.94231410138309001922607421875</LatitudeDegrees>
              <LongitudeDegrees>-7.9319295845925807952880859375</LongitudeDegrees>
            </Position>
            <AltitudeMeters>580.5999755859375</AltitudeMeters>
            <DistanceMeters>38359.114552706</DistanceMeters>
          </Trackpoint>
          <Trackpoint>
            <Time>2019-07-26T11:14:30.000Z</Time>
            <Position>
              <LatitudeDegrees>42.94232717715203762054443359375</LatitudeDegrees>
              <LongitudeDegrees>-7.93199772946536540985107421875</LongitudeDegrees>
            </Position>
            <AltitudeMeters>579.79998779296875</AltitudeMeters>
            <DistanceMeters>38364.855613499</DistanceMeters>
          </Trackpoint>
          <Trackpoint>
            <Time>2019-07-26T11:14:31.000Z</Time>
            <Position>
              <LatitudeDegrees>42.94234000146389007568359375</LatitudeDegrees>
              <LongitudeDegrees>-7.932064868509769439697265625</LongitudeDegrees>
            </Position>
            <AltitudeMeters>579.4000244140625</AltitudeMeters>
            <DistanceMeters>38370.509503364</DistanceMeters>
          </Trackpoint>
          <Trackpoint>
            <Time>2019-07-26T11:14:33.000Z</Time>
            <Position>
              <LatitudeDegrees>42.9423693381249904632568359375</LatitudeDegrees>
              <LongitudeDegrees>-7.93219872750341892242431640625</LongitudeDegrees>
            </Position>
            <AltitudeMeters>578.20001220703125</AltitudeMeters>
            <DistanceMeters>38381.894481066</DistanceMeters>
          </Trackpoint>
          <Trackpoint>
            <Time>2019-07-26T11:14:35.000Z</Time>
            <Position>
              <LatitudeDegrees>42.942395992577075958251953125</LatitudeDegrees>
              <LongitudeDegrees>-7.9323091171681880950927734375</LongitudeDegrees>
            </Position>
            <AltitudeMeters>576.79998779296875</AltitudeMeters>
            <DistanceMeters>38391.364788307</DistanceMeters>
          </Trackpoint>
          <Trackpoint>
            <Time>2019-07-26T11:14:37.000Z</Time>
            <Position>
              <LatitudeDegrees>42.942406721413135528564453125</LatitudeDegrees>
              <LongitudeDegrees>-7.93241548351943492889404296875</LongitudeDegrees>
            </Position>
            <AltitudeMeters>575.5999755859375</AltitudeMeters>
            <DistanceMeters>38400.112409</DistanceMeters>
          </Trackpoint>
          <Trackpoint>
            <Time>2019-07-26T11:14:39.000Z</Time>
            <Position>
              <LatitudeDegrees>42.9424273408949375152587890625</LatitudeDegrees>
              <LongitudeDegrees>-7.932510785758495330810546875</LongitudeDegrees>
            </Position>
            <AltitudeMeters>573.79998779296875</AltitudeMeters>
            <DistanceMeters>38408.209220409</DistanceMeters>
          </Trackpoint>
          <Trackpoint>
            <Time>2019-07-26T11:14:41.000Z</Time>
            <Position>
              <LatitudeDegrees>42.9424451105296611785888671875</LatitudeDegrees>
              <LongitudeDegrees>-7.932597957551479339599609375</LongitudeDegrees>
            </Position>
            <AltitudeMeters>572.79998779296875</AltitudeMeters>
            <DistanceMeters>38415.582215743</DistanceMeters>
          </Trackpoint>
          <Trackpoint>
            <Time>2019-07-26T11:14:42.000Z</Time>
            <Position>
              <LatitudeDegrees>42.942465730011463165283203125</LatitudeDegrees>
              <LongitudeDegrees>-7.9326457343995571136474609375</LongitudeDegrees>
            </Position>
            <AltitudeMeters>572.20001220703125</AltitudeMeters>
            <DistanceMeters>38420.101732632</DistanceMeters>
          </Trackpoint>
          <Trackpoint>
            <Time>2019-07-26T11:14:45.000Z</Time>
            <Position>
              <LatitudeDegrees>42.94252239167690277099609375</LatitudeDegrees>
              <LongitudeDegrees>-7.932774312794208526611328125</LongitudeDegrees>
            </Position>
            <AltitudeMeters>571.20001220703125</AltitudeMeters>
            <DistanceMeters>38432.329939199</DistanceMeters>
          </Trackpoint>
          <Trackpoint>
            <Time>2019-07-26T11:14:47.000Z</Time>
            <Position>
              <LatitudeDegrees>42.94255130924284458160400390625</LatitudeDegrees>
              <LongitudeDegrees>-7.93281798250973224639892578125</LongitudeDegrees>
            </Position>
            <AltitudeMeters>570.79998779296875</AltitudeMeters>
            <DistanceMeters>38437.127612057</DistanceMeters>
          </Trackpoint>
          <Trackpoint>
            <Time>2019-07-26T11:14:50.000Z</Time>
            <Position>
              <LatitudeDegrees>42.9425570927560329437255859375</LatitudeDegrees>
              <LongitudeDegrees>-7.93283767998218536376953125</LongitudeDegrees>
            </Position>
            <AltitudeMeters>570.20001220703125</AltitudeMeters>
            <DistanceMeters>38438.85385805</DistanceMeters>
          </Trackpoint>
          <Trackpoint>
            <Time>2019-07-26T11:15:07.000Z</Time>
            <Position>
              <LatitudeDegrees>42.9425738565623760223388671875</LatitudeDegrees>
              <LongitudeDegrees>-7.93292392976582050323486328125</LongitudeDegrees>
            </Position>
            <AltitudeMeters>568.79998779296875</AltitudeMeters>
            <DistanceMeters>38446.124488525</DistanceMeters>
          </Trackpoint>
          <Trackpoint>
            <Time>2019-07-26T11:15:11.000Z</Time>
            <Position>
              <LatitudeDegrees>42.9426368884742259979248046875</LatitudeDegrees>
              <LongitudeDegrees>-7.9331060685217380523681640625</LongitudeDegrees>
            </Position>
            <AltitudeMeters>568.79998779296875</AltitudeMeters>
            <DistanceMeters>38462.539098509</DistanceMeters>
          </Trackpoint>
          <Trackpoint>
            <Time>2019-07-26T11:15:12.000Z</Time>
            <Position>
              <LatitudeDegrees>42.9426558315753936767578125</LatitudeDegrees>
              <LongitudeDegrees>-7.93315610848367214202880859375</LongitudeDegrees>
            </Position>
            <AltitudeMeters>568.79998779296875</AltitudeMeters>
            <DistanceMeters>38467.129980605</DistanceMeters>
          </Trackpoint>
          <Trackpoint>
            <Time>2019-07-26T11:15:15.000Z</Time>
            <Position>
              <LatitudeDegrees>42.9426814801990985870361328125</LatitudeDegrees>
              <LongitudeDegrees>-7.93332022614777088165283203125</LongitudeDegrees>
            </Position>
            <AltitudeMeters>568.79998779296875</AltitudeMeters>
            <DistanceMeters>38480.803264874</DistanceMeters>
          </Trackpoint>
          <Trackpoint>
            <Time>2019-07-26T11:15:16.000Z</Time>
            <Position>
              <LatitudeDegrees>42.94268692843616008758544921875</LatitudeDegrees>
              <LongitudeDegrees>-7.93336817063391208648681640625</LongitudeDegrees>
            </Position>
            <AltitudeMeters>568.79998779296875</AltitudeMeters>
            <DistanceMeters>38484.755736537</DistanceMeters>
          </Trackpoint>
          <Trackpoint>
            <Time>2019-07-26T11:15:20.000Z</Time>
            <Position>
              <LatitudeDegrees>42.9427036084234714508056640625</LatitudeDegrees>
              <LongitudeDegrees>-7.93347646482288837432861328125</LongitudeDegrees>
            </Position>
            <AltitudeMeters>567.79998779296875</AltitudeMeters>
            <DistanceMeters>38493.772765332</DistanceMeters>
          </Trackpoint>
          <Trackpoint>
            <Time>2019-07-26T11:15:22.000Z</Time>
            <Position>
              <LatitudeDegrees>42.94274325482547283172607421875</LatitudeDegrees>
              <LongitudeDegrees>-7.93351627886295318603515625</LongitudeDegrees>
            </Position>
            <AltitudeMeters>567</AltitudeMeters>
            <DistanceMeters>38499.249800474</DistanceMeters>
          </Trackpoint>
          <Trackpoint>
            <Time>2019-07-26T11:15:23.000Z</Time>
            <Position>
              <LatitudeDegrees>42.9427679814398288726806640625</LatitudeDegrees>
              <LongitudeDegrees>-7.9335365630686283111572265625</LongitudeDegrees>
            </Position>
            <AltitudeMeters>566.5999755859375</AltitudeMeters>
            <DistanceMeters>38502.459678544</DistanceMeters>
          </Trackpoint>
          <Trackpoint>
            <Time>2019-07-26T11:15:25.000Z</Time>
            <Position>
              <LatitudeDegrees>42.94282036833465099334716796875</LatitudeDegrees>
              <LongitudeDegrees>-7.93359062634408473968505859375</LongitudeDegrees>
            </Position>
            <AltitudeMeters>565.4000244140625</AltitudeMeters>
            <DistanceMeters>38509.76747384</DistanceMeters>
          </Trackpoint>
          <Trackpoint>
            <Time>2019-07-26T11:15:28.000Z</Time>
            <Position>
              <LatitudeDegrees>42.94288625009357929229736328125</LatitudeDegrees>
              <LongitudeDegrees>-7.93366589583456516265869140625</LongitudeDegrees>
            </Position>
            <AltitudeMeters>564.4000244140625</AltitudeMeters>
            <DistanceMeters>38519.326518957</DistanceMeters>
          </Trackpoint>
          <Trackpoint>
            <Time>2019-07-26T11:15:31.000Z</Time>
            <Position>
              <LatitudeDegrees>42.942962944507598876953125</LatitudeDegrees>
              <LongitudeDegrees>-7.93373429216444492340087890625</LongitudeDegrees>
            </Position>
            <AltitudeMeters>564</AltitudeMeters>
            <DistanceMeters>38529.520542682</DistanceMeters>
          </Trackpoint>
          <Trackpoint>
            <Time>2019-07-26T11:15:34.000Z</Time>
            <Position>
              <LatitudeDegrees>42.94301046989858150482177734375</LatitudeDegrees>
              <LongitudeDegrees>-7.93375977315008640289306640625</LongitudeDegrees>
            </Position>
            <AltitudeMeters>563.20001220703125</AltitudeMeters>
            <DistanceMeters>38535.20310842</DistanceMeters>
          </Trackpoint>
          <Trackpoint>
            <Time>2019-07-26T11:15:35.000Z</Time>
            <Position>
              <LatitudeDegrees>42.9430154152214527130126953125</LatitudeDegrees>
              <LongitudeDegrees>-7.933755330741405487060546875</LongitudeDegrees>
            </Position>
            <AltitudeMeters>562.79998779296875</AltitudeMeters>
            <DistanceMeters>38535.854578751</DistanceMeters>
          </Trackpoint>
          <Trackpoint>
            <Time>2019-07-26T11:15:37.000Z</Time>
            <Position>
              <LatitudeDegrees>42.94301935471594333648681640625</LatitudeDegrees>
              <LongitudeDegrees>-7.93375055305659770965576171875</LongitudeDegrees>
            </Position>
            <AltitudeMeters>562.20001220703125</AltitudeMeters>
            <DistanceMeters>38536.448020392</DistanceMeters>
          </Trackpoint>
          <Trackpoint>
            <Time>2019-07-26T11:15:48.000Z</Time>
            <Position>
              <LatitudeDegrees>42.94292514212429523468017578125</LatitudeDegrees>
              <LongitudeDegrees>-7.93370001018047332763671875</LongitudeDegrees>
            </Position>
            <AltitudeMeters>561.4000244140625</AltitudeMeters>
            <DistanceMeters>38547.7133963</DistanceMeters>
          </Trackpoint>
          <Trackpoint>
            <Time>2019-07-26T11:15:49.000Z</Time>
            <Position>
              <LatitudeDegrees>42.94290251098573207855224609375</LatitudeDegrees>
              <LongitudeDegrees>-7.93367679230868816375732421875</LongitudeDegrees>
            </Position>
            <AltitudeMeters>561.4000244140625</AltitudeMeters>
            <DistanceMeters>38550.863642959</DistanceMeters>
          </Trackpoint>
          <Trackpoint>
            <Time>2019-07-26T11:15:50.000Z</Time>
            <Position>
              <LatitudeDegrees>42.94288457371294498443603515625</LatitudeDegrees>
              <LongitudeDegrees>-7.93365533463656902313232421875</LongitudeDegrees>
            </Position>
            <AltitudeMeters>561.4000244140625</AltitudeMeters>
            <DistanceMeters>38553.517594659</DistanceMeters>
          </Trackpoint>
          <Trackpoint>
            <Time>2019-07-26T11:15:51.000Z</Time>
            <Position>
              <LatitudeDegrees>42.94286906719207763671875</LatitudeDegrees>
              <LongitudeDegrees>-7.9336344636976718902587890625</LongitudeDegrees>
            </Position>
            <AltitudeMeters>561.4000244140625</AltitudeMeters>
            <DistanceMeters>38555.940310014</DistanceMeters>
          </Trackpoint>
          <Trackpoint>
            <Time>2019-07-26T11:15:52.000Z</Time>
            <Position>
              <LatitudeDegrees>42.942852638661861419677734375</LatitudeDegrees>
              <LongitudeDegrees>-7.93361610732972621917724609375</LongitudeDegrees>
            </Position>
            <AltitudeMeters>561.4000244140625</AltitudeMeters>
            <DistanceMeters>38558.302636672</DistanceMeters>
          </Trackpoint>
          <Trackpoint>
            <Time>2019-07-26T11:15:56.000Z</Time>
            <Position>
              <LatitudeDegrees>42.94277854263782501220703125</LatitudeDegrees>
              <LongitudeDegrees>-7.9335674084722995758056640625</LongitudeDegrees>
            </Position>
            <AltitudeMeters>561.5999755859375</AltitudeMeters>
            <DistanceMeters>38567.454848924</DistanceMeters>
          </Trackpoint>
          <Trackpoint>
            <Time>2019-07-26T11:15:59.000Z</Time>
            <Position>
              <LatitudeDegrees>42.9427294246852397918701171875</LatitudeDegrees>
              <LongitudeDegrees>-7.93353237211704254150390625</LongitudeDegrees>
            </Position>
            <AltitudeMeters>561.79998779296875</AltitudeMeters>
            <DistanceMeters>38573.622075365</DistanceMeters>
          </Trackpoint>
          <Trackpoint>
            <Time>2019-07-26T11:16:02.000Z</Time>
            <Position>
              <LatitudeDegrees>42.942664884030818939208984375</LatitudeDegrees>
              <LongitudeDegrees>-7.933534719049930572509765625</LongitudeDegrees>
            </Position>
            <AltitudeMeters>562.4000244140625</AltitudeMeters>
            <DistanceMeters>38580.808382288</DistanceMeters>
          </Trackpoint>
          <Trackpoint>
            <Time>2019-07-26T11:16:03.000Z</Time>
            <Position>
              <LatitudeDegrees>42.942645438015460968017578125</LatitudeDegrees>
              <LongitudeDegrees>-7.9335546679794788360595703125</LongitudeDegrees>
            </Position>
            <AltitudeMeters>562.79998779296875</AltitudeMeters>
            <DistanceMeters>38583.516226831</DistanceMeters>
          </Trackpoint>
          <Trackpoint>
            <Time>2019-07-26T11:16:05.000Z</Time>
            <Position>
              <LatitudeDegrees>42.9426021873950958251953125</LatitudeDegrees>
              <LongitudeDegrees>-7.9336176998913288116455078125</LongitudeDegrees>
            </Position>
            <AltitudeMeters>563.20001220703125</AltitudeMeters>
            <DistanceMeters>38590.555262948</DistanceMeters>
          </Trackpoint>
          <Trackpoint>
            <Time>2019-07-26T11:16:08.000Z</Time>
            <Position>
              <LatitudeDegrees>42.94256974942982196807861328125</LatitudeDegrees>
              <LongitudeDegrees>-7.9336911253631114959716796875</LongitudeDegrees>
            </Position>
            <AltitudeMeters>563.4000244140625</AltitudeMeters>
            <DistanceMeters>38597.542150184</DistanceMeters>
          </Trackpoint>
          <Trackpoint>
            <Time>2019-07-26T11:16:09.000Z</Time>
            <Position>
              <LatitudeDegrees>42.94256421737372875213623046875</LatitudeDegrees>
              <LongitudeDegrees>-7.933704368770122528076171875</LongitudeDegrees>
            </Position>
            <AltitudeMeters>563.4000244140625</AltitudeMeters>
            <DistanceMeters>38598.784785719</DistanceMeters>
          </Trackpoint>
          <Trackpoint>
            <Time>2019-07-26T11:16:10.000Z</Time>
            <Position>
              <LatitudeDegrees>42.9425557516515254974365234375</LatitudeDegrees>
              <LongitudeDegrees>-7.933721803128719329833984375</LongitudeDegrees>
            </Position>
            <AltitudeMeters>563.4000244140625</AltitudeMeters>
            <DistanceMeters>38600.489979143</DistanceMeters>
          </Trackpoint>
          <Trackpoint>
            <Time>2019-07-26T11:16:13.000Z</Time>
            <Position>
              <LatitudeDegrees>42.9425418376922607421875</LatitudeDegrees>
              <LongitudeDegrees>-7.93372071348130702972412109375</LongitudeDegrees>
            </Position>
            <AltitudeMeters>563.4000244140625</AltitudeMeters>
            <DistanceMeters>38602.039817952</DistanceMeters>
          </Trackpoint>
          <Trackpoint>
            <Time>2019-07-26T11:16:18.000Z</Time>
            <Position>
              <LatitudeDegrees>42.942576371133327484130859375</LatitudeDegrees>
              <LongitudeDegrees>-7.9336599446833133697509765625</LongitudeDegrees>
            </Position>
            <AltitudeMeters>562.5999755859375</AltitudeMeters>
            <DistanceMeters>38608.307980571</DistanceMeters>
          </Trackpoint>
          <Trackpoint>
            <Time>2019-07-26T11:16:19.000Z</Time>
            <Position>
              <LatitudeDegrees>42.94258416630327701568603515625</LatitudeDegrees>
              <LongitudeDegrees>-7.93364175595343112945556640625</LongitudeDegrees>
            </Position>
            <AltitudeMeters>562.5999755859375</AltitudeMeters>
            <DistanceMeters>38610.023732569</DistanceMeters>
          </Trackpoint>
          <Trackpoint>
            <Time>2019-07-26T11:16:25.000Z</Time>
            <Position>
              <LatitudeDegrees>42.94264200143516063690185546875</LatitudeDegrees>
              <LongitudeDegrees>-7.933542095124721527099609375</LongitudeDegrees>
            </Position>
            <AltitudeMeters>562.5999755859375</AltitudeMeters>
            <DistanceMeters>38620.386438252</DistanceMeters>
          </Trackpoint>
          <Trackpoint>
            <Time>2019-07-26T11:16:26.000Z</Time>
            <Position>
              <LatitudeDegrees>42.94265205971896648406982421875</LatitudeDegrees>
              <LongitudeDegrees>-7.933534048497676849365234375</LongitudeDegrees>
            </Position>
            <AltitudeMeters>562.5999755859375</AltitudeMeters>
            <DistanceMeters>38621.689378915</DistanceMeters>
          </Trackpoint>
          <Trackpoint>
            <Time>2019-07-26T11:16:30.000Z</Time>
            <Position>
              <LatitudeDegrees>42.9427106492221355438232421875</LatitudeDegrees>
              <LongitudeDegrees>-7.9335781373083591461181640625</LongitudeDegrees>
            </Position>
            <AltitudeMeters>563</AltitudeMeters>
            <DistanceMeters>38629.134890267</DistanceMeters>
          </Trackpoint>
          <Trackpoint>
            <Time>2019-07-26T11:16:31.000Z</Time>
            <Position>
              <LatitudeDegrees>42.94272665865719318389892578125</LatitudeDegrees>
              <LongitudeDegrees>-7.933596409857273101806640625</LongitudeDegrees>
            </Position>
            <AltitudeMeters>563.20001220703125</AltitudeMeters>
            <DistanceMeters>38631.454788015</DistanceMeters>
          </Trackpoint>
          <Trackpoint>
            <Time>2019-07-26T11:16:35.000Z</Time>
            <Position>
              <LatitudeDegrees>42.94285322539508342742919921875</LatitudeDegrees>
              <LongitudeDegrees>-7.933708727359771728515625</LongitudeDegrees>
            </Position>
            <AltitudeMeters>563.4000244140625</AltitudeMeters>
            <DistanceMeters>38648.253296546</DistanceMeters>
          </Trackpoint>
          <Trackpoint>
            <Time>2019-07-26T11:16:38.000Z</Time>
            <Position>
              <LatitudeDegrees>42.94297442771494388580322265625</LatitudeDegrees>
              <LongitudeDegrees>-7.93378341011703014373779296875</LongitudeDegrees>
            </Position>
            <AltitudeMeters>563.4000244140625</AltitudeMeters>
            <DistanceMeters>38663.051857757</DistanceMeters>
          </Trackpoint>
          <Trackpoint>
            <Time>2019-07-26T11:16:40.000Z</Time>
            <Position>
              <LatitudeDegrees>42.943051122128963470458984375</LatitudeDegrees>
              <LongitudeDegrees>-7.93382230214774608612060546875</LongitudeDegrees>
            </Position>
            <AltitudeMeters>563.4000244140625</AltitudeMeters>
            <DistanceMeters>38672.157083281</DistanceMeters>
          </Trackpoint>
          <Trackpoint>
            <Time>2019-07-26T11:16:44.000Z</Time>
            <Position>
              <LatitudeDegrees>42.9432085342705249786376953125</LatitudeDegrees>
              <LongitudeDegrees>-7.9339338652789592742919921875</LongitudeDegrees>
            </Position>
            <AltitudeMeters>562.4000244140625</AltitudeMeters>
            <DistanceMeters>38691.894980535</DistanceMeters>
          </Trackpoint>
          <Trackpoint>
            <Time>2019-07-26T11:16:45.000Z</Time>
            <Position>
              <LatitudeDegrees>42.94323384761810302734375</LatitudeDegrees>
              <LongitudeDegrees>-7.933982647955417633056640625</LongitudeDegrees>
            </Position>
            <AltitudeMeters>562.20001220703125</AltitudeMeters>
            <DistanceMeters>38696.766432156</DistanceMeters>
          </Trackpoint>
          <Trackpoint>
            <Time>2019-07-26T11:16:46.000Z</Time>
            <Position>
              <LatitudeDegrees>42.943262346088886260986328125</LatitudeDegrees>
              <LongitudeDegrees>-7.9340062849223613739013671875</LongitudeDegrees>
            </Position>
            <AltitudeMeters>562</AltitudeMeters>
            <DistanceMeters>38700.476127089</DistanceMeters>
          </Trackpoint>
          <Trackpoint>
            <Time>2019-07-26T11:16:49.000Z</Time>
            <Position>
              <LatitudeDegrees>42.94332814402878284454345703125</LatitudeDegrees>
              <LongitudeDegrees>-7.9340958036482334136962890625</LongitudeDegrees>
            </Position>
            <AltitudeMeters>561.79998779296875</AltitudeMeters>
            <DistanceMeters>38710.811784027</DistanceMeters>
          </Trackpoint>
          <Trackpoint>
            <Time>2019-07-26T11:16:50.000Z</Time>
            <Position>
              <LatitudeDegrees>42.94333375990390777587890625</LatitudeDegrees>
              <LongitudeDegrees>-7.93412203900516033172607421875</LongitudeDegrees>
            </Position>
            <AltitudeMeters>561.5999755859375</AltitudeMeters>
            <DistanceMeters>38713.036302378</DistanceMeters>
          </Trackpoint>
          <Trackpoint>
            <Time>2019-07-26T11:16:53.000Z</Time>
            <Position>
              <LatitudeDegrees>42.94333568774163722991943359375</LatitudeDegrees>
              <LongitudeDegrees>-7.934153638780117034912109375</LongitudeDegrees>
            </Position>
            <AltitudeMeters>561</AltitudeMeters>
            <DistanceMeters>38715.617812869</DistanceMeters>
          </Trackpoint>
          <Trackpoint>
            <Time>2019-07-26T11:17:04.000Z</Time>
            <Position>
              <LatitudeDegrees>42.94334851205348968505859375</LatitudeDegrees>
              <LongitudeDegrees>-7.93427475728094577789306640625</LongitudeDegrees>
            </Position>
            <AltitudeMeters>558.20001220703125</AltitudeMeters>
            <DistanceMeters>38725.588375118</DistanceMeters>
          </Trackpoint>
          <Trackpoint>
            <Time>2019-07-26T11:17:06.000Z</Time>
            <Position>
              <LatitudeDegrees>42.94334717094898223876953125</LatitudeDegrees>
              <LongitudeDegrees>-7.9343170858919620513916015625</LongitudeDegrees>
            </Position>
            <AltitudeMeters>558.20001220703125</AltitudeMeters>
            <DistanceMeters>38729.040867103</DistanceMeters>
          </Trackpoint>
          <Trackpoint>
            <Time>2019-07-26T11:17:08.000Z</Time>
            <Position>
              <LatitudeDegrees>42.9433677904307842254638671875</LatitudeDegrees>
              <LongitudeDegrees>-7.93437098152935504913330078125</LongitudeDegrees>
            </Position>
            <AltitudeMeters>558.20001220703125</AltitudeMeters>
            <DistanceMeters>38733.995031793</DistanceMeters>
          </Trackpoint>
          <Trackpoint>
            <Time>2019-07-26T11:17:10.000Z</Time>
            <Position>
              <LatitudeDegrees>42.94339771382510662078857421875</LatitudeDegrees>
              <LongitudeDegrees>-7.93445371091365814208984375</LongitudeDegrees>
            </Position>
            <AltitudeMeters>558.20001220703125</AltitudeMeters>
            <DistanceMeters>38741.512960262</DistanceMeters>
          </Trackpoint>
          <Trackpoint>
            <Time>2019-07-26T11:17:13.000Z</Time>
            <Position>
              <LatitudeDegrees>42.943429984152317047119140625</LatitudeDegrees>
              <LongitudeDegrees>-7.93460718356072902679443359375</LongitudeDegrees>
            </Position>
            <AltitudeMeters>558.20001220703125</AltitudeMeters>
            <DistanceMeters>38754.522946921</DistanceMeters>
          </Trackpoint>
          <Trackpoint>
            <Time>2019-07-26T11:17:14.000Z</Time>
            <Position>
              <LatitudeDegrees>42.94343912042677402496337890625</LatitudeDegrees>
              <LongitudeDegrees>-7.93465554714202880859375</LongitudeDegrees>
            </Position>
            <AltitudeMeters>558.20001220703125</AltitudeMeters>
            <DistanceMeters>38758.59248746</DistanceMeters>
          </Trackpoint>
          <Trackpoint>
            <Time>2019-07-26T11:17:19.000Z</Time>
            <Position>
              <LatitudeDegrees>42.9434948600828647613525390625</LatitudeDegrees>
              <LongitudeDegrees>-7.93479845859110355377197265625</LongitudeDegrees>
            </Position>
            <AltitudeMeters>558.5999755859375</AltitudeMeters>
            <DistanceMeters>38771.786151985</DistanceMeters>
          </Trackpoint>
          <Trackpoint>
            <Time>2019-07-26T11:17:22.000Z</Time>
            <Position>
              <LatitudeDegrees>42.9434760846197605133056640625</LatitudeDegrees>
              <LongitudeDegrees>-7.93479225598275661468505859375</LongitudeDegrees>
            </Position>
            <AltitudeMeters>559.20001220703125</AltitudeMeters>
            <DistanceMeters>38773.936361077</DistanceMeters>
          </Trackpoint>
          <Trackpoint>
            <Time>2019-07-26T11:17:23.000Z</Time>
            <Position>
              <LatitudeDegrees>42.94347533024847507476806640625</LatitudeDegrees>
              <LongitudeDegrees>-7.9347623325884342193603515625</LongitudeDegrees>
            </Position>
            <AltitudeMeters>559.4000244140625</AltitudeMeters>
            <DistanceMeters>38776.373939855</DistanceMeters>
          </Trackpoint>
          <Trackpoint>
            <Time>2019-07-26T11:17:27.000Z</Time>
            <Position>
              <LatitudeDegrees>42.94344968162477016448974609375</LatitudeDegrees>
              <LongitudeDegrees>-7.93460047803819179534912109375</LongitudeDegrees>
            </Position>
            <AltitudeMeters>559.79998779296875</AltitudeMeters>
            <DistanceMeters>38789.866394825</DistanceMeters>
          </Trackpoint>
          <Trackpoint>
            <Time>2019-07-26T11:17:30.000Z</Time>
            <Position>
              <LatitudeDegrees>42.9434237815439701080322265625</LatitudeDegrees>
              <LongitudeDegrees>-7.93443921022117137908935546875</LongitudeDegrees>
            </Position>
            <AltitudeMeters>560</AltitudeMeters>
            <DistanceMeters>38803.317962458</DistanceMeters>
          </Trackpoint>
          <Trackpoint>
            <Time>2019-07-26T11:17:32.000Z</Time>
            <Position>
              <LatitudeDegrees>42.94338095001876354217529296875</LatitudeDegrees>
              <LongitudeDegrees>-7.9343350231647491455078125</LongitudeDegrees>
            </Position>
            <AltitudeMeters>560</AltitudeMeters>
            <DistanceMeters>38813.054375684</DistanceMeters>
          </Trackpoint>
          <Trackpoint>
            <Time>2019-07-26T11:17:35.000Z</Time>
            <Position>
              <LatitudeDegrees>42.94331632554531097412109375</LatitudeDegrees>
              <LongitudeDegrees>-7.93424986302852630615234375</LongitudeDegrees>
            </Position>
            <AltitudeMeters>560</AltitudeMeters>
            <DistanceMeters>38823.048005929</DistanceMeters>
          </Trackpoint>
          <Trackpoint>
            <Time>2019-07-26T11:17:36.000Z</Time>
            <Position>
              <LatitudeDegrees>42.9433077760040760040283203125</LatitudeDegrees>
              <LongitudeDegrees>-7.93423972092568874359130859375</LongitudeDegrees>
            </Position>
            <AltitudeMeters>560</AltitudeMeters>
            <DistanceMeters>38824.308677755</DistanceMeters>
          </Trackpoint>
          <Trackpoint>
            <Time>2019-07-26T11:17:40.000Z</Time>
            <Position>
              <LatitudeDegrees>42.94329595752060413360595703125</LatitudeDegrees>
              <LongitudeDegrees>-7.934229411184787750244140625</LongitudeDegrees>
            </Position>
            <AltitudeMeters>559.4000244140625</AltitudeMeters>
            <DistanceMeters>38825.867231753</DistanceMeters>
          </Trackpoint>
          <Trackpoint>
            <Time>2019-07-26T11:21:05.000Z</Time>
            <Position>
              <LatitudeDegrees>42.94336795806884765625</LatitudeDegrees>
              <LongitudeDegrees>-7.9343519546091556549072265625</LongitudeDegrees>
            </Position>
            <AltitudeMeters>557.20001220703125</AltitudeMeters>
            <DistanceMeters>38838.670120006</DistanceMeters>
          </Trackpoint>
          <Trackpoint>
            <Time>2019-07-26T11:21:06.000Z</Time>
            <Position>
              <LatitudeDegrees>42.94338413514196872711181640625</LatitudeDegrees>
              <LongitudeDegrees>-7.93438103981316089630126953125</LongitudeDegrees>
            </Position>
            <AltitudeMeters>557.20001220703125</AltitudeMeters>
            <DistanceMeters>38841.646444079</DistanceMeters>
          </Trackpoint>
          <Trackpoint>
            <Time>2019-07-26T11:21:08.000Z</Time>
            <Position>
              <LatitudeDegrees>42.943409867584705352783203125</LatitudeDegrees>
              <LongitudeDegrees>-7.9344729892909526824951171875</LongitudeDegrees>
            </Position>
            <AltitudeMeters>557.20001220703125</AltitudeMeters>
            <DistanceMeters>38849.666496106</DistanceMeters>
          </Trackpoint>
          <Trackpoint>
            <Time>2019-07-26T11:21:10.000Z</Time>
            <Position>
              <LatitudeDegrees>42.9434284754097461700439453125</LatitudeDegrees>
              <LongitudeDegrees>-7.9345896653831005096435546875</LongitudeDegrees>
            </Position>
            <AltitudeMeters>557.4000244140625</AltitudeMeters>
            <DistanceMeters>38859.39548687</DistanceMeters>
          </Trackpoint>
          <Trackpoint>
            <Time>2019-07-26T11:21:12.000Z</Time>
            <Position>
              <LatitudeDegrees>42.94344699941575527191162109375</LatitudeDegrees>
              <LongitudeDegrees>-7.93470592238008975982666015625</LongitudeDegrees>
            </Position>
            <AltitudeMeters>557.5999755859375</AltitudeMeters>
            <DistanceMeters>38869.089609087</DistanceMeters>
          </Trackpoint>
          <Trackpoint>
            <Time>2019-07-26T11:21:15.000Z</Time>
            <Position>
              <LatitudeDegrees>42.94347566552460193634033203125</LatitudeDegrees>
              <LongitudeDegrees>-7.93486417271196842193603515625</LongitudeDegrees>
            </Position>
            <AltitudeMeters>558</AltitudeMeters>
            <DistanceMeters>38882.371950879</DistanceMeters>
          </Trackpoint>
          <Trackpoint>
            <Time>2019-07-26T11:21:17.000Z</Time>
            <Position>
              <LatitudeDegrees>42.9435035772621631622314453125</LatitudeDegrees>
              <LongitudeDegrees>-7.93495151214301586151123046875</LongitudeDegrees>
            </Position>
            <AltitudeMeters>558.20001220703125</AltitudeMeters>
            <DistanceMeters>38890.136860435</DistanceMeters>
          </Trackpoint>
          <Trackpoint>
            <Time>2019-07-26T11:21:18.000Z</Time>
            <Position>
              <LatitudeDegrees>42.94351908378303050994873046875</LatitudeDegrees>
              <LongitudeDegrees>-7.93499241583049297332763671875</LongitudeDegrees>
            </Position>
            <AltitudeMeters>558.4000244140625</AltitudeMeters>
            <DistanceMeters>38893.890114923</DistanceMeters>
          </Trackpoint>
          <Trackpoint>
            <Time>2019-07-26T11:21:23.000Z</Time>
            <Position>
              <LatitudeDegrees>42.943564094603061676025390625</LatitudeDegrees>
              <LongitudeDegrees>-7.9351086728274822235107421875</LongitudeDegrees>
            </Position>
            <AltitudeMeters>559.4000244140625</AltitudeMeters>
            <DistanceMeters>38904.605404093</DistanceMeters>
          </Trackpoint>
          <Trackpoint>
            <Time>2019-07-26T11:21:24.000Z</Time>
            <Position>
              <LatitudeDegrees>42.94356308877468109130859375</LatitudeDegrees>
              <LongitudeDegrees>-7.935111187398433685302734375</LongitudeDegrees>
            </Position>
            <AltitudeMeters>559.4000244140625</AltitudeMeters>
            <DistanceMeters>38904.838171055</DistanceMeters>
          </Trackpoint>
          <Trackpoint>
            <Time>2019-07-26T11:22:00.000Z</Time>
            <Position>
              <LatitudeDegrees>42.94355981983244419097900390625</LatitudeDegrees>
              <LongitudeDegrees>-7.9351985268294811248779296875</LongitudeDegrees>
            </Position>
            <AltitudeMeters>559</AltitudeMeters>
            <DistanceMeters>38911.963907497</DistanceMeters>
          </Trackpoint>
          <Trackpoint>
            <Time>2019-07-26T11:22:01.000Z</Time>
            <Position>
              <LatitudeDegrees>42.94356384314596652984619140625</LatitudeDegrees>
              <LongitudeDegrees>-7.9352454654872417449951171875</LongitudeDegrees>
            </Position>
            <AltitudeMeters>559</AltitudeMeters>
            <DistanceMeters>38915.815714294</DistanceMeters>
          </Trackpoint>
          <Trackpoint>
            <Time>2019-07-26T11:22:04.000Z</Time>
            <Position>
              <LatitudeDegrees>42.9435838758945465087890625</LatitudeDegrees>
              <LongitudeDegrees>-7.9354151152074337005615234375</LongitudeDegrees>
            </Position>
            <AltitudeMeters>559</AltitudeMeters>
            <DistanceMeters>38929.816603531</DistanceMeters>
          </Trackpoint>
          <Trackpoint>
            <Time>2019-07-26T11:22:06.000Z</Time>
            <Position>
              <LatitudeDegrees>42.94358999468386173248291015625</LatitudeDegrees>
              <LongitudeDegrees>-7.9355634748935699462890625</LongitudeDegrees>
            </Position>
            <AltitudeMeters>558.79998779296875</AltitudeMeters>
            <DistanceMeters>38941.923469387</DistanceMeters>
          </Trackpoint>
          <Trackpoint>
            <Time>2019-07-26T11:22:08.000Z</Time>
            <Position>
              <LatitudeDegrees>42.94357809238135814666748046875</LatitudeDegrees>
              <LongitudeDegrees>-7.93573446571826934814453125</LongitudeDegrees>
            </Position>
            <AltitudeMeters>558.5999755859375</AltitudeMeters>
            <DistanceMeters>38955.917907493</DistanceMeters>
          </Trackpoint>
          <Trackpoint>
            <Time>2019-07-26T11:22:10.000Z</Time>
            <Position>
              <LatitudeDegrees>42.9435478337109088897705078125</LatitudeDegrees>
              <LongitudeDegrees>-7.935910485684871673583984375</LongitudeDegrees>
            </Position>
            <AltitudeMeters>558.4000244140625</AltitudeMeters>
            <DistanceMeters>38970.649500319</DistanceMeters>
          </Trackpoint>
          <Trackpoint>
            <Time>2019-07-26T11:22:12.000Z</Time>
            <Position>
              <LatitudeDegrees>42.94353065080940723419189453125</LatitudeDegrees>
              <LongitudeDegrees>-7.93609731830656528472900390625</LongitudeDegrees>
            </Position>
            <AltitudeMeters>557.79998779296875</AltitudeMeters>
            <DistanceMeters>38985.991827478</DistanceMeters>
          </Trackpoint>
          <Trackpoint>
            <Time>2019-07-26T11:22:14.000Z</Time>
            <Position>
              <LatitudeDegrees>42.943514473736286163330078125</LatitudeDegrees>
              <LongitudeDegrees>-7.93632865883409976959228515625</LongitudeDegrees>
            </Position>
            <AltitudeMeters>557.5999755859375</AltitudeMeters>
            <DistanceMeters>39004.926243101</DistanceMeters>
          </Trackpoint>
          <Trackpoint>
            <Time>2019-07-26T11:22:15.000Z</Time>
            <Position>
              <LatitudeDegrees>42.94350584037601947784423828125</LatitudeDegrees>
              <LongitudeDegrees>-7.93645053170621395111083984375</LongitudeDegrees>
            </Position>
            <AltitudeMeters>557.4000244140625</AltitudeMeters>
            <DistanceMeters>39014.902690493</DistanceMeters>
          </Trackpoint>
          <Trackpoint>
            <Time>2019-07-26T11:22:16.000Z</Time>
            <Position>
              <LatitudeDegrees>42.9435034096240997314453125</LatitudeDegrees>
              <LongitudeDegrees>-7.9365761764347553253173828125</LongitudeDegrees>
            </Position>
            <AltitudeMeters>557.4000244140625</AltitudeMeters>
            <DistanceMeters>39025.142673289</DistanceMeters>
          </Trackpoint>
          <Trackpoint>
            <Time>2019-07-26T11:22:18.000Z</Time>
            <Position>
              <LatitudeDegrees>42.9435371048748493194580078125</LatitudeDegrees>
              <LongitudeDegrees>-7.936838530004024505615234375</LongitudeDegrees>
            </Position>
            <AltitudeMeters>557</AltitudeMeters>
            <DistanceMeters>39046.844577975</DistanceMeters>
          </Trackpoint>
          <Trackpoint>
            <Time>2019-07-26T11:22:21.000Z</Time>
            <Position>
              <LatitudeDegrees>42.94361480511724948883056640625</LatitudeDegrees>
              <LongitudeDegrees>-7.93725720606744289398193359375</LongitudeDegrees>
            </Position>
            <AltitudeMeters>556.4000244140625</AltitudeMeters>
            <DistanceMeters>39082.035781476</DistanceMeters>
          </Trackpoint>
          <Trackpoint>
            <Time>2019-07-26T11:22:23.000Z</Time>
            <Position>
              <LatitudeDegrees>42.94363458640873432159423828125</LatitudeDegrees>
              <LongitudeDegrees>-7.93756448663771152496337890625</LongitudeDegrees>
            </Position>
            <AltitudeMeters>555.4000244140625</AltitudeMeters>
            <DistanceMeters>39107.168146807</DistanceMeters>
          </Trackpoint>
          <Trackpoint>
            <Time>2019-07-26T11:22:25.000Z</Time>
            <Position>
              <LatitudeDegrees>42.943655960261821746826171875</LatitudeDegrees>
              <LongitudeDegrees>-7.93784393928945064544677734375</LongitudeDegrees>
            </Position>
            <AltitudeMeters>554.20001220703125</AltitudeMeters>
            <DistanceMeters>39130.060711462</DistanceMeters>
          </Trackpoint>
          <Trackpoint>
            <Time>2019-07-26T11:22:26.000Z</Time>
            <Position>
              <LatitudeDegrees>42.9436809383332729339599609375</LatitudeDegrees>
              <LongitudeDegrees>-7.93797737918794155120849609375</LongitudeDegrees>
            </Position>
            <AltitudeMeters>553.79998779296875</AltitudeMeters>
            <DistanceMeters>39141.282718684</DistanceMeters>
          </Trackpoint>
          <Trackpoint>
            <Time>2019-07-26T11:22:27.000Z</Time>
            <Position>
              <LatitudeDegrees>42.943712957203388214111328125</LatitudeDegrees>
              <LongitudeDegrees>-7.93810553848743438720703125</LongitudeDegrees>
            </Position>
            <AltitudeMeters>553.4000244140625</AltitudeMeters>
            <DistanceMeters>39152.316461957</DistanceMeters>
          </Trackpoint>
          <Trackpoint>
            <Time>2019-07-26T11:22:28.000Z</Time>
            <Position>
              <LatitudeDegrees>42.94374472461640834808349609375</LatitudeDegrees>
              <LongitudeDegrees>-7.938215173780918121337890625</LongitudeDegrees>
            </Position>
            <AltitudeMeters>552.4000244140625</AltitudeMeters>
            <DistanceMeters>39161.923094106</DistanceMeters>
          </Trackpoint>
          <Trackpoint>
            <Time>2019-07-26T11:22:29.000Z</Time>
            <Position>
              <LatitudeDegrees>42.9437634162604808807373046875</LatitudeDegrees>
              <LongitudeDegrees>-7.938309721648693084716796875</LongitudeDegrees>
            </Position>
            <AltitudeMeters>551.4000244140625</AltitudeMeters>
            <DistanceMeters>39169.901943581</DistanceMeters>
          </Trackpoint>
          <Trackpoint>
            <Time>2019-07-26T11:22:30.000Z</Time>
            <Position>
              <LatitudeDegrees>42.94376467354595661163330078125</LatitudeDegrees>
              <LongitudeDegrees>-7.9384024254977703094482421875</LongitudeDegrees>
            </Position>
            <AltitudeMeters>550.5999755859375</AltitudeMeters>
            <DistanceMeters>39177.456417958</DistanceMeters>
          </Trackpoint>
          <Trackpoint>
            <Time>2019-07-26T11:22:31.000Z</Time>
            <Position>
              <LatitudeDegrees>42.94375293888151645660400390625</LatitudeDegrees>
              <LongitudeDegrees>-7.9384979791939258575439453125</LongitudeDegrees>
            </Position>
            <AltitudeMeters>548.79998779296875</AltitudeMeters>
            <DistanceMeters>39185.351073595</DistanceMeters>
          </Trackpoint>
          <Trackpoint>
            <Time>2019-07-26T11:22:33.000Z</Time>
            <Position>
              <LatitudeDegrees>42.9437054134905338287353515625</LatitudeDegrees>
              <LongitudeDegrees>-7.93869830667972564697265625</LongitudeDegrees>
            </Position>
            <AltitudeMeters>547</AltitudeMeters>
            <DistanceMeters>39202.508593581</DistanceMeters>
          </Trackpoint>
          <Trackpoint>
            <Time>2019-07-26T11:22:35.000Z</Time>
            <Position>
              <LatitudeDegrees>42.943689487874507904052734375</LatitudeDegrees>
              <LongitudeDegrees>-7.93892805464565753936767578125</LongitudeDegrees>
            </Position>
            <AltitudeMeters>545.5999755859375</AltitudeMeters>
            <DistanceMeters>39221.311160503</DistanceMeters>
          </Trackpoint>
          <Trackpoint>
            <Time>2019-07-26T11:22:36.000Z</Time>
            <Position>
              <LatitudeDegrees>42.94369879178702831268310546875</LatitudeDegrees>
              <LongitudeDegrees>-7.939039282500743865966796875</LongitudeDegrees>
            </Position>
            <AltitudeMeters>545.20001220703125</AltitudeMeters>
            <DistanceMeters>39230.432735167</DistanceMeters>
          </Trackpoint>
          <Trackpoint>
            <Time>2019-07-26T11:22:37.000Z</Time>
            <Position>
              <LatitudeDegrees>42.94370792806148529052734375</LatitudeDegrees>
              <LongitudeDegrees>-7.93914648704230785369873046875</LongitudeDegrees>
            </Position>
            <AltitudeMeters>544.5999755859375</AltitudeMeters>
            <DistanceMeters>39239.226172754</DistanceMeters>
          </Trackpoint>
          <Trackpoint>
            <Time>2019-07-26T11:22:38.000Z</Time>
            <Position>
              <LatitudeDegrees>42.9437107779085636138916015625</LatitudeDegrees>
              <LongitudeDegrees>-7.9392486624419689178466796875</LongitudeDegrees>
            </Position>
            <AltitudeMeters>543.5999755859375</AltitudeMeters>
            <DistanceMeters>39247.55714914</DistanceMeters>
          </Trackpoint>
          <Trackpoint>
            <Time>2019-07-26T11:22:39.000Z</Time>
            <Position>
              <LatitudeDegrees>42.94370415620505809783935546875</LatitudeDegrees>
              <LongitudeDegrees>-7.93934899382293224334716796875</LongitudeDegrees>
            </Position>
            <AltitudeMeters>542.20001220703125</AltitudeMeters>
            <DistanceMeters>39255.76472919</DistanceMeters>
          </Trackpoint>
          <Trackpoint>
            <Time>2019-07-26T11:22:40.000Z</Time>
            <Position>
              <LatitudeDegrees>42.9436839558184146881103515625</LatitudeDegrees>
              <LongitudeDegrees>-7.93944471515715122222900390625</LongitudeDegrees>
            </Position>
            <AltitudeMeters>541.20001220703125</AltitudeMeters>
            <DistanceMeters>39263.881590513</DistanceMeters>
          </Trackpoint>
          <Trackpoint>
            <Time>2019-07-26T11:22:41.000Z</Time>
            <Position>
              <LatitudeDegrees>42.94365537352859973907470703125</LatitudeDegrees>
              <LongitudeDegrees>-7.93953490443527698516845703125</LongitudeDegrees>
            </Position>
            <AltitudeMeters>540.4000244140625</AltitudeMeters>
            <DistanceMeters>39271.88924765</DistanceMeters>
          </Trackpoint>
          <Trackpoint>
            <Time>2019-07-26T11:22:43.000Z</Time>
            <Position>
              <LatitudeDegrees>42.9435656033456325531005859375</LatitudeDegrees>
              <LongitudeDegrees>-7.93969013728201389312744140625</LongitudeDegrees>
            </Position>
            <AltitudeMeters>539.20001220703125</AltitudeMeters>
            <DistanceMeters>39288.007414397</DistanceMeters>
          </Trackpoint>
          <Trackpoint>
            <Time>2019-07-26T11:22:44.000Z</Time>
            <Position>
              <LatitudeDegrees>42.94349829666316509246826171875</LatitudeDegrees>
              <LongitudeDegrees>-7.93976448476314544677734375</LongitudeDegrees>
            </Position>
            <AltitudeMeters>538.4000244140625</AltitudeMeters>
            <DistanceMeters>39297.641267504</DistanceMeters>
          </Trackpoint>
          <Trackpoint>
            <Time>2019-07-26T11:22:45.000Z</Time>
            <Position>
              <LatitudeDegrees>42.9434026591479778289794921875</LatitudeDegrees>
              <LongitudeDegrees>-7.9398461245000362396240234375</LongitudeDegrees>
            </Position>
            <AltitudeMeters>537.20001220703125</AltitudeMeters>
            <DistanceMeters>39310.193429621</DistanceMeters>
          </Trackpoint>
          <Trackpoint>
            <Time>2019-07-26T11:22:46.000Z</Time>
            <Position>
              <LatitudeDegrees>42.94329863972961902618408203125</LatitudeDegrees>
              <LongitudeDegrees>-7.9399247467517852783203125</LongitudeDegrees>
            </Position>
            <AltitudeMeters>535.79998779296875</AltitudeMeters>
            <DistanceMeters>39323.42502522</DistanceMeters>
          </Trackpoint>
          <Trackpoint>
            <Time>2019-07-26T11:22:47.000Z</Time>
            <Position>
              <LatitudeDegrees>42.94320040382444858551025390625</LatitudeDegrees>
              <LongitudeDegrees>-7.94000261463224887847900390625</LongitudeDegrees>
            </Position>
            <AltitudeMeters>534.20001220703125</AltitudeMeters>
            <DistanceMeters>39336.066078686</DistanceMeters>
          </Trackpoint>
          <Trackpoint>
            <Time>2019-07-26T11:22:48.000Z</Time>
            <Position>
              <LatitudeDegrees>42.94309428893029689788818359375</LatitudeDegrees>
              <LongitudeDegrees>-7.94010034762322902679443359375</LongitudeDegrees>
            </Position>
            <AltitudeMeters>532.79998779296875</AltitudeMeters>
            <DistanceMeters>39350.310580001</DistanceMeters>
          </Trackpoint>
          <Trackpoint>
            <Time>2019-07-26T11:22:49.000Z</Time>
            <Position>
              <LatitudeDegrees>42.9429926164448261260986328125</LatitudeDegrees>
              <LongitudeDegrees>-7.9402021877467632293701171875</LongitudeDegrees>
            </Position>
            <AltitudeMeters>531.4000244140625</AltitudeMeters>
            <DistanceMeters>39364.343036911</DistanceMeters>
          </Trackpoint>
          <Trackpoint>
            <Time>2019-07-26T11:22:50.000Z</Time>
            <Position>
              <LatitudeDegrees>42.94289496727287769317626953125</LatitudeDegrees>
              <LongitudeDegrees>-7.9403031058609485626220703125</LongitudeDegrees>
            </Position>
            <AltitudeMeters>529.79998779296875</AltitudeMeters>
            <DistanceMeters>39377.971338797</DistanceMeters>
          </Trackpoint>
          <Trackpoint>
            <Time>2019-07-26T11:22:51.000Z</Time>
            <Position>
              <LatitudeDegrees>42.94280125759541988372802734375</LatitudeDegrees>
              <LongitudeDegrees>-7.9404036886990070343017578125</LongitudeDegrees>
            </Position>
            <AltitudeMeters>528.5999755859375</AltitudeMeters>
            <DistanceMeters>39391.235652177</DistanceMeters>
          </Trackpoint>
          <Trackpoint>
            <Time>2019-07-26T11:22:52.000Z</Time>
            <Position>
              <LatitudeDegrees>42.94271777383983135223388671875</LatitudeDegrees>
              <LongitudeDegrees>-7.94051743112504482269287109375</LongitudeDegrees>
            </Position>
            <AltitudeMeters>527.4000244140625</AltitudeMeters>
            <DistanceMeters>39404.35897561</DistanceMeters>
          </Trackpoint>
          <Trackpoint>
            <Time>2019-07-26T11:22:53.000Z</Time>
            <Position>
              <LatitudeDegrees>42.942646108567714691162109375</LatitudeDegrees>
              <LongitudeDegrees>-7.94063712470233440399169921875</LongitudeDegrees>
            </Position>
            <AltitudeMeters>526</AltitudeMeters>
            <DistanceMeters>39416.957812213</DistanceMeters>
          </Trackpoint>
          <Trackpoint>
            <Time>2019-07-26T11:22:54.000Z</Time>
            <Position>
              <LatitudeDegrees>42.9425835795700550079345703125</LatitudeDegrees>
              <LongitudeDegrees>-7.94075799174606800079345703125</LongitudeDegrees>
            </Position>
            <AltitudeMeters>524.4000244140625</AltitudeMeters>
            <DistanceMeters>39429.016848287</DistanceMeters>
          </Trackpoint>
          <Trackpoint>
            <Time>2019-07-26T11:22:55.000Z</Time>
            <Position>
              <LatitudeDegrees>42.94252666644752025604248046875</LatitudeDegrees>
              <LongitudeDegrees>-7.94087827205657958984375</LongitudeDegrees>
            </Position>
            <AltitudeMeters>523</AltitudeMeters>
            <DistanceMeters>39440.686190719</DistanceMeters>
          </Trackpoint>
          <Trackpoint>
            <Time>2019-07-26T11:22:56.000Z</Time>
            <Position>
              <LatitudeDegrees>42.94247318990528583526611328125</LatitudeDegrees>
              <LongitudeDegrees>-7.9409914277493953704833984375</LongitudeDegrees>
            </Position>
            <AltitudeMeters>522</AltitudeMeters>
            <DistanceMeters>39451.660027762</DistanceMeters>
          </Trackpoint>
          <Trackpoint>
            <Time>2019-07-26T11:22:57.000Z</Time>
            <Position>
              <LatitudeDegrees>42.942425496876239776611328125</LatitudeDegrees>
              <LongitudeDegrees>-7.9410876519978046417236328125</LongitudeDegrees>
            </Position>
            <AltitudeMeters>521.4000244140625</AltitudeMeters>
            <DistanceMeters>39461.128427782</DistanceMeters>
          </Trackpoint>
          <Trackpoint>
            <Time>2019-07-26T11:22:58.000Z</Time>
            <Position>
              <LatitudeDegrees>42.9423864372074604034423828125</LatitudeDegrees>
              <LongitudeDegrees>-7.9411634244024753570556640625</LongitudeDegrees>
            </Position>
            <AltitudeMeters>520</AltitudeMeters>
            <DistanceMeters>39468.678717352</DistanceMeters>
          </Trackpoint>
          <Trackpoint>
            <Time>2019-07-26T11:22:59.000Z</Time>
            <Position>
              <LatitudeDegrees>42.94235567562282085418701171875</LatitudeDegrees>
              <LongitudeDegrees>-7.94122754596173763275146484375</LongitudeDegrees>
            </Position>
            <AltitudeMeters>519</AltitudeMeters>
            <DistanceMeters>39474.924510355</DistanceMeters>
          </Trackpoint>
          <Trackpoint>
            <Time>2019-07-26T11:23:00.000Z</Time>
            <Position>
              <LatitudeDegrees>42.94232927262783050537109375</LatitudeDegrees>
              <LongitudeDegrees>-7.9412871412932872772216796875</LongitudeDegrees>
            </Position>
            <AltitudeMeters>518.5999755859375</AltitudeMeters>
            <DistanceMeters>39480.600716196</DistanceMeters>
          </Trackpoint>
          <Trackpoint>
            <Time>2019-07-26T11:23:01.000Z</Time>
            <Position>
              <LatitudeDegrees>42.9423076473176479339599609375</LatitudeDegrees>
              <LongitudeDegrees>-7.94135143049061298370361328125</LongitudeDegrees>
            </Position>
            <AltitudeMeters>517.79998779296875</AltitudeMeters>
            <DistanceMeters>39486.365322108</DistanceMeters>
          </Trackpoint>
          <Trackpoint>
            <Time>2019-07-26T11:23:02.000Z</Time>
            <Position>
              <LatitudeDegrees>42.94229180552065372467041015625</LatitudeDegrees>
              <LongitudeDegrees>-7.94142284430563449859619140625</LongitudeDegrees>
            </Position>
            <AltitudeMeters>517</AltitudeMeters>
            <DistanceMeters>39492.444804231</DistanceMeters>
          </Trackpoint>
          <Trackpoint>
            <Time>2019-07-26T11:23:03.000Z</Time>
            <Position>
              <LatitudeDegrees>42.94228308834135532379150390625</LatitudeDegrees>
              <LongitudeDegrees>-7.941507585346698760986328125</LongitudeDegrees>
            </Position>
            <AltitudeMeters>516.4000244140625</AltitudeMeters>
            <DistanceMeters>39499.416812657</DistanceMeters>
          </Trackpoint>
          <Trackpoint>
            <Time>2019-07-26T11:23:04.000Z</Time>
            <Position>
              <LatitudeDegrees>42.94227990321815013885498046875</LatitudeDegrees>
              <LongitudeDegrees>-7.941602803766727447509765625</LongitudeDegrees>
            </Position>
            <AltitudeMeters>515.79998779296875</AltitudeMeters>
            <DistanceMeters>39507.18288506</DistanceMeters>
          </Trackpoint>
          <Trackpoint>
            <Time>2019-07-26T11:23:05.000Z</Time>
            <Position>
              <LatitudeDegrees>42.942288704216480255126953125</LatitudeDegrees>
              <LongitudeDegrees>-7.9417025484144687652587890625</LongitudeDegrees>
            </Position>
            <AltitudeMeters>515</AltitudeMeters>
            <DistanceMeters>39515.368431298</DistanceMeters>
          </Trackpoint>
          <Trackpoint>
            <Time>2019-07-26T11:23:06.000Z</Time>
            <Position>
              <LatitudeDegrees>42.94230286963284015655517578125</LatitudeDegrees>
              <LongitudeDegrees>-7.94180841185152530670166015625</LongitudeDegrees>
            </Position>
            <AltitudeMeters>514</AltitudeMeters>
            <DistanceMeters>39524.136673473</DistanceMeters>
          </Trackpoint>
          <Trackpoint>
            <Time>2019-07-26T11:23:07.000Z</Time>
            <Position>
              <LatitudeDegrees>42.94232281856238842010498046875</LatitudeDegrees>
              <LongitudeDegrees>-7.94191519729793071746826171875</LongitudeDegrees>
            </Position>
            <AltitudeMeters>513.5999755859375</AltitudeMeters>
            <DistanceMeters>39533.116572284</DistanceMeters>
          </Trackpoint>
          <Trackpoint>
            <Time>2019-07-26T11:23:08.000Z</Time>
            <Position>
              <LatitudeDegrees>42.9423468746244907379150390625</LatitudeDegrees>
              <LongitudeDegrees>-7.94201661832630634307861328125</LongitudeDegrees>
            </Position>
            <AltitudeMeters>513.20001220703125</AltitudeMeters>
            <DistanceMeters>39541.803074386</DistanceMeters>
          </Trackpoint>
          <Trackpoint>
            <Time>2019-07-26T11:23:09.000Z</Time>
            <Position>
              <LatitudeDegrees>42.94237193651497364044189453125</LatitudeDegrees>
              <LongitudeDegrees>-7.94210278429090976715087890625</LongitudeDegrees>
            </Position>
            <AltitudeMeters>513</AltitudeMeters>
            <DistanceMeters>39549.357548763</DistanceMeters>
          </Trackpoint>
          <Trackpoint>
            <Time>2019-07-26T11:23:11.000Z</Time>
            <Position>
              <LatitudeDegrees>42.9424197971820831298828125</LatitudeDegrees>
              <LongitudeDegrees>-7.9422609508037567138671875</LongitudeDegrees>
            </Position>
            <AltitudeMeters>512.79998779296875</AltitudeMeters>
            <DistanceMeters>39563.301565616</DistanceMeters>
          </Trackpoint>
          <Trackpoint>
            <Time>2019-07-26T11:23:16.000Z</Time>
            <Position>
              <LatitudeDegrees>42.942589111626148223876953125</LatitudeDegrees>
              <LongitudeDegrees>-7.9427036829292774200439453125</LongitudeDegrees>
            </Position>
            <AltitudeMeters>512.4000244140625</AltitudeMeters>
            <DistanceMeters>39603.999966468</DistanceMeters>
          </Trackpoint>
          <Trackpoint>
            <Time>2019-07-26T11:23:20.000Z</Time>
            <Position>
              <LatitudeDegrees>42.94274308718740940093994140625</LatitudeDegrees>
              <LongitudeDegrees>-7.9431502707302570343017578125</LongitudeDegrees>
            </Position>
            <AltitudeMeters>512</AltitudeMeters>
            <DistanceMeters>39644.220521469</DistanceMeters>
          </Trackpoint>
          <Trackpoint>
            <Time>2019-07-26T11:23:21.000Z</Time>
            <Position>
              <LatitudeDegrees>42.94277158565819263458251953125</LatitudeDegrees>
              <LongitudeDegrees>-7.9432667791843414306640625</LongitudeDegrees>
            </Position>
            <AltitudeMeters>512</AltitudeMeters>
            <DistanceMeters>39654.229500841</DistanceMeters>
          </Trackpoint>
          <Trackpoint>
            <Time>2019-07-26T11:23:24.000Z</Time>
            <Position>
              <LatitudeDegrees>42.942808382213115692138671875</LatitudeDegrees>
              <LongitudeDegrees>-7.9434788413345813751220703125</LongitudeDegrees>
            </Position>
            <AltitudeMeters>511</AltitudeMeters>
            <DistanceMeters>39671.986533511</DistanceMeters>
          </Trackpoint>
          <Trackpoint>
            <Time>2019-07-26T11:23:25.000Z</Time>
            <Position>
              <LatitudeDegrees>42.9428087174892425537109375</LatitudeDegrees>
              <LongitudeDegrees>-7.94349250383675098419189453125</LongitudeDegrees>
            </Position>
            <AltitudeMeters>510.20001220703125</AltitudeMeters>
            <DistanceMeters>39673.098792687</DistanceMeters>
          </Trackpoint>
          <Trackpoint>
            <Time>2019-07-26T11:23:26.000Z</Time>
            <Position>
              <LatitudeDegrees>42.94280963949859142303466796875</LatitudeDegrees>
              <LongitudeDegrees>-7.943494431674480438232421875</LongitudeDegrees>
            </Position>
            <AltitudeMeters>508.600006103515625</AltitudeMeters>
            <DistanceMeters>39673.31127888</DistanceMeters>
          </Trackpoint>
          <Trackpoint>
            <Time>2019-07-26T11:23:27.000Z</Time>
            <Position>
              <LatitudeDegrees>42.9428112320601940155029296875</LatitudeDegrees>
              <LongitudeDegrees>-7.9434919171035289764404296875</LongitudeDegrees>
            </Position>
            <AltitudeMeters>508</AltitudeMeters>
            <DistanceMeters>39673.611779736</DistanceMeters>
          </Trackpoint>
          <Trackpoint>
            <Time>2019-07-26T11:23:45.000Z</Time>
            <Position>
              <LatitudeDegrees>42.94281081296503543853759765625</LatitudeDegrees>
              <LongitudeDegrees>-7.9435727186501026153564453125</LongitudeDegrees>
            </Position>
            <AltitudeMeters>504</AltitudeMeters>
            <DistanceMeters>39680.19542363</DistanceMeters>
          </Trackpoint>
          <Trackpoint>
            <Time>2019-07-26T11:23:46.000Z</Time>
            <Position>
              <LatitudeDegrees>42.94280762784183025360107421875</LatitudeDegrees>
              <LongitudeDegrees>-7.9436136223375797271728515625</LongitudeDegrees>
            </Position>
            <AltitudeMeters>504.20001220703125</AltitudeMeters>
            <DistanceMeters>39683.545704965</DistanceMeters>
          </Trackpoint>
          <Trackpoint>
            <Time>2019-07-26T11:23:47.000Z</Time>
            <Position>
              <LatitudeDegrees>42.94280268251895904541015625</LatitudeDegrees>
              <LongitudeDegrees>-7.94366030953824520111083984375</LongitudeDegrees>
            </Position>
            <AltitudeMeters>504.20001220703125</AltitudeMeters>
            <DistanceMeters>39687.388122821</DistanceMeters>
          </Trackpoint>
          <Trackpoint>
            <Time>2019-07-26T11:23:51.000Z</Time>
            <Position>
              <LatitudeDegrees>42.9427709989249706268310546875</LatitudeDegrees>
              <LongitudeDegrees>-7.943845801055431365966796875</LongitudeDegrees>
            </Position>
            <AltitudeMeters>504</AltitudeMeters>
            <DistanceMeters>39702.907181067</DistanceMeters>
          </Trackpoint>
          <Trackpoint>
            <Time>2019-07-26T11:23:53.000Z</Time>
            <Position>
              <LatitudeDegrees>42.942741326987743377685546875</LatitudeDegrees>
              <LongitudeDegrees>-7.94394479133188724517822265625</LongitudeDegrees>
            </Position>
            <AltitudeMeters>504</AltitudeMeters>
            <DistanceMeters>39711.622742039</DistanceMeters>
          </Trackpoint>
          <Trackpoint>
            <Time>2019-07-26T11:23:54.000Z</Time>
            <Position>
              <LatitudeDegrees>42.9427280835807323455810546875</LatitudeDegrees>
              <LongitudeDegrees>-7.9440122656524181365966796875</LongitudeDegrees>
            </Position>
            <AltitudeMeters>504</AltitudeMeters>
            <DistanceMeters>39717.314834297</DistanceMeters>
          </Trackpoint>
          <Trackpoint>
            <Time>2019-07-26T11:23:56.000Z</Time>
            <Position>
              <LatitudeDegrees>42.94271978549659252166748046875</LatitudeDegrees>
              <LongitudeDegrees>-7.94417629949748516082763671875</LongitudeDegrees>
            </Position>
            <AltitudeMeters>504</AltitudeMeters>
            <DistanceMeters>39730.711241997</DistanceMeters>
          </Trackpoint>
          <Trackpoint>
            <Time>2019-07-26T11:23:58.000Z</Time>
            <Position>
              <LatitudeDegrees>42.942718528211116790771484375</LatitudeDegrees>
              <LongitudeDegrees>-7.9443582706153392791748046875</LongitudeDegrees>
            </Position>
            <AltitudeMeters>503.79998779296875</AltitudeMeters>
            <DistanceMeters>39745.538454854</DistanceMeters>
          </Trackpoint>
          <Trackpoint>
            <Time>2019-07-26T11:24:00.000Z</Time>
            <Position>
              <LatitudeDegrees>42.94267795979976654052734375</LatitudeDegrees>
              <LongitudeDegrees>-7.94454946182668209075927734375</LongitudeDegrees>
            </Position>
            <AltitudeMeters>503.600006103515625</AltitudeMeters>
            <DistanceMeters>39761.757708442</DistanceMeters>
          </Trackpoint>
          <Trackpoint>
            <Time>2019-07-26T11:24:02.000Z</Time>
            <Position>
              <LatitudeDegrees>42.94260746799409389495849609375</LatitudeDegrees>
              <LongitudeDegrees>-7.944766469299793243408203125</LongitudeDegrees>
            </Position>
            <AltitudeMeters>502.600006103515625</AltitudeMeters>
            <DistanceMeters>39781.101189192</DistanceMeters>
          </Trackpoint>
          <Trackpoint>
            <Time>2019-07-26T11:24:03.000Z</Time>
            <Position>
              <LatitudeDegrees>42.94256438501179218292236328125</LatitudeDegrees>
              <LongitudeDegrees>-7.944881804287433624267578125</LongitudeDegrees>
            </Position>
            <AltitudeMeters>502.20001220703125</AltitudeMeters>
            <DistanceMeters>39791.651294511</DistanceMeters>
          </Trackpoint>
          <Trackpoint>
            <Time>2019-07-26T11:24:04.000Z</Time>
            <Position>
              <LatitudeDegrees>42.94250923208892345428466796875</LatitudeDegrees>
              <LongitudeDegrees>-7.944999150931835174560546875</LongitudeDegrees>
            </Position>
            <AltitudeMeters>501.600006103515625</AltitudeMeters>
            <DistanceMeters>39803.013644749</DistanceMeters>
          </Trackpoint>
          <Trackpoint>
            <Time>2019-07-26T11:24:06.000Z</Time>
            <Position>
              <LatitudeDegrees>42.94240596704185009002685546875</LatitudeDegrees>
              <LongitudeDegrees>-7.94523962773382663726806640625</LongitudeDegrees>
            </Position>
            <AltitudeMeters>500</AltitudeMeters>
            <DistanceMeters>39825.729601438</DistanceMeters>
          </Trackpoint>
          <Trackpoint>
            <Time>2019-07-26T11:24:08.000Z</Time>
            <Position>
              <LatitudeDegrees>42.9423039592802524566650390625</LatitudeDegrees>
              <LongitudeDegrees>-7.94549711979925632476806640625</LongitudeDegrees>
            </Position>
            <AltitudeMeters>498.20001220703125</AltitudeMeters>
            <DistanceMeters>39849.584713834</DistanceMeters>
          </Trackpoint>
          <Trackpoint>
            <Time>2019-07-26T11:24:10.000Z</Time>
            <Position>
              <LatitudeDegrees>42.9421993531286716461181640625</LatitudeDegrees>
              <LongitudeDegrees>-7.945754863321781158447265625</LongitudeDegrees>
            </Position>
            <AltitudeMeters>496.79998779296875</AltitudeMeters>
            <DistanceMeters>39873.59659383</DistanceMeters>
          </Trackpoint>
          <Trackpoint>
            <Time>2019-07-26T11:24:12.000Z</Time>
            <Position>
              <LatitudeDegrees>42.94210421852767467498779296875</LatitudeDegrees>
              <LongitudeDegrees>-7.94601134955883026123046875</LongitudeDegrees>
            </Position>
            <AltitudeMeters>495.20001220703125</AltitudeMeters>
            <DistanceMeters>39897.02410002</DistanceMeters>
          </Trackpoint>
          <Trackpoint>
            <Time>2019-07-26T11:24:13.000Z</Time>
            <Position>
              <LatitudeDegrees>42.942066751420497894287109375</LatitudeDegrees>
              <LongitudeDegrees>-7.94613800011575222015380859375</LongitudeDegrees>
            </Position>
            <AltitudeMeters>494.600006103515625</AltitudeMeters>
            <DistanceMeters>39908.153996186</DistanceMeters>
          </Trackpoint>
          <Trackpoint>
            <Time>2019-07-26T11:24:14.000Z</Time>
            <Position>
              <LatitudeDegrees>42.94203288853168487548828125</LatitudeDegrees>
              <LongitudeDegrees>-7.94624880887567996978759765625</LongitudeDegrees>
            </Position>
            <AltitudeMeters>494</AltitudeMeters>
            <DistanceMeters>39917.937595232</DistanceMeters>
          </Trackpoint>
          <Trackpoint>
            <Time>2019-07-26T11:24:16.000Z</Time>
            <Position>
              <LatitudeDegrees>42.94196926988661289215087890625</LatitudeDegrees>
              <LongitudeDegrees>-7.94643203727900981903076171875</LongitudeDegrees>
            </Position>
            <AltitudeMeters>491.79998779296875</AltitudeMeters>
            <DistanceMeters>39934.460497554</DistanceMeters>
          </Trackpoint>
          <Trackpoint>
            <Time>2019-07-26T11:24:18.000Z</Time>
            <Position>
              <LatitudeDegrees>42.94192601926624774932861328125</LatitudeDegrees>
              <LongitudeDegrees>-7.9466166906058788299560546875</LongitudeDegrees>
            </Position>
            <AltitudeMeters>490.399993896484375</AltitudeMeters>
            <DistanceMeters>39950.257241916</DistanceMeters>
          </Trackpoint>
          <Trackpoint>
            <Time>2019-07-26T11:24:19.000Z</Time>
            <Position>
              <LatitudeDegrees>42.9419128596782684326171875</LatitudeDegrees>
              <LongitudeDegrees>-7.9467075504362583160400390625</LongitudeDegrees>
            </Position>
            <AltitudeMeters>490</AltitudeMeters>
            <DistanceMeters>39957.803344358</DistanceMeters>
          </Trackpoint>
          <Trackpoint>
            <Time>2019-07-26T11:24:20.000Z</Time>
            <Position>
              <LatitudeDegrees>42.94190439395606517791748046875</LatitudeDegrees>
              <LongitudeDegrees>-7.94679245911538600921630859375</LongitudeDegrees>
            </Position>
            <AltitudeMeters>489.399993896484375</AltitudeMeters>
            <DistanceMeters>39964.785706617</DistanceMeters>
          </Trackpoint>
          <Trackpoint>
            <Time>2019-07-26T11:24:21.000Z</Time>
            <Position>
              <LatitudeDegrees>42.9418996162712574005126953125</LatitudeDegrees>
              <LongitudeDegrees>-7.94686856679618358612060546875</LongitudeDegrees>
            </Position>
            <AltitudeMeters>487.20001220703125</AltitudeMeters>
            <DistanceMeters>39971.009775057</DistanceMeters>
          </Trackpoint>
          <Trackpoint>
            <Time>2019-07-26T11:24:22.000Z</Time>
            <Position>
              <LatitudeDegrees>42.94189047999680042266845703125</LatitudeDegrees>
              <LongitudeDegrees>-7.946945764124393463134765625</LongitudeDegrees>
            </Position>
            <AltitudeMeters>485.79998779296875</AltitudeMeters>
            <DistanceMeters>39977.380818426</DistanceMeters>
          </Trackpoint>
          <Trackpoint>
            <Time>2019-07-26T11:24:24.000Z</Time>
            <Position>
              <LatitudeDegrees>42.9418429546058177947998046875</LatitudeDegrees>
              <LongitudeDegrees>-7.9471212811768054962158203125</LongitudeDegrees>
            </Position>
            <AltitudeMeters>484</AltitudeMeters>
            <DistanceMeters>39992.628387024</DistanceMeters>
          </Trackpoint>
          <Trackpoint>
            <Time>2019-07-26T11:24:26.000Z</Time>
            <Position>
              <LatitudeDegrees>42.9417886398732662200927734375</LatitudeDegrees>
              <LongitudeDegrees>-7.94726352207362651824951171875</LongitudeDegrees>
            </Position>
            <AltitudeMeters>482</AltitudeMeters>
            <DistanceMeters>40005.700001556</DistanceMeters>
          </Trackpoint>
          <Trackpoint>
            <Time>2019-07-26T11:24:27.000Z</Time>
            <Position>
              <LatitudeDegrees>42.94177807867527008056640625</LatitudeDegrees>
              <LongitudeDegrees>-7.94732186011970043182373046875</LongitudeDegrees>
            </Position>
            <AltitudeMeters>481</AltitudeMeters>
            <DistanceMeters>40010.596413809</DistanceMeters>
          </Trackpoint>
          <Trackpoint>
            <Time>2019-07-26T11:24:28.000Z</Time>
            <Position>
              <LatitudeDegrees>42.94178704731166362762451171875</LatitudeDegrees>
              <LongitudeDegrees>-7.947367541491985321044921875</LongitudeDegrees>
            </Position>
            <AltitudeMeters>480</AltitudeMeters>
            <DistanceMeters>40014.450564267</DistanceMeters>
          </Trackpoint>
          <Trackpoint>
            <Time>2019-07-26T11:24:30.000Z</Time>
            <Position>
              <LatitudeDegrees>42.94183951802551746368408203125</LatitudeDegrees>
              <LongitudeDegrees>-7.9474163241684436798095703125</LongitudeDegrees>
            </Position>
            <AltitudeMeters>478.399993896484375</AltitudeMeters>
            <DistanceMeters>40021.515850007</DistanceMeters>
          </Trackpoint>
          <Trackpoint>
            <Time>2019-07-26T11:24:31.000Z</Time>
            <Position>
              <LatitudeDegrees>42.94186717830598354339599609375</LatitudeDegrees>
              <LongitudeDegrees>-7.94743887148797512054443359375</LongitudeDegrees>
            </Position>
            <AltitudeMeters>477.399993896484375</AltitudeMeters>
            <DistanceMeters>40025.101770928</DistanceMeters>
          </Trackpoint>
          <Trackpoint>
            <Time>2019-07-26T11:24:32.000Z</Time>
            <Position>
              <LatitudeDegrees>42.94189098291099071502685546875</LatitudeDegrees>
              <LongitudeDegrees>-7.94746602885425090789794921875</LongitudeDegrees>
            </Position>
            <AltitudeMeters>476.600006103515625</AltitudeMeters>
            <DistanceMeters>40028.552954903</DistanceMeters>
          </Trackpoint>
          <Trackpoint>
            <Time>2019-07-26T11:24:34.000Z</Time>
            <Position>
              <LatitudeDegrees>42.94193943031132221221923828125</LatitudeDegrees>
              <LongitudeDegrees>-7.94753945432603359222412109375</LongitudeDegrees>
            </Position>
            <AltitudeMeters>475</AltitudeMeters>
            <DistanceMeters>40036.606153586</DistanceMeters>
          </Trackpoint>
          <Trackpoint>
            <Time>2019-07-26T11:24:35.000Z</Time>
            <Position>
              <LatitudeDegrees>42.94195711612701416015625</LatitudeDegrees>
              <LongitudeDegrees>-7.94759980402886867523193359375</LongitudeDegrees>
            </Position>
            <AltitudeMeters>474.20001220703125</AltitudeMeters>
            <DistanceMeters>40041.902134839</DistanceMeters>
          </Trackpoint>
          <Trackpoint>
            <Time>2019-07-26T11:24:36.000Z</Time>
            <Position>
              <LatitudeDegrees>42.94197714887559413909912109375</LatitudeDegrees>
              <LongitudeDegrees>-7.9476654343307018280029296875</LongitudeDegrees>
            </Position>
            <AltitudeMeters>473.600006103515625</AltitudeMeters>
            <DistanceMeters>40047.696427222</DistanceMeters>
          </Trackpoint>
          <Trackpoint>
            <Time>2019-07-26T11:24:37.000Z</Time>
            <Position>
              <LatitudeDegrees>42.94199525378644466400146484375</LatitudeDegrees>
              <LongitudeDegrees>-7.947732992470264434814453125</LongitudeDegrees>
            </Position>
            <AltitudeMeters>473.20001220703125</AltitudeMeters>
            <DistanceMeters>40053.558890096</DistanceMeters>
          </Trackpoint>
          <Trackpoint>
            <Time>2019-07-26T11:24:39.000Z</Time>
            <Position>
              <LatitudeDegrees>42.94200330041348934173583984375</LatitudeDegrees>
              <LongitudeDegrees>-7.9478667676448822021484375</LongitudeDegrees>
            </Position>
            <AltitudeMeters>472.79998779296875</AltitudeMeters>
            <DistanceMeters>40064.495635159</DistanceMeters>
          </Trackpoint>
          <Trackpoint>
            <Time>2019-07-26T11:24:41.000Z</Time>
            <Position>
              <LatitudeDegrees>42.94195166788995265960693359375</LatitudeDegrees>
              <LongitudeDegrees>-7.94802912510931491851806640625</LongitudeDegrees>
            </Position>
            <AltitudeMeters>472.600006103515625</AltitudeMeters>
            <DistanceMeters>40078.918424104</DistanceMeters>
          </Trackpoint>
          <Trackpoint>
            <Time>2019-07-26T11:24:42.000Z</Time>
            <Position>
              <LatitudeDegrees>42.9419197328388690948486328125</LatitudeDegrees>
              <LongitudeDegrees>-7.948105148971080780029296875</LongitudeDegrees>
            </Position>
            <AltitudeMeters>472.600006103515625</AltitudeMeters>
            <DistanceMeters>40086.059983581</DistanceMeters>
          </Trackpoint>
          <Trackpoint>
            <Time>2019-07-26T11:24:43.000Z</Time>
            <Position>
              <LatitudeDegrees>42.9418860375881195068359375</LatitudeDegrees>
              <LongitudeDegrees>-7.9481737129390239715576171875</LongitudeDegrees>
            </Position>
            <AltitudeMeters>472.399993896484375</AltitudeMeters>
            <DistanceMeters>40092.788787582</DistanceMeters>
          </Trackpoint>
          <Trackpoint>
            <Time>2019-07-26T11:24:45.000Z</Time>
            <Position>
              <LatitudeDegrees>42.9418157972395420074462890625</LatitudeDegrees>
              <LongitudeDegrees>-7.94829634018242359161376953125</LongitudeDegrees>
            </Position>
            <AltitudeMeters>472.399993896484375</AltitudeMeters>
            <DistanceMeters>40105.475120877</DistanceMeters>
          </Trackpoint>
          <Trackpoint>
            <Time>2019-07-26T11:24:46.000Z</Time>
            <Position>
              <LatitudeDegrees>42.94178872369229793548583984375</LatitudeDegrees>
              <LongitudeDegrees>-7.94835451059043407440185546875</LongitudeDegrees>
            </Position>
            <AltitudeMeters>472.399993896484375</AltitudeMeters>
            <DistanceMeters>40111.091352444</DistanceMeters>
          </Trackpoint>
          <Trackpoint>
            <Time>2019-07-26T11:24:47.000Z</Time>
            <Position>
              <LatitudeDegrees>42.94176642782986164093017578125</LatitudeDegrees>
              <LongitudeDegrees>-7.9484090767800807952880859375</LongitudeDegrees>
            </Position>
            <AltitudeMeters>472.399993896484375</AltitudeMeters>
            <DistanceMeters>40116.182159786</DistanceMeters>
          </Trackpoint>
          <Trackpoint>
            <Time>2019-07-26T11:24:48.000Z</Time>
            <Position>
              <LatitudeDegrees>42.941748909652233123779296875</LatitudeDegrees>
              <LongitudeDegrees>-7.94846146367490291595458984375</LongitudeDegrees>
            </Position>
            <AltitudeMeters>472.399993896484375</AltitudeMeters>
            <DistanceMeters>40120.874209058</DistanceMeters>
          </Trackpoint>
          <Trackpoint>
            <Time>2019-07-26T11:24:51.000Z</Time>
            <Position>
              <LatitudeDegrees>42.94174782000482082366943359375</LatitudeDegrees>
              <LongitudeDegrees>-7.94859557412564754486083984375</LongitudeDegrees>
            </Position>
            <AltitudeMeters>472.600006103515625</AltitudeMeters>
            <DistanceMeters>40131.801868043</DistanceMeters>
          </Trackpoint>
          <Trackpoint>
            <Time>2019-07-26T11:24:53.000Z</Time>
            <Position>
              <LatitudeDegrees>42.94176726602017879486083984375</LatitudeDegrees>
              <LongitudeDegrees>-7.94866665266454219818115234375</LongitudeDegrees>
            </Position>
            <AltitudeMeters>472.79998779296875</AltitudeMeters>
            <DistanceMeters>40137.983719183</DistanceMeters>
          </Trackpoint>
          <Trackpoint>
            <Time>2019-07-26T11:24:55.000Z</Time>
            <Position>
              <LatitudeDegrees>42.9418023861944675445556640625</LatitudeDegrees>
              <LongitudeDegrees>-7.9487411677837371826171875</LongitudeDegrees>
            </Position>
            <AltitudeMeters>473.20001220703125</AltitudeMeters>
            <DistanceMeters>40145.204499015</DistanceMeters>
          </Trackpoint>
          <Trackpoint>
            <Time>2019-07-26T11:24:57.000Z</Time>
            <Position>
              <LatitudeDegrees>42.94183247722685337066650390625</LatitudeDegrees>
              <LongitudeDegrees>-7.94882087968289852142333984375</LongitudeDegrees>
            </Position>
            <AltitudeMeters>473.79998779296875</AltitudeMeters>
            <DistanceMeters>40152.511676446</DistanceMeters>
          </Trackpoint>
          <Trackpoint>
            <Time>2019-07-26T11:24:59.000Z</Time>
            <Position>
              <LatitudeDegrees>42.94185661710798740386962890625</LatitudeDegrees>
              <LongitudeDegrees>-7.94889396987855434417724609375</LongitudeDegrees>
            </Position>
            <AltitudeMeters>474.600006103515625</AltitudeMeters>
            <DistanceMeters>40159.045756445</DistanceMeters>
          </Trackpoint>
          <Trackpoint>
            <Time>2019-07-26T11:25:00.000Z</Time>
            <Position>
              <LatitudeDegrees>42.9418684355914592742919921875</LatitudeDegrees>
              <LongitudeDegrees>-7.94893235899507999420166015625</LongitudeDegrees>
            </Position>
            <AltitudeMeters>475</AltitudeMeters>
            <DistanceMeters>40162.440219222</DistanceMeters>
          </Trackpoint>
          <Trackpoint>
            <Time>2019-07-26T11:25:02.000Z</Time>
            <Position>
              <LatitudeDegrees>42.9418895579874515533447265625</LatitudeDegrees>
              <LongitudeDegrees>-7.94900679029524326324462890625</LongitudeDegrees>
            </Position>
            <AltitudeMeters>476</AltitudeMeters>
            <DistanceMeters>40168.945212551</DistanceMeters>
          </Trackpoint>
          <Trackpoint>
            <Time>2019-07-26T11:25:03.000Z</Time>
            <Position>
              <LatitudeDegrees>42.9418967664241790771484375</LatitudeDegrees>
              <LongitudeDegrees>-7.9490420781075954437255859375</LongitudeDegrees>
            </Position>
            <AltitudeMeters>476.399993896484375</AltitudeMeters>
            <DistanceMeters>40171.929111908</DistanceMeters>
          </Trackpoint>
          <Trackpoint>
            <Time>2019-07-26T11:25:04.000Z</Time>
            <Position>
              <LatitudeDegrees>42.94190489687025547027587890625</LatitudeDegrees>
              <LongitudeDegrees>-7.949074767529964447021484375</LongitudeDegrees>
            </Position>
            <AltitudeMeters>476.79998779296875</AltitudeMeters>
            <DistanceMeters>40174.741645813</DistanceMeters>
          </Trackpoint>
          <Trackpoint>
            <Time>2019-07-26T11:25:06.000Z</Time>
            <Position>
              <LatitudeDegrees>42.9419180564582347869873046875</LatitudeDegrees>
              <LongitudeDegrees>-7.94913922436535358428955078125</LongitudeDegrees>
            </Position>
            <AltitudeMeters>477.399993896484375</AltitudeMeters>
            <DistanceMeters>40180.193894125</DistanceMeters>
          </Trackpoint>
          <Trackpoint>
            <Time>2019-07-26T11:25:09.000Z</Time>
            <Position>
              <LatitudeDegrees>42.9419368319213390350341796875</LatitudeDegrees>
              <LongitudeDegrees>-7.94924617744982242584228515625</LongitudeDegrees>
            </Position>
            <AltitudeMeters>478.20001220703125</AltitudeMeters>
            <DistanceMeters>40189.155674076</DistanceMeters>
          </Trackpoint>
          <Trackpoint>
            <Time>2019-07-26T11:25:10.000Z</Time>
            <Position>
              <LatitudeDegrees>42.94194311834871768951416015625</LatitudeDegrees>
              <LongitudeDegrees>-7.94927920214831829071044921875</LongitudeDegrees>
            </Position>
            <AltitudeMeters>478.399993896484375</AltitudeMeters>
            <DistanceMeters>40191.93591605</DistanceMeters>
          </Trackpoint>
          <Trackpoint>
            <Time>2019-07-26T11:25:11.000Z</Time>
            <Position>
              <LatitudeDegrees>42.94195032678544521331787109375</LatitudeDegrees>
              <LongitudeDegrees>-7.94931205920875072479248046875</LongitudeDegrees>
            </Position>
            <AltitudeMeters>478.79998779296875</AltitudeMeters>
            <DistanceMeters>40194.730735566</DistanceMeters>
          </Trackpoint>
          <Trackpoint>
            <Time>2019-07-26T11:25:15.000Z</Time>
            <Position>
              <LatitudeDegrees>42.94197077862918376922607421875</LatitudeDegrees>
              <LongitudeDegrees>-7.94945237226784229278564453125</LongitudeDegrees>
            </Position>
            <AltitudeMeters>479.600006103515625</AltitudeMeters>
            <DistanceMeters>40206.387690156</DistanceMeters>
          </Trackpoint>
          <Trackpoint>
            <Time>2019-07-26T11:25:18.000Z</Time>
            <Position>
              <LatitudeDegrees>42.94198150746524333953857421875</LatitudeDegrees>
              <LongitudeDegrees>-7.9495672881603240966796875</LongitudeDegrees>
            </Position>
            <AltitudeMeters>480.20001220703125</AltitudeMeters>
            <DistanceMeters>40215.826957303</DistanceMeters>
          </Trackpoint>
          <Trackpoint>
            <Time>2019-07-26T11:25:20.000Z</Time>
            <Position>
              <LatitudeDegrees>42.9419887997210025787353515625</LatitudeDegrees>
              <LongitudeDegrees>-7.9496402107179164886474609375</LongitudeDegrees>
            </Position>
            <AltitudeMeters>480.600006103515625</AltitudeMeters>
            <DistanceMeters>40221.823436637</DistanceMeters>
          </Trackpoint>
          <Trackpoint>
            <Time>2019-07-26T11:25:24.000Z</Time>
            <Position>
              <LatitudeDegrees>42.94202174060046672821044921875</LatitudeDegrees>
              <LongitudeDegrees>-7.94975814409554004669189453125</LongitudeDegrees>
            </Position>
            <AltitudeMeters>481.399993896484375</AltitudeMeters>
            <DistanceMeters>40232.108295191</DistanceMeters>
          </Trackpoint>
          <Trackpoint>
            <Time>2019-07-26T11:25:25.000Z</Time>
            <Position>
              <LatitudeDegrees>42.9420310445129871368408203125</LatitudeDegrees>
              <LongitudeDegrees>-7.9497870616614818572998046875</LongitudeDegrees>
            </Position>
            <AltitudeMeters>481.79998779296875</AltitudeMeters>
            <DistanceMeters>40234.682800213</DistanceMeters>
          </Trackpoint>
          <Trackpoint>
            <Time>2019-07-26T11:25:31.000Z</Time>
            <Position>
              <LatitudeDegrees>42.94207421131432056427001953125</LatitudeDegrees>
              <LongitudeDegrees>-7.94996735639870166778564453125</LongitudeDegrees>
            </Position>
            <AltitudeMeters>483</AltitudeMeters>
            <DistanceMeters>40250.138012346</DistanceMeters>
          </Trackpoint>
          <Trackpoint>
            <Time>2019-07-26T11:25:35.000Z</Time>
            <Position>
              <LatitudeDegrees>42.94210120104253292083740234375</LatitudeDegrees>
              <LongitudeDegrees>-7.9500663466751575469970703125</LongitudeDegrees>
            </Position>
            <AltitudeMeters>484.20001220703125</AltitudeMeters>
            <DistanceMeters>40258.74514585</DistanceMeters>
          </Trackpoint>
          <Trackpoint>
            <Time>2019-07-26T11:25:37.000Z</Time>
            <Position>
              <LatitudeDegrees>42.94211310334503650665283203125</LatitudeDegrees>
              <LongitudeDegrees>-7.9501260258257389068603515625</LongitudeDegrees>
            </Position>
            <AltitudeMeters>484.79998779296875</AltitudeMeters>
            <DistanceMeters>40263.78514635</DistanceMeters>
          </Trackpoint>
          <Trackpoint>
            <Time>2019-07-26T11:25:38.000Z</Time>
            <Position>
              <LatitudeDegrees>42.94212131761014461517333984375</LatitudeDegrees>
              <LongitudeDegrees>-7.95015594922006130218505859375</LongitudeDegrees>
            </Position>
            <AltitudeMeters>485.399993896484375</AltitudeMeters>
            <DistanceMeters>40266.391027676</DistanceMeters>
          </Trackpoint>
          <Trackpoint>
            <Time>2019-07-26T11:25:42.000Z</Time>
            <Position>
              <LatitudeDegrees>42.9421473853290081024169921875</LatitudeDegrees>
              <LongitudeDegrees>-7.9502779059112071990966796875</LongitudeDegrees>
            </Position>
            <AltitudeMeters>486.600006103515625</AltitudeMeters>
            <DistanceMeters>40276.74283511</DistanceMeters>
          </Trackpoint>
          <Trackpoint>
            <Time>2019-07-26T11:25:45.000Z</Time>
            <Position>
              <LatitudeDegrees>42.942166663706302642822265625</LatitudeDegrees>
              <LongitudeDegrees>-7.95036985538899898529052734375</LongitudeDegrees>
            </Position>
            <AltitudeMeters>487.399993896484375</AltitudeMeters>
            <DistanceMeters>40284.536184465</DistanceMeters>
          </Trackpoint>
          <Trackpoint>
            <Time>2019-07-26T11:25:46.000Z</Time>
            <Position>
              <LatitudeDegrees>42.94217110611498355865478515625</LatitudeDegrees>
              <LongitudeDegrees>-7.95040153898298740386962890625</LongitudeDegrees>
            </Position>
            <AltitudeMeters>487.600006103515625</AltitudeMeters>
            <DistanceMeters>40287.164493518</DistanceMeters>
          </Trackpoint>
          <Trackpoint>
            <Time>2019-07-26T11:25:50.000Z</Time>
            <Position>
              <LatitudeDegrees>42.9421973414719104766845703125</LatitudeDegrees>
              <LongitudeDegrees>-7.95052374713122844696044921875</LongitudeDegrees>
            </Position>
            <AltitudeMeters>488.600006103515625</AltitudeMeters>
            <DistanceMeters>40297.541132257</DistanceMeters>
          </Trackpoint>
          <Trackpoint>
            <Time>2019-07-26T11:25:54.000Z</Time>
            <Position>
              <LatitudeDegrees>42.9422218166291713714599609375</LatitudeDegrees>
              <LongitudeDegrees>-7.95063338242471218109130859375</LongitudeDegrees>
            </Position>
            <AltitudeMeters>489.600006103515625</AltitudeMeters>
            <DistanceMeters>40306.880861292</DistanceMeters>
          </Trackpoint>
          <Trackpoint>
            <Time>2019-07-26T11:25:55.000Z</Time>
            <Position>
              <LatitudeDegrees>42.9422265104949474334716796875</LatitudeDegrees>
              <LongitudeDegrees>-7.95065827667713165283203125</LongitudeDegrees>
            </Position>
            <AltitudeMeters>489.79998779296875</AltitudeMeters>
            <DistanceMeters>40308.975763951</DistanceMeters>
          </Trackpoint>
          <Trackpoint>
            <Time>2019-07-26T11:25:56.000Z</Time>
            <Position>
              <LatitudeDegrees>42.9422301985323429107666015625</LatitudeDegrees>
              <LongitudeDegrees>-7.95068434439599514007568359375</LongitudeDegrees>
            </Position>
            <AltitudeMeters>490.20001220703125</AltitudeMeters>
            <DistanceMeters>40311.138535229</DistanceMeters>
          </Trackpoint>
          <Trackpoint>
            <Time>2019-07-26T11:25:59.000Z</Time>
            <Position>
              <LatitudeDegrees>42.94224319048225879669189453125</LatitudeDegrees>
              <LongitudeDegrees>-7.950764559209346771240234375</LongitudeDegrees>
            </Position>
            <AltitudeMeters>490.79998779296875</AltitudeMeters>
            <DistanceMeters>40317.832356209</DistanceMeters>
          </Trackpoint>
          <Trackpoint>
            <Time>2019-07-26T11:26:02.000Z</Time>
            <Position>
              <LatitudeDegrees>42.94227789156138896942138671875</LatitudeDegrees>
              <LongitudeDegrees>-7.95085030607879161834716796875</LongitudeDegrees>
            </Position>
            <AltitudeMeters>491.79998779296875</AltitudeMeters>
            <DistanceMeters>40325.814600216</DistanceMeters>
          </Trackpoint>
          <Trackpoint>
            <Time>2019-07-26T11:26:03.000Z</Time>
            <Position>
              <LatitudeDegrees>42.94229381717741489410400390625</LatitudeDegrees>
              <LongitudeDegrees>-7.95088266022503376007080078125</LongitudeDegrees>
            </Position>
            <AltitudeMeters>492</AltitudeMeters>
            <DistanceMeters>40328.991961616</DistanceMeters>
          </Trackpoint>
          <Trackpoint>
            <Time>2019-07-26T11:26:07.000Z</Time>
            <Position>
              <LatitudeDegrees>42.94237495400011539459228515625</LatitudeDegrees>
              <LongitudeDegrees>-7.9510007612407207489013671875</LongitudeDegrees>
            </Position>
            <AltitudeMeters>493.20001220703125</AltitudeMeters>
            <DistanceMeters>40342.188363558</DistanceMeters>
          </Trackpoint>
          <Trackpoint>
            <Time>2019-07-26T11:26:09.000Z</Time>
            <Position>
              <LatitudeDegrees>42.9424219764769077301025390625</LatitudeDegrees>
              <LongitudeDegrees>-7.95104920864105224609375</LongitudeDegrees>
            </Position>
            <AltitudeMeters>493.600006103515625</AltitudeMeters>
            <DistanceMeters>40348.744518214</DistanceMeters>
          </Trackpoint>
          <Trackpoint>
            <Time>2019-07-26T11:26:16.000Z</Time>
            <Position>
              <LatitudeDegrees>42.94256664812564849853515625</LatitudeDegrees>
              <LongitudeDegrees>-7.9512213729321956634521484375</LongitudeDegrees>
            </Position>
            <AltitudeMeters>494.20001220703125</AltitudeMeters>
            <DistanceMeters>40370.099750609</DistanceMeters>
          </Trackpoint>
          <Trackpoint>
            <Time>2019-07-26T11:26:23.000Z</Time>
            <Position>
              <LatitudeDegrees>42.9427629522979259490966796875</LatitudeDegrees>
              <LongitudeDegrees>-7.9513336904346942901611328125</LongitudeDegrees>
            </Position>
            <AltitudeMeters>495.399993896484375</AltitudeMeters>
            <DistanceMeters>40393.787911159</DistanceMeters>
          </Trackpoint>
          <Trackpoint>
            <Time>2019-07-26T11:26:30.000Z</Time>
            <Position>
              <LatitudeDegrees>42.94298431836068630218505859375</LatitudeDegrees>
              <LongitudeDegrees>-7.95148246921598911285400390625</LongitudeDegrees>
            </Position>
            <AltitudeMeters>496.20001220703125</AltitudeMeters>
            <DistanceMeters>40421.246850011</DistanceMeters>
          </Trackpoint>
          <Trackpoint>
            <Time>2019-07-26T11:26:32.000Z</Time>
            <Position>
              <LatitudeDegrees>42.9430512897670269012451171875</LatitudeDegrees>
              <LongitudeDegrees>-7.95150878839194774627685546875</LongitudeDegrees>
            </Position>
            <AltitudeMeters>496.399993896484375</AltitudeMeters>
            <DistanceMeters>40429.003032659</DistanceMeters>
          </Trackpoint>
          <Trackpoint>
            <Time>2019-07-26T11:26:33.000Z</Time>
            <Position>
              <LatitudeDegrees>42.9430844821035861968994140625</LatitudeDegrees>
              <LongitudeDegrees>-7.95151499100029468536376953125</LongitudeDegrees>
            </Position>
            <AltitudeMeters>496.600006103515625</AltitudeMeters>
            <DistanceMeters>40432.730939263</DistanceMeters>
          </Trackpoint>
          <Trackpoint>
            <Time>2019-07-26T11:26:35.000Z</Time>
            <Position>
              <LatitudeDegrees>42.9431434907019138336181640625</LatitudeDegrees>
              <LongitudeDegrees>-7.951522953808307647705078125</LongitudeDegrees>
            </Position>
            <AltitudeMeters>496.79998779296875</AltitudeMeters>
            <DistanceMeters>40439.331021745</DistanceMeters>
          </Trackpoint>
          <Trackpoint>
            <Time>2019-07-26T11:26:36.000Z</Time>
            <Position>
              <LatitudeDegrees>42.943155728280544281005859375</LatitudeDegrees>
              <LongitudeDegrees>-7.95152856968343257904052734375</LongitudeDegrees>
            </Position>
            <AltitudeMeters>496.79998779296875</AltitudeMeters>
            <DistanceMeters>40440.765893666</DistanceMeters>
          </Trackpoint>
          <Trackpoint>
            <Time>2019-07-26T11:26:38.000Z</Time>
            <Position>
              <LatitudeDegrees>42.94315807521343231201171875</LatitudeDegrees>
              <LongitudeDegrees>-7.95152588747441768646240234375</LongitudeDegrees>
            </Position>
            <AltitudeMeters>497</AltitudeMeters>
            <DistanceMeters>40441.108517357</DistanceMeters>
          </Trackpoint>
          <Trackpoint>
            <Time>2019-07-26T11:33:44.000Z</Time>
            <Position>
              <LatitudeDegrees>42.943156398832798004150390625</LatitudeDegrees>
              <LongitudeDegrees>-7.9516387917101383209228515625</LongitudeDegrees>
            </Position>
            <AltitudeMeters>497</AltitudeMeters>
            <DistanceMeters>40450.309439412</DistanceMeters>
          </Trackpoint>
          <Trackpoint>
            <Time>2019-07-26T11:33:45.000Z</Time>
            <Position>
              <LatitudeDegrees>42.943156063556671142578125</LatitudeDegrees>
              <LongitudeDegrees>-7.95166452415287494659423828125</LongitudeDegrees>
            </Position>
            <AltitudeMeters>497</AltitudeMeters>
            <DistanceMeters>40452.408648145</DistanceMeters>
          </Trackpoint>
          <Trackpoint>
            <Time>2019-07-26T11:33:48.000Z</Time>
            <Position>
              <LatitudeDegrees>42.9431491903960704803466796875</LatitudeDegrees>
              <LongitudeDegrees>-7.951773069798946380615234375</LongitudeDegrees>
            </Position>
            <AltitudeMeters>497</AltitudeMeters>
            <DistanceMeters>40461.285893051</DistanceMeters>
          </Trackpoint>
          <Trackpoint>
            <Time>2019-07-26T11:33:50.000Z</Time>
            <Position>
              <LatitudeDegrees>42.9431532137095928192138671875</LatitudeDegrees>
              <LongitudeDegrees>-7.951860241591930389404296875</LongitudeDegrees>
            </Position>
            <AltitudeMeters>497</AltitudeMeters>
            <DistanceMeters>40468.402118785</DistanceMeters>
          </Trackpoint>
          <Trackpoint>
            <Time>2019-07-26T11:33:55.000Z</Time>
            <Position>
              <LatitudeDegrees>42.9432263039052486419677734375</LatitudeDegrees>
              <LongitudeDegrees>-7.95206769369542598724365234375</LongitudeDegrees>
            </Position>
            <AltitudeMeters>497</AltitudeMeters>
            <DistanceMeters>40487.160209272</DistanceMeters>
          </Trackpoint>
          <Trackpoint>
            <Time>2019-07-26T11:33:59.000Z</Time>
            <Position>
              <LatitudeDegrees>42.94331498444080352783203125</LatitudeDegrees>
              <LongitudeDegrees>-7.95220398344099521636962890625</LongitudeDegrees>
            </Position>
            <AltitudeMeters>497</AltitudeMeters>
            <DistanceMeters>40502.017234163</DistanceMeters>
          </Trackpoint>
          <Trackpoint>
            <Time>2019-07-26T11:34:01.000Z</Time>
            <Position>
              <LatitudeDegrees>42.94334691949188709259033203125</LatitudeDegrees>
              <LongitudeDegrees>-7.95229149051010608673095703125</LongitudeDegrees>
            </Position>
            <AltitudeMeters>497</AltitudeMeters>
            <DistanceMeters>40509.983624641</DistanceMeters>
          </Trackpoint>
          <Trackpoint>
            <Time>2019-07-26T11:34:03.000Z</Time>
            <Position>
              <LatitudeDegrees>42.94337332248687744140625</LatitudeDegrees>
              <LongitudeDegrees>-7.95238151215016841888427734375</LongitudeDegrees>
            </Position>
            <AltitudeMeters>497</AltitudeMeters>
            <DistanceMeters>40517.885140225</DistanceMeters>
          </Trackpoint>
          <Trackpoint>
            <Time>2019-07-26T11:34:06.000Z</Time>
            <Position>
              <LatitudeDegrees>42.9434103704988956451416015625</LatitudeDegrees>
              <LongitudeDegrees>-7.9525123536586761474609375</LongitudeDegrees>
            </Position>
            <AltitudeMeters>497.399993896484375</AltitudeMeters>
            <DistanceMeters>40529.315238475</DistanceMeters>
          </Trackpoint>
          <Trackpoint>
            <Time>2019-07-26T11:34:07.000Z</Time>
            <Position>
              <LatitudeDegrees>42.9434214346110820770263671875</LatitudeDegrees>
              <LongitudeDegrees>-7.952552251517772674560546875</LongitudeDegrees>
            </Position>
            <AltitudeMeters>497.399993896484375</AltitudeMeters>
            <DistanceMeters>40532.791190471</DistanceMeters>
          </Trackpoint>
          <Trackpoint>
            <Time>2019-07-26T11:34:10.000Z</Time>
            <Position>
              <LatitudeDegrees>42.94346057809889316558837890625</LatitudeDegrees>
              <LongitudeDegrees>-7.95266515575349330902099609375</LongitudeDegrees>
            </Position>
            <AltitudeMeters>497.600006103515625</AltitudeMeters>
            <DistanceMeters>40542.970144107</DistanceMeters>
          </Trackpoint>
          <Trackpoint>
            <Time>2019-07-26T11:34:14.000Z</Time>
            <Position>
              <LatitudeDegrees>42.9435203410685062408447265625</LatitudeDegrees>
              <LongitudeDegrees>-7.952815778553485870361328125</LongitudeDegrees>
            </Position>
            <AltitudeMeters>498</AltitudeMeters>
            <DistanceMeters>40556.9290477</DistanceMeters>
          </Trackpoint>
          <Trackpoint>
            <Time>2019-07-26T11:34:16.000Z</Time>
            <Position>
              <LatitudeDegrees>42.94355764053761959075927734375</LatitudeDegrees>
              <LongitudeDegrees>-7.95285441912710666656494140625</LongitudeDegrees>
            </Position>
            <AltitudeMeters>498.600006103515625</AltitudeMeters>
            <DistanceMeters>40562.139943963</DistanceMeters>
          </Trackpoint>
          <Trackpoint>
            <Time>2019-07-26T11:34:18.000Z</Time>
            <Position>
              <LatitudeDegrees>42.9435930959880352020263671875</LatitudeDegrees>
              <LongitudeDegrees>-7.95288844965398311614990234375</LongitudeDegrees>
            </Position>
            <AltitudeMeters>499.20001220703125</AltitudeMeters>
            <DistanceMeters>40566.962959298</DistanceMeters>
          </Trackpoint>
          <Trackpoint>
            <Time>2019-07-26T11:34:21.000Z</Time>
            <Position>
              <LatitudeDegrees>42.94364196248352527618408203125</LatitudeDegrees>
              <LongitudeDegrees>-7.95296221040189266204833984375</LongitudeDegrees>
            </Position>
            <AltitudeMeters>499.600006103515625</AltitudeMeters>
            <DistanceMeters>40575.068687902</DistanceMeters>
          </Trackpoint>
          <Trackpoint>
            <Time>2019-07-26T11:34:22.000Z</Time>
            <Position>
              <LatitudeDegrees>42.94364489614963531494140625</LatitudeDegrees>
              <LongitudeDegrees>-7.953004203736782073974609375</LongitudeDegrees>
            </Position>
            <AltitudeMeters>499.79998779296875</AltitudeMeters>
            <DistanceMeters>40578.504136914</DistanceMeters>
          </Trackpoint>
          <Trackpoint>
            <Time>2019-07-26T11:34:26.000Z</Time>
            <Position>
              <LatitudeDegrees>42.94360491447150707244873046875</LatitudeDegrees>
              <LongitudeDegrees>-7.95319019816815853118896484375</LongitudeDegrees>
            </Position>
            <AltitudeMeters>500.600006103515625</AltitudeMeters>
            <DistanceMeters>40594.29802281</DistanceMeters>
          </Trackpoint>
          <Trackpoint>
            <Time>2019-07-26T11:34:27.000Z</Time>
            <Position>
              <LatitudeDegrees>42.9435857199132442474365234375</LatitudeDegrees>
              <LongitudeDegrees>-7.953247614204883575439453125</LongitudeDegrees>
            </Position>
            <AltitudeMeters>501</AltitudeMeters>
            <DistanceMeters>40599.440013069</DistanceMeters>
          </Trackpoint>
          <Trackpoint>
            <Time>2019-07-26T11:34:31.000Z</Time>
            <Position>
              <LatitudeDegrees>42.94347633607685565948486328125</LatitudeDegrees>
              <LongitudeDegrees>-7.9535039328038692474365234375</LongitudeDegrees>
            </Position>
            <AltitudeMeters>502</AltitudeMeters>
            <DistanceMeters>40623.613434565</DistanceMeters>
          </Trackpoint>
          <Trackpoint>
            <Time>2019-07-26T11:34:33.000Z</Time>
            <Position>
              <LatitudeDegrees>42.9434140585362911224365234375</LatitudeDegrees>
              <LongitudeDegrees>-7.95365807600319385528564453125</LongitudeDegrees>
            </Position>
            <AltitudeMeters>502</AltitudeMeters>
            <DistanceMeters>40637.958377298</DistanceMeters>
          </Trackpoint>
          <Trackpoint>
            <Time>2019-07-26T11:34:37.000Z</Time>
            <Position>
              <LatitudeDegrees>42.94328682124614715576171875</LatitudeDegrees>
              <LongitudeDegrees>-7.95399201102554798126220703125</LongitudeDegrees>
            </Position>
            <AltitudeMeters>502</AltitudeMeters>
            <DistanceMeters>40668.630963501</DistanceMeters>
          </Trackpoint>
          <Trackpoint>
            <Time>2019-07-26T11:34:43.000Z</Time>
            <Position>
              <LatitudeDegrees>42.9431029222905635833740234375</LatitudeDegrees>
              <LongitudeDegrees>-7.9545573703944683074951171875</LongitudeDegrees>
            </Position>
            <AltitudeMeters>500.600006103515625</AltitudeMeters>
            <DistanceMeters>40719.037238994</DistanceMeters>
          </Trackpoint>
          <Trackpoint>
            <Time>2019-07-26T11:34:46.000Z</Time>
            <Position>
              <LatitudeDegrees>42.94303829781711101531982421875</LatitudeDegrees>
              <LongitudeDegrees>-7.95488451607525348663330078125</LongitudeDegrees>
            </Position>
            <AltitudeMeters>499.20001220703125</AltitudeMeters>
            <DistanceMeters>40746.645402506</DistanceMeters>
          </Trackpoint>
          <Trackpoint>
            <Time>2019-07-26T11:34:48.000Z</Time>
            <Position>
              <LatitudeDegrees>42.94300627894699573516845703125</LatitudeDegrees>
              <LongitudeDegrees>-7.95510311610996723175048828125</LongitudeDegrees>
            </Position>
            <AltitudeMeters>498.600006103515625</AltitudeMeters>
            <DistanceMeters>40764.809181654</DistanceMeters>
          </Trackpoint>
          <Trackpoint>
            <Time>2019-07-26T11:34:50.000Z</Time>
            <Position>
              <LatitudeDegrees>42.9429899342358112335205078125</LatitudeDegrees>
              <LongitudeDegrees>-7.955316938459873199462890625</LongitudeDegrees>
            </Position>
            <AltitudeMeters>498.20001220703125</AltitudeMeters>
            <DistanceMeters>40782.32557219</DistanceMeters>
          </Trackpoint>
          <Trackpoint>
            <Time>2019-07-26T11:34:51.000Z</Time>
            <Position>
              <LatitudeDegrees>42.94299555011093616485595703125</LatitudeDegrees>
              <LongitudeDegrees>-7.95542615465819835662841796875</LongitudeDegrees>
            </Position>
            <AltitudeMeters>498.20001220703125</AltitudeMeters>
            <DistanceMeters>40791.245944022</DistanceMeters>
          </Trackpoint>
          <Trackpoint>
            <Time>2019-07-26T11:34:52.000Z</Time>
            <Position>
              <LatitudeDegrees>42.94300426729023456573486328125</LatitudeDegrees>
              <LongitudeDegrees>-7.9555353708565235137939453125</LongitudeDegrees>
            </Position>
            <AltitudeMeters>498</AltitudeMeters>
            <DistanceMeters>40800.196633281</DistanceMeters>
          </Trackpoint>
          <Trackpoint>
            <Time>2019-07-26T11:34:54.000Z</Time>
            <Position>
              <LatitudeDegrees>42.9430137388408184051513671875</LatitudeDegrees>
              <LongitudeDegrees>-7.9557543061673641204833984375</LongitudeDegrees>
            </Position>
            <AltitudeMeters>497.79998779296875</AltitudeMeters>
            <DistanceMeters>40818.065951487</DistanceMeters>
          </Trackpoint>
          <Trackpoint>
            <Time>2019-07-26T11:34:55.000Z</Time>
            <Position>
              <LatitudeDegrees>42.94300611130893230438232421875</LatitudeDegrees>
              <LongitudeDegrees>-7.9558642767369747161865234375</LongitudeDegrees>
            </Position>
            <AltitudeMeters>497.79998779296875</AltitudeMeters>
            <DistanceMeters>40827.066441239</DistanceMeters>
          </Trackpoint>
          <Trackpoint>
            <Time>2019-07-26T11:34:57.000Z</Time>
            <Position>
              <LatitudeDegrees>42.94296537525951862335205078125</LatitudeDegrees>
              <LongitudeDegrees>-7.95609335415065288543701171875</LongitudeDegrees>
            </Position>
            <AltitudeMeters>497.20001220703125</AltitudeMeters>
            <DistanceMeters>40846.273829742</DistanceMeters>
          </Trackpoint>
          <Trackpoint>
            <Time>2019-07-26T11:34:58.000Z</Time>
            <Position>
              <LatitudeDegrees>42.9429503716528415679931640625</LatitudeDegrees>
              <LongitudeDegrees>-7.95621438883244991302490234375</LongitudeDegrees>
            </Position>
            <AltitudeMeters>497</AltitudeMeters>
            <DistanceMeters>40856.27558893</DistanceMeters>
          </Trackpoint>
          <Trackpoint>
            <Time>2019-07-26T11:34:59.000Z</Time>
            <Position>
              <LatitudeDegrees>42.9429456777870655059814453125</LatitudeDegrees>
              <LongitudeDegrees>-7.95633994974195957183837890625</LongitudeDegrees>
            </Position>
            <AltitudeMeters>496.600006103515625</AltitudeMeters>
            <DistanceMeters>40866.519098498</DistanceMeters>
          </Trackpoint>
          <Trackpoint>
            <Time>2019-07-26T11:35:00.000Z</Time>
            <Position>
              <LatitudeDegrees>42.9429557360708713531494140625</LatitudeDegrees>
              <LongitudeDegrees>-7.956465594470500946044921875</LongitudeDegrees>
            </Position>
            <AltitudeMeters>496.399993896484375</AltitudeMeters>
            <DistanceMeters>40876.817557016</DistanceMeters>
          </Trackpoint>
          <Trackpoint>
            <Time>2019-07-26T11:35:01.000Z</Time>
            <Position>
              <LatitudeDegrees>42.9429711587727069854736328125</LatitudeDegrees>
              <LongitudeDegrees>-7.956587970256805419921875</LongitudeDegrees>
            </Position>
            <AltitudeMeters>496.20001220703125</AltitudeMeters>
            <DistanceMeters>40886.934667102</DistanceMeters>
          </Trackpoint>
          <Trackpoint>
            <Time>2019-07-26T11:35:04.000Z</Time>
            <Position>
              <LatitudeDegrees>42.943041734397411346435546875</LatitudeDegrees>
              <LongitudeDegrees>-7.95696356333792209625244140625</LongitudeDegrees>
            </Position>
            <AltitudeMeters>495</AltitudeMeters>
            <DistanceMeters>40918.528727463</DistanceMeters>
          </Trackpoint>
          <Trackpoint>
            <Time>2019-07-26T11:35:06.000Z</Time>
            <Position>
              <LatitudeDegrees>42.943088673055171966552734375</LatitudeDegrees>
              <LongitudeDegrees>-7.9572087340056896209716796875</LongitudeDegrees>
            </Position>
            <AltitudeMeters>493.79998779296875</AltitudeMeters>
            <DistanceMeters>40939.176438452</DistanceMeters>
          </Trackpoint>
          <Trackpoint>
            <Time>2019-07-26T11:35:08.000Z</Time>
            <Position>
              <LatitudeDegrees>42.94314407743513584136962890625</LatitudeDegrees>
              <LongitudeDegrees>-7.95743429102003574371337890625</LongitudeDegrees>
            </Position>
            <AltitudeMeters>492.399993896484375</AltitudeMeters>
            <DistanceMeters>40958.561189445</DistanceMeters>
          </Trackpoint>
          <Trackpoint>
            <Time>2019-07-26T11:35:10.000Z</Time>
            <Position>
              <LatitudeDegrees>42.9432132281363010406494140625</LatitudeDegrees>
              <LongitudeDegrees>-7.95763604342937469482421875</LongitudeDegrees>
            </Position>
            <AltitudeMeters>490.399993896484375</AltitudeMeters>
            <DistanceMeters>40976.712038157</DistanceMeters>
          </Trackpoint>
          <Trackpoint>
            <Time>2019-07-26T11:35:12.000Z</Time>
            <Position>
              <LatitudeDegrees>42.94320777989923954010009765625</LatitudeDegrees>
              <LongitudeDegrees>-7.95784668065607547760009765625</LongitudeDegrees>
            </Position>
            <AltitudeMeters>489.600006103515625</AltitudeMeters>
            <DistanceMeters>40993.884814185</DistanceMeters>
          </Trackpoint>
          <Trackpoint>
            <Time>2019-07-26T11:35:13.000Z</Time>
            <Position>
              <LatitudeDegrees>42.9431753419339656829833984375</LatitudeDegrees>
              <LongitudeDegrees>-7.95794726349413394927978515625</LongitudeDegrees>
            </Position>
            <AltitudeMeters>489.20001220703125</AltitudeMeters>
            <DistanceMeters>41002.840042206</DistanceMeters>
          </Trackpoint>
          <Trackpoint>
            <Time>2019-07-26T11:35:15.000Z</Time>
            <Position>
              <LatitudeDegrees>42.94307383708655834197998046875</LatitudeDegrees>
              <LongitudeDegrees>-7.958132587373256683349609375</LongitudeDegrees>
            </Position>
            <AltitudeMeters>488.600006103515625</AltitudeMeters>
            <DistanceMeters>41021.698476146</DistanceMeters>
          </Trackpoint>
          <Trackpoint>
            <Time>2019-07-26T11:35:16.000Z</Time>
            <Position>
              <LatitudeDegrees>42.94300879351794719696044921875</LatitudeDegrees>
              <LongitudeDegrees>-7.95821665786206722259521484375</LongitudeDegrees>
            </Position>
            <AltitudeMeters>488</AltitudeMeters>
            <DistanceMeters>41031.66496203</DistanceMeters>
          </Trackpoint>
          <Trackpoint>
            <Time>2019-07-26T11:35:18.000Z</Time>
            <Position>
              <LatitudeDegrees>42.94284953735768795013427734375</LatitudeDegrees>
              <LongitudeDegrees>-7.958378009498119354248046875</LongitudeDegrees>
            </Position>
            <AltitudeMeters>486.600006103515625</AltitudeMeters>
            <DistanceMeters>41053.733676151</DistanceMeters>
          </Trackpoint>
          <Trackpoint>
            <Time>2019-07-26T11:35:19.000Z</Time>
            <Position>
              <LatitudeDegrees>42.94276404194533824920654296875</LatitudeDegrees>
              <LongitudeDegrees>-7.95845621265470981597900390625</LongitudeDegrees>
            </Position>
            <AltitudeMeters>486</AltitudeMeters>
            <DistanceMeters>41065.185873768</DistanceMeters>
          </Trackpoint>
          <Trackpoint>
            <Time>2019-07-26T11:35:20.000Z</Time>
            <Position>
              <LatitudeDegrees>42.9426751099526882171630859375</LatitudeDegrees>
              <LongitudeDegrees>-7.958530895411968231201171875</LongitudeDegrees>
            </Position>
            <AltitudeMeters>485.600006103515625</AltitudeMeters>
            <DistanceMeters>41076.805585597</DistanceMeters>
          </Trackpoint>
          <Trackpoint>
            <Time>2019-07-26T11:35:22.000Z</Time>
            <Position>
              <LatitudeDegrees>42.94248961843550205230712890625</LatitudeDegrees>
              <LongitudeDegrees>-7.958680428564548492431640625</LongitudeDegrees>
            </Position>
            <AltitudeMeters>484.20001220703125</AltitudeMeters>
            <DistanceMeters>41100.777946034</DistanceMeters>
          </Trackpoint>
          <Trackpoint>
            <Time>2019-07-26T11:35:24.000Z</Time>
            <Position>
              <LatitudeDegrees>42.94231058098375797271728515625</LatitudeDegrees>
              <LongitudeDegrees>-7.95881847850978374481201171875</LongitudeDegrees>
            </Position>
            <AltitudeMeters>483.20001220703125</AltitudeMeters>
            <DistanceMeters>41123.6606472</DistanceMeters>
          </Trackpoint>
          <Trackpoint>
            <Time>2019-07-26T11:35:26.000Z</Time>
            <Position>
              <LatitudeDegrees>42.942141853272914886474609375</LatitudeDegrees>
              <LongitudeDegrees>-7.95898729003965854644775390625</LongitudeDegrees>
            </Position>
            <AltitudeMeters>481.79998779296875</AltitudeMeters>
            <DistanceMeters>41146.93850722</DistanceMeters>
          </Trackpoint>
          <Trackpoint>
            <Time>2019-07-26T11:35:27.000Z</Time>
            <Position>
              <LatitudeDegrees>42.942068763077259063720703125</LatitudeDegrees>
              <LongitudeDegrees>-7.95909105800092220306396484375</LongitudeDegrees>
            </Position>
            <AltitudeMeters>481</AltitudeMeters>
            <DistanceMeters>41158.671132046</DistanceMeters>
          </Trackpoint>
          <Trackpoint>
            <Time>2019-07-26T11:35:28.000Z</Time>
            <Position>
              <LatitudeDegrees>42.94199927709996700286865234375</LatitudeDegrees>
              <LongitudeDegrees>-7.95920312404632568359375</LongitudeDegrees>
            </Position>
            <AltitudeMeters>480.20001220703125</AltitudeMeters>
            <DistanceMeters>41170.637708509</DistanceMeters>
          </Trackpoint>
          <Trackpoint>
            <Time>2019-07-26T11:35:30.000Z</Time>
            <Position>
              <LatitudeDegrees>42.9418699443340301513671875</LatitudeDegrees>
              <LongitudeDegrees>-7.95944293029606342315673828125</LongitudeDegrees>
            </Position>
            <AltitudeMeters>478.79998779296875</AltitudeMeters>
            <DistanceMeters>41194.906943481</DistanceMeters>
          </Trackpoint>
          <Trackpoint>
            <Time>2019-07-26T11:35:32.000Z</Time>
            <Position>
              <LatitudeDegrees>42.9417581297457218170166015625</LatitudeDegrees>
              <LongitudeDegrees>-7.95969187282025814056396484375</LongitudeDegrees>
            </Position>
            <AltitudeMeters>477</AltitudeMeters>
            <DistanceMeters>41218.703879292</DistanceMeters>
          </Trackpoint>
          <Trackpoint>
            <Time>2019-07-26T11:35:33.000Z</Time>
            <Position>
              <LatitudeDegrees>42.941703312098979949951171875</LatitudeDegrees>
              <LongitudeDegrees>-7.959820367395877838134765625</LongitudeDegrees>
            </Position>
            <AltitudeMeters>476</AltitudeMeters>
            <DistanceMeters>41230.821927944</DistanceMeters>
          </Trackpoint>
          <Trackpoint>
            <Time>2019-07-26T11:35:34.000Z</Time>
            <Position>
              <LatitudeDegrees>42.9416464827954769134521484375</LatitudeDegrees>
              <LongitudeDegrees>-7.959952466189861297607421875</LongitudeDegrees>
            </Position>
            <AltitudeMeters>475</AltitudeMeters>
            <DistanceMeters>41243.305921269</DistanceMeters>
          </Trackpoint>
          <Trackpoint>
            <Time>2019-07-26T11:35:36.000Z</Time>
            <Position>
              <LatitudeDegrees>42.941523604094982147216796875</LatitudeDegrees>
              <LongitudeDegrees>-7.96022177673876285552978515625</LongitudeDegrees>
            </Position>
            <AltitudeMeters>473.20001220703125</AltitudeMeters>
            <DistanceMeters>41269.162444037</DistanceMeters>
          </Trackpoint>
          <Trackpoint>
            <Time>2019-07-26T11:35:37.000Z</Time>
            <Position>
              <LatitudeDegrees>42.941455878317356109619140625</LatitudeDegrees>
              <LongitudeDegrees>-7.96035689301788806915283203125</LongitudeDegrees>
            </Position>
            <AltitudeMeters>471.600006103515625</AltitudeMeters>
            <DistanceMeters>41282.504817403</DistanceMeters>
          </Trackpoint>
          <Trackpoint>
            <Time>2019-07-26T11:35:38.000Z</Time>
            <Position>
              <LatitudeDegrees>42.9413893260061740875244140625</LatitudeDegrees>
              <LongitudeDegrees>-7.96048999764025211334228515625</LongitudeDegrees>
            </Position>
            <AltitudeMeters>471</AltitudeMeters>
            <DistanceMeters>41295.638114405</DistanceMeters>
          </Trackpoint>
          <Trackpoint>
            <Time>2019-07-26T11:35:39.000Z</Time>
            <Position>
              <LatitudeDegrees>42.9413227736949920654296875</LatitudeDegrees>
              <LongitudeDegrees>-7.96062528155744075775146484375</LongitudeDegrees>
            </Position>
            <AltitudeMeters>470</AltitudeMeters>
            <DistanceMeters>41308.918076489</DistanceMeters>
          </Trackpoint>
          <Trackpoint>
            <Time>2019-07-26T11:35:40.000Z</Time>
            <Position>
              <LatitudeDegrees>42.9412612505257129669189453125</LatitudeDegrees>
              <LongitudeDegrees>-7.9607609845697879791259765625</LongitudeDegrees>
            </Position>
            <AltitudeMeters>469</AltitudeMeters>
            <DistanceMeters>41321.923203624</DistanceMeters>
          </Trackpoint>
          <Trackpoint>
            <Time>2019-07-26T11:35:42.000Z</Time>
            <Position>
              <LatitudeDegrees>42.94116091914474964141845703125</LatitudeDegrees>
              <LongitudeDegrees>-7.9610498249530792236328125</LongitudeDegrees>
            </Position>
            <AltitudeMeters>467.20001220703125</AltitudeMeters>
            <DistanceMeters>41347.972485656</DistanceMeters>
          </Trackpoint>
          <Trackpoint>
            <Time>2019-07-26T11:35:43.000Z</Time>
            <Position>
              <LatitudeDegrees>42.9411221109330654144287109375</LatitudeDegrees>
              <LongitudeDegrees>-7.9611978493630886077880859375</LongitudeDegrees>
            </Position>
            <AltitudeMeters>466.20001220703125</AltitudeMeters>
            <DistanceMeters>41360.7838349</DistanceMeters>
          </Trackpoint>
          <Trackpoint>
            <Time>2019-07-26T11:35:44.000Z</Time>
            <Position>
              <LatitudeDegrees>42.9410922713577747344970703125</LatitudeDegrees>
              <LongitudeDegrees>-7.9613443650305271148681640625</LongitudeDegrees>
            </Position>
            <AltitudeMeters>465.600006103515625</AltitudeMeters>
            <DistanceMeters>41373.175260155</DistanceMeters>
          </Trackpoint>
          <Trackpoint>
            <Time>2019-07-26T11:35:46.000Z</Time>
            <Position>
              <LatitudeDegrees>42.9410359449684619903564453125</LatitudeDegrees>
              <LongitudeDegrees>-7.96164284460246562957763671875</LongitudeDegrees>
            </Position>
            <AltitudeMeters>464.399993896484375</AltitudeMeters>
            <DistanceMeters>41398.29001358</DistanceMeters>
          </Trackpoint>
          <Trackpoint>
            <Time>2019-07-26T11:35:48.000Z</Time>
            <Position>
              <LatitudeDegrees>42.9409725777804851531982421875</LatitudeDegrees>
              <LongitudeDegrees>-7.9619388096034526824951171875</LongitudeDegrees>
            </Position>
            <AltitudeMeters>462.600006103515625</AltitudeMeters>
            <DistanceMeters>41423.415191869</DistanceMeters>
          </Trackpoint>
          <Trackpoint>
            <Time>2019-07-26T11:35:49.000Z</Time>
            <Position>
              <LatitudeDegrees>42.94093980453908443450927734375</LatitudeDegrees>
              <LongitudeDegrees>-7.96208289451897144317626953125</LongitudeDegrees>
            </Position>
            <AltitudeMeters>461.600006103515625</AltitudeMeters>
            <DistanceMeters>41435.708578683</DistanceMeters>
          </Trackpoint>
          <Trackpoint>
            <Time>2019-07-26T11:35:50.000Z</Time>
            <Position>
              <LatitudeDegrees>42.940903343260288238525390625</LatitudeDegrees>
              <LongitudeDegrees>-7.96222421340644359588623046875</LongitudeDegrees>
            </Position>
            <AltitudeMeters>460.79998779296875</AltitudeMeters>
            <DistanceMeters>41447.917570118</DistanceMeters>
          </Trackpoint>
          <Trackpoint>
            <Time>2019-07-26T11:35:52.000Z</Time>
            <Position>
              <LatitudeDegrees>42.94082664884626865386962890625</LatitudeDegrees>
              <LongitudeDegrees>-7.9624997265636920928955078125</LongitudeDegrees>
            </Position>
            <AltitudeMeters>459.600006103515625</AltitudeMeters>
            <DistanceMeters>41471.934526483</DistanceMeters>
          </Trackpoint>
          <Trackpoint>
            <Time>2019-07-26T11:35:54.000Z</Time>
            <Position>
              <LatitudeDegrees>42.94075925834476947784423828125</LatitudeDegrees>
              <LongitudeDegrees>-7.962771467864513397216796875</LongitudeDegrees>
            </Position>
            <AltitudeMeters>458.600006103515625</AltitudeMeters>
            <DistanceMeters>41495.31187078</DistanceMeters>
          </Trackpoint>
          <Trackpoint>
            <Time>2019-07-26T11:35:55.000Z</Time>
            <Position>
              <LatitudeDegrees>42.94072908349335193634033203125</LatitudeDegrees>
              <LongitudeDegrees>-7.96290465630590915679931640625</LongitudeDegrees>
            </Position>
            <AltitudeMeters>457.79998779296875</AltitudeMeters>
            <DistanceMeters>41506.671836557</DistanceMeters>
          </Trackpoint>
          <Trackpoint>
            <Time>2019-07-26T11:35:56.000Z</Time>
            <Position>
              <LatitudeDegrees>42.9407016746699810028076171875</LatitudeDegrees>
              <LongitudeDegrees>-7.963036336004734039306640625</LongitudeDegrees>
            </Position>
            <AltitudeMeters>457</AltitudeMeters>
            <DistanceMeters>41517.826450998</DistanceMeters>
          </Trackpoint>
          <Trackpoint>
            <Time>2019-07-26T11:35:58.000Z</Time>
            <Position>
              <LatitudeDegrees>42.94065917842090129852294921875</LatitudeDegrees>
              <LongitudeDegrees>-7.96329944394528865814208984375</LongitudeDegrees>
            </Position>
            <AltitudeMeters>455</AltitudeMeters>
            <DistanceMeters>41539.779884442</DistanceMeters>
          </Trackpoint>
          <Trackpoint>
            <Time>2019-07-26T11:36:00.000Z</Time>
            <Position>
              <LatitudeDegrees>42.94064819812774658203125</LatitudeDegrees>
              <LongitudeDegrees>-7.9635682515799999237060546875</LongitudeDegrees>
            </Position>
            <AltitudeMeters>454</AltitudeMeters>
            <DistanceMeters>41561.716035279</DistanceMeters>
          </Trackpoint>
          <Trackpoint>
            <Time>2019-07-26T11:36:01.000Z</Time>
            <Position>
              <LatitudeDegrees>42.94065431691706180572509765625</LatitudeDegrees>
              <LongitudeDegrees>-7.9636976681649684906005859375</LongitudeDegrees>
            </Position>
            <AltitudeMeters>453.79998779296875</AltitudeMeters>
            <DistanceMeters>41572.282817912</DistanceMeters>
          </Trackpoint>
          <Trackpoint>
            <Time>2019-07-26T11:36:04.000Z</Time>
            <Position>
              <LatitudeDegrees>42.9406802169978618621826171875</LatitudeDegrees>
              <LongitudeDegrees>-7.9640611074864864349365234375</LongitudeDegrees>
            </Position>
            <AltitudeMeters>452.600006103515625</AltitudeMeters>
            <DistanceMeters>41602.035589613</DistanceMeters>
          </Trackpoint>
          <Trackpoint>
            <Time>2019-07-26T11:36:05.000Z</Time>
            <Position>
              <LatitudeDegrees>42.9406926222145557403564453125</LatitudeDegrees>
              <LongitudeDegrees>-7.964178957045078277587890625</LongitudeDegrees>
            </Position>
            <AltitudeMeters>451.79998779296875</AltitudeMeters>
            <DistanceMeters>41611.736695565</DistanceMeters>
          </Trackpoint>
          <Trackpoint>
            <Time>2019-07-26T11:36:06.000Z</Time>
            <Position>
              <LatitudeDegrees>42.9407040216028690338134765625</LatitudeDegrees>
              <LongitudeDegrees>-7.96429404057562351226806640625</LongitudeDegrees>
            </Position>
            <AltitudeMeters>451.399993896484375</AltitudeMeters>
            <DistanceMeters>41621.198417283</DistanceMeters>
          </Trackpoint>
          <Trackpoint>
            <Time>2019-07-26T11:36:09.000Z</Time>
            <Position>
              <LatitudeDegrees>42.9407073743641376495361328125</LatitudeDegrees>
              <LongitudeDegrees>-7.964632250368595123291015625</LongitudeDegrees>
            </Position>
            <AltitudeMeters>451</AltitudeMeters>
            <DistanceMeters>41648.75813045</DistanceMeters>
          </Trackpoint>
          <Trackpoint>
            <Time>2019-07-26T11:36:10.000Z</Time>
            <Position>
              <LatitudeDegrees>42.9406949691474437713623046875</LatitudeDegrees>
              <LongitudeDegrees>-7.9647393710911273956298828125</LongitudeDegrees>
            </Position>
            <AltitudeMeters>450.600006103515625</AltitudeMeters>
            <DistanceMeters>41657.594593035</DistanceMeters>
          </Trackpoint>
          <Trackpoint>
            <Time>2019-07-26T11:36:11.000Z</Time>
            <Position>
              <LatitudeDegrees>42.94067443348467350006103515625</LatitudeDegrees>
              <LongitudeDegrees>-7.9648433066904544830322265625</LongitudeDegrees>
            </Position>
            <AltitudeMeters>450.20001220703125</AltitudeMeters>
            <DistanceMeters>41666.365924251</DistanceMeters>
          </Trackpoint>
          <Trackpoint>
            <Time>2019-07-26T11:36:13.000Z</Time>
            <Position>
              <LatitudeDegrees>42.940612323582172393798828125</LatitudeDegrees>
              <LongitudeDegrees>-7.96503617428243160247802734375</LongitudeDegrees>
            </Position>
            <AltitudeMeters>449.79998779296875</AltitudeMeters>
            <DistanceMeters>41683.533967096</DistanceMeters>
          </Trackpoint>
          <Trackpoint>
            <Time>2019-07-26T11:36:14.000Z</Time>
            <Position>
              <LatitudeDegrees>42.94057988561689853668212890625</LatitudeDegrees>
              <LongitudeDegrees>-7.9651286266744136810302734375</LongitudeDegrees>
            </Position>
            <AltitudeMeters>449.79998779296875</AltitudeMeters>
            <DistanceMeters>41691.886593666</DistanceMeters>
          </Trackpoint>
          <Trackpoint>
            <Time>2019-07-26T11:36:16.000Z</Time>
            <Position>
              <LatitudeDegrees>42.94051366858184337615966796875</LatitudeDegrees>
              <LongitudeDegrees>-7.9653113521635532379150390625</LongitudeDegrees>
            </Position>
            <AltitudeMeters>449.600006103515625</AltitudeMeters>
            <DistanceMeters>41708.499426848</DistanceMeters>
          </Trackpoint>
          <Trackpoint>
            <Time>2019-07-26T11:36:18.000Z</Time>
            <Position>
              <LatitudeDegrees>42.94044108130037784576416015625</LatitudeDegrees>
              <LongitudeDegrees>-7.9654856957495212554931640625</LongitudeDegrees>
            </Position>
            <AltitudeMeters>449.20001220703125</AltitudeMeters>
            <DistanceMeters>41724.841259082</DistanceMeters>
          </Trackpoint>
          <Trackpoint>
            <Time>2019-07-26T11:36:21.000Z</Time>
            <Position>
              <LatitudeDegrees>42.940319962799549102783203125</LatitudeDegrees>
              <LongitudeDegrees>-7.96572801657021045684814453125</LongitudeDegrees>
            </Position>
            <AltitudeMeters>448.79998779296875</AltitudeMeters>
            <DistanceMeters>41748.748741563</DistanceMeters>
          </Trackpoint>
          <Trackpoint>
            <Time>2019-07-26T11:36:23.000Z</Time>
            <Position>
              <LatitudeDegrees>42.9402376525104045867919921875</LatitudeDegrees>
              <LongitudeDegrees>-7.96587981283664703369140625</LongitudeDegrees>
            </Position>
            <AltitudeMeters>448.79998779296875</AltitudeMeters>
            <DistanceMeters>41764.140722774</DistanceMeters>
          </Trackpoint>
          <Trackpoint>
            <Time>2019-07-26T11:36:27.000Z</Time>
            <Position>
              <LatitudeDegrees>42.94009993784129619598388671875</LatitudeDegrees>
              <LongitudeDegrees>-7.96620863489806652069091796875</LongitudeDegrees>
            </Position>
            <AltitudeMeters>448.600006103515625</AltitudeMeters>
            <DistanceMeters>41795.007880495</DistanceMeters>
          </Trackpoint>
          <Trackpoint>
            <Time>2019-07-26T11:36:35.000Z</Time>
            <Position>
              <LatitudeDegrees>42.93982584960758686065673828125</LatitudeDegrees>
              <LongitudeDegrees>-7.966908104717731475830078125</LongitudeDegrees>
            </Position>
            <AltitudeMeters>448.600006103515625</AltitudeMeters>
            <DistanceMeters>41859.652173331</DistanceMeters>
          </Trackpoint>
          <Trackpoint>
            <Time>2019-07-26T11:36:43.000Z</Time>
            <Position>
              <LatitudeDegrees>42.93954522348940372467041015625</LatitudeDegrees>
              <LongitudeDegrees>-7.96762802638113498687744140625</LongitudeDegrees>
            </Position>
            <AltitudeMeters>448.600006103515625</AltitudeMeters>
            <DistanceMeters>41926.109417017</DistanceMeters>
          </Trackpoint>
          <Trackpoint>
            <Time>2019-07-26T11:36:44.000Z</Time>
            <Position>
              <LatitudeDegrees>42.93951094150543212890625</LatitudeDegrees>
              <LongitudeDegrees>-7.9677196405827999114990234375</LongitudeDegrees>
            </Position>
            <AltitudeMeters>448.79998779296875</AltitudeMeters>
            <DistanceMeters>41934.492798493</DistanceMeters>
          </Trackpoint>
          <Trackpoint>
            <Time>2019-07-26T11:36:47.000Z</Time>
            <Position>
              <LatitudeDegrees>42.9394081793725490570068359375</LatitudeDegrees>
              <LongitudeDegrees>-7.9679908789694309234619140625</LongitudeDegrees>
            </Position>
            <AltitudeMeters>448.600006103515625</AltitudeMeters>
            <DistanceMeters>41959.378007201</DistanceMeters>
          </Trackpoint>
          <Trackpoint>
            <Time>2019-07-26T11:36:49.000Z</Time>
            <Position>
              <LatitudeDegrees>42.9393712989985942840576171875</LatitudeDegrees>
              <LongitudeDegrees>-7.96818508766591548919677734375</LongitudeDegrees>
            </Position>
            <AltitudeMeters>448.399993896484375</AltitudeMeters>
            <DistanceMeters>41975.726468982</DistanceMeters>
          </Trackpoint>
          <Trackpoint>
            <Time>2019-07-26T11:36:51.000Z</Time>
            <Position>
              <LatitudeDegrees>42.93934087269008159637451171875</LatitudeDegrees>
              <LongitudeDegrees>-7.968386672437191009521484375</LongitudeDegrees>
            </Position>
            <AltitudeMeters>448.20001220703125</AltitudeMeters>
            <DistanceMeters>41992.497270721</DistanceMeters>
          </Trackpoint>
          <Trackpoint>
            <Time>2019-07-26T11:36:57.000Z</Time>
            <Position>
              <LatitudeDegrees>42.93923391960561275482177734375</LatitudeDegrees>
              <LongitudeDegrees>-7.9689568094909191131591796875</LongitudeDegrees>
            </Position>
            <AltitudeMeters>447.79998779296875</AltitudeMeters>
            <DistanceMeters>42040.453855767</DistanceMeters>
          </Trackpoint>
          <Trackpoint>
            <Time>2019-07-26T11:37:03.000Z</Time>
            <Position>
              <LatitudeDegrees>42.93911992572247982025146484375</LatitudeDegrees>
              <LongitudeDegrees>-7.96944740228354930877685546875</LongitudeDegrees>
            </Position>
            <AltitudeMeters>447.79998779296875</AltitudeMeters>
            <DistanceMeters>42082.393484642</DistanceMeters>
          </Trackpoint>
          <Trackpoint>
            <Time>2019-07-26T11:37:10.000Z</Time>
            <Position>
              <LatitudeDegrees>42.93894340284168720245361328125</LatitudeDegrees>
              <LongitudeDegrees>-7.96999759040772914886474609375</LongitudeDegrees>
            </Position>
            <AltitudeMeters>448.399993896484375</AltitudeMeters>
            <DistanceMeters>42131.340176169</DistanceMeters>
          </Trackpoint>
          <Trackpoint>
            <Time>2019-07-26T11:37:13.000Z</Time>
            <Position>
              <LatitudeDegrees>42.9388543032109737396240234375</LatitudeDegrees>
              <LongitudeDegrees>-7.97027670778334140777587890625</LongitudeDegrees>
            </Position>
            <AltitudeMeters>448.399993896484375</AltitudeMeters>
            <DistanceMeters>42156.151067149</DistanceMeters>
          </Trackpoint>
          <Trackpoint>
            <Time>2019-07-26T11:37:15.000Z</Time>
            <Position>
              <LatitudeDegrees>42.9387761838734149932861328125</LatitudeDegrees>
              <LongitudeDegrees>-7.97047577798366546630859375</LongitudeDegrees>
            </Position>
            <AltitudeMeters>448.399993896484375</AltitudeMeters>
            <DistanceMeters>42174.554874017</DistanceMeters>
          </Trackpoint>
          <Trackpoint>
            <Time>2019-07-26T11:37:17.000Z</Time>
            <Position>
              <LatitudeDegrees>42.938701249659061431884765625</LatitudeDegrees>
              <LongitudeDegrees>-7.97069295309484004974365234375</LongitudeDegrees>
            </Position>
            <AltitudeMeters>448.399993896484375</AltitudeMeters>
            <DistanceMeters>42194.117687459</DistanceMeters>
          </Trackpoint>
          <Trackpoint>
            <Time>2019-07-26T11:37:19.000Z</Time>
            <Position>
              <LatitudeDegrees>42.938632853329181671142578125</LatitudeDegrees>
              <LongitudeDegrees>-7.97093041241168975830078125</LongitudeDegrees>
            </Position>
            <AltitudeMeters>447.79998779296875</AltitudeMeters>
            <DistanceMeters>42214.910088471</DistanceMeters>
          </Trackpoint>
          <Trackpoint>
            <Time>2019-07-26T11:37:20.000Z</Time>
            <Position>
              <LatitudeDegrees>42.93860544450581073760986328125</LatitudeDegrees>
              <LongitudeDegrees>-7.97105588950216770172119140625</LongitudeDegrees>
            </Position>
            <AltitudeMeters>447.20001220703125</AltitudeMeters>
            <DistanceMeters>42225.579773271</DistanceMeters>
          </Trackpoint>
          <Trackpoint>
            <Time>2019-07-26T11:37:22.000Z</Time>
            <Position>
              <LatitudeDegrees>42.9385612718760967254638671875</LatitudeDegrees>
              <LongitudeDegrees>-7.9713225178420543670654296875</LongitudeDegrees>
            </Position>
            <AltitudeMeters>446.20001220703125</AltitudeMeters>
            <DistanceMeters>42247.854570246</DistanceMeters>
          </Trackpoint>
          <Trackpoint>
            <Time>2019-07-26T11:37:24.000Z</Time>
            <Position>
              <LatitudeDegrees>42.93852162547409534454345703125</LatitudeDegrees>
              <LongitudeDegrees>-7.971591912209987640380859375</LongitudeDegrees>
            </Position>
            <AltitudeMeters>445.399993896484375</AltitudeMeters>
            <DistanceMeters>42270.244606509</DistanceMeters>
          </Trackpoint>
          <Trackpoint>
            <Time>2019-07-26T11:37:25.000Z</Time>
            <Position>
              <LatitudeDegrees>42.93850720860064029693603515625</LatitudeDegrees>
              <LongitudeDegrees>-7.97171772457659244537353515625</LongitudeDegrees>
            </Position>
            <AltitudeMeters>445</AltitudeMeters>
            <DistanceMeters>42280.62037498</DistanceMeters>
          </Trackpoint>
          <Trackpoint>
            <Time>2019-07-26T11:37:26.000Z</Time>
            <Position>
              <LatitudeDegrees>42.938506118953227996826171875</LatitudeDegrees>
              <LongitudeDegrees>-7.971826605498790740966796875</LongitudeDegrees>
            </Position>
            <AltitudeMeters>444.600006103515625</AltitudeMeters>
            <DistanceMeters>42289.493041234</DistanceMeters>
          </Trackpoint>
          <Trackpoint>
            <Time>2019-07-26T11:37:27.000Z</Time>
            <Position>
              <LatitudeDegrees>42.9385066218674182891845703125</LatitudeDegrees>
              <LongitudeDegrees>-7.97191478312015533447265625</LongitudeDegrees>
            </Position>
            <AltitudeMeters>443.600006103515625</AltitudeMeters>
            <DistanceMeters>42296.678719845</DistanceMeters>
          </Trackpoint>
          <Trackpoint>
            <Time>2019-07-26T11:37:28.000Z</Time>
            <Position>
              <LatitudeDegrees>42.9385086335241794586181640625</LatitudeDegrees>
              <LongitudeDegrees>-7.97199214808642864227294921875</LongitudeDegrees>
            </Position>
            <AltitudeMeters>443.20001220703125</AltitudeMeters>
            <DistanceMeters>42302.98709102</DistanceMeters>
          </Trackpoint>
          <Trackpoint>
            <Time>2019-07-26T11:37:29.000Z</Time>
            <Position>
              <LatitudeDegrees>42.938518524169921875</LatitudeDegrees>
              <LongitudeDegrees>-7.9720607958734035491943359375</LongitudeDegrees>
            </Position>
            <AltitudeMeters>441.79998779296875</AltitudeMeters>
            <DistanceMeters>42308.688693883</DistanceMeters>
          </Trackpoint>
          <Trackpoint>
            <Time>2019-07-26T11:37:31.000Z</Time>
            <Position>
              <LatitudeDegrees>42.938558422029018402099609375</LatitudeDegrees>
              <LongitudeDegrees>-7.9722163639962673187255859375</LongitudeDegrees>
            </Position>
            <AltitudeMeters>440</AltitudeMeters>
            <DistanceMeters>42322.12010733</DistanceMeters>
          </Trackpoint>
          <Trackpoint>
            <Time>2019-07-26T11:37:32.000Z</Time>
            <Position>
              <LatitudeDegrees>42.93858222663402557373046875</LatitudeDegrees>
              <LongitudeDegrees>-7.9723045416176319122314453125</LongitudeDegrees>
            </Position>
            <AltitudeMeters>439.399993896484375</AltitudeMeters>
            <DistanceMeters>42329.777869172</DistanceMeters>
          </Trackpoint>
          <Trackpoint>
            <Time>2019-07-26T11:37:33.000Z</Time>
            <Position>
              <LatitudeDegrees>42.93861483223736286163330078125</LatitudeDegrees>
              <LongitudeDegrees>-7.9723957367241382598876953125</LongitudeDegrees>
            </Position>
            <AltitudeMeters>438.399993896484375</AltitudeMeters>
            <DistanceMeters>42338.047923524</DistanceMeters>
          </Trackpoint>
          <Trackpoint>
            <Time>2019-07-26T11:37:34.000Z</Time>
            <Position>
              <LatitudeDegrees>42.9386486113071441650390625</LatitudeDegrees>
              <LongitudeDegrees>-7.97249238006770610809326171875</LongitudeDegrees>
            </Position>
            <AltitudeMeters>437.20001220703125</AltitudeMeters>
            <DistanceMeters>42346.773839211</DistanceMeters>
          </Trackpoint>
          <Trackpoint>
            <Time>2019-07-26T11:37:35.000Z</Time>
            <Position>
              <LatitudeDegrees>42.93868088163435459136962890625</LatitudeDegrees>
              <LongitudeDegrees>-7.9725967347621917724609375</LongitudeDegrees>
            </Position>
            <AltitudeMeters>435.79998779296875</AltitudeMeters>
            <DistanceMeters>42356.004646398</DistanceMeters>
          </Trackpoint>
          <Trackpoint>
            <Time>2019-07-26T11:37:36.000Z</Time>
            <Position>
              <LatitudeDegrees>42.93871558271348476409912109375</LatitudeDegrees>
              <LongitudeDegrees>-7.97270343638956546783447265625</LongitudeDegrees>
            </Position>
            <AltitudeMeters>434.79998779296875</AltitudeMeters>
            <DistanceMeters>42365.518239631</DistanceMeters>
          </Trackpoint>
          <Trackpoint>
            <Time>2019-07-26T11:37:38.000Z</Time>
            <Position>
              <LatitudeDegrees>42.93877107091248035430908203125</LatitudeDegrees>
              <LongitudeDegrees>-7.9729264788329601287841796875</LongitudeDegrees>
            </Position>
            <AltitudeMeters>433.20001220703125</AltitudeMeters>
            <DistanceMeters>42384.712930277</DistanceMeters>
          </Trackpoint>
          <Trackpoint>
            <Time>2019-07-26T11:37:41.000Z</Time>
            <Position>
              <LatitudeDegrees>42.93880325742065906524658203125</LatitudeDegrees>
              <LongitudeDegrees>-7.97327960841357707977294921875</LongitudeDegrees>
            </Position>
            <AltitudeMeters>432.399993896484375</AltitudeMeters>
            <DistanceMeters>42413.709005141</DistanceMeters>
          </Trackpoint>
          <Trackpoint>
            <Time>2019-07-26T11:37:42.000Z</Time>
            <Position>
              <LatitudeDegrees>42.9387993179261684417724609375</LatitudeDegrees>
              <LongitudeDegrees>-7.97339913435280323028564453125</LongitudeDegrees>
            </Position>
            <AltitudeMeters>432</AltitudeMeters>
            <DistanceMeters>42423.457467815</DistanceMeters>
          </Trackpoint>
          <Trackpoint>
            <Time>2019-07-26T11:37:44.000Z</Time>
            <Position>
              <LatitudeDegrees>42.9387631081044673919677734375</LatitudeDegrees>
              <LongitudeDegrees>-7.97363919205963611602783203125</LongitudeDegrees>
            </Position>
            <AltitudeMeters>431.399993896484375</AltitudeMeters>
            <DistanceMeters>42443.428909338</DistanceMeters>
          </Trackpoint>
          <Trackpoint>
            <Time>2019-07-26T11:37:45.000Z</Time>
            <Position>
              <LatitudeDegrees>42.9387396387755870819091796875</LatitudeDegrees>
              <LongitudeDegrees>-7.97375704161822795867919921875</LongitudeDegrees>
            </Position>
            <AltitudeMeters>430.79998779296875</AltitudeMeters>
            <DistanceMeters>42453.379980551</DistanceMeters>
          </Trackpoint>
          <Trackpoint>
            <Time>2019-07-26T11:37:47.000Z</Time>
            <Position>
              <LatitudeDegrees>42.9386886768043041229248046875</LatitudeDegrees>
              <LongitudeDegrees>-7.973995842039585113525390625</LongitudeDegrees>
            </Position>
            <AltitudeMeters>429.399993896484375</AltitudeMeters>
            <DistanceMeters>42473.648089432</DistanceMeters>
          </Trackpoint>
          <Trackpoint>
            <Time>2019-07-26T11:37:49.000Z</Time>
            <Position>
              <LatitudeDegrees>42.9386440850794315338134765625</LatitudeDegrees>
              <LongitudeDegrees>-7.974231876432895660400390625</LongitudeDegrees>
            </Position>
            <AltitudeMeters>428.20001220703125</AltitudeMeters>
            <DistanceMeters>42493.510718659</DistanceMeters>
          </Trackpoint>
          <Trackpoint>
            <Time>2019-07-26T11:37:52.000Z</Time>
            <Position>
              <LatitudeDegrees>42.938578538596630096435546875</LatitudeDegrees>
              <LongitudeDegrees>-7.97456421889364719390869140625</LongitudeDegrees>
            </Position>
            <AltitudeMeters>426.79998779296875</AltitudeMeters>
            <DistanceMeters>42521.556320428</DistanceMeters>
          </Trackpoint>
          <Trackpoint>
            <Time>2019-07-26T11:37:53.000Z</Time>
            <Position>
              <LatitudeDegrees>42.93855649419128894805908203125</LatitudeDegrees>
              <LongitudeDegrees>-7.9746685735881328582763671875</LongitudeDegrees>
            </Position>
            <AltitudeMeters>426.399993896484375</AltitudeMeters>
            <DistanceMeters>42530.406568056</DistanceMeters>
          </Trackpoint>
          <Trackpoint>
            <Time>2019-07-26T11:37:54.000Z</Time>
            <Position>
              <LatitudeDegrees>42.93853788636624813079833984375</LatitudeDegrees>
              <LongitudeDegrees>-7.97476731240749359130859375</LongitudeDegrees>
            </Position>
            <AltitudeMeters>426.20001220703125</AltitudeMeters>
            <DistanceMeters>42538.71475103</DistanceMeters>
          </Trackpoint>
          <Trackpoint>
            <Time>2019-07-26T11:37:56.000Z</Time>
            <Position>
              <LatitudeDegrees>42.9384999163448810577392578125</LatitudeDegrees>
              <LongitudeDegrees>-7.97494794242084026336669921875</LongitudeDegrees>
            </Position>
            <AltitudeMeters>425.79998779296875</AltitudeMeters>
            <DistanceMeters>42554.027916121</DistanceMeters>
          </Trackpoint>
          <Trackpoint>
            <Time>2019-07-26T11:37:57.000Z</Time>
            <Position>
              <LatitudeDegrees>42.9384769499301910400390625</LatitudeDegrees>
              <LongitudeDegrees>-7.975029833614826202392578125</LongitudeDegrees>
            </Position>
            <AltitudeMeters>425.600006103515625</AltitudeMeters>
            <DistanceMeters>42561.173267912</DistanceMeters>
          </Trackpoint>
          <Trackpoint>
            <Time>2019-07-26T11:37:58.000Z</Time>
            <Position>
              <LatitudeDegrees>42.9384523071348667144775390625</LatitudeDegrees>
              <LongitudeDegrees>-7.97510451637208461761474609375</LongitudeDegrees>
            </Position>
            <AltitudeMeters>425.600006103515625</AltitudeMeters>
            <DistanceMeters>42567.848175939</DistanceMeters>
          </Trackpoint>
          <Trackpoint>
            <Time>2019-07-26T11:38:01.000Z</Time>
            <Position>
              <LatitudeDegrees>42.938374020159244537353515625</LatitudeDegrees>
              <LongitudeDegrees>-7.9752955399453639984130859375</LongitudeDegrees>
            </Position>
            <AltitudeMeters>425.600006103515625</AltitudeMeters>
            <DistanceMeters>42585.686388679</DistanceMeters>
          </Trackpoint>
          <Trackpoint>
            <Time>2019-07-26T11:38:03.000Z</Time>
            <Position>
              <LatitudeDegrees>42.938319034874439239501953125</LatitudeDegrees>
              <LongitudeDegrees>-7.97539687715470790863037109375</LongitudeDegrees>
            </Position>
            <AltitudeMeters>425.600006103515625</AltitudeMeters>
            <DistanceMeters>42595.964220855</DistanceMeters>
          </Trackpoint>
          <Trackpoint>
            <Time>2019-07-26T11:38:05.000Z</Time>
            <Position>
              <LatitudeDegrees>42.93825893662869930267333984375</LatitudeDegrees>
              <LongitudeDegrees>-7.9754936881363391876220703125</LongitudeDegrees>
            </Position>
            <AltitudeMeters>425.600006103515625</AltitudeMeters>
            <DistanceMeters>42606.306864886</DistanceMeters>
          </Trackpoint>
          <Trackpoint>
            <Time>2019-07-26T11:38:07.000Z</Time>
            <Position>
              <LatitudeDegrees>42.93820747174322605133056640625</LatitudeDegrees>
              <LongitudeDegrees>-7.975589744746685028076171875</LongitudeDegrees>
            </Position>
            <AltitudeMeters>426</AltitudeMeters>
            <DistanceMeters>42616.005643485</DistanceMeters>
          </Trackpoint>
          <Trackpoint>
            <Time>2019-07-26T11:38:09.000Z</Time>
            <Position>
              <LatitudeDegrees>42.9381550848484039306640625</LatitudeDegrees>
              <LongitudeDegrees>-7.9756834544241428375244140625</LongitudeDegrees>
            </Position>
            <AltitudeMeters>426.399993896484375</AltitudeMeters>
            <DistanceMeters>42625.613685507</DistanceMeters>
          </Trackpoint>
          <Trackpoint>
            <Time>2019-07-26T11:38:10.000Z</Time>
            <Position>
              <LatitudeDegrees>42.93812750838696956634521484375</LatitudeDegrees>
              <LongitudeDegrees>-7.97572754323482513427734375</LongitudeDegrees>
            </Position>
            <AltitudeMeters>426.399993896484375</AltitudeMeters>
            <DistanceMeters>42630.339294361</DistanceMeters>
          </Trackpoint>
          <Trackpoint>
            <Time>2019-07-26T11:38:11.000Z</Time>
            <Position>
              <LatitudeDegrees>42.938098423182964324951171875</LatitudeDegrees>
              <LongitudeDegrees>-7.975768111646175384521484375</LongitudeDegrees>
            </Position>
            <AltitudeMeters>426.600006103515625</AltitudeMeters>
            <DistanceMeters>42634.965446236</DistanceMeters>
          </Trackpoint>
          <Trackpoint>
            <Time>2019-07-26T11:38:13.000Z</Time>
            <Position>
              <LatitudeDegrees>42.9380342178046703338623046875</LatitudeDegrees>
              <LongitudeDegrees>-7.975849248468875885009765625</LongitudeDegrees>
            </Position>
            <AltitudeMeters>427</AltitudeMeters>
            <DistanceMeters>42644.700468182</DistanceMeters>
          </Trackpoint>
          <Trackpoint>
            <Time>2019-07-26T11:38:15.000Z</Time>
            <Position>
              <LatitudeDegrees>42.937970347702503204345703125</LatitudeDegrees>
              <LongitudeDegrees>-7.97593918628990650177001953125</LongitudeDegrees>
            </Position>
            <AltitudeMeters>427.399993896484375</AltitudeMeters>
            <DistanceMeters>42654.910424228</DistanceMeters>
          </Trackpoint>
          <Trackpoint>
            <Time>2019-07-26T11:38:17.000Z</Time>
            <Position>
              <LatitudeDegrees>42.9379131831228733062744140625</LatitudeDegrees>
              <LongitudeDegrees>-7.9760271124541759490966796875</LongitudeDegrees>
            </Position>
            <AltitudeMeters>428.20001220703125</AltitudeMeters>
            <DistanceMeters>42664.491643208</DistanceMeters>
          </Trackpoint>
          <Trackpoint>
            <Time>2019-07-26T11:38:18.000Z</Time>
            <Position>
              <LatitudeDegrees>42.93788728304207324981689453125</LatitudeDegrees>
              <LongitudeDegrees>-7.97607296146452426910400390625</LongitudeDegrees>
            </Position>
            <AltitudeMeters>428.600006103515625</AltitudeMeters>
            <DistanceMeters>42669.210559239</DistanceMeters>
          </Trackpoint>
          <Trackpoint>
            <Time>2019-07-26T11:38:20.000Z</Time>
            <Position>
              <LatitudeDegrees>42.93783145956695079803466796875</LatitudeDegrees>
              <LongitudeDegrees>-7.97616206109523773193359375</LongitudeDegrees>
            </Position>
            <AltitudeMeters>429.20001220703125</AltitudeMeters>
            <DistanceMeters>42678.766297463</DistanceMeters>
          </Trackpoint>
          <Trackpoint>
            <Time>2019-07-26T11:38:23.000Z</Time>
            <Position>
              <LatitudeDegrees>42.9377447068691253662109375</LatitudeDegrees>
              <LongitudeDegrees>-7.9763107560575008392333984375</LongitudeDegrees>
            </Position>
            <AltitudeMeters>430.399993896484375</AltitudeMeters>
            <DistanceMeters>42694.25944085</DistanceMeters>
          </Trackpoint>
          <Trackpoint>
            <Time>2019-07-26T11:38:25.000Z</Time>
            <Position>
              <LatitudeDegrees>42.937683351337909698486328125</LatitudeDegrees>
              <LongitudeDegrees>-7.97641016542911529541015625</LongitudeDegrees>
            </Position>
            <AltitudeMeters>431.399993896484375</AltitudeMeters>
            <DistanceMeters>42704.85396067</DistanceMeters>
          </Trackpoint>
          <Trackpoint>
            <Time>2019-07-26T11:38:26.000Z</Time>
            <Position>
              <LatitudeDegrees>42.937649823725223541259765625</LatitudeDegrees>
              <LongitudeDegrees>-7.97645710408687591552734375</LongitudeDegrees>
            </Position>
            <AltitudeMeters>431.79998779296875</AltitudeMeters>
            <DistanceMeters>42710.197470912</DistanceMeters>
          </Trackpoint>
          <Trackpoint>
            <Time>2019-07-26T11:38:28.000Z</Time>
            <Position>
              <LatitudeDegrees>42.937583439052104949951171875</LatitudeDegrees>
              <LongitudeDegrees>-7.97656112350523471832275390625</LongitudeDegrees>
            </Position>
            <AltitudeMeters>432.600006103515625</AltitudeMeters>
            <DistanceMeters>42721.441986481</DistanceMeters>
          </Trackpoint>
          <Trackpoint>
            <Time>2019-07-26T11:38:32.000Z</Time>
            <Position>
              <LatitudeDegrees>42.93746332637965679168701171875</LatitudeDegrees>
              <LongitudeDegrees>-7.9767724312841892242431640625</LongitudeDegrees>
            </Position>
            <AltitudeMeters>434.20001220703125</AltitudeMeters>
            <DistanceMeters>42743.240625948</DistanceMeters>
          </Trackpoint>
          <Trackpoint>
            <Time>2019-07-26T11:38:34.000Z</Time>
            <Position>
              <LatitudeDegrees>42.937413789331912994384765625</LatitudeDegrees>
              <LongitudeDegrees>-7.976874522864818572998046875</LongitudeDegrees>
            </Position>
            <AltitudeMeters>434.600006103515625</AltitudeMeters>
            <DistanceMeters>42753.221145637</DistanceMeters>
          </Trackpoint>
          <Trackpoint>
            <Time>2019-07-26T11:38:36.000Z</Time>
            <Position>
              <LatitudeDegrees>42.93736928142607212066650390625</LatitudeDegrees>
              <LongitudeDegrees>-7.9769806377589702606201171875</LongitudeDegrees>
            </Position>
            <AltitudeMeters>435.399993896484375</AltitudeMeters>
            <DistanceMeters>42763.186725436</DistanceMeters>
          </Trackpoint>
          <Trackpoint>
            <Time>2019-07-26T11:38:39.000Z</Time>
            <Position>
              <LatitudeDegrees>42.93729904107749462127685546875</LatitudeDegrees>
              <LongitudeDegrees>-7.97713310457766056060791015625</LongitudeDegrees>
            </Position>
            <AltitudeMeters>436.79998779296875</AltitudeMeters>
            <DistanceMeters>42777.865815466</DistanceMeters>
          </Trackpoint>
          <Trackpoint>
            <Time>2019-07-26T11:38:42.000Z</Time>
            <Position>
              <LatitudeDegrees>42.9372194968163967132568359375</LatitudeDegrees>
              <LongitudeDegrees>-7.9772959649562835693359375</LongitudeDegrees>
            </Position>
            <AltitudeMeters>437.600006103515625</AltitudeMeters>
            <DistanceMeters>42793.818420718</DistanceMeters>
          </Trackpoint>
          <Trackpoint>
            <Time>2019-07-26T11:38:43.000Z</Time>
            <Position>
              <LatitudeDegrees>42.93719284236431121826171875</LatitudeDegrees>
              <LongitudeDegrees>-7.97735421918332576751708984375</LongitudeDegrees>
            </Position>
            <AltitudeMeters>437.79998779296875</AltitudeMeters>
            <DistanceMeters>42799.416131434</DistanceMeters>
          </Trackpoint>
          <Trackpoint>
            <Time>2019-07-26T11:38:48.000Z</Time>
            <Position>
              <LatitudeDegrees>42.93703735806047916412353515625</LatitudeDegrees>
              <LongitudeDegrees>-7.9776713065803050994873046875</LongitudeDegrees>
            </Position>
            <AltitudeMeters>438.20001220703125</AltitudeMeters>
            <DistanceMeters>42830.514122798</DistanceMeters>
          </Trackpoint>
          <Trackpoint>
            <Time>2019-07-26T11:38:55.000Z</Time>
            <Position>
              <LatitudeDegrees>42.936751283705234527587890625</LatitudeDegrees>
              <LongitudeDegrees>-7.9780957661569118499755859375</LongitudeDegrees>
            </Position>
            <AltitudeMeters>438.600006103515625</AltitudeMeters>
            <DistanceMeters>42877.52575061</DistanceMeters>
          </Trackpoint>
          <Trackpoint>
            <Time>2019-07-26T11:39:02.000Z</Time>
            <Position>
              <LatitudeDegrees>42.9364782012999057769775390625</LatitudeDegrees>
              <LongitudeDegrees>-7.97850974835455417633056640625</LongitudeDegrees>
            </Position>
            <AltitudeMeters>438.600006103515625</AltitudeMeters>
            <DistanceMeters>42922.932613241</DistanceMeters>
          </Trackpoint>
          <Trackpoint>
            <Time>2019-07-26T11:39:08.000Z</Time>
            <Position>
              <LatitudeDegrees>42.93622867204248905181884765625</LatitudeDegrees>
              <LongitudeDegrees>-7.97886597923934459686279296875</LongitudeDegrees>
            </Position>
            <AltitudeMeters>438.600006103515625</AltitudeMeters>
            <DistanceMeters>42963.106554581</DistanceMeters>
          </Trackpoint>
          <Trackpoint>
            <Time>2019-07-26T11:39:12.000Z</Time>
            <Position>
              <LatitudeDegrees>42.9360678233206272125244140625</LatitudeDegrees>
              <LongitudeDegrees>-7.97909547574818134307861328125</LongitudeDegrees>
            </Position>
            <AltitudeMeters>438.600006103515625</AltitudeMeters>
            <DistanceMeters>42988.995361696</DistanceMeters>
          </Trackpoint>
          <Trackpoint>
            <Time>2019-07-26T11:39:16.000Z</Time>
            <Position>
              <LatitudeDegrees>42.93592290021479129791259765625</LatitudeDegrees>
              <LongitudeDegrees>-7.97930619679391384124755859375</LongitudeDegrees>
            </Position>
            <AltitudeMeters>438.600006103515625</AltitudeMeters>
            <DistanceMeters>43012.554322169</DistanceMeters>
          </Trackpoint>
          <Trackpoint>
            <Time>2019-07-26T11:39:18.000Z</Time>
            <Position>
              <LatitudeDegrees>42.93585098348557949066162109375</LatitudeDegrees>
              <LongitudeDegrees>-7.9794050194323062896728515625</LongitudeDegrees>
            </Position>
            <AltitudeMeters>438.79998779296875</AltitudeMeters>
            <DistanceMeters>43023.908722258</DistanceMeters>
          </Trackpoint>
          <Trackpoint>
            <Time>2019-07-26T11:39:20.000Z</Time>
            <Position>
              <LatitudeDegrees>42.93577923439443111419677734375</LatitudeDegrees>
              <LongitudeDegrees>-7.9795025847852230072021484375</LongitudeDegrees>
            </Position>
            <AltitudeMeters>439</AltitudeMeters>
            <DistanceMeters>43035.177304021</DistanceMeters>
          </Trackpoint>
          <Trackpoint>
            <Time>2019-07-26T11:39:25.000Z</Time>
            <Position>
              <LatitudeDegrees>42.93561310507357120513916015625</LatitudeDegrees>
              <LongitudeDegrees>-7.9797449894249439239501953125</LongitudeDegrees>
            </Position>
            <AltitudeMeters>440</AltitudeMeters>
            <DistanceMeters>43062.233730932</DistanceMeters>
          </Trackpoint>
          <Trackpoint>
            <Time>2019-07-26T11:39:26.000Z</Time>
            <Position>
              <LatitudeDegrees>42.93558477424085140228271484375</LatitudeDegrees>
              <LongitudeDegrees>-7.97978782095015048980712890625</LongitudeDegrees>
            </Position>
            <AltitudeMeters>440.20001220703125</AltitudeMeters>
            <DistanceMeters>43066.937313321</DistanceMeters>
          </Trackpoint>
          <Trackpoint>
            <Time>2019-07-26T11:39:31.000Z</Time>
            <Position>
              <LatitudeDegrees>42.93542535044252872467041015625</LatitudeDegrees>
              <LongitudeDegrees>-7.980003654956817626953125</LongitudeDegrees>
            </Position>
            <AltitudeMeters>441.20001220703125</AltitudeMeters>
            <DistanceMeters>43091.920846777</DistanceMeters>
          </Trackpoint>
          <Trackpoint>
            <Time>2019-07-26T11:39:32.000Z</Time>
            <Position>
              <LatitudeDegrees>42.93540112674236297607421875</LatitudeDegrees>
              <LongitudeDegrees>-7.980040870606899261474609375</LongitudeDegrees>
            </Position>
            <AltitudeMeters>441.600006103515625</AltitudeMeters>
            <DistanceMeters>43095.979277438</DistanceMeters>
          </Trackpoint>
          <Trackpoint>
            <Time>2019-07-26T11:39:36.000Z</Time>
            <Position>
              <LatitudeDegrees>42.9352712072432041168212890625</LatitudeDegrees>
              <LongitudeDegrees>-7.9801892302930355072021484375</LongitudeDegrees>
            </Position>
            <AltitudeMeters>442</AltitudeMeters>
            <DistanceMeters>43114.827413616</DistanceMeters>
          </Trackpoint>
          <Trackpoint>
            <Time>2019-07-26T11:39:43.000Z</Time>
            <Position>
              <LatitudeDegrees>42.9350214265286922454833984375</LatitudeDegrees>
              <LongitudeDegrees>-7.98039919696748256683349609375</LongitudeDegrees>
            </Position>
            <AltitudeMeters>442.20001220703125</AltitudeMeters>
            <DistanceMeters>43147.471545113</DistanceMeters>
          </Trackpoint>
          <Trackpoint>
            <Time>2019-07-26T11:39:45.000Z</Time>
            <Position>
              <LatitudeDegrees>42.9349201731383800506591796875</LatitudeDegrees>
              <LongitudeDegrees>-7.980492822825908660888671875</LongitudeDegrees>
            </Position>
            <AltitudeMeters>442.20001220703125</AltitudeMeters>
            <DistanceMeters>43161.080949873</DistanceMeters>
          </Trackpoint>
          <Trackpoint>
            <Time>2019-07-26T11:39:48.000Z</Time>
            <Position>
              <LatitudeDegrees>42.93479586951434612274169921875</LatitudeDegrees>
              <LongitudeDegrees>-7.9806525819003582000732421875</LongitudeDegrees>
            </Position>
            <AltitudeMeters>442.399993896484375</AltitudeMeters>
            <DistanceMeters>43180.078213759</DistanceMeters>
          </Trackpoint>
          <Trackpoint>
            <Time>2019-07-26T11:39:53.000Z</Time>
            <Position>
              <LatitudeDegrees>42.93457626365125179290771484375</LatitudeDegrees>
              <LongitudeDegrees>-7.98091493546962738037109375</LongitudeDegrees>
            </Position>
            <AltitudeMeters>442.600006103515625</AltitudeMeters>
            <DistanceMeters>43212.550943036</DistanceMeters>
          </Trackpoint>
          <Trackpoint>
            <Time>2019-07-26T11:39:55.000Z</Time>
            <Position>
              <LatitudeDegrees>42.93449663557112216949462890625</LatitudeDegrees>
              <LongitudeDegrees>-7.9810267500579357147216796875</LongitudeDegrees>
            </Position>
            <AltitudeMeters>442.600006103515625</AltitudeMeters>
            <DistanceMeters>43225.262164764</DistanceMeters>
          </Trackpoint>
          <Trackpoint>
            <Time>2019-07-26T11:40:02.000Z</Time>
            <Position>
              <LatitudeDegrees>42.93422724120318889617919921875</LatitudeDegrees>
              <LongitudeDegrees>-7.98140184022486209869384765625</LongitudeDegrees>
            </Position>
            <AltitudeMeters>443.20001220703125</AltitudeMeters>
            <DistanceMeters>43268.079055352</DistanceMeters>
          </Trackpoint>
          <Trackpoint>
            <Time>2019-07-26T11:40:04.000Z</Time>
            <Position>
              <LatitudeDegrees>42.93416060507297515869140625</LatitudeDegrees>
              <LongitudeDegrees>-7.98151482827961444854736328125</LongitudeDegrees>
            </Position>
            <AltitudeMeters>443.399993896484375</AltitudeMeters>
            <DistanceMeters>43279.902150689</DistanceMeters>
          </Trackpoint>
          <Trackpoint>
            <Time>2019-07-26T11:40:06.000Z</Time>
            <Position>
              <LatitudeDegrees>42.93409413658082485198974609375</LatitudeDegrees>
              <LongitudeDegrees>-7.98164860345423221588134765625</LongitudeDegrees>
            </Position>
            <AltitudeMeters>443.600006103515625</AltitudeMeters>
            <DistanceMeters>43293.076637371</DistanceMeters>
          </Trackpoint>
          <Trackpoint>
            <Time>2019-07-26T11:40:07.000Z</Time>
            <Position>
              <LatitudeDegrees>42.93406295590102672576904296875</LatitudeDegrees>
              <LongitudeDegrees>-7.98171850852668285369873046875</LongitudeDegrees>
            </Position>
            <AltitudeMeters>443.600006103515625</AltitudeMeters>
            <DistanceMeters>43299.746808781</DistanceMeters>
          </Trackpoint>
          <Trackpoint>
            <Time>2019-07-26T11:40:11.000Z</Time>
            <Position>
              <LatitudeDegrees>42.93395902030169963836669921875</LatitudeDegrees>
              <LongitudeDegrees>-7.9820164851844310760498046875</LongitudeDegrees>
            </Position>
            <AltitudeMeters>444.20001220703125</AltitudeMeters>
            <DistanceMeters>43326.64323018</DistanceMeters>
          </Trackpoint>
          <Trackpoint>
            <Time>2019-07-26T11:40:14.000Z</Time>
            <Position>
              <LatitudeDegrees>42.93388442136347293853759765625</LatitudeDegrees>
              <LongitudeDegrees>-7.98223852179944515228271484375</LongitudeDegrees>
            </Position>
            <AltitudeMeters>444.399993896484375</AltitudeMeters>
            <DistanceMeters>43346.550816548</DistanceMeters>
          </Trackpoint>
          <Trackpoint>
            <Time>2019-07-26T11:40:15.000Z</Time>
            <Position>
              <LatitudeDegrees>42.93386019766330718994140625</LatitudeDegrees>
              <LongitudeDegrees>-7.98230943270027637481689453125</LongitudeDegrees>
            </Position>
            <AltitudeMeters>444.79998779296875</AltitudeMeters>
            <DistanceMeters>43352.926818755</DistanceMeters>
          </Trackpoint>
          <Trackpoint>
            <Time>2019-07-26T11:40:21.000Z</Time>
            <Position>
              <LatitudeDegrees>42.93373815715312957763671875</LatitudeDegrees>
              <LongitudeDegrees>-7.9827232472598552703857421875</LongitudeDegrees>
            </Position>
            <AltitudeMeters>445.600006103515625</AltitudeMeters>
            <DistanceMeters>43389.280964711</DistanceMeters>
          </Trackpoint>
          <Trackpoint>
            <Time>2019-07-26T11:40:24.000Z</Time>
            <Position>
              <LatitudeDegrees>42.9336997680366039276123046875</LatitudeDegrees>
              <LongitudeDegrees>-7.98294779844582080841064453125</LongitudeDegrees>
            </Position>
            <AltitudeMeters>446</AltitudeMeters>
            <DistanceMeters>43408.071281073</DistanceMeters>
          </Trackpoint>
          <Trackpoint>
            <Time>2019-07-26T11:40:29.000Z</Time>
            <Position>
              <LatitudeDegrees>42.93364922516047954559326171875</LatitudeDegrees>
              <LongitudeDegrees>-7.9833371378481388092041015625</LongitudeDegrees>
            </Position>
            <AltitudeMeters>446.20001220703125</AltitudeMeters>
            <DistanceMeters>43440.293044979</DistanceMeters>
          </Trackpoint>
          <Trackpoint>
            <Time>2019-07-26T11:40:37.000Z</Time>
            <Position>
              <LatitudeDegrees>42.93358149938285350799560546875</LatitudeDegrees>
              <LongitudeDegrees>-7.9840041697025299072265625</LongitudeDegrees>
            </Position>
            <AltitudeMeters>446.79998779296875</AltitudeMeters>
            <DistanceMeters>43495.168977342</DistanceMeters>
          </Trackpoint>
          <Trackpoint>
            <Time>2019-07-26T11:40:44.000Z</Time>
            <Position>
              <LatitudeDegrees>42.933506481349468231201171875</LatitudeDegrees>
              <LongitudeDegrees>-7.984742112457752227783203125</LongitudeDegrees>
            </Position>
            <AltitudeMeters>446.79998779296875</AltitudeMeters>
            <DistanceMeters>43555.880116537</DistanceMeters>
          </Trackpoint>
          <Trackpoint>
            <Time>2019-07-26T11:40:50.000Z</Time>
            <Position>
              <LatitudeDegrees>42.93347907252609729766845703125</LatitudeDegrees>
              <LongitudeDegrees>-7.98543387092649936676025390625</LongitudeDegrees>
            </Position>
            <AltitudeMeters>445.399993896484375</AltitudeMeters>
            <DistanceMeters>43612.333503321</DistanceMeters>
          </Trackpoint>
          <Trackpoint>
            <Time>2019-07-26T11:40:52.000Z</Time>
            <Position>
              <LatitudeDegrees>42.93346834369003772735595703125</LatitudeDegrees>
              <LongitudeDegrees>-7.98565649427473545074462890625</LongitudeDegrees>
            </Position>
            <AltitudeMeters>445</AltitudeMeters>
            <DistanceMeters>43630.513929281</DistanceMeters>
          </Trackpoint>
          <Trackpoint>
            <Time>2019-07-26T11:40:53.000Z</Time>
            <Position>
              <LatitudeDegrees>42.933462224900722503662109375</LatitudeDegrees>
              <LongitudeDegrees>-7.985766045749187469482421875</LongitudeDegrees>
            </Position>
            <AltitudeMeters>444.79998779296875</AltitudeMeters>
            <DistanceMeters>43639.467140358</DistanceMeters>
          </Trackpoint>
          <Trackpoint>
            <Time>2019-07-26T11:41:00.000Z</Time>
            <Position>
              <LatitudeDegrees>42.9334362410008907318115234375</LatitudeDegrees>
              <LongitudeDegrees>-7.98652620054781436920166015625</LongitudeDegrees>
            </Position>
            <AltitudeMeters>443.79998779296875</AltitudeMeters>
            <DistanceMeters>43701.47904336</DistanceMeters>
          </Trackpoint>
          <Trackpoint>
            <Time>2019-07-26T11:41:05.000Z</Time>
            <Position>
              <LatitudeDegrees>42.9334201477468013763427734375</LatitudeDegrees>
              <LongitudeDegrees>-7.98705493099987506866455078125</LongitudeDegrees>
            </Position>
            <AltitudeMeters>443.600006103515625</AltitudeMeters>
            <DistanceMeters>43744.602120272</DistanceMeters>
          </Trackpoint>
          <Trackpoint>
            <Time>2019-07-26T11:41:06.000Z</Time>
            <Position>
              <LatitudeDegrees>42.9334077425301074981689453125</LatitudeDegrees>
              <LongitudeDegrees>-7.98715953715145587921142578125</LongitudeDegrees>
            </Position>
            <AltitudeMeters>443.399993896484375</AltitudeMeters>
            <DistanceMeters>43753.23753406</DistanceMeters>
          </Trackpoint>
          <Trackpoint>
            <Time>2019-07-26T11:41:07.000Z</Time>
            <Position>
              <LatitudeDegrees>42.93339055962860584259033203125</LatitudeDegrees>
              <LongitudeDegrees>-7.9872642271220684051513671875</LongitudeDegrees>
            </Position>
            <AltitudeMeters>443.20001220703125</AltitudeMeters>
            <DistanceMeters>43761.979991782</DistanceMeters>
          </Trackpoint>
          <Trackpoint>
            <Time>2019-07-26T11:41:10.000Z</Time>
            <Position>
              <LatitudeDegrees>42.93330975808203220367431640625</LatitudeDegrees>
              <LongitudeDegrees>-7.98757025040686130523681640625</LongitudeDegrees>
            </Position>
            <AltitudeMeters>442.79998779296875</AltitudeMeters>
            <DistanceMeters>43788.489549854</DistanceMeters>
          </Trackpoint>
          <Trackpoint>
            <Time>2019-07-26T11:41:13.000Z</Time>
            <Position>
              <LatitudeDegrees>42.9332287050783634185791015625</LatitudeDegrees>
              <LongitudeDegrees>-7.98787116073071956634521484375</LongitudeDegrees>
            </Position>
            <AltitudeMeters>442.399993896484375</AltitudeMeters>
            <DistanceMeters>43814.617230941</DistanceMeters>
          </Trackpoint>
          <Trackpoint>
            <Time>2019-07-26T11:41:20.000Z</Time>
            <Position>
              <LatitudeDegrees>42.93310004286468029022216796875</LatitudeDegrees>
              <LongitudeDegrees>-7.98856191337108612060546875</LongitudeDegrees>
            </Position>
            <AltitudeMeters>442</AltitudeMeters>
            <DistanceMeters>43872.699467974</DistanceMeters>
          </Trackpoint>
          <Trackpoint>
            <Time>2019-07-26T11:41:25.000Z</Time>
            <Position>
              <LatitudeDegrees>42.9331026412546634674072265625</LatitudeDegrees>
              <LongitudeDegrees>-7.98899718560278415679931640625</LongitudeDegrees>
            </Position>
            <AltitudeMeters>442.20001220703125</AltitudeMeters>
            <DistanceMeters>43908.170790636</DistanceMeters>
          </Trackpoint>
          <Trackpoint>
            <Time>2019-07-26T11:41:32.000Z</Time>
            <Position>
              <LatitudeDegrees>42.933108843863010406494140625</LatitudeDegrees>
              <LongitudeDegrees>-7.9895563423633575439453125</LongitudeDegrees>
            </Position>
            <AltitudeMeters>442.79998779296875</AltitudeMeters>
            <DistanceMeters>43953.741425919</DistanceMeters>
          </Trackpoint>
          <Trackpoint>
            <Time>2019-07-26T11:41:33.000Z</Time>
            <Position>
              <LatitudeDegrees>42.933108843863010406494140625</LatitudeDegrees>
              <LongitudeDegrees>-7.98964016139507293701171875</LongitudeDegrees>
            </Position>
            <AltitudeMeters>443</AltitudeMeters>
            <DistanceMeters>43960.571460686</DistanceMeters>
          </Trackpoint>
          <Trackpoint>
            <Time>2019-07-26T11:41:38.000Z</Time>
            <Position>
              <LatitudeDegrees>42.9331090115010738372802734375</LatitudeDegrees>
              <LongitudeDegrees>-7.990050204098224639892578125</LongitudeDegrees>
            </Position>
            <AltitudeMeters>443.399993896484375</AltitudeMeters>
            <DistanceMeters>43993.98575062</DistanceMeters>
          </Trackpoint>
          <Trackpoint>
            <Time>2019-07-26T11:41:44.000Z</Time>
            <Position>
              <LatitudeDegrees>42.93310004286468029022216796875</LatitudeDegrees>
              <LongitudeDegrees>-7.99059645272791385650634765625</LongitudeDegrees>
            </Position>
            <AltitudeMeters>443.399993896484375</AltitudeMeters>
            <DistanceMeters>44038.510608649</DistanceMeters>
          </Trackpoint>
          <Trackpoint>
            <Time>2019-07-26T11:41:45.000Z</Time>
            <Position>
              <LatitudeDegrees>42.93310490436851978302001953125</LatitudeDegrees>
              <LongitudeDegrees>-7.99069535918533802032470703125</LongitudeDegrees>
            </Position>
            <AltitudeMeters>443.399993896484375</AltitudeMeters>
            <DistanceMeters>44046.588438332</DistanceMeters>
          </Trackpoint>
          <Trackpoint>
            <Time>2019-07-26T11:41:52.000Z</Time>
            <Position>
              <LatitudeDegrees>42.93319207616150379180908203125</LatitudeDegrees>
              <LongitudeDegrees>-7.991406060755252838134765625</LongitudeDegrees>
            </Position>
            <AltitudeMeters>442.79998779296875</AltitudeMeters>
            <DistanceMeters>44105.310334685</DistanceMeters>
          </Trackpoint>
          <Trackpoint>
            <Time>2019-07-26T11:41:56.000Z</Time>
            <Position>
              <LatitudeDegrees>42.9332437925040721893310546875</LatitudeDegrees>
              <LongitudeDegrees>-7.99181099049746990203857421875</LongitudeDegrees>
            </Position>
            <AltitudeMeters>442</AltitudeMeters>
            <DistanceMeters>44138.806139467</DistanceMeters>
          </Trackpoint>
          <Trackpoint>
            <Time>2019-07-26T11:41:58.000Z</Time>
            <Position>
              <LatitudeDegrees>42.9332709498703479766845703125</LatitudeDegrees>
              <LongitudeDegrees>-7.99201391637325286865234375</LongitudeDegrees>
            </Position>
            <AltitudeMeters>441.79998779296875</AltitudeMeters>
            <DistanceMeters>44155.616469988</DistanceMeters>
          </Trackpoint>
          <Trackpoint>
            <Time>2019-07-26T11:42:00.000Z</Time>
            <Position>
              <LatitudeDegrees>42.93328813277184963226318359375</LatitudeDegrees>
              <LongitudeDegrees>-7.9922175966203212738037109375</LongitudeDegrees>
            </Position>
            <AltitudeMeters>441.600006103515625</AltitudeMeters>
            <DistanceMeters>44172.324155439</DistanceMeters>
          </Trackpoint>
          <Trackpoint>
            <Time>2019-07-26T11:42:01.000Z</Time>
            <Position>
              <LatitudeDegrees>42.93328142724931240081787109375</LatitudeDegrees>
              <LongitudeDegrees>-7.99232178367674350738525390625</LongitudeDegrees>
            </Position>
            <AltitudeMeters>441.20001220703125</AltitudeMeters>
            <DistanceMeters>44180.847474334</DistanceMeters>
          </Trackpoint>
          <Trackpoint>
            <Time>2019-07-26T11:42:04.000Z</Time>
            <Position>
              <LatitudeDegrees>42.9332142882049083709716796875</LatitudeDegrees>
              <LongitudeDegrees>-7.99262680113315582275390625</LongitudeDegrees>
            </Position>
            <AltitudeMeters>440.79998779296875</AltitudeMeters>
            <DistanceMeters>44206.802121369</DistanceMeters>
          </Trackpoint>
          <Trackpoint>
            <Time>2019-07-26T11:42:05.000Z</Time>
            <Position>
              <LatitudeDegrees>42.9331780783832073211669921875</LatitudeDegrees>
              <LongitudeDegrees>-7.992716990411281585693359375</LongitudeDegrees>
            </Position>
            <AltitudeMeters>440</AltitudeMeters>
            <DistanceMeters>44215.183886979</DistanceMeters>
          </Trackpoint>
          <Trackpoint>
            <Time>2019-07-26T11:42:06.000Z</Time>
            <Position>
              <LatitudeDegrees>42.933140695095062255859375</LatitudeDegrees>
              <LongitudeDegrees>-7.99280424602329730987548828125</LongitudeDegrees>
            </Position>
            <AltitudeMeters>439.79998779296875</AltitudeMeters>
            <DistanceMeters>44223.422215362</DistanceMeters>
          </Trackpoint>
          <Trackpoint>
            <Time>2019-07-26T11:42:09.000Z</Time>
            <Position>
              <LatitudeDegrees>42.93303499929606914520263671875</LatitudeDegrees>
              <LongitudeDegrees>-7.99304430373013019561767578125</LongitudeDegrees>
            </Position>
            <AltitudeMeters>439.600006103515625</AltitudeMeters>
            <DistanceMeters>44246.24940444</DistanceMeters>
          </Trackpoint>
          <Trackpoint>
            <Time>2019-07-26T11:42:11.000Z</Time>
            <Position>
              <LatitudeDegrees>42.9329628311097621917724609375</LatitudeDegrees>
              <LongitudeDegrees>-7.993197105824947357177734375</LongitudeDegrees>
            </Position>
            <AltitudeMeters>439.600006103515625</AltitudeMeters>
            <DistanceMeters>44261.066869765</DistanceMeters>
          </Trackpoint>
          <Trackpoint>
            <Time>2019-07-26T11:42:15.000Z</Time>
            <Position>
              <LatitudeDegrees>42.93282779864966869354248046875</LatitudeDegrees>
              <LongitudeDegrees>-7.993518970906734466552734375</LongitudeDegrees>
            </Position>
            <AltitudeMeters>439.79998779296875</AltitudeMeters>
            <DistanceMeters>44291.29641948</DistanceMeters>
          </Trackpoint>
          <Trackpoint>
            <Time>2019-07-26T11:42:18.000Z</Time>
            <Position>
              <LatitudeDegrees>42.9327531158924102783203125</LatitudeDegrees>
              <LongitudeDegrees>-7.9937628842890262603759765625</LongitudeDegrees>
            </Position>
            <AltitudeMeters>440</AltitudeMeters>
            <DistanceMeters>44312.84088488</DistanceMeters>
          </Trackpoint>
          <Trackpoint>
            <Time>2019-07-26T11:42:20.000Z</Time>
            <Position>
              <LatitudeDegrees>42.9327102005481719970703125</LatitudeDegrees>
              <LongitudeDegrees>-7.99392239190638065338134765625</LongitudeDegrees>
            </Position>
            <AltitudeMeters>440.79998779296875</AltitudeMeters>
            <DistanceMeters>44326.688725989</DistanceMeters>
          </Trackpoint>
          <Trackpoint>
            <Time>2019-07-26T11:42:24.000Z</Time>
            <Position>
              <LatitudeDegrees>42.932614646852016448974609375</LatitudeDegrees>
              <LongitudeDegrees>-7.99421693198382854461669921875</LongitudeDegrees>
            </Position>
            <AltitudeMeters>442.20001220703125</AltitudeMeters>
            <DistanceMeters>44352.941564969</DistanceMeters>
          </Trackpoint>
          <Trackpoint>
            <Time>2019-07-26T11:42:25.000Z</Time>
            <Position>
              <LatitudeDegrees>42.93259260244667530059814453125</LatitudeDegrees>
              <LongitudeDegrees>-7.99429220147430896759033203125</LongitudeDegrees>
            </Position>
            <AltitudeMeters>442.600006103515625</AltitudeMeters>
            <DistanceMeters>44359.547801375</DistanceMeters>
          </Trackpoint>
          <Trackpoint>
            <Time>2019-07-26T11:42:30.000Z</Time>
            <Position>
              <LatitudeDegrees>42.93248690664768218994140625</LatitudeDegrees>
              <LongitudeDegrees>-7.99465321004390716552734375</LongitudeDegrees>
            </Position>
            <AltitudeMeters>443.399993896484375</AltitudeMeters>
            <DistanceMeters>44391.23148074</DistanceMeters>
          </Trackpoint>
          <Trackpoint>
            <Time>2019-07-26T11:42:35.000Z</Time>
            <Position>
              <LatitudeDegrees>42.93238070793449878692626953125</LatitudeDegrees>
              <LongitudeDegrees>-7.9950020648539066314697265625</LongitudeDegrees>
            </Position>
            <AltitudeMeters>443.79998779296875</AltitudeMeters>
            <DistanceMeters>44422.019256306</DistanceMeters>
          </Trackpoint>
          <Trackpoint>
            <Time>2019-07-26T11:42:42.000Z</Time>
            <Position>
              <LatitudeDegrees>42.9322161711752414703369140625</LatitudeDegrees>
              <LongitudeDegrees>-7.99547798931598663330078125</LongitudeDegrees>
            </Position>
            <AltitudeMeters>444.20001220703125</AltitudeMeters>
            <DistanceMeters>44464.909056173</DistanceMeters>
          </Trackpoint>
          <Trackpoint>
            <Time>2019-07-26T11:42:43.000Z</Time>
            <Position>
              <LatitudeDegrees>42.9321880079805850982666015625</LatitudeDegrees>
              <LongitudeDegrees>-7.9955432005226612091064453125</LongitudeDegrees>
            </Position>
            <AltitudeMeters>444.399993896484375</AltitudeMeters>
            <DistanceMeters>44471.077746644</DistanceMeters>
          </Trackpoint>
          <Trackpoint>
            <Time>2019-07-26T11:42:52.000Z</Time>
            <Position>
              <LatitudeDegrees>42.931930013000965118408203125</LatitudeDegrees>
              <LongitudeDegrees>-7.99614158459007740020751953125</LongitudeDegrees>
            </Position>
            <AltitudeMeters>444.600006103515625</AltitudeMeters>
            <DistanceMeters>44527.667411688</DistanceMeters>
          </Trackpoint>
          <Trackpoint>
            <Time>2019-07-26T11:43:01.000Z</Time>
            <Position>
              <LatitudeDegrees>42.93166271410882472991943359375</LatitudeDegrees>
              <LongitudeDegrees>-7.99676435999572277069091796875</LongitudeDegrees>
            </Position>
            <AltitudeMeters>444.79998779296875</AltitudeMeters>
            <DistanceMeters>44586.495702222</DistanceMeters>
          </Trackpoint>
          <Trackpoint>
            <Time>2019-07-26T11:43:05.000Z</Time>
            <Position>
              <LatitudeDegrees>42.931480072438716888427734375</LatitudeDegrees>
              <LongitudeDegrees>-7.996973656117916107177734375</LongitudeDegrees>
            </Position>
            <AltitudeMeters>444.79998779296875</AltitudeMeters>
            <DistanceMeters>44613.031476206</DistanceMeters>
          </Trackpoint>
          <Trackpoint>
            <Time>2019-07-26T11:43:06.000Z</Time>
            <Position>
              <LatitudeDegrees>42.9314286075532436370849609375</LatitudeDegrees>
              <LongitudeDegrees>-7.99702134914696216583251953125</LongitudeDegrees>
            </Position>
            <AltitudeMeters>444.600006103515625</AltitudeMeters>
            <DistanceMeters>44619.953440206</DistanceMeters>
          </Trackpoint>
          <Trackpoint>
            <Time>2019-07-26T11:43:11.000Z</Time>
            <Position>
              <LatitudeDegrees>42.93115091510117053985595703125</LatitudeDegrees>
              <LongitudeDegrees>-7.9972688667476177215576171875</LongitudeDegrees>
            </Position>
            <AltitudeMeters>444.20001220703125</AltitudeMeters>
            <DistanceMeters>44656.860768899</DistanceMeters>
          </Trackpoint>
          <Trackpoint>
            <Time>2019-07-26T11:43:13.000Z</Time>
            <Position>
              <LatitudeDegrees>42.93103273026645183563232421875</LatitudeDegrees>
              <LongitudeDegrees>-7.99737959168851375579833984375</LongitudeDegrees>
            </Position>
            <AltitudeMeters>444.20001220703125</AltitudeMeters>
            <DistanceMeters>44672.812241998</DistanceMeters>
          </Trackpoint>
          <Trackpoint>
            <Time>2019-07-26T11:43:15.000Z</Time>
            <Position>
              <LatitudeDegrees>42.93092393316328525543212890625</LatitudeDegrees>
              <LongitudeDegrees>-7.997513450682163238525390625</LongitudeDegrees>
            </Position>
            <AltitudeMeters>443.79998779296875</AltitudeMeters>
            <DistanceMeters>44689.110362401</DistanceMeters>
          </Trackpoint>
          <Trackpoint>
            <Time>2019-07-26T11:43:17.000Z</Time>
            <Position>
              <LatitudeDegrees>42.93084665201604366302490234375</LatitudeDegrees>
              <LongitudeDegrees>-7.9976795800030231475830078125</LongitudeDegrees>
            </Position>
            <AltitudeMeters>443.600006103515625</AltitudeMeters>
            <DistanceMeters>44705.150466455</DistanceMeters>
          </Trackpoint>
          <Trackpoint>
            <Time>2019-07-26T11:43:18.000Z</Time>
            <Position>
              <LatitudeDegrees>42.93081228621304035186767578125</LatitudeDegrees>
              <LongitudeDegrees>-7.99776859581470489501953125</LongitudeDegrees>
            </Position>
            <AltitudeMeters>443.20001220703125</AltitudeMeters>
            <DistanceMeters>44713.351442577</DistanceMeters>
          </Trackpoint>
          <Trackpoint>
            <Time>2019-07-26T11:43:21.000Z</Time>
            <Position>
              <LatitudeDegrees>42.9307365976274013519287109375</LatitudeDegrees>
              <LongitudeDegrees>-7.99804813228547573089599609375</LongitudeDegrees>
            </Position>
            <AltitudeMeters>442.600006103515625</AltitudeMeters>
            <DistanceMeters>44737.639460278</DistanceMeters>
          </Trackpoint>
          <Trackpoint>
            <Time>2019-07-26T11:43:22.000Z</Time>
            <Position>
              <LatitudeDegrees>42.93072394095361232757568359375</LatitudeDegrees>
              <LongitudeDegrees>-7.9981474578380584716796875</LongitudeDegrees>
            </Position>
            <AltitudeMeters>442.600006103515625</AltitudeMeters>
            <DistanceMeters>44745.855287772</DistanceMeters>
          </Trackpoint>
          <Trackpoint>
            <Time>2019-07-26T11:43:27.000Z</Time>
            <Position>
              <LatitudeDegrees>42.93068538419902324676513671875</LatitudeDegrees>
              <LongitudeDegrees>-7.9986498691141605377197265625</LongitudeDegrees>
            </Position>
            <AltitudeMeters>442.20001220703125</AltitudeMeters>
            <DistanceMeters>44787.022588957</DistanceMeters>
          </Trackpoint>
          <Trackpoint>
            <Time>2019-07-26T11:43:28.000Z</Time>
            <Position>
              <LatitudeDegrees>42.93067683465778827667236328125</LatitudeDegrees>
              <LongitudeDegrees>-7.99875204451382160186767578125</LongitudeDegrees>
            </Position>
            <AltitudeMeters>442</AltitudeMeters>
            <DistanceMeters>44795.403815876</DistanceMeters>
          </Trackpoint>
          <Trackpoint>
            <Time>2019-07-26T11:43:30.000Z</Time>
            <Position>
              <LatitudeDegrees>42.9306541197001934051513671875</LatitudeDegrees>
              <LongitudeDegrees>-7.99895538948476314544677734375</LongitudeDegrees>
            </Position>
            <AltitudeMeters>441.20001220703125</AltitudeMeters>
            <DistanceMeters>44812.166808412</DistanceMeters>
          </Trackpoint>
          <Trackpoint>
            <Time>2019-07-26T11:43:33.000Z</Time>
            <Position>
              <LatitudeDegrees>42.9306306503713130950927734375</LatitudeDegrees>
              <LongitudeDegrees>-7.9992661066353321075439453125</LongitudeDegrees>
            </Position>
            <AltitudeMeters>440.79998779296875</AltitudeMeters>
            <DistanceMeters>44837.622441493</DistanceMeters>
          </Trackpoint>
          <Trackpoint>
            <Time>2019-07-26T11:43:36.000Z</Time>
            <Position>
              <LatitudeDegrees>42.930590249598026275634765625</LatitudeDegrees>
              <LongitudeDegrees>-7.99957129172980785369873046875</LongitudeDegrees>
            </Position>
            <AltitudeMeters>440.20001220703125</AltitudeMeters>
            <DistanceMeters>44862.896332121</DistanceMeters>
          </Trackpoint>
          <Trackpoint>
            <Time>2019-07-26T11:43:39.000Z</Time>
            <Position>
              <LatitudeDegrees>42.930528558790683746337890625</LatitudeDegrees>
              <LongitudeDegrees>-7.9998595453798770904541015625</LongitudeDegrees>
            </Position>
            <AltitudeMeters>439.79998779296875</AltitudeMeters>
            <DistanceMeters>44887.370092979</DistanceMeters>
          </Trackpoint>
          <Trackpoint>
            <Time>2019-07-26T11:43:41.000Z</Time>
            <Position>
              <LatitudeDegrees>42.93047416023910045623779296875</LatitudeDegrees>
              <LongitudeDegrees>-8.0000422708690166473388671875</LongitudeDegrees>
            </Position>
            <AltitudeMeters>439.600006103515625</AltitudeMeters>
            <DistanceMeters>44903.445063198</DistanceMeters>
          </Trackpoint>
          <Trackpoint>
            <Time>2019-07-26T11:43:49.000Z</Time>
            <Position>
              <LatitudeDegrees>42.9302497766911983489990234375</LatitudeDegrees>
              <LongitudeDegrees>-8.00076940096914768218994140625</LongitudeDegrees>
            </Position>
            <AltitudeMeters>438.79998779296875</AltitudeMeters>
            <DistanceMeters>44967.749227254</DistanceMeters>
          </Trackpoint>
          <Trackpoint>
            <Time>2019-07-26T11:43:53.000Z</Time>
            <Position>
              <LatitudeDegrees>42.93014894239604473114013671875</LatitudeDegrees>
              <LongitudeDegrees>-8.0011550523340702056884765625</LongitudeDegrees>
            </Position>
            <AltitudeMeters>437.79998779296875</AltitudeMeters>
            <DistanceMeters>45001.121061604</DistanceMeters>
          </Trackpoint>
          <Trackpoint>
            <Time>2019-07-26T11:43:56.000Z</Time>
            <Position>
              <LatitudeDegrees>42.9301042668521404266357421875</LatitudeDegrees>
              <LongitudeDegrees>-8.001466691493988037109375</LongitudeDegrees>
            </Position>
            <AltitudeMeters>437.20001220703125</AltitudeMeters>
            <DistanceMeters>45026.999925942</DistanceMeters>
          </Trackpoint>
          <Trackpoint>
            <Time>2019-07-26T11:43:59.000Z</Time>
            <Position>
              <LatitudeDegrees>42.9300663806498050689697265625</LatitudeDegrees>
              <LongitudeDegrees>-8.001791574060916900634765625</LongitudeDegrees>
            </Position>
            <AltitudeMeters>436.79998779296875</AltitudeMeters>
            <DistanceMeters>45053.80975613</DistanceMeters>
          </Trackpoint>
          <Trackpoint>
            <Time>2019-07-26T11:44:02.000Z</Time>
            <Position>
              <LatitudeDegrees>42.9299983195960521697998046875</LatitudeDegrees>
              <LongitudeDegrees>-8.0021176300942897796630859375</LongitudeDegrees>
            </Position>
            <AltitudeMeters>436.600006103515625</AltitudeMeters>
            <DistanceMeters>45081.439988717</DistanceMeters>
          </Trackpoint>
          <Trackpoint>
            <Time>2019-07-26T11:44:05.000Z</Time>
            <Position>
              <LatitudeDegrees>42.9299041070044040679931640625</LatitudeDegrees>
              <LongitudeDegrees>-8.002415187656879425048828125</LongitudeDegrees>
            </Position>
            <AltitudeMeters>435.600006103515625</AltitudeMeters>
            <DistanceMeters>45107.859466169</DistanceMeters>
          </Trackpoint>
          <Trackpoint>
            <Time>2019-07-26T11:44:08.000Z</Time>
            <Position>
              <LatitudeDegrees>42.92979790829122066497802734375</LatitudeDegrees>
              <LongitudeDegrees>-8.00271148793399333953857421875</LongitudeDegrees>
            </Position>
            <AltitudeMeters>435.399993896484375</AltitudeMeters>
            <DistanceMeters>45134.744134267</DistanceMeters>
          </Trackpoint>
          <Trackpoint>
            <Time>2019-07-26T11:44:13.000Z</Time>
            <Position>
              <LatitudeDegrees>42.929544858634471893310546875</LatitudeDegrees>
              <LongitudeDegrees>-8.00314642488956451416015625</LongitudeDegrees>
            </Position>
            <AltitudeMeters>434.600006103515625</AltitudeMeters>
            <DistanceMeters>45180.016660161</DistanceMeters>
          </Trackpoint>
          <Trackpoint>
            <Time>2019-07-26T11:44:14.000Z</Time>
            <Position>
              <LatitudeDegrees>42.92948040179908275604248046875</LatitudeDegrees>
              <LongitudeDegrees>-8.003212474286556243896484375</LongitudeDegrees>
            </Position>
            <AltitudeMeters>434.399993896484375</AltitudeMeters>
            <DistanceMeters>45188.985994085</DistanceMeters>
          </Trackpoint>
          <Trackpoint>
            <Time>2019-07-26T11:44:17.000Z</Time>
            <Position>
              <LatitudeDegrees>42.929270267486572265625</LatitudeDegrees>
              <LongitudeDegrees>-8.003371395170688629150390625</LongitudeDegrees>
            </Position>
            <AltitudeMeters>433.399993896484375</AltitudeMeters>
            <DistanceMeters>45215.720776873</DistanceMeters>
          </Trackpoint>
          <Trackpoint>
            <Time>2019-07-26T11:44:21.000Z</Time>
            <Position>
              <LatitudeDegrees>42.92897698469460010528564453125</LatitudeDegrees>
              <LongitudeDegrees>-8.0035586468875408172607421875</LongitudeDegrees>
            </Position>
            <AltitudeMeters>432.399993896484375</AltitudeMeters>
            <DistanceMeters>45251.75432557</DistanceMeters>
          </Trackpoint>
          <Trackpoint>
            <Time>2019-07-26T11:44:22.000Z</Time>
            <Position>
              <LatitudeDegrees>42.928907833993434906005859375</LatitudeDegrees>
              <LongitudeDegrees>-8.00361120142042636871337890625</LongitudeDegrees>
            </Position>
            <AltitudeMeters>432.20001220703125</AltitudeMeters>
            <DistanceMeters>45260.562128175</DistanceMeters>
          </Trackpoint>
          <Trackpoint>
            <Time>2019-07-26T11:44:24.000Z</Time>
            <Position>
              <LatitudeDegrees>42.92878068052232265472412109375</LatitudeDegrees>
              <LongitudeDegrees>-8.00373173318803310394287109375</LongitudeDegrees>
            </Position>
            <AltitudeMeters>431.79998779296875</AltitudeMeters>
            <DistanceMeters>45277.789504424</DistanceMeters>
          </Trackpoint>
          <Trackpoint>
            <Time>2019-07-26T11:44:30.000Z</Time>
            <Position>
              <LatitudeDegrees>42.9284615814685821533203125</LatitudeDegrees>
              <LongitudeDegrees>-8.00408494658768177032470703125</LongitudeDegrees>
            </Position>
            <AltitudeMeters>431.399993896484375</AltitudeMeters>
            <DistanceMeters>45323.506144643</DistanceMeters>
          </Trackpoint>
          <Trackpoint>
            <Time>2019-07-26T11:44:31.000Z</Time>
            <Position>
              <LatitudeDegrees>42.928414307534694671630859375</LatitudeDegrees>
              <LongitudeDegrees>-8.0041383393108844757080078125</LongitudeDegrees>
            </Position>
            <AltitudeMeters>431.399993896484375</AltitudeMeters>
            <DistanceMeters>45330.333534672</DistanceMeters>
          </Trackpoint>
          <Trackpoint>
            <Time>2019-07-26T11:44:40.000Z</Time>
            <Position>
              <LatitudeDegrees>42.92799429036676883697509765625</LatitudeDegrees>
              <LongitudeDegrees>-8.00459205172955989837646484375</LongitudeDegrees>
            </Position>
            <AltitudeMeters>431.79998779296875</AltitudeMeters>
            <DistanceMeters>45389.937635159</DistanceMeters>
          </Trackpoint>
          <Trackpoint>
            <Time>2019-07-26T11:44:45.000Z</Time>
            <Position>
              <LatitudeDegrees>42.92777267284691333770751953125</LatitudeDegrees>
              <LongitudeDegrees>-8.004822470247745513916015625</LongitudeDegrees>
            </Position>
            <AltitudeMeters>432.399993896484375</AltitudeMeters>
            <DistanceMeters>45420.938780879</DistanceMeters>
          </Trackpoint>
          <Trackpoint>
            <Time>2019-07-26T11:44:46.000Z</Time>
            <Position>
              <LatitudeDegrees>42.92772858403623104095458984375</LatitudeDegrees>
              <LongitudeDegrees>-8.0048565007746219635009765625</LongitudeDegrees>
            </Position>
            <AltitudeMeters>432.600006103515625</AltitudeMeters>
            <DistanceMeters>45426.575875787</DistanceMeters>
          </Trackpoint>
          <Trackpoint>
            <Time>2019-07-26T11:44:50.000Z</Time>
            <Position>
              <LatitudeDegrees>42.927570082247257232666015625</LatitudeDegrees>
              <LongitudeDegrees>-8.00498264841735363006591796875</LongitudeDegrees>
            </Position>
            <AltitudeMeters>433.600006103515625</AltitudeMeters>
            <DistanceMeters>45446.994461179</DistanceMeters>
          </Trackpoint>
          <Trackpoint>
            <Time>2019-07-26T11:44:53.000Z</Time>
            <Position>
              <LatitudeDegrees>42.927460111677646636962890625</LatitudeDegrees>
              <LongitudeDegrees>-8.005070574581623077392578125</LongitudeDegrees>
            </Position>
            <AltitudeMeters>434.79998779296875</AltitudeMeters>
            <DistanceMeters>45461.177655916</DistanceMeters>
          </Trackpoint>
          <Trackpoint>
            <Time>2019-07-26T11:44:57.000Z</Time>
            <Position>
              <LatitudeDegrees>42.92732021771371364593505859375</LatitudeDegrees>
              <LongitudeDegrees>-8.005162440240383148193359375</LongitudeDegrees>
            </Position>
            <AltitudeMeters>435.79998779296875</AltitudeMeters>
            <DistanceMeters>45478.454233898</DistanceMeters>
          </Trackpoint>
          <Trackpoint>
            <Time>2019-07-26T11:44:59.000Z</Time>
            <Position>
              <LatitudeDegrees>42.92726724408566951751708984375</LatitudeDegrees>
              <LongitudeDegrees>-8.00521298311650753021240234375</LongitudeDegrees>
            </Position>
            <AltitudeMeters>436.399993896484375</AltitudeMeters>
            <DistanceMeters>45485.646820912</DistanceMeters>
          </Trackpoint>
          <Trackpoint>
            <Time>2019-07-26T11:45:01.000Z</Time>
            <Position>
              <LatitudeDegrees>42.9272205568850040435791015625</LatitudeDegrees>
              <LongitudeDegrees>-8.00526268780231475830078125</LongitudeDegrees>
            </Position>
            <AltitudeMeters>436.79998779296875</AltitudeMeters>
            <DistanceMeters>45492.235263631</DistanceMeters>
          </Trackpoint>
          <Trackpoint>
            <Time>2019-07-26T11:45:04.000Z</Time>
            <Position>
              <LatitudeDegrees>42.9271566867828369140625</LatitudeDegrees>
              <LongitudeDegrees>-8.00534759648144245147705078125</LongitudeDegrees>
            </Position>
            <AltitudeMeters>437.79998779296875</AltitudeMeters>
            <DistanceMeters>45502.155888771</DistanceMeters>
          </Trackpoint>
          <Trackpoint>
            <Time>2019-07-26T11:45:06.000Z</Time>
            <Position>
              <LatitudeDegrees>42.92711351998150348663330078125</LatitudeDegrees>
              <LongitudeDegrees>-8.00541046075522899627685546875</LongitudeDegrees>
            </Position>
            <AltitudeMeters>438.600006103515625</AltitudeMeters>
            <DistanceMeters>45509.179513734</DistanceMeters>
          </Trackpoint>
          <Trackpoint>
            <Time>2019-07-26T11:45:07.000Z</Time>
            <Position>
              <LatitudeDegrees>42.92709055356681346893310546875</LatitudeDegrees>
              <LongitudeDegrees>-8.005445413291454315185546875</LongitudeDegrees>
            </Position>
            <AltitudeMeters>439</AltitudeMeters>
            <DistanceMeters>45513.007805006</DistanceMeters>
          </Trackpoint>
          <Trackpoint>
            <Time>2019-07-26T11:45:11.000Z</Time>
            <Position>
              <LatitudeDegrees>42.92698846198618412017822265625</LatitudeDegrees>
              <LongitudeDegrees>-8.00557591952383518218994140625</LongitudeDegrees>
            </Position>
            <AltitudeMeters>440</AltitudeMeters>
            <DistanceMeters>45528.571892859</DistanceMeters>
          </Trackpoint>
          <Trackpoint>
            <Time>2019-07-26T11:45:12.000Z</Time>
            <Position>
              <LatitudeDegrees>42.9269634000957012176513671875</LatitudeDegrees>
              <LongitudeDegrees>-8.00561145879328250885009765625</LongitudeDegrees>
            </Position>
            <AltitudeMeters>440.20001220703125</AltitudeMeters>
            <DistanceMeters>45532.592320303</DistanceMeters>
          </Trackpoint>
          <Trackpoint>
            <Time>2019-07-26T11:45:17.000Z</Time>
            <Position>
              <LatitudeDegrees>42.926850579679012298583984375</LatitudeDegrees>
              <LongitudeDegrees>-8.005801141262054443359375</LongitudeDegrees>
            </Position>
            <AltitudeMeters>441.600006103515625</AltitudeMeters>
            <DistanceMeters>45552.508523201</DistanceMeters>
          </Trackpoint>
          <Trackpoint>
            <Time>2019-07-26T11:45:21.000Z</Time>
            <Position>
              <LatitudeDegrees>42.92677287943661212921142578125</LatitudeDegrees>
              <LongitudeDegrees>-8.005955033004283905029296875</LongitudeDegrees>
            </Position>
            <AltitudeMeters>442.600006103515625</AltitudeMeters>
            <DistanceMeters>45567.743057154</DistanceMeters>
          </Trackpoint>
          <Trackpoint>
            <Time>2019-07-26T11:45:22.000Z</Time>
            <Position>
              <LatitudeDegrees>42.926749996840953826904296875</LatitudeDegrees>
              <LongitudeDegrees>-8.00599157810211181640625</LongitudeDegrees>
            </Position>
            <AltitudeMeters>442.600006103515625</AltitudeMeters>
            <DistanceMeters>45571.66110896</DistanceMeters>
          </Trackpoint>
          <Trackpoint>
            <Time>2019-07-26T11:45:26.000Z</Time>
            <Position>
              <LatitudeDegrees>42.92666475288569927215576171875</LatitudeDegrees>
              <LongitudeDegrees>-8.00615007989108562469482421875</LongitudeDegrees>
            </Position>
            <AltitudeMeters>443.399993896484375</AltitudeMeters>
            <DistanceMeters>45587.688822917</DistanceMeters>
          </Trackpoint>
          <Trackpoint>
            <Time>2019-07-26T11:45:28.000Z</Time>
            <Position>
              <LatitudeDegrees>42.9266251064836978912353515625</LatitudeDegrees>
              <LongitudeDegrees>-8.00623356364667415618896484375</LongitudeDegrees>
            </Position>
            <AltitudeMeters>443.79998779296875</AltitudeMeters>
            <DistanceMeters>45595.797892942</DistanceMeters>
          </Trackpoint>
          <Trackpoint>
            <Time>2019-07-26T11:45:31.000Z</Time>
            <Position>
              <LatitudeDegrees>42.926551513373851776123046875</LatitudeDegrees>
              <LongitudeDegrees>-8.00635962747037410736083984375</LongitudeDegrees>
            </Position>
            <AltitudeMeters>444.79998779296875</AltitudeMeters>
            <DistanceMeters>45608.937720247</DistanceMeters>
          </Trackpoint>
          <Trackpoint>
            <Time>2019-07-26T11:45:33.000Z</Time>
            <Position>
              <LatitudeDegrees>42.92650423943996429443359375</LatitudeDegrees>
              <LongitudeDegrees>-8.00644931383430957794189453125</LongitudeDegrees>
            </Position>
            <AltitudeMeters>445.20001220703125</AltitudeMeters>
            <DistanceMeters>45617.944227711</DistanceMeters>
          </Trackpoint>
          <Trackpoint>
            <Time>2019-07-26T11:45:38.000Z</Time>
            <Position>
              <LatitudeDegrees>42.92639535851776599884033203125</LatitudeDegrees>
              <LongitudeDegrees>-8.006683923304080963134765625</LongitudeDegrees>
            </Position>
            <AltitudeMeters>446.20001220703125</AltitudeMeters>
            <DistanceMeters>45640.581537801</DistanceMeters>
          </Trackpoint>
          <Trackpoint>
            <Time>2019-07-26T11:45:39.000Z</Time>
            <Position>
              <LatitudeDegrees>42.92637255974113941192626953125</LatitudeDegrees>
              <LongitudeDegrees>-8.00673580728471279144287109375</LongitudeDegrees>
            </Position>
            <AltitudeMeters>446.399993896484375</AltitudeMeters>
            <DistanceMeters>45645.511950135</DistanceMeters>
          </Trackpoint>
          <Trackpoint>
            <Time>2019-07-26T11:45:43.000Z</Time>
            <Position>
              <LatitudeDegrees>42.92626954615116119384765625</LatitudeDegrees>
              <LongitudeDegrees>-8.0069496296346187591552734375</LongitudeDegrees>
            </Position>
            <AltitudeMeters>447</AltitudeMeters>
            <DistanceMeters>45666.371775005</DistanceMeters>
          </Trackpoint>
          <Trackpoint>
            <Time>2019-07-26T11:45:44.000Z</Time>
            <Position>
              <LatitudeDegrees>42.9262432269752025604248046875</LatitudeDegrees>
              <LongitudeDegrees>-8.0070062913000583648681640625</LongitudeDegrees>
            </Position>
            <AltitudeMeters>447.399993896484375</AltitudeMeters>
            <DistanceMeters>45671.840560353</DistanceMeters>
          </Trackpoint>
          <Trackpoint>
            <Time>2019-07-26T11:45:46.000Z</Time>
            <Position>
              <LatitudeDegrees>42.92619301937520503997802734375</LatitudeDegrees>
              <LongitudeDegrees>-8.0071248114109039306640625</LongitudeDegrees>
            </Position>
            <AltitudeMeters>447.600006103515625</AltitudeMeters>
            <DistanceMeters>45683.00003096</DistanceMeters>
          </Trackpoint>
          <Trackpoint>
            <Time>2019-07-26T11:45:50.000Z</Time>
            <Position>
              <LatitudeDegrees>42.92609578929841518402099609375</LatitudeDegrees>
              <LongitudeDegrees>-8.00738574005663394927978515625</LongitudeDegrees>
            </Position>
            <AltitudeMeters>447.600006103515625</AltitudeMeters>
            <DistanceMeters>45706.860820757</DistanceMeters>
          </Trackpoint>
          <Trackpoint>
            <Time>2019-07-26T11:45:52.000Z</Time>
            <Position>
              <LatitudeDegrees>42.92603527195751667022705078125</LatitudeDegrees>
              <LongitudeDegrees>-8.00751917995512485504150390625</LongitudeDegrees>
            </Position>
            <AltitudeMeters>447.79998779296875</AltitudeMeters>
            <DistanceMeters>45719.653124901</DistanceMeters>
          </Trackpoint>
          <Trackpoint>
            <Time>2019-07-26T11:46:00.000Z</Time>
            <Position>
              <LatitudeDegrees>42.9258338548243045806884765625</LatitudeDegrees>
              <LongitudeDegrees>-8.00807825289666652679443359375</LongitudeDegrees>
            </Position>
            <AltitudeMeters>448.20001220703125</AltitudeMeters>
            <DistanceMeters>45770.433501913</DistanceMeters>
          </Trackpoint>
          <Trackpoint>
            <Time>2019-07-26T11:46:04.000Z</Time>
            <Position>
              <LatitudeDegrees>42.92573939077556133270263671875</LatitudeDegrees>
              <LongitudeDegrees>-8.00834999419748783111572265625</LongitudeDegrees>
            </Position>
            <AltitudeMeters>448.399993896484375</AltitudeMeters>
            <DistanceMeters>45794.949289234</DistanceMeters>
          </Trackpoint>
          <Trackpoint>
            <Time>2019-07-26T11:46:07.000Z</Time>
            <Position>
              <LatitudeDegrees>42.92566244490444660186767578125</LatitudeDegrees>
              <LongitudeDegrees>-8.0085190571844577789306640625</LongitudeDegrees>
            </Position>
            <AltitudeMeters>448.600006103515625</AltitudeMeters>
            <DistanceMeters>45811.172717913</DistanceMeters>
          </Trackpoint>
          <Trackpoint>
            <Time>2019-07-26T11:46:08.000Z</Time>
            <Position>
              <LatitudeDegrees>42.925624810159206390380859375</LatitudeDegrees>
              <LongitudeDegrees>-8.00855702720582485198974609375</LongitudeDegrees>
            </Position>
            <AltitudeMeters>448.79998779296875</AltitudeMeters>
            <DistanceMeters>45816.381014145</DistanceMeters>
          </Trackpoint>
          <Trackpoint>
            <Time>2019-07-26T11:46:11.000Z</Time>
            <Position>
              <LatitudeDegrees>42.925522886216640472412109375</LatitudeDegrees>
              <LongitudeDegrees>-8.008695580065250396728515625</LongitudeDegrees>
            </Position>
            <AltitudeMeters>449</AltitudeMeters>
            <DistanceMeters>45832.387586512</DistanceMeters>
          </Trackpoint>
          <Trackpoint>
            <Time>2019-07-26T11:46:13.000Z</Time>
            <Position>
              <LatitudeDegrees>42.92543579824268817901611328125</LatitudeDegrees>
              <LongitudeDegrees>-8.00877034664154052734375</LongitudeDegrees>
            </Position>
            <AltitudeMeters>449.399993896484375</AltitudeMeters>
            <DistanceMeters>45843.836629689</DistanceMeters>
          </Trackpoint>
          <Trackpoint>
            <Time>2019-07-26T11:46:20.000Z</Time>
            <Position>
              <LatitudeDegrees>42.925105132162570953369140625</LatitudeDegrees>
              <LongitudeDegrees>-8.00902188755571842193603515625</LongitudeDegrees>
            </Position>
            <AltitudeMeters>449.600006103515625</AltitudeMeters>
            <DistanceMeters>45885.964877747</DistanceMeters>
          </Trackpoint>
          <Trackpoint>
            <Time>2019-07-26T11:46:21.000Z</Time>
            <Position>
              <LatitudeDegrees>42.92506028898060321807861328125</LatitudeDegrees>
              <LongitudeDegrees>-8.00905507989227771759033203125</LongitudeDegrees>
            </Position>
            <AltitudeMeters>449.79998779296875</AltitudeMeters>
            <DistanceMeters>45891.64267423</DistanceMeters>
          </Trackpoint>
          <Trackpoint>
            <Time>2019-07-26T11:46:29.000Z</Time>
            <Position>
              <LatitudeDegrees>42.92471093125641345977783203125</LatitudeDegrees>
              <LongitudeDegrees>-8.00930553115904331207275390625</LongitudeDegrees>
            </Position>
            <AltitudeMeters>450.399993896484375</AltitudeMeters>
            <DistanceMeters>45935.559000658</DistanceMeters>
          </Trackpoint>
          <Trackpoint>
            <Time>2019-07-26T11:46:30.000Z</Time>
            <Position>
              <LatitudeDegrees>42.924670614302158355712890625</LatitudeDegrees>
              <LongitudeDegrees>-8.00934844650328159332275390625</LongitudeDegrees>
            </Position>
            <AltitudeMeters>450.399993896484375</AltitudeMeters>
            <DistanceMeters>45941.247919182</DistanceMeters>
          </Trackpoint>
          <Trackpoint>
            <Time>2019-07-26T11:46:35.000Z</Time>
            <Position>
              <LatitudeDegrees>42.92449115775525569915771484375</LatitudeDegrees>
              <LongitudeDegrees>-8.0095952935516834259033203125</LongitudeDegrees>
            </Position>
            <AltitudeMeters>450.79998779296875</AltitudeMeters>
            <DistanceMeters>45969.597431765</DistanceMeters>
          </Trackpoint>
          <Trackpoint>
            <Time>2019-07-26T11:46:38.000Z</Time>
            <Position>
              <LatitudeDegrees>42.92438772507011890411376953125</LatitudeDegrees>
              <LongitudeDegrees>-8.00975664518773555755615234375</LongitudeDegrees>
            </Position>
            <AltitudeMeters>451</AltitudeMeters>
            <DistanceMeters>45987.07511542</DistanceMeters>
          </Trackpoint>
          <Trackpoint>
            <Time>2019-07-26T11:46:45.000Z</Time>
            <Position>
              <LatitudeDegrees>42.92414699681103229522705078125</LatitudeDegrees>
              <LongitudeDegrees>-8.01014992408454418182373046875</LongitudeDegrees>
            </Position>
            <AltitudeMeters>451.20001220703125</AltitudeMeters>
            <DistanceMeters>46028.85143568</DistanceMeters>
          </Trackpoint>
          <Trackpoint>
            <Time>2019-07-26T11:46:49.000Z</Time>
            <Position>
              <LatitudeDegrees>42.92400165461003780364990234375</LatitudeDegrees>
              <LongitudeDegrees>-8.0103848688304424285888671875</LongitudeDegrees>
            </Position>
            <AltitudeMeters>451.20001220703125</AltitudeMeters>
            <DistanceMeters>46053.918322987</DistanceMeters>
          </Trackpoint>
          <Trackpoint>
            <Time>2019-07-26T11:46:57.000Z</Time>
            <Position>
              <LatitudeDegrees>42.92369085364043712615966796875</LatitudeDegrees>
              <LongitudeDegrees>-8.01083237864077091217041015625</LongitudeDegrees>
            </Position>
            <AltitudeMeters>451</AltitudeMeters>
            <DistanceMeters>46104.186915983</DistanceMeters>
          </Trackpoint>
          <Trackpoint>
            <Time>2019-07-26T11:47:05.000Z</Time>
            <Position>
              <LatitudeDegrees>42.923293970525264739990234375</LatitudeDegrees>
              <LongitudeDegrees>-8.01118022762238979339599609375</LongitudeDegrees>
            </Position>
            <AltitudeMeters>451</AltitudeMeters>
            <DistanceMeters>46156.675736917</DistanceMeters>
          </Trackpoint>
          <Trackpoint>
            <Time>2019-07-26T11:47:14.000Z</Time>
            <Position>
              <LatitudeDegrees>42.92282466776669025421142578125</LatitudeDegrees>
              <LongitudeDegrees>-8.01156680099666118621826171875</LongitudeDegrees>
            </Position>
            <AltitudeMeters>451.600006103515625</AltitudeMeters>
            <DistanceMeters>46217.676670525</DistanceMeters>
          </Trackpoint>
          <Trackpoint>
            <Time>2019-07-26T11:47:17.000Z</Time>
            <Position>
              <LatitudeDegrees>42.92267044074833393096923828125</LatitudeDegrees>
              <LongitudeDegrees>-8.01168934442102909088134765625</LongitudeDegrees>
            </Position>
            <AltitudeMeters>451.600006103515625</AltitudeMeters>
            <DistanceMeters>46237.536571807</DistanceMeters>
          </Trackpoint>
          <Trackpoint>
            <Time>2019-07-26T11:47:19.000Z</Time>
            <Position>
              <LatitudeDegrees>42.9225699417293071746826171875</LatitudeDegrees>
              <LongitudeDegrees>-8.01176981069147586822509765625</LongitudeDegrees>
            </Position>
            <AltitudeMeters>451.600006103515625</AltitudeMeters>
            <DistanceMeters>46250.503105395</DistanceMeters>
          </Trackpoint>
          <Trackpoint>
            <Time>2019-07-26T11:47:22.000Z</Time>
            <Position>
              <LatitudeDegrees>42.92242434807121753692626953125</LatitudeDegrees>
              <LongitudeDegrees>-8.01189067773520946502685546875</LongitudeDegrees>
            </Position>
            <AltitudeMeters>451.79998779296875</AltitudeMeters>
            <DistanceMeters>46269.467542761</DistanceMeters>
          </Trackpoint>
          <Trackpoint>
            <Time>2019-07-26T11:47:25.000Z</Time>
            <Position>
              <LatitudeDegrees>42.9222737252712249755859375</LatitudeDegrees>
              <LongitudeDegrees>-8.01199913956224918365478515625</LongitudeDegrees>
            </Position>
            <AltitudeMeters>452.20001220703125</AltitudeMeters>
            <DistanceMeters>46288.420310656</DistanceMeters>
          </Trackpoint>
          <Trackpoint>
            <Time>2019-07-26T11:47:33.000Z</Time>
            <Position>
              <LatitudeDegrees>42.9218732379376888275146484375</LatitudeDegrees>
              <LongitudeDegrees>-8.0123076774179935455322265625</LongitudeDegrees>
            </Position>
            <AltitudeMeters>452.600006103515625</AltitudeMeters>
            <DistanceMeters>46339.599585307</DistanceMeters>
          </Trackpoint>
          <Trackpoint>
            <Time>2019-07-26T11:47:41.000Z</Time>
            <Position>
              <LatitudeDegrees>42.92146034538745880126953125</LatitudeDegrees>
              <LongitudeDegrees>-8.01261152140796184539794921875</LongitudeDegrees>
            </Position>
            <AltitudeMeters>452.600006103515625</AltitudeMeters>
            <DistanceMeters>46391.803425688</DistanceMeters>
          </Trackpoint>
          <Trackpoint>
            <Time>2019-07-26T11:47:50.000Z</Time>
            <Position>
              <LatitudeDegrees>42.92099841870367527008056640625</LatitudeDegrees>
              <LongitudeDegrees>-8.01293975673615932464599609375</LongitudeDegrees>
            </Position>
            <AltitudeMeters>452.79998779296875</AltitudeMeters>
            <DistanceMeters>46449.760841228</DistanceMeters>
          </Trackpoint>
          <Trackpoint>
            <Time>2019-07-26T11:47:52.000Z</Time>
            <Position>
              <LatitudeDegrees>42.920898087322711944580078125</LatitudeDegrees>
              <LongitudeDegrees>-8.01301024854183197021484375</LongitudeDegrees>
            </Position>
            <AltitudeMeters>453.20001220703125</AltitudeMeters>
            <DistanceMeters>46462.319476312</DistanceMeters>
          </Trackpoint>
          <Trackpoint>
            <Time>2019-07-26T11:47:58.000Z</Time>
            <Position>
              <LatitudeDegrees>42.9205978475511074066162109375</LatitudeDegrees>
              <LongitudeDegrees>-8.01322440616786479949951171875</LongitudeDegrees>
            </Position>
            <AltitudeMeters>453.20001220703125</AltitudeMeters>
            <DistanceMeters>46500.020778846</DistanceMeters>
          </Trackpoint>
          <Trackpoint>
            <Time>2019-07-26T11:48:03.000Z</Time>
            <Position>
              <LatitudeDegrees>42.92036709375679492950439453125</LatitudeDegrees>
              <LongitudeDegrees>-8.0133899487555027008056640625</LongitudeDegrees>
            </Position>
            <AltitudeMeters>454</AltitudeMeters>
            <DistanceMeters>46529.032420736</DistanceMeters>
          </Trackpoint>
          <Trackpoint>
            <Time>2019-07-26T11:48:04.000Z</Time>
            <Position>
              <LatitudeDegrees>42.9203239269554615020751953125</LatitudeDegrees>
              <LongitudeDegrees>-8.01342062652111053466796875</LongitudeDegrees>
            </Position>
            <AltitudeMeters>454.20001220703125</AltitudeMeters>
            <DistanceMeters>46534.448109823</DistanceMeters>
          </Trackpoint>
          <Trackpoint>
            <Time>2019-07-26T11:48:10.000Z</Time>
            <Position>
              <LatitudeDegrees>42.9200523532927036285400390625</LatitudeDegrees>
              <LongitudeDegrees>-8.01360092125833034515380859375</LongitudeDegrees>
            </Position>
            <AltitudeMeters>455.20001220703125</AltitudeMeters>
            <DistanceMeters>46568.05775699</DistanceMeters>
          </Trackpoint>
          <Trackpoint>
            <Time>2019-07-26T11:48:11.000Z</Time>
            <Position>
              <LatitudeDegrees>42.92000885121524333953857421875</LatitudeDegrees>
              <LongitudeDegrees>-8.01363344304263591766357421875</LongitudeDegrees>
            </Position>
            <AltitudeMeters>455.20001220703125</AltitudeMeters>
            <DistanceMeters>46573.577492303</DistanceMeters>
          </Trackpoint>
          <Trackpoint>
            <Time>2019-07-26T11:48:19.000Z</Time>
            <Position>
              <LatitudeDegrees>42.91965647600591182708740234375</LatitudeDegrees>
              <LongitudeDegrees>-8.013883642852306365966796875</LongitudeDegrees>
            </Position>
            <AltitudeMeters>456.20001220703125</AltitudeMeters>
            <DistanceMeters>46617.782587963</DistanceMeters>
          </Trackpoint>
          <Trackpoint>
            <Time>2019-07-26T11:48:20.000Z</Time>
            <Position>
              <LatitudeDegrees>42.91961322538554668426513671875</LatitudeDegrees>
              <LongitudeDegrees>-8.01391951739788055419921875</LongitudeDegrees>
            </Position>
            <AltitudeMeters>456.399993896484375</AltitudeMeters>
            <DistanceMeters>46623.414875114</DistanceMeters>
          </Trackpoint>
          <Trackpoint>
            <Time>2019-07-26T11:48:25.000Z</Time>
            <Position>
              <LatitudeDegrees>42.91936688125133514404296875</LatitudeDegrees>
              <LongitudeDegrees>-8.01405522041022777557373046875</LongitudeDegrees>
            </Position>
            <AltitudeMeters>457</AltitudeMeters>
            <DistanceMeters>46652.980555555</DistanceMeters>
          </Trackpoint>
          <Trackpoint>
            <Time>2019-07-26T11:48:26.000Z</Time>
            <Position>
              <LatitudeDegrees>42.9193167574703693389892578125</LatitudeDegrees>
              <LongitudeDegrees>-8.01408489234745502471923828125</LongitudeDegrees>
            </Position>
            <AltitudeMeters>457</AltitudeMeters>
            <DistanceMeters>46659.062265274</DistanceMeters>
          </Trackpoint>
          <Trackpoint>
            <Time>2019-07-26T11:48:32.000Z</Time>
            <Position>
              <LatitudeDegrees>42.91899078525602817535400390625</LatitudeDegrees>
              <LongitudeDegrees>-8.01429578103125095367431640625</LongitudeDegrees>
            </Position>
            <AltitudeMeters>457</AltitudeMeters>
            <DistanceMeters>46699.209562004</DistanceMeters>
          </Trackpoint>
          <Trackpoint>
            <Time>2019-07-26T11:48:34.000Z</Time>
            <Position>
              <LatitudeDegrees>42.9188802279531955718994140625</LatitudeDegrees>
              <LongitudeDegrees>-8.0143729783594608306884765625</LongitudeDegrees>
            </Position>
            <AltitudeMeters>457</AltitudeMeters>
            <DistanceMeters>46713.03031477</DistanceMeters>
          </Trackpoint>
          <Trackpoint>
            <Time>2019-07-26T11:48:38.000Z</Time>
            <Position>
              <LatitudeDegrees>42.91865919716656208038330078125</LatitudeDegrees>
              <LongitudeDegrees>-8.0144987069070339202880859375</LongitudeDegrees>
            </Position>
            <AltitudeMeters>456.20001220703125</AltitudeMeters>
            <DistanceMeters>46739.680522508</DistanceMeters>
          </Trackpoint>
          <Trackpoint>
            <Time>2019-07-26T11:48:41.000Z</Time>
            <Position>
              <LatitudeDegrees>42.91849139146506786346435546875</LatitudeDegrees>
              <LongitudeDegrees>-8.01460138522088527679443359375</LongitudeDegrees>
            </Position>
            <AltitudeMeters>456</AltitudeMeters>
            <DistanceMeters>46760.146814941</DistanceMeters>
          </Trackpoint>
          <Trackpoint>
            <Time>2019-07-26T11:48:43.000Z</Time>
            <Position>
              <LatitudeDegrees>42.91838586330413818359375</LatitudeDegrees>
              <LongitudeDegrees>-8.01467363722622394561767578125</LongitudeDegrees>
            </Position>
            <AltitudeMeters>455.79998779296875</AltitudeMeters>
            <DistanceMeters>46773.285954998</DistanceMeters>
          </Trackpoint>
          <Trackpoint>
            <Time>2019-07-26T11:48:45.000Z</Time>
            <Position>
              <LatitudeDegrees>42.91828251443803310394287109375</LatitudeDegrees>
              <LongitudeDegrees>-8.0147525109350681304931640625</LongitudeDegrees>
            </Position>
            <AltitudeMeters>455.79998779296875</AltitudeMeters>
            <DistanceMeters>46786.463525716</DistanceMeters>
          </Trackpoint>
          <Trackpoint>
            <Time>2019-07-26T11:48:47.000Z</Time>
            <Position>
              <LatitudeDegrees>42.9181882180273532867431640625</LatitudeDegrees>
              <LongitudeDegrees>-8.01482367329299449920654296875</LongitudeDegrees>
            </Position>
            <AltitudeMeters>455.600006103515625</AltitudeMeters>
            <DistanceMeters>46798.455731411</DistanceMeters>
          </Trackpoint>
          <Trackpoint>
            <Time>2019-07-26T11:48:48.000Z</Time>
            <Position>
              <LatitudeDegrees>42.9181426204741001129150390625</LatitudeDegrees>
              <LongitudeDegrees>-8.0148624815046787261962890625</LongitudeDegrees>
            </Position>
            <AltitudeMeters>455.399993896484375</AltitudeMeters>
            <DistanceMeters>46804.436377931</DistanceMeters>
          </Trackpoint>
          <Trackpoint>
            <Time>2019-07-26T11:48:51.000Z</Time>
            <Position>
              <LatitudeDegrees>42.91802116669714450836181640625</LatitudeDegrees>
              <LongitudeDegrees>-8.01498460583388805389404296875</LongitudeDegrees>
            </Position>
            <AltitudeMeters>455.20001220703125</AltitudeMeters>
            <DistanceMeters>46821.223863024</DistanceMeters>
          </Trackpoint>
          <Trackpoint>
            <Time>2019-07-26T11:48:52.000Z</Time>
            <Position>
              <LatitudeDegrees>42.91798420250415802001953125</LatitudeDegrees>
              <LongitudeDegrees>-8.01503137685358524322509765625</LongitudeDegrees>
            </Position>
            <AltitudeMeters>455.20001220703125</AltitudeMeters>
            <DistanceMeters>46826.831244425</DistanceMeters>
          </Trackpoint>
          <Trackpoint>
            <Time>2019-07-26T11:48:53.000Z</Time>
            <Position>
              <LatitudeDegrees>42.9179495014250278472900390625</LatitudeDegrees>
              <LongitudeDegrees>-8.01507730968296527862548828125</LongitudeDegrees>
            </Position>
            <AltitudeMeters>455.20001220703125</AltitudeMeters>
            <DistanceMeters>46832.210125808</DistanceMeters>
          </Trackpoint>
          <Trackpoint>
            <Time>2019-07-26T11:48:59.000Z</Time>
            <Position>
              <LatitudeDegrees>42.91770785115659236907958984375</LatitudeDegrees>
              <LongitudeDegrees>-8.01535994745790958404541015625</LongitudeDegrees>
            </Position>
            <AltitudeMeters>454.399993896484375</AltitudeMeters>
            <DistanceMeters>46867.624122998</DistanceMeters>
          </Trackpoint>
          <Trackpoint>
            <Time>2019-07-26T11:49:00.000Z</Time>
            <Position>
              <LatitudeDegrees>42.91766703128814697265625</LatitudeDegrees>
              <LongitudeDegrees>-8.0154086463153362274169921875</LongitudeDegrees>
            </Position>
            <AltitudeMeters>454.399993896484375</AltitudeMeters>
            <DistanceMeters>46873.658132297</DistanceMeters>
          </Trackpoint>
          <Trackpoint>
            <Time>2019-07-26T11:49:06.000Z</Time>
            <Position>
              <LatitudeDegrees>42.91740995831787586212158203125</LatitudeDegrees>
              <LongitudeDegrees>-8.01569606177508831024169921875</LongitudeDegrees>
            </Position>
            <AltitudeMeters>454.399993896484375</AltitudeMeters>
            <DistanceMeters>46910.638300453</DistanceMeters>
          </Trackpoint>
          <Trackpoint>
            <Time>2019-07-26T11:49:14.000Z</Time>
            <Position>
              <LatitudeDegrees>42.91709664277732372283935546875</LatitudeDegrees>
              <LongitudeDegrees>-8.01602932624518871307373046875</LongitudeDegrees>
            </Position>
            <AltitudeMeters>454.600006103515625</AltitudeMeters>
            <DistanceMeters>46954.842578998</DistanceMeters>
          </Trackpoint>
          <Trackpoint>
            <Time>2019-07-26T11:49:16.000Z</Time>
            <Position>
              <LatitudeDegrees>42.91701433248817920684814453125</LatitudeDegrees>
              <LongitudeDegrees>-8.0161190964281558990478515625</LongitudeDegrees>
            </Position>
            <AltitudeMeters>454.600006103515625</AltitudeMeters>
            <DistanceMeters>46966.567504746</DistanceMeters>
          </Trackpoint>
          <Trackpoint>
            <Time>2019-07-26T11:49:19.000Z</Time>
            <Position>
              <LatitudeDegrees>42.91689648292958736419677734375</LatitudeDegrees>
              <LongitudeDegrees>-8.01624541170895099639892578125</LongitudeDegrees>
            </Position>
            <AltitudeMeters>454.79998779296875</AltitudeMeters>
            <DistanceMeters>46983.243000961</DistanceMeters>
          </Trackpoint>
          <Trackpoint>
            <Time>2019-07-26T11:49:25.000Z</Time>
            <Position>
              <LatitudeDegrees>42.91666061617434024810791015625</LatitudeDegrees>
              <LongitudeDegrees>-8.01652100868523120880126953125</LongitudeDegrees>
            </Position>
            <AltitudeMeters>454.79998779296875</AltitudeMeters>
            <DistanceMeters>47017.794980881</DistanceMeters>
          </Trackpoint>
          <Trackpoint>
            <Time>2019-07-26T11:49:28.000Z</Time>
            <Position>
              <LatitudeDegrees>42.91655031032860279083251953125</LatitudeDegrees>
              <LongitudeDegrees>-8.016653694212436676025390625</LongitudeDegrees>
            </Position>
            <AltitudeMeters>454.600006103515625</AltitudeMeters>
            <DistanceMeters>47034.156141784</DistanceMeters>
          </Trackpoint>
          <Trackpoint>
            <Time>2019-07-26T11:49:30.000Z</Time>
            <Position>
              <LatitudeDegrees>42.9165098257362842559814453125</LatitudeDegrees>
              <LongitudeDegrees>-8.01670457236468791961669921875</LongitudeDegrees>
            </Position>
            <AltitudeMeters>454.600006103515625</AltitudeMeters>
            <DistanceMeters>47040.280021884</DistanceMeters>
          </Trackpoint>
          <Trackpoint>
            <Time>2019-07-26T11:49:35.000Z</Time>
            <Position>
              <LatitudeDegrees>42.916417457163333892822265625</LatitudeDegrees>
              <LongitudeDegrees>-8.01672938279807567596435546875</LongitudeDegrees>
            </Position>
            <AltitudeMeters>454.20001220703125</AltitudeMeters>
            <DistanceMeters>47050.757983012</DistanceMeters>
          </Trackpoint>
          <Trackpoint>
            <Time>2019-07-26T11:49:36.000Z</Time>
            <Position>
              <LatitudeDegrees>42.916398681700229644775390625</LatitudeDegrees>
              <LongitudeDegrees>-8.01672904752194881439208984375</LongitudeDegrees>
            </Position>
            <AltitudeMeters>454.20001220703125</AltitudeMeters>
            <DistanceMeters>47052.848570728</DistanceMeters>
          </Trackpoint>
          <Trackpoint>
            <Time>2019-07-26T11:49:40.000Z</Time>
            <Position>
              <LatitudeDegrees>42.9163686744868755340576171875</LatitudeDegrees>
              <LongitudeDegrees>-8.01672318018972873687744140625</LongitudeDegrees>
            </Position>
            <AltitudeMeters>453.79998779296875</AltitudeMeters>
            <DistanceMeters>47056.221684471</DistanceMeters>
          </Trackpoint>
          <Trackpoint>
            <Time>2019-07-26T11:49:45.000Z</Time>
            <Position>
              <LatitudeDegrees>42.91631779633462429046630859375</LatitudeDegrees>
              <LongitudeDegrees>-8.0166880600154399871826171875</LongitudeDegrees>
            </Position>
            <AltitudeMeters>453.600006103515625</AltitudeMeters>
            <DistanceMeters>47062.566452456</DistanceMeters>
          </Trackpoint>
          <Trackpoint>
            <Time>2019-07-26T11:49:48.000Z</Time>
            <Position>
              <LatitudeDegrees>42.91622978635132312774658203125</LatitudeDegrees>
              <LongitudeDegrees>-8.01660885103046894073486328125</LongitudeDegrees>
            </Position>
            <AltitudeMeters>453.600006103515625</AltitudeMeters>
            <DistanceMeters>47074.298307602</DistanceMeters>
          </Trackpoint>
          <Trackpoint>
            <Time>2019-07-26T11:49:50.000Z</Time>
            <Position>
              <LatitudeDegrees>42.91615284048020839691162109375</LatitudeDegrees>
              <LongitudeDegrees>-8.01653198897838592529296875</LongitudeDegrees>
            </Position>
            <AltitudeMeters>453.600006103515625</AltitudeMeters>
            <DistanceMeters>47084.90943493</DistanceMeters>
          </Trackpoint>
          <Trackpoint>
            <Time>2019-07-26T11:49:56.000Z</Time>
            <Position>
              <LatitudeDegrees>42.91592971421778202056884765625</LatitudeDegrees>
              <LongitudeDegrees>-8.0162763409316539764404296875</LongitudeDegrees>
            </Position>
            <AltitudeMeters>453.600006103515625</AltitudeMeters>
            <DistanceMeters>47117.328310714</DistanceMeters>
          </Trackpoint>
          <Trackpoint>
            <Time>2019-07-26T11:50:02.000Z</Time>
            <Position>
              <LatitudeDegrees>42.9157313145697116851806640625</LatitudeDegrees>
              <LongitudeDegrees>-8.0160661228001117706298828125</LongitudeDegrees>
            </Position>
            <AltitudeMeters>453.399993896484375</AltitudeMeters>
            <DistanceMeters>47145.279090553</DistanceMeters>
          </Trackpoint>
          <Trackpoint>
            <Time>2019-07-26T11:50:06.000Z</Time>
            <Position>
              <LatitudeDegrees>42.91566417552530765533447265625</LatitudeDegrees>
              <LongitudeDegrees>-8.0159970559179782867431640625</LongitudeDegrees>
            </Position>
            <AltitudeMeters>453.20001220703125</AltitudeMeters>
            <DistanceMeters>47154.635241527</DistanceMeters>
          </Trackpoint>
          <Trackpoint>
            <Time>2019-07-26T11:50:09.000Z</Time>
            <Position>
              <LatitudeDegrees>42.91565327905118465423583984375</LatitudeDegrees>
              <LongitudeDegrees>-8.0159600079059600830078125</LongitudeDegrees>
            </Position>
            <AltitudeMeters>453</AltitudeMeters>
            <DistanceMeters>47157.888432206</DistanceMeters>
          </Trackpoint>
          <Trackpoint>
            <Time>2019-07-26T11:50:10.000Z</Time>
            <Position>
              <LatitudeDegrees>42.9156531952321529388427734375</LatitudeDegrees>
              <LongitudeDegrees>-8.015955649316310882568359375</LongitudeDegrees>
            </Position>
            <AltitudeMeters>453</AltitudeMeters>
            <DistanceMeters>47158.231055897</DistanceMeters>
          </Trackpoint>
          <Trackpoint>
            <Time>2019-07-26T11:50:30.000Z</Time>
            <Position>
              <LatitudeDegrees>42.91576928459107875823974609375</LatitudeDegrees>
              <LongitudeDegrees>-8.0158518813550472259521484375</LongitudeDegrees>
            </Position>
            <AltitudeMeters>452.399993896484375</AltitudeMeters>
            <DistanceMeters>47173.673993405</DistanceMeters>
          </Trackpoint>
          <Trackpoint>
            <Time>2019-07-26T11:50:34.000Z</Time>
            <Position>
              <LatitudeDegrees>42.91587875224649906158447265625</LatitudeDegrees>
              <LongitudeDegrees>-8.01589219830930233001708984375</LongitudeDegrees>
            </Position>
            <AltitudeMeters>452.399993896484375</AltitudeMeters>
            <DistanceMeters>47186.292882739</DistanceMeters>
          </Trackpoint>
          <Trackpoint>
            <Time>2019-07-26T11:50:37.000Z</Time>
            <Position>
              <LatitudeDegrees>42.9159656725823879241943359375</LatitudeDegrees>
              <LongitudeDegrees>-8.01594450138509273529052734375</LongitudeDegrees>
            </Position>
            <AltitudeMeters>452.399993896484375</AltitudeMeters>
            <DistanceMeters>47196.865218631</DistanceMeters>
          </Trackpoint>
          <Trackpoint>
            <Time>2019-07-26T11:50:40.000Z</Time>
            <Position>
              <LatitudeDegrees>42.9160555265843868255615234375</LatitudeDegrees>
              <LongitudeDegrees>-8.0160154961049556732177734375</LongitudeDegrees>
            </Position>
            <AltitudeMeters>452.399993896484375</AltitudeMeters>
            <DistanceMeters>47208.419857536</DistanceMeters>
          </Trackpoint>
          <Trackpoint>
            <Time>2019-07-26T11:50:45.000Z</Time>
            <Position>
              <LatitudeDegrees>42.9161775670945644378662109375</LatitudeDegrees>
              <LongitudeDegrees>-8.01629905588924884796142578125</LongitudeDegrees>
            </Position>
            <AltitudeMeters>452.600006103515625</AltitudeMeters>
            <DistanceMeters>47235.22918249</DistanceMeters>
          </Trackpoint>
          <Trackpoint>
            <Time>2019-07-26T11:50:50.000Z</Time>
            <Position>
              <LatitudeDegrees>42.91622810997068881988525390625</LatitudeDegrees>
              <LongitudeDegrees>-8.01642528735101222991943359375</LongitudeDegrees>
            </Position>
            <AltitudeMeters>452.79998779296875</AltitudeMeters>
            <DistanceMeters>47246.956033481</DistanceMeters>
          </Trackpoint>
          <Trackpoint>
            <Time>2019-07-26T11:50:52.000Z</Time>
            <Position>
              <LatitudeDegrees>42.91626716963946819305419921875</LatitudeDegrees>
              <LongitudeDegrees>-8.0164952762424945831298828125</LongitudeDegrees>
            </Position>
            <AltitudeMeters>453</AltitudeMeters>
            <DistanceMeters>47254.128504848</DistanceMeters>
          </Trackpoint>
          <Trackpoint>
            <Time>2019-07-26T11:50:54.000Z</Time>
            <Position>
              <LatitudeDegrees>42.91624353267252445220947265625</LatitudeDegrees>
              <LongitudeDegrees>-8.01660130731761455535888671875</LongitudeDegrees>
            </Position>
            <AltitudeMeters>453</AltitudeMeters>
            <DistanceMeters>47263.162542201</DistanceMeters>
          </Trackpoint>
          <Trackpoint>
            <Time>2019-07-26T11:50:57.000Z</Time>
            <Position>
              <LatitudeDegrees>42.9161393456161022186279296875</LatitudeDegrees>
              <LongitudeDegrees>-8.01667221821844577789306640625</LongitudeDegrees>
            </Position>
            <AltitudeMeters>453</AltitudeMeters>
            <DistanceMeters>47276.119670789</DistanceMeters>
          </Trackpoint>
          <Trackpoint>
            <Time>2019-07-26T11:50:59.000Z</Time>
            <Position>
              <LatitudeDegrees>42.9160568676888942718505859375</LatitudeDegrees>
              <LongitudeDegrees>-8.016657717525959014892578125</LongitudeDegrees>
            </Position>
            <AltitudeMeters>453.20001220703125</AltitudeMeters>
            <DistanceMeters>47285.37490202</DistanceMeters>
          </Trackpoint>
          <Trackpoint>
            <Time>2019-07-26T11:51:00.000Z</Time>
            <Position>
              <LatitudeDegrees>42.9160149581730365753173828125</LatitudeDegrees>
              <LongitudeDegrees>-8.0166538618505001068115234375</LongitudeDegrees>
            </Position>
            <AltitudeMeters>453.20001220703125</AltitudeMeters>
            <DistanceMeters>47290.050564013</DistanceMeters>
          </Trackpoint>
          <Trackpoint>
            <Time>2019-07-26T11:51:03.000Z</Time>
            <Position>
              <LatitudeDegrees>42.915889061987400054931640625</LatitudeDegrees>
              <LongitudeDegrees>-8.016642294824123382568359375</LongitudeDegrees>
            </Position>
            <AltitudeMeters>453.20001220703125</AltitudeMeters>
            <DistanceMeters>47304.095242359</DistanceMeters>
          </Trackpoint>
          <Trackpoint>
            <Time>2019-07-26T11:51:06.000Z</Time>
            <Position>
              <LatitudeDegrees>42.9157693684101104736328125</LatitudeDegrees>
              <LongitudeDegrees>-8.01665981300175189971923828125</LongitudeDegrees>
            </Position>
            <AltitudeMeters>453.20001220703125</AltitudeMeters>
            <DistanceMeters>47317.493672107</DistanceMeters>
          </Trackpoint>
          <Trackpoint>
            <Time>2019-07-26T11:51:09.000Z</Time>
            <Position>
              <LatitudeDegrees>42.91564892046153545379638671875</LatitudeDegrees>
              <LongitudeDegrees>-8.0166317336261272430419921875</LongitudeDegrees>
            </Position>
            <AltitudeMeters>453.20001220703125</AltitudeMeters>
            <DistanceMeters>47331.094116433</DistanceMeters>
          </Trackpoint>
          <Trackpoint>
            <Time>2019-07-26T11:51:11.000Z</Time>
            <Position>
              <LatitudeDegrees>42.91559259407222270965576171875</LatitudeDegrees>
              <LongitudeDegrees>-8.0166142992675304412841796875</LongitudeDegrees>
            </Position>
            <AltitudeMeters>453.20001220703125</AltitudeMeters>
            <DistanceMeters>47337.523009019</DistanceMeters>
          </Trackpoint>
          <Trackpoint>
            <Time>2019-07-26T11:51:15.000Z</Time>
            <Position>
              <LatitudeDegrees>42.91545781306922435760498046875</LatitudeDegrees>
              <LongitudeDegrees>-8.01657465286552906036376953125</LongitudeDegrees>
            </Position>
            <AltitudeMeters>453.20001220703125</AltitudeMeters>
            <DistanceMeters>47352.868572988</DistanceMeters>
          </Trackpoint>
          <Trackpoint>
            <Time>2019-07-26T11:51:19.000Z</Time>
            <Position>
              <LatitudeDegrees>42.915316410362720489501953125</LatitudeDegrees>
              <LongitudeDegrees>-8.01657029427587985992431640625</LongitudeDegrees>
            </Position>
            <AltitudeMeters>453.20001220703125</AltitudeMeters>
            <DistanceMeters>47368.610917728</DistanceMeters>
          </Trackpoint>
          <Trackpoint>
            <Time>2019-07-26T11:51:21.000Z</Time>
            <Position>
              <LatitudeDegrees>42.91526737622916698455810546875</LatitudeDegrees>
              <LongitudeDegrees>-8.01655738614499568939208984375</LongitudeDegrees>
            </Position>
            <AltitudeMeters>453.20001220703125</AltitudeMeters>
            <DistanceMeters>47374.168152782</DistanceMeters>
          </Trackpoint>
          <Trackpoint>
            <Time>2019-07-26T11:51:22.000Z</Time>
            <Position>
              <LatitudeDegrees>42.91524306870996952056884765625</LatitudeDegrees>
              <LongitudeDegrees>-8.0165495909750461578369140625</LongitudeDegrees>
            </Position>
            <AltitudeMeters>453.20001220703125</AltitudeMeters>
            <DistanceMeters>47376.948394756</DistanceMeters>
          </Trackpoint>
          <Trackpoint>
            <Time>2019-07-26T11:51:24.000Z</Time>
            <Position>
              <LatitudeDegrees>42.91521758772432804107666015625</LatitudeDegrees>
              <LongitudeDegrees>-8.0165090225636959075927734375</LongitudeDegrees>
            </Position>
            <AltitudeMeters>453.20001220703125</AltitudeMeters>
            <DistanceMeters>47381.304102575</DistanceMeters>
          </Trackpoint>
          <Trackpoint>
            <Time>2019-07-26T11:51:28.000Z</Time>
            <Position>
              <LatitudeDegrees>42.915178947150707244873046875</LatitudeDegrees>
              <LongitudeDegrees>-8.01643920131027698516845703125</LongitudeDegrees>
            </Position>
            <AltitudeMeters>453.20001220703125</AltitudeMeters>
            <DistanceMeters>47388.436805477</DistanceMeters>
          </Trackpoint>
          <Trackpoint>
            <Time>2019-07-26T11:51:29.000Z</Time>
            <Position>
              <LatitudeDegrees>42.91516520082950592041015625</LatitudeDegrees>
              <LongitudeDegrees>-8.016433417797088623046875</LongitudeDegrees>
            </Position>
            <AltitudeMeters>453.20001220703125</AltitudeMeters>
            <DistanceMeters>47390.038224133</DistanceMeters>
          </Trackpoint>
          <Trackpoint>
            <Time>2019-07-26T11:51:31.000Z</Time>
            <Position>
              <LatitudeDegrees>42.91513569653034210205078125</LatitudeDegrees>
              <LongitudeDegrees>-8.01641263067722320556640625</LongitudeDegrees>
            </Position>
            <AltitudeMeters>453.20001220703125</AltitudeMeters>
            <DistanceMeters>47393.733285104</DistanceMeters>
          </Trackpoint>
          <Trackpoint>
            <Time>2019-07-26T11:51:33.000Z</Time>
            <Position>
              <LatitudeDegrees>42.91512186639010906219482421875</LatitudeDegrees>
              <LongitudeDegrees>-8.0163672007620334625244140625</LongitudeDegrees>
            </Position>
            <AltitudeMeters>453.20001220703125</AltitudeMeters>
            <DistanceMeters>47397.743592592</DistanceMeters>
          </Trackpoint>
          <Trackpoint>
            <Time>2019-07-26T11:51:37.000Z</Time>
            <Position>
              <LatitudeDegrees>42.915132679045200347900390625</LatitudeDegrees>
              <LongitudeDegrees>-8.01636460237205028533935546875</LongitudeDegrees>
            </Position>
            <AltitudeMeters>453.20001220703125</AltitudeMeters>
            <DistanceMeters>47398.967926162</DistanceMeters>
          </Trackpoint>
          <Trackpoint>
            <Time>2019-07-26T11:52:22.000Z</Time>
            <Position>
              <LatitudeDegrees>42.91517551057040691375732421875</LatitudeDegrees>
              <LongitudeDegrees>-8.0162947811186313629150390625</LongitudeDegrees>
            </Position>
            <AltitudeMeters>453.399993896484375</AltitudeMeters>
            <DistanceMeters>47406.392182799</DistanceMeters>
          </Trackpoint>
          <Trackpoint>
            <Time>2019-07-26T11:52:24.000Z</Time>
            <Position>
              <LatitudeDegrees>42.91518758051097393035888671875</LatitudeDegrees>
              <LongitudeDegrees>-8.01625094376504421234130859375</LongitudeDegrees>
            </Position>
            <AltitudeMeters>453.399993896484375</AltitudeMeters>
            <DistanceMeters>47410.209844829</DistanceMeters>
          </Trackpoint>
          <Trackpoint>
            <Time>2019-07-26T11:52:25.000Z</Time>
            <Position>
              <LatitudeDegrees>42.91518372483551502227783203125</LatitudeDegrees>
              <LongitudeDegrees>-8.01623116247355937957763671875</LongitudeDegrees>
            </Position>
            <AltitudeMeters>453.399993896484375</AltitudeMeters>
            <DistanceMeters>47411.877556898</DistanceMeters>
          </Trackpoint>
          <Trackpoint>
            <Time>2019-07-26T11:52:26.000Z</Time>
            <Position>
              <LatitudeDegrees>42.9151737503707408905029296875</LatitudeDegrees>
              <LongitudeDegrees>-8.01621305756270885467529296875</LongitudeDegrees>
            </Position>
            <AltitudeMeters>453.399993896484375</AltitudeMeters>
            <DistanceMeters>47413.720193255</DistanceMeters>
          </Trackpoint>
          <Trackpoint>
            <Time>2019-07-26T11:52:28.000Z</Time>
            <Position>
              <LatitudeDegrees>42.91514684446156024932861328125</LatitudeDegrees>
              <LongitudeDegrees>-8.016186319291591644287109375</LongitudeDegrees>
            </Position>
            <AltitudeMeters>453.399993896484375</AltitudeMeters>
            <DistanceMeters>47417.423797731</DistanceMeters>
          </Trackpoint>
          <Trackpoint>
            <Time>2019-07-26T11:52:30.000Z</Time>
            <Position>
              <LatitudeDegrees>42.91512002237141132354736328125</LatitudeDegrees>
              <LongitudeDegrees>-8.01615606062114238739013671875</LongitudeDegrees>
            </Position>
            <AltitudeMeters>453.399993896484375</AltitudeMeters>
            <DistanceMeters>47421.296646421</DistanceMeters>
          </Trackpoint>
          <Trackpoint>
            <Time>2019-07-26T11:52:38.000Z</Time>
            <Position>
              <LatitudeDegrees>42.9150610975921154022216796875</LatitudeDegrees>
              <LongitudeDegrees>-8.01604558713734149932861328125</LongitudeDegrees>
            </Position>
            <AltitudeMeters>453.399993896484375</AltitudeMeters>
            <DistanceMeters>47432.437084951</DistanceMeters>
          </Trackpoint>
          <Trackpoint>
            <Time>2019-07-26T11:52:43.000Z</Time>
            <Position>
              <LatitudeDegrees>42.91503855027258396148681640625</LatitudeDegrees>
              <LongitudeDegrees>-8.01595799624919891357421875</LongitudeDegrees>
            </Position>
            <AltitudeMeters>453.399993896484375</AltitudeMeters>
            <DistanceMeters>47440.004696517</DistanceMeters>
          </Trackpoint>
          <Trackpoint>
            <Time>2019-07-26T11:52:46.000Z</Time>
            <Position>
              <LatitudeDegrees>42.91502480395138263702392578125</LatitudeDegrees>
              <LongitudeDegrees>-8.0158991552889347076416015625</LongitudeDegrees>
            </Position>
            <AltitudeMeters>453.399993896484375</AltitudeMeters>
            <DistanceMeters>47445.038422225</DistanceMeters>
          </Trackpoint>
          <Trackpoint>
            <Time>2019-07-26T11:52:48.000Z</Time>
            <Position>
              <LatitudeDegrees>42.9150242172181606292724609375</LatitudeDegrees>
              <LongitudeDegrees>-8.01585917361080646514892578125</LongitudeDegrees>
            </Position>
            <AltitudeMeters>453.399993896484375</AltitudeMeters>
            <DistanceMeters>47448.298544918</DistanceMeters>
          </Trackpoint>
          <Trackpoint>
            <Time>2019-07-26T11:52:50.000Z</Time>
            <Position>
              <LatitudeDegrees>42.9150024242699146270751953125</LatitudeDegrees>
              <LongitudeDegrees>-8.01584375090897083282470703125</LongitudeDegrees>
            </Position>
            <AltitudeMeters>453.399993896484375</AltitudeMeters>
            <DistanceMeters>47451.03128589</DistanceMeters>
          </Trackpoint>
          <Trackpoint>
            <Time>2019-07-26T11:52:51.000Z</Time>
            <Position>
              <LatitudeDegrees>42.91497585363686084747314453125</LatitudeDegrees>
              <LongitudeDegrees>-8.0158371292054653167724609375</LongitudeDegrees>
            </Position>
            <AltitudeMeters>453.399993896484375</AltitudeMeters>
            <DistanceMeters>47454.037796578</DistanceMeters>
          </Trackpoint>
          <Trackpoint>
            <Time>2019-07-26T11:52:53.000Z</Time>
            <Position>
              <LatitudeDegrees>42.91492539457976818084716796875</LatitudeDegrees>
              <LongitudeDegrees>-8.01581994630396366119384765625</LongitudeDegrees>
            </Position>
            <AltitudeMeters>453.399993896484375</AltitudeMeters>
            <DistanceMeters>47459.825851831</DistanceMeters>
          </Trackpoint>
          <Trackpoint>
            <Time>2019-07-26T11:52:55.000Z</Time>
            <Position>
              <LatitudeDegrees>42.9148874245584011077880859375</LatitudeDegrees>
              <LongitudeDegrees>-8.01578138954937458038330078125</LongitudeDegrees>
            </Position>
            <AltitudeMeters>453.399993896484375</AltitudeMeters>
            <DistanceMeters>47465.092766947</DistanceMeters>
          </Trackpoint>
          <Trackpoint>
            <Time>2019-07-26T11:52:57.000Z</Time>
            <Position>
              <LatitudeDegrees>42.9148626141250133514404296875</LatitudeDegrees>
              <LongitudeDegrees>-8.015741743147373199462890625</LongitudeDegrees>
            </Position>
            <AltitudeMeters>453.399993896484375</AltitudeMeters>
            <DistanceMeters>47469.343553105</DistanceMeters>
          </Trackpoint>
          <Trackpoint>
            <Time>2019-07-26T11:52:59.000Z</Time>
            <Position>
              <LatitudeDegrees>42.91484107263386249542236328125</LatitudeDegrees>
              <LongitudeDegrees>-8.0156971514225006103515625</LongitudeDegrees>
            </Position>
            <AltitudeMeters>453.399993896484375</AltitudeMeters>
            <DistanceMeters>47473.698224222</DistanceMeters>
          </Trackpoint>
          <Trackpoint>
            <Time>2019-07-26T11:53:02.000Z</Time>
            <Position>
              <LatitudeDegrees>42.91480368934571743011474609375</LatitudeDegrees>
              <LongitudeDegrees>-8.01564023829996585845947265625</LongitudeDegrees>
            </Position>
            <AltitudeMeters>453.600006103515625</AltitudeMeters>
            <DistanceMeters>47479.930991573</DistanceMeters>
          </Trackpoint>
          <Trackpoint>
            <Time>2019-07-26T11:53:06.000Z</Time>
            <Position>
              <LatitudeDegrees>42.91481257416307926177978515625</LatitudeDegrees>
              <LongitudeDegrees>-8.015639483928680419921875</LongitudeDegrees>
            </Position>
            <AltitudeMeters>453.600006103515625</AltitudeMeters>
            <DistanceMeters>47480.923099598</DistanceMeters>
          </Trackpoint>
          <Trackpoint>
            <Time>2019-07-26T11:53:09.000Z</Time>
            <Position>
              <LatitudeDegrees>42.91484962217509746551513671875</LatitudeDegrees>
              <LongitudeDegrees>-8.01567058078944683074951171875</LongitudeDegrees>
            </Position>
            <AltitudeMeters>453.600006103515625</AltitudeMeters>
            <DistanceMeters>47485.762936196</DistanceMeters>
          </Trackpoint>
          <Trackpoint>
            <Time>2019-07-26T11:53:12.000Z</Time>
            <Position>
              <LatitudeDegrees>42.9148964770138263702392578125</LatitudeDegrees>
              <LongitudeDegrees>-8.0157060362398624420166015625</LongitudeDegrees>
            </Position>
            <AltitudeMeters>453.600006103515625</AltitudeMeters>
            <DistanceMeters>47491.724679304</DistanceMeters>
          </Trackpoint>
          <Trackpoint>
            <Time>2019-07-26T11:53:14.000Z</Time>
            <Position>
              <LatitudeDegrees>42.91492941789329051971435546875</LatitudeDegrees>
              <LongitudeDegrees>-8.01572707481682300567626953125</LongitudeDegrees>
            </Position>
            <AltitudeMeters>453.600006103515625</AltitudeMeters>
            <DistanceMeters>47495.771969591</DistanceMeters>
          </Trackpoint>
          <Trackpoint>
            <Time>2019-07-26T11:53:17.000Z</Time>
            <Position>
              <LatitudeDegrees>42.914960682392120361328125</LatitudeDegrees>
              <LongitudeDegrees>-8.01573897711932659149169921875</LongitudeDegrees>
            </Position>
            <AltitudeMeters>453.600006103515625</AltitudeMeters>
            <DistanceMeters>47499.384234872</DistanceMeters>
          </Trackpoint>
          <Trackpoint>
            <Time>2019-07-26T11:53:18.000Z</Time>
            <Position>
              <LatitudeDegrees>42.91497115977108478546142578125</LatitudeDegrees>
              <LongitudeDegrees>-8.0157492868602275848388671875</LongitudeDegrees>
            </Position>
            <AltitudeMeters>453.600006103515625</AltitudeMeters>
            <DistanceMeters>47500.819106793</DistanceMeters>
          </Trackpoint>
          <Trackpoint>
            <Time>2019-07-26T11:53:20.000Z</Time>
            <Position>
              <LatitudeDegrees>42.91497417725622653961181640625</LatitudeDegrees>
              <LongitudeDegrees>-8.01578843034803867340087890625</LongitudeDegrees>
            </Position>
            <AltitudeMeters>453.600006103515625</AltitudeMeters>
            <DistanceMeters>47504.027577947</DistanceMeters>
          </Trackpoint>
          <Trackpoint>
            <Time>2019-07-26T11:53:22.000Z</Time>
            <Position>
              <LatitudeDegrees>42.91498037986457347869873046875</LatitudeDegrees>
              <LongitudeDegrees>-8.0158230476081371307373046875</LongitudeDegrees>
            </Position>
            <AltitudeMeters>453.399993896484375</AltitudeMeters>
            <DistanceMeters>47506.931728666</DistanceMeters>
          </Trackpoint>
          <Trackpoint>
            <Time>2019-07-26T11:53:24.000Z</Time>
            <Position>
              <LatitudeDegrees>42.91498809121549129486083984375</LatitudeDegrees>
              <LongitudeDegrees>-8.0158634483814239501953125</LongitudeDegrees>
            </Position>
            <AltitudeMeters>453.399993896484375</AltitudeMeters>
            <DistanceMeters>47510.334162795</DistanceMeters>
          </Trackpoint>
          <Trackpoint>
            <Time>2019-07-26T11:53:26.000Z</Time>
            <Position>
              <LatitudeDegrees>42.9149960540235042572021484375</LatitudeDegrees>
              <LongitudeDegrees>-8.01591248251497745513916015625</LongitudeDegrees>
            </Position>
            <AltitudeMeters>453.399993896484375</AltitudeMeters>
            <DistanceMeters>47514.428038939</DistanceMeters>
          </Trackpoint>
          <Trackpoint>
            <Time>2019-07-26T11:53:27.000Z</Time>
            <Position>
              <LatitudeDegrees>42.915006615221500396728515625</LatitudeDegrees>
              <LongitudeDegrees>-8.015949614346027374267578125</LongitudeDegrees>
            </Position>
            <AltitudeMeters>453.399993896484375</AltitudeMeters>
            <DistanceMeters>47517.675673352</DistanceMeters>
          </Trackpoint>
          <Trackpoint>
            <Time>2019-07-26T11:53:28.000Z</Time>
            <Position>
              <LatitudeDegrees>42.91501960717141628265380859375</LatitudeDegrees>
              <LongitudeDegrees>-8.01598691381514072418212890625</LongitudeDegrees>
            </Position>
            <AltitudeMeters>453.399993896484375</AltitudeMeters>
            <DistanceMeters>47521.042087756</DistanceMeters>
          </Trackpoint>
          <Trackpoint>
            <Time>2019-07-26T11:53:29.000Z</Time>
            <Position>
              <LatitudeDegrees>42.91503804735839366912841796875</LatitudeDegrees>
              <LongitudeDegrees>-8.01602429710328578948974609375</LongitudeDegrees>
            </Position>
            <AltitudeMeters>453.399993896484375</AltitudeMeters>
            <DistanceMeters>47524.715088465</DistanceMeters>
          </Trackpoint>
          <Trackpoint>
            <Time>2019-07-26T11:53:30.000Z</Time>
            <Position>
              <LatitudeDegrees>42.91505791246891021728515625</LatitudeDegrees>
              <LongitudeDegrees>-8.016059584915637969970703125</LongitudeDegrees>
            </Position>
            <AltitudeMeters>453.399993896484375</AltitudeMeters>
            <DistanceMeters>47528.341076786</DistanceMeters>
          </Trackpoint>
          <Trackpoint>
            <Time>2019-07-26T11:53:32.000Z</Time>
            <Position>
              <LatitudeDegrees>42.9150946252048015594482421875</LatitudeDegrees>
              <LongitudeDegrees>-8.0161268077790737152099609375</LongitudeDegrees>
            </Position>
            <AltitudeMeters>453.600006103515625</AltitudeMeters>
            <DistanceMeters>47535.176397958</DistanceMeters>
          </Trackpoint>
          <Trackpoint>
            <Time>2019-07-26T11:53:33.000Z</Time>
            <Position>
              <LatitudeDegrees>42.915127314627170562744140625</LatitudeDegrees>
              <LongitudeDegrees>-8.0161697231233119964599609375</LongitudeDegrees>
            </Position>
            <AltitudeMeters>453.600006103515625</AltitudeMeters>
            <DistanceMeters>47540.224454586</DistanceMeters>
          </Trackpoint>
          <Trackpoint>
            <Time>2019-07-26T11:53:34.000Z</Time>
            <Position>
              <LatitudeDegrees>42.91514483280479907989501953125</LatitudeDegrees>
              <LongitudeDegrees>-8.01622076891362667083740234375</LongitudeDegrees>
            </Position>
            <AltitudeMeters>453.399993896484375</AltitudeMeters>
            <DistanceMeters>47544.820251449</DistanceMeters>
          </Trackpoint>
          <Trackpoint>
            <Time>2019-07-26T11:53:35.000Z</Time>
            <Position>
              <LatitudeDegrees>42.91516059078276157379150390625</LatitudeDegrees>
              <LongitudeDegrees>-8.01626703701913356781005859375</LongitudeDegrees>
            </Position>
            <AltitudeMeters>453.399993896484375</AltitudeMeters>
            <DistanceMeters>47548.979773833</DistanceMeters>
          </Trackpoint>
          <Trackpoint>
            <Time>2019-07-26T11:53:36.000Z</Time>
            <Position>
              <LatitudeDegrees>42.9151677154004573822021484375</LatitudeDegrees>
              <LongitudeDegrees>-8.0163148976862430572509765625</LongitudeDegrees>
            </Position>
            <AltitudeMeters>453.600006103515625</AltitudeMeters>
            <DistanceMeters>47552.960701383</DistanceMeters>
          </Trackpoint>
          <Trackpoint>
            <Time>2019-07-26T11:53:38.000Z</Time>
            <Position>
              <LatitudeDegrees>42.91516226716339588165283203125</LatitudeDegrees>
              <LongitudeDegrees>-8.01640081219375133514404296875</LongitudeDegrees>
            </Position>
            <AltitudeMeters>453.600006103515625</AltitudeMeters>
            <DistanceMeters>47559.989467151</DistanceMeters>
          </Trackpoint>
          <Trackpoint>
            <Time>2019-07-26T11:53:39.000Z</Time>
            <Position>
              <LatitudeDegrees>42.91515438817441463470458984375</LatitudeDegrees>
              <LongitudeDegrees>-8.016439788043498992919921875</LongitudeDegrees>
            </Position>
            <AltitudeMeters>453.600006103515625</AltitudeMeters>
            <DistanceMeters>47563.285401308</DistanceMeters>
          </Trackpoint>
          <Trackpoint>
            <Time>2019-07-26T11:53:40.000Z</Time>
            <Position>
              <LatitudeDegrees>42.91513896547257900238037109375</LatitudeDegrees>
              <LongitudeDegrees>-8.01646736450493335723876953125</LongitudeDegrees>
            </Position>
            <AltitudeMeters>453.600006103515625</AltitudeMeters>
            <DistanceMeters>47566.113942934</DistanceMeters>
          </Trackpoint>
          <Trackpoint>
            <Time>2019-07-26T11:53:42.000Z</Time>
            <Position>
              <LatitudeDegrees>42.91509118862450122833251953125</LatitudeDegrees>
              <LongitudeDegrees>-8.0165016464889049530029296875</LongitudeDegrees>
            </Position>
            <AltitudeMeters>453.600006103515625</AltitudeMeters>
            <DistanceMeters>47572.120954293</DistanceMeters>
          </Trackpoint>
          <Trackpoint>
            <Time>2019-07-26T11:53:45.000Z</Time>
            <Position>
              <LatitudeDegrees>42.9150299169123172760009765625</LatitudeDegrees>
              <LongitudeDegrees>-8.0164855532348155975341796875</LongitudeDegrees>
            </Position>
            <AltitudeMeters>453.79998779296875</AltitudeMeters>
            <DistanceMeters>47579.065060298</DistanceMeters>
          </Trackpoint>
          <Trackpoint>
            <Time>2019-07-26T11:53:46.000Z</Time>
            <Position>
              <LatitudeDegrees>42.9150104708969593048095703125</LatitudeDegrees>
              <LongitudeDegrees>-8.01647608168423175811767578125</LongitudeDegrees>
            </Position>
            <AltitudeMeters>453.79998779296875</AltitudeMeters>
            <DistanceMeters>47581.361484615</DistanceMeters>
          </Trackpoint>
          <Trackpoint>
            <Time>2019-07-26T11:53:50.000Z</Time>
            <Position>
              <LatitudeDegrees>42.91491634212434291839599609375</LatitudeDegrees>
              <LongitudeDegrees>-8.01643031649291515350341796875</LongitudeDegrees>
            </Position>
            <AltitudeMeters>453.399993896484375</AltitudeMeters>
            <DistanceMeters>47592.482452512</DistanceMeters>
          </Trackpoint>
          <Trackpoint>
            <Time>2019-07-26T11:53:51.000Z</Time>
            <Position>
              <LatitudeDegrees>42.914893627166748046875</LatitudeDegrees>
              <LongitudeDegrees>-8.016417659819126129150390625</LongitudeDegrees>
            </Position>
            <AltitudeMeters>453.399993896484375</AltitudeMeters>
            <DistanceMeters>47595.211887081</DistanceMeters>
          </Trackpoint>
          <Trackpoint>
            <Time>2019-07-26T11:53:52.000Z</Time>
            <Position>
              <LatitudeDegrees>42.914872504770755767822265625</LatitudeDegrees>
              <LongitudeDegrees>-8.0164037458598613739013671875</LongitudeDegrees>
            </Position>
            <AltitudeMeters>453.600006103515625</AltitudeMeters>
            <DistanceMeters>47597.821231374</DistanceMeters>
          </Trackpoint>
          <Trackpoint>
            <Time>2019-07-26T11:53:58.000Z</Time>
            <Position>
              <LatitudeDegrees>42.91475859470665454864501953125</LatitudeDegrees>
              <LongitudeDegrees>-8.01632973365485668182373046875</LongitudeDegrees>
            </Position>
            <AltitudeMeters>453.600006103515625</AltitudeMeters>
            <DistanceMeters>47611.8617299</DistanceMeters>
          </Trackpoint>
          <Trackpoint>
            <Time>2019-07-26T11:54:05.000Z</Time>
            <Position>
              <LatitudeDegrees>42.9145860113203525543212890625</LatitudeDegrees>
              <LongitudeDegrees>-8.01627776585519313812255859375</LongitudeDegrees>
            </Position>
            <AltitudeMeters>453.79998779296875</AltitudeMeters>
            <DistanceMeters>47631.532259774</DistanceMeters>
          </Trackpoint>
          <Trackpoint>
            <Time>2019-07-26T11:54:09.000Z</Time>
            <Position>
              <LatitudeDegrees>42.9145033657550811767578125</LatitudeDegrees>
              <LongitudeDegrees>-8.01625178195536136627197265625</LongitudeDegrees>
            </Position>
            <AltitudeMeters>454</AltitudeMeters>
            <DistanceMeters>47640.972005234</DistanceMeters>
          </Trackpoint>
          <Trackpoint>
            <Time>2019-07-26T11:54:10.000Z</Time>
            <Position>
              <LatitudeDegrees>42.914472855627536773681640625</LatitudeDegrees>
              <LongitudeDegrees>-8.01624205894768238067626953125</LongitudeDegrees>
            </Position>
            <AltitudeMeters>454</AltitudeMeters>
            <DistanceMeters>47644.45833323</DistanceMeters>
          </Trackpoint>
          <Trackpoint>
            <Time>2019-07-26T11:54:13.000Z</Time>
            <Position>
              <LatitudeDegrees>42.91438736021518707275390625</LatitudeDegrees>
              <LongitudeDegrees>-8.0162106268107891082763671875</LongitudeDegrees>
            </Position>
            <AltitudeMeters>454.20001220703125</AltitudeMeters>
            <DistanceMeters>47654.313203709</DistanceMeters>
          </Trackpoint>
          <Trackpoint>
            <Time>2019-07-26T11:54:17.000Z</Time>
            <Position>
              <LatitudeDegrees>42.91428870521485805511474609375</LatitudeDegrees>
              <LongitudeDegrees>-8.01619897596538066864013671875</LongitudeDegrees>
            </Position>
            <AltitudeMeters>454.20001220703125</AltitudeMeters>
            <DistanceMeters>47665.334664062</DistanceMeters>
          </Trackpoint>
          <Trackpoint>
            <Time>2019-07-26T11:54:19.000Z</Time>
            <Position>
              <LatitudeDegrees>42.91426674462854862213134765625</LatitudeDegrees>
              <LongitudeDegrees>-8.0161308310925960540771484375</LongitudeDegrees>
            </Position>
            <AltitudeMeters>454.600006103515625</AltitudeMeters>
            <DistanceMeters>47671.402995937</DistanceMeters>
          </Trackpoint>
          <Trackpoint>
            <Time>2019-07-26T11:54:21.000Z</Time>
            <Position>
              <LatitudeDegrees>42.9142698459327220916748046875</LatitudeDegrees>
              <LongitudeDegrees>-8.01607056520879268646240234375</LongitudeDegrees>
            </Position>
            <AltitudeMeters>455.20001220703125</AltitudeMeters>
            <DistanceMeters>47676.326076799</DistanceMeters>
          </Trackpoint>
          <Trackpoint>
            <Time>2019-07-26T11:54:22.000Z</Time>
            <Position>
              <LatitudeDegrees>42.9142721928656101226806640625</LatitudeDegrees>
              <LongitudeDegrees>-8.01603536121547222137451171875</LongitudeDegrees>
            </Position>
            <AltitudeMeters>455.399993896484375</AltitudeMeters>
            <DistanceMeters>47679.208379755</DistanceMeters>
          </Trackpoint>
          <Trackpoint>
            <Time>2019-07-26T11:54:27.000Z</Time>
            <Position>
              <LatitudeDegrees>42.91428401134908199310302734375</LatitudeDegrees>
              <LongitudeDegrees>-8.01584928296506404876708984375</LongitudeDegrees>
            </Position>
            <AltitudeMeters>455.79998779296875</AltitudeMeters>
            <DistanceMeters>47694.433426957</DistanceMeters>
          </Trackpoint>
          <Trackpoint>
            <Time>2019-07-26T11:54:32.000Z</Time>
            <Position>
              <LatitudeDegrees>42.91429440490901470184326171875</LatitudeDegrees>
              <LongitudeDegrees>-8.0156580917537212371826171875</LongitudeDegrees>
            </Position>
            <AltitudeMeters>456</AltitudeMeters>
            <DistanceMeters>47710.06120503</DistanceMeters>
          </Trackpoint>
          <Trackpoint>
            <Time>2019-07-26T11:54:35.000Z</Time>
            <Position>
              <LatitudeDegrees>42.9142933152616024017333984375</LatitudeDegrees>
              <LongitudeDegrees>-8.01568483002483844757080078125</LongitudeDegrees>
            </Position>
            <AltitudeMeters>456</AltitudeMeters>
            <DistanceMeters>47712.244752685</DistanceMeters>
          </Trackpoint>
          <Trackpoint>
            <Time>2019-07-26T11:54:36.000Z</Time>
            <Position>
              <LatitudeDegrees>42.91428836993873119354248046875</LatitudeDegrees>
              <LongitudeDegrees>-8.0157110653817653656005859375</LongitudeDegrees>
            </Position>
            <AltitudeMeters>456</AltitudeMeters>
            <DistanceMeters>47714.452973979</DistanceMeters>
          </Trackpoint>
          <Trackpoint>
            <Time>2019-07-26T11:54:40.000Z</Time>
            <Position>
              <LatitudeDegrees>42.9142815805971622467041015625</LatitudeDegrees>
              <LongitudeDegrees>-8.01580804400146007537841796875</LongitudeDegrees>
            </Position>
            <AltitudeMeters>456</AltitudeMeters>
            <DistanceMeters>47722.394387825</DistanceMeters>
          </Trackpoint>
          <Trackpoint>
            <Time>2019-07-26T11:54:46.000Z</Time>
            <Position>
              <LatitudeDegrees>42.9142711870372295379638671875</LatitudeDegrees>
              <LongitudeDegrees>-8.01604240201413631439208984375</LongitudeDegrees>
            </Position>
            <AltitudeMeters>456</AltitudeMeters>
            <DistanceMeters>47741.532777536</DistanceMeters>
          </Trackpoint>
          <Trackpoint>
            <Time>2019-07-26T11:54:53.000Z</Time>
            <Position>
              <LatitudeDegrees>42.91421913541853427886962890625</LatitudeDegrees>
              <LongitudeDegrees>-8.016363680362701416015625</LongitudeDegrees>
            </Position>
            <AltitudeMeters>456.20001220703125</AltitudeMeters>
            <DistanceMeters>47768.354898822</DistanceMeters>
          </Trackpoint>
          <Trackpoint>
            <Time>2019-07-26T11:54:56.000Z</Time>
            <Position>
              <LatitudeDegrees>42.91420488618314266204833984375</LatitudeDegrees>
              <LongitudeDegrees>-8.01653995178639888763427734375</LongitudeDegrees>
            </Position>
            <AltitudeMeters>456.20001220703125</AltitudeMeters>
            <DistanceMeters>47782.810832866</DistanceMeters>
          </Trackpoint>
          <Trackpoint>
            <Time>2019-07-26T11:54:58.000Z</Time>
            <Position>
              <LatitudeDegrees>42.9141866974532604217529296875</LatitudeDegrees>
              <LongitudeDegrees>-8.01669786684215068817138671875</LongitudeDegrees>
            </Position>
            <AltitudeMeters>456.20001220703125</AltitudeMeters>
            <DistanceMeters>47795.84162553</DistanceMeters>
          </Trackpoint>
          <Trackpoint>
            <Time>2019-07-26T11:55:05.000Z</Time>
            <Position>
              <LatitudeDegrees>42.9141139425337314605712890625</LatitudeDegrees>
              <LongitudeDegrees>-8.0172794871032238006591796875</LongitudeDegrees>
            </Position>
            <AltitudeMeters>455</AltitudeMeters>
            <DistanceMeters>47843.938850435</DistanceMeters>
          </Trackpoint>
          <Trackpoint>
            <Time>2019-07-26T11:55:06.000Z</Time>
            <Position>
              <LatitudeDegrees>42.91409608907997608184814453125</LatitudeDegrees>
              <LongitudeDegrees>-8.0173587799072265625</LongitudeDegrees>
            </Position>
            <AltitudeMeters>454.79998779296875</AltitudeMeters>
            <DistanceMeters>47850.701121289</DistanceMeters>
          </Trackpoint>
          <Trackpoint>
            <Time>2019-07-26T11:55:08.000Z</Time>
            <Position>
              <LatitudeDegrees>42.91406440548598766326904296875</LatitudeDegrees>
              <LongitudeDegrees>-8.0175064690411090850830078125</LongitudeDegrees>
            </Position>
            <AltitudeMeters>454.20001220703125</AltitudeMeters>
            <DistanceMeters>47863.245727389</DistanceMeters>
          </Trackpoint>
          <Trackpoint>
            <Time>2019-07-26T11:55:11.000Z</Time>
            <Position>
              <LatitudeDegrees>42.9140442050993442535400390625</LatitudeDegrees>
              <LongitudeDegrees>-8.0177066288888454437255859375</LongitudeDegrees>
            </Position>
            <AltitudeMeters>453.600006103515625</AltitudeMeters>
            <DistanceMeters>47879.716354473</DistanceMeters>
          </Trackpoint>
          <Trackpoint>
            <Time>2019-07-26T11:55:13.000Z</Time>
            <Position>
              <LatitudeDegrees>42.91403062641620635986328125</LatitudeDegrees>
              <LongitudeDegrees>-8.01780042238533496856689453125</LongitudeDegrees>
            </Position>
            <AltitudeMeters>453.20001220703125</AltitudeMeters>
            <DistanceMeters>47887.510862431</DistanceMeters>
          </Trackpoint>
          <Trackpoint>
            <Time>2019-07-26T11:55:14.000Z</Time>
            <Position>
              <LatitudeDegrees>42.91402316652238368988037109375</LatitudeDegrees>
              <LongitudeDegrees>-8.01783260889351367950439453125</LongitudeDegrees>
            </Position>
            <AltitudeMeters>453</AltitudeMeters>
            <DistanceMeters>47890.263358414</DistanceMeters>
          </Trackpoint>
          <Trackpoint>
            <Time>2019-07-26T11:55:15.000Z</Time>
            <Position>
              <LatitudeDegrees>42.91401210241019725799560546875</LatitudeDegrees>
              <LongitudeDegrees>-8.01786211319267749786376953125</LongitudeDegrees>
            </Position>
            <AltitudeMeters>453</AltitudeMeters>
            <DistanceMeters>47892.964525156</DistanceMeters>
          </Trackpoint>
          <Trackpoint>
            <Time>2019-07-26T11:55:19.000Z</Time>
            <Position>
              <LatitudeDegrees>42.91397991590201854705810546875</LatitudeDegrees>
              <LongitudeDegrees>-8.01800443790853023529052734375</LongitudeDegrees>
            </Position>
            <AltitudeMeters>452.79998779296875</AltitudeMeters>
            <DistanceMeters>47905.106396018</DistanceMeters>
          </Trackpoint>
          <Trackpoint>
            <Time>2019-07-26T11:55:20.000Z</Time>
            <Position>
              <LatitudeDegrees>42.91397161781787872314453125</LatitudeDegrees>
              <LongitudeDegrees>-8.01804198883473873138427734375</LongitudeDegrees>
            </Position>
            <AltitudeMeters>452.79998779296875</AltitudeMeters>
            <DistanceMeters>47908.302177058</DistanceMeters>
          </Trackpoint>
          <Trackpoint>
            <Time>2019-07-26T11:55:21.000Z</Time>
            <Position>
              <LatitudeDegrees>42.9139590449631214141845703125</LatitudeDegrees>
              <LongitudeDegrees>-8.01807417534291744232177734375</LongitudeDegrees>
            </Position>
            <AltitudeMeters>452.79998779296875</AltitudeMeters>
            <DistanceMeters>47911.273946693</DistanceMeters>
          </Trackpoint>
          <Trackpoint>
            <Time>2019-07-26T11:55:22.000Z</Time>
            <Position>
              <LatitudeDegrees>42.913941107690334320068359375</LatitudeDegrees>
              <LongitudeDegrees>-8.018101751804351806640625</LongitudeDegrees>
            </Position>
            <AltitudeMeters>452.79998779296875</AltitudeMeters>
            <DistanceMeters>47914.280457381</DistanceMeters>
          </Trackpoint>
          <Trackpoint>
            <Time>2019-07-26T11:55:25.000Z</Time>
            <Position>
              <LatitudeDegrees>42.9139255173504352569580078125</LatitudeDegrees>
              <LongitudeDegrees>-8.01818984560668468475341796875</LongitudeDegrees>
            </Position>
            <AltitudeMeters>453</AltitudeMeters>
            <DistanceMeters>47921.668135097</DistanceMeters>
          </Trackpoint>
          <Trackpoint>
            <Time>2019-07-26T11:55:26.000Z</Time>
            <Position>
              <LatitudeDegrees>42.91391503997147083282470703125</LatitudeDegrees>
              <LongitudeDegrees>-8.01822018809616565704345703125</LongitudeDegrees>
            </Position>
            <AltitudeMeters>453.20001220703125</AltitudeMeters>
            <DistanceMeters>47924.402527771</DistanceMeters>
          </Trackpoint>
          <Trackpoint>
            <Time>2019-07-26T11:55:28.000Z</Time>
            <Position>
              <LatitudeDegrees>42.9138923250138759613037109375</LatitudeDegrees>
              <LongitudeDegrees>-8.01828481256961822509765625</LongitudeDegrees>
            </Position>
            <AltitudeMeters>453.399993896484375</AltitudeMeters>
            <DistanceMeters>47930.244932152</DistanceMeters>
          </Trackpoint>
          <Trackpoint>
            <Time>2019-07-26T11:55:30.000Z</Time>
            <Position>
              <LatitudeDegrees>42.91387128643691539764404296875</LatitudeDegrees>
              <LongitudeDegrees>-8.018352873623371124267578125</LongitudeDegrees>
            </Position>
            <AltitudeMeters>453.79998779296875</AltitudeMeters>
            <DistanceMeters>47936.267707017</DistanceMeters>
          </Trackpoint>
          <Trackpoint>
            <Time>2019-07-26T11:55:32.000Z</Time>
            <Position>
              <LatitudeDegrees>42.91385494172573089599609375</LatitudeDegrees>
              <LongitudeDegrees>-8.0184281431138515472412109375</LongitudeDegrees>
            </Position>
            <AltitudeMeters>454.20001220703125</AltitudeMeters>
            <DistanceMeters>47942.667740357</DistanceMeters>
          </Trackpoint>
          <Trackpoint>
            <Time>2019-07-26T11:55:33.000Z</Time>
            <Position>
              <LatitudeDegrees>42.91384664364159107208251953125</LatitudeDegrees>
              <LongitudeDegrees>-8.0184625089168548583984375</LongitudeDegrees>
            </Position>
            <AltitudeMeters>454.399993896484375</AltitudeMeters>
            <DistanceMeters>47945.616632287</DistanceMeters>
          </Trackpoint>
          <Trackpoint>
            <Time>2019-07-26T11:55:35.000Z</Time>
            <Position>
              <LatitudeDegrees>42.91383055038750171661376953125</LatitudeDegrees>
              <LongitudeDegrees>-8.0185314081609249114990234375</LongitudeDegrees>
            </Position>
            <AltitudeMeters>454.79998779296875</AltitudeMeters>
            <DistanceMeters>47951.511353159</DistanceMeters>
          </Trackpoint>
          <Trackpoint>
            <Time>2019-07-26T11:55:36.000Z</Time>
            <Position>
              <LatitudeDegrees>42.91382166557013988494873046875</LatitudeDegrees>
              <LongitudeDegrees>-8.018570803105831146240234375</LongitudeDegrees>
            </Position>
            <AltitudeMeters>455.20001220703125</AltitudeMeters>
            <DistanceMeters>47954.871054865</DistanceMeters>
          </Trackpoint>
          <Trackpoint>
            <Time>2019-07-26T11:55:40.000Z</Time>
            <Position>
              <LatitudeDegrees>42.91379467584192752838134765625</LatitudeDegrees>
              <LongitudeDegrees>-8.0187164805829524993896484375</LongitudeDegrees>
            </Position>
            <AltitudeMeters>456.600006103515625</AltitudeMeters>
            <DistanceMeters>47967.120289543</DistanceMeters>
          </Trackpoint>
          <Trackpoint>
            <Time>2019-07-26T11:55:41.000Z</Time>
            <Position>
              <LatitudeDegrees>42.91380205191671848297119140625</LatitudeDegrees>
              <LongitudeDegrees>-8.01875931210815906524658203125</LongitudeDegrees>
            </Position>
            <AltitudeMeters>456.79998779296875</AltitudeMeters>
            <DistanceMeters>47970.707469345</DistanceMeters>
          </Trackpoint>
          <Trackpoint>
            <Time>2019-07-26T11:55:43.000Z</Time>
            <Position>
              <LatitudeDegrees>42.91380666196346282958984375</LatitudeDegrees>
              <LongitudeDegrees>-8.018815219402313232421875</LongitudeDegrees>
            </Position>
            <AltitudeMeters>457.600006103515625</AltitudeMeters>
            <DistanceMeters>47975.293431408</DistanceMeters>
          </Trackpoint>
          <Trackpoint>
            <Time>2019-07-26T11:55:45.000Z</Time>
            <Position>
              <LatitudeDegrees>42.9137893952429294586181640625</LatitudeDegrees>
              <LongitudeDegrees>-8.0188526026904582977294921875</LongitudeDegrees>
            </Position>
            <AltitudeMeters>458.20001220703125</AltitudeMeters>
            <DistanceMeters>47978.894429849</DistanceMeters>
          </Trackpoint>
          <Trackpoint>
            <Time>2019-07-26T11:55:47.000Z</Time>
            <Position>
              <LatitudeDegrees>42.9137823544442653656005859375</LatitudeDegrees>
              <LongitudeDegrees>-8.018905408680438995361328125</LongitudeDegrees>
            </Position>
            <AltitudeMeters>458.79998779296875</AltitudeMeters>
            <DistanceMeters>47983.269788355</DistanceMeters>
          </Trackpoint>
          <Trackpoint>
            <Time>2019-07-26T11:55:49.000Z</Time>
            <Position>
              <LatitudeDegrees>42.91379266418516635894775390625</LatitudeDegrees>
              <LongitudeDegrees>-8.0189659260213375091552734375</LongitudeDegrees>
            </Position>
            <AltitudeMeters>459.600006103515625</AltitudeMeters>
            <DistanceMeters>47988.335701625</DistanceMeters>
          </Trackpoint>
          <Trackpoint>
            <Time>2019-07-26T11:55:50.000Z</Time>
            <Position>
              <LatitudeDegrees>42.91379048489034175872802734375</LatitudeDegrees>
              <LongitudeDegrees>-8.01899786107242107391357421875</LongitudeDegrees>
            </Position>
            <AltitudeMeters>460.20001220703125</AltitudeMeters>
            <DistanceMeters>47990.948504295</DistanceMeters>
          </Trackpoint>
          <Trackpoint>
            <Time>2019-07-26T11:55:53.000Z</Time>
            <Position>
              <LatitudeDegrees>42.9137709550559520721435546875</LatitudeDegrees>
              <LongitudeDegrees>-8.01909894682466983795166015625</LongitudeDegrees>
            </Position>
            <AltitudeMeters>461.399993896484375</AltitudeMeters>
            <DistanceMeters>47999.470233859</DistanceMeters>
          </Trackpoint>
          <Trackpoint>
            <Time>2019-07-26T11:55:54.000Z</Time>
            <Position>
              <LatitudeDegrees>42.91377338580787181854248046875</LatitudeDegrees>
              <LongitudeDegrees>-8.01914152689278125762939453125</LongitudeDegrees>
            </Position>
            <AltitudeMeters>462</AltitudeMeters>
            <DistanceMeters>48002.952674478</DistanceMeters>
          </Trackpoint>
          <Trackpoint>
            <Time>2019-07-26T11:55:57.000Z</Time>
            <Position>
              <LatitudeDegrees>42.91375930421054363250732421875</LatitudeDegrees>
              <LongitudeDegrees>-8.019282929599285125732421875</LongitudeDegrees>
            </Position>
            <AltitudeMeters>462.600006103515625</AltitudeMeters>
            <DistanceMeters>48014.585590088</DistanceMeters>
          </Trackpoint>
          <Trackpoint>
            <Time>2019-07-26T11:55:59.000Z</Time>
            <Position>
              <LatitudeDegrees>42.91372912935912609100341796875</LatitudeDegrees>
              <LongitudeDegrees>-8.01939130760729312896728515625</LongitudeDegrees>
            </Position>
            <AltitudeMeters>463.20001220703125</AltitudeMeters>
            <DistanceMeters>48024.036807797</DistanceMeters>
          </Trackpoint>
          <Trackpoint>
            <Time>2019-07-26T11:56:04.000Z</Time>
            <Position>
              <LatitudeDegrees>42.913619913160800933837890625</LatitudeDegrees>
              <LongitudeDegrees>-8.01972490735352039337158203125</LongitudeDegrees>
            </Position>
            <AltitudeMeters>463.399993896484375</AltitudeMeters>
            <DistanceMeters>48053.823704095</DistanceMeters>
          </Trackpoint>
          <Trackpoint>
            <Time>2019-07-26T11:56:05.000Z</Time>
            <Position>
              <LatitudeDegrees>42.9135838709771633148193359375</LatitudeDegrees>
              <LongitudeDegrees>-8.019798584282398223876953125</LongitudeDegrees>
            </Position>
            <AltitudeMeters>463.399993896484375</AltitudeMeters>
            <DistanceMeters>48061.045734387</DistanceMeters>
          </Trackpoint>
          <Trackpoint>
            <Time>2019-07-26T11:56:08.000Z</Time>
            <Position>
              <LatitudeDegrees>42.91345235891640186309814453125</LatitudeDegrees>
              <LongitudeDegrees>-8.0199979059398174285888671875</LongitudeDegrees>
            </Position>
            <AltitudeMeters>463.399993896484375</AltitudeMeters>
            <DistanceMeters>48082.91468289</DistanceMeters>
          </Trackpoint>
          <Trackpoint>
            <Time>2019-07-26T11:56:10.000Z</Time>
            <Position>
              <LatitudeDegrees>42.91336904279887676239013671875</LatitudeDegrees>
              <LongitudeDegrees>-8.020140565931797027587890625</LongitudeDegrees>
            </Position>
            <AltitudeMeters>463.20001220703125</AltitudeMeters>
            <DistanceMeters>48097.788716401</DistanceMeters>
          </Trackpoint>
          <Trackpoint>
            <Time>2019-07-26T11:56:13.000Z</Time>
            <Position>
              <LatitudeDegrees>42.913273908197879791259765625</LatitudeDegrees>
              <LongitudeDegrees>-8.02038372494280338287353515625</LongitudeDegrees>
            </Position>
            <AltitudeMeters>462.20001220703125</AltitudeMeters>
            <DistanceMeters>48120.261278676</DistanceMeters>
          </Trackpoint>
          <Trackpoint>
            <Time>2019-07-26T11:56:14.000Z</Time>
            <Position>
              <LatitudeDegrees>42.913227975368499755859375</LatitudeDegrees>
              <LongitudeDegrees>-8.0204679630696773529052734375</LongitudeDegrees>
            </Position>
            <AltitudeMeters>461.79998779296875</AltitudeMeters>
            <DistanceMeters>48128.822125621</DistanceMeters>
          </Trackpoint>
          <Trackpoint>
            <Time>2019-07-26T11:56:15.000Z</Time>
            <Position>
              <LatitudeDegrees>42.91317961178719997406005859375</LatitudeDegrees>
              <LongitudeDegrees>-8.02055203355848789215087890625</LongitudeDegrees>
            </Position>
            <AltitudeMeters>461.600006103515625</AltitudeMeters>
            <DistanceMeters>48137.536650444</DistanceMeters>
          </Trackpoint>
          <Trackpoint>
            <Time>2019-07-26T11:56:16.000Z</Time>
            <Position>
              <LatitudeDegrees>42.91313284076750278472900390625</LatitudeDegrees>
              <LongitudeDegrees>-8.0206409655511379241943359375</LongitudeDegrees>
            </Position>
            <AltitudeMeters>461.600006103515625</AltitudeMeters>
            <DistanceMeters>48146.461576456</DistanceMeters>
          </Trackpoint>
          <Trackpoint>
            <Time>2019-07-26T11:56:19.000Z</Time>
            <Position>
              <LatitudeDegrees>42.91301666758954524993896484375</LatitudeDegrees>
              <LongitudeDegrees>-8.020892925560474395751953125</LongitudeDegrees>
            </Position>
            <AltitudeMeters>460.79998779296875</AltitudeMeters>
            <DistanceMeters>48170.731555575</DistanceMeters>
          </Trackpoint>
          <Trackpoint>
            <Time>2019-07-26T11:56:20.000Z</Time>
            <Position>
              <LatitudeDegrees>42.91298598982393741607666015625</LatitudeDegrees>
              <LongitudeDegrees>-8.0209743976593017578125</LongitudeDegrees>
            </Position>
            <AltitudeMeters>460.399993896484375</AltitudeMeters>
            <DistanceMeters>48178.199470419</DistanceMeters>
          </Trackpoint>
          <Trackpoint>
            <Time>2019-07-26T11:56:21.000Z</Time>
            <Position>
              <LatitudeDegrees>42.9129575751721858978271484375</LatitudeDegrees>
              <LongitudeDegrees>-8.02105947397649288177490234375</LongitudeDegrees>
            </Position>
            <AltitudeMeters>459</AltitudeMeters>
            <DistanceMeters>48185.82236632</DistanceMeters>
          </Trackpoint>
          <Trackpoint>
            <Time>2019-07-26T11:56:23.000Z</Time>
            <Position>
              <LatitudeDegrees>42.91289814747869968414306640625</LatitudeDegrees>
              <LongitudeDegrees>-8.02123683504760265350341796875</LongitudeDegrees>
            </Position>
            <AltitudeMeters>457.20001220703125</AltitudeMeters>
            <DistanceMeters>48201.721673222</DistanceMeters>
          </Trackpoint>
          <Trackpoint>
            <Time>2019-07-26T11:56:24.000Z</Time>
            <Position>
              <LatitudeDegrees>42.91285355575382709503173828125</LatitudeDegrees>
              <LongitudeDegrees>-8.02132777869701385498046875</LongitudeDegrees>
            </Position>
            <AltitudeMeters>456.399993896484375</AltitudeMeters>
            <DistanceMeters>48210.643563372</DistanceMeters>
          </Trackpoint>
          <Trackpoint>
            <Time>2019-07-26T11:56:25.000Z</Time>
            <Position>
              <LatitudeDegrees>42.9128033481538295745849609375</LatitudeDegrees>
              <LongitudeDegrees>-8.02142039872705936431884765625</LongitudeDegrees>
            </Position>
            <AltitudeMeters>455.399993896484375</AltitudeMeters>
            <DistanceMeters>48220.03727973</DistanceMeters>
          </Trackpoint>
          <Trackpoint>
            <Time>2019-07-26T11:56:26.000Z</Time>
            <Position>
              <LatitudeDegrees>42.91275263763964176177978515625</LatitudeDegrees>
              <LongitudeDegrees>-8.0215143598616123199462890625</LongitudeDegrees>
            </Position>
            <AltitudeMeters>454.20001220703125</AltitudeMeters>
            <DistanceMeters>48229.552296621</DistanceMeters>
          </Trackpoint>
          <Trackpoint>
            <Time>2019-07-26T11:56:27.000Z</Time>
            <Position>
              <LatitudeDegrees>42.91270561516284942626953125</LatitudeDegrees>
              <LongitudeDegrees>-8.02161502651870250701904296875</LongitudeDegrees>
            </Position>
            <AltitudeMeters>453</AltitudeMeters>
            <DistanceMeters>48239.284999323</DistanceMeters>
          </Trackpoint>
          <Trackpoint>
            <Time>2019-07-26T11:56:28.000Z</Time>
            <Position>
              <LatitudeDegrees>42.91266982443630695343017578125</LatitudeDegrees>
              <LongitudeDegrees>-8.0217282660305500030517578125</LongitudeDegrees>
            </Position>
            <AltitudeMeters>451.600006103515625</AltitudeMeters>
            <DistanceMeters>48249.338987373</DistanceMeters>
          </Trackpoint>
          <Trackpoint>
            <Time>2019-07-26T11:56:29.000Z</Time>
            <Position>
              <LatitudeDegrees>42.9126343689858913421630859375</LatitudeDegrees>
              <LongitudeDegrees>-8.02183664403855800628662109375</LongitudeDegrees>
            </Position>
            <AltitudeMeters>450.399993896484375</AltitudeMeters>
            <DistanceMeters>48259.015394901</DistanceMeters>
          </Trackpoint>
          <Trackpoint>
            <Time>2019-07-26T11:56:30.000Z</Time>
            <Position>
              <LatitudeDegrees>42.91260235011577606201171875</LatitudeDegrees>
              <LongitudeDegrees>-8.0219386518001556396484375</LongitudeDegrees>
            </Position>
            <AltitudeMeters>449</AltitudeMeters>
            <DistanceMeters>48268.062417223</DistanceMeters>
          </Trackpoint>
          <Trackpoint>
            <Time>2019-07-26T11:56:31.000Z</Time>
            <Position>
              <LatitudeDegrees>42.91256974451243877410888671875</LatitudeDegrees>
              <LongitudeDegrees>-8.0220296792685985565185546875</LongitudeDegrees>
            </Position>
            <AltitudeMeters>447.600006103515625</AltitudeMeters>
            <DistanceMeters>48276.322638625</DistanceMeters>
          </Trackpoint>
          <Trackpoint>
            <Time>2019-07-26T11:56:32.000Z</Time>
            <Position>
              <LatitudeDegrees>42.91253127157688140869140625</LatitudeDegrees>
              <LongitudeDegrees>-8.02210000343620777130126953125</LongitudeDegrees>
            </Position>
            <AltitudeMeters>446</AltitudeMeters>
            <DistanceMeters>48283.477462408</DistanceMeters>
          </Trackpoint>
          <Trackpoint>
            <Time>2019-07-26T11:56:33.000Z</Time>
            <Position>
              <LatitudeDegrees>42.91250704787671566009521484375</LatitudeDegrees>
              <LongitudeDegrees>-8.02215415053069591522216796875</LongitudeDegrees>
            </Position>
            <AltitudeMeters>444.20001220703125</AltitudeMeters>
            <DistanceMeters>48288.649220951</DistanceMeters>
          </Trackpoint>
          <Trackpoint>
            <Time>2019-07-26T11:56:34.000Z</Time>
            <Position>
              <LatitudeDegrees>42.9124989174306392669677734375</LatitudeDegrees>
              <LongitudeDegrees>-8.02220226265490055084228515625</LongitudeDegrees>
            </Position>
            <AltitudeMeters>442.399993896484375</AltitudeMeters>
            <DistanceMeters>48292.675259601</DistanceMeters>
          </Trackpoint>
          <Trackpoint>
            <Time>2019-07-26T11:56:35.000Z</Time>
            <Position>
              <LatitudeDegrees>42.912496738135814666748046875</LatitudeDegrees>
              <LongitudeDegrees>-8.0222497880458831787109375</LongitudeDegrees>
            </Position>
            <AltitudeMeters>440.79998779296875</AltitudeMeters>
            <DistanceMeters>48296.55626044</DistanceMeters>
          </Trackpoint>
          <Trackpoint>
            <Time>2019-07-26T11:56:36.000Z</Time>
            <Position>
              <LatitudeDegrees>42.9125022701919078826904296875</LatitudeDegrees>
              <LongitudeDegrees>-8.02229915745556354522705078125</LongitudeDegrees>
            </Position>
            <AltitudeMeters>439.20001220703125</AltitudeMeters>
            <DistanceMeters>48300.628019317</DistanceMeters>
          </Trackpoint>
          <Trackpoint>
            <Time>2019-07-26T11:56:37.000Z</Time>
            <Position>
              <LatitudeDegrees>42.9125140048563480377197265625</LatitudeDegrees>
              <LongitudeDegrees>-8.02235682494938373565673828125</LongitudeDegrees>
            </Position>
            <AltitudeMeters>437.79998779296875</AltitudeMeters>
            <DistanceMeters>48305.506879994</DistanceMeters>
          </Trackpoint>
          <Trackpoint>
            <Time>2019-07-26T11:56:38.000Z</Time>
            <Position>
              <LatitudeDegrees>42.91253152303397655487060546875</LatitudeDegrees>
              <LongitudeDegrees>-8.0224187672138214111328125</LongitudeDegrees>
            </Position>
            <AltitudeMeters>436.399993896484375</AltitudeMeters>
            <DistanceMeters>48310.920067415</DistanceMeters>
          </Trackpoint>
          <Trackpoint>
            <Time>2019-07-26T11:56:39.000Z</Time>
            <Position>
              <LatitudeDegrees>42.91255013085901737213134765625</LatitudeDegrees>
              <LongitudeDegrees>-8.0224823020398616790771484375</LongitudeDegrees>
            </Position>
            <AltitudeMeters>435.20001220703125</AltitudeMeters>
            <DistanceMeters>48316.498386465</DistanceMeters>
          </Trackpoint>
          <Trackpoint>
            <Time>2019-07-26T11:56:40.000Z</Time>
            <Position>
              <LatitudeDegrees>42.9125679843127727508544921875</LatitudeDegrees>
              <LongitudeDegrees>-8.02255212329328060150146484375</LongitudeDegrees>
            </Position>
            <AltitudeMeters>434.20001220703125</AltitudeMeters>
            <DistanceMeters>48322.526406672</DistanceMeters>
          </Trackpoint>
          <Trackpoint>
            <Time>2019-07-26T11:56:42.000Z</Time>
            <Position>
              <LatitudeDegrees>42.91257980279624462127685546875</LatitudeDegrees>
              <LongitudeDegrees>-8.022669889032840728759765625</LongitudeDegrees>
            </Position>
            <AltitudeMeters>432.399993896484375</AltitudeMeters>
            <DistanceMeters>48332.216336231</DistanceMeters>
          </Trackpoint>
          <Trackpoint>
            <Time>2019-07-26T11:56:43.000Z</Time>
            <Position>
              <LatitudeDegrees>42.9125649668276309967041015625</LatitudeDegrees>
              <LongitudeDegrees>-8.02270685322582721710205078125</LongitudeDegrees>
            </Position>
            <AltitudeMeters>431.600006103515625</AltitudeMeters>
            <DistanceMeters>48335.650470742</DistanceMeters>
          </Trackpoint>
          <Trackpoint>
            <Time>2019-07-26T11:56:44.000Z</Time>
            <Position>
              <LatitudeDegrees>42.91253671981394290924072265625</LatitudeDegrees>
              <LongitudeDegrees>-8.02271355874836444854736328125</LongitudeDegrees>
            </Position>
            <AltitudeMeters>431.399993896484375</AltitudeMeters>
            <DistanceMeters>48338.842010531</DistanceMeters>
          </Trackpoint>
          <Trackpoint>
            <Time>2019-07-26T11:56:45.000Z</Time>
            <Position>
              <LatitudeDegrees>42.9125119931995868682861328125</LatitudeDegrees>
              <LongitudeDegrees>-8.022688329219818115234375</LongitudeDegrees>
            </Position>
            <AltitudeMeters>431</AltitudeMeters>
            <DistanceMeters>48342.278773542</DistanceMeters>
          </Trackpoint>
          <Trackpoint>
            <Time>2019-07-26T11:56:49.000Z</Time>
            <Position>
              <LatitudeDegrees>42.912420295178890228271484375</LatitudeDegrees>
              <LongitudeDegrees>-8.02261230535805225372314453125</LongitudeDegrees>
            </Position>
            <AltitudeMeters>430.20001220703125</AltitudeMeters>
            <DistanceMeters>48354.218909508</DistanceMeters>
          </Trackpoint>
          <Trackpoint>
            <Time>2019-07-26T11:56:50.000Z</Time>
            <Position>
              <LatitudeDegrees>42.9123922996222972869873046875</LatitudeDegrees>
              <LongitudeDegrees>-8.02264616824686527252197265625</LongitudeDegrees>
            </Position>
            <AltitudeMeters>429.79998779296875</AltitudeMeters>
            <DistanceMeters>48358.380602267</DistanceMeters>
          </Trackpoint>
          <Trackpoint>
            <Time>2019-07-26T11:56:52.000Z</Time>
            <Position>
              <LatitudeDegrees>42.91233320720493793487548828125</LatitudeDegrees>
              <LongitudeDegrees>-8.022741638123989105224609375</LongitudeDegrees>
            </Position>
            <AltitudeMeters>429.20001220703125</AltitudeMeters>
            <DistanceMeters>48368.569309683</DistanceMeters>
          </Trackpoint>
          <Trackpoint>
            <Time>2019-07-26T11:56:53.000Z</Time>
            <Position>
              <LatitudeDegrees>42.9123014397919178009033203125</LatitudeDegrees>
              <LongitudeDegrees>-8.02279360592365264892578125</LongitudeDegrees>
            </Position>
            <AltitudeMeters>429</AltitudeMeters>
            <DistanceMeters>48374.086590507</DistanceMeters>
          </Trackpoint>
          <Trackpoint>
            <Time>2019-07-26T11:56:57.000Z</Time>
            <Position>
              <LatitudeDegrees>42.91215484030544757843017578125</LatitudeDegrees>
              <LongitudeDegrees>-8.0230117030441761016845703125</LongitudeDegrees>
            </Position>
            <AltitudeMeters>428.79998779296875</AltitudeMeters>
            <DistanceMeters>48398.21776349</DistanceMeters>
          </Trackpoint>
          <Trackpoint>
            <Time>2019-07-26T11:57:00.000Z</Time>
            <Position>
              <LatitudeDegrees>42.912032045423984527587890625</LatitudeDegrees>
              <LongitudeDegrees>-8.02319048903882503509521484375</LongitudeDegrees>
            </Position>
            <AltitudeMeters>428.600006103515625</AltitudeMeters>
            <DistanceMeters>48418.197794007</DistanceMeters>
          </Trackpoint>
          <Trackpoint>
            <Time>2019-07-26T11:57:06.000Z</Time>
            <Position>
              <LatitudeDegrees>42.91177229024469852447509765625</LatitudeDegrees>
              <LongitudeDegrees>-8.0235739611089229583740234375</LongitudeDegrees>
            </Position>
            <AltitudeMeters>428.399993896484375</AltitudeMeters>
            <DistanceMeters>48460.777397435</DistanceMeters>
          </Trackpoint>
          <Trackpoint>
            <Time>2019-07-26T11:57:08.000Z</Time>
            <Position>
              <LatitudeDegrees>42.91168394498527050018310546875</LatitudeDegrees>
              <LongitudeDegrees>-8.0237074010074138641357421875</LongitudeDegrees>
            </Position>
            <AltitudeMeters>428.20001220703125</AltitudeMeters>
            <DistanceMeters>48475.440484427</DistanceMeters>
          </Trackpoint>
          <Trackpoint>
            <Time>2019-07-26T11:57:09.000Z</Time>
            <Position>
              <LatitudeDegrees>42.911638431251049041748046875</LatitudeDegrees>
              <LongitudeDegrees>-8.02377353422343730926513671875</LongitudeDegrees>
            </Position>
            <AltitudeMeters>428</AltitudeMeters>
            <DistanceMeters>48482.837934207</DistanceMeters>
          </Trackpoint>
          <Trackpoint>
            <Time>2019-07-26T11:57:17.000Z</Time>
            <Position>
              <LatitudeDegrees>42.91127893142402172088623046875</LatitudeDegrees>
              <LongitudeDegrees>-8.02428633905947208404541015625</LongitudeDegrees>
            </Position>
            <AltitudeMeters>427.600006103515625</AltitudeMeters>
            <DistanceMeters>48540.704443925</DistanceMeters>
          </Trackpoint>
          <Trackpoint>
            <Time>2019-07-26T11:57:19.000Z</Time>
            <Position>
              <LatitudeDegrees>42.91119008325040340423583984375</LatitudeDegrees>
              <LongitudeDegrees>-8.024399243295192718505859375</LongitudeDegrees>
            </Position>
            <AltitudeMeters>427.399993896484375</AltitudeMeters>
            <DistanceMeters>48554.213620249</DistanceMeters>
          </Trackpoint>
          <Trackpoint>
            <Time>2019-07-26T11:57:21.000Z</Time>
            <Position>
              <LatitudeDegrees>42.91113979183137416839599609375</LatitudeDegrees>
              <LongitudeDegrees>-8.02451851777732372283935546875</LongitudeDegrees>
            </Position>
            <AltitudeMeters>427.399993896484375</AltitudeMeters>
            <DistanceMeters>48565.432408306</DistanceMeters>
          </Trackpoint>
          <Trackpoint>
            <Time>2019-07-26T11:57:23.000Z</Time>
            <Position>
              <LatitudeDegrees>42.91114901192486286163330078125</LatitudeDegrees>
              <LongitudeDegrees>-8.02463754080235958099365234375</LongitudeDegrees>
            </Position>
            <AltitudeMeters>427.20001220703125</AltitudeMeters>
            <DistanceMeters>48575.189204187</DistanceMeters>
          </Trackpoint>
          <Trackpoint>
            <Time>2019-07-26T11:57:24.000Z</Time>
            <Position>
              <LatitudeDegrees>42.9111591540277004241943359375</LatitudeDegrees>
              <LongitudeDegrees>-8.024694956839084625244140625</LongitudeDegrees>
            </Position>
            <AltitudeMeters>427.20001220703125</AltitudeMeters>
            <DistanceMeters>48580.004724544</DistanceMeters>
          </Trackpoint>
          <Trackpoint>
            <Time>2019-07-26T11:57:26.000Z</Time>
            <Position>
              <LatitudeDegrees>42.91116393171250820159912109375</LatitudeDegrees>
              <LongitudeDegrees>-8.02478942088782787322998046875</LongitudeDegrees>
            </Position>
            <AltitudeMeters>427</AltitudeMeters>
            <DistanceMeters>48587.723561528</DistanceMeters>
          </Trackpoint>
          <Trackpoint>
            <Time>2019-07-26T11:57:28.000Z</Time>
            <Position>
              <LatitudeDegrees>42.91116644628345966339111328125</LatitudeDegrees>
              <LongitudeDegrees>-8.0248366110026836395263671875</LongitudeDegrees>
            </Position>
            <AltitudeMeters>426.600006103515625</AltitudeMeters>
            <DistanceMeters>48591.581224807</DistanceMeters>
          </Trackpoint>
          <Trackpoint>
            <Time>2019-07-26T11:57:30.000Z</Time>
            <Position>
              <LatitudeDegrees>42.911169044673442840576171875</LatitudeDegrees>
              <LongitudeDegrees>-8.0248379521071910858154296875</LongitudeDegrees>
            </Position>
            <AltitudeMeters>426.20001220703125</AltitudeMeters>
            <DistanceMeters>48591.896392764</DistanceMeters>
          </Trackpoint>
          <Trackpoint>
            <Time>2019-07-26T11:58:30.000Z</Time>
            <Position>
              <LatitudeDegrees>42.911219336092472076416015625</LatitudeDegrees>
              <LongitudeDegrees>-8.024914897978305816650390625</LongitudeDegrees>
            </Position>
            <AltitudeMeters>423.600006103515625</AltitudeMeters>
            <DistanceMeters>48600.302900853</DistanceMeters>
          </Trackpoint>
          <Trackpoint>
            <Time>2019-07-26T11:58:31.000Z</Time>
            <Position>
              <LatitudeDegrees>42.91123685427010059356689453125</LatitudeDegrees>
              <LongitudeDegrees>-8.02493325434625148773193359375</LongitudeDegrees>
            </Position>
            <AltitudeMeters>423.600006103515625</AltitudeMeters>
            <DistanceMeters>48602.760770081</DistanceMeters>
          </Trackpoint>
          <Trackpoint>
            <Time>2019-07-26T11:58:34.000Z</Time>
            <Position>
              <LatitudeDegrees>42.91129385121166706085205078125</LatitudeDegrees>
              <LongitudeDegrees>-8.02500508725643157958984375</LongitudeDegrees>
            </Position>
            <AltitudeMeters>423.600006103515625</AltitudeMeters>
            <DistanceMeters>48611.394092209</DistanceMeters>
          </Trackpoint>
          <Trackpoint>
            <Time>2019-07-26T11:58:37.000Z</Time>
            <Position>
              <LatitudeDegrees>42.911346741020679473876953125</LatitudeDegrees>
              <LongitudeDegrees>-8.02513056434690952301025390625</LongitudeDegrees>
            </Position>
            <AltitudeMeters>423.600006103515625</AltitudeMeters>
            <DistanceMeters>48623.195782727</DistanceMeters>
          </Trackpoint>
          <Trackpoint>
            <Time>2019-07-26T11:58:41.000Z</Time>
            <Position>
              <LatitudeDegrees>42.91142611764371395111083984375</LatitudeDegrees>
              <LongitudeDegrees>-8.02537598647177219390869140625</LongitudeDegrees>
            </Position>
            <AltitudeMeters>423.399993896484375</AltitudeMeters>
            <DistanceMeters>48645.066382838</DistanceMeters>
          </Trackpoint>
          <Trackpoint>
            <Time>2019-07-26T11:58:42.000Z</Time>
            <Position>
              <LatitudeDegrees>42.91144095361232757568359375</LatitudeDegrees>
              <LongitudeDegrees>-8.0254491604864597320556640625</LongitudeDegrees>
            </Position>
            <AltitudeMeters>423.399993896484375</AltitudeMeters>
            <DistanceMeters>48651.256992213</DistanceMeters>
          </Trackpoint>
          <Trackpoint>
            <Time>2019-07-26T11:58:47.000Z</Time>
            <Position>
              <LatitudeDegrees>42.91154530830681324005126953125</LatitudeDegrees>
              <LongitudeDegrees>-8.02580497227609157562255859375</LongitudeDegrees>
            </Position>
            <AltitudeMeters>422.79998779296875</AltitudeMeters>
            <DistanceMeters>48682.501278795</DistanceMeters>
          </Trackpoint>
          <Trackpoint>
            <Time>2019-07-26T11:58:49.000Z</Time>
            <Position>
              <LatitudeDegrees>42.91158637963235378265380859375</LatitudeDegrees>
              <LongitudeDegrees>-8.02597730420529842376708984375</LongitudeDegrees>
            </Position>
            <AltitudeMeters>422.399993896484375</AltitudeMeters>
            <DistanceMeters>48697.274800638</DistanceMeters>
          </Trackpoint>
          <Trackpoint>
            <Time>2019-07-26T11:58:52.000Z</Time>
            <Position>
              <LatitudeDegrees>42.91164387948811054229736328125</LatitudeDegrees>
              <LongitudeDegrees>-8.0262350477278232574462890625</LongitudeDegrees>
            </Position>
            <AltitudeMeters>421.20001220703125</AltitudeMeters>
            <DistanceMeters>48719.238720458</DistanceMeters>
          </Trackpoint>
          <Trackpoint>
            <Time>2019-07-26T11:58:53.000Z</Time>
            <Position>
              <LatitudeDegrees>42.911672294139862060546875</LatitudeDegrees>
              <LongitudeDegrees>-8.02632800303399562835693359375</LongitudeDegrees>
            </Position>
            <AltitudeMeters>420.79998779296875</AltitudeMeters>
            <DistanceMeters>48727.44960048</DistanceMeters>
          </Trackpoint>
          <Trackpoint>
            <Time>2019-07-26T11:58:54.000Z</Time>
            <Position>
              <LatitudeDegrees>42.91170925833284854888916015625</LatitudeDegrees>
              <LongitudeDegrees>-8.026422969996929168701171875</LongitudeDegrees>
            </Position>
            <AltitudeMeters>420.399993896484375</AltitudeMeters>
            <DistanceMeters>48736.216297727</DistanceMeters>
          </Trackpoint>
          <Trackpoint>
            <Time>2019-07-26T11:58:56.000Z</Time>
            <Position>
              <LatitudeDegrees>42.91178452782332897186279296875</LatitudeDegrees>
              <LongitudeDegrees>-8.026608712971210479736328125</LongitudeDegrees>
            </Position>
            <AltitudeMeters>420</AltitudeMeters>
            <DistanceMeters>48753.52107727</DistanceMeters>
          </Trackpoint>
          <Trackpoint>
            <Time>2019-07-26T11:58:58.000Z</Time>
            <Position>
              <LatitudeDegrees>42.9118595458567142486572265625</LatitudeDegrees>
              <LongitudeDegrees>-8.026793785393238067626953125</LongitudeDegrees>
            </Position>
            <AltitudeMeters>419.399993896484375</AltitudeMeters>
            <DistanceMeters>48770.764171453</DistanceMeters>
          </Trackpoint>
          <Trackpoint>
            <Time>2019-07-26T11:58:59.000Z</Time>
            <Position>
              <LatitudeDegrees>42.91188645176589488983154296875</LatitudeDegrees>
              <LongitudeDegrees>-8.026895038783550262451171875</LongitudeDegrees>
            </Position>
            <AltitudeMeters>418.79998779296875</AltitudeMeters>
            <DistanceMeters>48779.544763271</DistanceMeters>
          </Trackpoint>
          <Trackpoint>
            <Time>2019-07-26T11:59:03.000Z</Time>
            <Position>
              <LatitudeDegrees>42.9119946621358394622802734375</LatitudeDegrees>
              <LongitudeDegrees>-8.02728638984262943267822265625</LongitudeDegrees>
            </Position>
            <AltitudeMeters>417.79998779296875</AltitudeMeters>
            <DistanceMeters>48813.644527399</DistanceMeters>
          </Trackpoint>
          <Trackpoint>
            <Time>2019-07-26T11:59:04.000Z</Time>
            <Position>
              <LatitudeDegrees>42.9120117612183094024658203125</LatitudeDegrees>
              <LongitudeDegrees>-8.027385883033275604248046875</LongitudeDegrees>
            </Position>
            <AltitudeMeters>417.20001220703125</AltitudeMeters>
            <DistanceMeters>48821.97496181</DistanceMeters>
          </Trackpoint>
          <Trackpoint>
            <Time>2019-07-26T11:59:05.000Z</Time>
            <Position>
              <LatitudeDegrees>42.912026345729827880859375</LatitudeDegrees>
              <LongitudeDegrees>-8.02748403511941432952880859375</LongitudeDegrees>
            </Position>
            <AltitudeMeters>416.399993896484375</AltitudeMeters>
            <DistanceMeters>48830.138967826</DistanceMeters>
          </Trackpoint>
          <Trackpoint>
            <Time>2019-07-26T11:59:07.000Z</Time>
            <Position>
              <LatitudeDegrees>42.912032045423984527587890625</LatitudeDegrees>
              <LongitudeDegrees>-8.02767698653042316436767578125</LongitudeDegrees>
            </Position>
            <AltitudeMeters>415.399993896484375</AltitudeMeters>
            <DistanceMeters>48845.880738939</DistanceMeters>
          </Trackpoint>
          <Trackpoint>
            <Time>2019-07-26T11:59:09.000Z</Time>
            <Position>
              <LatitudeDegrees>42.9120345599949359893798828125</LatitudeDegrees>
              <LongitudeDegrees>-8.02785736508667469024658203125</LongitudeDegrees>
            </Position>
            <AltitudeMeters>415.20001220703125</AltitudeMeters>
            <DistanceMeters>48860.587485384</DistanceMeters>
          </Trackpoint>
          <Trackpoint>
            <Time>2019-07-26T11:59:11.000Z</Time>
            <Position>
              <LatitudeDegrees>42.91204403154551982879638671875</LatitudeDegrees>
              <LongitudeDegrees>-8.0280203931033611297607421875</LongitudeDegrees>
            </Position>
            <AltitudeMeters>415</AltitudeMeters>
            <DistanceMeters>48873.919025601</DistanceMeters>
          </Trackpoint>
          <Trackpoint>
            <Time>2019-07-26T11:59:13.000Z</Time>
            <Position>
              <LatitudeDegrees>42.9120536707341670989990234375</LatitudeDegrees>
              <LongitudeDegrees>-8.02816816605627536773681640625</LongitudeDegrees>
            </Position>
            <AltitudeMeters>415</AltitudeMeters>
            <DistanceMeters>48886.012831791</DistanceMeters>
          </Trackpoint>
          <Trackpoint>
            <Time>2019-07-26T11:59:15.000Z</Time>
            <Position>
              <LatitudeDegrees>42.91207219474017620086669921875</LatitudeDegrees>
              <LongitudeDegrees>-8.02830688655376434326171875</LongitudeDegrees>
            </Position>
            <AltitudeMeters>415</AltitudeMeters>
            <DistanceMeters>48897.507136836</DistanceMeters>
          </Trackpoint>
          <Trackpoint>
            <Time>2019-07-26T11:59:17.000Z</Time>
            <Position>
              <LatitudeDegrees>42.91209499351680278778076171875</LatitudeDegrees>
              <LongitudeDegrees>-8.02843890152871608734130859375</LongitudeDegrees>
            </Position>
            <AltitudeMeters>415</AltitudeMeters>
            <DistanceMeters>48908.563771717</DistanceMeters>
          </Trackpoint>
          <Trackpoint>
            <Time>2019-07-26T11:59:19.000Z</Time>
            <Position>
              <LatitudeDegrees>42.9121029563248157501220703125</LatitudeDegrees>
              <LongitudeDegrees>-8.0285759456455707550048828125</LongitudeDegrees>
            </Position>
            <AltitudeMeters>415.20001220703125</AltitudeMeters>
            <DistanceMeters>48919.770076777</DistanceMeters>
          </Trackpoint>
          <Trackpoint>
            <Time>2019-07-26T11:59:21.000Z</Time>
            <Position>
              <LatitudeDegrees>42.9121073149144649505615234375</LatitudeDegrees>
              <LongitudeDegrees>-8.02869237028062343597412109375</LongitudeDegrees>
            </Position>
            <AltitudeMeters>415.20001220703125</AltitudeMeters>
            <DistanceMeters>48929.273223336</DistanceMeters>
          </Trackpoint>
          <Trackpoint>
            <Time>2019-07-26T11:59:22.000Z</Time>
            <Position>
              <LatitudeDegrees>42.91212030686438083648681640625</LatitudeDegrees>
              <LongitudeDegrees>-8.028755486011505126953125</LongitudeDegrees>
            </Position>
            <AltitudeMeters>415.399993896484375</AltitudeMeters>
            <DistanceMeters>48934.617578469</DistanceMeters>
          </Trackpoint>
          <Trackpoint>
            <Time>2019-07-26T11:59:25.000Z</Time>
            <Position>
              <LatitudeDegrees>42.9121626354753971099853515625</LatitudeDegrees>
              <LongitudeDegrees>-8.028965033590793609619140625</LongitudeDegrees>
            </Position>
            <AltitudeMeters>415.79998779296875</AltitudeMeters>
            <DistanceMeters>48952.33719438</DistanceMeters>
          </Trackpoint>
          <Trackpoint>
            <Time>2019-07-26T11:59:26.000Z</Time>
            <Position>
              <LatitudeDegrees>42.91217428632080554962158203125</LatitudeDegrees>
              <LongitudeDegrees>-8.0290419794619083404541015625</LongitudeDegrees>
            </Position>
            <AltitudeMeters>415.79998779296875</AltitudeMeters>
            <DistanceMeters>48958.742869002</DistanceMeters>
          </Trackpoint>
          <Trackpoint>
            <Time>2019-07-26T11:59:29.000Z</Time>
            <Position>
              <LatitudeDegrees>42.9122089035809040069580078125</LatitudeDegrees>
              <LongitudeDegrees>-8.02926803939044475555419921875</LongitudeDegrees>
            </Position>
            <AltitudeMeters>416.20001220703125</AltitudeMeters>
            <DistanceMeters>48977.569193668</DistanceMeters>
          </Trackpoint>
          <Trackpoint>
            <Time>2019-07-26T11:59:30.000Z</Time>
            <Position>
              <LatitudeDegrees>42.91221485473215579986572265625</LatitudeDegrees>
              <LongitudeDegrees>-8.02933978848159313201904296875</LongitudeDegrees>
            </Position>
            <AltitudeMeters>416.20001220703125</AltitudeMeters>
            <DistanceMeters>48983.45471601</DistanceMeters>
          </Trackpoint>
          <Trackpoint>
            <Time>2019-07-26T11:59:32.000Z</Time>
            <Position>
              <LatitudeDegrees>42.91221284307539463043212890625</LatitudeDegrees>
              <LongitudeDegrees>-8.02948563359677791595458984375</LongitudeDegrees>
            </Position>
            <AltitudeMeters>416.79998779296875</AltitudeMeters>
            <DistanceMeters>48995.345592217</DistanceMeters>
          </Trackpoint>
          <Trackpoint>
            <Time>2019-07-26T11:59:33.000Z</Time>
            <Position>
              <LatitudeDegrees>42.912214100360870361328125</LatitudeDegrees>
              <LongitudeDegrees>-8.02955570630729198455810546875</LongitudeDegrees>
            </Position>
            <AltitudeMeters>416.79998779296875</AltitudeMeters>
            <DistanceMeters>49001.059061071</DistanceMeters>
          </Trackpoint>
          <Trackpoint>
            <Time>2019-07-26T11:59:37.000Z</Time>
            <Position>
              <LatitudeDegrees>42.91221468709409236907958984375</LatitudeDegrees>
              <LongitudeDegrees>-8.02983113564550876617431640625</LongitudeDegrees>
            </Position>
            <AltitudeMeters>417.20001220703125</AltitudeMeters>
            <DistanceMeters>49023.511120829</DistanceMeters>
          </Trackpoint>
          <Trackpoint>
            <Time>2019-07-26T11:59:42.000Z</Time>
            <Position>
              <LatitudeDegrees>42.9122001864016056060791015625</LatitudeDegrees>
              <LongitudeDegrees>-8.03021033294498920440673828125</LongitudeDegrees>
            </Position>
            <AltitudeMeters>417.399993896484375</AltitudeMeters>
            <DistanceMeters>49054.464459435</DistanceMeters>
          </Trackpoint>
          <Trackpoint>
            <Time>2019-07-26T11:59:43.000Z</Time>
            <Position>
              <LatitudeDegrees>42.91220630519092082977294921875</LatitudeDegrees>
              <LongitudeDegrees>-8.030286692082881927490234375</LongitudeDegrees>
            </Position>
            <AltitudeMeters>417.399993896484375</AltitudeMeters>
            <DistanceMeters>49060.727577834</DistanceMeters>
          </Trackpoint>
          <Trackpoint>
            <Time>2019-07-26T11:59:48.000Z</Time>
            <Position>
              <LatitudeDegrees>42.91219331324100494384765625</LatitudeDegrees>
              <LongitudeDegrees>-8.03067334927618503570556640625</LongitudeDegrees>
            </Position>
            <AltitudeMeters>417.399993896484375</AltitudeMeters>
            <DistanceMeters>49092.279881518</DistanceMeters>
          </Trackpoint>
          <Trackpoint>
            <Time>2019-07-26T11:59:49.000Z</Time>
            <Position>
              <LatitudeDegrees>42.91218736208975315093994140625</LatitudeDegrees>
              <LongitudeDegrees>-8.03074090741574764251708984375</LongitudeDegrees>
            </Position>
            <AltitudeMeters>417.399993896484375</AltitudeMeters>
            <DistanceMeters>49097.82573045</DistanceMeters>
          </Trackpoint>
          <Trackpoint>
            <Time>2019-07-26T11:59:55.000Z</Time>
            <Position>
              <LatitudeDegrees>42.9121321253478527069091796875</LatitudeDegrees>
              <LongitudeDegrees>-8.03120861761271953582763671875</LongitudeDegrees>
            </Position>
            <AltitudeMeters>417.20001220703125</AltitudeMeters>
            <DistanceMeters>49136.444708759</DistanceMeters>
          </Trackpoint>
          <Trackpoint>
            <Time>2019-07-26T11:59:59.000Z</Time>
            <Position>
              <LatitudeDegrees>42.91206431575119495391845703125</LatitudeDegrees>
              <LongitudeDegrees>-8.0315488390624523162841796875</LongitudeDegrees>
            </Position>
            <AltitudeMeters>417</AltitudeMeters>
            <DistanceMeters>49165.187266119</DistanceMeters>
          </Trackpoint>
          <Trackpoint>
            <Time>2019-07-26T12:00:03.000Z</Time>
            <Position>
              <LatitudeDegrees>42.912011258304119110107421875</LatitudeDegrees>
              <LongitudeDegrees>-8.03188922815024852752685546875</LongitudeDegrees>
            </Position>
            <AltitudeMeters>416.20001220703125</AltitudeMeters>
            <DistanceMeters>49193.556202176</DistanceMeters>
          </Trackpoint>
          <Trackpoint>
            <Time>2019-07-26T12:00:04.000Z</Time>
            <Position>
              <LatitudeDegrees>42.9120117612183094024658203125</LatitudeDegrees>
              <LongitudeDegrees>-8.03197002969682216644287109375</LongitudeDegrees>
            </Position>
            <AltitudeMeters>416.20001220703125</AltitudeMeters>
            <DistanceMeters>49200.143959563</DistanceMeters>
          </Trackpoint>
          <Trackpoint>
            <Time>2019-07-26T12:00:08.000Z</Time>
            <Position>
              <LatitudeDegrees>42.91204704903066158294677734375</LatitudeDegrees>
              <LongitudeDegrees>-8.03226775489747524261474609375</LongitudeDegrees>
            </Position>
            <AltitudeMeters>416</AltitudeMeters>
            <DistanceMeters>49224.729631346</DistanceMeters>
          </Trackpoint>
          <Trackpoint>
            <Time>2019-07-26T12:00:10.000Z</Time>
            <Position>
              <LatitudeDegrees>42.9120694287121295928955078125</LatitudeDegrees>
              <LongitudeDegrees>-8.03241175599396228790283203125</LongitudeDegrees>
            </Position>
            <AltitudeMeters>416</AltitudeMeters>
            <DistanceMeters>49236.729364633</DistanceMeters>
          </Trackpoint>
          <Trackpoint>
            <Time>2019-07-26T12:00:12.000Z</Time>
            <Position>
              <LatitudeDegrees>42.9120580293238162994384765625</LatitudeDegrees>
              <LongitudeDegrees>-8.032543100416660308837890625</LongitudeDegrees>
            </Position>
            <AltitudeMeters>416</AltitudeMeters>
            <DistanceMeters>49247.511023785</DistanceMeters>
          </Trackpoint>
          <Trackpoint>
            <Time>2019-07-26T12:00:15.000Z</Time>
            <Position>
              <LatitudeDegrees>42.91203103959560394287109375</LatitudeDegrees>
              <LongitudeDegrees>-8.03273177705705165863037109375</LongitudeDegrees>
            </Position>
            <AltitudeMeters>416.20001220703125</AltitudeMeters>
            <DistanceMeters>49263.182078599</DistanceMeters>
          </Trackpoint>
          <Trackpoint>
            <Time>2019-07-26T12:00:16.000Z</Time>
            <Position>
              <LatitudeDegrees>42.91202894411981105804443359375</LatitudeDegrees>
              <LongitudeDegrees>-8.0327927134931087493896484375</LongitudeDegrees>
            </Position>
            <AltitudeMeters>416.399993896484375</AltitudeMeters>
            <DistanceMeters>49268.153529013</DistanceMeters>
          </Trackpoint>
          <Trackpoint>
            <Time>2019-07-26T12:00:18.000Z</Time>
            <Position>
              <LatitudeDegrees>42.91202542372047901153564453125</LatitudeDegrees>
              <LongitudeDegrees>-8.03290796466171741485595703125</LongitudeDegrees>
            </Position>
            <AltitudeMeters>416.79998779296875</AltitudeMeters>
            <DistanceMeters>49277.555892992</DistanceMeters>
          </Trackpoint>
          <Trackpoint>
            <Time>2019-07-26T12:00:21.000Z</Time>
            <Position>
              <LatitudeDegrees>42.91202961467206478118896484375</LatitudeDegrees>
              <LongitudeDegrees>-8.03308364935219287872314453125</LongitudeDegrees>
            </Position>
            <AltitudeMeters>418</AltitudeMeters>
            <DistanceMeters>49291.884774599</DistanceMeters>
          </Trackpoint>
          <Trackpoint>
            <Time>2019-07-26T12:00:24.000Z</Time>
            <Position>
              <LatitudeDegrees>42.91202877648174762725830078125</LatitudeDegrees>
              <LongitudeDegrees>-8.03324776701629161834716796875</LongitudeDegrees>
            </Position>
            <AltitudeMeters>418.600006103515625</AltitudeMeters>
            <DistanceMeters>49305.263645077</DistanceMeters>
          </Trackpoint>
          <Trackpoint>
            <Time>2019-07-26T12:00:28.000Z</Time>
            <Position>
              <LatitudeDegrees>42.91203548200428485870361328125</LatitudeDegrees>
              <LongitudeDegrees>-8.0334267206490039825439453125</LongitudeDegrees>
            </Position>
            <AltitudeMeters>419</AltitudeMeters>
            <DistanceMeters>49319.870583368</DistanceMeters>
          </Trackpoint>
          <Trackpoint>
            <Time>2019-07-26T12:00:33.000Z</Time>
            <Position>
              <LatitudeDegrees>42.91205920279026031494140625</LatitudeDegrees>
              <LongitudeDegrees>-8.0336835421621799468994140625</LongitudeDegrees>
            </Position>
            <AltitudeMeters>420.399993896484375</AltitudeMeters>
            <DistanceMeters>49340.971863883</DistanceMeters>
          </Trackpoint>
          <Trackpoint>
            <Time>2019-07-26T12:00:35.000Z</Time>
            <Position>
              <LatitudeDegrees>42.91207395493984222412109375</LatitudeDegrees>
              <LongitudeDegrees>-8.03377012722194194793701171875</LongitudeDegrees>
            </Position>
            <AltitudeMeters>420.79998779296875</AltitudeMeters>
            <DistanceMeters>49348.21823501</DistanceMeters>
          </Trackpoint>
          <Trackpoint>
            <Time>2019-07-26T12:00:39.000Z</Time>
            <Position>
              <LatitudeDegrees>42.9121054708957672119140625</LatitudeDegrees>
              <LongitudeDegrees>-8.03397045470774173736572265625</LongitudeDegrees>
            </Position>
            <AltitudeMeters>421.399993896484375</AltitudeMeters>
            <DistanceMeters>49364.920785165</DistanceMeters>
          </Trackpoint>
          <Trackpoint>
            <Time>2019-07-26T12:00:41.000Z</Time>
            <Position>
              <LatitudeDegrees>42.9121140204370021820068359375</LatitudeDegrees>
              <LongitudeDegrees>-8.034092076122760772705078125</LongitudeDegrees>
            </Position>
            <AltitudeMeters>421.600006103515625</AltitudeMeters>
            <DistanceMeters>49374.880926721</DistanceMeters>
          </Trackpoint>
          <Trackpoint>
            <Time>2019-07-26T12:00:45.000Z</Time>
            <Position>
              <LatitudeDegrees>42.9121562652289867401123046875</LatitudeDegrees>
              <LongitudeDegrees>-8.0343304574489593505859375</LongitudeDegrees>
            </Position>
            <AltitudeMeters>422.399993896484375</AltitudeMeters>
            <DistanceMeters>49394.874059639</DistanceMeters>
          </Trackpoint>
          <Trackpoint>
            <Time>2019-07-26T12:00:48.000Z</Time>
            <Position>
              <LatitudeDegrees>42.912193648517131805419921875</LatitudeDegrees>
              <LongitudeDegrees>-8.03449063561856746673583984375</LongitudeDegrees>
            </Position>
            <AltitudeMeters>422.79998779296875</AltitudeMeters>
            <DistanceMeters>49408.57768944</DistanceMeters>
          </Trackpoint>
          <Trackpoint>
            <Time>2019-07-26T12:00:52.000Z</Time>
            <Position>
              <LatitudeDegrees>42.9122476279735565185546875</LatitudeDegrees>
              <LongitudeDegrees>-8.0346967466175556182861328125</LongitudeDegrees>
            </Position>
            <AltitudeMeters>423.600006103515625</AltitudeMeters>
            <DistanceMeters>49426.42096367</DistanceMeters>
          </Trackpoint>
          <Trackpoint>
            <Time>2019-07-26T12:00:54.000Z</Time>
            <Position>
              <LatitudeDegrees>42.9122846759855747222900390625</LatitudeDegrees>
              <LongitudeDegrees>-8.0347956530749797821044921875</LongitudeDegrees>
            </Position>
            <AltitudeMeters>424</AltitudeMeters>
            <DistanceMeters>49435.476964678</DistanceMeters>
          </Trackpoint>
          <Trackpoint>
            <Time>2019-07-26T12:00:55.000Z</Time>
            <Position>
              <LatitudeDegrees>42.91230001486837863922119140625</LatitudeDegrees>
              <LongitudeDegrees>-8.03484971635043621063232421875</LongitudeDegrees>
            </Position>
            <AltitudeMeters>424.600006103515625</AltitudeMeters>
            <DistanceMeters>49440.203528877</DistanceMeters>
          </Trackpoint>
          <Trackpoint>
            <Time>2019-07-26T12:01:00.000Z</Time>
            <Position>
              <LatitudeDegrees>42.91236371733248233795166015625</LatitudeDegrees>
              <LongitudeDegrees>-8.0351275764405727386474609375</LongitudeDegrees>
            </Position>
            <AltitudeMeters>425.399993896484375</AltitudeMeters>
            <DistanceMeters>49463.93777057</DistanceMeters>
          </Trackpoint>
          <Trackpoint>
            <Time>2019-07-26T12:01:07.000Z</Time>
            <Position>
              <LatitudeDegrees>42.91244870983064174652099609375</LatitudeDegrees>
              <LongitudeDegrees>-8.0354980565607547760009765625</LongitudeDegrees>
            </Position>
            <AltitudeMeters>425.600006103515625</AltitudeMeters>
            <DistanceMeters>49495.585233323</DistanceMeters>
          </Trackpoint>
          <Trackpoint>
            <Time>2019-07-26T12:01:11.000Z</Time>
            <Position>
              <LatitudeDegrees>42.9125257395207881927490234375</LatitudeDegrees>
              <LongitudeDegrees>-8.03575831465423107147216796875</LongitudeDegrees>
            </Position>
            <AltitudeMeters>425.600006103515625</AltitudeMeters>
            <DistanceMeters>49518.467539861</DistanceMeters>
          </Trackpoint>
          <Trackpoint>
            <Time>2019-07-26T12:01:13.000Z</Time>
            <Position>
              <LatitudeDegrees>42.91255717165768146514892578125</LatitudeDegrees>
              <LongitudeDegrees>-8.03590684197843074798583984375</LongitudeDegrees>
            </Position>
            <AltitudeMeters>425.600006103515625</AltitudeMeters>
            <DistanceMeters>49531.070676163</DistanceMeters>
          </Trackpoint>
          <Trackpoint>
            <Time>2019-07-26T12:01:14.000Z</Time>
            <Position>
              <LatitudeDegrees>42.912569157779216766357421875</LatitudeDegrees>
              <LongitudeDegrees>-8.035990409553050994873046875</LongitudeDegrees>
            </Position>
            <AltitudeMeters>425.600006103515625</AltitudeMeters>
            <DistanceMeters>49538.012180893</DistanceMeters>
          </Trackpoint>
          <Trackpoint>
            <Time>2019-07-26T12:01:17.000Z</Time>
            <Position>
              <LatitudeDegrees>42.9125669784843921661376953125</LatitudeDegrees>
              <LongitudeDegrees>-8.0362480692565441131591796875</LongitudeDegrees>
            </Position>
            <AltitudeMeters>425.399993896484375</AltitudeMeters>
            <DistanceMeters>49559.017599127</DistanceMeters>
          </Trackpoint>
          <Trackpoint>
            <Time>2019-07-26T12:01:21.000Z</Time>
            <Position>
              <LatitudeDegrees>42.91256471537053585052490234375</LatitudeDegrees>
              <LongitudeDegrees>-8.03655711002647876739501953125</LongitudeDegrees>
            </Position>
            <AltitudeMeters>425.399993896484375</AltitudeMeters>
            <DistanceMeters>49584.210971531</DistanceMeters>
          </Trackpoint>
          <Trackpoint>
            <Time>2019-07-26T12:01:23.000Z</Time>
            <Position>
              <LatitudeDegrees>42.91258047334849834442138671875</LatitudeDegrees>
              <LongitudeDegrees>-8.036701865494251251220703125</LongitudeDegrees>
            </Position>
            <AltitudeMeters>425.399993896484375</AltitudeMeters>
            <DistanceMeters>49596.14051489</DistanceMeters>
          </Trackpoint>
          <Trackpoint>
            <Time>2019-07-26T12:01:25.000Z</Time>
            <Position>
              <LatitudeDegrees>42.9125978238880634307861328125</LatitudeDegrees>
              <LongitudeDegrees>-8.03683631122112274169921875</LongitudeDegrees>
            </Position>
            <AltitudeMeters>425.399993896484375</AltitudeMeters>
            <DistanceMeters>49607.269599691</DistanceMeters>
          </Trackpoint>
          <Trackpoint>
            <Time>2019-07-26T12:01:26.000Z</Time>
            <Position>
              <LatitudeDegrees>42.912609390914440155029296875</LatitudeDegrees>
              <LongitudeDegrees>-8.036899678409099578857421875</LongitudeDegrees>
            </Position>
            <AltitudeMeters>425.399993896484375</AltitudeMeters>
            <DistanceMeters>49612.592792331</DistanceMeters>
          </Trackpoint>
          <Trackpoint>
            <Time>2019-07-26T12:01:27.000Z</Time>
            <Position>
              <LatitudeDegrees>42.9126216284930706024169921875</LatitudeDegrees>
              <LongitudeDegrees>-8.03696162067353725433349609375</LongitudeDegrees>
            </Position>
            <AltitudeMeters>425.399993896484375</AltitudeMeters>
            <DistanceMeters>49617.821852617</DistanceMeters>
          </Trackpoint>
          <Trackpoint>
            <Time>2019-07-26T12:01:29.000Z</Time>
            <Position>
              <LatitudeDegrees>42.91265507228672504425048828125</LatitudeDegrees>
              <LongitudeDegrees>-8.03708684630692005157470703125</LongitudeDegrees>
            </Position>
            <AltitudeMeters>425.20001220703125</AltitudeMeters>
            <DistanceMeters>49628.687358561</DistanceMeters>
          </Trackpoint>
          <Trackpoint>
            <Time>2019-07-26T12:01:30.000Z</Time>
            <Position>
              <LatitudeDegrees>42.912675105035305023193359375</LatitudeDegrees>
              <LongitudeDegrees>-8.0371489562094211578369140625</LongitudeDegrees>
            </Position>
            <AltitudeMeters>425</AltitudeMeters>
            <DistanceMeters>49634.22016609</DistanceMeters>
          </Trackpoint>
          <Trackpoint>
            <Time>2019-07-26T12:01:33.000Z</Time>
            <Position>
              <LatitudeDegrees>42.91272841393947601318359375</LatitudeDegrees>
              <LongitudeDegrees>-8.03732338361442089080810546875</LongitudeDegrees>
            </Position>
            <AltitudeMeters>424.399993896484375</AltitudeMeters>
            <DistanceMeters>49649.627393275</DistanceMeters>
          </Trackpoint>
          <Trackpoint>
            <Time>2019-07-26T12:01:35.000Z</Time>
            <Position>
              <LatitudeDegrees>42.91276789270341396331787109375</LatitudeDegrees>
              <LongitudeDegrees>-8.0374255590140819549560546875</LongitudeDegrees>
            </Position>
            <AltitudeMeters>424.20001220703125</AltitudeMeters>
            <DistanceMeters>49659.044631764</DistanceMeters>
          </Trackpoint>
          <Trackpoint>
            <Time>2019-07-26T12:01:37.000Z</Time>
            <Position>
              <LatitudeDegrees>42.91280376724898815155029296875</LatitudeDegrees>
              <LongitudeDegrees>-8.03752739913761615753173828125</LongitudeDegrees>
            </Position>
            <AltitudeMeters>423.79998779296875</AltitudeMeters>
            <DistanceMeters>49668.25683337</DistanceMeters>
          </Trackpoint>
          <Trackpoint>
            <Time>2019-07-26T12:01:43.000Z</Time>
            <Position>
              <LatitudeDegrees>42.91292882524430751800537109375</LatitudeDegrees>
              <LongitudeDegrees>-8.0377772636711597442626953125</LongitudeDegrees>
            </Position>
            <AltitudeMeters>423.600006103515625</AltitudeMeters>
            <DistanceMeters>49692.926654247</DistanceMeters>
          </Trackpoint>
          <Trackpoint>
            <Time>2019-07-26T12:01:46.000Z</Time>
            <Position>
              <LatitudeDegrees>42.91296469978988170623779296875</LatitudeDegrees>
              <LongitudeDegrees>-8.03789117373526096343994140625</LongitudeDegrees>
            </Position>
            <AltitudeMeters>423.600006103515625</AltitudeMeters>
            <DistanceMeters>49703.033494739</DistanceMeters>
          </Trackpoint>
          <Trackpoint>
            <Time>2019-07-26T12:01:48.000Z</Time>
            <Position>
              <LatitudeDegrees>42.91299085132777690887451171875</LatitudeDegrees>
              <LongitudeDegrees>-8.03796091116964817047119140625</LongitudeDegrees>
            </Position>
            <AltitudeMeters>423.600006103515625</AltitudeMeters>
            <DistanceMeters>49709.41940307</DistanceMeters>
          </Trackpoint>
          <Trackpoint>
            <Time>2019-07-26T12:01:50.000Z</Time>
            <Position>
              <LatitudeDegrees>42.9130316711962223052978515625</LatitudeDegrees>
              <LongitudeDegrees>-8.03803416900336742401123046875</LongitudeDegrees>
            </Position>
            <AltitudeMeters>423.600006103515625</AltitudeMeters>
            <DistanceMeters>49716.922904029</DistanceMeters>
          </Trackpoint>
          <Trackpoint>
            <Time>2019-07-26T12:01:52.000Z</Time>
            <Position>
              <LatitudeDegrees>42.91306276805698871612548828125</LatitudeDegrees>
              <LongitudeDegrees>-8.0381105281412601470947265625</LongitudeDegrees>
            </Position>
            <AltitudeMeters>423.600006103515625</AltitudeMeters>
            <DistanceMeters>49724.045471646</DistanceMeters>
          </Trackpoint>
          <Trackpoint>
            <Time>2019-07-26T12:01:53.000Z</Time>
            <Position>
              <LatitudeDegrees>42.91307215578854084014892578125</LatitudeDegrees>
              <LongitudeDegrees>-8.03814732469618320465087890625</LongitudeDegrees>
            </Position>
            <AltitudeMeters>423.79998779296875</AltitudeMeters>
            <DistanceMeters>49727.222833046</DistanceMeters>
          </Trackpoint>
          <Trackpoint>
            <Time>2019-07-26T12:01:55.000Z</Time>
            <Position>
              <LatitudeDegrees>42.91307969950139522552490234375</LatitudeDegrees>
              <LongitudeDegrees>-8.0382023938000202178955078125</LongitudeDegrees>
            </Position>
            <AltitudeMeters>424</AltitudeMeters>
            <DistanceMeters>49731.790050643</DistanceMeters>
          </Trackpoint>
          <Trackpoint>
            <Time>2019-07-26T12:01:57.000Z</Time>
            <Position>
              <LatitudeDegrees>42.9131019115447998046875</LatitudeDegrees>
              <LongitudeDegrees>-8.03825427778065204620361328125</LongitudeDegrees>
            </Position>
            <AltitudeMeters>424.20001220703125</AltitudeMeters>
            <DistanceMeters>49736.689228451</DistanceMeters>
          </Trackpoint>
          <Trackpoint>
            <Time>2019-07-26T12:01:58.000Z</Time>
            <Position>
              <LatitudeDegrees>42.91311171837151050567626953125</LatitudeDegrees>
              <LongitudeDegrees>-8.0382815189659595489501953125</LongitudeDegrees>
            </Position>
            <AltitudeMeters>424.600006103515625</AltitudeMeters>
            <DistanceMeters>49739.163575199</DistanceMeters>
          </Trackpoint>
          <Trackpoint>
            <Time>2019-07-26T12:02:00.000Z</Time>
            <Position>
              <LatitudeDegrees>42.91313552297651767730712890625</LatitudeDegrees>
              <LongitudeDegrees>-8.03834639489650726318359375</LongitudeDegrees>
            </Position>
            <AltitudeMeters>425.20001220703125</AltitudeMeters>
            <DistanceMeters>49745.078177142</DistanceMeters>
          </Trackpoint>
          <Trackpoint>
            <Time>2019-07-26T12:02:01.000Z</Time>
            <Position>
              <LatitudeDegrees>42.91314641945064067840576171875</LatitudeDegrees>
              <LongitudeDegrees>-8.03837615065276622772216796875</LongitudeDegrees>
            </Position>
            <AltitudeMeters>425.399993896484375</AltitudeMeters>
            <DistanceMeters>49747.791019249</DistanceMeters>
          </Trackpoint>
          <Trackpoint>
            <Time>2019-07-26T12:02:03.000Z</Time>
            <Position>
              <LatitudeDegrees>42.91316402144730091094970703125</LatitudeDegrees>
              <LongitudeDegrees>-8.03843851201236248016357421875</LongitudeDegrees>
            </Position>
            <AltitudeMeters>426</AltitudeMeters>
            <DistanceMeters>49753.239125459</DistanceMeters>
          </Trackpoint>
          <Trackpoint>
            <Time>2019-07-26T12:02:05.000Z</Time>
            <Position>
              <LatitudeDegrees>42.91318246163427829742431640625</LatitudeDegrees>
              <LongitudeDegrees>-8.0384890548884868621826171875</LongitudeDegrees>
            </Position>
            <AltitudeMeters>426.600006103515625</AltitudeMeters>
            <DistanceMeters>49757.841794178</DistanceMeters>
          </Trackpoint>
          <Trackpoint>
            <Time>2019-07-26T12:02:09.000Z</Time>
            <Position>
              <LatitudeDegrees>42.91319511830806732177734375</LatitudeDegrees>
              <LongitudeDegrees>-8.0385641567409038543701171875</LongitudeDegrees>
            </Position>
            <AltitudeMeters>427.79998779296875</AltitudeMeters>
            <DistanceMeters>49764.124346537</DistanceMeters>
          </Trackpoint>
          <Trackpoint>
            <Time>2019-07-26T12:02:10.000Z</Time>
            <Position>
              <LatitudeDegrees>42.91319419629871845245361328125</LatitudeDegrees>
              <LongitudeDegrees>-8.038571365177631378173828125</LongitudeDegrees>
            </Position>
            <AltitudeMeters>428</AltitudeMeters>
            <DistanceMeters>49764.717788178</DistanceMeters>
          </Trackpoint>
          <Trackpoint>
            <Time>2019-07-26T12:02:37.000Z</Time>
            <Position>
              <LatitudeDegrees>42.91321230120956897735595703125</LatitudeDegrees>
              <LongitudeDegrees>-8.03872592747211456298828125</LongitudeDegrees>
            </Position>
            <AltitudeMeters>429.20001220703125</AltitudeMeters>
            <DistanceMeters>49777.477225791</DistanceMeters>
          </Trackpoint>
          <Trackpoint>
            <Time>2019-07-26T12:02:38.000Z</Time>
            <Position>
              <LatitudeDegrees>42.9132489301264286041259765625</LatitudeDegrees>
              <LongitudeDegrees>-8.03876238875091075897216796875</LongitudeDegrees>
            </Position>
            <AltitudeMeters>429.20001220703125</AltitudeMeters>
            <DistanceMeters>49782.522598472</DistanceMeters>
          </Trackpoint>
          <Trackpoint>
            <Time>2019-07-26T12:02:39.000Z</Time>
            <Position>
              <LatitudeDegrees>42.91329092346131801605224609375</LatitudeDegrees>
              <LongitudeDegrees>-8.0388042144477367401123046875</LongitudeDegrees>
            </Position>
            <AltitudeMeters>429</AltitudeMeters>
            <DistanceMeters>49788.307532638</DistanceMeters>
          </Trackpoint>
          <Trackpoint>
            <Time>2019-07-26T12:02:41.000Z</Time>
            <Position>
              <LatitudeDegrees>42.91337348520755767822265625</LatitudeDegrees>
              <LongitudeDegrees>-8.03891560994088649749755859375</LongitudeDegrees>
            </Position>
            <AltitudeMeters>429</AltitudeMeters>
            <DistanceMeters>49801.226273786</DistanceMeters>
          </Trackpoint>
          <Trackpoint>
            <Time>2019-07-26T12:02:44.000Z</Time>
            <Position>
              <LatitudeDegrees>42.9135188274085521697998046875</LatitudeDegrees>
              <LongitudeDegrees>-8.03908006288111209869384765625</LongitudeDegrees>
            </Position>
            <AltitudeMeters>429</AltitudeMeters>
            <DistanceMeters>49822.235775604</DistanceMeters>
          </Trackpoint>
          <Trackpoint>
            <Time>2019-07-26T12:02:48.000Z</Time>
            <Position>
              <LatitudeDegrees>42.9137230105698108673095703125</LatitudeDegrees>
              <LongitudeDegrees>-8.039245940744876861572265625</LongitudeDegrees>
            </Position>
            <AltitudeMeters>428.79998779296875</AltitudeMeters>
            <DistanceMeters>49848.680021668</DistanceMeters>
          </Trackpoint>
          <Trackpoint>
            <Time>2019-07-26T12:02:50.000Z</Time>
            <Position>
              <LatitudeDegrees>42.91382275521755218505859375</LatitudeDegrees>
              <LongitudeDegrees>-8.039387762546539306640625</LongitudeDegrees>
            </Position>
            <AltitudeMeters>428.20001220703125</AltitudeMeters>
            <DistanceMeters>49864.708299019</DistanceMeters>
          </Trackpoint>
          <Trackpoint>
            <Time>2019-07-26T12:02:51.000Z</Time>
            <Position>
              <LatitudeDegrees>42.91387313045561313629150390625</LatitudeDegrees>
              <LongitudeDegrees>-8.03946915082633495330810546875</LongitudeDegrees>
            </Position>
            <AltitudeMeters>427.79998779296875</AltitudeMeters>
            <DistanceMeters>49873.394801121</DistanceMeters>
          </Trackpoint>
          <Trackpoint>
            <Time>2019-07-26T12:02:52.000Z</Time>
            <Position>
              <LatitudeDegrees>42.913931719958782196044921875</LatitudeDegrees>
              <LongitudeDegrees>-8.03954659961163997650146484375</LongitudeDegrees>
            </Position>
            <AltitudeMeters>427.600006103515625</AltitudeMeters>
            <DistanceMeters>49882.471220426</DistanceMeters>
          </Trackpoint>
          <Trackpoint>
            <Time>2019-07-26T12:02:55.000Z</Time>
            <Position>
              <LatitudeDegrees>42.91413581930100917816162109375</LatitudeDegrees>
              <LongitudeDegrees>-8.039776347577571868896484375</LongitudeDegrees>
            </Position>
            <AltitudeMeters>426.79998779296875</AltitudeMeters>
            <DistanceMeters>49911.912484118</DistanceMeters>
          </Trackpoint>
          <Trackpoint>
            <Time>2019-07-26T12:02:57.000Z</Time>
            <Position>
              <LatitudeDegrees>42.91429038159549236297607421875</LatitudeDegrees>
              <LongitudeDegrees>-8.03991959430277347564697265625</LongitudeDegrees>
            </Position>
            <AltitudeMeters>426.399993896484375</AltitudeMeters>
            <DistanceMeters>49932.704016517</DistanceMeters>
          </Trackpoint>
          <Trackpoint>
            <Time>2019-07-26T12:03:01.000Z</Time>
            <Position>
              <LatitudeDegrees>42.914550304412841796875</LatitudeDegrees>
              <LongitudeDegrees>-8.040199466049671173095703125</LongitudeDegrees>
            </Position>
            <AltitudeMeters>425.79998779296875</AltitudeMeters>
            <DistanceMeters>49969.54694109</DistanceMeters>
          </Trackpoint>
          <Trackpoint>
            <Time>2019-07-26T12:03:02.000Z</Time>
            <Position>
              <LatitudeDegrees>42.914619036018848419189453125</LatitudeDegrees>
              <LongitudeDegrees>-8.04026953876018524169921875</LongitudeDegrees>
            </Position>
            <AltitudeMeters>425.399993896484375</AltitudeMeters>
            <DistanceMeters>49979.093224737</DistanceMeters>
          </Trackpoint>
          <Trackpoint>
            <Time>2019-07-26T12:03:06.000Z</Time>
            <Position>
              <LatitudeDegrees>42.91487862356007099151611328125</LatitudeDegrees>
              <LongitudeDegrees>-8.04058193229138851165771484375</LongitudeDegrees>
            </Position>
            <AltitudeMeters>424.600006103515625</AltitudeMeters>
            <DistanceMeters>50017.605665793</DistanceMeters>
          </Trackpoint>
          <Trackpoint>
            <Time>2019-07-26T12:03:07.000Z</Time>
            <Position>
              <LatitudeDegrees>42.91493830271065235137939453125</LatitudeDegrees>
              <LongitudeDegrees>-8.0406765639781951904296875</LongitudeDegrees>
            </Position>
            <AltitudeMeters>424.399993896484375</AltitudeMeters>
            <DistanceMeters>50027.785062985</DistanceMeters>
          </Trackpoint>
          <Trackpoint>
            <Time>2019-07-26T12:03:09.000Z</Time>
            <Position>
              <LatitudeDegrees>42.91506771929562091827392578125</LatitudeDegrees>
              <LongitudeDegrees>-8.04087705910205841064453125</LongitudeDegrees>
            </Position>
            <AltitudeMeters>424</AltitudeMeters>
            <DistanceMeters>50049.570027928</DistanceMeters>
          </Trackpoint>
          <Trackpoint>
            <Time>2019-07-26T12:03:11.000Z</Time>
            <Position>
              <LatitudeDegrees>42.9151757620275020599365234375</LatitudeDegrees>
              <LongitudeDegrees>-8.04108283482491970062255859375</LongitudeDegrees>
            </Position>
            <AltitudeMeters>423.20001220703125</AltitudeMeters>
            <DistanceMeters>50070.208990257</DistanceMeters>
          </Trackpoint>
          <Trackpoint>
            <Time>2019-07-26T12:03:12.000Z</Time>
            <Position>
              <LatitudeDegrees>42.9152287356555461883544921875</LatitudeDegrees>
              <LongitudeDegrees>-8.0411860160529613494873046875</LongitudeDegrees>
            </Position>
            <AltitudeMeters>423</AltitudeMeters>
            <DistanceMeters>50080.480230839</DistanceMeters>
          </Trackpoint>
          <Trackpoint>
            <Time>2019-07-26T12:03:13.000Z</Time>
            <Position>
              <LatitudeDegrees>42.91526712477207183837890625</LatitudeDegrees>
              <LongitudeDegrees>-8.04127813316881656646728515625</LongitudeDegrees>
            </Position>
            <AltitudeMeters>422</AltitudeMeters>
            <DistanceMeters>50089.119826425</DistanceMeters>
          </Trackpoint>
          <Trackpoint>
            <Time>2019-07-26T12:03:15.000Z</Time>
            <Position>
              <LatitudeDegrees>42.9153128899633884429931640625</LatitudeDegrees>
              <LongitudeDegrees>-8.04141350090503692626953125</LongitudeDegrees>
            </Position>
            <AltitudeMeters>420.20001220703125</AltitudeMeters>
            <DistanceMeters>50101.272847873</DistanceMeters>
          </Trackpoint>
          <Trackpoint>
            <Time>2019-07-26T12:03:17.000Z</Time>
            <Position>
              <LatitudeDegrees>42.91530392132699489593505859375</LatitudeDegrees>
              <LongitudeDegrees>-8.04149304516613483428955078125</LongitudeDegrees>
            </Position>
            <AltitudeMeters>418.399993896484375</AltitudeMeters>
            <DistanceMeters>50107.833133258</DistanceMeters>
          </Trackpoint>
          <Trackpoint>
            <Time>2019-07-26T12:03:18.000Z</Time>
            <Position>
              <LatitudeDegrees>42.91530610062181949615478515625</LatitudeDegrees>
              <LongitudeDegrees>-8.04151953198015689849853515625</LongitudeDegrees>
            </Position>
            <AltitudeMeters>417.399993896484375</AltitudeMeters>
            <DistanceMeters>50110.006317553</DistanceMeters>
          </Trackpoint>
          <Trackpoint>
            <Time>2019-07-26T12:03:19.000Z</Time>
            <Position>
              <LatitudeDegrees>42.91531381197273731231689453125</LatitudeDegrees>
              <LongitudeDegrees>-8.04153797216713428497314453125</LongitudeDegrees>
            </Position>
            <AltitudeMeters>416.399993896484375</AltitudeMeters>
            <DistanceMeters>50111.737786692</DistanceMeters>
          </Trackpoint>
          <Trackpoint>
            <Time>2019-07-26T12:03:20.000Z</Time>
            <Position>
              <LatitudeDegrees>42.91532202623784542083740234375</LatitudeDegrees>
              <LongitudeDegrees>-8.041554652154445648193359375</LongitudeDegrees>
            </Position>
            <AltitudeMeters>415.399993896484375</AltitudeMeters>
            <DistanceMeters>50113.378202121</DistanceMeters>
          </Trackpoint>
          <Trackpoint>
            <Time>2019-07-26T12:03:22.000Z</Time>
            <Position>
              <LatitudeDegrees>42.9153447411954402923583984375</LatitudeDegrees>
              <LongitudeDegrees>-8.0415799655020236968994140625</LongitudeDegrees>
            </Position>
            <AltitudeMeters>413.600006103515625</AltitudeMeters>
            <DistanceMeters>50116.641093497</DistanceMeters>
          </Trackpoint>
          <Trackpoint>
            <Time>2019-07-26T12:03:23.000Z</Time>
            <Position>
              <LatitudeDegrees>42.91536158882081508636474609375</LatitudeDegrees>
              <LongitudeDegrees>-8.0415970645844936370849609375</LongitudeDegrees>
            </Position>
            <AltitudeMeters>413</AltitudeMeters>
            <DistanceMeters>50118.976509128</DistanceMeters>
          </Trackpoint>
          <Trackpoint>
            <Time>2019-07-26T12:03:25.000Z</Time>
            <Position>
              <LatitudeDegrees>42.91538648307323455810546875</LatitudeDegrees>
              <LongitudeDegrees>-8.041643835604190826416015625</LongitudeDegrees>
            </Position>
            <AltitudeMeters>412.20001220703125</AltitudeMeters>
            <DistanceMeters>50123.690638754</DistanceMeters>
          </Trackpoint>
          <Trackpoint>
            <Time>2019-07-26T12:03:27.000Z</Time>
            <Position>
              <LatitudeDegrees>42.9153953678905963897705078125</LatitudeDegrees>
              <LongitudeDegrees>-8.041699826717376708984375</LongitudeDegrees>
            </Position>
            <AltitudeMeters>411.79998779296875</AltitudeMeters>
            <DistanceMeters>50128.361470017</DistanceMeters>
          </Trackpoint>
          <Trackpoint>
            <Time>2019-07-26T12:03:29.000Z</Time>
            <Position>
              <LatitudeDegrees>42.9154151491820812225341796875</LatitudeDegrees>
              <LongitudeDegrees>-8.04175824858248233795166015625</LongitudeDegrees>
            </Position>
            <AltitudeMeters>411.79998779296875</AltitudeMeters>
            <DistanceMeters>50133.608631448</DistanceMeters>
          </Trackpoint>
          <Trackpoint>
            <Time>2019-07-26T12:03:31.000Z</Time>
            <Position>
              <LatitudeDegrees>42.91544473730027675628662109375</LatitudeDegrees>
              <LongitudeDegrees>-8.0418042652308940887451171875</LongitudeDegrees>
            </Position>
            <AltitudeMeters>411.600006103515625</AltitudeMeters>
            <DistanceMeters>50138.600022126</DistanceMeters>
          </Trackpoint>
          <Trackpoint>
            <Time>2019-07-26T12:03:33.000Z</Time>
            <Position>
              <LatitudeDegrees>42.91546585969626903533935546875</LatitudeDegrees>
              <LongitudeDegrees>-8.041841648519039154052734375</LongitudeDegrees>
            </Position>
            <AltitudeMeters>411.600006103515625</AltitudeMeters>
            <DistanceMeters>50142.448310755</DistanceMeters>
          </Trackpoint>
          <Trackpoint>
            <Time>2019-07-26T12:03:35.000Z</Time>
            <Position>
              <LatitudeDegrees>42.91548304259777069091796875</LatitudeDegrees>
              <LongitudeDegrees>-8.041875176131725311279296875</LongitudeDegrees>
            </Position>
            <AltitudeMeters>411.600006103515625</AltitudeMeters>
            <DistanceMeters>50145.783734893</DistanceMeters>
          </Trackpoint>
          <Trackpoint>
            <Time>2019-07-26T12:03:38.000Z</Time>
            <Position>
              <LatitudeDegrees>42.9155187495052814483642578125</LatitudeDegrees>
              <LongitudeDegrees>-8.0419291555881500244140625</LongitudeDegrees>
            </Position>
            <AltitudeMeters>412.399993896484375</AltitudeMeters>
            <DistanceMeters>50151.71358461</DistanceMeters>
          </Trackpoint>
          <Trackpoint>
            <Time>2019-07-26T12:03:41.000Z</Time>
            <Position>
              <LatitudeDegrees>42.91555856354534626007080078125</LatitudeDegrees>
              <LongitudeDegrees>-8.0419903434813022613525390625</LongitudeDegrees>
            </Position>
            <AltitudeMeters>414</AltitudeMeters>
            <DistanceMeters>50158.385786411</DistanceMeters>
          </Trackpoint>
          <Trackpoint>
            <Time>2019-07-26T12:03:42.000Z</Time>
            <Position>
              <LatitudeDegrees>42.91557155549526214599609375</LatitudeDegrees>
              <LongitudeDegrees>-8.0420014075934886932373046875</LongitudeDegrees>
            </Position>
            <AltitudeMeters>414.399993896484375</AltitudeMeters>
            <DistanceMeters>50160.090979835</DistanceMeters>
          </Trackpoint>
          <Trackpoint>
            <Time>2019-07-26T12:03:44.000Z</Time>
            <Position>
              <LatitudeDegrees>42.91560214944183826446533203125</LatitudeDegrees>
              <LongitudeDegrees>-8.0420255474746227264404296875</LongitudeDegrees>
            </Position>
            <AltitudeMeters>415</AltitudeMeters>
            <DistanceMeters>50164.025131717</DistanceMeters>
          </Trackpoint>
          <Trackpoint>
            <Time>2019-07-26T12:03:47.000Z</Time>
            <Position>
              <LatitudeDegrees>42.91566987521946430206298828125</LatitudeDegrees>
              <LongitudeDegrees>-8.04206795990467071533203125</LongitudeDegrees>
            </Position>
            <AltitudeMeters>416.20001220703125</AltitudeMeters>
            <DistanceMeters>50172.318084279</DistanceMeters>
          </Trackpoint>
          <Trackpoint>
            <Time>2019-07-26T12:03:48.000Z</Time>
            <Position>
              <LatitudeDegrees>42.9156964458525180816650390625</LatitudeDegrees>
              <LongitudeDegrees>-8.04208162240684032440185546875</LongitudeDegrees>
            </Position>
            <AltitudeMeters>416.399993896484375</AltitudeMeters>
            <DistanceMeters>50175.478347646</DistanceMeters>
          </Trackpoint>
          <Trackpoint>
            <Time>2019-07-26T12:03:50.000Z</Time>
            <Position>
              <LatitudeDegrees>42.9157460667192935943603515625</LatitudeDegrees>
              <LongitudeDegrees>-8.04210442118346691131591796875</LongitudeDegrees>
            </Position>
            <AltitudeMeters>417.20001220703125</AltitudeMeters>
            <DistanceMeters>50181.305275432</DistanceMeters>
          </Trackpoint>
          <Trackpoint>
            <Time>2019-07-26T12:03:53.000Z</Time>
            <Position>
              <LatitudeDegrees>42.9158121161162853240966796875</LatitudeDegrees>
              <LongitudeDegrees>-8.04214800707995891571044921875</LongitudeDegrees>
            </Position>
            <AltitudeMeters>418.20001220703125</AltitudeMeters>
            <DistanceMeters>50189.470387457</DistanceMeters>
          </Trackpoint>
          <Trackpoint>
            <Time>2019-07-26T12:03:55.000Z</Time>
            <Position>
              <LatitudeDegrees>42.91584824211895465850830078125</LatitudeDegrees>
              <LongitudeDegrees>-8.04218597710132598876953125</LongitudeDegrees>
            </Position>
            <AltitudeMeters>418.79998779296875</AltitudeMeters>
            <DistanceMeters>50194.545205485</DistanceMeters>
          </Trackpoint>
          <Trackpoint>
            <Time>2019-07-26T12:03:57.000Z</Time>
            <Position>
              <LatitudeDegrees>42.9158788360655307769775390625</LatitudeDegrees>
              <LongitudeDegrees>-8.04222729988396167755126953125</LongitudeDegrees>
            </Position>
            <AltitudeMeters>419.20001220703125</AltitudeMeters>
            <DistanceMeters>50199.33628619</DistanceMeters>
          </Trackpoint>
          <Trackpoint>
            <Time>2019-07-26T12:04:01.000Z</Time>
            <Position>
              <LatitudeDegrees>42.915935330092906951904296875</LatitudeDegrees>
              <LongitudeDegrees>-8.042288236320018768310546875</LongitudeDegrees>
            </Position>
            <AltitudeMeters>420.20001220703125</AltitudeMeters>
            <DistanceMeters>50207.349579745</DistanceMeters>
          </Trackpoint>
          <Trackpoint>
            <Time>2019-07-26T12:04:02.000Z</Time>
            <Position>
              <LatitudeDegrees>42.915954105556011199951171875</LatitudeDegrees>
              <LongitudeDegrees>-8.04230525158345699310302734375</LongitudeDegrees>
            </Position>
            <AltitudeMeters>420.399993896484375</AltitudeMeters>
            <DistanceMeters>50209.858356993</DistanceMeters>
          </Trackpoint>
          <Trackpoint>
            <Time>2019-07-26T12:04:07.000Z</Time>
            <Position>
              <LatitudeDegrees>42.9160454683005809783935546875</LatitudeDegrees>
              <LongitudeDegrees>-8.04239460267126560211181640625</LongitudeDegrees>
            </Position>
            <AltitudeMeters>421.20001220703125</AltitudeMeters>
            <DistanceMeters>50222.366558481</DistanceMeters>
          </Trackpoint>
          <Trackpoint>
            <Time>2019-07-26T12:04:08.000Z</Time>
            <Position>
              <LatitudeDegrees>42.9160709492862224578857421875</LatitudeDegrees>
              <LongitudeDegrees>-8.04241932928562164306640625</LongitudeDegrees>
            </Position>
            <AltitudeMeters>421.600006103515625</AltitudeMeters>
            <DistanceMeters>50225.846405103</DistanceMeters>
          </Trackpoint>
          <Trackpoint>
            <Time>2019-07-26T12:04:11.000Z</Time>
            <Position>
              <LatitudeDegrees>42.91611914522945880889892578125</LatitudeDegrees>
              <LongitudeDegrees>-8.04251027293503284454345703125</LongitudeDegrees>
            </Position>
            <AltitudeMeters>421.79998779296875</AltitudeMeters>
            <DistanceMeters>50234.996643832</DistanceMeters>
          </Trackpoint>
          <Trackpoint>
            <Time>2019-07-26T12:04:12.000Z</Time>
            <Position>
              <LatitudeDegrees>42.9161262698471546173095703125</LatitudeDegrees>
              <LongitudeDegrees>-8.0425433814525604248046875</LongitudeDegrees>
            </Position>
            <AltitudeMeters>422</AltitudeMeters>
            <DistanceMeters>50237.809177736</DistanceMeters>
          </Trackpoint>
          <Trackpoint>
            <Time>2019-07-26T12:04:18.000Z</Time>
            <Position>
              <LatitudeDegrees>42.9161202348768711090087890625</LatitudeDegrees>
              <LongitudeDegrees>-8.0427343212068080902099609375</LongitudeDegrees>
            </Position>
            <AltitudeMeters>422.399993896484375</AltitudeMeters>
            <DistanceMeters>50253.387763504</DistanceMeters>
          </Trackpoint>
          <Trackpoint>
            <Time>2019-07-26T12:04:20.000Z</Time>
            <Position>
              <LatitudeDegrees>42.91612467728555202484130859375</LatitudeDegrees>
              <LongitudeDegrees>-8.0427956767380237579345703125</LongitudeDegrees>
            </Position>
            <AltitudeMeters>422.79998779296875</AltitudeMeters>
            <DistanceMeters>50258.414308429</DistanceMeters>
          </Trackpoint>
          <Trackpoint>
            <Time>2019-07-26T12:04:24.000Z</Time>
            <Position>
              <LatitudeDegrees>42.91616499423980712890625</LatitudeDegrees>
              <LongitudeDegrees>-8.04292970336973667144775390625</LongitudeDegrees>
            </Position>
            <AltitudeMeters>423.20001220703125</AltitudeMeters>
            <DistanceMeters>50270.22441261</DistanceMeters>
          </Trackpoint>
          <Trackpoint>
            <Time>2019-07-26T12:04:29.000Z</Time>
            <Position>
              <LatitudeDegrees>42.91619022376835346221923828125</LatitudeDegrees>
              <LongitudeDegrees>-8.04306498728692531585693359375</LongitudeDegrees>
            </Position>
            <AltitudeMeters>423.79998779296875</AltitudeMeters>
            <DistanceMeters>50281.603440078</DistanceMeters>
          </Trackpoint>
          <Trackpoint>
            <Time>2019-07-26T12:04:30.000Z</Time>
            <Position>
              <LatitudeDegrees>42.916192822158336639404296875</LatitudeDegrees>
              <LongitudeDegrees>-8.04309432394802570343017578125</LongitudeDegrees>
            </Position>
            <AltitudeMeters>424</AltitudeMeters>
            <DistanceMeters>50284.009324323</DistanceMeters>
          </Trackpoint>
          <Trackpoint>
            <Time>2019-07-26T12:04:35.000Z</Time>
            <Position>
              <LatitudeDegrees>42.916192151606082916259765625</LatitudeDegrees>
              <LongitudeDegrees>-8.04324888624250888824462890625</LongitudeDegrees>
            </Position>
            <AltitudeMeters>425</AltitudeMeters>
            <DistanceMeters>50296.607802551</DistanceMeters>
          </Trackpoint>
          <Trackpoint>
            <Time>2019-07-26T12:04:37.000Z</Time>
            <Position>
              <LatitudeDegrees>42.91619324125349521636962890625</LatitudeDegrees>
              <LongitudeDegrees>-8.043302781879901885986328125</LongitudeDegrees>
            </Position>
            <AltitudeMeters>425.600006103515625</AltitudeMeters>
            <DistanceMeters>50301.001696432</DistanceMeters>
          </Trackpoint>
          <Trackpoint>
            <Time>2019-07-26T12:04:39.000Z</Time>
            <Position>
              <LatitudeDegrees>42.9161877930164337158203125</LatitudeDegrees>
              <LongitudeDegrees>-8.0433619581162929534912109375</LongitudeDegrees>
            </Position>
            <AltitudeMeters>426.20001220703125</AltitudeMeters>
            <DistanceMeters>50305.863870856</DistanceMeters>
          </Trackpoint>
          <Trackpoint>
            <Time>2019-07-26T12:04:43.000Z</Time>
            <Position>
              <LatitudeDegrees>42.91619994677603244781494140625</LatitudeDegrees>
              <LongitudeDegrees>-8.04347502999007701873779296875</LongitudeDegrees>
            </Position>
            <AltitudeMeters>427.20001220703125</AltitudeMeters>
            <DistanceMeters>50315.179397391</DistanceMeters>
          </Trackpoint>
          <Trackpoint>
            <Time>2019-07-26T12:04:44.000Z</Time>
            <Position>
              <LatitudeDegrees>42.9162033833563327789306640625</LatitudeDegrees>
              <LongitudeDegrees>-8.0434984154999256134033203125</LongitudeDegrees>
            </Position>
            <AltitudeMeters>427.399993896484375</AltitudeMeters>
            <DistanceMeters>50317.122223156</DistanceMeters>
          </Trackpoint>
          <Trackpoint>
            <Time>2019-07-26T12:04:45.000Z</Time>
            <Position>
              <LatitudeDegrees>42.9162047244608402252197265625</LatitudeDegrees>
              <LongitudeDegrees>-8.04352297447621822357177734375</LongitudeDegrees>
            </Position>
            <AltitudeMeters>427.79998779296875</AltitudeMeters>
            <DistanceMeters>50319.129064977</DistanceMeters>
          </Trackpoint>
          <Trackpoint>
            <Time>2019-07-26T12:04:46.000Z</Time>
            <Position>
              <LatitudeDegrees>42.9162114299833774566650390625</LatitudeDegrees>
              <LongitudeDegrees>-8.0435537360608577728271484375</LongitudeDegrees>
            </Position>
            <AltitudeMeters>428.20001220703125</AltitudeMeters>
            <DistanceMeters>50321.745321453</DistanceMeters>
          </Trackpoint>
          <Trackpoint>
            <Time>2019-07-26T12:04:49.000Z</Time>
            <Position>
              <LatitudeDegrees>42.916226349771022796630859375</LatitudeDegrees>
              <LongitudeDegrees>-8.04362892173230648040771484375</LongitudeDegrees>
            </Position>
            <AltitudeMeters>429.20001220703125</AltitudeMeters>
            <DistanceMeters>50328.094357698</DistanceMeters>
          </Trackpoint>
          <Trackpoint>
            <Time>2019-07-26T12:04:50.000Z</Time>
            <Position>
              <LatitudeDegrees>42.91623531840741634368896484375</LatitudeDegrees>
              <LongitudeDegrees>-8.0436606891453266143798828125</LongitudeDegrees>
            </Position>
            <AltitudeMeters>429.600006103515625</AltitudeMeters>
            <DistanceMeters>50330.868096173</DistanceMeters>
          </Trackpoint>
          <Trackpoint>
            <Time>2019-07-26T12:04:55.000Z</Time>
            <Position>
              <LatitudeDegrees>42.91628745384514331817626953125</LatitudeDegrees>
              <LongitudeDegrees>-8.04386210627853870391845703125</LongitudeDegrees>
            </Position>
            <AltitudeMeters>430.600006103515625</AltitudeMeters>
            <DistanceMeters>50348.28107716</DistanceMeters>
          </Trackpoint>
          <Trackpoint>
            <Time>2019-07-26T12:04:56.000Z</Time>
            <Position>
              <LatitudeDegrees>42.91629843413829803466796875</LatitudeDegrees>
              <LongitudeDegrees>-8.0438886769115924835205078125</LongitudeDegrees>
            </Position>
            <AltitudeMeters>431</AltitudeMeters>
            <DistanceMeters>50350.768164284</DistanceMeters>
          </Trackpoint>
          <Trackpoint>
            <Time>2019-07-26T12:04:59.000Z</Time>
            <Position>
              <LatitudeDegrees>42.916308157145977020263671875</LatitudeDegrees>
              <LongitudeDegrees>-8.0439956299960613250732421875</LongitudeDegrees>
            </Position>
            <AltitudeMeters>431.79998779296875</AltitudeMeters>
            <DistanceMeters>50359.552868792</DistanceMeters>
          </Trackpoint>
          <Trackpoint>
            <Time>2019-07-26T12:05:02.000Z</Time>
            <Position>
              <LatitudeDegrees>42.91631461121141910552978515625</LatitudeDegrees>
              <LongitudeDegrees>-8.04410451091825962066650390625</LongitudeDegrees>
            </Position>
            <AltitudeMeters>432.600006103515625</AltitudeMeters>
            <DistanceMeters>50368.457029122</DistanceMeters>
          </Trackpoint>
          <Trackpoint>
            <Time>2019-07-26T12:05:03.000Z</Time>
            <Position>
              <LatitudeDegrees>42.916318885982036590576171875</LatitudeDegrees>
              <LongitudeDegrees>-8.0441330932080745697021484375</LongitudeDegrees>
            </Position>
            <AltitudeMeters>432.79998779296875</AltitudeMeters>
            <DistanceMeters>50370.834596756</DistanceMeters>
          </Trackpoint>
          <Trackpoint>
            <Time>2019-07-26T12:05:06.000Z</Time>
            <Position>
              <LatitudeDegrees>42.91632215492427349090576171875</LatitudeDegrees>
              <LongitudeDegrees>-8.0442232824862003326416015625</LongitudeDegrees>
            </Position>
            <AltitudeMeters>433.600006103515625</AltitudeMeters>
            <DistanceMeters>50378.194720979</DistanceMeters>
          </Trackpoint>
          <Trackpoint>
            <Time>2019-07-26T12:05:07.000Z</Time>
            <Position>
              <LatitudeDegrees>42.91632282547652721405029296875</LatitudeDegrees>
              <LongitudeDegrees>-8.0442507751286029815673828125</LongitudeDegrees>
            </Position>
            <AltitudeMeters>433.79998779296875</AltitudeMeters>
            <DistanceMeters>50380.435417858</DistanceMeters>
          </Trackpoint>
          <Trackpoint>
            <Time>2019-07-26T12:05:09.000Z</Time>
            <Position>
              <LatitudeDegrees>42.9163234122097492218017578125</LatitudeDegrees>
              <LongitudeDegrees>-8.0443109571933746337890625</LongitudeDegrees>
            </Position>
            <AltitudeMeters>434.399993896484375</AltitudeMeters>
            <DistanceMeters>50385.341962854</DistanceMeters>
          </Trackpoint>
          <Trackpoint>
            <Time>2019-07-26T12:05:11.000Z</Time>
            <Position>
              <LatitudeDegrees>42.9163234122097492218017578125</LatitudeDegrees>
              <LongitudeDegrees>-8.0443765036761760711669921875</LongitudeDegrees>
            </Position>
            <AltitudeMeters>435</AltitudeMeters>
            <DistanceMeters>50390.685473097</DistanceMeters>
          </Trackpoint>
          <Trackpoint>
            <Time>2019-07-26T12:05:16.000Z</Time>
            <Position>
              <LatitudeDegrees>42.91631712578237056732177734375</LatitudeDegrees>
              <LongitudeDegrees>-8.04450298659503459930419921875</LongitudeDegrees>
            </Position>
            <AltitudeMeters>436.20001220703125</AltitudeMeters>
            <DistanceMeters>50401.019382523</DistanceMeters>
          </Trackpoint>
          <Trackpoint>
            <Time>2019-07-26T12:05:17.000Z</Time>
            <Position>
              <LatitudeDegrees>42.91631050407886505126953125</LatitudeDegrees>
              <LongitudeDegrees>-8.0445282161235809326171875</LongitudeDegrees>
            </Position>
            <AltitudeMeters>436.600006103515625</AltitudeMeters>
            <DistanceMeters>50403.202930179</DistanceMeters>
          </Trackpoint>
          <Trackpoint>
            <Time>2019-07-26T12:05:20.000Z</Time>
            <Position>
              <LatitudeDegrees>42.91630245745182037353515625</LatitudeDegrees>
              <LongitudeDegrees>-8.04460574872791767120361328125</LongitudeDegrees>
            </Position>
            <AltitudeMeters>437.399993896484375</AltitudeMeters>
            <DistanceMeters>50409.586009758</DistanceMeters>
          </Trackpoint>
          <Trackpoint>
            <Time>2019-07-26T12:05:21.000Z</Time>
            <Position>
              <LatitudeDegrees>42.91629717685282230377197265625</LatitudeDegrees>
              <LongitudeDegrees>-8.04462946951389312744140625</LongitudeDegrees>
            </Position>
            <AltitudeMeters>437.79998779296875</AltitudeMeters>
            <DistanceMeters>50411.606305418</DistanceMeters>
          </Trackpoint>
          <Trackpoint>
            <Time>2019-07-26T12:05:23.000Z</Time>
            <Position>
              <LatitudeDegrees>42.91628628037869930267333984375</LatitudeDegrees>
              <LongitudeDegrees>-8.0446869693696498870849609375</LongitudeDegrees>
            </Position>
            <AltitudeMeters>438.399993896484375</AltitudeMeters>
            <DistanceMeters>50416.448007437</DistanceMeters>
          </Trackpoint>
          <Trackpoint>
            <Time>2019-07-26T12:05:24.000Z</Time>
            <Position>
              <LatitudeDegrees>42.916280664503574371337890625</LatitudeDegrees>
              <LongitudeDegrees>-8.04472125135362148284912109375</LongitudeDegrees>
            </Position>
            <AltitudeMeters>438.600006103515625</AltitudeMeters>
            <DistanceMeters>50419.313027418</DistanceMeters>
          </Trackpoint>
          <Trackpoint>
            <Time>2019-07-26T12:05:26.000Z</Time>
            <Position>
              <LatitudeDegrees>42.91627672500908374786376953125</LatitudeDegrees>
              <LongitudeDegrees>-8.044792078435420989990234375</LongitudeDegrees>
            </Position>
            <AltitudeMeters>439</AltitudeMeters>
            <DistanceMeters>50425.103422381</DistanceMeters>
          </Trackpoint>
          <Trackpoint>
            <Time>2019-07-26T12:05:28.000Z</Time>
            <Position>
              <LatitudeDegrees>42.9162870347499847412109375</LatitudeDegrees>
              <LongitudeDegrees>-8.044865839183330535888671875</LongitudeDegrees>
            </Position>
            <AltitudeMeters>439.399993896484375</AltitudeMeters>
            <DistanceMeters>50431.223614951</DistanceMeters>
          </Trackpoint>
          <Trackpoint>
            <Time>2019-07-26T12:05:30.000Z</Time>
            <Position>
              <LatitudeDegrees>42.91627286933362483978271484375</LatitudeDegrees>
              <LongitudeDegrees>-8.04493331350386142730712890625</LongitudeDegrees>
            </Position>
            <AltitudeMeters>440.20001220703125</AltitudeMeters>
            <DistanceMeters>50436.944980794</DistanceMeters>
          </Trackpoint>
          <Trackpoint>
            <Time>2019-07-26T12:05:32.000Z</Time>
            <Position>
              <LatitudeDegrees>42.916268594563007354736328125</LatitudeDegrees>
              <LongitudeDegrees>-8.04502082057297229766845703125</LongitudeDegrees>
            </Position>
            <AltitudeMeters>440.600006103515625</AltitudeMeters>
            <DistanceMeters>50444.092859677</DistanceMeters>
          </Trackpoint>
          <Trackpoint>
            <Time>2019-07-26T12:05:34.000Z</Time>
            <Position>
              <LatitudeDegrees>42.91626649908721446990966796875</LatitudeDegrees>
              <LongitudeDegrees>-8.04510866291821002960205078125</LongitudeDegrees>
            </Position>
            <AltitudeMeters>441</AltitudeMeters>
            <DistanceMeters>50451.257142928</DistanceMeters>
          </Trackpoint>
          <Trackpoint>
            <Time>2019-07-26T12:05:37.000Z</Time>
            <Position>
              <LatitudeDegrees>42.91626146994531154632568359375</LatitudeDegrees>
              <LongitudeDegrees>-8.04522600956261157989501953125</LongitudeDegrees>
            </Position>
            <AltitudeMeters>441.399993896484375</AltitudeMeters>
            <DistanceMeters>50460.838833134</DistanceMeters>
          </Trackpoint>
          <Trackpoint>
            <Time>2019-07-26T12:05:38.000Z</Time>
            <Position>
              <LatitudeDegrees>42.91626314632594585418701171875</LatitudeDegrees>
              <LongitudeDegrees>-8.045256771147251129150390625</LongitudeDegrees>
            </Position>
            <AltitudeMeters>441.600006103515625</AltitudeMeters>
            <DistanceMeters>50463.353003675</DistanceMeters>
          </Trackpoint>
          <Trackpoint>
            <Time>2019-07-26T12:05:44.000Z</Time>
            <Position>
              <LatitudeDegrees>42.91626834310591220855712890625</LatitudeDegrees>
              <LongitudeDegrees>-8.04543136619031429290771484375</LongitudeDegrees>
            </Position>
            <AltitudeMeters>443</AltitudeMeters>
            <DistanceMeters>50477.596237065</DistanceMeters>
          </Trackpoint>
          <Trackpoint>
            <Time>2019-07-26T12:05:46.000Z</Time>
            <Position>
              <LatitudeDegrees>42.9162563569843769073486328125</LatitudeDegrees>
              <LongitudeDegrees>-8.0454976670444011688232421875</LongitudeDegrees>
            </Position>
            <AltitudeMeters>443.399993896484375</AltitudeMeters>
            <DistanceMeters>50483.162402018</DistanceMeters>
          </Trackpoint>
          <Trackpoint>
            <Time>2019-07-26T12:05:49.000Z</Time>
            <Position>
              <LatitudeDegrees>42.91623095981776714324951171875</LatitudeDegrees>
              <LongitudeDegrees>-8.04563404060900211334228515625</LongitudeDegrees>
            </Position>
            <AltitudeMeters>443.600006103515625</AltitudeMeters>
            <DistanceMeters>50494.632720836</DistanceMeters>
          </Trackpoint>
          <Trackpoint>
            <Time>2019-07-26T12:05:52.000Z</Time>
            <Position>
              <LatitudeDegrees>42.9162040539085865020751953125</LatitudeDegrees>
              <LongitudeDegrees>-8.0457400716841220855712890625</LongitudeDegrees>
            </Position>
            <AltitudeMeters>444.600006103515625</AltitudeMeters>
            <DistanceMeters>50503.779998482</DistanceMeters>
          </Trackpoint>
          <Trackpoint>
            <Time>2019-07-26T12:05:55.000Z</Time>
            <Position>
              <LatitudeDegrees>42.91618200950324535369873046875</LatitudeDegrees>
              <LongitudeDegrees>-8.045823387801647186279296875</LongitudeDegrees>
            </Position>
            <AltitudeMeters>445.20001220703125</AltitudeMeters>
            <DistanceMeters>50511.001403571</DistanceMeters>
          </Trackpoint>
          <Trackpoint>
            <Time>2019-07-26T12:05:57.000Z</Time>
            <Position>
              <LatitudeDegrees>42.91616239584982395172119140625</LatitudeDegrees>
              <LongitudeDegrees>-8.045865632593631744384765625</LongitudeDegrees>
            </Position>
            <AltitudeMeters>445.600006103515625</AltitudeMeters>
            <DistanceMeters>50515.077595502</DistanceMeters>
          </Trackpoint>
          <Trackpoint>
            <Time>2019-07-26T12:06:01.000Z</Time>
            <Position>
              <LatitudeDegrees>42.91610372252762317657470703125</LatitudeDegrees>
              <LongitudeDegrees>-8.04601273499429225921630859375</LongitudeDegrees>
            </Position>
            <AltitudeMeters>445.79998779296875</AltitudeMeters>
            <DistanceMeters>50528.73105287</DistanceMeters>
          </Trackpoint>
          <Trackpoint>
            <Time>2019-07-26T12:06:05.000Z</Time>
            <Position>
              <LatitudeDegrees>42.91610472835600376129150390625</LatitudeDegrees>
              <LongitudeDegrees>-8.0462349392473697662353515625</LongitudeDegrees>
            </Position>
            <AltitudeMeters>446</AltitudeMeters>
            <DistanceMeters>50546.843553449</DistanceMeters>
          </Trackpoint>
          <Trackpoint>
            <Time>2019-07-26T12:06:06.000Z</Time>
            <Position>
              <LatitudeDegrees>42.91611126624047756195068359375</LatitudeDegrees>
              <LongitudeDegrees>-8.04628514684736728668212890625</LongitudeDegrees>
            </Position>
            <AltitudeMeters>446</AltitudeMeters>
            <DistanceMeters>50551.000904325</DistanceMeters>
          </Trackpoint>
          <Trackpoint>
            <Time>2019-07-26T12:06:08.000Z</Time>
            <Position>
              <LatitudeDegrees>42.9161239229142665863037109375</LatitudeDegrees>
              <LongitudeDegrees>-8.046373911201953887939453125</LongitudeDegrees>
            </Position>
            <AltitudeMeters>446.20001220703125</AltitudeMeters>
            <DistanceMeters>50558.371449752</DistanceMeters>
          </Trackpoint>
          <Trackpoint>
            <Time>2019-07-26T12:06:11.000Z</Time>
            <Position>
              <LatitudeDegrees>42.9161567799746990203857421875</LatitudeDegrees>
              <LongitudeDegrees>-8.046528138220310211181640625</LongitudeDegrees>
            </Position>
            <AltitudeMeters>446.399993896484375</AltitudeMeters>
            <DistanceMeters>50571.463772352</DistanceMeters>
          </Trackpoint>
          <Trackpoint>
            <Time>2019-07-26T12:06:17.000Z</Time>
            <Position>
              <LatitudeDegrees>42.91626314632594585418701171875</LatitudeDegrees>
              <LongitudeDegrees>-8.046759478747844696044921875</LongitudeDegrees>
            </Position>
            <AltitudeMeters>446.399993896484375</AltitudeMeters>
            <DistanceMeters>50593.729243305</DistanceMeters>
          </Trackpoint>
          <Trackpoint>
            <Time>2019-07-26T12:06:19.000Z</Time>
            <Position>
              <LatitudeDegrees>42.916302122175693511962890625</LatitudeDegrees>
              <LongitudeDegrees>-8.0468501709401607513427734375</LongitudeDegrees>
            </Position>
            <AltitudeMeters>446.399993896484375</AltitudeMeters>
            <DistanceMeters>50602.300631871</DistanceMeters>
          </Trackpoint>
          <Trackpoint>
            <Time>2019-07-26T12:06:22.000Z</Time>
            <Position>
              <LatitudeDegrees>42.91635953821241855621337890625</LatitudeDegrees>
              <LongitudeDegrees>-8.047014288604259490966796875</LongitudeDegrees>
            </Position>
            <AltitudeMeters>446.399993896484375</AltitudeMeters>
            <DistanceMeters>50617.126322099</DistanceMeters>
          </Trackpoint>
          <Trackpoint>
            <Time>2019-07-26T12:06:23.000Z</Time>
            <Position>
              <LatitudeDegrees>42.91638552211225032806396484375</LatitudeDegrees>
              <LongitudeDegrees>-8.04705829359591007232666015625</LongitudeDegrees>
            </Position>
            <AltitudeMeters>446.600006103515625</AltitudeMeters>
            <DistanceMeters>50621.734872825</DistanceMeters>
          </Trackpoint>
          <Trackpoint>
            <Time>2019-07-26T12:06:25.000Z</Time>
            <Position>
              <LatitudeDegrees>42.916433550417423248291015625</LatitudeDegrees>
              <LongitudeDegrees>-8.04715870879590511322021484375</LongitudeDegrees>
            </Position>
            <AltitudeMeters>446.79998779296875</AltitudeMeters>
            <DistanceMeters>50631.510623385</DistanceMeters>
          </Trackpoint>
          <Trackpoint>
            <Time>2019-07-26T12:06:28.000Z</Time>
            <Position>
              <LatitudeDegrees>42.91651862673461437225341796875</LatitudeDegrees>
              <LongitudeDegrees>-8.04731930606067180633544921875</LongitudeDegrees>
            </Position>
            <AltitudeMeters>447</AltitudeMeters>
            <DistanceMeters>50647.666841683</DistanceMeters>
          </Trackpoint>
          <Trackpoint>
            <Time>2019-07-26T12:06:34.000Z</Time>
            <Position>
              <LatitudeDegrees>42.916661202907562255859375</LatitudeDegrees>
              <LongitudeDegrees>-8.0476315319538116455078125</LongitudeDegrees>
            </Position>
            <AltitudeMeters>448</AltitudeMeters>
            <DistanceMeters>50677.65887454</DistanceMeters>
          </Trackpoint>
          <Trackpoint>
            <Time>2019-07-26T12:06:35.000Z</Time>
            <Position>
              <LatitudeDegrees>42.91667997837066650390625</LatitudeDegrees>
              <LongitudeDegrees>-8.04767939262092113494873046875</LongitudeDegrees>
            </Position>
            <AltitudeMeters>448</AltitudeMeters>
            <DistanceMeters>50682.083488165</DistanceMeters>
          </Trackpoint>
          <Trackpoint>
            <Time>2019-07-26T12:06:41.000Z</Time>
            <Position>
              <LatitudeDegrees>42.91674812324345111846923828125</LatitudeDegrees>
              <LongitudeDegrees>-8.047964461147785186767578125</LongitudeDegrees>
            </Position>
            <AltitudeMeters>449</AltitudeMeters>
            <DistanceMeters>50706.526235917</DistanceMeters>
          </Trackpoint>
          <Trackpoint>
            <Time>2019-07-26T12:06:47.000Z</Time>
            <Position>
              <LatitudeDegrees>42.916760109364986419677734375</LatitudeDegrees>
              <LongitudeDegrees>-8.0482752621173858642578125</LongitudeDegrees>
            </Position>
            <AltitudeMeters>449.600006103515625</AltitudeMeters>
            <DistanceMeters>50731.894987328</DistanceMeters>
          </Trackpoint>
          <Trackpoint>
            <Time>2019-07-26T12:06:49.000Z</Time>
            <Position>
              <LatitudeDegrees>42.91673806495964527130126953125</LatitudeDegrees>
              <LongitudeDegrees>-8.04837643168866634368896484375</LongitudeDegrees>
            </Position>
            <AltitudeMeters>450.20001220703125</AltitudeMeters>
            <DistanceMeters>50740.49897284</DistanceMeters>
          </Trackpoint>
          <Trackpoint>
            <Time>2019-07-26T12:06:51.000Z</Time>
            <Position>
              <LatitudeDegrees>42.9167019389569759368896484375</LatitudeDegrees>
              <LongitudeDegrees>-8.04847114719450473785400390625</LongitudeDegrees>
            </Position>
            <AltitudeMeters>450.600006103515625</AltitudeMeters>
            <DistanceMeters>50749.204166779</DistanceMeters>
          </Trackpoint>
          <Trackpoint>
            <Time>2019-07-26T12:06:55.000Z</Time>
            <Position>
              <LatitudeDegrees>42.91663932614028453826904296875</LatitudeDegrees>
              <LongitudeDegrees>-8.04865839891135692596435546875</LongitudeDegrees>
            </Position>
            <AltitudeMeters>451.20001220703125</AltitudeMeters>
            <DistanceMeters>50765.98304318</DistanceMeters>
          </Trackpoint>
          <Trackpoint>
            <Time>2019-07-26T12:06:58.000Z</Time>
            <Position>
              <LatitudeDegrees>42.91661133058369159698486328125</LatitudeDegrees>
              <LongitudeDegrees>-8.04881312884390354156494140625</LongitudeDegrees>
            </Position>
            <AltitudeMeters>451.399993896484375</AltitudeMeters>
            <DistanceMeters>50778.974971016</DistanceMeters>
          </Trackpoint>
          <Trackpoint>
            <Time>2019-07-26T12:07:01.000Z</Time>
            <Position>
              <LatitudeDegrees>42.91668324731290340423583984375</LatitudeDegrees>
              <LongitudeDegrees>-8.04894522763788700103759765625</LongitudeDegrees>
            </Position>
            <AltitudeMeters>451.600006103515625</AltitudeMeters>
            <DistanceMeters>50792.391585486</DistanceMeters>
          </Trackpoint>
          <Trackpoint>
            <Time>2019-07-26T12:07:04.000Z</Time>
            <Position>
              <LatitudeDegrees>42.916774190962314605712890625</LatitudeDegrees>
              <LongitudeDegrees>-8.04901756346225738525390625</LongitudeDegrees>
            </Position>
            <AltitudeMeters>451.600006103515625</AltitudeMeters>
            <DistanceMeters>50804.105724022</DistanceMeters>
          </Trackpoint>
          <Trackpoint>
            <Time>2019-07-26T12:07:06.000Z</Time>
            <Position>
              <LatitudeDegrees>42.9168273322284221649169921875</LatitudeDegrees>
              <LongitudeDegrees>-8.04906911216676235198974609375</LongitudeDegrees>
            </Position>
            <AltitudeMeters>451.79998779296875</AltitudeMeters>
            <DistanceMeters>50811.360812967</DistanceMeters>
          </Trackpoint>
          <Trackpoint>
            <Time>2019-07-26T12:07:11.000Z</Time>
            <Position>
              <LatitudeDegrees>42.916956581175327301025390625</LatitudeDegrees>
              <LongitudeDegrees>-8.04919869638979434967041015625</LongitudeDegrees>
            </Position>
            <AltitudeMeters>451.79998779296875</AltitudeMeters>
            <DistanceMeters>50829.207629387</DistanceMeters>
          </Trackpoint>
          <Trackpoint>
            <Time>2019-07-26T12:07:16.000Z</Time>
            <Position>
              <LatitudeDegrees>42.9170831479132175445556640625</LatitudeDegrees>
              <LongitudeDegrees>-8.0493939109146595001220703125</LongitudeDegrees>
            </Position>
            <AltitudeMeters>452.20001220703125</AltitudeMeters>
            <DistanceMeters>50850.459435742</DistanceMeters>
          </Trackpoint>
          <Trackpoint>
            <Time>2019-07-26T12:07:17.000Z</Time>
            <Position>
              <LatitudeDegrees>42.91710913181304931640625</LatitudeDegrees>
              <LongitudeDegrees>-8.04943758063018321990966796875</LongitudeDegrees>
            </Position>
            <AltitudeMeters>452.399993896484375</AltitudeMeters>
            <DistanceMeters>50855.045397804</DistanceMeters>
          </Trackpoint>
          <Trackpoint>
            <Time>2019-07-26T12:07:18.000Z</Time>
            <Position>
              <LatitudeDegrees>42.91713955812156200408935546875</LatitudeDegrees>
              <LongitudeDegrees>-8.0494817532598972320556640625</LongitudeDegrees>
            </Position>
            <AltitudeMeters>452.399993896484375</AltitudeMeters>
            <DistanceMeters>50859.98861405</DistanceMeters>
          </Trackpoint>
          <Trackpoint>
            <Time>2019-07-26T12:07:21.000Z</Time>
            <Position>
              <LatitudeDegrees>42.91721465997397899627685546875</LatitudeDegrees>
              <LongitudeDegrees>-8.04960069246590137481689453125</LongitudeDegrees>
            </Position>
            <AltitudeMeters>453</AltitudeMeters>
            <DistanceMeters>50872.789386181</DistanceMeters>
          </Trackpoint>
          <Trackpoint>
            <Time>2019-07-26T12:07:24.000Z</Time>
            <Position>
              <LatitudeDegrees>42.91728154756128787994384765625</LatitudeDegrees>
              <LongitudeDegrees>-8.0496959947049617767333984375</LongitudeDegrees>
            </Position>
            <AltitudeMeters>453.20001220703125</AltitudeMeters>
            <DistanceMeters>50883.549247244</DistanceMeters>
          </Trackpoint>
          <Trackpoint>
            <Time>2019-07-26T12:07:26.000Z</Time>
            <Position>
              <LatitudeDegrees>42.91731767356395721435546875</LatitudeDegrees>
              <LongitudeDegrees>-8.04974033497273921966552734375</LongitudeDegrees>
            </Position>
            <AltitudeMeters>453.399993896484375</AltitudeMeters>
            <DistanceMeters>50888.954922722</DistanceMeters>
          </Trackpoint>
          <Trackpoint>
            <Time>2019-07-26T12:07:29.000Z</Time>
            <Position>
              <LatitudeDegrees>42.9173335991799831390380859375</LatitudeDegrees>
              <LongitudeDegrees>-8.04978601634502410888671875</LongitudeDegrees>
            </Position>
            <AltitudeMeters>453.600006103515625</AltitudeMeters>
            <DistanceMeters>50893.078469004</DistanceMeters>
          </Trackpoint>
          <Trackpoint>
            <Time>2019-07-26T12:07:30.000Z</Time>
            <Position>
              <LatitudeDegrees>42.9173376224935054779052734375</LatitudeDegrees>
              <LongitudeDegrees>-8.04979213513433933258056640625</LongitudeDegrees>
            </Position>
            <AltitudeMeters>453.79998779296875</AltitudeMeters>
            <DistanceMeters>50893.736833394</DistanceMeters>
          </Trackpoint>
          <Trackpoint>
            <Time>2019-07-26T12:08:58.000Z</Time>
            <Position>
              <LatitudeDegrees>42.91741582565009593963623046875</LatitudeDegrees>
              <LongitudeDegrees>-8.0499972403049468994140625</LongitudeDegrees>
            </Position>
            <AltitudeMeters>454.399993896484375</AltitudeMeters>
            <DistanceMeters>50912.585209119</DistanceMeters>
          </Trackpoint>
          <Trackpoint>
            <Time>2019-07-26T12:08:59.000Z</Time>
            <Position>
              <LatitudeDegrees>42.917421273887157440185546875</LatitudeDegrees>
              <LongitudeDegrees>-8.0500292591750621795654296875</LongitudeDegrees>
            </Position>
            <AltitudeMeters>454.399993896484375</AltitudeMeters>
            <DistanceMeters>50915.262872409</DistanceMeters>
          </Trackpoint>
          <Trackpoint>
            <Time>2019-07-26T12:09:00.000Z</Time>
            <Position>
              <LatitudeDegrees>42.91742571629583835601806640625</LatitudeDegrees>
              <LongitudeDegrees>-8.0500654689967632293701171875</LongitudeDegrees>
            </Position>
            <AltitudeMeters>454.399993896484375</AltitudeMeters>
            <DistanceMeters>50918.255836798</DistanceMeters>
          </Trackpoint>
          <Trackpoint>
            <Time>2019-07-26T12:09:06.000Z</Time>
            <Position>
              <LatitudeDegrees>42.91746653616428375244140625</LatitudeDegrees>
              <LongitudeDegrees>-8.05035456083714962005615234375</LongitudeDegrees>
            </Position>
            <AltitudeMeters>454.600006103515625</AltitudeMeters>
            <DistanceMeters>50942.25379828</DistanceMeters>
          </Trackpoint>
          <Trackpoint>
            <Time>2019-07-26T12:09:14.000Z</Time>
            <Position>
              <LatitudeDegrees>42.9175297357141971588134765625</LatitudeDegrees>
              <LongitudeDegrees>-8.050791509449481964111328125</LongitudeDegrees>
            </Position>
            <AltitudeMeters>454.600006103515625</AltitudeMeters>
            <DistanceMeters>50978.557734393</DistanceMeters>
          </Trackpoint>
          <Trackpoint>
            <Time>2019-07-26T12:09:18.000Z</Time>
            <Position>
              <LatitudeDegrees>42.917554043233394622802734375</LatitudeDegrees>
              <LongitudeDegrees>-8.050977252423763275146484375</LongitudeDegrees>
            </Position>
            <AltitudeMeters>455</AltitudeMeters>
            <DistanceMeters>50993.937390513</DistanceMeters>
          </Trackpoint>
          <Trackpoint>
            <Time>2019-07-26T12:09:19.000Z</Time>
            <Position>
              <LatitudeDegrees>42.91756016202270984649658203125</LatitudeDegrees>
              <LongitudeDegrees>-8.051021508872509002685546875</LongitudeDegrees>
            </Position>
            <AltitudeMeters>455</AltitudeMeters>
            <DistanceMeters>50997.607931897</DistanceMeters>
          </Trackpoint>
          <Trackpoint>
            <Time>2019-07-26T12:09:22.000Z</Time>
            <Position>
              <LatitudeDegrees>42.91757575236260890960693359375</LatitudeDegrees>
              <LongitudeDegrees>-8.051163665950298309326171875</LongitudeDegrees>
            </Position>
            <AltitudeMeters>455.20001220703125</AltitudeMeters>
            <DistanceMeters>51009.324382815</DistanceMeters>
          </Trackpoint>
          <Trackpoint>
            <Time>2019-07-26T12:09:24.000Z</Time>
            <Position>
              <LatitudeDegrees>42.91758296079933643341064453125</LatitudeDegrees>
              <LongitudeDegrees>-8.05125729180872440338134765625</LongitudeDegrees>
            </Position>
            <AltitudeMeters>455.600006103515625</AltitudeMeters>
            <DistanceMeters>51016.997459018</DistanceMeters>
          </Trackpoint>
          <Trackpoint>
            <Time>2019-07-26T12:09:26.000Z</Time>
            <Position>
              <LatitudeDegrees>42.91759528219699859619140625</LatitudeDegrees>
              <LongitudeDegrees>-8.05134345777332782745361328125</LongitudeDegrees>
            </Position>
            <AltitudeMeters>455.79998779296875</AltitudeMeters>
            <DistanceMeters>51024.154175694</DistanceMeters>
          </Trackpoint>
          <Trackpoint>
            <Time>2019-07-26T12:09:31.000Z</Time>
            <Position>
              <LatitudeDegrees>42.917613051831722259521484375</LatitudeDegrees>
              <LongitudeDegrees>-8.051529116928577423095703125</LongitudeDegrees>
            </Position>
            <AltitudeMeters>456.79998779296875</AltitudeMeters>
            <DistanceMeters>51039.416247044</DistanceMeters>
          </Trackpoint>
          <Trackpoint>
            <Time>2019-07-26T12:09:32.000Z</Time>
            <Position>
              <LatitudeDegrees>42.917616069316864013671875</LatitudeDegrees>
              <LongitudeDegrees>-8.05155786685645580291748046875</LongitudeDegrees>
            </Position>
            <AltitudeMeters>457</AltitudeMeters>
            <DistanceMeters>51041.78239315</DistanceMeters>
          </Trackpoint>
          <Trackpoint>
            <Time>2019-07-26T12:09:37.000Z</Time>
            <Position>
              <LatitudeDegrees>42.91758815757930278778076171875</LatitudeDegrees>
              <LongitudeDegrees>-8.0517076514661312103271484375</LongitudeDegrees>
            </Position>
            <AltitudeMeters>457.399993896484375</AltitudeMeters>
            <DistanceMeters>51054.380512993</DistanceMeters>
          </Trackpoint>
          <Trackpoint>
            <Time>2019-07-26T12:09:41.000Z</Time>
            <Position>
              <LatitudeDegrees>42.91748723946511745452880859375</LatitudeDegrees>
              <LongitudeDegrees>-8.0517911352217197418212890625</LongitudeDegrees>
            </Position>
            <AltitudeMeters>457.600006103515625</AltitudeMeters>
            <DistanceMeters>51067.513466205</DistanceMeters>
          </Trackpoint>
          <Trackpoint>
            <Time>2019-07-26T12:09:43.000Z</Time>
            <Position>
              <LatitudeDegrees>42.9174113832414150238037109375</LatitudeDegrees>
              <LongitudeDegrees>-8.05184234865009784698486328125</LongitudeDegrees>
            </Position>
            <AltitudeMeters>457.600006103515625</AltitudeMeters>
            <DistanceMeters>51076.932622275</DistanceMeters>
          </Trackpoint>
          <Trackpoint>
            <Time>2019-07-26T12:09:45.000Z</Time>
            <Position>
              <LatitudeDegrees>42.9173299111425876617431640625</LatitudeDegrees>
              <LongitudeDegrees>-8.05189901031553745269775390625</LongitudeDegrees>
            </Position>
            <AltitudeMeters>457.600006103515625</AltitudeMeters>
            <DistanceMeters>51087.109801491</DistanceMeters>
          </Trackpoint>
          <Trackpoint>
            <Time>2019-07-26T12:09:46.000Z</Time>
            <Position>
              <LatitudeDegrees>42.9172874987125396728515625</LatitudeDegrees>
              <LongitudeDegrees>-8.05192700587213039398193359375</LongitudeDegrees>
            </Position>
            <AltitudeMeters>457.600006103515625</AltitudeMeters>
            <DistanceMeters>51092.354380869</DistanceMeters>
          </Trackpoint>
          <Trackpoint>
            <Time>2019-07-26T12:09:48.000Z</Time>
            <Position>
              <LatitudeDegrees>42.9172048531472682952880859375</LatitudeDegrees>
              <LongitudeDegrees>-8.0519819073379039764404296875</LongitudeDegrees>
            </Position>
            <AltitudeMeters>457.600006103515625</AltitudeMeters>
            <DistanceMeters>51102.583334665</DistanceMeters>
          </Trackpoint>
          <Trackpoint>
            <Time>2019-07-26T12:09:50.000Z</Time>
            <Position>
              <LatitudeDegrees>42.91713067330420017242431640625</LatitudeDegrees>
              <LongitudeDegrees>-8.0520355515182018280029296875</LongitudeDegrees>
            </Position>
            <AltitudeMeters>457.399993896484375</AltitudeMeters>
            <DistanceMeters>51111.924997191</DistanceMeters>
          </Trackpoint>
          <Trackpoint>
            <Time>2019-07-26T12:09:52.000Z</Time>
            <Position>
              <LatitudeDegrees>42.91707015596330165863037109375</LatitudeDegrees>
              <LongitudeDegrees>-8.0521344579756259918212890625</LongitudeDegrees>
            </Position>
            <AltitudeMeters>457</AltitudeMeters>
            <DistanceMeters>51122.429640647</DistanceMeters>
          </Trackpoint>
          <Trackpoint>
            <Time>2019-07-26T12:09:56.000Z</Time>
            <Position>
              <LatitudeDegrees>42.91697845794260501861572265625</LatitudeDegrees>
              <LongitudeDegrees>-8.05239689536392688751220703125</LongitudeDegrees>
            </Position>
            <AltitudeMeters>456.600006103515625</AltitudeMeters>
            <DistanceMeters>51146.131139663</DistanceMeters>
          </Trackpoint>
          <Trackpoint>
            <Time>2019-07-26T12:10:01.000Z</Time>
            <Position>
              <LatitudeDegrees>42.91688625700771808624267578125</LatitudeDegrees>
              <LongitudeDegrees>-8.0527574010193347930908203125</LongitudeDegrees>
            </Position>
            <AltitudeMeters>456.600006103515625</AltitudeMeters>
            <DistanceMeters>51177.256704419</DistanceMeters>
          </Trackpoint>
          <Trackpoint>
            <Time>2019-07-26T12:10:04.000Z</Time>
            <Position>
              <LatitudeDegrees>42.9167939722537994384765625</LatitudeDegrees>
              <LongitudeDegrees>-8.0529622547328472137451171875</LongitudeDegrees>
            </Position>
            <AltitudeMeters>456.399993896484375</AltitudeMeters>
            <DistanceMeters>51196.86078699</DistanceMeters>
          </Trackpoint>
          <Trackpoint>
            <Time>2019-07-26T12:10:06.000Z</Time>
            <Position>
              <LatitudeDegrees>42.916728593409061431884765625</LatitudeDegrees>
              <LongitudeDegrees>-8.05308689363300800323486328125</LongitudeDegrees>
            </Position>
            <AltitudeMeters>456.399993896484375</AltitudeMeters>
            <DistanceMeters>51209.357432221</DistanceMeters>
          </Trackpoint>
          <Trackpoint>
            <Time>2019-07-26T12:10:09.000Z</Time>
            <Position>
              <LatitudeDegrees>42.91662775911390781402587890625</LatitudeDegrees>
              <LongitudeDegrees>-8.0532569624483585357666015625</LongitudeDegrees>
            </Position>
            <AltitudeMeters>456.600006103515625</AltitudeMeters>
            <DistanceMeters>51227.193619961</DistanceMeters>
          </Trackpoint>
          <Trackpoint>
            <Time>2019-07-26T12:10:12.000Z</Time>
            <Position>
              <LatitudeDegrees>42.91651778854429721832275390625</LatitudeDegrees>
              <LongitudeDegrees>-8.05346139706671237945556640625</LongitudeDegrees>
            </Position>
            <AltitudeMeters>456.79998779296875</AltitudeMeters>
            <DistanceMeters>51247.869520158</DistanceMeters>
          </Trackpoint>
          <Trackpoint>
            <Time>2019-07-26T12:10:18.000Z</Time>
            <Position>
              <LatitudeDegrees>42.916355431079864501953125</LatitudeDegrees>
              <LongitudeDegrees>-8.05384017527103424072265625</LongitudeDegrees>
            </Position>
            <AltitudeMeters>457.399993896484375</AltitudeMeters>
            <DistanceMeters>51283.644017698</DistanceMeters>
          </Trackpoint>
          <Trackpoint>
            <Time>2019-07-26T12:10:24.000Z</Time>
            <Position>
              <LatitudeDegrees>42.91618770919740200042724609375</LatitudeDegrees>
              <LongitudeDegrees>-8.05420520715415477752685546875</LongitudeDegrees>
            </Position>
            <AltitudeMeters>457.600006103515625</AltitudeMeters>
            <DistanceMeters>51318.769727155</DistanceMeters>
          </Trackpoint>
          <Trackpoint>
            <Time>2019-07-26T12:10:29.000Z</Time>
            <Position>
              <LatitudeDegrees>42.9160659201443195343017578125</LatitudeDegrees>
              <LongitudeDegrees>-8.05456294678151607513427734375</LongitudeDegrees>
            </Position>
            <AltitudeMeters>457.600006103515625</AltitudeMeters>
            <DistanceMeters>51350.926407856</DistanceMeters>
          </Trackpoint>
          <Trackpoint>
            <Time>2019-07-26T12:10:32.000Z</Time>
            <Position>
              <LatitudeDegrees>42.91597480885684490203857421875</LatitudeDegrees>
              <LongitudeDegrees>-8.05482412688434123992919921875</LongitudeDegrees>
            </Position>
            <AltitudeMeters>457.79998779296875</AltitudeMeters>
            <DistanceMeters>51374.50758907</DistanceMeters>
          </Trackpoint>
          <Trackpoint>
            <Time>2019-07-26T12:10:34.000Z</Time>
            <Position>
              <LatitudeDegrees>42.9159276187419891357421875</LatitudeDegrees>
              <LongitudeDegrees>-8.05498640052974224090576171875</LongitudeDegrees>
            </Position>
            <AltitudeMeters>457.79998779296875</AltitudeMeters>
            <DistanceMeters>51388.739406053</DistanceMeters>
          </Trackpoint>
          <Trackpoint>
            <Time>2019-07-26T12:10:36.000Z</Time>
            <Position>
              <LatitudeDegrees>42.91588428430259227752685546875</LatitudeDegrees>
              <LongitudeDegrees>-8.0551465786993503570556640625</LongitudeDegrees>
            </Position>
            <AltitudeMeters>457.79998779296875</AltitudeMeters>
            <DistanceMeters>51402.658143784</DistanceMeters>
          </Trackpoint>
          <Trackpoint>
            <Time>2019-07-26T12:10:39.000Z</Time>
            <Position>
              <LatitudeDegrees>42.91582812555134296417236328125</LatitudeDegrees>
              <LongitudeDegrees>-8.05542326532304286956787109375</LongitudeDegrees>
            </Position>
            <AltitudeMeters>458</AltitudeMeters>
            <DistanceMeters>51426.06174002</DistanceMeters>
          </Trackpoint>
          <Trackpoint>
            <Time>2019-07-26T12:10:45.000Z</Time>
            <Position>
              <LatitudeDegrees>42.91570474393665790557861328125</LatitudeDegrees>
              <LongitudeDegrees>-8.0559120140969753265380859375</LongitudeDegrees>
            </Position>
            <AltitudeMeters>458.20001220703125</AltitudeMeters>
            <DistanceMeters>51468.201346954</DistanceMeters>
          </Trackpoint>
          <Trackpoint>
            <Time>2019-07-26T12:10:47.000Z</Time>
            <Position>
              <LatitudeDegrees>42.915678508579730987548828125</LatitudeDegrees>
              <LongitudeDegrees>-8.0560156144201755523681640625</LongitudeDegrees>
            </Position>
            <AltitudeMeters>458.20001220703125</AltitudeMeters>
            <DistanceMeters>51477.136890358</DistanceMeters>
          </Trackpoint>
          <Trackpoint>
            <Time>2019-07-26T12:10:50.000Z</Time>
            <Position>
              <LatitudeDegrees>42.9156612418591976165771484375</LatitudeDegrees>
              <LongitudeDegrees>-8.05617763660848140716552734375</LongitudeDegrees>
            </Position>
            <AltitudeMeters>458.20001220703125</AltitudeMeters>
            <DistanceMeters>51490.482647278</DistanceMeters>
          </Trackpoint>
          <Trackpoint>
            <Time>2019-07-26T12:10:53.000Z</Time>
            <Position>
              <LatitudeDegrees>42.9156459867954254150390625</LatitudeDegrees>
              <LongitudeDegrees>-8.056383244693279266357421875</LongitudeDegrees>
            </Position>
            <AltitudeMeters>457.79998779296875</AltitudeMeters>
            <DistanceMeters>51507.328393992</DistanceMeters>
          </Trackpoint>
          <Trackpoint>
            <Time>2019-07-26T12:10:55.000Z</Time>
            <Position>
              <LatitudeDegrees>42.91561539284884929656982421875</LatitudeDegrees>
              <LongitudeDegrees>-8.05652615614235401153564453125</LongitudeDegrees>
            </Position>
            <AltitudeMeters>457.399993896484375</AltitudeMeters>
            <DistanceMeters>51519.465429751</DistanceMeters>
          </Trackpoint>
          <Trackpoint>
            <Time>2019-07-26T12:11:02.000Z</Time>
            <Position>
              <LatitudeDegrees>42.91547231376171112060546875</LatitudeDegrees>
              <LongitudeDegrees>-8.0570475943386554718017578125</LongitudeDegrees>
            </Position>
            <AltitudeMeters>456.79998779296875</AltitudeMeters>
            <DistanceMeters>51564.854788422</DistanceMeters>
          </Trackpoint>
          <Trackpoint>
            <Time>2019-07-26T12:11:08.000Z</Time>
            <Position>
              <LatitudeDegrees>42.91539930738508701324462890625</LatitudeDegrees>
              <LongitudeDegrees>-8.057548664510250091552734375</LongitudeDegrees>
            </Position>
            <AltitudeMeters>456.79998779296875</AltitudeMeters>
            <DistanceMeters>51606.499046624</DistanceMeters>
          </Trackpoint>
          <Trackpoint>
            <Time>2019-07-26T12:11:10.000Z</Time>
            <Position>
              <LatitudeDegrees>42.9153940267860889434814453125</LatitudeDegrees>
              <LongitudeDegrees>-8.0577124468982219696044921875</LongitudeDegrees>
            </Position>
            <AltitudeMeters>456.79998779296875</AltitudeMeters>
            <DistanceMeters>51619.862384222</DistanceMeters>
          </Trackpoint>
          <Trackpoint>
            <Time>2019-07-26T12:11:15.000Z</Time>
            <Position>
              <LatitudeDegrees>42.91539226658642292022705078125</LatitudeDegrees>
              <LongitudeDegrees>-8.0581305362284183502197265625</LongitudeDegrees>
            </Position>
            <AltitudeMeters>456.600006103515625</AltitudeMeters>
            <DistanceMeters>51653.942679003</DistanceMeters>
          </Trackpoint>
          <Trackpoint>
            <Time>2019-07-26T12:11:22.000Z</Time>
            <Position>
              <LatitudeDegrees>42.9154305718839168548583984375</LatitudeDegrees>
              <LongitudeDegrees>-8.0586956441402435302734375</LongitudeDegrees>
            </Position>
            <AltitudeMeters>456.399993896484375</AltitudeMeters>
            <DistanceMeters>51700.203221764</DistanceMeters>
          </Trackpoint>
          <Trackpoint>
            <Time>2019-07-26T12:11:28.000Z</Time>
            <Position>
              <LatitudeDegrees>42.91544524021446704864501953125</LatitudeDegrees>
              <LongitudeDegrees>-8.0591631866991519927978515625</LongitudeDegrees>
            </Position>
            <AltitudeMeters>456.399993896484375</AltitudeMeters>
            <DistanceMeters>51738.348961868</DistanceMeters>
          </Trackpoint>
          <Trackpoint>
            <Time>2019-07-26T12:11:34.000Z</Time>
            <Position>
              <LatitudeDegrees>42.915454544126987457275390625</LatitudeDegrees>
              <LongitudeDegrees>-8.0596359260380268096923828125</LongitudeDegrees>
            </Position>
            <AltitudeMeters>456.399993896484375</AltitudeMeters>
            <DistanceMeters>51776.897377523</DistanceMeters>
          </Trackpoint>
          <Trackpoint>
            <Time>2019-07-26T12:11:40.000Z</Time>
            <Position>
              <LatitudeDegrees>42.91553190909326076507568359375</LatitudeDegrees>
              <LongitudeDegrees>-8.0600939132273197174072265625</LongitudeDegrees>
            </Position>
            <AltitudeMeters>456.399993896484375</AltitudeMeters>
            <DistanceMeters>51815.209527891</DistanceMeters>
          </Trackpoint>
          <Trackpoint>
            <Time>2019-07-26T12:11:46.000Z</Time>
            <Position>
              <LatitudeDegrees>42.91568689048290252685546875</LatitudeDegrees>
              <LongitudeDegrees>-8.06063815020024776458740234375</LongitudeDegrees>
            </Position>
            <AltitudeMeters>456.399993896484375</AltitudeMeters>
            <DistanceMeters>51862.807478573</DistanceMeters>
          </Trackpoint>
          <Trackpoint>
            <Time>2019-07-26T12:11:48.000Z</Time>
            <Position>
              <LatitudeDegrees>42.9157517664134502410888671875</LatitudeDegrees>
              <LongitudeDegrees>-8.0608549900352954864501953125</LongitudeDegrees>
            </Position>
            <AltitudeMeters>456.399993896484375</AltitudeMeters>
            <DistanceMeters>51881.90099177</DistanceMeters>
          </Trackpoint>
          <Trackpoint>
            <Time>2019-07-26T12:11:51.000Z</Time>
            <Position>
              <LatitudeDegrees>42.91586215607821941375732421875</LatitudeDegrees>
              <LongitudeDegrees>-8.0612130649387836456298828125</LongitudeDegrees>
            </Position>
            <AltitudeMeters>455.79998779296875</AltitudeMeters>
            <DistanceMeters>51913.569277007</DistanceMeters>
          </Trackpoint>
          <Trackpoint>
            <Time>2019-07-26T12:11:53.000Z</Time>
            <Position>
              <LatitudeDegrees>42.915944717824459075927734375</LatitudeDegrees>
              <LongitudeDegrees>-8.061437197029590606689453125</LongitudeDegrees>
            </Position>
            <AltitudeMeters>454.79998779296875</AltitudeMeters>
            <DistanceMeters>51934.019679459</DistanceMeters>
          </Trackpoint>
          <Trackpoint>
            <Time>2019-07-26T12:11:55.000Z</Time>
            <Position>
              <LatitudeDegrees>42.91604387573897838592529296875</LatitudeDegrees>
              <LongitudeDegrees>-8.061650432646274566650390625</LongitudeDegrees>
            </Position>
            <AltitudeMeters>454.20001220703125</AltitudeMeters>
            <DistanceMeters>51954.608922734</DistanceMeters>
          </Trackpoint>
          <Trackpoint>
            <Time>2019-07-26T12:11:56.000Z</Time>
            <Position>
              <LatitudeDegrees>42.9160971008241176605224609375</LatitudeDegrees>
              <LongitudeDegrees>-8.06175411678850650787353515625</LongitudeDegrees>
            </Position>
            <AltitudeMeters>453.79998779296875</AltitudeMeters>
            <DistanceMeters>51964.930153853</DistanceMeters>
          </Trackpoint>
          <Trackpoint>
            <Time>2019-07-26T12:11:58.000Z</Time>
            <Position>
              <LatitudeDegrees>42.9161809198558330535888671875</LatitudeDegrees>
              <LongitudeDegrees>-8.061950169503688812255859375</LongitudeDegrees>
            </Position>
            <AltitudeMeters>452.79998779296875</AltitudeMeters>
            <DistanceMeters>51983.434761354</DistanceMeters>
          </Trackpoint>
          <Trackpoint>
            <Time>2019-07-26T12:11:59.000Z</Time>
            <Position>
              <LatitudeDegrees>42.91620279662311077117919921875</LatitudeDegrees>
              <LongitudeDegrees>-8.0620230920612812042236328125</LongitudeDegrees>
            </Position>
            <AltitudeMeters>452.399993896484375</AltitudeMeters>
            <DistanceMeters>51989.858735929</DistanceMeters>
          </Trackpoint>
          <Trackpoint>
            <Time>2019-07-26T12:12:00.000Z</Time>
            <Position>
              <LatitudeDegrees>42.91621553711593151092529296875</LatitudeDegrees>
              <LongitudeDegrees>-8.062080927193164825439453125</LongitudeDegrees>
            </Position>
            <AltitudeMeters>451.79998779296875</AltitudeMeters>
            <DistanceMeters>51994.781816792</DistanceMeters>
          </Trackpoint>
          <Trackpoint>
            <Time>2019-07-26T12:12:01.000Z</Time>
            <Position>
              <LatitudeDegrees>42.91621687822043895721435546875</LatitudeDegrees>
              <LongitudeDegrees>-8.06213046424090862274169921875</LongitudeDegrees>
            </Position>
            <AltitudeMeters>451.20001220703125</AltitudeMeters>
            <DistanceMeters>51998.821290536</DistanceMeters>
          </Trackpoint>
          <Trackpoint>
            <Time>2019-07-26T12:12:03.000Z</Time>
            <Position>
              <LatitudeDegrees>42.91622023098170757293701171875</LatitudeDegrees>
              <LongitudeDegrees>-8.06221562437713146209716796875</LongitudeDegrees>
            </Position>
            <AltitudeMeters>449.79998779296875</AltitudeMeters>
            <DistanceMeters>52005.773194529</DistanceMeters>
          </Trackpoint>
          <Trackpoint>
            <Time>2019-07-26T12:12:04.000Z</Time>
            <Position>
              <LatitudeDegrees>42.91623674333095550537109375</LatitudeDegrees>
              <LongitudeDegrees>-8.0622602999210357666015625</LongitudeDegrees>
            </Position>
            <AltitudeMeters>449.20001220703125</AltitudeMeters>
            <DistanceMeters>52009.852708089</DistanceMeters>
          </Trackpoint>
          <Trackpoint>
            <Time>2019-07-26T12:12:05.000Z</Time>
            <Position>
              <LatitudeDegrees>42.916257865726947784423828125</LatitudeDegrees>
              <LongitudeDegrees>-8.0623151175677776336669921875</LongitudeDegrees>
            </Position>
            <AltitudeMeters>448.600006103515625</AltitudeMeters>
            <DistanceMeters>52014.902553223</DistanceMeters>
          </Trackpoint>
          <Trackpoint>
            <Time>2019-07-26T12:12:06.000Z</Time>
            <Position>
              <LatitudeDegrees>42.91627957485616207122802734375</LatitudeDegrees>
              <LongitudeDegrees>-8.06237873621284961700439453125</LongitudeDegrees>
            </Position>
            <AltitudeMeters>447.79998779296875</AltitudeMeters>
            <DistanceMeters>52020.623919066</DistanceMeters>
          </Trackpoint>
          <Trackpoint>
            <Time>2019-07-26T12:12:07.000Z</Time>
            <Position>
              <LatitudeDegrees>42.916295416653156280517578125</LatitudeDegrees>
              <LongitudeDegrees>-8.0624525807797908782958984375</LongitudeDegrees>
            </Position>
            <AltitudeMeters>447</AltitudeMeters>
            <DistanceMeters>52026.896402073</DistanceMeters>
          </Trackpoint>
          <Trackpoint>
            <Time>2019-07-26T12:12:08.000Z</Time>
            <Position>
              <LatitudeDegrees>42.91631109081208705902099609375</LatitudeDegrees>
              <LongitudeDegrees>-8.0625390820205211639404296875</LongitudeDegrees>
            </Position>
            <AltitudeMeters>446</AltitudeMeters>
            <DistanceMeters>52034.159576763</DistanceMeters>
          </Trackpoint>
          <Trackpoint>
            <Time>2019-07-26T12:12:09.000Z</Time>
            <Position>
              <LatitudeDegrees>42.91632886044681072235107421875</LatitudeDegrees>
              <LongitudeDegrees>-8.062636144459247589111328125</LongitudeDegrees>
            </Position>
            <AltitudeMeters>445.20001220703125</AltitudeMeters>
            <DistanceMeters>52042.314729307</DistanceMeters>
          </Trackpoint>
          <Trackpoint>
            <Time>2019-07-26T12:12:11.000Z</Time>
            <Position>
              <LatitudeDegrees>42.91636683046817779541015625</LatitudeDegrees>
              <LongitudeDegrees>-8.06283554993569850921630859375</LongitudeDegrees>
            </Position>
            <AltitudeMeters>444.20001220703125</AltitudeMeters>
            <DistanceMeters>52059.108936869</DistanceMeters>
          </Trackpoint>
          <Trackpoint>
            <Time>2019-07-26T12:12:13.000Z</Time>
            <Position>
              <LatitudeDegrees>42.9164052195847034454345703125</LatitudeDegrees>
              <LongitudeDegrees>-8.0630435049533843994140625</LongitudeDegrees>
            </Position>
            <AltitudeMeters>443.399993896484375</AltitudeMeters>
            <DistanceMeters>52076.589720229</DistanceMeters>
          </Trackpoint>
          <Trackpoint>
            <Time>2019-07-26T12:12:14.000Z</Time>
            <Position>
              <LatitudeDegrees>42.91642240248620510101318359375</LatitudeDegrees>
              <LongitudeDegrees>-8.0631462670862674713134765625</LongitudeDegrees>
            </Position>
            <AltitudeMeters>443.20001220703125</AltitudeMeters>
            <DistanceMeters>52085.18110224</DistanceMeters>
          </Trackpoint>
          <Trackpoint>
            <Time>2019-07-26T12:12:17.000Z</Time>
            <Position>
              <LatitudeDegrees>42.91650286875665187835693359375</LatitudeDegrees>
              <LongitudeDegrees>-8.06347508914768695831298828125</LongitudeDegrees>
            </Position>
            <AltitudeMeters>442</AltitudeMeters>
            <DistanceMeters>52113.440647539</DistanceMeters>
          </Trackpoint>
          <Trackpoint>
            <Time>2019-07-26T12:12:18.000Z</Time>
            <Position>
              <LatitudeDegrees>42.9165386594831943511962890625</LatitudeDegrees>
              <LongitudeDegrees>-8.06358086876571178436279296875</LongitudeDegrees>
            </Position>
            <AltitudeMeters>441.79998779296875</AltitudeMeters>
            <DistanceMeters>52122.938566452</DistanceMeters>
          </Trackpoint>
          <Trackpoint>
            <Time>2019-07-26T12:12:20.000Z</Time>
            <Position>
              <LatitudeDegrees>42.9166248254477977752685546875</LatitudeDegrees>
              <LongitudeDegrees>-8.06378538720309734344482421875</LongitudeDegrees>
            </Position>
            <AltitudeMeters>440.399993896484375</AltitudeMeters>
            <DistanceMeters>52142.171090761</DistanceMeters>
          </Trackpoint>
          <Trackpoint>
            <Time>2019-07-26T12:12:21.000Z</Time>
            <Position>
              <LatitudeDegrees>42.91666614823043346405029296875</LatitudeDegrees>
              <LongitudeDegrees>-8.06386149488389492034912109375</LongitudeDegrees>
            </Position>
            <AltitudeMeters>440</AltitudeMeters>
            <DistanceMeters>52149.894021223</DistanceMeters>
          </Trackpoint>
          <Trackpoint>
            <Time>2019-07-26T12:12:22.000Z</Time>
            <Position>
              <LatitudeDegrees>42.9167005978524684906005859375</LatitudeDegrees>
              <LongitudeDegrees>-8.0639179050922393798828125</LongitudeDegrees>
            </Position>
            <AltitudeMeters>439.399993896484375</AltitudeMeters>
            <DistanceMeters>52155.881458361</DistanceMeters>
          </Trackpoint>
          <Trackpoint>
            <Time>2019-07-26T12:12:24.000Z</Time>
            <Position>
              <LatitudeDegrees>42.91678483597934246063232421875</LatitudeDegrees>
              <LongitudeDegrees>-8.06398889981210231781005859375</LongitudeDegrees>
            </Position>
            <AltitudeMeters>437.399993896484375</AltitudeMeters>
            <DistanceMeters>52166.899640957</DistanceMeters>
          </Trackpoint>
          <Trackpoint>
            <Time>2019-07-26T12:12:25.000Z</Time>
            <Position>
              <LatitudeDegrees>42.91683194227516651153564453125</LatitudeDegrees>
              <LongitudeDegrees>-8.06400180794298648834228515625</LongitudeDegrees>
            </Position>
            <AltitudeMeters>436.399993896484375</AltitudeMeters>
            <DistanceMeters>52172.248218541</DistanceMeters>
          </Trackpoint>
          <Trackpoint>
            <Time>2019-07-26T12:12:26.000Z</Time>
            <Position>
              <LatitudeDegrees>42.916871421039104461669921875</LatitudeDegrees>
              <LongitudeDegrees>-8.06401354260742664337158203125</LongitudeDegrees>
            </Position>
            <AltitudeMeters>435.399993896484375</AltitudeMeters>
            <DistanceMeters>52176.745703531</DistanceMeters>
          </Trackpoint>
          <Trackpoint>
            <Time>2019-07-26T12:12:27.000Z</Time>
            <Position>
              <LatitudeDegrees>42.91691458784043788909912109375</LatitudeDegrees>
              <LongitudeDegrees>-8.0640427954494953155517578125</LongitudeDegrees>
            </Position>
            <AltitudeMeters>434.20001220703125</AltitudeMeters>
            <DistanceMeters>52182.109454415</DistanceMeters>
          </Trackpoint>
          <Trackpoint>
            <Time>2019-07-26T12:12:28.000Z</Time>
            <Position>
              <LatitudeDegrees>42.9169409908354282379150390625</LatitudeDegrees>
              <LongitudeDegrees>-8.0640984512865543365478515625</LongitudeDegrees>
            </Position>
            <AltitudeMeters>432.600006103515625</AltitudeMeters>
            <DistanceMeters>52187.515129893</DistanceMeters>
          </Trackpoint>
          <Trackpoint>
            <Time>2019-07-26T12:12:29.000Z</Time>
            <Position>
              <LatitudeDegrees>42.9169487021863460540771484375</LatitudeDegrees>
              <LongitudeDegrees>-8.064173720777034759521484375</LongitudeDegrees>
            </Position>
            <AltitudeMeters>430.79998779296875</AltitudeMeters>
            <DistanceMeters>52193.710113742</DistanceMeters>
          </Trackpoint>
          <Trackpoint>
            <Time>2019-07-26T12:12:30.000Z</Time>
            <Position>
              <LatitudeDegrees>42.9169503785669803619384765625</LatitudeDegrees>
              <LongitudeDegrees>-8.06426231749355792999267578125</LongitudeDegrees>
            </Position>
            <AltitudeMeters>429</AltitudeMeters>
            <DistanceMeters>52200.934644304</DistanceMeters>
          </Trackpoint>
          <Trackpoint>
            <Time>2019-07-26T12:12:31.000Z</Time>
            <Position>
              <LatitudeDegrees>42.91694006882607936859130859375</LatitudeDegrees>
              <LongitudeDegrees>-8.06436407379806041717529296875</LongitudeDegrees>
            </Position>
            <AltitudeMeters>427.79998779296875</AltitudeMeters>
            <DistanceMeters>52209.30724745</DistanceMeters>
          </Trackpoint>
          <Trackpoint>
            <Time>2019-07-26T12:12:32.000Z</Time>
            <Position>
              <LatitudeDegrees>42.91692380793392658233642578125</LatitudeDegrees>
              <LongitudeDegrees>-8.0644689314067363739013671875</LongitudeDegrees>
            </Position>
            <AltitudeMeters>426.600006103515625</AltitudeMeters>
            <DistanceMeters>52218.043505579</DistanceMeters>
          </Trackpoint>
          <Trackpoint>
            <Time>2019-07-26T12:12:33.000Z</Time>
            <Position>
              <LatitudeDegrees>42.91690595448017120361328125</LatitudeDegrees>
              <LongitudeDegrees>-8.0645742081105709075927734375</LongitudeDegrees>
            </Position>
            <AltitudeMeters>425.399993896484375</AltitudeMeters>
            <DistanceMeters>52226.851820787</DistanceMeters>
          </Trackpoint>
          <Trackpoint>
            <Time>2019-07-26T12:12:35.000Z</Time>
            <Position>
              <LatitudeDegrees>42.9168571718037128448486328125</LatitudeDegrees>
              <LongitudeDegrees>-8.06478769518435001373291015625</LongitudeDegrees>
            </Position>
            <AltitudeMeters>423.600006103515625</AltitudeMeters>
            <DistanceMeters>52245.080609913</DistanceMeters>
          </Trackpoint>
          <Trackpoint>
            <Time>2019-07-26T12:12:37.000Z</Time>
            <Position>
              <LatitudeDegrees>42.9168020188808441162109375</LatitudeDegrees>
              <LongitudeDegrees>-8.064985089004039764404296875</LongitudeDegrees>
            </Position>
            <AltitudeMeters>421.79998779296875</AltitudeMeters>
            <DistanceMeters>52262.301694971</DistanceMeters>
          </Trackpoint>
          <Trackpoint>
            <Time>2019-07-26T12:12:38.000Z</Time>
            <Position>
              <LatitudeDegrees>42.91678525507450103759765625</LatitudeDegrees>
              <LongitudeDegrees>-8.06509246118366718292236328125</LongitudeDegrees>
            </Position>
            <AltitudeMeters>421.20001220703125</AltitudeMeters>
            <DistanceMeters>52271.250366264</DistanceMeters>
          </Trackpoint>
          <Trackpoint>
            <Time>2019-07-26T12:12:39.000Z</Time>
            <Position>
              <LatitudeDegrees>42.9167562536895275115966796875</LatitudeDegrees>
              <LongitudeDegrees>-8.06519052945077419281005859375</LongitudeDegrees>
            </Position>
            <AltitudeMeters>420.399993896484375</AltitudeMeters>
            <DistanceMeters>52279.871127781</DistanceMeters>
          </Trackpoint>
          <Trackpoint>
            <Time>2019-07-26T12:12:41.000Z</Time>
            <Position>
              <LatitudeDegrees>42.91669950820505619049072265625</LatitudeDegrees>
              <LongitudeDegrees>-8.06539756245911121368408203125</LongitudeDegrees>
            </Position>
            <AltitudeMeters>419.20001220703125</AltitudeMeters>
            <DistanceMeters>52297.889656257</DistanceMeters>
          </Trackpoint>
          <Trackpoint>
            <Time>2019-07-26T12:12:43.000Z</Time>
            <Position>
              <LatitudeDegrees>42.9166439361870288848876953125</LatitudeDegrees>
              <LongitudeDegrees>-8.06556955911219120025634765625</LongitudeDegrees>
            </Position>
            <AltitudeMeters>418.20001220703125</AltitudeMeters>
            <DistanceMeters>52313.213137512</DistanceMeters>
          </Trackpoint>
          <Trackpoint>
            <Time>2019-07-26T12:12:45.000Z</Time>
            <Position>
              <LatitudeDegrees>42.9166087321937084197998046875</LatitudeDegrees>
              <LongitudeDegrees>-8.0656990595161914825439453125</LongitudeDegrees>
            </Position>
            <AltitudeMeters>417.20001220703125</AltitudeMeters>
            <DistanceMeters>52324.472499981</DistanceMeters>
          </Trackpoint>
          <Trackpoint>
            <Time>2019-07-26T12:12:46.000Z</Time>
            <Position>
              <LatitudeDegrees>42.91659884154796600341796875</LatitudeDegrees>
              <LongitudeDegrees>-8.06575857102870941162109375</LongitudeDegrees>
            </Position>
            <AltitudeMeters>417</AltitudeMeters>
            <DistanceMeters>52329.447581843</DistanceMeters>
          </Trackpoint>
          <Trackpoint>
            <Time>2019-07-26T12:12:47.000Z</Time>
            <Position>
              <LatitudeDegrees>42.91658283211290836334228515625</LatitudeDegrees>
              <LongitudeDegrees>-8.06582403369247913360595703125</LongitudeDegrees>
            </Position>
            <AltitudeMeters>416.79998779296875</AltitudeMeters>
            <DistanceMeters>52335.073452259</DistanceMeters>
          </Trackpoint>
          <Trackpoint>
            <Time>2019-07-26T12:12:50.000Z</Time>
            <Position>
              <LatitudeDegrees>42.9165433533489704132080078125</LatitudeDegrees>
              <LongitudeDegrees>-8.06604296900331974029541015625</LongitudeDegrees>
            </Position>
            <AltitudeMeters>417</AltitudeMeters>
            <DistanceMeters>52353.452218253</DistanceMeters>
          </Trackpoint>
          <Trackpoint>
            <Time>2019-07-26T12:12:53.000Z</Time>
            <Position>
              <LatitudeDegrees>42.91648484766483306884765625</LatitudeDegrees>
              <LongitudeDegrees>-8.06626944802701473236083984375</LongitudeDegrees>
            </Position>
            <AltitudeMeters>417</AltitudeMeters>
            <DistanceMeters>52373.027721413</DistanceMeters>
          </Trackpoint>
          <Trackpoint>
            <Time>2019-07-26T12:12:56.000Z</Time>
            <Position>
              <LatitudeDegrees>42.916441261768341064453125</LatitudeDegrees>
              <LongitudeDegrees>-8.06650045327842235565185546875</LongitudeDegrees>
            </Position>
            <AltitudeMeters>417.20001220703125</AltitudeMeters>
            <DistanceMeters>52392.472239939</DistanceMeters>
          </Trackpoint>
          <Trackpoint>
            <Time>2019-07-26T12:12:59.000Z</Time>
            <Position>
              <LatitudeDegrees>42.91640865616500377655029296875</LatitudeDegrees>
              <LongitudeDegrees>-8.06672894395887851715087890625</LongitudeDegrees>
            </Position>
            <AltitudeMeters>417.399993896484375</AltitudeMeters>
            <DistanceMeters>52411.447625788</DistanceMeters>
          </Trackpoint>
          <Trackpoint>
            <Time>2019-07-26T12:13:02.000Z</Time>
            <Position>
              <LatitudeDegrees>42.916377894580364227294921875</LatitudeDegrees>
              <LongitudeDegrees>-8.06695483624935150146484375</LongitudeDegrees>
            </Position>
            <AltitudeMeters>417.600006103515625</AltitudeMeters>
            <DistanceMeters>52430.176086999</DistanceMeters>
          </Trackpoint>
          <Trackpoint>
            <Time>2019-07-26T12:13:05.000Z</Time>
            <Position>
              <LatitudeDegrees>42.91631092317402362823486328125</LatitudeDegrees>
              <LongitudeDegrees>-8.0671803094446659088134765625</LongitudeDegrees>
            </Position>
            <AltitudeMeters>417.79998779296875</AltitudeMeters>
            <DistanceMeters>52450.009143493</DistanceMeters>
          </Trackpoint>
          <Trackpoint>
            <Time>2019-07-26T12:13:07.000Z</Time>
            <Position>
              <LatitudeDegrees>42.9162655770778656005859375</LatitudeDegrees>
              <LongitudeDegrees>-8.0673296749591827392578125</LongitudeDegrees>
            </Position>
            <AltitudeMeters>417.79998779296875</AltitudeMeters>
            <DistanceMeters>52463.18945497</DistanceMeters>
          </Trackpoint>
          <Trackpoint>
            <Time>2019-07-26T12:13:10.000Z</Time>
            <Position>
              <LatitudeDegrees>42.91622760705649852752685546875</LatitudeDegrees>
              <LongitudeDegrees>-8.06754626333713531494140625</LongitudeDegrees>
            </Position>
            <AltitudeMeters>418</AltitudeMeters>
            <DistanceMeters>52481.342542301</DistanceMeters>
          </Trackpoint>
          <Trackpoint>
            <Time>2019-07-26T12:13:11.000Z</Time>
            <Position>
              <LatitudeDegrees>42.91622425429522991180419921875</LatitudeDegrees>
              <LongitudeDegrees>-8.06761600077152252197265625</LongitudeDegrees>
            </Position>
            <AltitudeMeters>418</AltitudeMeters>
            <DistanceMeters>52487.039391846</DistanceMeters>
          </Trackpoint>
          <Trackpoint>
            <Time>2019-07-26T12:13:15.000Z</Time>
            <Position>
              <LatitudeDegrees>42.91619190014898777008056640625</LatitudeDegrees>
              <LongitudeDegrees>-8.0678951181471347808837890625</LongitudeDegrees>
            </Position>
            <AltitudeMeters>418.20001220703125</AltitudeMeters>
            <DistanceMeters>52510.074306473</DistanceMeters>
          </Trackpoint>
          <Trackpoint>
            <Time>2019-07-26T12:13:18.000Z</Time>
            <Position>
              <LatitudeDegrees>42.91617345996201038360595703125</LatitudeDegrees>
              <LongitudeDegrees>-8.0681016482412815093994140625</LongitudeDegrees>
            </Position>
            <AltitudeMeters>418.20001220703125</AltitudeMeters>
            <DistanceMeters>52527.03384641</DistanceMeters>
          </Trackpoint>
          <Trackpoint>
            <Time>2019-07-26T12:13:22.000Z</Time>
            <Position>
              <LatitudeDegrees>42.91613909415900707244873046875</LatitudeDegrees>
              <LongitudeDegrees>-8.06836945004761219024658203125</LongitudeDegrees>
            </Position>
            <AltitudeMeters>418.79998779296875</AltitudeMeters>
            <DistanceMeters>52549.195657207</DistanceMeters>
          </Trackpoint>
          <Trackpoint>
            <Time>2019-07-26T12:13:24.000Z</Time>
            <Position>
              <LatitudeDegrees>42.91611478663980960845947265625</LatitudeDegrees>
              <LongitudeDegrees>-8.06850649416446685791015625</LongitudeDegrees>
            </Position>
            <AltitudeMeters>419</AltitudeMeters>
            <DistanceMeters>52560.689569438</DistanceMeters>
          </Trackpoint>
          <Trackpoint>
            <Time>2019-07-26T12:13:26.000Z</Time>
            <Position>
              <LatitudeDegrees>42.91609215550124645233154296875</LatitudeDegrees>
              <LongitudeDegrees>-8.06864270009100437164306640625</LongitudeDegrees>
            </Position>
            <AltitudeMeters>419.20001220703125</AltitudeMeters>
            <DistanceMeters>52572.074150555</DistanceMeters>
          </Trackpoint>
          <Trackpoint>
            <Time>2019-07-26T12:13:32.000Z</Time>
            <Position>
              <LatitudeDegrees>42.91600867174565792083740234375</LatitudeDegrees>
              <LongitudeDegrees>-8.0690491385757923126220703125</LongitudeDegrees>
            </Position>
            <AltitudeMeters>419.79998779296875</AltitudeMeters>
            <DistanceMeters>52606.482220283</DistanceMeters>
          </Trackpoint>
          <Trackpoint>
            <Time>2019-07-26T12:13:34.000Z</Time>
            <Position>
              <LatitudeDegrees>42.91597187519073486328125</LatitudeDegrees>
              <LongitudeDegrees>-8.0691805668175220489501953125</LongitudeDegrees>
            </Position>
            <AltitudeMeters>420.399993896484375</AltitudeMeters>
            <DistanceMeters>52617.951358156</DistanceMeters>
          </Trackpoint>
          <Trackpoint>
            <Time>2019-07-26T12:13:39.000Z</Time>
            <Position>
              <LatitudeDegrees>42.9158699512481689453125</LatitudeDegrees>
              <LongitudeDegrees>-8.06948323734104633331298828125</LongitudeDegrees>
            </Position>
            <AltitudeMeters>421.20001220703125</AltitudeMeters>
            <DistanceMeters>52645.106062763</DistanceMeters>
          </Trackpoint>
          <Trackpoint>
            <Time>2019-07-26T12:13:44.000Z</Time>
            <Position>
              <LatitudeDegrees>42.9158010520040988922119140625</LatitudeDegrees>
              <LongitudeDegrees>-8.06977526284754276275634765625</LongitudeDegrees>
            </Position>
            <AltitudeMeters>421.399993896484375</AltitudeMeters>
            <DistanceMeters>52670.114703761</DistanceMeters>
          </Trackpoint>
          <Trackpoint>
            <Time>2019-07-26T12:13:46.000Z</Time>
            <Position>
              <LatitudeDegrees>42.9157826118171215057373046875</LatitudeDegrees>
              <LongitudeDegrees>-8.069886825978755950927734375</LongitudeDegrees>
            </Position>
            <AltitudeMeters>421.600006103515625</AltitudeMeters>
            <DistanceMeters>52679.437497643</DistanceMeters>
          </Trackpoint>
          <Trackpoint>
            <Time>2019-07-26T12:13:52.000Z</Time>
            <Position>
              <LatitudeDegrees>42.915757633745670318603515625</LatitudeDegrees>
              <LongitudeDegrees>-8.07025839574635028839111328125</LongitudeDegrees>
            </Position>
            <AltitudeMeters>422.399993896484375</AltitudeMeters>
            <DistanceMeters>52709.852281731</DistanceMeters>
          </Trackpoint>
          <Trackpoint>
            <Time>2019-07-26T12:13:53.000Z</Time>
            <Position>
              <LatitudeDegrees>42.91576174087822437286376953125</LatitudeDegrees>
              <LongitudeDegrees>-8.0703248642385005950927734375</LongitudeDegrees>
            </Position>
            <AltitudeMeters>422.600006103515625</AltitudeMeters>
            <DistanceMeters>52715.289603707</DistanceMeters>
          </Trackpoint>
          <Trackpoint>
            <Time>2019-07-26T12:14:00.000Z</Time>
            <Position>
              <LatitudeDegrees>42.9158134572207927703857421875</LatitudeDegrees>
              <LongitudeDegrees>-8.07080405764281749725341796875</LongitudeDegrees>
            </Position>
            <AltitudeMeters>423.399993896484375</AltitudeMeters>
            <DistanceMeters>52754.771802688</DistanceMeters>
          </Trackpoint>
          <Trackpoint>
            <Time>2019-07-26T12:14:01.000Z</Time>
            <Position>
              <LatitudeDegrees>42.915818654000759124755859375</LatitudeDegrees>
              <LongitudeDegrees>-8.07087295688688755035400390625</LongitudeDegrees>
            </Position>
            <AltitudeMeters>423.600006103515625</AltitudeMeters>
            <DistanceMeters>52760.417701186</DistanceMeters>
          </Trackpoint>
          <Trackpoint>
            <Time>2019-07-26T12:14:07.000Z</Time>
            <Position>
              <LatitudeDegrees>42.91580088436603546142578125</LatitudeDegrees>
              <LongitudeDegrees>-8.0713072232902050018310546875</LongitudeDegrees>
            </Position>
            <AltitudeMeters>424</AltitudeMeters>
            <DistanceMeters>52795.87119919</DistanceMeters>
          </Trackpoint>
          <Trackpoint>
            <Time>2019-07-26T12:14:11.000Z</Time>
            <Position>
              <LatitudeDegrees>42.9157919995486736297607421875</LatitudeDegrees>
              <LongitudeDegrees>-8.0716230534017086029052734375</LongitudeDegrees>
            </Position>
            <AltitudeMeters>424.20001220703125</AltitudeMeters>
            <DistanceMeters>52821.634481957</DistanceMeters>
          </Trackpoint>
          <Trackpoint>
            <Time>2019-07-26T12:14:12.000Z</Time>
            <Position>
              <LatitudeDegrees>42.91580063290894031524658203125</LatitudeDegrees>
              <LongitudeDegrees>-8.07170427404344081878662109375</LongitudeDegrees>
            </Position>
            <AltitudeMeters>424.20001220703125</AltitudeMeters>
            <DistanceMeters>52828.32560436</DistanceMeters>
          </Trackpoint>
          <Trackpoint>
            <Time>2019-07-26T12:14:16.000Z</Time>
            <Position>
              <LatitudeDegrees>42.91589417494833469390869140625</LatitudeDegrees>
              <LongitudeDegrees>-8.07201926596462726593017578125</LongitudeDegrees>
            </Position>
            <AltitudeMeters>424.399993896484375</AltitudeMeters>
            <DistanceMeters>52856.032044017</DistanceMeters>
          </Trackpoint>
          <Trackpoint>
            <Time>2019-07-26T12:14:18.000Z</Time>
            <Position>
              <LatitudeDegrees>42.9159479029476642608642578125</LatitudeDegrees>
              <LongitudeDegrees>-8.07217248715460300445556640625</LongitudeDegrees>
            </Position>
            <AltitudeMeters>424.20001220703125</AltitudeMeters>
            <DistanceMeters>52869.879233018</DistanceMeters>
          </Trackpoint>
          <Trackpoint>
            <Time>2019-07-26T12:14:20.000Z</Time>
            <Position>
              <LatitudeDegrees>42.91596986353397369384765625</LatitudeDegrees>
              <LongitudeDegrees>-8.0723408795893192291259765625</LongitudeDegrees>
            </Position>
            <AltitudeMeters>423.600006103515625</AltitudeMeters>
            <DistanceMeters>52883.82130695</DistanceMeters>
          </Trackpoint>
          <Trackpoint>
            <Time>2019-07-26T12:14:23.000Z</Time>
            <Position>
              <LatitudeDegrees>42.9159096814692020416259765625</LatitudeDegrees>
              <LongitudeDegrees>-8.0726111121475696563720703125</LongitudeDegrees>
            </Position>
            <AltitudeMeters>422.79998779296875</AltitudeMeters>
            <DistanceMeters>52906.844850279</DistanceMeters>
          </Trackpoint>
          <Trackpoint>
            <Time>2019-07-26T12:14:24.000Z</Time>
            <Position>
              <LatitudeDegrees>42.91588059626519680023193359375</LatitudeDegrees>
              <LongitudeDegrees>-8.07270222343504428863525390625</LongitudeDegrees>
            </Position>
            <AltitudeMeters>422.600006103515625</AltitudeMeters>
            <DistanceMeters>52914.946121512</DistanceMeters>
          </Trackpoint>
          <Trackpoint>
            <Time>2019-07-26T12:14:26.000Z</Time>
            <Position>
              <LatitudeDegrees>42.91580356657505035400390625</LatitudeDegrees>
              <LongitudeDegrees>-8.0728726275265216827392578125</LongitudeDegrees>
            </Position>
            <AltitudeMeters>422.20001220703125</AltitudeMeters>
            <DistanceMeters>52931.269155407</DistanceMeters>
          </Trackpoint>
          <Trackpoint>
            <Time>2019-07-26T12:14:27.000Z</Time>
            <Position>
              <LatitudeDegrees>42.9157624952495098114013671875</LatitudeDegrees>
              <LongitudeDegrees>-8.07295787148177623748779296875</LongitudeDegrees>
            </Position>
            <AltitudeMeters>422</AltitudeMeters>
            <DistanceMeters>52939.586571811</DistanceMeters>
          </Trackpoint>
          <Trackpoint>
            <Time>2019-07-26T12:14:28.000Z</Time>
            <Position>
              <LatitudeDegrees>42.91572502814233303070068359375</LatitudeDegrees>
              <LongitudeDegrees>-8.07304688729345798492431640625</LongitudeDegrees>
            </Position>
            <AltitudeMeters>421.79998779296875</AltitudeMeters>
            <DistanceMeters>52947.955399262</DistanceMeters>
          </Trackpoint>
          <Trackpoint>
            <Time>2019-07-26T12:14:29.000Z</Time>
            <Position>
              <LatitudeDegrees>42.91568823158740997314453125</LatitudeDegrees>
              <LongitudeDegrees>-8.07313573546707630157470703125</LongitudeDegrees>
            </Position>
            <AltitudeMeters>421.20001220703125</AltitudeMeters>
            <DistanceMeters>52956.27552943</DistanceMeters>
          </Trackpoint>
          <Trackpoint>
            <Time>2019-07-26T12:14:32.000Z</Time>
            <Position>
              <LatitudeDegrees>42.915582954883575439453125</LatitudeDegrees>
              <LongitudeDegrees>-8.07337797246873378753662109375</LongitudeDegrees>
            </Position>
            <AltitudeMeters>420.79998779296875</AltitudeMeters>
            <DistanceMeters>52979.235840029</DistanceMeters>
          </Trackpoint>
          <Trackpoint>
            <Time>2019-07-26T12:14:33.000Z</Time>
            <Position>
              <LatitudeDegrees>42.915555126965045928955078125</LatitudeDegrees>
              <LongitudeDegrees>-8.07345977984368801116943359375</LongitudeDegrees>
            </Position>
            <AltitudeMeters>420.79998779296875</AltitudeMeters>
            <DistanceMeters>52986.587985131</DistanceMeters>
          </Trackpoint>
          <Trackpoint>
            <Time>2019-07-26T12:14:35.000Z</Time>
            <Position>
              <LatitudeDegrees>42.91554716415703296661376953125</LatitudeDegrees>
              <LongitudeDegrees>-8.07364367879927158355712890625</LongitudeDegrees>
            </Position>
            <AltitudeMeters>420.20001220703125</AltitudeMeters>
            <DistanceMeters>53001.604611548</DistanceMeters>
          </Trackpoint>
          <Trackpoint>
            <Time>2019-07-26T12:14:36.000Z</Time>
            <Position>
              <LatitudeDegrees>42.91557113640010356903076171875</LatitudeDegrees>
              <LongitudeDegrees>-8.07374174706637859344482421875</LongitudeDegrees>
            </Position>
            <AltitudeMeters>419.79998779296875</AltitudeMeters>
            <DistanceMeters>53010.032575793</DistanceMeters>
          </Trackpoint>
          <Trackpoint>
            <Time>2019-07-26T12:14:39.000Z</Time>
            <Position>
              <LatitudeDegrees>42.9157158918678760528564453125</LatitudeDegrees>
              <LongitudeDegrees>-8.07400510646402835845947265625</LongitudeDegrees>
            </Position>
            <AltitudeMeters>419.20001220703125</AltitudeMeters>
            <DistanceMeters>53036.873207281</DistanceMeters>
          </Trackpoint>
          <Trackpoint>
            <Time>2019-07-26T12:14:40.000Z</Time>
            <Position>
              <LatitudeDegrees>42.91577733121812343597412109375</LatitudeDegrees>
              <LongitudeDegrees>-8.07408758439123630523681640625</LongitudeDegrees>
            </Position>
            <AltitudeMeters>419</AltitudeMeters>
            <DistanceMeters>53046.4629048</DistanceMeters>
          </Trackpoint>
          <Trackpoint>
            <Time>2019-07-26T12:14:41.000Z</Time>
            <Position>
              <LatitudeDegrees>42.9158362559974193572998046875</LatitudeDegrees>
              <LongitudeDegrees>-8.07416603900492191314697265625</LongitudeDegrees>
            </Position>
            <AltitudeMeters>418.600006103515625</AltitudeMeters>
            <DistanceMeters>53055.623006891</DistanceMeters>
          </Trackpoint>
          <Trackpoint>
            <Time>2019-07-26T12:14:42.000Z</Time>
            <Position>
              <LatitudeDegrees>42.9158915765583515167236328125</LatitudeDegrees>
              <LongitudeDegrees>-8.07425589300692081451416015625</LongitudeDegrees>
            </Position>
            <AltitudeMeters>418.399993896484375</AltitudeMeters>
            <DistanceMeters>53065.191965828</DistanceMeters>
          </Trackpoint>
          <Trackpoint>
            <Time>2019-07-26T12:14:44.000Z</Time>
            <Position>
              <LatitudeDegrees>42.91595913469791412353515625</LatitudeDegrees>
              <LongitudeDegrees>-8.07449293322861194610595703125</LongitudeDegrees>
            </Position>
            <AltitudeMeters>417.600006103515625</AltitudeMeters>
            <DistanceMeters>53085.925218324</DistanceMeters>
          </Trackpoint>
          <Trackpoint>
            <Time>2019-07-26T12:14:46.000Z</Time>
            <Position>
              <LatitudeDegrees>42.915980257093906402587890625</LatitudeDegrees>
              <LongitudeDegrees>-8.07474506087601184844970703125</LongitudeDegrees>
            </Position>
            <AltitudeMeters>416.20001220703125</AltitudeMeters>
            <DistanceMeters>53106.610724658</DistanceMeters>
          </Trackpoint>
          <Trackpoint>
            <Time>2019-07-26T12:14:47.000Z</Time>
            <Position>
              <LatitudeDegrees>42.9159908182919025421142578125</LatitudeDegrees>
              <LongitudeDegrees>-8.07487196289002895355224609375</LongitudeDegrees>
            </Position>
            <AltitudeMeters>415.600006103515625</AltitudeMeters>
            <DistanceMeters>53117.021247098</DistanceMeters>
          </Trackpoint>
          <Trackpoint>
            <Time>2019-07-26T12:14:49.000Z</Time>
            <Position>
              <LatitudeDegrees>42.915998362004756927490234375</LatitudeDegrees>
              <LongitudeDegrees>-8.075121827423572540283203125</LongitudeDegrees>
            </Position>
            <AltitudeMeters>414.600006103515625</AltitudeMeters>
            <DistanceMeters>53137.405750959</DistanceMeters>
          </Trackpoint>
          <Trackpoint>
            <Time>2019-07-26T12:14:51.000Z</Time>
            <Position>
              <LatitudeDegrees>42.91600607335567474365234375</LatitudeDegrees>
              <LongitudeDegrees>-8.07537269778549671173095703125</LongitudeDegrees>
            </Position>
            <AltitudeMeters>413.399993896484375</AltitudeMeters>
            <DistanceMeters>53157.872705206</DistanceMeters>
          </Trackpoint>
          <Trackpoint>
            <Time>2019-07-26T12:14:52.000Z</Time>
            <Position>
              <LatitudeDegrees>42.9160089232027530670166015625</LatitudeDegrees>
              <LongitudeDegrees>-8.07549574412405490875244140625</LongitudeDegrees>
            </Position>
            <AltitudeMeters>412.79998779296875</AltitudeMeters>
            <DistanceMeters>53167.906914311</DistanceMeters>
          </Trackpoint>
          <Trackpoint>
            <Time>2019-07-26T12:14:53.000Z</Time>
            <Position>
              <LatitudeDegrees>42.916012108325958251953125</LatitudeDegrees>
              <LongitudeDegrees>-8.07561761699616909027099609375</LongitudeDegrees>
            </Position>
            <AltitudeMeters>412.20001220703125</AltitudeMeters>
            <DistanceMeters>53177.847090187</DistanceMeters>
          </Trackpoint>
          <Trackpoint>
            <Time>2019-07-26T12:14:56.000Z</Time>
            <Position>
              <LatitudeDegrees>42.91603163816034793853759765625</LatitudeDegrees>
              <LongitudeDegrees>-8.07594115845859050750732421875</LongitudeDegrees>
            </Position>
            <AltitudeMeters>411.20001220703125</AltitudeMeters>
            <DistanceMeters>53204.309087047</DistanceMeters>
          </Trackpoint>
          <Trackpoint>
            <Time>2019-07-26T12:14:57.000Z</Time>
            <Position>
              <LatitudeDegrees>42.9160484857857227325439453125</LatitudeDegrees>
              <LongitudeDegrees>-8.07604375295341014862060546875</LongitudeDegrees>
            </Position>
            <AltitudeMeters>410.79998779296875</AltitudeMeters>
            <DistanceMeters>53212.879422035</DistanceMeters>
          </Trackpoint>
          <Trackpoint>
            <Time>2019-07-26T12:14:59.000Z</Time>
            <Position>
              <LatitudeDegrees>42.91607379913330078125</LatitudeDegrees>
              <LongitudeDegrees>-8.0762542225420475006103515625</LongitudeDegrees>
            </Position>
            <AltitudeMeters>409.399993896484375</AltitudeMeters>
            <DistanceMeters>53230.264896395</DistanceMeters>
          </Trackpoint>
          <Trackpoint>
            <Time>2019-07-26T12:15:01.000Z</Time>
            <Position>
              <LatitudeDegrees>42.91608494706451892852783203125</LatitudeDegrees>
              <LongitudeDegrees>-8.0764490179717540740966796875</LongitudeDegrees>
            </Position>
            <AltitudeMeters>408.79998779296875</AltitudeMeters>
            <DistanceMeters>53246.191441761</DistanceMeters>
          </Trackpoint>
          <Trackpoint>
            <Time>2019-07-26T12:15:02.000Z</Time>
            <Position>
              <LatitudeDegrees>42.9160957597196102142333984375</LatitudeDegrees>
              <LongitudeDegrees>-8.0765110440552234649658203125</LongitudeDegrees>
            </Position>
            <AltitudeMeters>408.20001220703125</AltitudeMeters>
            <DistanceMeters>53251.388456158</DistanceMeters>
          </Trackpoint>
          <Trackpoint>
            <Time>2019-07-26T12:15:04.000Z</Time>
            <Position>
              <LatitudeDegrees>42.91612006723880767822265625</LatitudeDegrees>
              <LongitudeDegrees>-8.0765874870121479034423828125</LongitudeDegrees>
            </Position>
            <AltitudeMeters>406.79998779296875</AltitudeMeters>
            <DistanceMeters>53258.181370896</DistanceMeters>
          </Trackpoint>
          <Trackpoint>
            <Time>2019-07-26T12:15:05.000Z</Time>
            <Position>
              <LatitudeDegrees>42.916126437485218048095703125</LatitudeDegrees>
              <LongitudeDegrees>-8.0766019038856029510498046875</LongitudeDegrees>
            </Position>
            <AltitudeMeters>406</AltitudeMeters>
            <DistanceMeters>53259.551865661</DistanceMeters>
          </Trackpoint>
          <Trackpoint>
            <Time>2019-07-26T12:15:06.000Z</Time>
            <Position>
              <LatitudeDegrees>42.91612450964748859405517578125</LatitudeDegrees>
              <LongitudeDegrees>-8.07662285864353179931640625</LongitudeDegrees>
            </Position>
            <AltitudeMeters>405.399993896484375</AltitudeMeters>
            <DistanceMeters>53261.275494144</DistanceMeters>
          </Trackpoint>
          <Trackpoint>
            <Time>2019-07-26T12:15:09.000Z</Time>
            <Position>
              <LatitudeDegrees>42.91610305197536945343017578125</LatitudeDegrees>
              <LongitudeDegrees>-8.07671313174068927764892578125</LongitudeDegrees>
            </Position>
            <AltitudeMeters>403.79998779296875</AltitudeMeters>
            <DistanceMeters>53269.011859355</DistanceMeters>
          </Trackpoint>
          <Trackpoint>
            <Time>2019-07-26T12:15:11.000Z</Time>
            <Position>
              <LatitudeDegrees>42.91609324514865875244140625</LatitudeDegrees>
              <LongitudeDegrees>-8.0767799355089664459228515625</LongitudeDegrees>
            </Position>
            <AltitudeMeters>402</AltitudeMeters>
            <DistanceMeters>53274.564217501</DistanceMeters>
          </Trackpoint>
          <Trackpoint>
            <Time>2019-07-26T12:15:12.000Z</Time>
            <Position>
              <LatitudeDegrees>42.916092909872531890869140625</LatitudeDegrees>
              <LongitudeDegrees>-8.07682000100612640380859375</LongitudeDegrees>
            </Position>
            <AltitudeMeters>401.399993896484375</AltitudeMeters>
            <DistanceMeters>53277.828492337</DistanceMeters>
          </Trackpoint>
          <Trackpoint>
            <Time>2019-07-26T12:15:13.000Z</Time>
            <Position>
              <LatitudeDegrees>42.91610129177570343017578125</LatitudeDegrees>
              <LongitudeDegrees>-8.076867274940013885498046875</LongitudeDegrees>
            </Position>
            <AltitudeMeters>400.79998779296875</AltitudeMeters>
            <DistanceMeters>53281.792370868</DistanceMeters>
          </Trackpoint>
          <Trackpoint>
            <Time>2019-07-26T12:15:14.000Z</Time>
            <Position>
              <LatitudeDegrees>42.91611797176301479339599609375</LatitudeDegrees>
              <LongitudeDegrees>-8.07692284695804119110107421875</LongitudeDegrees>
            </Position>
            <AltitudeMeters>400</AltitudeMeters>
            <DistanceMeters>53286.686938551</DistanceMeters>
          </Trackpoint>
          <Trackpoint>
            <Time>2019-07-26T12:15:16.000Z</Time>
            <Position>
              <LatitudeDegrees>42.91615149937570095062255859375</LatitudeDegrees>
              <LongitudeDegrees>-8.077050335705280303955078125</LongitudeDegrees>
            </Position>
            <AltitudeMeters>399.600006103515625</AltitudeMeters>
            <DistanceMeters>53297.728862847</DistanceMeters>
          </Trackpoint>
          <Trackpoint>
            <Time>2019-07-26T12:15:19.000Z</Time>
            <Position>
              <LatitudeDegrees>42.9161651618778705596923828125</LatitudeDegrees>
              <LongitudeDegrees>-8.07727119885385036468505859375</LongitudeDegrees>
            </Position>
            <AltitudeMeters>399.399993896484375</AltitudeMeters>
            <DistanceMeters>53315.795937964</DistanceMeters>
          </Trackpoint>
          <Trackpoint>
            <Time>2019-07-26T12:15:22.000Z</Time>
            <Position>
              <LatitudeDegrees>42.9161775670945644378662109375</LatitudeDegrees>
              <LongitudeDegrees>-8.07752072811126708984375</LongitudeDegrees>
            </Position>
            <AltitudeMeters>399.399993896484375</AltitudeMeters>
            <DistanceMeters>53336.182656641</DistanceMeters>
          </Trackpoint>
          <Trackpoint>
            <Time>2019-07-26T12:15:24.000Z</Time>
            <Position>
              <LatitudeDegrees>42.916176058351993560791015625</LatitudeDegrees>
              <LongitudeDegrees>-8.07769213803112506866455078125</LongitudeDegrees>
            </Position>
            <AltitudeMeters>399.20001220703125</AltitudeMeters>
            <DistanceMeters>53350.155784883</DistanceMeters>
          </Trackpoint>
          <Trackpoint>
            <Time>2019-07-26T12:15:27.000Z</Time>
            <Position>
              <LatitudeDegrees>42.9161738790571689605712890625</LatitudeDegrees>
              <LongitudeDegrees>-8.077949546277523040771484375</LongitudeDegrees>
            </Position>
            <AltitudeMeters>399</AltitudeMeters>
            <DistanceMeters>53371.139267135</DistanceMeters>
          </Trackpoint>
          <Trackpoint>
            <Time>2019-07-26T12:15:28.000Z</Time>
            <Position>
              <LatitudeDegrees>42.9161852784454822540283203125</LatitudeDegrees>
              <LongitudeDegrees>-8.07801534421741962432861328125</LongitudeDegrees>
            </Position>
            <AltitudeMeters>399</AltitudeMeters>
            <DistanceMeters>53376.649997312</DistanceMeters>
          </Trackpoint>
          <Trackpoint>
            <Time>2019-07-26T12:15:29.000Z</Time>
            <Position>
              <LatitudeDegrees>42.916213609278202056884765625</LatitudeDegrees>
              <LongitudeDegrees>-8.078066222369670867919921875</LongitudeDegrees>
            </Position>
            <AltitudeMeters>398.79998779296875</AltitudeMeters>
            <DistanceMeters>53381.859160365</DistanceMeters>
          </Trackpoint>
          <Trackpoint>
            <Time>2019-07-26T12:15:30.000Z</Time>
            <Position>
              <LatitudeDegrees>42.9162526689469814300537109375</LatitudeDegrees>
              <LongitudeDegrees>-8.07810033671557903289794921875</LongitudeDegrees>
            </Position>
            <AltitudeMeters>398.600006103515625</AltitudeMeters>
            <DistanceMeters>53387.02043206</DistanceMeters>
          </Trackpoint>
          <Trackpoint>
            <Time>2019-07-26T12:15:33.000Z</Time>
            <Position>
              <LatitudeDegrees>42.91636993177235126495361328125</LatitudeDegrees>
              <LongitudeDegrees>-8.07812950573861598968505859375</LongitudeDegrees>
            </Position>
            <AltitudeMeters>398.20001220703125</AltitudeMeters>
            <DistanceMeters>53400.286787622</DistanceMeters>
          </Trackpoint>
          <Trackpoint>
            <Time>2019-07-26T12:15:36.000Z</Time>
            <Position>
              <LatitudeDegrees>42.916464395821094512939453125</LatitudeDegrees>
              <LongitudeDegrees>-8.078172840178012847900390625</LongitudeDegrees>
            </Position>
            <AltitudeMeters>397.79998779296875</AltitudeMeters>
            <DistanceMeters>53411.378485484</DistanceMeters>
          </Trackpoint>
          <Trackpoint>
            <Time>2019-07-26T12:15:37.000Z</Time>
            <Position>
              <LatitudeDegrees>42.9164833389222621917724609375</LatitudeDegrees>
              <LongitudeDegrees>-8.07821399532258510589599609375</LongitudeDegrees>
            </Position>
            <AltitudeMeters>397.600006103515625</AltitudeMeters>
            <DistanceMeters>53415.341224806</DistanceMeters>
          </Trackpoint>
          <Trackpoint>
            <Time>2019-07-26T12:15:38.000Z</Time>
            <Position>
              <LatitudeDegrees>42.91650035418570041656494140625</LatitudeDegrees>
              <LongitudeDegrees>-8.07826462201774120330810546875</LongitudeDegrees>
            </Position>
            <AltitudeMeters>397.399993896484375</AltitudeMeters>
            <DistanceMeters>53419.881672419</DistanceMeters>
          </Trackpoint>
          <Trackpoint>
            <Time>2019-07-26T12:15:42.000Z</Time>
            <Position>
              <LatitudeDegrees>42.9165990091860294342041015625</LatitudeDegrees>
              <LongitudeDegrees>-8.0785163305699825286865234375</LongitudeDegrees>
            </Position>
            <AltitudeMeters>397</AltitudeMeters>
            <DistanceMeters>53443.152160686</DistanceMeters>
          </Trackpoint>
          <Trackpoint>
            <Time>2019-07-26T12:15:44.000Z</Time>
            <Position>
              <LatitudeDegrees>42.9166596941649913787841796875</LatitudeDegrees>
              <LongitudeDegrees>-8.0786698870360851287841796875</LongitudeDegrees>
            </Position>
            <AltitudeMeters>397</AltitudeMeters>
            <DistanceMeters>53457.374774455</DistanceMeters>
          </Trackpoint>
          <Trackpoint>
            <Time>2019-07-26T12:15:46.000Z</Time>
            <Position>
              <LatitudeDegrees>42.9167349636554718017578125</LatitudeDegrees>
              <LongitudeDegrees>-8.07884163223206996917724609375</LongitudeDegrees>
            </Position>
            <AltitudeMeters>396.79998779296875</AltitudeMeters>
            <DistanceMeters>53473.68950808</DistanceMeters>
          </Trackpoint>
          <Trackpoint>
            <Time>2019-07-26T12:15:47.000Z</Time>
            <Position>
              <LatitudeDegrees>42.91678584180772304534912109375</LatitudeDegrees>
              <LongitudeDegrees>-8.07892159558832645416259765625</LongitudeDegrees>
            </Position>
            <AltitudeMeters>396.600006103515625</AltitudeMeters>
            <DistanceMeters>53482.323876101</DistanceMeters>
          </Trackpoint>
          <Trackpoint>
            <Time>2019-07-26T12:15:49.000Z</Time>
            <Position>
              <LatitudeDegrees>42.91691643185913562774658203125</LatitudeDegrees>
              <LongitudeDegrees>-8.0790313147008419036865234375</LongitudeDegrees>
            </Position>
            <AltitudeMeters>396.399993896484375</AltitudeMeters>
            <DistanceMeters>53499.389573434</DistanceMeters>
          </Trackpoint>
          <Trackpoint>
            <Time>2019-07-26T12:15:50.000Z</Time>
            <Position>
              <LatitudeDegrees>42.91699371300637722015380859375</LatitudeDegrees>
              <LongitudeDegrees>-8.0790544487535953521728515625</LongitudeDegrees>
            </Position>
            <AltitudeMeters>396</AltitudeMeters>
            <DistanceMeters>53508.194812576</DistanceMeters>
          </Trackpoint>
          <Trackpoint>
            <Time>2019-07-26T12:15:53.000Z</Time>
            <Position>
              <LatitudeDegrees>42.91724123060703277587890625</LatitudeDegrees>
              <LongitudeDegrees>-8.07907163165509700775146484375</LongitudeDegrees>
            </Position>
            <AltitudeMeters>395.399993896484375</AltitudeMeters>
            <DistanceMeters>53535.77941628</DistanceMeters>
          </Trackpoint>
          <Trackpoint>
            <Time>2019-07-26T12:15:54.000Z</Time>
            <Position>
              <LatitudeDegrees>42.91732815094292163848876953125</LatitudeDegrees>
              <LongitudeDegrees>-8.079069368541240692138671875</LongitudeDegrees>
            </Position>
            <AltitudeMeters>395.399993896484375</AltitudeMeters>
            <DistanceMeters>53545.455357194</DistanceMeters>
          </Trackpoint>
          <Trackpoint>
            <Time>2019-07-26T12:15:58.000Z</Time>
            <Position>
              <LatitudeDegrees>42.91764046065509319305419921875</LatitudeDegrees>
              <LongitudeDegrees>-8.07914069853723049163818359375</LongitudeDegrees>
            </Position>
            <AltitudeMeters>394</AltitudeMeters>
            <DistanceMeters>53580.698868299</DistanceMeters>
          </Trackpoint>
          <Trackpoint>
            <Time>2019-07-26T12:16:00.000Z</Time>
            <Position>
              <LatitudeDegrees>42.91777306236326694488525390625</LatitudeDegrees>
              <LongitudeDegrees>-8.079263828694820404052734375</LongitudeDegrees>
            </Position>
            <AltitudeMeters>393.20001220703125</AltitudeMeters>
            <DistanceMeters>53598.547202585</DistanceMeters>
          </Trackpoint>
          <Trackpoint>
            <Time>2019-07-26T12:16:01.000Z</Time>
            <Position>
              <LatitudeDegrees>42.91783877648413181304931640625</LatitudeDegrees>
              <LongitudeDegrees>-8.07933968491852283477783203125</LongitudeDegrees>
            </Position>
            <AltitudeMeters>392.600006103515625</AltitudeMeters>
            <DistanceMeters>53608.124650915</DistanceMeters>
          </Trackpoint>
          <Trackpoint>
            <Time>2019-07-26T12:16:02.000Z</Time>
            <Position>
              <LatitudeDegrees>42.917897365987300872802734375</LatitudeDegrees>
              <LongitudeDegrees>-8.07941730134189128875732421875</LongitudeDegrees>
            </Position>
            <AltitudeMeters>392</AltitudeMeters>
            <DistanceMeters>53617.211013715</DistanceMeters>
          </Trackpoint>
          <Trackpoint>
            <Time>2019-07-26T12:16:03.000Z</Time>
            <Position>
              <LatitudeDegrees>42.91794254444539546966552734375</LatitudeDegrees>
              <LongitudeDegrees>-8.0795015394687652587890625</LongitudeDegrees>
            </Position>
            <AltitudeMeters>391.399993896484375</AltitudeMeters>
            <DistanceMeters>53625.722140152</DistanceMeters>
          </Trackpoint>
          <Trackpoint>
            <Time>2019-07-26T12:16:04.000Z</Time>
            <Position>
              <LatitudeDegrees>42.91797892190515995025634765625</LatitudeDegrees>
              <LongitudeDegrees>-8.0796012841165065765380859375</LongitudeDegrees>
            </Position>
            <AltitudeMeters>390.600006103515625</AltitudeMeters>
            <DistanceMeters>53634.805023967</DistanceMeters>
          </Trackpoint>
          <Trackpoint>
            <Time>2019-07-26T12:16:05.000Z</Time>
            <Position>
              <LatitudeDegrees>42.91800373233854770660400390625</LatitudeDegrees>
              <LongitudeDegrees>-8.0797159485518932342529296875</LongitudeDegrees>
            </Position>
            <AltitudeMeters>390</AltitudeMeters>
            <DistanceMeters>53644.550707321</DistanceMeters>
          </Trackpoint>
          <Trackpoint>
            <Time>2019-07-26T12:16:06.000Z</Time>
            <Position>
              <LatitudeDegrees>42.91803105734288692474365234375</LatitudeDegrees>
              <LongitudeDegrees>-8.079837150871753692626953125</LongitudeDegrees>
            </Position>
            <AltitudeMeters>389.20001220703125</AltitudeMeters>
            <DistanceMeters>53654.887237904</DistanceMeters>
          </Trackpoint>
          <Trackpoint>
            <Time>2019-07-26T12:16:07.000Z</Time>
            <Position>
              <LatitudeDegrees>42.9180547781288623809814453125</LatitudeDegrees>
              <LongitudeDegrees>-8.07996531017124652862548828125</LongitudeDegrees>
            </Position>
            <AltitudeMeters>388.399993896484375</AltitudeMeters>
            <DistanceMeters>53665.661775609</DistanceMeters>
          </Trackpoint>
          <Trackpoint>
            <Time>2019-07-26T12:16:08.000Z</Time>
            <Position>
              <LatitudeDegrees>42.91807548142969608306884765625</LatitudeDegrees>
              <LongitudeDegrees>-8.08009791187942028045654296875</LongitudeDegrees>
            </Position>
            <AltitudeMeters>387.399993896484375</AltitudeMeters>
            <DistanceMeters>53676.712692034</DistanceMeters>
          </Trackpoint>
          <Trackpoint>
            <Time>2019-07-26T12:16:09.000Z</Time>
            <Position>
              <LatitudeDegrees>42.9181002080440521240234375</LatitudeDegrees>
              <LongitudeDegrees>-8.0802279151976108551025390625</LongitudeDegrees>
            </Position>
            <AltitudeMeters>385</AltitudeMeters>
            <DistanceMeters>53687.66099029</DistanceMeters>
          </Trackpoint>
          <Trackpoint>
            <Time>2019-07-26T12:16:11.000Z</Time>
            <Position>
              <LatitudeDegrees>42.91815544478595256805419921875</LatitudeDegrees>
              <LongitudeDegrees>-8.08049085550010204315185546875</LongitudeDegrees>
            </Position>
            <AltitudeMeters>383.20001220703125</AltitudeMeters>
            <DistanceMeters>53709.957465314</DistanceMeters>
          </Trackpoint>
          <Trackpoint>
            <Time>2019-07-26T12:16:12.000Z</Time>
            <Position>
              <LatitudeDegrees>42.9181949235498905181884765625</LatitudeDegrees>
              <LongitudeDegrees>-8.0806195177137851715087890625</LongitudeDegrees>
            </Position>
            <AltitudeMeters>382</AltitudeMeters>
            <DistanceMeters>53721.328157224</DistanceMeters>
          </Trackpoint>
          <Trackpoint>
            <Time>2019-07-26T12:16:13.000Z</Time>
            <Position>
              <LatitudeDegrees>42.9182338155806064605712890625</LatitudeDegrees>
              <LongitudeDegrees>-8.08073996566236019134521484375</LongitudeDegrees>
            </Position>
            <AltitudeMeters>381.20001220703125</AltitudeMeters>
            <DistanceMeters>53732.057763209</DistanceMeters>
          </Trackpoint>
          <Trackpoint>
            <Time>2019-07-26T12:16:14.000Z</Time>
            <Position>
              <LatitudeDegrees>42.91826717555522918701171875</LatitudeDegrees>
              <LongitudeDegrees>-8.0808542110025882720947265625</LongitudeDegrees>
            </Position>
            <AltitudeMeters>380.600006103515625</AltitudeMeters>
            <DistanceMeters>53742.082518605</DistanceMeters>
          </Trackpoint>
          <Trackpoint>
            <Time>2019-07-26T12:16:16.000Z</Time>
            <Position>
              <LatitudeDegrees>42.9183162935078144073486328125</LatitudeDegrees>
              <LongitudeDegrees>-8.081081695854663848876953125</LongitudeDegrees>
            </Position>
            <AltitudeMeters>379.600006103515625</AltitudeMeters>
            <DistanceMeters>53761.413858019</DistanceMeters>
          </Trackpoint>
          <Trackpoint>
            <Time>2019-07-26T12:16:17.000Z</Time>
            <Position>
              <LatitudeDegrees>42.918329872190952301025390625</LatitudeDegrees>
              <LongitudeDegrees>-8.0811975337564945220947265625</LongitudeDegrees>
            </Position>
            <AltitudeMeters>379.20001220703125</AltitudeMeters>
            <DistanceMeters>53770.975264501</DistanceMeters>
          </Trackpoint>
          <Trackpoint>
            <Time>2019-07-26T12:16:19.000Z</Time>
            <Position>
              <LatitudeDegrees>42.91832895018160343170166015625</LatitudeDegrees>
              <LongitudeDegrees>-8.08142342604696750640869140625</LongitudeDegrees>
            </Position>
            <AltitudeMeters>378.20001220703125</AltitudeMeters>
            <DistanceMeters>53789.387901195</DistanceMeters>
          </Trackpoint>
          <Trackpoint>
            <Time>2019-07-26T12:16:21.000Z</Time>
            <Position>
              <LatitudeDegrees>42.91831688024103641510009765625</LatitudeDegrees>
              <LongitudeDegrees>-8.08162023313343524932861328125</LongitudeDegrees>
            </Position>
            <AltitudeMeters>377</AltitudeMeters>
            <DistanceMeters>53805.48588659</DistanceMeters>
          </Trackpoint>
          <Trackpoint>
            <Time>2019-07-26T12:16:22.000Z</Time>
            <Position>
              <LatitudeDegrees>42.91831947863101959228515625</LatitudeDegrees>
              <LongitudeDegrees>-8.0816877074539661407470703125</LongitudeDegrees>
            </Position>
            <AltitudeMeters>376.399993896484375</AltitudeMeters>
            <DistanceMeters>53810.994158266</DistanceMeters>
          </Trackpoint>
          <Trackpoint>
            <Time>2019-07-26T12:16:23.000Z</Time>
            <Position>
              <LatitudeDegrees>42.9183161258697509765625</LatitudeDegrees>
              <LongitudeDegrees>-8.08174210600554943084716796875</LongitudeDegrees>
            </Position>
            <AltitudeMeters>375.600006103515625</AltitudeMeters>
            <DistanceMeters>53815.443194967</DistanceMeters>
          </Trackpoint>
          <Trackpoint>
            <Time>2019-07-26T12:16:24.000Z</Time>
            <Position>
              <LatitudeDegrees>42.91830564849078655242919921875</LatitudeDegrees>
              <LongitudeDegrees>-8.08178937993943691253662109375</LongitudeDegrees>
            </Position>
            <AltitudeMeters>374.600006103515625</AltitudeMeters>
            <DistanceMeters>53819.468112002</DistanceMeters>
          </Trackpoint>
          <Trackpoint>
            <Time>2019-07-26T12:16:25.000Z</Time>
            <Position>
              <LatitudeDegrees>42.91828938759863376617431640625</LatitudeDegrees>
              <LongitudeDegrees>-8.08182911016047000885009765625</LongitudeDegrees>
            </Position>
            <AltitudeMeters>373.399993896484375</AltitudeMeters>
            <DistanceMeters>53823.175371954</DistanceMeters>
          </Trackpoint>
          <Trackpoint>
            <Time>2019-07-26T12:16:26.000Z</Time>
            <Position>
              <LatitudeDegrees>42.91827094741165637969970703125</LatitudeDegrees>
              <LongitudeDegrees>-8.0818630568683147430419921875</LongitudeDegrees>
            </Position>
            <AltitudeMeters>372.399993896484375</AltitudeMeters>
            <DistanceMeters>53826.621318924</DistanceMeters>
          </Trackpoint>
          <Trackpoint>
            <Time>2019-07-26T12:16:27.000Z</Time>
            <Position>
              <LatitudeDegrees>42.9182472266256809234619140625</LatitudeDegrees>
              <LongitudeDegrees>-8.08189247734844684600830078125</LongitudeDegrees>
            </Position>
            <AltitudeMeters>371.20001220703125</AltitudeMeters>
            <DistanceMeters>53830.189568885</DistanceMeters>
          </Trackpoint>
          <Trackpoint>
            <Time>2019-07-26T12:16:28.000Z</Time>
            <Position>
              <LatitudeDegrees>42.91821294464170932769775390625</LatitudeDegrees>
              <LongitudeDegrees>-8.08192013762891292572021484375</LongitudeDegrees>
            </Position>
            <AltitudeMeters>369.79998779296875</AltitudeMeters>
            <DistanceMeters>53834.621319811</DistanceMeters>
          </Trackpoint>
          <Trackpoint>
            <Time>2019-07-26T12:16:29.000Z</Time>
            <Position>
              <LatitudeDegrees>42.9181778244674205780029296875</LatitudeDegrees>
              <LongitudeDegrees>-8.0819503962993621826171875</LongitudeDegrees>
            </Position>
            <AltitudeMeters>368.600006103515625</AltitudeMeters>
            <DistanceMeters>53839.243566112</DistanceMeters>
          </Trackpoint>
          <Trackpoint>
            <Time>2019-07-26T12:16:30.000Z</Time>
            <Position>
              <LatitudeDegrees>42.91813977062702178955078125</LatitudeDegrees>
              <LongitudeDegrees>-8.081983588635921478271484375</LongitudeDegrees>
            </Position>
            <AltitudeMeters>367.399993896484375</AltitudeMeters>
            <DistanceMeters>53844.268314238</DistanceMeters>
          </Trackpoint>
          <Trackpoint>
            <Time>2019-07-26T12:16:32.000Z</Time>
            <Position>
              <LatitudeDegrees>42.91805653832852840423583984375</LatitudeDegrees>
              <LongitudeDegrees>-8.08206665329635143280029296875</LongitudeDegrees>
            </Position>
            <AltitudeMeters>366.600006103515625</AltitudeMeters>
            <DistanceMeters>53855.742962147</DistanceMeters>
          </Trackpoint>
          <Trackpoint>
            <Time>2019-07-26T12:16:33.000Z</Time>
            <Position>
              <LatitudeDegrees>42.91801504790782928466796875</LatitudeDegrees>
              <LongitudeDegrees>-8.08210923336446285247802734375</LongitudeDegrees>
            </Position>
            <AltitudeMeters>366.399993896484375</AltitudeMeters>
            <DistanceMeters>53861.520086219</DistanceMeters>
          </Trackpoint>
          <Trackpoint>
            <Time>2019-07-26T12:16:34.000Z</Time>
            <Position>
              <LatitudeDegrees>42.9179728031158447265625</LatitudeDegrees>
              <LongitudeDegrees>-8.08215265162289142608642578125</LongitudeDegrees>
            </Position>
            <AltitudeMeters>366.399993896484375</AltitudeMeters>
            <DistanceMeters>53867.404841368</DistanceMeters>
          </Trackpoint>
          <Trackpoint>
            <Time>2019-07-26T12:16:36.000Z</Time>
            <Position>
              <LatitudeDegrees>42.9178963601589202880859375</LatitudeDegrees>
              <LongitudeDegrees>-8.0822365544736385345458984375</LongitudeDegrees>
            </Position>
            <AltitudeMeters>366.399993896484375</AltitudeMeters>
            <DistanceMeters>53878.320925315</DistanceMeters>
          </Trackpoint>
          <Trackpoint>
            <Time>2019-07-26T12:16:39.000Z</Time>
            <Position>
              <LatitudeDegrees>42.917814552783966064453125</LatitudeDegrees>
              <LongitudeDegrees>-8.0823290906846523284912109375</LongitudeDegrees>
            </Position>
            <AltitudeMeters>366.600006103515625</AltitudeMeters>
            <DistanceMeters>53890.144784394</DistanceMeters>
          </Trackpoint>
          <Trackpoint>
            <Time>2019-07-26T12:16:42.000Z</Time>
            <Position>
              <LatitudeDegrees>42.917811535298824310302734375</LatitudeDegrees>
              <LongitudeDegrees>-8.0822848342359066009521484375</LongitudeDegrees>
            </Position>
            <AltitudeMeters>368</AltitudeMeters>
            <DistanceMeters>53893.767035223</DistanceMeters>
          </Trackpoint>
          <Trackpoint>
            <Time>2019-07-26T12:16:45.000Z</Time>
            <Position>
              <LatitudeDegrees>42.91789024136960506439208984375</LatitudeDegrees>
              <LongitudeDegrees>-8.08221668936312198638916015625</LongitudeDegrees>
            </Position>
            <AltitudeMeters>368.79998779296875</AltitudeMeters>
            <DistanceMeters>53904.140192453</DistanceMeters>
          </Trackpoint>
          <Trackpoint>
            <Time>2019-07-26T12:16:46.000Z</Time>
            <Position>
              <LatitudeDegrees>42.9179260320961475372314453125</LatitudeDegrees>
              <LongitudeDegrees>-8.0821876041591167449951171875</LongitudeDegrees>
            </Position>
            <AltitudeMeters>369</AltitudeMeters>
            <DistanceMeters>53908.776093869</DistanceMeters>
          </Trackpoint>
          <Trackpoint>
            <Time>2019-07-26T12:16:51.000Z</Time>
            <Position>
              <LatitudeDegrees>42.91813985444605350494384765625</LatitudeDegrees>
              <LongitudeDegrees>-8.08199624530971050262451171875</LongitudeDegrees>
            </Position>
            <AltitudeMeters>369</AltitudeMeters>
            <DistanceMeters>53937.230684785</DistanceMeters>
          </Trackpoint>
          <Trackpoint>
            <Time>2019-07-26T12:16:56.000Z</Time>
            <Position>
              <LatitudeDegrees>42.9183582030236721038818359375</LatitudeDegrees>
              <LongitudeDegrees>-8.08178468607366085052490234375</LongitudeDegrees>
            </Position>
            <AltitudeMeters>368.79998779296875</AltitudeMeters>
            <DistanceMeters>53967.029401821</DistanceMeters>
          </Trackpoint>
          <Trackpoint>
            <Time>2019-07-26T12:16:58.000Z</Time>
            <Position>
              <LatitudeDegrees>42.91839516721665859222412109375</LatitudeDegrees>
              <LongitudeDegrees>-8.0818154476583003997802734375</LongitudeDegrees>
            </Position>
            <AltitudeMeters>368.20001220703125</AltitudeMeters>
            <DistanceMeters>53971.846797016</DistanceMeters>
          </Trackpoint>
          <Trackpoint>
            <Time>2019-07-26T12:16:59.000Z</Time>
            <Position>
              <LatitudeDegrees>42.9183897189795970916748046875</LatitudeDegrees>
              <LongitudeDegrees>-8.08186615817248821258544921875</LongitudeDegrees>
            </Position>
            <AltitudeMeters>367.79998779296875</AltitudeMeters>
            <DistanceMeters>53976.023650819</DistanceMeters>
          </Trackpoint>
          <Trackpoint>
            <Time>2019-07-26T12:17:02.000Z</Time>
            <Position>
              <LatitudeDegrees>42.9183055646717548370361328125</LatitudeDegrees>
              <LongitudeDegrees>-8.08205299079418182373046875</LongitudeDegrees>
            </Position>
            <AltitudeMeters>366.79998779296875</AltitudeMeters>
            <DistanceMeters>53993.902315365</DistanceMeters>
          </Trackpoint>
          <Trackpoint>
            <Time>2019-07-26T12:17:04.000Z</Time>
            <Position>
              <LatitudeDegrees>42.9182955063879489898681640625</LatitudeDegrees>
              <LongitudeDegrees>-8.08222238905727863311767578125</LongitudeDegrees>
            </Position>
            <AltitudeMeters>365.399993896484375</AltitudeMeters>
            <DistanceMeters>54007.755372233</DistanceMeters>
          </Trackpoint>
          <Trackpoint>
            <Time>2019-07-26T12:17:05.000Z</Time>
            <Position>
              <LatitudeDegrees>42.91831034235656261444091796875</LatitudeDegrees>
              <LongitudeDegrees>-8.08231760747730731964111328125</LongitudeDegrees>
            </Position>
            <AltitudeMeters>364.79998779296875</AltitudeMeters>
            <DistanceMeters>54015.689960626</DistanceMeters>
          </Trackpoint>
          <Trackpoint>
            <Time>2019-07-26T12:17:06.000Z</Time>
            <Position>
              <LatitudeDegrees>42.9183337278664112091064453125</LatitudeDegrees>
              <LongitudeDegrees>-8.0824176035821437835693359375</LongitudeDegrees>
            </Position>
            <AltitudeMeters>364.600006103515625</AltitudeMeters>
            <DistanceMeters>54024.246059605</DistanceMeters>
          </Trackpoint>
          <Trackpoint>
            <Time>2019-07-26T12:17:07.000Z</Time>
            <Position>
              <LatitudeDegrees>42.91835141368210315704345703125</LatitudeDegrees>
              <LongitudeDegrees>-8.08251206763088703155517578125</LongitudeDegrees>
            </Position>
            <AltitudeMeters>364</AltitudeMeters>
            <DistanceMeters>54032.193156851</DistanceMeters>
          </Trackpoint>
          <Trackpoint>
            <Time>2019-07-26T12:17:09.000Z</Time>
            <Position>
              <LatitudeDegrees>42.91839533485472202301025390625</LatitudeDegrees>
              <LongitudeDegrees>-8.08271826244890689849853515625</LongitudeDegrees>
            </Position>
            <AltitudeMeters>363.20001220703125</AltitudeMeters>
            <DistanceMeters>54049.696654604</DistanceMeters>
          </Trackpoint>
          <Trackpoint>
            <Time>2019-07-26T12:17:10.000Z</Time>
            <Position>
              <LatitudeDegrees>42.91841872036457061767578125</LatitudeDegrees>
              <LongitudeDegrees>-8.08282814919948577880859375</LongitudeDegrees>
            </Position>
            <AltitudeMeters>362.79998779296875</AltitudeMeters>
            <DistanceMeters>54059.024290239</DistanceMeters>
          </Trackpoint>
          <Trackpoint>
            <Time>2019-07-26T12:17:11.000Z</Time>
            <Position>
              <LatitudeDegrees>42.918435819447040557861328125</LatitudeDegrees>
              <LongitudeDegrees>-8.08293770067393779754638671875</LongitudeDegrees>
            </Position>
            <AltitudeMeters>362</AltitudeMeters>
            <DistanceMeters>54068.154770278</DistanceMeters>
          </Trackpoint>
          <Trackpoint>
            <Time>2019-07-26T12:17:12.000Z</Time>
            <Position>
              <LatitudeDegrees>42.91843808256089687347412109375</LatitudeDegrees>
              <LongitudeDegrees>-8.083047755062580108642578125</LongitudeDegrees>
            </Position>
            <AltitudeMeters>361.600006103515625</AltitudeMeters>
            <DistanceMeters>54077.128633533</DistanceMeters>
          </Trackpoint>
          <Trackpoint>
            <Time>2019-07-26T12:17:13.000Z</Time>
            <Position>
              <LatitudeDegrees>42.918429113924503326416015625</LatitudeDegrees>
              <LongitudeDegrees>-8.0831666104495525360107421875</LongitudeDegrees>
            </Position>
            <AltitudeMeters>361.20001220703125</AltitudeMeters>
            <DistanceMeters>54086.867365118</DistanceMeters>
          </Trackpoint>
          <Trackpoint>
            <Time>2019-07-26T12:17:16.000Z</Time>
            <Position>
              <LatitudeDegrees>42.91831386275589466094970703125</LatitudeDegrees>
              <LongitudeDegrees>-8.08349777944386005401611328125</LongitudeDegrees>
            </Position>
            <AltitudeMeters>360.399993896484375</AltitudeMeters>
            <DistanceMeters>54116.753531169</DistanceMeters>
          </Trackpoint>
          <Trackpoint>
            <Time>2019-07-26T12:17:17.000Z</Time>
            <Position>
              <LatitudeDegrees>42.9182609729468822479248046875</LatitudeDegrees>
              <LongitudeDegrees>-8.0836064927279949188232421875</LongitudeDegrees>
            </Position>
            <AltitudeMeters>360</AltitudeMeters>
            <DistanceMeters>54127.391855665</DistanceMeters>
          </Trackpoint>
          <Trackpoint>
            <Time>2019-07-26T12:17:19.000Z</Time>
            <Position>
              <LatitudeDegrees>42.9181567020714282989501953125</LatitudeDegrees>
              <LongitudeDegrees>-8.083811514079570770263671875</LongitudeDegrees>
            </Position>
            <AltitudeMeters>359.20001220703125</AltitudeMeters>
            <DistanceMeters>54147.737561214</DistanceMeters>
          </Trackpoint>
          <Trackpoint>
            <Time>2019-07-26T12:17:21.000Z</Time>
            <Position>
              <LatitudeDegrees>42.91806726716458797454833984375</LatitudeDegrees>
              <LongitudeDegrees>-8.0839866958558559417724609375</LongitudeDegrees>
            </Position>
            <AltitudeMeters>358.20001220703125</AltitudeMeters>
            <DistanceMeters>54165.143799315</DistanceMeters>
          </Trackpoint>
          <Trackpoint>
            <Time>2019-07-26T12:17:23.000Z</Time>
            <Position>
              <LatitudeDegrees>42.91801228187978267669677734375</LatitudeDegrees>
              <LongitudeDegrees>-8.08411468751728534698486328125</LongitudeDegrees>
            </Position>
            <AltitudeMeters>356.600006103515625</AltitudeMeters>
            <DistanceMeters>54177.238725458</DistanceMeters>
          </Trackpoint>
          <Trackpoint>
            <Time>2019-07-26T12:17:24.000Z</Time>
            <Position>
              <LatitudeDegrees>42.91799970902502536773681640625</LatitudeDegrees>
              <LongitudeDegrees>-8.08418392203748226165771484375</LongitudeDegrees>
            </Position>
            <AltitudeMeters>356</AltitudeMeters>
            <DistanceMeters>54183.051689078</DistanceMeters>
          </Trackpoint>
          <Trackpoint>
            <Time>2019-07-26T12:17:25.000Z</Time>
            <Position>
              <LatitudeDegrees>42.91799551807343959808349609375</LatitudeDegrees>
              <LongitudeDegrees>-8.0842740274965763092041015625</LongitudeDegrees>
            </Position>
            <AltitudeMeters>355.600006103515625</AltitudeMeters>
            <DistanceMeters>54190.409972734</DistanceMeters>
          </Trackpoint>
          <Trackpoint>
            <Time>2019-07-26T12:17:27.000Z</Time>
            <Position>
              <LatitudeDegrees>42.91799535043537616729736328125</LatitudeDegrees>
              <LongitudeDegrees>-8.08448013849556446075439453125</LongitudeDegrees>
            </Position>
            <AltitudeMeters>354.600006103515625</AltitudeMeters>
            <DistanceMeters>54207.210093844</DistanceMeters>
          </Trackpoint>
          <Trackpoint>
            <Time>2019-07-26T12:17:28.000Z</Time>
            <Position>
              <LatitudeDegrees>42.91799937374889850616455078125</LatitudeDegrees>
              <LongitudeDegrees>-8.08458901941776275634765625</LongitudeDegrees>
            </Position>
            <AltitudeMeters>354.20001220703125</AltitudeMeters>
            <DistanceMeters>54216.095980881</DistanceMeters>
          </Trackpoint>
          <Trackpoint>
            <Time>2019-07-26T12:17:29.000Z</Time>
            <Position>
              <LatitudeDegrees>42.9180132038891315460205078125</LatitudeDegrees>
              <LongitudeDegrees>-8.084696643054485321044921875</LongitudeDegrees>
            </Position>
            <AltitudeMeters>353.79998779296875</AltitudeMeters>
            <DistanceMeters>54225.002169262</DistanceMeters>
          </Trackpoint>
          <Trackpoint>
            <Time>2019-07-26T12:17:30.000Z</Time>
            <Position>
              <LatitudeDegrees>42.91803323663771152496337890625</LatitudeDegrees>
              <LongitudeDegrees>-8.08479487895965576171875</LongitudeDegrees>
            </Position>
            <AltitudeMeters>352.600006103515625</AltitudeMeters>
            <DistanceMeters>54233.314155479</DistanceMeters>
          </Trackpoint>
          <Trackpoint>
            <Time>2019-07-26T12:17:31.000Z</Time>
            <Position>
              <LatitudeDegrees>42.9180665127933025360107421875</LatitudeDegrees>
              <LongitudeDegrees>-8.0849174223840236663818359375</LongitudeDegrees>
            </Position>
            <AltitudeMeters>352.20001220703125</AltitudeMeters>
            <DistanceMeters>54243.966900228</DistanceMeters>
          </Trackpoint>
          <Trackpoint>
            <Time>2019-07-26T12:17:33.000Z</Time>
            <Position>
              <LatitudeDegrees>42.9181325621902942657470703125</LatitudeDegrees>
              <LongitudeDegrees>-8.085166029632091522216796875</LongitudeDegrees>
            </Position>
            <AltitudeMeters>351.20001220703125</AltitudeMeters>
            <DistanceMeters>54265.523307714</DistanceMeters>
          </Trackpoint>
          <Trackpoint>
            <Time>2019-07-26T12:17:34.000Z</Time>
            <Position>
              <LatitudeDegrees>42.9181774891912937164306640625</LatitudeDegrees>
              <LongitudeDegrees>-8.0852781794965267181396484375</LongitudeDegrees>
            </Position>
            <AltitudeMeters>350.600006103515625</AltitudeMeters>
            <DistanceMeters>54275.943367175</DistanceMeters>
          </Trackpoint>
          <Trackpoint>
            <Time>2019-07-26T12:17:35.000Z</Time>
            <Position>
              <LatitudeDegrees>42.91821881197392940521240234375</LatitudeDegrees>
              <LongitudeDegrees>-8.08538923971354961395263671875</LongitudeDegrees>
            </Position>
            <AltitudeMeters>349.79998779296875</AltitudeMeters>
            <DistanceMeters>54286.09745073</DistanceMeters>
          </Trackpoint>
          <Trackpoint>
            <Time>2019-07-26T12:17:37.000Z</Time>
            <Position>
              <LatitudeDegrees>42.918292321264743804931640625</LatitudeDegrees>
              <LongitudeDegrees>-8.0856282077729701995849609375</LongitudeDegrees>
            </Position>
            <AltitudeMeters>348</AltitudeMeters>
            <DistanceMeters>54307.224178315</DistanceMeters>
          </Trackpoint>
          <Trackpoint>
            <Time>2019-07-26T12:17:39.000Z</Time>
            <Position>
              <LatitudeDegrees>42.91839097626507282257080078125</LatitudeDegrees>
              <LongitudeDegrees>-8.08588125742971897125244140625</LongitudeDegrees>
            </Position>
            <AltitudeMeters>346.79998779296875</AltitudeMeters>
            <DistanceMeters>54330.590704418</DistanceMeters>
          </Trackpoint>
          <Trackpoint>
            <Time>2019-07-26T12:17:40.000Z</Time>
            <Position>
              <LatitudeDegrees>42.91844042949378490447998046875</LatitudeDegrees>
              <LongitudeDegrees>-8.086008243262767791748046875</LongitudeDegrees>
            </Position>
            <AltitudeMeters>346.399993896484375</AltitudeMeters>
            <DistanceMeters>54342.313704605</DistanceMeters>
          </Trackpoint>
          <Trackpoint>
            <Time>2019-07-26T12:17:41.000Z</Time>
            <Position>
              <LatitudeDegrees>42.91846876032650470733642578125</LatitudeDegrees>
              <LongitudeDegrees>-8.086144365370273590087890625</LongitudeDegrees>
            </Position>
            <AltitudeMeters>345.79998779296875</AltitudeMeters>
            <DistanceMeters>54353.848397767</DistanceMeters>
          </Trackpoint>
          <Trackpoint>
            <Time>2019-07-26T12:17:43.000Z</Time>
            <Position>
              <LatitudeDegrees>42.91849876753985881805419921875</LatitudeDegrees>
              <LongitudeDegrees>-8.08639942668378353118896484375</LongitudeDegrees>
            </Position>
            <AltitudeMeters>344.600006103515625</AltitudeMeters>
            <DistanceMeters>54374.904482238</DistanceMeters>
          </Trackpoint>
          <Trackpoint>
            <Time>2019-07-26T12:17:45.000Z</Time>
            <Position>
              <LatitudeDegrees>42.91851704008877277374267578125</LatitudeDegrees>
              <LongitudeDegrees>-8.086631856858730316162109375</LongitudeDegrees>
            </Position>
            <AltitudeMeters>343</AltitudeMeters>
            <DistanceMeters>54393.958464064</DistanceMeters>
          </Trackpoint>
          <Trackpoint>
            <Time>2019-07-26T12:17:46.000Z</Time>
            <Position>
              <LatitudeDegrees>42.9185305349528789520263671875</LatitudeDegrees>
              <LongitudeDegrees>-8.08674375526607036590576171875</LongitudeDegrees>
            </Position>
            <AltitudeMeters>341.79998779296875</AltitudeMeters>
            <DistanceMeters>54403.20246825</DistanceMeters>
          </Trackpoint>
          <Trackpoint>
            <Time>2019-07-26T12:17:47.000Z</Time>
            <Position>
              <LatitudeDegrees>42.91853849776089191436767578125</LatitudeDegrees>
              <LongitudeDegrees>-8.08685037307441234588623046875</LongitudeDegrees>
            </Position>
            <AltitudeMeters>340.79998779296875</AltitudeMeters>
            <DistanceMeters>54411.938209548</DistanceMeters>
          </Trackpoint>
          <Trackpoint>
            <Time>2019-07-26T12:17:48.000Z</Time>
            <Position>
              <LatitudeDegrees>42.91854486800730228424072265625</LatitudeDegrees>
              <LongitudeDegrees>-8.0869478546082973480224609375</LongitudeDegrees>
            </Position>
            <AltitudeMeters>339.79998779296875</AltitudeMeters>
            <DistanceMeters>54419.914795197</DistanceMeters>
          </Trackpoint>
          <Trackpoint>
            <Time>2019-07-26T12:17:50.000Z</Time>
            <Position>
              <LatitudeDegrees>42.9185825027525424957275390625</LatitudeDegrees>
              <LongitudeDegrees>-8.0871282331645488739013671875</LongitudeDegrees>
            </Position>
            <AltitudeMeters>338</AltitudeMeters>
            <DistanceMeters>54435.202582432</DistanceMeters>
          </Trackpoint>
          <Trackpoint>
            <Time>2019-07-26T12:17:52.000Z</Time>
            <Position>
              <LatitudeDegrees>42.91862851940095424652099609375</LatitudeDegrees>
              <LongitudeDegrees>-8.08730316348373889923095703125</LongitudeDegrees>
            </Position>
            <AltitudeMeters>336.600006103515625</AltitudeMeters>
            <DistanceMeters>54450.353309913</DistanceMeters>
          </Trackpoint>
          <Trackpoint>
            <Time>2019-07-26T12:17:54.000Z</Time>
            <Position>
              <LatitudeDegrees>42.91866690851747989654541015625</LatitudeDegrees>
              <LongitudeDegrees>-8.08746568858623504638671875</LongitudeDegrees>
            </Position>
            <AltitudeMeters>336</AltitudeMeters>
            <DistanceMeters>54464.2726964</DistanceMeters>
          </Trackpoint>
          <Trackpoint>
            <Time>2019-07-26T12:17:57.000Z</Time>
            <Position>
              <LatitudeDegrees>42.91869205422699451446533203125</LatitudeDegrees>
              <LongitudeDegrees>-8.0876742303371429443359375</LongitudeDegrees>
            </Position>
            <AltitudeMeters>335.79998779296875</AltitudeMeters>
            <DistanceMeters>54481.49954847</DistanceMeters>
          </Trackpoint>
          <Trackpoint>
            <Time>2019-07-26T12:17:58.000Z</Time>
            <Position>
              <LatitudeDegrees>42.9186814092099666595458984375</LatitudeDegrees>
              <LongitudeDegrees>-8.08773147873580455780029296875</LongitudeDegrees>
            </Position>
            <AltitudeMeters>335.79998779296875</AltitudeMeters>
            <DistanceMeters>54486.313193259</DistanceMeters>
          </Trackpoint>
          <Trackpoint>
            <Time>2019-07-26T12:18:01.000Z</Time>
            <Position>
              <LatitudeDegrees>42.918630950152873992919921875</LatitudeDegrees>
              <LongitudeDegrees>-8.08789039961993694305419921875</LongitudeDegrees>
            </Position>
            <AltitudeMeters>336</AltitudeMeters>
            <DistanceMeters>54500.431617655</DistanceMeters>
          </Trackpoint>
          <Trackpoint>
            <Time>2019-07-26T12:18:05.000Z</Time>
            <Position>
              <LatitudeDegrees>42.91856565512716770172119140625</LatitudeDegrees>
              <LongitudeDegrees>-8.08808720670640468597412109375</LongitudeDegrees>
            </Position>
            <AltitudeMeters>336.600006103515625</AltitudeMeters>
            <DistanceMeters>54518.042608699</DistanceMeters>
          </Trackpoint>
          <Trackpoint>
            <Time>2019-07-26T12:18:08.000Z</Time>
            <Position>
              <LatitudeDegrees>42.91852332651615142822265625</LatitudeDegrees>
              <LongitudeDegrees>-8.08823640458285808563232421875</LongitudeDegrees>
            </Position>
            <AltitudeMeters>337.399993896484375</AltitudeMeters>
            <DistanceMeters>54531.084138127</DistanceMeters>
          </Trackpoint>
          <Trackpoint>
            <Time>2019-07-26T12:18:09.000Z</Time>
            <Position>
              <LatitudeDegrees>42.91851402260363101959228515625</LatitudeDegrees>
              <LongitudeDegrees>-8.08828786946833133697509765625</LongitudeDegrees>
            </Position>
            <AltitudeMeters>337.399993896484375</AltitudeMeters>
            <DistanceMeters>54535.405503431</DistanceMeters>
          </Trackpoint>
          <Trackpoint>
            <Time>2019-07-26T12:18:11.000Z</Time>
            <Position>
              <LatitudeDegrees>42.9185184650123119354248046875</LatitudeDegrees>
              <LongitudeDegrees>-8.08838292025029659271240234375</LongitudeDegrees>
            </Position>
            <AltitudeMeters>337.79998779296875</AltitudeMeters>
            <DistanceMeters>54543.16866839</DistanceMeters>
          </Trackpoint>
          <Trackpoint>
            <Time>2019-07-26T12:18:14.000Z</Time>
            <Position>
              <LatitudeDegrees>42.91853137314319610595703125</LatitudeDegrees>
              <LongitudeDegrees>-8.08849473483860492706298828125</LongitudeDegrees>
            </Position>
            <AltitudeMeters>338.20001220703125</AltitudeMeters>
            <DistanceMeters>54552.39556173</DistanceMeters>
          </Trackpoint>
          <Trackpoint>
            <Time>2019-07-26T12:18:16.000Z</Time>
            <Position>
              <LatitudeDegrees>42.91853883303701877593994140625</LatitudeDegrees>
              <LongitudeDegrees>-8.08858324773609638214111328125</LongitudeDegrees>
            </Position>
            <AltitudeMeters>338.399993896484375</AltitudeMeters>
            <DistanceMeters>54559.657493046</DistanceMeters>
          </Trackpoint>
          <Trackpoint>
            <Time>2019-07-26T12:18:17.000Z</Time>
            <Position>
              <LatitudeDegrees>42.91853866539895534515380859375</LatitudeDegrees>
              <LongitudeDegrees>-8.08861744590103626251220703125</LongitudeDegrees>
            </Position>
            <AltitudeMeters>338.79998779296875</AltitudeMeters>
            <DistanceMeters>54562.444223342</DistanceMeters>
          </Trackpoint>
          <Trackpoint>
            <Time>2019-07-26T12:18:21.000Z</Time>
            <Position>
              <LatitudeDegrees>42.91851184330880641937255859375</LatitudeDegrees>
              <LongitudeDegrees>-8.08875055052340030670166015625</LongitudeDegrees>
            </Position>
            <AltitudeMeters>339.399993896484375</AltitudeMeters>
            <DistanceMeters>54573.696766694</DistanceMeters>
          </Trackpoint>
          <Trackpoint>
            <Time>2019-07-26T12:18:24.000Z</Time>
            <Position>
              <LatitudeDegrees>42.91848770342767238616943359375</LatitudeDegrees>
              <LongitudeDegrees>-8.088860101997852325439453125</LongitudeDegrees>
            </Position>
            <AltitudeMeters>339.79998779296875</AltitudeMeters>
            <DistanceMeters>54583.021013366</DistanceMeters>
          </Trackpoint>
          <Trackpoint>
            <Time>2019-07-26T12:18:26.000Z</Time>
            <Position>
              <LatitudeDegrees>42.918494157493114471435546875</LatitudeDegrees>
              <LongitudeDegrees>-8.08895163238048553466796875</LongitudeDegrees>
            </Position>
            <AltitudeMeters>340.79998779296875</AltitudeMeters>
            <DistanceMeters>54590.516085451</DistanceMeters>
          </Trackpoint>
          <Trackpoint>
            <Time>2019-07-26T12:18:27.000Z</Time>
            <Position>
              <LatitudeDegrees>42.91850580833852291107177734375</LatitudeDegrees>
              <LongitudeDegrees>-8.0889953859150409698486328125</LongitudeDegrees>
            </Position>
            <AltitudeMeters>341.20001220703125</AltitudeMeters>
            <DistanceMeters>54594.310020328</DistanceMeters>
          </Trackpoint>
          <Trackpoint>
            <Time>2019-07-26T12:18:30.000Z</Time>
            <Position>
              <LatitudeDegrees>42.9185630567371845245361328125</LatitudeDegrees>
              <LongitudeDegrees>-8.089120276272296905517578125</LongitudeDegrees>
            </Position>
            <AltitudeMeters>341.600006103515625</AltitudeMeters>
            <DistanceMeters>54606.319532432</DistanceMeters>
          </Trackpoint>
          <Trackpoint>
            <Time>2019-07-26T12:18:32.000Z</Time>
            <Position>
              <LatitudeDegrees>42.9186133481562137603759765625</LatitudeDegrees>
              <LongitudeDegrees>-8.08914215303957462310791015625</LongitudeDegrees>
            </Position>
            <AltitudeMeters>342.20001220703125</AltitudeMeters>
            <DistanceMeters>54612.194304952</DistanceMeters>
          </Trackpoint>
          <Trackpoint>
            <Time>2019-07-26T12:18:34.000Z</Time>
            <Position>
              <LatitudeDegrees>42.91865752078592777252197265625</LatitudeDegrees>
              <LongitudeDegrees>-8.08913645334541797637939453125</LongitudeDegrees>
            </Position>
            <AltitudeMeters>342.600006103515625</AltitudeMeters>
            <DistanceMeters>54617.133866325</DistanceMeters>
          </Trackpoint>
          <Trackpoint>
            <Time>2019-07-26T12:18:39.000Z</Time>
            <Position>
              <LatitudeDegrees>42.91873899288475513458251953125</LatitudeDegrees>
              <LongitudeDegrees>-8.0891172587871551513671875</LongitudeDegrees>
            </Position>
            <AltitudeMeters>343.20001220703125</AltitudeMeters>
            <DistanceMeters>54626.336260409</DistanceMeters>
          </Trackpoint>
          <Trackpoint>
            <Time>2019-07-26T12:18:40.000Z</Time>
            <Position>
              <LatitudeDegrees>42.918756008148193359375</LatitudeDegrees>
              <LongitudeDegrees>-8.08911122381687164306640625</LongitudeDegrees>
            </Position>
            <AltitudeMeters>343.600006103515625</AltitudeMeters>
            <DistanceMeters>54628.292980219</DistanceMeters>
          </Trackpoint>
          <Trackpoint>
            <Time>2019-07-26T12:18:43.000Z</Time>
            <Position>
              <LatitudeDegrees>42.91879288852214813232421875</LatitudeDegrees>
              <LongitudeDegrees>-8.08909169398248195648193359375</LongitudeDegrees>
            </Position>
            <AltitudeMeters>344.399993896484375</AltitudeMeters>
            <DistanceMeters>54632.695086993</DistanceMeters>
          </Trackpoint>
          <Trackpoint>
            <Time>2019-07-26T12:18:46.000Z</Time>
            <Position>
              <LatitudeDegrees>42.9188239015638828277587890625</LatitudeDegrees>
              <LongitudeDegrees>-8.08905498124659061431884765625</LongitudeDegrees>
            </Position>
            <AltitudeMeters>345.399993896484375</AltitudeMeters>
            <DistanceMeters>54637.264281313</DistanceMeters>
          </Trackpoint>
          <Trackpoint>
            <Time>2019-07-26T12:18:47.000Z</Time>
            <Position>
              <LatitudeDegrees>42.91883270256221294403076171875</LatitudeDegrees>
              <LongitudeDegrees>-8.08904106728732585906982421875</LongitudeDegrees>
            </Position>
            <AltitudeMeters>345.600006103515625</AltitudeMeters>
            <DistanceMeters>54638.766785593</DistanceMeters>
          </Trackpoint>
          <Trackpoint>
            <Time>2019-07-26T12:18:51.000Z</Time>
            <Position>
              <LatitudeDegrees>42.91887612082064151763916015625</LatitudeDegrees>
              <LongitudeDegrees>-8.08899245224893093109130859375</LongitudeDegrees>
            </Position>
            <AltitudeMeters>347</AltitudeMeters>
            <DistanceMeters>54645.016914447</DistanceMeters>
          </Trackpoint>
          <Trackpoint>
            <Time>2019-07-26T12:18:54.000Z</Time>
            <Position>
              <LatitudeDegrees>42.91890688240528106689453125</LatitudeDegrees>
              <LongitudeDegrees>-8.08895439840853214263916015625</LongitudeDegrees>
            </Position>
            <AltitudeMeters>348</AltitudeMeters>
            <DistanceMeters>54649.638183839</DistanceMeters>
          </Trackpoint>
          <Trackpoint>
            <Time>2019-07-26T12:18:59.000Z</Time>
            <Position>
              <LatitudeDegrees>42.91896429844200611114501953125</LatitudeDegrees>
              <LongitudeDegrees>-8.0889082141220569610595703125</LongitudeDegrees>
            </Position>
            <AltitudeMeters>349</AltitudeMeters>
            <DistanceMeters>54657.054530353</DistanceMeters>
          </Trackpoint>
          <Trackpoint>
            <Time>2019-07-26T12:19:01.000Z</Time>
            <Position>
              <LatitudeDegrees>42.9189992509782314300537109375</LatitudeDegrees>
              <LongitudeDegrees>-8.08890226297080516815185546875</LongitudeDegrees>
            </Position>
            <AltitudeMeters>349.399993896484375</AltitudeMeters>
            <DistanceMeters>54660.974886218</DistanceMeters>
          </Trackpoint>
          <Trackpoint>
            <Time>2019-07-26T12:19:04.000Z</Time>
            <Position>
              <LatitudeDegrees>42.9190488718450069427490234375</LatitudeDegrees>
              <LongitudeDegrees>-8.08891098015010356903076171875</LongitudeDegrees>
            </Position>
            <AltitudeMeters>350.20001220703125</AltitudeMeters>
            <DistanceMeters>54666.543484113</DistanceMeters>
          </Trackpoint>
          <Trackpoint>
            <Time>2019-07-26T12:19:06.000Z</Time>
            <Position>
              <LatitudeDegrees>42.91907661594450473785400390625</LatitudeDegrees>
              <LongitudeDegrees>-8.088937215507030487060546875</LongitudeDegrees>
            </Position>
            <AltitudeMeters>350.600006103515625</AltitudeMeters>
            <DistanceMeters>54670.299143762</DistanceMeters>
          </Trackpoint>
          <Trackpoint>
            <Time>2019-07-26T12:19:09.000Z</Time>
            <Position>
              <LatitudeDegrees>42.919106371700763702392578125</LatitudeDegrees>
              <LongitudeDegrees>-8.08898608200252056121826171875</LongitudeDegrees>
            </Position>
            <AltitudeMeters>351.399993896484375</AltitudeMeters>
            <DistanceMeters>54675.479625129</DistanceMeters>
          </Trackpoint>
          <Trackpoint>
            <Time>2019-07-26T12:19:13.000Z</Time>
            <Position>
              <LatitudeDegrees>42.91914970614016056060791015625</LatitudeDegrees>
              <LongitudeDegrees>-8.0890849046409130096435546875</LongitudeDegrees>
            </Position>
            <AltitudeMeters>352.399993896484375</AltitudeMeters>
            <DistanceMeters>54684.868533812</DistanceMeters>
          </Trackpoint>
          <Trackpoint>
            <Time>2019-07-26T12:19:14.000Z</Time>
            <Position>
              <LatitudeDegrees>42.9191601835191249847412109375</LatitudeDegrees>
              <LongitudeDegrees>-8.08911113999783992767333984375</LongitudeDegrees>
            </Position>
            <AltitudeMeters>352.600006103515625</AltitudeMeters>
            <DistanceMeters>54687.304259622</DistanceMeters>
          </Trackpoint>
          <Trackpoint>
            <Time>2019-07-26T12:19:20.000Z</Time>
            <Position>
              <LatitudeDegrees>42.91920460760593414306640625</LatitudeDegrees>
              <LongitudeDegrees>-8.08924005366861820220947265625</LongitudeDegrees>
            </Position>
            <AltitudeMeters>353.600006103515625</AltitudeMeters>
            <DistanceMeters>54698.916975136</DistanceMeters>
          </Trackpoint>
          <Trackpoint>
            <Time>2019-07-26T12:19:21.000Z</Time>
            <Position>
              <LatitudeDegrees>42.919212318956851959228515625</LatitudeDegrees>
              <LongitudeDegrees>-8.08926033787429332733154296875</LongitudeDegrees>
            </Position>
            <AltitudeMeters>353.600006103515625</AltitudeMeters>
            <DistanceMeters>54700.779110833</DistanceMeters>
          </Trackpoint>
          <Trackpoint>
            <Time>2019-07-26T12:19:27.000Z</Time>
            <Position>
              <LatitudeDegrees>42.9192486964166164398193359375</LatitudeDegrees>
              <LongitudeDegrees>-8.08937139809131622314453125</LongitudeDegrees>
            </Position>
            <AltitudeMeters>354.79998779296875</AltitudeMeters>
            <DistanceMeters>54710.695183766</DistanceMeters>
          </Trackpoint>
          <Trackpoint>
            <Time>2019-07-26T12:19:28.000Z</Time>
            <Position>
              <LatitudeDegrees>42.91925020515918731689453125</LatitudeDegrees>
              <LongitudeDegrees>-8.08938925154507160186767578125</LongitudeDegrees>
            </Position>
            <AltitudeMeters>355</AltitudeMeters>
            <DistanceMeters>54712.155011852</DistanceMeters>
          </Trackpoint>
          <Trackpoint>
            <Time>2019-07-26T12:19:31.000Z</Time>
            <Position>
              <LatitudeDegrees>42.9192714951932430267333984375</LatitudeDegrees>
              <LongitudeDegrees>-8.08946854434907436370849609375</LongitudeDegrees>
            </Position>
            <AltitudeMeters>355.79998779296875</AltitudeMeters>
            <DistanceMeters>54719.03772796</DistanceMeters>
          </Trackpoint>
          <Trackpoint>
            <Time>2019-07-26T12:19:35.000Z</Time>
            <Position>
              <LatitudeDegrees>42.91929982602596282958984375</LatitudeDegrees>
              <LongitudeDegrees>-8.0896008946001529693603515625</LongitudeDegrees>
            </Position>
            <AltitudeMeters>357</AltitudeMeters>
            <DistanceMeters>54730.276620668</DistanceMeters>
          </Trackpoint>
          <Trackpoint>
            <Time>2019-07-26T12:19:40.000Z</Time>
            <Position>
              <LatitudeDegrees>42.9193422384560108184814453125</LatitudeDegrees>
              <LongitudeDegrees>-8.0897195823490619659423828125</LongitudeDegrees>
            </Position>
            <AltitudeMeters>357.79998779296875</AltitudeMeters>
            <DistanceMeters>54741.041515976</DistanceMeters>
          </Trackpoint>
          <Trackpoint>
            <Time>2019-07-26T12:19:41.000Z</Time>
            <Position>
              <LatitudeDegrees>42.9193435795605182647705078125</LatitudeDegrees>
              <LongitudeDegrees>-8.089743554592132568359375</LongitudeDegrees>
            </Position>
            <AltitudeMeters>358.20001220703125</AltitudeMeters>
            <DistanceMeters>54743.002845261</DistanceMeters>
          </Trackpoint>
          <Trackpoint>
            <Time>2019-07-26T12:19:44.000Z</Time>
            <Position>
              <LatitudeDegrees>42.9193606786429882049560546875</LatitudeDegrees>
              <LongitudeDegrees>-8.0898218415677547454833984375</LongitudeDegrees>
            </Position>
            <AltitudeMeters>358.79998779296875</AltitudeMeters>
            <DistanceMeters>54749.66149943</DistanceMeters>
          </Trackpoint>
          <Trackpoint>
            <Time>2019-07-26T12:19:47.000Z</Time>
            <Position>
              <LatitudeDegrees>42.919385991990566253662109375</LatitudeDegrees>
              <LongitudeDegrees>-8.0898932553827762603759765625</LongitudeDegrees>
            </Position>
            <AltitudeMeters>360</AltitudeMeters>
            <DistanceMeters>54756.127507003</DistanceMeters>
          </Trackpoint>
          <Trackpoint>
            <Time>2019-07-26T12:19:51.000Z</Time>
            <Position>
              <LatitudeDegrees>42.9194136522710323333740234375</LatitudeDegrees>
              <LongitudeDegrees>-8.08999341912567615509033203125</LongitudeDegrees>
            </Position>
            <AltitudeMeters>361.20001220703125</AltitudeMeters>
            <DistanceMeters>54764.852387772</DistanceMeters>
          </Trackpoint>
          <Trackpoint>
            <Time>2019-07-26T12:19:55.000Z</Time>
            <Position>
              <LatitudeDegrees>42.9194220341742038726806640625</LatitudeDegrees>
              <LongitudeDegrees>-8.09009400196373462677001953125</LongitudeDegrees>
            </Position>
            <AltitudeMeters>362.20001220703125</AltitudeMeters>
            <DistanceMeters>54773.103858937</DistanceMeters>
          </Trackpoint>
          <Trackpoint>
            <Time>2019-07-26T12:19:59.000Z</Time>
            <Position>
              <LatitudeDegrees>42.91944198310375213623046875</LatitudeDegrees>
              <LongitudeDegrees>-8.0901779048144817352294921875</LongitudeDegrees>
            </Position>
            <AltitudeMeters>363.20001220703125</AltitudeMeters>
            <DistanceMeters>54780.293306591</DistanceMeters>
          </Trackpoint>
          <Trackpoint>
            <Time>2019-07-26T12:20:02.000Z</Time>
            <Position>
              <LatitudeDegrees>42.91944726370275020599365234375</LatitudeDegrees>
              <LongitudeDegrees>-8.09024521149694919586181640625</LongitudeDegrees>
            </Position>
            <AltitudeMeters>363.79998779296875</AltitudeMeters>
            <DistanceMeters>54785.810587415</DistanceMeters>
          </Trackpoint>
          <Trackpoint>
            <Time>2019-07-26T12:20:04.000Z</Time>
            <Position>
              <LatitudeDegrees>42.91944994591176509857177734375</LatitudeDegrees>
              <LongitudeDegrees>-8.090285696089267730712890625</LongitudeDegrees>
            </Position>
            <AltitudeMeters>364.399993896484375</AltitudeMeters>
            <DistanceMeters>54789.124282174</DistanceMeters>
          </Trackpoint>
          <Trackpoint>
            <Time>2019-07-26T12:20:09.000Z</Time>
            <Position>
              <LatitudeDegrees>42.9194632731378078460693359375</LatitudeDegrees>
              <LongitudeDegrees>-8.090388290584087371826171875</LongitudeDegrees>
            </Position>
            <AltitudeMeters>365.600006103515625</AltitudeMeters>
            <DistanceMeters>54797.617352916</DistanceMeters>
          </Trackpoint>
          <Trackpoint>
            <Time>2019-07-26T12:20:13.000Z</Time>
            <Position>
              <LatitudeDegrees>42.9194743372499942779541015625</LatitudeDegrees>
              <LongitudeDegrees>-8.0904833413660526275634765625</LongitudeDegrees>
            </Position>
            <AltitudeMeters>366.79998779296875</AltitudeMeters>
            <DistanceMeters>54805.461518958</DistanceMeters>
          </Trackpoint>
          <Trackpoint>
            <Time>2019-07-26T12:20:15.000Z</Time>
            <Position>
              <LatitudeDegrees>42.91947475634515285491943359375</LatitudeDegrees>
              <LongitudeDegrees>-8.09052851982414722442626953125</LongitudeDegrees>
            </Position>
            <AltitudeMeters>367.79998779296875</AltitudeMeters>
            <DistanceMeters>54809.144340542</DistanceMeters>
          </Trackpoint>
          <Trackpoint>
            <Time>2019-07-26T12:20:17.000Z</Time>
            <Position>
              <LatitudeDegrees>42.919473834335803985595703125</LatitudeDegrees>
              <LongitudeDegrees>-8.09057394973933696746826171875</LongitudeDegrees>
            </Position>
            <AltitudeMeters>368.20001220703125</AltitudeMeters>
            <DistanceMeters>54812.84916391</DistanceMeters>
          </Trackpoint>
          <Trackpoint>
            <Time>2019-07-26T12:20:19.000Z</Time>
            <Position>
              <LatitudeDegrees>42.91947014629840850830078125</LatitudeDegrees>
              <LongitudeDegrees>-8.09062105603516101837158203125</LongitudeDegrees>
            </Position>
            <AltitudeMeters>368.79998779296875</AltitudeMeters>
            <DistanceMeters>54816.710336816</DistanceMeters>
          </Trackpoint>
          <Trackpoint>
            <Time>2019-07-26T12:20:23.000Z</Time>
            <Position>
              <LatitudeDegrees>42.9194703139364719390869140625</LatitudeDegrees>
              <LongitudeDegrees>-8.0907160229980945587158203125</LongitudeDegrees>
            </Position>
            <AltitudeMeters>369.79998779296875</AltitudeMeters>
            <DistanceMeters>54824.450786235</DistanceMeters>
          </Trackpoint>
          <Trackpoint>
            <Time>2019-07-26T12:20:26.000Z</Time>
            <Position>
              <LatitudeDegrees>42.919473834335803985595703125</LatitudeDegrees>
              <LongitudeDegrees>-8.090773858129978179931640625</LongitudeDegrees>
            </Position>
            <AltitudeMeters>370.600006103515625</AltitudeMeters>
            <DistanceMeters>54829.18116988</DistanceMeters>
          </Trackpoint>
          <Trackpoint>
            <Time>2019-07-26T12:20:28.000Z</Time>
            <Position>
              <LatitudeDegrees>42.9194813780486583709716796875</LatitudeDegrees>
              <LongitudeDegrees>-8.09081308543682098388671875</LongitudeDegrees>
            </Position>
            <AltitudeMeters>371</AltitudeMeters>
            <DistanceMeters>54832.486679296</DistanceMeters>
          </Trackpoint>
          <Trackpoint>
            <Time>2019-07-26T12:20:33.000Z</Time>
            <Position>
              <LatitudeDegrees>42.91950979270040988922119140625</LatitudeDegrees>
              <LongitudeDegrees>-8.09093655087053775787353515625</LongitudeDegrees>
            </Position>
            <AltitudeMeters>372</AltitudeMeters>
            <DistanceMeters>54843.035500653</DistanceMeters>
          </Trackpoint>
          <Trackpoint>
            <Time>2019-07-26T12:20:34.000Z</Time>
            <Position>
              <LatitudeDegrees>42.9195164144039154052734375</LatitudeDegrees>
              <LongitudeDegrees>-8.0909607745707035064697265625</LongitudeDegrees>
            </Position>
            <AltitudeMeters>372.399993896484375</AltitudeMeters>
            <DistanceMeters>54845.143295142</DistanceMeters>
          </Trackpoint>
          <Trackpoint>
            <Time>2019-07-26T12:20:38.000Z</Time>
            <Position>
              <LatitudeDegrees>42.919550947844982147216796875</LatitudeDegrees>
              <LongitudeDegrees>-8.0910345353186130523681640625</LongitudeDegrees>
            </Position>
            <AltitudeMeters>373.20001220703125</AltitudeMeters>
            <DistanceMeters>54852.278529616</DistanceMeters>
          </Trackpoint>
          <Trackpoint>
            <Time>2019-07-26T12:20:41.000Z</Time>
            <Position>
              <LatitudeDegrees>42.9195702262222766876220703125</LatitudeDegrees>
              <LongitudeDegrees>-8.091086335480213165283203125</LongitudeDegrees>
            </Position>
            <AltitudeMeters>374</AltitudeMeters>
            <DistanceMeters>54857.013683236</DistanceMeters>
          </Trackpoint>
          <Trackpoint>
            <Time>2019-07-26T12:20:42.000Z</Time>
            <Position>
              <LatitudeDegrees>42.9195802845060825347900390625</LatitudeDegrees>
              <LongitudeDegrees>-8.0911056138575077056884765625</LongitudeDegrees>
            </Position>
            <AltitudeMeters>374.20001220703125</AltitudeMeters>
            <DistanceMeters>54858.942514876</DistanceMeters>
          </Trackpoint>
          <Trackpoint>
            <Time>2019-07-26T12:20:47.000Z</Time>
            <Position>
              <LatitudeDegrees>42.9196413047611713409423828125</LatitudeDegrees>
              <LongitudeDegrees>-8.09118591248989105224609375</LongitudeDegrees>
            </Position>
            <AltitudeMeters>375</AltitudeMeters>
            <DistanceMeters>54868.374604418</DistanceMeters>
          </Trackpoint>
          <Trackpoint>
            <Time>2019-07-26T12:20:48.000Z</Time>
            <Position>
              <LatitudeDegrees>42.91965245269238948822021484375</LatitudeDegrees>
              <LongitudeDegrees>-8.0911988206207752227783203125</LongitudeDegrees>
            </Position>
            <AltitudeMeters>375.399993896484375</AltitudeMeters>
            <DistanceMeters>54870.003973153</DistanceMeters>
          </Trackpoint>
          <Trackpoint>
            <Time>2019-07-26T12:20:54.000Z</Time>
            <Position>
              <LatitudeDegrees>42.919723950326442718505859375</LatitudeDegrees>
              <LongitudeDegrees>-8.0912373773753643035888671875</LongitudeDegrees>
            </Position>
            <AltitudeMeters>376.20001220703125</AltitudeMeters>
            <DistanceMeters>54878.559544417</DistanceMeters>
          </Trackpoint>
          <Trackpoint>
            <Time>2019-07-26T12:20:55.000Z</Time>
            <Position>
              <LatitudeDegrees>42.919735349714756011962890625</LatitudeDegrees>
              <LongitudeDegrees>-8.09124399907886981964111328125</LongitudeDegrees>
            </Position>
            <AltitudeMeters>376.399993896484375</AltitudeMeters>
            <DistanceMeters>54879.936612336</DistanceMeters>
          </Trackpoint>
          <Trackpoint>
            <Time>2019-07-26T12:21:00.000Z</Time>
            <Position>
              <LatitudeDegrees>42.91978002525866031646728515625</LatitudeDegrees>
              <LongitudeDegrees>-8.09129454195499420166015625</LongitudeDegrees>
            </Position>
            <AltitudeMeters>377.399993896484375</AltitudeMeters>
            <DistanceMeters>54886.394235197</DistanceMeters>
          </Trackpoint>
          <Trackpoint>
            <Time>2019-07-26T12:21:01.000Z</Time>
            <Position>
              <LatitudeDegrees>42.91978974826633930206298828125</LatitudeDegrees>
              <LongitudeDegrees>-8.09131608344614505767822265625</LongitudeDegrees>
            </Position>
            <AltitudeMeters>377.600006103515625</AltitudeMeters>
            <DistanceMeters>54888.458743875</DistanceMeters>
          </Trackpoint>
          <Trackpoint>
            <Time>2019-07-26T12:21:04.000Z</Time>
            <Position>
              <LatitudeDegrees>42.919817827641963958740234375</LatitudeDegrees>
              <LongitudeDegrees>-8.091374672949314117431640625</LongitudeDegrees>
            </Position>
            <AltitudeMeters>378.399993896484375</AltitudeMeters>
            <DistanceMeters>54894.16588727</DistanceMeters>
          </Trackpoint>
          <Trackpoint>
            <Time>2019-07-26T12:21:08.000Z</Time>
            <Position>
              <LatitudeDegrees>42.91985512711107730865478515625</LatitudeDegrees>
              <LongitudeDegrees>-8.09142739512026309967041015625</LongitudeDegrees>
            </Position>
            <AltitudeMeters>379.79998779296875</AltitudeMeters>
            <DistanceMeters>54900.141246863</DistanceMeters>
          </Trackpoint>
          <Trackpoint>
            <Time>2019-07-26T12:21:12.000Z</Time>
            <Position>
              <LatitudeDegrees>42.91989485733211040496826171875</LatitudeDegrees>
              <LongitudeDegrees>-8.09148556552827358245849609375</LongitudeDegrees>
            </Position>
            <AltitudeMeters>381</AltitudeMeters>
            <DistanceMeters>54906.623991326</DistanceMeters>
          </Trackpoint>
          <Trackpoint>
            <Time>2019-07-26T12:21:14.000Z</Time>
            <Position>
              <LatitudeDegrees>42.91992519982159137725830078125</LatitudeDegrees>
              <LongitudeDegrees>-8.09150652028620243072509765625</LongitudeDegrees>
            </Position>
            <AltitudeMeters>381.79998779296875</AltitudeMeters>
            <DistanceMeters>54910.408393688</DistanceMeters>
          </Trackpoint>
          <Trackpoint>
            <Time>2019-07-26T12:21:15.000Z</Time>
            <Position>
              <LatitudeDegrees>42.91993492282927036285400390625</LatitudeDegrees>
              <LongitudeDegrees>-8.09151389636099338531494140625</LongitudeDegrees>
            </Position>
            <AltitudeMeters>382</AltitudeMeters>
            <DistanceMeters>54911.647390458</DistanceMeters>
          </Trackpoint>
          <Trackpoint>
            <Time>2019-07-26T12:21:16.000Z</Time>
            <Position>
              <LatitudeDegrees>42.91994095779955387115478515625</LatitudeDegrees>
              <LongitudeDegrees>-8.09152655303478240966796875</LongitudeDegrees>
            </Position>
            <AltitudeMeters>382.399993896484375</AltitudeMeters>
            <DistanceMeters>54912.879077448</DistanceMeters>
          </Trackpoint>
          <Trackpoint>
            <Time>2019-07-26T12:21:18.000Z</Time>
            <Position>
              <LatitudeDegrees>42.919959984719753265380859375</LatitudeDegrees>
              <LongitudeDegrees>-8.0915548838675022125244140625</LongitudeDegrees>
            </Position>
            <AltitudeMeters>382.79998779296875</AltitudeMeters>
            <DistanceMeters>54916.010636647</DistanceMeters>
          </Trackpoint>
          <Trackpoint>
            <Time>2019-07-26T12:21:20.000Z</Time>
            <Position>
              <LatitudeDegrees>42.91998236440122127532958984375</LatitudeDegrees>
              <LongitudeDegrees>-8.091577179729938507080078125</LongitudeDegrees>
            </Position>
            <AltitudeMeters>383.399993896484375</AltitudeMeters>
            <DistanceMeters>54919.094249868</DistanceMeters>
          </Trackpoint>
          <Trackpoint>
            <Time>2019-07-26T12:21:24.000Z</Time>
            <Position>
              <LatitudeDegrees>42.9200453124940395355224609375</LatitudeDegrees>
              <LongitudeDegrees>-8.09165102429687976837158203125</LongitudeDegrees>
            </Position>
            <AltitudeMeters>384.600006103515625</AltitudeMeters>
            <DistanceMeters>54928.331413519</DistanceMeters>
          </Trackpoint>
          <Trackpoint>
            <Time>2019-07-26T12:21:25.000Z</Time>
            <Position>
              <LatitudeDegrees>42.9200600646436214447021484375</LatitudeDegrees>
              <LongitudeDegrees>-8.09167013503611087799072265625</LongitudeDegrees>
            </Position>
            <AltitudeMeters>384.79998779296875</AltitudeMeters>
            <DistanceMeters>54930.596161501</DistanceMeters>
          </Trackpoint>
          <Trackpoint>
            <Time>2019-07-26T12:21:28.000Z</Time>
            <Position>
              <LatitudeDegrees>42.9201207496225833892822265625</LatitudeDegrees>
              <LongitudeDegrees>-8.09175278060138225555419921875</LongitudeDegrees>
            </Position>
            <AltitudeMeters>385.600006103515625</AltitudeMeters>
            <DistanceMeters>54940.13487474</DistanceMeters>
          </Trackpoint>
          <Trackpoint>
            <Time>2019-07-26T12:21:30.000Z</Time>
            <Position>
              <LatitudeDegrees>42.92014748789370059967041015625</LatitudeDegrees>
              <LongitudeDegrees>-8.0917860567569732666015625</LongitudeDegrees>
            </Position>
            <AltitudeMeters>386.20001220703125</AltitudeMeters>
            <DistanceMeters>54944.162034693</DistanceMeters>
          </Trackpoint>
          <Trackpoint>
            <Time>2019-07-26T12:21:32.000Z</Time>
            <Position>
              <LatitudeDegrees>42.920175231993198394775390625</LatitudeDegrees>
              <LongitudeDegrees>-8.091823272407054901123046875</LongitudeDegrees>
            </Position>
            <AltitudeMeters>386.79998779296875</AltitudeMeters>
            <DistanceMeters>54948.490707541</DistanceMeters>
          </Trackpoint>
          <Trackpoint>
            <Time>2019-07-26T12:21:36.000Z</Time>
            <Position>
              <LatitudeDegrees>42.92023063637316226959228515625</LatitudeDegrees>
              <LongitudeDegrees>-8.09190340340137481689453125</LongitudeDegrees>
            </Position>
            <AltitudeMeters>388.20001220703125</AltitudeMeters>
            <DistanceMeters>54957.473622608</DistanceMeters>
          </Trackpoint>
          <Trackpoint>
            <Time>2019-07-26T12:21:40.000Z</Time>
            <Position>
              <LatitudeDegrees>42.92027489282190799713134765625</LatitudeDegrees>
              <LongitudeDegrees>-8.091984875500202178955078125</LongitudeDegrees>
            </Position>
            <AltitudeMeters>389.399993896484375</AltitudeMeters>
            <DistanceMeters>54965.742038947</DistanceMeters>
          </Trackpoint>
          <Trackpoint>
            <Time>2019-07-26T12:21:41.000Z</Time>
            <Position>
              <LatitudeDegrees>42.92028285562992095947265625</LatitudeDegrees>
              <LongitudeDegrees>-8.0919944308698177337646484375</LongitudeDegrees>
            </Position>
            <AltitudeMeters>389.600006103515625</AltitudeMeters>
            <DistanceMeters>54966.92128946</DistanceMeters>
          </Trackpoint>
          <Trackpoint>
            <Time>2019-07-26T12:21:42.000Z</Time>
            <Position>
              <LatitudeDegrees>42.920298613607883453369140625</LatitudeDegrees>
              <LongitudeDegrees>-8.0920148827135562896728515625</LongitudeDegrees>
            </Position>
            <AltitudeMeters>389.79998779296875</AltitudeMeters>
            <DistanceMeters>54969.340274689</DistanceMeters>
          </Trackpoint>
          <Trackpoint>
            <Time>2019-07-26T12:21:44.000Z</Time>
            <Position>
              <LatitudeDegrees>42.920336835086345672607421875</LatitudeDegrees>
              <LongitudeDegrees>-8.0920757353305816650390625</LongitudeDegrees>
            </Position>
            <AltitudeMeters>390.399993896484375</AltitudeMeters>
            <DistanceMeters>54975.874354687</DistanceMeters>
          </Trackpoint>
          <Trackpoint>
            <Time>2019-07-26T12:21:47.000Z</Time>
            <Position>
              <LatitudeDegrees>42.920369021594524383544921875</LatitudeDegrees>
              <LongitudeDegrees>-8.09213432483375072479248046875</LongitudeDegrees>
            </Position>
            <AltitudeMeters>391.20001220703125</AltitudeMeters>
            <DistanceMeters>54981.843666343</DistanceMeters>
          </Trackpoint>
          <Trackpoint>
            <Time>2019-07-26T12:21:48.000Z</Time>
            <Position>
              <LatitudeDegrees>42.9203856177628040313720703125</LatitudeDegrees>
              <LongitudeDegrees>-8.0921615660190582275390625</LongitudeDegrees>
            </Position>
            <AltitudeMeters>391.399993896484375</AltitudeMeters>
            <DistanceMeters>54984.732228379</DistanceMeters>
          </Trackpoint>
          <Trackpoint>
            <Time>2019-07-26T12:21:52.000Z</Time>
            <Position>
              <LatitudeDegrees>42.9204281978309154510498046875</LatitudeDegrees>
              <LongitudeDegrees>-8.09225879609584808349609375</LongitudeDegrees>
            </Position>
            <AltitudeMeters>392.79998779296875</AltitudeMeters>
            <DistanceMeters>54993.965969863</DistanceMeters>
          </Trackpoint>
          <Trackpoint>
            <Time>2019-07-26T12:21:56.000Z</Time>
            <Position>
              <LatitudeDegrees>42.9204560257494449615478515625</LatitudeDegrees>
              <LongitudeDegrees>-8.09236398898065090179443359375</LongitudeDegrees>
            </Position>
            <AltitudeMeters>394.20001220703125</AltitudeMeters>
            <DistanceMeters>55003.082593338</DistanceMeters>
          </Trackpoint>
          <Trackpoint>
            <Time>2019-07-26T12:22:00.000Z</Time>
            <Position>
              <LatitudeDegrees>42.9204875417053699493408203125</LatitudeDegrees>
              <LongitudeDegrees>-8.09243456460535526275634765625</LongitudeDegrees>
            </Position>
            <AltitudeMeters>395.20001220703125</AltitudeMeters>
            <DistanceMeters>55009.819444547</DistanceMeters>
          </Trackpoint>
          <Trackpoint>
            <Time>2019-07-26T12:22:02.000Z</Time>
            <Position>
              <LatitudeDegrees>42.9205207340419292449951171875</LatitudeDegrees>
              <LongitudeDegrees>-8.092452250421047210693359375</LongitudeDegrees>
            </Position>
            <AltitudeMeters>395.79998779296875</AltitudeMeters>
            <DistanceMeters>55013.78446196</DistanceMeters>
          </Trackpoint>
          <Trackpoint>
            <Time>2019-07-26T12:22:06.000Z</Time>
            <Position>
              <LatitudeDegrees>42.92059130966663360595703125</LatitudeDegrees>
              <LongitudeDegrees>-8.092505224049091339111328125</LongitudeDegrees>
            </Position>
            <AltitudeMeters>396.399993896484375</AltitudeMeters>
            <DistanceMeters>55022.748256926</DistanceMeters>
          </Trackpoint>
          <Trackpoint>
            <Time>2019-07-26T12:22:09.000Z</Time>
            <Position>
              <LatitudeDegrees>42.920655347406864166259765625</LatitudeDegrees>
              <LongitudeDegrees>-8.09253447689116001129150390625</LongitudeDegrees>
            </Position>
            <AltitudeMeters>396.79998779296875</AltitudeMeters>
            <DistanceMeters>55030.26498416</DistanceMeters>
          </Trackpoint>
          <Trackpoint>
            <Time>2019-07-26T12:22:14.000Z</Time>
            <Position>
              <LatitudeDegrees>42.9207879491150379180908203125</LatitudeDegrees>
              <LongitudeDegrees>-8.092575632035732269287109375</LongitudeDegrees>
            </Position>
            <AltitudeMeters>397.399993896484375</AltitudeMeters>
            <DistanceMeters>55045.400505602</DistanceMeters>
          </Trackpoint>
          <Trackpoint>
            <Time>2019-07-26T12:22:16.000Z</Time>
            <Position>
              <LatitudeDegrees>42.92083539068698883056640625</LatitudeDegrees>
              <LongitudeDegrees>-8.09260270558297634124755859375</LongitudeDegrees>
            </Position>
            <AltitudeMeters>397.79998779296875</AltitudeMeters>
            <DistanceMeters>55051.122660544</DistanceMeters>
          </Trackpoint>
          <Trackpoint>
            <Time>2019-07-26T12:22:19.000Z</Time>
            <Position>
              <LatitudeDegrees>42.92090236209332942962646484375</LatitudeDegrees>
              <LongitudeDegrees>-8.09265266172587871551513671875</LongitudeDegrees>
            </Position>
            <AltitudeMeters>398.20001220703125</AltitudeMeters>
            <DistanceMeters>55059.615731287</DistanceMeters>
          </Trackpoint>
          <Trackpoint>
            <Time>2019-07-26T12:22:21.000Z</Time>
            <Position>
              <LatitudeDegrees>42.9209532402455806732177734375</LatitudeDegrees>
              <LongitudeDegrees>-8.092680908739566802978515625</LongitudeDegrees>
            </Position>
            <AltitudeMeters>398.600006103515625</AltitudeMeters>
            <DistanceMeters>55065.728542123</DistanceMeters>
          </Trackpoint>
          <Trackpoint>
            <Time>2019-07-26T12:22:24.000Z</Time>
            <Position>
              <LatitudeDegrees>42.92103831656277179718017578125</LatitudeDegrees>
              <LongitudeDegrees>-8.09272323735058307647705078125</LongitudeDegrees>
            </Position>
            <AltitudeMeters>399</AltitudeMeters>
            <DistanceMeters>55075.806751282</DistanceMeters>
          </Trackpoint>
          <Trackpoint>
            <Time>2019-07-26T12:22:28.000Z</Time>
            <Position>
              <LatitudeDegrees>42.9211498796939849853515625</LatitudeDegrees>
              <LongitudeDegrees>-8.09276975691318511962890625</LongitudeDegrees>
            </Position>
            <AltitudeMeters>399.600006103515625</AltitudeMeters>
            <DistanceMeters>55088.78998805</DistanceMeters>
          </Trackpoint>
          <Trackpoint>
            <Time>2019-07-26T12:22:33.000Z</Time>
            <Position>
              <LatitudeDegrees>42.92130477726459503173828125</LatitudeDegrees>
              <LongitudeDegrees>-8.09282717294991016387939453125</LongitudeDegrees>
            </Position>
            <AltitudeMeters>400.399993896484375</AltitudeMeters>
            <DistanceMeters>55106.6539994</DistanceMeters>
          </Trackpoint>
          <Trackpoint>
            <Time>2019-07-26T12:22:35.000Z</Time>
            <Position>
              <LatitudeDegrees>42.92136621661484241485595703125</LatitudeDegrees>
              <LongitudeDegrees>-8.0928535759449005126953125</LongitudeDegrees>
            </Position>
            <AltitudeMeters>400.79998779296875</AltitudeMeters>
            <DistanceMeters>55113.823322599</DistanceMeters>
          </Trackpoint>
          <Trackpoint>
            <Time>2019-07-26T12:22:42.000Z</Time>
            <Position>
              <LatitudeDegrees>42.92158381082117557525634765625</LatitudeDegrees>
              <LongitudeDegrees>-8.0929466150701045989990234375</LongitudeDegrees>
            </Position>
            <AltitudeMeters>402</AltitudeMeters>
            <DistanceMeters>55139.201327093</DistanceMeters>
          </Trackpoint>
          <Trackpoint>
            <Time>2019-07-26T12:22:49.000Z</Time>
            <Position>
              <LatitudeDegrees>42.92175731621682643890380859375</LatitudeDegrees>
              <LongitudeDegrees>-8.0930207110941410064697265625</LongitudeDegrees>
            </Position>
            <AltitudeMeters>403.399993896484375</AltitudeMeters>
            <DistanceMeters>55159.435100983</DistanceMeters>
          </Trackpoint>
          <Trackpoint>
            <Time>2019-07-26T12:22:51.000Z</Time>
            <Position>
              <LatitudeDegrees>42.9218112118542194366455078125</LatitudeDegrees>
              <LongitudeDegrees>-8.0930596031248569488525390625</LongitudeDegrees>
            </Position>
            <AltitudeMeters>403.600006103515625</AltitudeMeters>
            <DistanceMeters>55166.220035007</DistanceMeters>
          </Trackpoint>
          <Trackpoint>
            <Time>2019-07-26T12:22:56.000Z</Time>
            <Position>
              <LatitudeDegrees>42.92197893373668193817138671875</LatitudeDegrees>
              <LongitudeDegrees>-8.09315926395356655120849609375</LongitudeDegrees>
            </Position>
            <AltitudeMeters>404.399993896484375</AltitudeMeters>
            <DistanceMeters>55186.57838584</DistanceMeters>
          </Trackpoint>
          <Trackpoint>
            <Time>2019-07-26T12:22:58.000Z</Time>
            <Position>
              <LatitudeDegrees>42.9220522753894329071044921875</LatitudeDegrees>
              <LongitudeDegrees>-8.09319647960364818572998046875</LongitudeDegrees>
            </Position>
            <AltitudeMeters>404.399993896484375</AltitudeMeters>
            <DistanceMeters>55195.286691184</DistanceMeters>
          </Trackpoint>
          <Trackpoint>
            <Time>2019-07-26T12:23:04.000Z</Time>
            <Position>
              <LatitudeDegrees>42.92228839360177516937255859375</LatitudeDegrees>
              <LongitudeDegrees>-8.0933241359889507293701171875</LongitudeDegrees>
            </Position>
            <AltitudeMeters>405.399993896484375</AltitudeMeters>
            <DistanceMeters>55223.551668155</DistanceMeters>
          </Trackpoint>
          <Trackpoint>
            <Time>2019-07-26T12:23:06.000Z</Time>
            <Position>
              <LatitudeDegrees>42.92236953042447566986083984375</LatitudeDegrees>
              <LongitudeDegrees>-8.09337937273085117340087890625</LongitudeDegrees>
            </Position>
            <AltitudeMeters>405.600006103515625</AltitudeMeters>
            <DistanceMeters>55233.642860952</DistanceMeters>
          </Trackpoint>
          <Trackpoint>
            <Time>2019-07-26T12:23:09.000Z</Time>
            <Position>
              <LatitudeDegrees>42.9224898107349872589111328125</LatitudeDegrees>
              <LongitudeDegrees>-8.09347375296056270599365234375</LongitudeDegrees>
            </Position>
            <AltitudeMeters>405.79998779296875</AltitudeMeters>
            <DistanceMeters>55249.08345933</DistanceMeters>
          </Trackpoint>
          <Trackpoint>
            <Time>2019-07-26T12:23:13.000Z</Time>
            <Position>
              <LatitudeDegrees>42.9226577840745449066162109375</LatitudeDegrees>
              <LongitudeDegrees>-8.0936017446219921112060546875</LongitudeDegrees>
            </Position>
            <AltitudeMeters>406.20001220703125</AltitudeMeters>
            <DistanceMeters>55270.492748207</DistanceMeters>
          </Trackpoint>
          <Trackpoint>
            <Time>2019-07-26T12:23:23.000Z</Time>
            <Position>
              <LatitudeDegrees>42.92305667884647846221923828125</LatitudeDegrees>
              <LongitudeDegrees>-8.09390944428741931915283203125</LongitudeDegrees>
            </Position>
            <AltitudeMeters>406.399993896484375</AltitudeMeters>
            <DistanceMeters>55321.483945007</DistanceMeters>
          </Trackpoint>
          <Trackpoint>
            <Time>2019-07-26T12:23:33.000Z</Time>
            <Position>
              <LatitudeDegrees>42.92344928719103336334228515625</LatitudeDegrees>
              <LongitudeDegrees>-8.0942659266293048858642578125</LongitudeDegrees>
            </Position>
            <AltitudeMeters>406.20001220703125</AltitudeMeters>
            <DistanceMeters>55373.959431296</DistanceMeters>
          </Trackpoint>
          <Trackpoint>
            <Time>2019-07-26T12:23:36.000Z</Time>
            <Position>
              <LatitudeDegrees>42.923574261367321014404296875</LatitudeDegrees>
              <LongitudeDegrees>-8.0943758971989154815673828125</LongitudeDegrees>
            </Position>
            <AltitudeMeters>406.399993896484375</AltitudeMeters>
            <DistanceMeters>55390.506635831</DistanceMeters>
          </Trackpoint>
          <Trackpoint>
            <Time>2019-07-26T12:23:40.000Z</Time>
            <Position>
              <LatitudeDegrees>42.923729829490184783935546875</LatitudeDegrees>
              <LongitudeDegrees>-8.09451746754348278045654296875</LongitudeDegrees>
            </Position>
            <AltitudeMeters>406.600006103515625</AltitudeMeters>
            <DistanceMeters>55411.3137977</DistanceMeters>
          </Trackpoint>
          <Trackpoint>
            <Time>2019-07-26T12:23:48.000Z</Time>
            <Position>
              <LatitudeDegrees>42.92401690967381000518798828125</LatitudeDegrees>
              <LongitudeDegrees>-8.094857521355152130126953125</LongitudeDegrees>
            </Position>
            <AltitudeMeters>407.399993896484375</AltitudeMeters>
            <DistanceMeters>55453.61146815</DistanceMeters>
          </Trackpoint>
          <Trackpoint>
            <Time>2019-07-26T12:23:53.000Z</Time>
            <Position>
              <LatitudeDegrees>42.92417113669216632843017578125</LatitudeDegrees>
              <LongitudeDegrees>-8.09511593542993068695068359375</LongitudeDegrees>
            </Position>
            <AltitudeMeters>407.79998779296875</AltitudeMeters>
            <DistanceMeters>55480.782130078</DistanceMeters>
          </Trackpoint>
          <Trackpoint>
            <Time>2019-07-26T12:23:57.000Z</Time>
            <Position>
              <LatitudeDegrees>42.92427800595760345458984375</LatitudeDegrees>
              <LongitudeDegrees>-8.0953518860042095184326171875</LongitudeDegrees>
            </Position>
            <AltitudeMeters>408.399993896484375</AltitudeMeters>
            <DistanceMeters>55503.393896005</DistanceMeters>
          </Trackpoint>
          <Trackpoint>
            <Time>2019-07-26T12:23:58.000Z</Time>
            <Position>
              <LatitudeDegrees>42.9242987930774688720703125</LatitudeDegrees>
              <LongitudeDegrees>-8.09541617520153522491455078125</LongitudeDegrees>
            </Position>
            <AltitudeMeters>408.600006103515625</AltitudeMeters>
            <DistanceMeters>55509.12235983</DistanceMeters>
          </Trackpoint>
          <Trackpoint>
            <Time>2019-07-26T12:24:02.000Z</Time>
            <Position>
              <LatitudeDegrees>42.92437531985342502593994140625</LatitudeDegrees>
              <LongitudeDegrees>-8.09567601419985294342041015625</LongitudeDegrees>
            </Position>
            <AltitudeMeters>409.399993896484375</AltitudeMeters>
            <DistanceMeters>55531.948559926</DistanceMeters>
          </Trackpoint>
          <Trackpoint>
            <Time>2019-07-26T12:24:04.000Z</Time>
            <Position>
              <LatitudeDegrees>42.92440935038030147552490234375</LatitudeDegrees>
              <LongitudeDegrees>-8.0958058498799800872802734375</LongitudeDegrees>
            </Position>
            <AltitudeMeters>409.79998779296875</AltitudeMeters>
            <DistanceMeters>55543.18785436</DistanceMeters>
          </Trackpoint>
          <Trackpoint>
            <Time>2019-07-26T12:24:05.000Z</Time>
            <Position>
              <LatitudeDegrees>42.92442577891051769256591796875</LatitudeDegrees>
              <LongitudeDegrees>-8.095872402191162109375</LongitudeDegrees>
            </Position>
            <AltitudeMeters>409.79998779296875</AltitudeMeters>
            <DistanceMeters>55548.911587175</DistanceMeters>
          </Trackpoint>
          <Trackpoint>
            <Time>2019-07-26T12:24:11.000Z</Time>
            <Position>
              <LatitudeDegrees>42.924531139433383941650390625</LatitudeDegrees>
              <LongitudeDegrees>-8.09624254703521728515625</LongitudeDegrees>
            </Position>
            <AltitudeMeters>410.79998779296875</AltitudeMeters>
            <DistanceMeters>55581.277914867</DistanceMeters>
          </Trackpoint>
          <Trackpoint>
            <Time>2019-07-26T12:24:12.000Z</Time>
            <Position>
              <LatitudeDegrees>42.92454916052520275115966796875</LatitudeDegrees>
              <LongitudeDegrees>-8.0963007174432277679443359375</LongitudeDegrees>
            </Position>
            <AltitudeMeters>411</AltitudeMeters>
            <DistanceMeters>55586.425170863</DistanceMeters>
          </Trackpoint>
          <Trackpoint>
            <Time>2019-07-26T12:24:20.000Z</Time>
            <Position>
              <LatitudeDegrees>42.9246737994253635406494140625</LatitudeDegrees>
              <LongitudeDegrees>-8.09678326360881328582763671875</LongitudeDegrees>
            </Position>
            <AltitudeMeters>411.79998779296875</AltitudeMeters>
            <DistanceMeters>55628.128150884</DistanceMeters>
          </Trackpoint>
          <Trackpoint>
            <Time>2019-07-26T12:24:21.000Z</Time>
            <Position>
              <LatitudeDegrees>42.92468980886042118072509765625</LatitudeDegrees>
              <LongitudeDegrees>-8.09684042818844318389892578125</LongitudeDegrees>
            </Position>
            <AltitudeMeters>412</AltitudeMeters>
            <DistanceMeters>55633.116827129</DistanceMeters>
          </Trackpoint>
          <Trackpoint>
            <Time>2019-07-26T12:24:26.000Z</Time>
            <Position>
              <LatitudeDegrees>42.924762479960918426513671875</LatitudeDegrees>
              <LongitudeDegrees>-8.097127340734004974365234375</LongitudeDegrees>
            </Position>
            <AltitudeMeters>413</AltitudeMeters>
            <DistanceMeters>55657.859929658</DistanceMeters>
          </Trackpoint>
          <Trackpoint>
            <Time>2019-07-26T12:24:27.000Z</Time>
            <Position>
              <LatitudeDegrees>42.92477346025407314300537109375</LatitudeDegrees>
              <LongitudeDegrees>-8.09718509204685688018798828125</LongitudeDegrees>
            </Position>
            <AltitudeMeters>413.20001220703125</AltitudeMeters>
            <DistanceMeters>55662.723032598</DistanceMeters>
          </Trackpoint>
          <Trackpoint>
            <Time>2019-07-26T12:24:29.000Z</Time>
            <Position>
              <LatitudeDegrees>42.92476952075958251953125</LatitudeDegrees>
              <LongitudeDegrees>-8.09730528853833675384521484375</LongitudeDegrees>
            </Position>
            <AltitudeMeters>413.20001220703125</AltitudeMeters>
            <DistanceMeters>55672.528758169</DistanceMeters>
          </Trackpoint>
          <Trackpoint>
            <Time>2019-07-26T12:24:32.000Z</Time>
            <Position>
              <LatitudeDegrees>42.92471679858863353729248046875</LatitudeDegrees>
              <LongitudeDegrees>-8.097492791712284088134765625</LongitudeDegrees>
            </Position>
            <AltitudeMeters>413.79998779296875</AltitudeMeters>
            <DistanceMeters>55688.898195802</DistanceMeters>
          </Trackpoint>
          <Trackpoint>
            <Time>2019-07-26T12:24:33.000Z</Time>
            <Position>
              <LatitudeDegrees>42.92469433508813381195068359375</LatitudeDegrees>
              <LongitudeDegrees>-8.09756462462246417999267578125</LongitudeDegrees>
            </Position>
            <AltitudeMeters>414</AltitudeMeters>
            <DistanceMeters>55695.26427647</DistanceMeters>
          </Trackpoint>
          <Trackpoint>
            <Time>2019-07-26T12:24:34.000Z</Time>
            <Position>
              <LatitudeDegrees>42.92467296123504638671875</LatitudeDegrees>
              <LongitudeDegrees>-8.09764374978840351104736328125</LongitudeDegrees>
            </Position>
            <AltitudeMeters>414.20001220703125</AltitudeMeters>
            <DistanceMeters>55702.137145586</DistanceMeters>
          </Trackpoint>
          <Trackpoint>
            <Time>2019-07-26T12:24:38.000Z</Time>
            <Position>
              <LatitudeDegrees>42.92461470700800418853759765625</LatitudeDegrees>
              <LongitudeDegrees>-8.0979720689356327056884765625</LongitudeDegrees>
            </Position>
            <AltitudeMeters>414.20001220703125</AltitudeMeters>
            <DistanceMeters>55729.669649961</DistanceMeters>
          </Trackpoint>
          <Trackpoint>
            <Time>2019-07-26T12:24:41.000Z</Time>
            <Position>
              <LatitudeDegrees>42.92459475807845592498779296875</LatitudeDegrees>
              <LongitudeDegrees>-8.0981992185115814208984375</LongitudeDegrees>
            </Position>
            <AltitudeMeters>414.20001220703125</AltitudeMeters>
            <DistanceMeters>55748.315237726</DistanceMeters>
          </Trackpoint>
          <Trackpoint>
            <Time>2019-07-26T12:24:43.000Z</Time>
            <Position>
              <LatitudeDegrees>42.92458838783204555511474609375</LatitudeDegrees>
              <LongitudeDegrees>-8.0983442254364490509033203125</LongitudeDegrees>
            </Position>
            <AltitudeMeters>414</AltitudeMeters>
            <DistanceMeters>55760.154742641</DistanceMeters>
          </Trackpoint>
          <Trackpoint>
            <Time>2019-07-26T12:24:45.000Z</Time>
            <Position>
              <LatitudeDegrees>42.9245884716510772705078125</LatitudeDegrees>
              <LongitudeDegrees>-8.0984974466264247894287109375</LongitudeDegrees>
            </Position>
            <AltitudeMeters>413.20001220703125</AltitudeMeters>
            <DistanceMeters>55772.642352104</DistanceMeters>
          </Trackpoint>
          <Trackpoint>
            <Time>2019-07-26T12:24:46.000Z</Time>
            <Position>
              <LatitudeDegrees>42.9245938360691070556640625</LatitudeDegrees>
              <LongitudeDegrees>-8.09857615269720554351806640625</LongitudeDegrees>
            </Position>
            <AltitudeMeters>412.79998779296875</AltitudeMeters>
            <DistanceMeters>55779.085275464</DistanceMeters>
          </Trackpoint>
          <Trackpoint>
            <Time>2019-07-26T12:24:49.000Z</Time>
            <Position>
              <LatitudeDegrees>42.924645803868770599365234375</LatitudeDegrees>
              <LongitudeDegrees>-8.09882995672523975372314453125</LongitudeDegrees>
            </Position>
            <AltitudeMeters>412.399993896484375</AltitudeMeters>
            <DistanceMeters>55800.564256015</DistanceMeters>
          </Trackpoint>
          <Trackpoint>
            <Time>2019-07-26T12:24:50.000Z</Time>
            <Position>
              <LatitudeDegrees>42.9246716201305389404296875</LatitudeDegrees>
              <LongitudeDegrees>-8.098915033042430877685546875</LongitudeDegrees>
            </Position>
            <AltitudeMeters>412.399993896484375</AltitudeMeters>
            <DistanceMeters>55808.069561929</DistanceMeters>
          </Trackpoint>
          <Trackpoint>
            <Time>2019-07-26T12:24:52.000Z</Time>
            <Position>
              <LatitudeDegrees>42.92471411637961864471435546875</LatitudeDegrees>
              <LongitudeDegrees>-8.099090047180652618408203125</LongitudeDegrees>
            </Position>
            <AltitudeMeters>412.20001220703125</AltitudeMeters>
            <DistanceMeters>55823.097008542</DistanceMeters>
          </Trackpoint>
          <Trackpoint>
            <Time>2019-07-26T12:24:54.000Z</Time>
            <Position>
              <LatitudeDegrees>42.92472316883504390716552734375</LatitudeDegrees>
              <LongitudeDegrees>-8.09927654452621936798095703125</LongitudeDegrees>
            </Position>
            <AltitudeMeters>412.20001220703125</AltitudeMeters>
            <DistanceMeters>55838.330356974</DistanceMeters>
          </Trackpoint>
          <Trackpoint>
            <Time>2019-07-26T12:24:56.000Z</Time>
            <Position>
              <LatitudeDegrees>42.9247160442173480987548828125</LatitudeDegrees>
              <LongitudeDegrees>-8.09947469271719455718994140625</LongitudeDegrees>
            </Position>
            <AltitudeMeters>411.79998779296875</AltitudeMeters>
            <DistanceMeters>55854.499146141</DistanceMeters>
          </Trackpoint>
          <Trackpoint>
            <Time>2019-07-26T12:25:00.000Z</Time>
            <Position>
              <LatitudeDegrees>42.924684695899486541748046875</LatitudeDegrees>
              <LongitudeDegrees>-8.09989345259964466094970703125</LongitudeDegrees>
            </Position>
            <AltitudeMeters>411.20001220703125</AltitudeMeters>
            <DistanceMeters>55888.806422247</DistanceMeters>
          </Trackpoint>
          <Trackpoint>
            <Time>2019-07-26T12:25:03.000Z</Time>
            <Position>
              <LatitudeDegrees>42.9246851988136768341064453125</LatitudeDegrees>
              <LongitudeDegrees>-8.10021422803401947021484375</LongitudeDegrees>
            </Position>
            <AltitudeMeters>410.600006103515625</AltitudeMeters>
            <DistanceMeters>55914.950342117</DistanceMeters>
          </Trackpoint>
          <Trackpoint>
            <Time>2019-07-26T12:25:05.000Z</Time>
            <Position>
              <LatitudeDegrees>42.924683354794979095458984375</LatitudeDegrees>
              <LongitudeDegrees>-8.1004226021468639373779296875</LongitudeDegrees>
            </Position>
            <AltitudeMeters>409.600006103515625</AltitudeMeters>
            <DistanceMeters>55931.934357011</DistanceMeters>
          </Trackpoint>
          <Trackpoint>
            <Time>2019-07-26T12:25:07.000Z</Time>
            <Position>
              <LatitudeDegrees>42.92468394152820110321044921875</LatitudeDegrees>
              <LongitudeDegrees>-8.10062997043132781982421875</LongitudeDegrees>
            </Position>
            <AltitudeMeters>408.79998779296875</AltitudeMeters>
            <DistanceMeters>55948.834959012</DistanceMeters>
          </Trackpoint>
          <Trackpoint>
            <Time>2019-07-26T12:25:09.000Z</Time>
            <Position>
              <LatitudeDegrees>42.9246743023395538330078125</LatitudeDegrees>
              <LongitudeDegrees>-8.1008346565067768096923828125</LongitudeDegrees>
            </Position>
            <AltitudeMeters>408.20001220703125</AltitudeMeters>
            <DistanceMeters>55965.551559912</DistanceMeters>
          </Trackpoint>
          <Trackpoint>
            <Time>2019-07-26T12:25:14.000Z</Time>
            <Position>
              <LatitudeDegrees>42.92466382496058940887451171875</LatitudeDegrees>
              <LongitudeDegrees>-8.1013432703912258148193359375</LongitudeDegrees>
            </Position>
            <AltitudeMeters>407</AltitudeMeters>
            <DistanceMeters>56007.020460281</DistanceMeters>
          </Trackpoint>
          <Trackpoint>
            <Time>2019-07-26T12:25:18.000Z</Time>
            <Position>
              <LatitudeDegrees>42.92469567619264125823974609375</LatitudeDegrees>
              <LongitudeDegrees>-8.10174350626766681671142578125</LongitudeDegrees>
            </Position>
            <AltitudeMeters>406</AltitudeMeters>
            <DistanceMeters>56039.832071549</DistanceMeters>
          </Trackpoint>
          <Trackpoint>
            <Time>2019-07-26T12:25:19.000Z</Time>
            <Position>
              <LatitudeDegrees>42.92471520602703094482421875</LatitudeDegrees>
              <LongitudeDegrees>-8.10184056870639324188232421875</LongitudeDegrees>
            </Position>
            <AltitudeMeters>405.79998779296875</AltitudeMeters>
            <DistanceMeters>56048.035249571</DistanceMeters>
          </Trackpoint>
          <Trackpoint>
            <Time>2019-07-26T12:25:23.000Z</Time>
            <Position>
              <LatitudeDegrees>42.9248253442347049713134765625</LatitudeDegrees>
              <LongitudeDegrees>-8.1022126413881778717041015625</LongitudeDegrees>
            </Position>
            <AltitudeMeters>405.600006103515625</AltitudeMeters>
            <DistanceMeters>56080.743494351</DistanceMeters>
          </Trackpoint>
          <Trackpoint>
            <Time>2019-07-26T12:25:25.000Z</Time>
            <Position>
              <LatitudeDegrees>42.9248830117285251617431640625</LatitudeDegrees>
              <LongitudeDegrees>-8.10239486396312713623046875</LongitudeDegrees>
            </Position>
            <AltitudeMeters>405.20001220703125</AltitudeMeters>
            <DistanceMeters>56096.922612249</DistanceMeters>
          </Trackpoint>
          <Trackpoint>
            <Time>2019-07-26T12:25:26.000Z</Time>
            <Position>
              <LatitudeDegrees>42.92490606196224689483642578125</LatitudeDegrees>
              <LongitudeDegrees>-8.10246988199651241302490234375</LongitudeDegrees>
            </Position>
            <AltitudeMeters>405</AltitudeMeters>
            <DistanceMeters>56103.55340724</DistanceMeters>
          </Trackpoint>
          <Trackpoint>
            <Time>2019-07-26T12:25:29.000Z</Time>
            <Position>
              <LatitudeDegrees>42.9249705187976360321044921875</LatitudeDegrees>
              <LongitudeDegrees>-8.10266911983489990234375</LongitudeDegrees>
            </Position>
            <AltitudeMeters>404.399993896484375</AltitudeMeters>
            <DistanceMeters>56121.305862503</DistanceMeters>
          </Trackpoint>
          <Trackpoint>
            <Time>2019-07-26T12:25:31.000Z</Time>
            <Position>
              <LatitudeDegrees>42.92502223514020442962646484375</LatitudeDegrees>
              <LongitudeDegrees>-8.1028258614242076873779296875</LongitudeDegrees>
            </Position>
            <AltitudeMeters>404</AltitudeMeters>
            <DistanceMeters>56135.317711848</DistanceMeters>
          </Trackpoint>
          <Trackpoint>
            <Time>2019-07-26T12:25:34.000Z</Time>
            <Position>
              <LatitudeDegrees>42.9251066409051418304443359375</LatitudeDegrees>
              <LongitudeDegrees>-8.10310455970466136932373046875</LongitudeDegrees>
            </Position>
            <AltitudeMeters>402.600006103515625</AltitudeMeters>
            <DistanceMeters>56159.89787366</DistanceMeters>
          </Trackpoint>
          <Trackpoint>
            <Time>2019-07-26T12:25:36.000Z</Time>
            <Position>
              <LatitudeDegrees>42.925166152417659759521484375</LatitudeDegrees>
              <LongitudeDegrees>-8.10331754386425018310546875</LongitudeDegrees>
            </Position>
            <AltitudeMeters>401.399993896484375</AltitudeMeters>
            <DistanceMeters>56178.476993718</DistanceMeters>
          </Trackpoint>
          <Trackpoint>
            <Time>2019-07-26T12:25:38.000Z</Time>
            <Position>
              <LatitudeDegrees>42.925244271755218505859375</LatitudeDegrees>
              <LongitudeDegrees>-8.10353857465088367462158203125</LongitudeDegrees>
            </Position>
            <AltitudeMeters>401</AltitudeMeters>
            <DistanceMeters>56198.479609224</DistanceMeters>
          </Trackpoint>
          <Trackpoint>
            <Time>2019-07-26T12:25:39.000Z</Time>
            <Position>
              <LatitudeDegrees>42.92529565282166004180908203125</LatitudeDegrees>
              <LongitudeDegrees>-8.10364955104887485504150390625</LongitudeDegrees>
            </Position>
            <AltitudeMeters>400.79998779296875</AltitudeMeters>
            <DistanceMeters>56209.180984344</DistanceMeters>
          </Trackpoint>
          <Trackpoint>
            <Time>2019-07-26T12:25:40.000Z</Time>
            <Position>
              <LatitudeDegrees>42.9253584332764148712158203125</LatitudeDegrees>
              <LongitudeDegrees>-8.103753067553043365478515625</LongitudeDegrees>
            </Position>
            <AltitudeMeters>400.399993896484375</AltitudeMeters>
            <DistanceMeters>56220.135878955</DistanceMeters>
          </Trackpoint>
          <Trackpoint>
            <Time>2019-07-26T12:25:42.000Z</Time>
            <Position>
              <LatitudeDegrees>42.925518192350864410400390625</LatitudeDegrees>
              <LongitudeDegrees>-8.103921711444854736328125</LongitudeDegrees>
            </Position>
            <AltitudeMeters>400.20001220703125</AltitudeMeters>
            <DistanceMeters>56242.61004848</DistanceMeters>
          </Trackpoint>
          <Trackpoint>
            <Time>2019-07-26T12:25:43.000Z</Time>
            <Position>
              <LatitudeDegrees>42.92560662142932415008544921875</LatitudeDegrees>
              <LongitudeDegrees>-8.10400150716304779052734375</LongitudeDegrees>
            </Position>
            <AltitudeMeters>399.79998779296875</AltitudeMeters>
            <DistanceMeters>56254.406764467</DistanceMeters>
          </Trackpoint>
          <Trackpoint>
            <Time>2019-07-26T12:25:44.000Z</Time>
            <Position>
              <LatitudeDegrees>42.92569999583065509796142578125</LatitudeDegrees>
              <LongitudeDegrees>-8.10407258570194244384765625</LongitudeDegrees>
            </Position>
            <AltitudeMeters>399.399993896484375</AltitudeMeters>
            <DistanceMeters>56266.30447342</DistanceMeters>
          </Trackpoint>
          <Trackpoint>
            <Time>2019-07-26T12:25:46.000Z</Time>
            <Position>
              <LatitudeDegrees>42.9258988983929157257080078125</LatitudeDegrees>
              <LongitudeDegrees>-8.1041885912418365478515625</LongitudeDegrees>
            </Position>
            <AltitudeMeters>398.399993896484375</AltitudeMeters>
            <DistanceMeters>56290.377199184</DistanceMeters>
          </Trackpoint>
          <Trackpoint>
            <Time>2019-07-26T12:25:47.000Z</Time>
            <Position>
              <LatitudeDegrees>42.92600761167705059051513671875</LatitudeDegrees>
              <LongitudeDegrees>-8.10422656126320362091064453125</LongitudeDegrees>
            </Position>
            <AltitudeMeters>397.600006103515625</AltitudeMeters>
            <DistanceMeters>56302.866977828</DistanceMeters>
          </Trackpoint>
          <Trackpoint>
            <Time>2019-07-26T12:25:49.000Z</Time>
            <Position>
              <LatitudeDegrees>42.92623199522495269775390625</LatitudeDegrees>
              <LongitudeDegrees>-8.1042558141052722930908203125</LongitudeDegrees>
            </Position>
            <AltitudeMeters>395.600006103515625</AltitudeMeters>
            <DistanceMeters>56327.954750311</DistanceMeters>
          </Trackpoint>
          <Trackpoint>
            <Time>2019-07-26T12:25:50.000Z</Time>
            <Position>
              <LatitudeDegrees>42.9263414628803730010986328125</LatitudeDegrees>
              <LongitudeDegrees>-8.10425891540944576263427734375</LongitudeDegrees>
            </Position>
            <AltitudeMeters>394.600006103515625</AltitudeMeters>
            <DistanceMeters>56340.141532793</DistanceMeters>
          </Trackpoint>
          <Trackpoint>
            <Time>2019-07-26T12:25:52.000Z</Time>
            <Position>
              <LatitudeDegrees>42.92652963660657405853271484375</LatitudeDegrees>
              <LongitudeDegrees>-8.10427282936871051788330078125</LongitudeDegrees>
            </Position>
            <AltitudeMeters>392.79998779296875</AltitudeMeters>
            <DistanceMeters>56361.116621695</DistanceMeters>
          </Trackpoint>
          <Trackpoint>
            <Time>2019-07-26T12:25:53.000Z</Time>
            <Position>
              <LatitudeDegrees>42.92660507373511791229248046875</LatitudeDegrees>
              <LongitudeDegrees>-8.10429931618273258209228515625</LongitudeDegrees>
            </Position>
            <AltitudeMeters>391.399993896484375</AltitudeMeters>
            <DistanceMeters>56369.786474999</DistanceMeters>
          </Trackpoint>
          <Trackpoint>
            <Time>2019-07-26T12:25:54.000Z</Time>
            <Position>
              <LatitudeDegrees>42.9266680218279361724853515625</LatitudeDegrees>
              <LongitudeDegrees>-8.10434793122112751007080078125</LongitudeDegrees>
            </Position>
            <AltitudeMeters>390</AltitudeMeters>
            <DistanceMeters>56377.834626236</DistanceMeters>
          </Trackpoint>
          <Trackpoint>
            <Time>2019-07-26T12:25:55.000Z</Time>
            <Position>
              <LatitudeDegrees>42.926712445914745330810546875</LatitudeDegrees>
              <LongitudeDegrees>-8.104415573179721832275390625</LongitudeDegrees>
            </Position>
            <AltitudeMeters>388</AltitudeMeters>
            <DistanceMeters>56385.239396602</DistanceMeters>
          </Trackpoint>
          <Trackpoint>
            <Time>2019-07-26T12:25:56.000Z</Time>
            <Position>
              <LatitudeDegrees>42.92674303986132144927978515625</LatitudeDegrees>
              <LongitudeDegrees>-8.10449494980275630950927734375</LongitudeDegrees>
            </Position>
            <AltitudeMeters>386.600006103515625</AltitudeMeters>
            <DistanceMeters>56392.55089799</DistanceMeters>
          </Trackpoint>
          <Trackpoint>
            <Time>2019-07-26T12:25:57.000Z</Time>
            <Position>
              <LatitudeDegrees>42.92676717974245548248291015625</LatitudeDegrees>
              <LongitudeDegrees>-8.104581870138645172119140625</LongitudeDegrees>
            </Position>
            <AltitudeMeters>385.20001220703125</AltitudeMeters>
            <DistanceMeters>56400.126857723</DistanceMeters>
          </Trackpoint>
          <Trackpoint>
            <Time>2019-07-26T12:25:58.000Z</Time>
            <Position>
              <LatitudeDegrees>42.9267873801290988922119140625</LatitudeDegrees>
              <LongitudeDegrees>-8.10466811992228031158447265625</LongitudeDegrees>
            </Position>
            <AltitudeMeters>384</AltitudeMeters>
            <DistanceMeters>56407.506586108</DistanceMeters>
          </Trackpoint>
          <Trackpoint>
            <Time>2019-07-26T12:25:59.000Z</Time>
            <Position>
              <LatitudeDegrees>42.92681001126766204833984375</LatitudeDegrees>
              <LongitudeDegrees>-8.10475118458271026611328125</LongitudeDegrees>
            </Position>
            <AltitudeMeters>383</AltitudeMeters>
            <DistanceMeters>56414.729241548</DistanceMeters>
          </Trackpoint>
          <Trackpoint>
            <Time>2019-07-26T12:26:01.000Z</Time>
            <Position>
              <LatitudeDegrees>42.92685803957283496856689453125</LatitudeDegrees>
              <LongitudeDegrees>-8.10492125339806079864501953125</LongitudeDegrees>
            </Position>
            <AltitudeMeters>381.79998779296875</AltitudeMeters>
            <DistanceMeters>56429.584746865</DistanceMeters>
          </Trackpoint>
          <Trackpoint>
            <Time>2019-07-26T12:26:02.000Z</Time>
            <Position>
              <LatitudeDegrees>42.9268768988549709320068359375</LatitudeDegrees>
              <LongitudeDegrees>-8.1050026416778564453125</LongitudeDegrees>
            </Position>
            <AltitudeMeters>381.600006103515625</AltitudeMeters>
            <DistanceMeters>56436.541844661</DistanceMeters>
          </Trackpoint>
          <Trackpoint>
            <Time>2019-07-26T12:26:07.000Z</Time>
            <Position>
              <LatitudeDegrees>42.92695778422057628631591796875</LatitudeDegrees>
              <LongitudeDegrees>-8.10530103743076324462890625</LongitudeDegrees>
            </Position>
            <AltitudeMeters>381.399993896484375</AltitudeMeters>
            <DistanceMeters>56462.473518973</DistanceMeters>
          </Trackpoint>
          <Trackpoint>
            <Time>2019-07-26T12:26:09.000Z</Time>
            <Position>
              <LatitudeDegrees>42.926979996263980865478515625</LatitudeDegrees>
              <LongitudeDegrees>-8.10538058169186115264892578125</LongitudeDegrees>
            </Position>
            <AltitudeMeters>381.399993896484375</AltitudeMeters>
            <DistanceMeters>56469.412421451</DistanceMeters>
          </Trackpoint>
          <Trackpoint>
            <Time>2019-07-26T12:26:11.000Z</Time>
            <Position>
              <LatitudeDegrees>42.9270009510219097137451171875</LatitudeDegrees>
              <LongitudeDegrees>-8.10546305961906909942626953125</LongitudeDegrees>
            </Position>
            <AltitudeMeters>381.399993896484375</AltitudeMeters>
            <DistanceMeters>56476.52737813</DistanceMeters>
          </Trackpoint>
          <Trackpoint>
            <Time>2019-07-26T12:26:13.000Z</Time>
            <Position>
              <LatitudeDegrees>42.92701612226665019989013671875</LatitudeDegrees>
              <LongitudeDegrees>-8.10555584728717803955078125</LongitudeDegrees>
            </Position>
            <AltitudeMeters>381.600006103515625</AltitudeMeters>
            <DistanceMeters>56484.275406795</DistanceMeters>
          </Trackpoint>
          <Trackpoint>
            <Time>2019-07-26T12:26:18.000Z</Time>
            <Position>
              <LatitudeDegrees>42.92706624604761600494384765625</LatitudeDegrees>
              <LongitudeDegrees>-8.10576665215194225311279296875</LongitudeDegrees>
            </Position>
            <AltitudeMeters>383</AltitudeMeters>
            <DistanceMeters>56502.338732961</DistanceMeters>
          </Trackpoint>
          <Trackpoint>
            <Time>2019-07-26T12:26:20.000Z</Time>
            <Position>
              <LatitudeDegrees>42.9270904697477817535400390625</LatitudeDegrees>
              <LongitudeDegrees>-8.10584628023207187652587890625</LongitudeDegrees>
            </Position>
            <AltitudeMeters>383.600006103515625</AltitudeMeters>
            <DistanceMeters>56509.366856334</DistanceMeters>
          </Trackpoint>
          <Trackpoint>
            <Time>2019-07-26T12:26:22.000Z</Time>
            <Position>
              <LatitudeDegrees>42.9271156154572963714599609375</LatitudeDegrees>
              <LongitudeDegrees>-8.10592490248382091522216796875</LongitudeDegrees>
            </Position>
            <AltitudeMeters>384.20001220703125</AltitudeMeters>
            <DistanceMeters>56516.358911387</DistanceMeters>
          </Trackpoint>
          <Trackpoint>
            <Time>2019-07-26T12:26:26.000Z</Time>
            <Position>
              <LatitudeDegrees>42.9271633923053741455078125</LatitudeDegrees>
              <LongitudeDegrees>-8.10609220527112483978271484375</LongitudeDegrees>
            </Position>
            <AltitudeMeters>385.20001220703125</AltitudeMeters>
            <DistanceMeters>56530.993950956</DistanceMeters>
          </Trackpoint>
          <Trackpoint>
            <Time>2019-07-26T12:26:29.000Z</Time>
            <Position>
              <LatitudeDegrees>42.92719599790871143341064453125</LatitudeDegrees>
              <LongitudeDegrees>-8.10621709562838077545166015625</LongitudeDegrees>
            </Position>
            <AltitudeMeters>385.79998779296875</AltitudeMeters>
            <DistanceMeters>56541.799453647</DistanceMeters>
          </Trackpoint>
          <Trackpoint>
            <Time>2019-07-26T12:26:34.000Z</Time>
            <Position>
              <LatitudeDegrees>42.9272574372589588165283203125</LatitudeDegrees>
              <LongitudeDegrees>-8.1064206920564174652099609375</LongitudeDegrees>
            </Position>
            <AltitudeMeters>386.399993896484375</AltitudeMeters>
            <DistanceMeters>56559.745670699</DistanceMeters>
          </Trackpoint>
          <Trackpoint>
            <Time>2019-07-26T12:26:38.000Z</Time>
            <Position>
              <LatitudeDegrees>42.927305884659290313720703125</LatitudeDegrees>
              <LongitudeDegrees>-8.10658338479697704315185546875</LongitudeDegrees>
            </Position>
            <AltitudeMeters>387.20001220703125</AltitudeMeters>
            <DistanceMeters>56574.059104052</DistanceMeters>
          </Trackpoint>
          <Trackpoint>
            <Time>2019-07-26T12:26:39.000Z</Time>
            <Position>
              <LatitudeDegrees>42.92731803841888904571533203125</LatitudeDegrees>
              <LongitudeDegrees>-8.1066262163221836090087890625</LongitudeDegrees>
            </Position>
            <AltitudeMeters>387.399993896484375</AltitudeMeters>
            <DistanceMeters>56577.802722441</DistanceMeters>
          </Trackpoint>
          <Trackpoint>
            <Time>2019-07-26T12:26:42.000Z</Time>
            <Position>
              <LatitudeDegrees>42.927360199391841888427734375</LatitudeDegrees>
              <LongitudeDegrees>-8.106755800545215606689453125</LongitudeDegrees>
            </Position>
            <AltitudeMeters>387.79998779296875</AltitudeMeters>
            <DistanceMeters>56589.359314958</DistanceMeters>
          </Trackpoint>
          <Trackpoint>
            <Time>2019-07-26T12:26:48.000Z</Time>
            <Position>
              <LatitudeDegrees>42.9274307750165462493896484375</LatitudeDegrees>
              <LongitudeDegrees>-8.10702812857925891876220703125</LongitudeDegrees>
            </Position>
            <AltitudeMeters>388.399993896484375</AltitudeMeters>
            <DistanceMeters>56612.902555013</DistanceMeters>
          </Trackpoint>
          <Trackpoint>
            <Time>2019-07-26T12:26:56.000Z</Time>
            <Position>
              <LatitudeDegrees>42.9275219701230525970458984375</LatitudeDegrees>
              <LongitudeDegrees>-8.1073943339288234710693359375</LongitudeDegrees>
            </Position>
            <AltitudeMeters>389.399993896484375</AltitudeMeters>
            <DistanceMeters>56644.426226317</DistanceMeters>
          </Trackpoint>
          <Trackpoint>
            <Time>2019-07-26T12:27:01.000Z</Time>
            <Position>
              <LatitudeDegrees>42.9276034422218799591064453125</LatitudeDegrees>
              <LongitudeDegrees>-8.107601702213287353515625</LongitudeDegrees>
            </Position>
            <AltitudeMeters>389.79998779296875</AltitudeMeters>
            <DistanceMeters>56663.605385943</DistanceMeters>
          </Trackpoint>
          <Trackpoint>
            <Time>2019-07-26T12:27:04.000Z</Time>
            <Position>
              <LatitudeDegrees>42.9276436753571033477783203125</LatitudeDegrees>
              <LongitudeDegrees>-8.1077218987047672271728515625</LongitudeDegrees>
            </Position>
            <AltitudeMeters>390.20001220703125</AltitudeMeters>
            <DistanceMeters>56674.37657075</DistanceMeters>
          </Trackpoint>
          <Trackpoint>
            <Time>2019-07-26T12:27:05.000Z</Time>
            <Position>
              <LatitudeDegrees>42.9276560805737972259521484375</LatitudeDegrees>
              <LongitudeDegrees>-8.10776238329708576202392578125</LongitudeDegrees>
            </Position>
            <AltitudeMeters>390.399993896484375</AltitudeMeters>
            <DistanceMeters>56677.953667103</DistanceMeters>
          </Trackpoint>
          <Trackpoint>
            <Time>2019-07-26T12:27:09.000Z</Time>
            <Position>
              <LatitudeDegrees>42.92770360596477985382080078125</LatitudeDegrees>
              <LongitudeDegrees>-8.10792029835283756256103515625</LongitudeDegrees>
            </Position>
            <AltitudeMeters>390.79998779296875</AltitudeMeters>
            <DistanceMeters>56691.867862695</DistanceMeters>
          </Trackpoint>
          <Trackpoint>
            <Time>2019-07-26T12:27:12.000Z</Time>
            <Position>
              <LatitudeDegrees>42.92773378081619739532470703125</LatitudeDegrees>
              <LongitudeDegrees>-8.108039237558841705322265625</LongitudeDegrees>
            </Position>
            <AltitudeMeters>391</AltitudeMeters>
            <DistanceMeters>56702.126347518</DistanceMeters>
          </Trackpoint>
          <Trackpoint>
            <Time>2019-07-26T12:27:14.000Z</Time>
            <Position>
              <LatitudeDegrees>42.927750460803508758544921875</LatitudeDegrees>
              <LongitudeDegrees>-8.10812045820057392120361328125</LongitudeDegrees>
            </Position>
            <AltitudeMeters>391.399993896484375</AltitudeMeters>
            <DistanceMeters>56709.000530381</DistanceMeters>
          </Trackpoint>
          <Trackpoint>
            <Time>2019-07-26T12:27:15.000Z</Time>
            <Position>
              <LatitudeDegrees>42.92775976471602916717529296875</LatitudeDegrees>
              <LongitudeDegrees>-8.10816102661192417144775390625</LongitudeDegrees>
            </Position>
            <AltitudeMeters>391.79998779296875</AltitudeMeters>
            <DistanceMeters>56712.466075313</DistanceMeters>
          </Trackpoint>
          <Trackpoint>
            <Time>2019-07-26T12:27:22.000Z</Time>
            <Position>
              <LatitudeDegrees>42.9278341121971607208251953125</LatitudeDegrees>
              <LongitudeDegrees>-8.10843042097985744476318359375</LongitudeDegrees>
            </Position>
            <AltitudeMeters>393</AltitudeMeters>
            <DistanceMeters>56735.92843858</DistanceMeters>
          </Trackpoint>
          <Trackpoint>
            <Time>2019-07-26T12:27:27.000Z</Time>
            <Position>
              <LatitudeDegrees>42.9278983175754547119140625</LatitudeDegrees>
              <LongitudeDegrees>-8.108616583049297332763671875</LongitudeDegrees>
            </Position>
            <AltitudeMeters>393.600006103515625</AltitudeMeters>
            <DistanceMeters>56752.698971098</DistanceMeters>
          </Trackpoint>
          <Trackpoint>
            <Time>2019-07-26T12:27:30.000Z</Time>
            <Position>
              <LatitudeDegrees>42.92792673222720623016357421875</LatitudeDegrees>
              <LongitudeDegrees>-8.10873292386531829833984375</LongitudeDegrees>
            </Position>
            <AltitudeMeters>394.399993896484375</AltitudeMeters>
            <DistanceMeters>56762.694408346</DistanceMeters>
          </Trackpoint>
          <Trackpoint>
            <Time>2019-07-26T12:27:35.000Z</Time>
            <Position>
              <LatitudeDegrees>42.92798188515007495880126953125</LatitudeDegrees>
              <LongitudeDegrees>-8.10892243869602680206298828125</LongitudeDegrees>
            </Position>
            <AltitudeMeters>395.399993896484375</AltitudeMeters>
            <DistanceMeters>56779.314577972</DistanceMeters>
          </Trackpoint>
          <Trackpoint>
            <Time>2019-07-26T12:27:36.000Z</Time>
            <Position>
              <LatitudeDegrees>42.92799563147127628326416015625</LatitudeDegrees>
              <LongitudeDegrees>-8.108953870832920074462890625</LongitudeDegrees>
            </Position>
            <AltitudeMeters>395.600006103515625</AltitudeMeters>
            <DistanceMeters>56782.296963812</DistanceMeters>
          </Trackpoint>
          <Trackpoint>
            <Time>2019-07-26T12:27:42.000Z</Time>
            <Position>
              <LatitudeDegrees>42.9280423186719417572021484375</LatitudeDegrees>
              <LongitudeDegrees>-8.10914154164493083953857421875</LongitudeDegrees>
            </Position>
            <AltitudeMeters>396.600006103515625</AltitudeMeters>
            <DistanceMeters>56798.450387255</DistanceMeters>
          </Trackpoint>
          <Trackpoint>
            <Time>2019-07-26T12:27:43.000Z</Time>
            <Position>
              <LatitudeDegrees>42.92804894037544727325439453125</LatitudeDegrees>
              <LongitudeDegrees>-8.10916610062122344970703125</LongitudeDegrees>
            </Position>
            <AltitudeMeters>396.79998779296875</AltitudeMeters>
            <DistanceMeters>56800.583731701</DistanceMeters>
          </Trackpoint>
          <Trackpoint>
            <Time>2019-07-26T12:27:48.000Z</Time>
            <Position>
              <LatitudeDegrees>42.9280936159193515777587890625</LatitudeDegrees>
              <LongitudeDegrees>-8.109336756169795989990234375</LongitudeDegrees>
            </Position>
            <AltitudeMeters>397.600006103515625</AltitudeMeters>
            <DistanceMeters>56815.354197059</DistanceMeters>
          </Trackpoint>
          <Trackpoint>
            <Time>2019-07-26T12:27:49.000Z</Time>
            <Position>
              <LatitudeDegrees>42.92810308746993541717529296875</LatitudeDegrees>
              <LongitudeDegrees>-8.10937506146728992462158203125</LongitudeDegrees>
            </Position>
            <AltitudeMeters>397.79998779296875</AltitudeMeters>
            <DistanceMeters>56818.64876105</DistanceMeters>
          </Trackpoint>
          <Trackpoint>
            <Time>2019-07-26T12:27:54.000Z</Time>
            <Position>
              <LatitudeDegrees>42.9281221143901348114013671875</LatitudeDegrees>
              <LongitudeDegrees>-8.1095692701637744903564453125</LongitudeDegrees>
            </Position>
            <AltitudeMeters>398.79998779296875</AltitudeMeters>
            <DistanceMeters>56834.617208019</DistanceMeters>
          </Trackpoint>
          <Trackpoint>
            <Time>2019-07-26T12:27:56.000Z</Time>
            <Position>
              <LatitudeDegrees>42.92812840081751346588134765625</LatitudeDegrees>
              <LongitudeDegrees>-8.10965786688029766082763671875</LongitudeDegrees>
            </Position>
            <AltitudeMeters>399.20001220703125</AltitudeMeters>
            <DistanceMeters>56841.87167461</DistanceMeters>
          </Trackpoint>
          <Trackpoint>
            <Time>2019-07-26T12:27:59.000Z</Time>
            <Position>
              <LatitudeDegrees>42.9281392134726047515869140625</LatitudeDegrees>
              <LongitudeDegrees>-8.10979348607361316680908203125</LongitudeDegrees>
            </Position>
            <AltitudeMeters>400</AltitudeMeters>
            <DistanceMeters>56852.989800191</DistanceMeters>
          </Trackpoint>
          <Trackpoint>
            <Time>2019-07-26T12:28:03.000Z</Time>
            <Position>
              <LatitudeDegrees>42.92813980020582675933837890625</LatitudeDegrees>
              <LongitudeDegrees>-8.1099742837250232696533203125</LongitudeDegrees>
            </Position>
            <AltitudeMeters>401</AltitudeMeters>
            <DistanceMeters>56867.724151139</DistanceMeters>
          </Trackpoint>
          <Trackpoint>
            <Time>2019-07-26T12:28:04.000Z</Time>
            <Position>
              <LatitudeDegrees>42.9281368665397167205810546875</LatitudeDegrees>
              <LongitudeDegrees>-8.1100192107260227203369140625</LongitudeDegrees>
            </Position>
            <AltitudeMeters>401.20001220703125</AltitudeMeters>
            <DistanceMeters>56871.399609527</DistanceMeters>
          </Trackpoint>
          <Trackpoint>
            <Time>2019-07-26T12:28:08.000Z</Time>
            <Position>
              <LatitudeDegrees>42.92813058011233806610107421875</LatitudeDegrees>
              <LongitudeDegrees>-8.1101868487894535064697265625</LongitudeDegrees>
            </Position>
            <AltitudeMeters>402.20001220703125</AltitudeMeters>
            <DistanceMeters>56885.079496377</DistanceMeters>
          </Trackpoint>
          <Trackpoint>
            <Time>2019-07-26T12:28:11.000Z</Time>
            <Position>
              <LatitudeDegrees>42.92812605388462543487548828125</LatitudeDegrees>
              <LongitudeDegrees>-8.11030629090964794158935546875</LongitudeDegrees>
            </Position>
            <AltitudeMeters>402.600006103515625</AltitudeMeters>
            <DistanceMeters>56894.82656949</DistanceMeters>
          </Trackpoint>
          <Trackpoint>
            <Time>2019-07-26T12:28:14.000Z</Time>
            <Position>
              <LatitudeDegrees>42.9281251318752765655517578125</LatitudeDegrees>
              <LongitudeDegrees>-8.1104255653917789459228515625</LongitudeDegrees>
            </Position>
            <AltitudeMeters>403.20001220703125</AltitudeMeters>
            <DistanceMeters>56904.547203209</DistanceMeters>
          </Trackpoint>
          <Trackpoint>
            <Time>2019-07-26T12:28:20.000Z</Time>
            <Position>
              <LatitudeDegrees>42.928116582334041595458984375</LatitudeDegrees>
              <LongitudeDegrees>-8.11063134111464023590087890625</LongitudeDegrees>
            </Position>
            <AltitudeMeters>404.399993896484375</AltitudeMeters>
            <DistanceMeters>56921.344099006</DistanceMeters>
          </Trackpoint>
          <Trackpoint>
            <Time>2019-07-26T12:28:26.000Z</Time>
            <Position>
              <LatitudeDegrees>42.928092442452907562255859375</LatitudeDegrees>
              <LongitudeDegrees>-8.11085195280611515045166015625</LongitudeDegrees>
            </Position>
            <AltitudeMeters>405.20001220703125</AltitudeMeters>
            <DistanceMeters>56939.522538089</DistanceMeters>
          </Trackpoint>
          <Trackpoint>
            <Time>2019-07-26T12:28:27.000Z</Time>
            <Position>
              <LatitudeDegrees>42.928081043064594268798828125</LatitudeDegrees>
              <LongitudeDegrees>-8.11088514514267444610595703125</LongitudeDegrees>
            </Position>
            <AltitudeMeters>405.399993896484375</AltitudeMeters>
            <DistanceMeters>56942.510973399</DistanceMeters>
          </Trackpoint>
          <Trackpoint>
            <Time>2019-07-26T12:28:32.000Z</Time>
            <Position>
              <LatitudeDegrees>42.9280255548655986785888671875</LatitudeDegrees>
              <LongitudeDegrees>-8.11106451787054538726806640625</LongitudeDegrees>
            </Position>
            <AltitudeMeters>406.600006103515625</AltitudeMeters>
            <DistanceMeters>56958.380150185</DistanceMeters>
          </Trackpoint>
          <Trackpoint>
            <Time>2019-07-26T12:28:33.000Z</Time>
            <Position>
              <LatitudeDegrees>42.928011305630207061767578125</LatitudeDegrees>
              <LongitudeDegrees>-8.111099302768707275390625</LongitudeDegrees>
            </Position>
            <AltitudeMeters>406.79998779296875</AltitudeMeters>
            <DistanceMeters>56961.627784599</DistanceMeters>
          </Trackpoint>
          <Trackpoint>
            <Time>2019-07-26T12:28:35.000Z</Time>
            <Position>
              <LatitudeDegrees>42.9279787838459014892578125</LatitudeDegrees>
              <LongitudeDegrees>-8.111161999404430389404296875</LongitudeDegrees>
            </Position>
            <AltitudeMeters>407.600006103515625</AltitudeMeters>
            <DistanceMeters>56967.889461045</DistanceMeters>
          </Trackpoint>
          <Trackpoint>
            <Time>2019-07-26T12:28:38.000Z</Time>
            <Position>
              <LatitudeDegrees>42.92794215492904186248779296875</LatitudeDegrees>
              <LongitudeDegrees>-8.11124456115067005157470703125</LongitudeDegrees>
            </Position>
            <AltitudeMeters>408.79998779296875</AltitudeMeters>
            <DistanceMeters>56975.756617072</DistanceMeters>
          </Trackpoint>
          <Trackpoint>
            <Time>2019-07-26T12:28:40.000Z</Time>
            <Position>
              <LatitudeDegrees>42.92792086489498615264892578125</LatitudeDegrees>
              <LongitudeDegrees>-8.111298792064189910888671875</LongitudeDegrees>
            </Position>
            <AltitudeMeters>409.20001220703125</AltitudeMeters>
            <DistanceMeters>56980.771471297</DistanceMeters>
          </Trackpoint>
          <Trackpoint>
            <Time>2019-07-26T12:28:42.000Z</Time>
            <Position>
              <LatitudeDegrees>42.92789521627128124237060546875</LatitudeDegrees>
              <LongitudeDegrees>-8.11135151423513889312744140625</LongitudeDegrees>
            </Position>
            <AltitudeMeters>409.79998779296875</AltitudeMeters>
            <DistanceMeters>56985.929242638</DistanceMeters>
          </Trackpoint>
          <Trackpoint>
            <Time>2019-07-26T12:28:47.000Z</Time>
            <Position>
              <LatitudeDegrees>42.9278394766151905059814453125</LatitudeDegrees>
              <LongitudeDegrees>-8.11147372238337993621826171875</LongitudeDegrees>
            </Position>
            <AltitudeMeters>411</AltitudeMeters>
            <DistanceMeters>56997.663406673</DistanceMeters>
          </Trackpoint>
          <Trackpoint>
            <Time>2019-07-26T12:28:51.000Z</Time>
            <Position>
              <LatitudeDegrees>42.92779463343322277069091796875</LatitudeDegrees>
              <LongitudeDegrees>-8.11157128773629665374755859375</LongitudeDegrees>
            </Position>
            <AltitudeMeters>412.20001220703125</AltitudeMeters>
            <DistanceMeters>57007.050872573</DistanceMeters>
          </Trackpoint>
          <Trackpoint>
            <Time>2019-07-26T12:28:54.000Z</Time>
            <Position>
              <LatitudeDegrees>42.927751131355762481689453125</LatitudeDegrees>
              <LongitudeDegrees>-8.11164957471191883087158203125</LongitudeDegrees>
            </Position>
            <AltitudeMeters>413.20001220703125</AltitudeMeters>
            <DistanceMeters>57015.060221052</DistanceMeters>
          </Trackpoint>
          <Trackpoint>
            <Time>2019-07-26T12:28:55.000Z</Time>
            <Position>
              <LatitudeDegrees>42.927732355892658233642578125</LatitudeDegrees>
              <LongitudeDegrees>-8.111673630774021148681640625</LongitudeDegrees>
            </Position>
            <AltitudeMeters>413.399993896484375</AltitudeMeters>
            <DistanceMeters>57017.926816518</DistanceMeters>
          </Trackpoint>
          <Trackpoint>
            <Time>2019-07-26T12:28:58.000Z</Time>
            <Position>
              <LatitudeDegrees>42.9276782087981700897216796875</LatitudeDegrees>
              <LongitudeDegrees>-8.11173976399004459381103515625</LongitudeDegrees>
            </Position>
            <AltitudeMeters>414.20001220703125</AltitudeMeters>
            <DistanceMeters>57026.012467602</DistanceMeters>
          </Trackpoint>
          <Trackpoint>
            <Time>2019-07-26T12:28:59.000Z</Time>
            <Position>
              <LatitudeDegrees>42.92766035534441471099853515625</LatitudeDegrees>
              <LongitudeDegrees>-8.11176247894763946533203125</LongitudeDegrees>
            </Position>
            <AltitudeMeters>414.600006103515625</AltitudeMeters>
            <DistanceMeters>57028.730298084</DistanceMeters>
          </Trackpoint>
          <Trackpoint>
            <Time>2019-07-26T12:29:02.000Z</Time>
            <Position>
              <LatitudeDegrees>42.9276171885430812835693359375</LatitudeDegrees>
              <LongitudeDegrees>-8.11182810924947261810302734375</LongitudeDegrees>
            </Position>
            <AltitudeMeters>415.20001220703125</AltitudeMeters>
            <DistanceMeters>57035.919745738</DistanceMeters>
          </Trackpoint>
          <Trackpoint>
            <Time>2019-07-26T12:29:05.000Z</Time>
            <Position>
              <LatitudeDegrees>42.92757569812238216400146484375</LatitudeDegrees>
              <LongitudeDegrees>-8.11191008426249027252197265625</LongitudeDegrees>
            </Position>
            <AltitudeMeters>415.600006103515625</AltitudeMeters>
            <DistanceMeters>57044.041055875</DistanceMeters>
          </Trackpoint>
          <Trackpoint>
            <Time>2019-07-26T12:29:10.000Z</Time>
            <Position>
              <LatitudeDegrees>42.92750344611704349517822265625</LatitudeDegrees>
              <LongitudeDegrees>-8.1120442785322666168212890625</LongitudeDegrees>
            </Position>
            <AltitudeMeters>416.399993896484375</AltitudeMeters>
            <DistanceMeters>57057.615913885</DistanceMeters>
          </Trackpoint>
          <Trackpoint>
            <Time>2019-07-26T12:29:11.000Z</Time>
            <Position>
              <LatitudeDegrees>42.92749053798615932464599609375</LatitudeDegrees>
              <LongitudeDegrees>-8.1120716035366058349609375</LongitudeDegrees>
            </Position>
            <AltitudeMeters>416.79998779296875</AltitudeMeters>
            <DistanceMeters>57060.266460899</DistanceMeters>
          </Trackpoint>
          <Trackpoint>
            <Time>2019-07-26T12:29:16.000Z</Time>
            <Position>
              <LatitudeDegrees>42.92740814387798309326171875</LatitudeDegrees>
              <LongitudeDegrees>-8.1121995113790035247802734375</LongitudeDegrees>
            </Position>
            <AltitudeMeters>417.600006103515625</AltitudeMeters>
            <DistanceMeters>57074.150120783</DistanceMeters>
          </Trackpoint>
          <Trackpoint>
            <Time>2019-07-26T12:29:17.000Z</Time>
            <Position>
              <LatitudeDegrees>42.92739012278616428375244140625</LatitudeDegrees>
              <LongitudeDegrees>-8.11222557909786701202392578125</LongitudeDegrees>
            </Position>
            <AltitudeMeters>418</AltitudeMeters>
            <DistanceMeters>57077.071322974</DistanceMeters>
          </Trackpoint>
          <Trackpoint>
            <Time>2019-07-26T12:29:20.000Z</Time>
            <Position>
              <LatitudeDegrees>42.92734377086162567138671875</LatitudeDegrees>
              <LongitudeDegrees>-8.1123024411499500274658203125</LongitudeDegrees>
            </Position>
            <AltitudeMeters>418.79998779296875</AltitudeMeters>
            <DistanceMeters>57085.185958975</DistanceMeters>
          </Trackpoint>
          <Trackpoint>
            <Time>2019-07-26T12:29:23.000Z</Time>
            <Position>
              <LatitudeDegrees>42.927303873002529144287109375</LatitudeDegrees>
              <LongitudeDegrees>-8.11236237175762653350830078125</LongitudeDegrees>
            </Position>
            <AltitudeMeters>420</AltitudeMeters>
            <DistanceMeters>57091.787409491</DistanceMeters>
          </Trackpoint>
          <Trackpoint>
            <Time>2019-07-26T12:29:25.000Z</Time>
            <Position>
              <LatitudeDegrees>42.9272755421698093414306640625</LatitudeDegrees>
              <LongitudeDegrees>-8.11240361072123050689697265625</LongitudeDegrees>
            </Position>
            <AltitudeMeters>420.399993896484375</AltitudeMeters>
            <DistanceMeters>57096.395960217</DistanceMeters>
          </Trackpoint>
          <Trackpoint>
            <Time>2019-07-26T12:29:28.000Z</Time>
            <Position>
              <LatitudeDegrees>42.92723220773041248321533203125</LatitudeDegrees>
              <LongitudeDegrees>-8.11246748082339763641357421875</LongitudeDegrees>
            </Position>
            <AltitudeMeters>421</AltitudeMeters>
            <DistanceMeters>57103.491853836</DistanceMeters>
          </Trackpoint>
          <Trackpoint>
            <Time>2019-07-26T12:29:31.000Z</Time>
            <Position>
              <LatitudeDegrees>42.92720974422991275787353515625</LatitudeDegrees>
              <LongitudeDegrees>-8.11252598650753498077392578125</LongitudeDegrees>
            </Position>
            <AltitudeMeters>421.79998779296875</AltitudeMeters>
            <DistanceMeters>57108.87660782</DistanceMeters>
          </Trackpoint>
          <Trackpoint>
            <Time>2019-07-26T12:29:32.000Z</Time>
            <Position>
              <LatitudeDegrees>42.9272108338773250579833984375</LatitudeDegrees>
              <LongitudeDegrees>-8.1125502102077007293701171875</LongitudeDegrees>
            </Position>
            <AltitudeMeters>422.20001220703125</AltitudeMeters>
            <DistanceMeters>57110.856267684</DistanceMeters>
          </Trackpoint>
          <Trackpoint>
            <Time>2019-07-26T12:29:35.000Z</Time>
            <Position>
              <LatitudeDegrees>42.92723371647298336029052734375</LatitudeDegrees>
              <LongitudeDegrees>-8.1125991605222225189208984375</LongitudeDegrees>
            </Position>
            <AltitudeMeters>423.20001220703125</AltitudeMeters>
            <DistanceMeters>57115.588559896</DistanceMeters>
          </Trackpoint>
          <Trackpoint>
            <Time>2019-07-26T12:29:36.000Z</Time>
            <Position>
              <LatitudeDegrees>42.92724528349936008453369140625</LatitudeDegrees>
              <LongitudeDegrees>-8.1126001663506031036376953125</LongitudeDegrees>
            </Position>
            <AltitudeMeters>423.600006103515625</AltitudeMeters>
            <DistanceMeters>57116.877564964</DistanceMeters>
          </Trackpoint>
          <Trackpoint>
            <Time>2019-07-26T12:29:38.000Z</Time>
            <Position>
              <LatitudeDegrees>42.9272715188562870025634765625</LatitudeDegrees>
              <LongitudeDegrees>-8.1126125715672969818115234375</LongitudeDegrees>
            </Position>
            <AltitudeMeters>424.20001220703125</AltitudeMeters>
            <DistanceMeters>57119.968490534</DistanceMeters>
          </Trackpoint>
          <Trackpoint>
            <Time>2019-07-26T12:29:41.000Z</Time>
            <Position>
              <LatitudeDegrees>42.92728903703391551971435546875</LatitudeDegrees>
              <LongitudeDegrees>-8.11264333315193653106689453125</LongitudeDegrees>
            </Position>
            <AltitudeMeters>425.20001220703125</AltitudeMeters>
            <DistanceMeters>57123.144430613</DistanceMeters>
          </Trackpoint>
          <Trackpoint>
            <Time>2019-07-26T12:29:42.000Z</Time>
            <Position>
              <LatitudeDegrees>42.9272939823567867279052734375</LatitudeDegrees>
              <LongitudeDegrees>-8.1126548163592815399169921875</LongitudeDegrees>
            </Position>
            <AltitudeMeters>425.399993896484375</AltitudeMeters>
            <DistanceMeters>57124.232061071</DistanceMeters>
          </Trackpoint>
          <Trackpoint>
            <Time>2019-07-26T12:29:46.000Z</Time>
            <Position>
              <LatitudeDegrees>42.9273402504622936248779296875</LatitudeDegrees>
              <LongitudeDegrees>-8.11271826736629009246826171875</LongitudeDegrees>
            </Position>
            <AltitudeMeters>426.79998779296875</AltitudeMeters>
            <DistanceMeters>57131.529964254</DistanceMeters>
          </Trackpoint>
          <Trackpoint>
            <Time>2019-07-26T12:29:49.000Z</Time>
            <Position>
              <LatitudeDegrees>42.92737084440886974334716796875</LatitudeDegrees>
              <LongitudeDegrees>-8.11277911998331546783447265625</LongitudeDegrees>
            </Position>
            <AltitudeMeters>427.600006103515625</AltitudeMeters>
            <DistanceMeters>57137.545988389</DistanceMeters>
          </Trackpoint>
          <Trackpoint>
            <Time>2019-07-26T12:29:50.000Z</Time>
            <Position>
              <LatitudeDegrees>42.92738400399684906005859375</LatitudeDegrees>
              <LongitudeDegrees>-8.11280225403606891632080078125</LongitudeDegrees>
            </Position>
            <AltitudeMeters>427.79998779296875</AltitudeMeters>
            <DistanceMeters>57139.933032217</DistanceMeters>
          </Trackpoint>
          <Trackpoint>
            <Time>2019-07-26T12:29:54.000Z</Time>
            <Position>
              <LatitudeDegrees>42.9274465329945087432861328125</LatitudeDegrees>
              <LongitudeDegrees>-8.1128817982971668243408203125</LongitudeDegrees>
            </Position>
            <AltitudeMeters>429</AltitudeMeters>
            <DistanceMeters>57149.444252213</DistanceMeters>
          </Trackpoint>
          <Trackpoint>
            <Time>2019-07-26T12:29:56.000Z</Time>
            <Position>
              <LatitudeDegrees>42.9274825751781463623046875</LatitudeDegrees>
              <LongitudeDegrees>-8.11292664147913455963134765625</LongitudeDegrees>
            </Position>
            <AltitudeMeters>429.600006103515625</AltitudeMeters>
            <DistanceMeters>57154.871600494</DistanceMeters>
          </Trackpoint>
          <Trackpoint>
            <Time>2019-07-26T12:29:59.000Z</Time>
            <Position>
              <LatitudeDegrees>42.9275565035641193389892578125</LatitudeDegrees>
              <LongitudeDegrees>-8.11297542415559291839599609375</LongitudeDegrees>
            </Position>
            <AltitudeMeters>430.20001220703125</AltitudeMeters>
            <DistanceMeters>57164.009495047</DistanceMeters>
          </Trackpoint>
          <Trackpoint>
            <Time>2019-07-26T12:30:01.000Z</Time>
            <Position>
              <LatitudeDegrees>42.92762137949466705322265625</LatitudeDegrees>
              <LongitudeDegrees>-8.11298196204006671905517578125</LongitudeDegrees>
            </Position>
            <AltitudeMeters>430.600006103515625</AltitudeMeters>
            <DistanceMeters>57171.249632737</DistanceMeters>
          </Trackpoint>
          <Trackpoint>
            <Time>2019-07-26T12:30:04.000Z</Time>
            <Position>
              <LatitudeDegrees>42.9277331940829753875732421875</LatitudeDegrees>
              <LongitudeDegrees>-8.11297483742237091064453125</LongitudeDegrees>
            </Position>
            <AltitudeMeters>431.20001220703125</AltitudeMeters>
            <DistanceMeters>57183.708646103</DistanceMeters>
          </Trackpoint>
          <Trackpoint>
            <Time>2019-07-26T12:30:08.000Z</Time>
            <Position>
              <LatitudeDegrees>42.92787526734173297882080078125</LatitudeDegrees>
              <LongitudeDegrees>-8.11300224624574184417724609375</LongitudeDegrees>
            </Position>
            <AltitudeMeters>432</AltitudeMeters>
            <DistanceMeters>57199.678789468</DistanceMeters>
          </Trackpoint>
          <Trackpoint>
            <Time>2019-07-26T12:30:12.000Z</Time>
            <Position>
              <LatitudeDegrees>42.9279749281704425811767578125</LatitudeDegrees>
              <LongitudeDegrees>-8.11315362341701984405517578125</LongitudeDegrees>
            </Position>
            <AltitudeMeters>432.20001220703125</AltitudeMeters>
            <DistanceMeters>57216.269049563</DistanceMeters>
          </Trackpoint>
          <Trackpoint>
            <Time>2019-07-26T12:30:13.000Z</Time>
            <Position>
              <LatitudeDegrees>42.9280081205070018768310546875</LatitudeDegrees>
              <LongitudeDegrees>-8.11319100670516490936279296875</LongitudeDegrees>
            </Position>
            <AltitudeMeters>432.20001220703125</AltitudeMeters>
            <DistanceMeters>57221.057302281</DistanceMeters>
          </Trackpoint>
          <Trackpoint>
            <Time>2019-07-26T12:30:16.000Z</Time>
            <Position>
              <LatitudeDegrees>42.9281284846365451812744140625</LatitudeDegrees>
              <LongitudeDegrees>-8.11331011354923248291015625</LongitudeDegrees>
            </Position>
            <AltitudeMeters>432.399993896484375</AltitudeMeters>
            <DistanceMeters>57237.600686362</DistanceMeters>
          </Trackpoint>
          <Trackpoint>
            <Time>2019-07-26T12:30:18.000Z</Time>
            <Position>
              <LatitudeDegrees>42.92822831310331821441650390625</LatitudeDegrees>
              <LongitudeDegrees>-8.1133992969989776611328125</LongitudeDegrees>
            </Position>
            <AltitudeMeters>432.399993896484375</AltitudeMeters>
            <DistanceMeters>57250.877588194</DistanceMeters>
          </Trackpoint>
          <Trackpoint>
            <Time>2019-07-26T12:30:21.000Z</Time>
            <Position>
              <LatitudeDegrees>42.92839963920414447784423828125</LatitudeDegrees>
              <LongitudeDegrees>-8.11358311213552951812744140625</LongitudeDegrees>
            </Position>
            <AltitudeMeters>432.399993896484375</AltitudeMeters>
            <DistanceMeters>57275.126908761</DistanceMeters>
          </Trackpoint>
          <Trackpoint>
            <Time>2019-07-26T12:30:22.000Z</Time>
            <Position>
              <LatitudeDegrees>42.92846032418310642242431640625</LatitudeDegrees>
              <LongitudeDegrees>-8.11366458423435688018798828125</LongitudeDegrees>
            </Position>
            <AltitudeMeters>432.20001220703125</AltitudeMeters>
            <DistanceMeters>57284.598169469</DistanceMeters>
          </Trackpoint>
          <Trackpoint>
            <Time>2019-07-26T12:30:24.000Z</Time>
            <Position>
              <LatitudeDegrees>42.92856979183852672576904296875</LatitudeDegrees>
              <LongitudeDegrees>-8.11386826448142528533935546875</LongitudeDegrees>
            </Position>
            <AltitudeMeters>432</AltitudeMeters>
            <DistanceMeters>57305.188728449</DistanceMeters>
          </Trackpoint>
          <Trackpoint>
            <Time>2019-07-26T12:30:26.000Z</Time>
            <Position>
              <LatitudeDegrees>42.92865243740379810333251953125</LatitudeDegrees>
              <LongitudeDegrees>-8.114122487604618072509765625</LongitudeDegrees>
            </Position>
            <AltitudeMeters>431.399993896484375</AltitudeMeters>
            <DistanceMeters>57327.856932391</DistanceMeters>
          </Trackpoint>
          <Trackpoint>
            <Time>2019-07-26T12:30:27.000Z</Time>
            <Position>
              <LatitudeDegrees>42.928682863712310791015625</LatitudeDegrees>
              <LongitudeDegrees>-8.1142644770443439483642578125</LongitudeDegrees>
            </Position>
            <AltitudeMeters>431.399993896484375</AltitudeMeters>
            <DistanceMeters>57339.91372179</DistanceMeters>
          </Trackpoint>
          <Trackpoint>
            <Time>2019-07-26T12:30:28.000Z</Time>
            <Position>
              <LatitudeDegrees>42.92871178127825260162353515625</LatitudeDegrees>
              <LongitudeDegrees>-8.11441023834049701690673828125</LongitudeDegrees>
            </Position>
            <AltitudeMeters>431.20001220703125</AltitudeMeters>
            <DistanceMeters>57352.22069023</DistanceMeters>
          </Trackpoint>
          <Trackpoint>
            <Time>2019-07-26T12:30:29.000Z</Time>
            <Position>
              <LatitudeDegrees>42.92874120175838470458984375</LatitudeDegrees>
              <LongitudeDegrees>-8.114557676017284393310546875</LongitudeDegrees>
            </Position>
            <AltitudeMeters>430.399993896484375</AltitudeMeters>
            <DistanceMeters>57364.673903986</DistanceMeters>
          </Trackpoint>
          <Trackpoint>
            <Time>2019-07-26T12:30:30.000Z</Time>
            <Position>
              <LatitudeDegrees>42.92876844294369220733642578125</LatitudeDegrees>
              <LongitudeDegrees>-8.11471131630241870880126953125</LongitudeDegrees>
            </Position>
            <AltitudeMeters>429.79998779296875</AltitudeMeters>
            <DistanceMeters>57377.5569473</DistanceMeters>
          </Trackpoint>
          <Trackpoint>
            <Time>2019-07-26T12:30:31.000Z</Time>
            <Position>
              <LatitudeDegrees>42.92879677377641201019287109375</LatitudeDegrees>
              <LongitudeDegrees>-8.11486772261559963226318359375</LongitudeDegrees>
            </Position>
            <AltitudeMeters>429.20001220703125</AltitudeMeters>
            <DistanceMeters>57390.687149868</DistanceMeters>
          </Trackpoint>
          <Trackpoint>
            <Time>2019-07-26T12:30:32.000Z</Time>
            <Position>
              <LatitudeDegrees>42.928827702999114990234375</LatitudeDegrees>
              <LongitudeDegrees>-8.11502999626100063323974609375</LongitudeDegrees>
            </Position>
            <AltitudeMeters>428.600006103515625</AltitudeMeters>
            <DistanceMeters>57404.351846012</DistanceMeters>
          </Trackpoint>
          <Trackpoint>
            <Time>2019-07-26T12:30:34.000Z</Time>
            <Position>
              <LatitudeDegrees>42.9288999550044536590576171875</LatitudeDegrees>
              <LongitudeDegrees>-8.11536066234111785888671875</LongitudeDegrees>
            </Position>
            <AltitudeMeters>427.20001220703125</AltitudeMeters>
            <DistanceMeters>57432.47397422</DistanceMeters>
          </Trackpoint>
          <Trackpoint>
            <Time>2019-07-26T12:30:35.000Z</Time>
            <Position>
              <LatitudeDegrees>42.9289297945797443389892578125</LatitudeDegrees>
              <LongitudeDegrees>-8.1155343353748321533203125</LongitudeDegrees>
            </Position>
            <AltitudeMeters>425.600006103515625</AltitudeMeters>
            <DistanceMeters>57447.012129854</DistanceMeters>
          </Trackpoint>
          <Trackpoint>
            <Time>2019-07-26T12:30:36.000Z</Time>
            <Position>
              <LatitudeDegrees>42.9289643280208110809326171875</LatitudeDegrees>
              <LongitudeDegrees>-8.11571312136948108673095703125</LongitudeDegrees>
            </Position>
            <AltitudeMeters>424.399993896484375</AltitudeMeters>
            <DistanceMeters>57462.08098191</DistanceMeters>
          </Trackpoint>
          <Trackpoint>
            <Time>2019-07-26T12:30:37.000Z</Time>
            <Position>
              <LatitudeDegrees>42.92900280095636844635009765625</LatitudeDegrees>
              <LongitudeDegrees>-8.1158912368118762969970703125</LongitudeDegrees>
            </Position>
            <AltitudeMeters>423.399993896484375</AltitudeMeters>
            <DistanceMeters>57477.215011741</DistanceMeters>
          </Trackpoint>
          <Trackpoint>
            <Time>2019-07-26T12:30:38.000Z</Time>
            <Position>
              <LatitudeDegrees>42.92904286645352840423583984375</LatitudeDegrees>
              <LongitudeDegrees>-8.11607387848198413848876953125</LongitudeDegrees>
            </Position>
            <AltitudeMeters>421.79998779296875</AltitudeMeters>
            <DistanceMeters>57492.752969258</DistanceMeters>
          </Trackpoint>
          <Trackpoint>
            <Time>2019-07-26T12:30:39.000Z</Time>
            <Position>
              <LatitudeDegrees>42.92907639406621456146240234375</LatitudeDegrees>
              <LongitudeDegrees>-8.11626012437045574188232421875</LongitudeDegrees>
            </Position>
            <AltitudeMeters>420.399993896484375</AltitudeMeters>
            <DistanceMeters>57508.383058449</DistanceMeters>
          </Trackpoint>
          <Trackpoint>
            <Time>2019-07-26T12:30:40.000Z</Time>
            <Position>
              <LatitudeDegrees>42.92911293916404247283935546875</LatitudeDegrees>
              <LongitudeDegrees>-8.11643932946026325225830078125</LongitudeDegrees>
            </Position>
            <AltitudeMeters>419.20001220703125</AltitudeMeters>
            <DistanceMeters>57523.543319187</DistanceMeters>
          </Trackpoint>
          <Trackpoint>
            <Time>2019-07-26T12:30:41.000Z</Time>
            <Position>
              <LatitudeDegrees>42.929147221148014068603515625</LatitudeDegrees>
              <LongitudeDegrees>-8.11661534942686557769775390625</LongitudeDegrees>
            </Position>
            <AltitudeMeters>417.79998779296875</AltitudeMeters>
            <DistanceMeters>57538.386966489</DistanceMeters>
          </Trackpoint>
          <Trackpoint>
            <Time>2019-07-26T12:30:42.000Z</Time>
            <Position>
              <LatitudeDegrees>42.9291750490665435791015625</LatitudeDegrees>
              <LongitudeDegrees>-8.116791285574436187744140625</LongitudeDegrees>
            </Position>
            <AltitudeMeters>416.600006103515625</AltitudeMeters>
            <DistanceMeters>57553.05559497</DistanceMeters>
          </Trackpoint>
          <Trackpoint>
            <Time>2019-07-26T12:30:43.000Z</Time>
            <Position>
              <LatitudeDegrees>42.9292030446231365203857421875</LatitudeDegrees>
              <LongitudeDegrees>-8.116968311369419097900390625</LongitudeDegrees>
            </Position>
            <AltitudeMeters>415.399993896484375</AltitudeMeters>
            <DistanceMeters>57567.814745828</DistanceMeters>
          </Trackpoint>
          <Trackpoint>
            <Time>2019-07-26T12:30:44.000Z</Time>
            <Position>
              <LatitudeDegrees>42.92923296801745891571044921875</LatitudeDegrees>
              <LongitudeDegrees>-8.1171463429927825927734375</LongitudeDegrees>
            </Position>
            <AltitudeMeters>414.20001220703125</AltitudeMeters>
            <DistanceMeters>57582.700613148</DistanceMeters>
          </Trackpoint>
          <Trackpoint>
            <Time>2019-07-26T12:30:45.000Z</Time>
            <Position>
              <LatitudeDegrees>42.9292593710124492645263671875</LatitudeDegrees>
              <LongitudeDegrees>-8.1173245422542095184326171875</LongitudeDegrees>
            </Position>
            <AltitudeMeters>413</AltitudeMeters>
            <DistanceMeters>57597.517164313</DistanceMeters>
          </Trackpoint>
          <Trackpoint>
            <Time>2019-07-26T12:30:46.000Z</Time>
            <Position>
              <LatitudeDegrees>42.9292788170278072357177734375</LatitudeDegrees>
              <LongitudeDegrees>-8.11748723499476909637451171875</LongitudeDegrees>
            </Position>
            <AltitudeMeters>412</AltitudeMeters>
            <DistanceMeters>57610.951266732</DistanceMeters>
          </Trackpoint>
          <Trackpoint>
            <Time>2019-07-26T12:30:47.000Z</Time>
            <Position>
              <LatitudeDegrees>42.92930488474667072296142578125</LatitudeDegrees>
              <LongitudeDegrees>-8.1176618300378322601318359375</LongitudeDegrees>
            </Position>
            <AltitudeMeters>410.600006103515625</AltitudeMeters>
            <DistanceMeters>57625.472642188</DistanceMeters>
          </Trackpoint>
          <Trackpoint>
            <Time>2019-07-26T12:30:48.000Z</Time>
            <Position>
              <LatitudeDegrees>42.9293321259319782257080078125</LatitudeDegrees>
              <LongitudeDegrees>-8.11783575452864170074462890625</LongitudeDegrees>
            </Position>
            <AltitudeMeters>409.20001220703125</AltitudeMeters>
            <DistanceMeters>57639.96725355</DistanceMeters>
          </Trackpoint>
          <Trackpoint>
            <Time>2019-07-26T12:30:49.000Z</Time>
            <Position>
              <LatitudeDegrees>42.9293552599847316741943359375</LatitudeDegrees>
              <LongitudeDegrees>-8.11801135540008544921875</LongitudeDegrees>
            </Position>
            <AltitudeMeters>407.79998779296875</AltitudeMeters>
            <DistanceMeters>57654.50789349</DistanceMeters>
          </Trackpoint>
          <Trackpoint>
            <Time>2019-07-26T12:30:50.000Z</Time>
            <Position>
              <LatitudeDegrees>42.92937696911394596099853515625</LatitudeDegrees>
              <LongitudeDegrees>-8.11818259768187999725341796875</LongitudeDegrees>
            </Position>
            <AltitudeMeters>406.600006103515625</AltitudeMeters>
            <DistanceMeters>57668.670699993</DistanceMeters>
          </Trackpoint>
          <Trackpoint>
            <Time>2019-07-26T12:30:51.000Z</Time>
            <Position>
              <LatitudeDegrees>42.92939976789057254791259765625</LatitudeDegrees>
              <LongitudeDegrees>-8.11835476197302341461181640625</LongitudeDegrees>
            </Position>
            <AltitudeMeters>405.399993896484375</AltitudeMeters>
            <DistanceMeters>57682.92850771</DistanceMeters>
          </Trackpoint>
          <Trackpoint>
            <Time>2019-07-26T12:30:52.000Z</Time>
            <Position>
              <LatitudeDegrees>42.92942122556269168853759765625</LatitudeDegrees>
              <LongitudeDegrees>-8.1185194663703441619873046875</LongitudeDegrees>
            </Position>
            <AltitudeMeters>404.79998779296875</AltitudeMeters>
            <DistanceMeters>57696.562109345</DistanceMeters>
          </Trackpoint>
          <Trackpoint>
            <Time>2019-07-26T12:30:53.000Z</Time>
            <Position>
              <LatitudeDegrees>42.92944486252963542938232421875</LatitudeDegrees>
              <LongitudeDegrees>-8.11867930926382541656494140625</LongitudeDegrees>
            </Position>
            <AltitudeMeters>403.600006103515625</AltitudeMeters>
            <DistanceMeters>57709.851587705</DistanceMeters>
          </Trackpoint>
          <Trackpoint>
            <Time>2019-07-26T12:30:55.000Z</Time>
            <Position>
              <LatitudeDegrees>42.9294716008007526397705078125</LatitudeDegrees>
              <LongitudeDegrees>-8.1189972348511219024658203125</LongitudeDegrees>
            </Position>
            <AltitudeMeters>401.600006103515625</AltitudeMeters>
            <DistanceMeters>57735.931184285</DistanceMeters>
          </Trackpoint>
          <Trackpoint>
            <Time>2019-07-26T12:30:56.000Z</Time>
            <Position>
              <LatitudeDegrees>42.9294783063232898712158203125</LatitudeDegrees>
              <LongitudeDegrees>-8.11914534308016300201416015625</LongitudeDegrees>
            </Position>
            <AltitudeMeters>400.399993896484375</AltitudeMeters>
            <DistanceMeters>57748.024617134</DistanceMeters>
          </Trackpoint>
          <Trackpoint>
            <Time>2019-07-26T12:30:57.000Z</Time>
            <Position>
              <LatitudeDegrees>42.92948241345584392547607421875</LatitudeDegrees>
              <LongitudeDegrees>-8.11928884126245975494384765625</LongitudeDegrees>
            </Position>
            <AltitudeMeters>399.399993896484375</AltitudeMeters>
            <DistanceMeters>57759.727572719</DistanceMeters>
          </Trackpoint>
          <Trackpoint>
            <Time>2019-07-26T12:30:58.000Z</Time>
            <Position>
              <LatitudeDegrees>42.9294830001890659332275390625</LatitudeDegrees>
              <LongitudeDegrees>-8.11942865140736103057861328125</LongitudeDegrees>
            </Position>
            <AltitudeMeters>398.399993896484375</AltitudeMeters>
            <DistanceMeters>57771.12127181</DistanceMeters>
          </Trackpoint>
          <Trackpoint>
            <Time>2019-07-26T12:30:59.000Z</Time>
            <Position>
              <LatitudeDegrees>42.92948023416101932525634765625</LatitudeDegrees>
              <LongitudeDegrees>-8.1195618398487567901611328125</LongitudeDegrees>
            </Position>
            <AltitudeMeters>397.20001220703125</AltitudeMeters>
            <DistanceMeters>57781.980127099</DistanceMeters>
          </Trackpoint>
          <Trackpoint>
            <Time>2019-07-26T12:31:00.000Z</Time>
            <Position>
              <LatitudeDegrees>42.9294816590845584869384765625</LatitudeDegrees>
              <LongitudeDegrees>-8.1196892447769641876220703125</LongitudeDegrees>
            </Position>
            <AltitudeMeters>396</AltitudeMeters>
            <DistanceMeters>57792.363725355</DistanceMeters>
          </Trackpoint>
          <Trackpoint>
            <Time>2019-07-26T12:31:01.000Z</Time>
            <Position>
              <LatitudeDegrees>42.92949649505317211151123046875</LatitudeDegrees>
              <LongitudeDegrees>-8.1198039092123508453369140625</LongitudeDegrees>
            </Position>
            <AltitudeMeters>395</AltitudeMeters>
            <DistanceMeters>57801.852607915</DistanceMeters>
          </Trackpoint>
          <Trackpoint>
            <Time>2019-07-26T12:31:02.000Z</Time>
            <Position>
              <LatitudeDegrees>42.92951459996402263641357421875</LatitudeDegrees>
              <LongitudeDegrees>-8.1199111975729465484619140625</LongitudeDegrees>
            </Position>
            <AltitudeMeters>394.20001220703125</AltitudeMeters>
            <DistanceMeters>57810.824961647</DistanceMeters>
          </Trackpoint>
          <Trackpoint>
            <Time>2019-07-26T12:31:03.000Z</Time>
            <Position>
              <LatitudeDegrees>42.9295249097049236297607421875</LatitudeDegrees>
              <LongitudeDegrees>-8.120015300810337066650390625</LongitudeDegrees>
            </Position>
            <AltitudeMeters>393.399993896484375</AltitudeMeters>
            <DistanceMeters>57819.386335981</DistanceMeters>
          </Trackpoint>
          <Trackpoint>
            <Time>2019-07-26T12:31:04.000Z</Time>
            <Position>
              <LatitudeDegrees>42.9295232333242893218994140625</LatitudeDegrees>
              <LongitudeDegrees>-8.1201120279729366302490234375</LongitudeDegrees>
            </Position>
            <AltitudeMeters>392</AltitudeMeters>
            <DistanceMeters>57827.271835737</DistanceMeters>
          </Trackpoint>
          <Trackpoint>
            <Time>2019-07-26T12:31:05.000Z</Time>
            <Position>
              <LatitudeDegrees>42.9295114986598491668701171875</LatitudeDegrees>
              <LongitudeDegrees>-8.120200373232364654541015625</LongitudeDegrees>
            </Position>
            <AltitudeMeters>389.600006103515625</AltitudeMeters>
            <DistanceMeters>57834.588892743</DistanceMeters>
          </Trackpoint>
          <Trackpoint>
            <Time>2019-07-26T12:31:06.000Z</Time>
            <Position>
              <LatitudeDegrees>42.9294850118458271026611328125</LatitudeDegrees>
              <LongitudeDegrees>-8.12026399187743663787841796875</LongitudeDegrees>
            </Position>
            <AltitudeMeters>388.600006103515625</AltitudeMeters>
            <DistanceMeters>57840.552150329</DistanceMeters>
          </Trackpoint>
          <Trackpoint>
            <Time>2019-07-26T12:31:08.000Z</Time>
            <Position>
              <LatitudeDegrees>42.92945140041410923004150390625</LatitudeDegrees>
              <LongitudeDegrees>-8.1203462183475494384765625</LongitudeDegrees>
            </Position>
            <AltitudeMeters>386.79998779296875</AltitudeMeters>
            <DistanceMeters>57848.226991607</DistanceMeters>
          </Trackpoint>
          <Trackpoint>
            <Time>2019-07-26T12:31:09.000Z</Time>
            <Position>
              <LatitudeDegrees>42.9294526576995849609375</LatitudeDegrees>
              <LongitudeDegrees>-8.12037832103669643402099609375</LongitudeDegrees>
            </Position>
            <AltitudeMeters>386.399993896484375</AltitudeMeters>
            <DistanceMeters>57850.846697335</DistanceMeters>
          </Trackpoint>
          <Trackpoint>
            <Time>2019-07-26T12:31:12.000Z</Time>
            <Position>
              <LatitudeDegrees>42.92951694689691066741943359375</LatitudeDegrees>
              <LongitudeDegrees>-8.1204620562493801116943359375</LongitudeDegrees>
            </Position>
            <AltitudeMeters>385.79998779296875</AltitudeMeters>
            <DistanceMeters>57860.734499803</DistanceMeters>
          </Trackpoint>
          <Trackpoint>
            <Time>2019-07-26T12:31:13.000Z</Time>
            <Position>
              <LatitudeDegrees>42.9295430146157741546630859375</LatitudeDegrees>
              <LongitudeDegrees>-8.12049499712884426116943359375</LongitudeDegrees>
            </Position>
            <AltitudeMeters>385.600006103515625</AltitudeMeters>
            <DistanceMeters>57864.686971466</DistanceMeters>
          </Trackpoint>
          <Trackpoint>
            <Time>2019-07-26T12:31:16.000Z</Time>
            <Position>
              <LatitudeDegrees>42.92962255887687206268310546875</LatitudeDegrees>
              <LongitudeDegrees>-8.12060362659394741058349609375</LongitudeDegrees>
            </Position>
            <AltitudeMeters>385</AltitudeMeters>
            <DistanceMeters>57877.207079173</DistanceMeters>
          </Trackpoint>
          <Trackpoint>
            <Time>2019-07-26T12:31:18.000Z</Time>
            <Position>
              <LatitudeDegrees>42.92965315282344818115234375</LatitudeDegrees>
              <LongitudeDegrees>-8.1206779740750789642333984375</LongitudeDegrees>
            </Position>
            <AltitudeMeters>385</AltitudeMeters>
            <DistanceMeters>57884.157684109</DistanceMeters>
          </Trackpoint>
          <Trackpoint>
            <Time>2019-07-26T12:31:20.000Z</Time>
            <Position>
              <LatitudeDegrees>42.9296855069696903228759765625</LatitudeDegrees>
              <LongitudeDegrees>-8.1207591108977794647216796875</LongitudeDegrees>
            </Position>
            <AltitudeMeters>385</AltitudeMeters>
            <DistanceMeters>57891.687014751</DistanceMeters>
          </Trackpoint>
          <Trackpoint>
            <Time>2019-07-26T12:31:23.000Z</Time>
            <Position>
              <LatitudeDegrees>42.92971073649823665618896484375</LatitudeDegrees>
              <LongitudeDegrees>-8.1208992563188076019287109375</LongitudeDegrees>
            </Position>
            <AltitudeMeters>385</AltitudeMeters>
            <DistanceMeters>57903.448082346</DistanceMeters>
          </Trackpoint>
          <Trackpoint>
            <Time>2019-07-26T12:31:24.000Z</Time>
            <Position>
              <LatitudeDegrees>42.92972163297235965728759765625</LatitudeDegrees>
              <LongitudeDegrees>-8.12094728462398052215576171875</LongitudeDegrees>
            </Position>
            <AltitudeMeters>385</AltitudeMeters>
            <DistanceMeters>57907.54636762</DistanceMeters>
          </Trackpoint>
          <Trackpoint>
            <Time>2019-07-26T12:31:27.000Z</Time>
            <Position>
              <LatitudeDegrees>42.92976907454431056976318359375</LatitudeDegrees>
              <LongitudeDegrees>-8.1211186945438385009765625</LongitudeDegrees>
            </Position>
            <AltitudeMeters>385</AltitudeMeters>
            <DistanceMeters>57922.480081087</DistanceMeters>
          </Trackpoint>
          <Trackpoint>
            <Time>2019-07-26T12:31:32.000Z</Time>
            <Position>
              <LatitudeDegrees>42.92987083084881305694580078125</LatitudeDegrees>
              <LongitudeDegrees>-8.121502585709095001220703125</LongitudeDegrees>
            </Position>
            <AltitudeMeters>385</AltitudeMeters>
            <DistanceMeters>57955.751917998</DistanceMeters>
          </Trackpoint>
          <Trackpoint>
            <Time>2019-07-26T12:31:33.000Z</Time>
            <Position>
              <LatitudeDegrees>42.929884828627109527587890625</LatitudeDegrees>
              <LongitudeDegrees>-8.12160409055650234222412109375</LongitudeDegrees>
            </Position>
            <AltitudeMeters>384.79998779296875</AltitudeMeters>
            <DistanceMeters>57964.169161002</DistanceMeters>
          </Trackpoint>
          <Trackpoint>
            <Time>2019-07-26T12:31:35.000Z</Time>
            <Position>
              <LatitudeDegrees>42.92991735041141510009765625</LatitudeDegrees>
              <LongitudeDegrees>-8.12184758484363555908203125</LongitudeDegrees>
            </Position>
            <AltitudeMeters>384.600006103515625</AltitudeMeters>
            <DistanceMeters>57984.339910226</DistanceMeters>
          </Trackpoint>
          <Trackpoint>
            <Time>2019-07-26T12:31:36.000Z</Time>
            <Position>
              <LatitudeDegrees>42.92993453331291675567626953125</LatitudeDegrees>
              <LongitudeDegrees>-8.12198764644563198089599609375</LongitudeDegrees>
            </Position>
            <AltitudeMeters>384.399993896484375</AltitudeMeters>
            <DistanceMeters>57995.913290194</DistanceMeters>
          </Trackpoint>
          <Trackpoint>
            <Time>2019-07-26T12:31:38.000Z</Time>
            <Position>
              <LatitudeDegrees>42.92998231016099452972412109375</LatitudeDegrees>
              <LongitudeDegrees>-8.1222532689571380615234375</LongitudeDegrees>
            </Position>
            <AltitudeMeters>383.79998779296875</AltitudeMeters>
            <DistanceMeters>58018.203486831</DistanceMeters>
          </Trackpoint>
          <Trackpoint>
            <Time>2019-07-26T12:31:39.000Z</Time>
            <Position>
              <LatitudeDegrees>42.93001122772693634033203125</LatitudeDegrees>
              <LongitudeDegrees>-8.12236122786998748779296875</LongitudeDegrees>
            </Position>
            <AltitudeMeters>383.20001220703125</AltitudeMeters>
            <DistanceMeters>58027.571694395</DistanceMeters>
          </Trackpoint>
          <Trackpoint>
            <Time>2019-07-26T12:31:40.000Z</Time>
            <Position>
              <LatitudeDegrees>42.93004048056900501251220703125</LatitudeDegrees>
              <LongitudeDegrees>-8.122445046901702880859375</LongitudeDegrees>
            </Position>
            <AltitudeMeters>382.600006103515625</AltitudeMeters>
            <DistanceMeters>58035.13930596</DistanceMeters>
          </Trackpoint>
          <Trackpoint>
            <Time>2019-07-26T12:31:41.000Z</Time>
            <Position>
              <LatitudeDegrees>42.9300704039633274078369140625</LatitudeDegrees>
              <LongitudeDegrees>-8.12251972965896129608154296875</LongitudeDegrees>
            </Position>
            <AltitudeMeters>382</AltitudeMeters>
            <DistanceMeters>58042.077557723</DistanceMeters>
          </Trackpoint>
          <Trackpoint>
            <Time>2019-07-26T12:31:43.000Z</Time>
            <Position>
              <LatitudeDegrees>42.93013083748519420623779296875</LatitudeDegrees>
              <LongitudeDegrees>-8.122656606137752532958984375</LongitudeDegrees>
            </Position>
            <AltitudeMeters>380.79998779296875</AltitudeMeters>
            <DistanceMeters>58055.103498625</DistanceMeters>
          </Trackpoint>
          <Trackpoint>
            <Time>2019-07-26T12:31:44.000Z</Time>
            <Position>
              <LatitudeDegrees>42.930149696767330169677734375</LatitudeDegrees>
              <LongitudeDegrees>-8.1227345578372478485107421875</LongitudeDegrees>
            </Position>
            <AltitudeMeters>380.20001220703125</AltitudeMeters>
            <DistanceMeters>58061.793946213</DistanceMeters>
          </Trackpoint>
          <Trackpoint>
            <Time>2019-07-26T12:31:45.000Z</Time>
            <Position>
              <LatitudeDegrees>42.93016201816499233245849609375</LatitudeDegrees>
              <LongitudeDegrees>-8.12282566912472248077392578125</LongitudeDegrees>
            </Position>
            <AltitudeMeters>379.399993896484375</AltitudeMeters>
            <DistanceMeters>58069.344235783</DistanceMeters>
          </Trackpoint>
          <Trackpoint>
            <Time>2019-07-26T12:31:47.000Z</Time>
            <Position>
              <LatitudeDegrees>42.930156402289867401123046875</LatitudeDegrees>
              <LongitudeDegrees>-8.1230587698519229888916015625</LongitudeDegrees>
            </Position>
            <AltitudeMeters>377.399993896484375</AltitudeMeters>
            <DistanceMeters>58088.350528901</DistanceMeters>
          </Trackpoint>
          <Trackpoint>
            <Time>2019-07-26T12:31:48.000Z</Time>
            <Position>
              <LatitudeDegrees>42.9301465116441249847412109375</LatitudeDegrees>
              <LongitudeDegrees>-8.123164214193820953369140625</LongitudeDegrees>
            </Position>
            <AltitudeMeters>376.20001220703125</AltitudeMeters>
            <DistanceMeters>58097.013088294</DistanceMeters>
          </Trackpoint>
          <Trackpoint>
            <Time>2019-07-26T12:31:50.000Z</Time>
            <Position>
              <LatitudeDegrees>42.9301324300467967987060546875</LatitudeDegrees>
              <LongitudeDegrees>-8.12333931215107440948486328125</LongitudeDegrees>
            </Position>
            <AltitudeMeters>374.79998779296875</AltitudeMeters>
            <DistanceMeters>58111.368099421</DistanceMeters>
          </Trackpoint>
          <Trackpoint>
            <Time>2019-07-26T12:31:51.000Z</Time>
            <Position>
              <LatitudeDegrees>42.93013016693294048309326171875</LatitudeDegrees>
              <LongitudeDegrees>-8.12342346645891666412353515625</LongitudeDegrees>
            </Position>
            <AltitudeMeters>374.399993896484375</AltitudeMeters>
            <DistanceMeters>58118.231107416</DistanceMeters>
          </Trackpoint>
          <Trackpoint>
            <Time>2019-07-26T12:31:53.000Z</Time>
            <Position>
              <LatitudeDegrees>42.93012664653360843658447265625</LatitudeDegrees>
              <LongitudeDegrees>-8.12361943535506725311279296875</LongitudeDegrees>
            </Position>
            <AltitudeMeters>373.600006103515625</AltitudeMeters>
            <DistanceMeters>58134.206338884</DistanceMeters>
          </Trackpoint>
          <Trackpoint>
            <Time>2019-07-26T12:31:55.000Z</Time>
            <Position>
              <LatitudeDegrees>42.93012765236198902130126953125</LatitudeDegrees>
              <LongitudeDegrees>-8.1238518655300140380859375</LongitudeDegrees>
            </Position>
            <AltitudeMeters>372.79998779296875</AltitudeMeters>
            <DistanceMeters>58153.148383584</DistanceMeters>
          </Trackpoint>
          <Trackpoint>
            <Time>2019-07-26T12:31:56.000Z</Time>
            <Position>
              <LatitudeDegrees>42.93013787828385829925537109375</LatitudeDegrees>
              <LongitudeDegrees>-8.12397868372499942779541015625</LongitudeDegrees>
            </Position>
            <AltitudeMeters>372.20001220703125</AltitudeMeters>
            <DistanceMeters>58163.545886899</DistanceMeters>
          </Trackpoint>
          <Trackpoint>
            <Time>2019-07-26T12:31:57.000Z</Time>
            <Position>
              <LatitudeDegrees>42.9301518760621547698974609375</LatitudeDegrees>
              <LongitudeDegrees>-8.12411195598542690277099609375</LongitudeDegrees>
            </Position>
            <AltitudeMeters>371</AltitudeMeters>
            <DistanceMeters>58174.518078073</DistanceMeters>
          </Trackpoint>
          <Trackpoint>
            <Time>2019-07-26T12:31:58.000Z</Time>
            <Position>
              <LatitudeDegrees>42.9301652871072292327880859375</LatitudeDegrees>
              <LongitudeDegrees>-8.12424791045486927032470703125</LongitudeDegrees>
            </Position>
            <AltitudeMeters>369.79998779296875</AltitudeMeters>
            <DistanceMeters>58185.697356134</DistanceMeters>
          </Trackpoint>
          <Trackpoint>
            <Time>2019-07-26T12:31:59.000Z</Time>
            <Position>
              <LatitudeDegrees>42.93018381111323833465576171875</LatitudeDegrees>
              <LongitudeDegrees>-8.12439006753265857696533203125</LongitudeDegrees>
            </Position>
            <AltitudeMeters>369.20001220703125</AltitudeMeters>
            <DistanceMeters>58197.464564478</DistanceMeters>
          </Trackpoint>
          <Trackpoint>
            <Time>2019-07-26T12:32:00.000Z</Time>
            <Position>
              <LatitudeDegrees>42.9302014969289302825927734375</LatitudeDegrees>
              <LongitudeDegrees>-8.12454177998006343841552734375</LongitudeDegrees>
            </Position>
            <AltitudeMeters>368.20001220703125</AltitudeMeters>
            <DistanceMeters>58209.983590269</DistanceMeters>
          </Trackpoint>
          <Trackpoint>
            <Time>2019-07-26T12:32:02.000Z</Time>
            <Position>
              <LatitudeDegrees>42.9302199371159076690673828125</LatitudeDegrees>
              <LongitudeDegrees>-8.12483556568622589111328125</LongitudeDegrees>
            </Position>
            <AltitudeMeters>366.600006103515625</AltitudeMeters>
            <DistanceMeters>58234.013138915</DistanceMeters>
          </Trackpoint>
          <Trackpoint>
            <Time>2019-07-26T12:32:03.000Z</Time>
            <Position>
              <LatitudeDegrees>42.93023477308452129364013671875</LatitudeDegrees>
              <LongitudeDegrees>-8.12497395090758800506591796875</LongitudeDegrees>
            </Position>
            <AltitudeMeters>365</AltitudeMeters>
            <DistanceMeters>58245.410800066</DistanceMeters>
          </Trackpoint>
          <Trackpoint>
            <Time>2019-07-26T12:32:04.000Z</Time>
            <Position>
              <LatitudeDegrees>42.93026075698435306549072265625</LatitudeDegrees>
              <LongitudeDegrees>-8.125107474625110626220703125</LongitudeDegrees>
            </Position>
            <AltitudeMeters>364.399993896484375</AltitudeMeters>
            <DistanceMeters>58256.669761525</DistanceMeters>
          </Trackpoint>
          <Trackpoint>
            <Time>2019-07-26T12:32:05.000Z</Time>
            <Position>
              <LatitudeDegrees>42.9302926920354366302490234375</LatitudeDegrees>
              <LongitudeDegrees>-8.12523194588720798492431640625</LongitudeDegrees>
            </Position>
            <AltitudeMeters>363.399993896484375</AltitudeMeters>
            <DistanceMeters>58267.418286913</DistanceMeters>
          </Trackpoint>
          <Trackpoint>
            <Time>2019-07-26T12:32:07.000Z</Time>
            <Position>
              <LatitudeDegrees>42.930372655391693115234375</LatitudeDegrees>
              <LongitudeDegrees>-8.1254325248301029205322265625</LongitudeDegrees>
            </Position>
            <AltitudeMeters>362.600006103515625</AltitudeMeters>
            <DistanceMeters>58286.029942734</DistanceMeters>
          </Trackpoint>
          <Trackpoint>
            <Time>2019-07-26T12:32:08.000Z</Time>
            <Position>
              <LatitudeDegrees>42.9304222762584686279296875</LatitudeDegrees>
              <LongitudeDegrees>-8.12551978044211864471435546875</LongitudeDegrees>
            </Position>
            <AltitudeMeters>362</AltitudeMeters>
            <DistanceMeters>58295.033441844</DistanceMeters>
          </Trackpoint>
          <Trackpoint>
            <Time>2019-07-26T12:32:09.000Z</Time>
            <Position>
              <LatitudeDegrees>42.9304801113903522491455078125</LatitudeDegrees>
              <LongitudeDegrees>-8.1256075389683246612548828125</LongitudeDegrees>
            </Position>
            <AltitudeMeters>361.600006103515625</AltitudeMeters>
            <DistanceMeters>58304.655571223</DistanceMeters>
          </Trackpoint>
          <Trackpoint>
            <Time>2019-07-26T12:32:10.000Z</Time>
            <Position>
              <LatitudeDegrees>42.93053534813225269317626953125</LatitudeDegrees>
              <LongitudeDegrees>-8.12570468522608280181884765625</LongitudeDegrees>
            </Position>
            <AltitudeMeters>360.600006103515625</AltitudeMeters>
            <DistanceMeters>58314.678975361</DistanceMeters>
          </Trackpoint>
          <Trackpoint>
            <Time>2019-07-26T12:32:11.000Z</Time>
            <Position>
              <LatitudeDegrees>42.930591590702533721923828125</LatitudeDegrees>
              <LongitudeDegrees>-8.1258087046444416046142578125</LongitudeDegrees>
            </Position>
            <AltitudeMeters>359.399993896484375</AltitudeMeters>
            <DistanceMeters>58325.21666249</DistanceMeters>
          </Trackpoint>
          <Trackpoint>
            <Time>2019-07-26T12:32:12.000Z</Time>
            <Position>
              <LatitudeDegrees>42.9306517727673053741455078125</LatitudeDegrees>
              <LongitudeDegrees>-8.12591339461505413055419921875</LongitudeDegrees>
            </Position>
            <AltitudeMeters>358.399993896484375</AltitudeMeters>
            <DistanceMeters>58336.063869323</DistanceMeters>
          </Trackpoint>
          <Trackpoint>
            <Time>2019-07-26T12:32:13.000Z</Time>
            <Position>
              <LatitudeDegrees>42.9307119548320770263671875</LatitudeDegrees>
              <LongitudeDegrees>-8.12602168880403041839599609375</LongitudeDegrees>
            </Position>
            <AltitudeMeters>357</AltitudeMeters>
            <DistanceMeters>58347.143348515</DistanceMeters>
          </Trackpoint>
          <Trackpoint>
            <Time>2019-07-26T12:32:14.000Z</Time>
            <Position>
              <LatitudeDegrees>42.93077272363007068634033203125</LatitudeDegrees>
              <LongitudeDegrees>-8.1261335872113704681396484375</LongitudeDegrees>
            </Position>
            <AltitudeMeters>355</AltitudeMeters>
            <DistanceMeters>58358.497350951</DistanceMeters>
          </Trackpoint>
          <Trackpoint>
            <Time>2019-07-26T12:32:15.000Z</Time>
            <Position>
              <LatitudeDegrees>42.93083441443741321563720703125</LatitudeDegrees>
              <LongitudeDegrees>-8.12624330632388591766357421875</LongitudeDegrees>
            </Position>
            <AltitudeMeters>353</AltitudeMeters>
            <DistanceMeters>58369.770739788</DistanceMeters>
          </Trackpoint>
          <Trackpoint>
            <Time>2019-07-26T12:32:16.000Z</Time>
            <Position>
              <LatitudeDegrees>42.93088470585644245147705078125</LatitudeDegrees>
              <LongitudeDegrees>-8.12636283226311206817626953125</LongitudeDegrees>
            </Position>
            <AltitudeMeters>351.600006103515625</AltitudeMeters>
            <DistanceMeters>58381.00521256</DistanceMeters>
          </Trackpoint>
          <Trackpoint>
            <Time>2019-07-26T12:32:17.000Z</Time>
            <Position>
              <LatitudeDegrees>42.93092108331620693206787109375</LatitudeDegrees>
              <LongitudeDegrees>-8.1264943443238735198974609375</LongitudeDegrees>
            </Position>
            <AltitudeMeters>350.20001220703125</AltitudeMeters>
            <DistanceMeters>58392.46214021</DistanceMeters>
          </Trackpoint>
          <Trackpoint>
            <Time>2019-07-26T12:32:18.000Z</Time>
            <Position>
              <LatitudeDegrees>42.9309508390724658966064453125</LatitudeDegrees>
              <LongitudeDegrees>-8.126631639897823333740234375</LongitudeDegrees>
            </Position>
            <AltitudeMeters>349</AltitudeMeters>
            <DistanceMeters>58404.130708787</DistanceMeters>
          </Trackpoint>
          <Trackpoint>
            <Time>2019-07-26T12:32:20.000Z</Time>
            <Position>
              <LatitudeDegrees>42.931003309786319732666015625</LatitudeDegrees>
              <LongitudeDegrees>-8.1268943287432193756103515625</LongitudeDegrees>
            </Position>
            <AltitudeMeters>347.399993896484375</AltitudeMeters>
            <DistanceMeters>58426.320209642</DistanceMeters>
          </Trackpoint>
          <Trackpoint>
            <Time>2019-07-26T12:32:21.000Z</Time>
            <Position>
              <LatitudeDegrees>42.931023426353931427001953125</LatitudeDegrees>
              <LongitudeDegrees>-8.1270224042236804962158203125</LongitudeDegrees>
            </Position>
            <AltitudeMeters>347</AltitudeMeters>
            <DistanceMeters>58436.994548243</DistanceMeters>
          </Trackpoint>
          <Trackpoint>
            <Time>2019-07-26T12:32:23.000Z</Time>
            <Position>
              <LatitudeDegrees>42.93105100281536579132080078125</LatitudeDegrees>
              <LongitudeDegrees>-8.12728618271648883819580078125</LongitudeDegrees>
            </Position>
            <AltitudeMeters>345.79998779296875</AltitudeMeters>
            <DistanceMeters>58458.708932222</DistanceMeters>
          </Trackpoint>
          <Trackpoint>
            <Time>2019-07-26T12:32:25.000Z</Time>
            <Position>
              <LatitudeDegrees>42.9310735501348972320556640625</LatitudeDegrees>
              <LongitudeDegrees>-8.12756647355854511260986328125</LongitudeDegrees>
            </Position>
            <AltitudeMeters>344.600006103515625</AltitudeMeters>
            <DistanceMeters>58481.68811302</DistanceMeters>
          </Trackpoint>
          <Trackpoint>
            <Time>2019-07-26T12:32:27.000Z</Time>
            <Position>
              <LatitudeDegrees>42.93106927536427974700927734375</LatitudeDegrees>
              <LongitudeDegrees>-8.12785749323666095733642578125</LongitudeDegrees>
            </Position>
            <AltitudeMeters>342.399993896484375</AltitudeMeters>
            <DistanceMeters>58505.408463632</DistanceMeters>
          </Trackpoint>
          <Trackpoint>
            <Time>2019-07-26T12:32:28.000Z</Time>
            <Position>
              <LatitudeDegrees>42.93105703778564929962158203125</LatitudeDegrees>
              <LongitudeDegrees>-8.12801490537822246551513671875</LongitudeDegrees>
            </Position>
            <AltitudeMeters>341.20001220703125</AltitudeMeters>
            <DistanceMeters>58518.308318232</DistanceMeters>
          </Trackpoint>
          <Trackpoint>
            <Time>2019-07-26T12:32:29.000Z</Time>
            <Position>
              <LatitudeDegrees>42.9310403577983379364013671875</LatitudeDegrees>
              <LongitudeDegrees>-8.128182627260684967041015625</LongitudeDegrees>
            </Position>
            <AltitudeMeters>340.20001220703125</AltitudeMeters>
            <DistanceMeters>58532.101929459</DistanceMeters>
          </Trackpoint>
          <Trackpoint>
            <Time>2019-07-26T12:32:30.000Z</Time>
            <Position>
              <LatitudeDegrees>42.931020073592662811279296875</LatitudeDegrees>
              <LongitudeDegrees>-8.1283571384847164154052734375</LongitudeDegrees>
            </Position>
            <AltitudeMeters>338.20001220703125</AltitudeMeters>
            <DistanceMeters>58546.501534151</DistanceMeters>
          </Trackpoint>
          <Trackpoint>
            <Time>2019-07-26T12:32:32.000Z</Time>
            <Position>
              <LatitudeDegrees>42.9309893958270549774169921875</LatitudeDegrees>
              <LongitudeDegrees>-8.1287212483584880828857421875</LongitudeDegrees>
            </Position>
            <AltitudeMeters>336.600006103515625</AltitudeMeters>
            <DistanceMeters>58576.369565758</DistanceMeters>
          </Trackpoint>
          <Trackpoint>
            <Time>2019-07-26T12:32:33.000Z</Time>
            <Position>
              <LatitudeDegrees>42.93097992427647113800048828125</LatitudeDegrees>
              <LongitudeDegrees>-8.1289016269147396087646484375</LongitudeDegrees>
            </Position>
            <AltitudeMeters>335.399993896484375</AltitudeMeters>
            <DistanceMeters>58591.106367937</DistanceMeters>
          </Trackpoint>
          <Trackpoint>
            <Time>2019-07-26T12:32:34.000Z</Time>
            <Position>
              <LatitudeDegrees>42.93098411522805690765380859375</LatitudeDegrees>
              <LongitudeDegrees>-8.12907286919653415679931640625</LongitudeDegrees>
            </Position>
            <AltitudeMeters>334</AltitudeMeters>
            <DistanceMeters>58605.069152417</DistanceMeters>
          </Trackpoint>
          <Trackpoint>
            <Time>2019-07-26T12:32:35.000Z</Time>
            <Position>
              <LatitudeDegrees>42.9309994541108608245849609375</LatitudeDegrees>
              <LongitudeDegrees>-8.12922810204327106475830078125</LongitudeDegrees>
            </Position>
            <AltitudeMeters>332.20001220703125</AltitudeMeters>
            <DistanceMeters>58617.833896807</DistanceMeters>
          </Trackpoint>
          <Trackpoint>
            <Time>2019-07-26T12:32:36.000Z</Time>
            <Position>
              <LatitudeDegrees>42.93102082796394824981689453125</LatitudeDegrees>
              <LongitudeDegrees>-8.12936305068433284759521484375</LongitudeDegrees>
            </Position>
            <AltitudeMeters>330.600006103515625</AltitudeMeters>
            <DistanceMeters>58629.085637639</DistanceMeters>
          </Trackpoint>
          <Trackpoint>
            <Time>2019-07-26T12:32:37.000Z</Time>
            <Position>
              <LatitudeDegrees>42.93104262091219425201416015625</LatitudeDegrees>
              <LongitudeDegrees>-8.1294783018529415130615234375</LongitudeDegrees>
            </Position>
            <AltitudeMeters>329.20001220703125</AltitudeMeters>
            <DistanceMeters>58638.785347247</DistanceMeters>
          </Trackpoint>
          <Trackpoint>
            <Time>2019-07-26T12:32:38.000Z</Time>
            <Position>
              <LatitudeDegrees>42.93105016462504863739013671875</LatitudeDegrees>
              <LongitudeDegrees>-8.12958483584225177764892578125</LongitudeDegrees>
            </Position>
            <AltitudeMeters>327</AltitudeMeters>
            <DistanceMeters>58647.507122523</DistanceMeters>
          </Trackpoint>
          <Trackpoint>
            <Time>2019-07-26T12:32:39.000Z</Time>
            <Position>
              <LatitudeDegrees>42.9310470633208751678466796875</LatitudeDegrees>
              <LongitudeDegrees>-8.129686005413532257080078125</LongitudeDegrees>
            </Position>
            <AltitudeMeters>325.600006103515625</AltitudeMeters>
            <DistanceMeters>58655.759687975</DistanceMeters>
          </Trackpoint>
          <Trackpoint>
            <Time>2019-07-26T12:32:40.000Z</Time>
            <Position>
              <LatitudeDegrees>42.9310336522758007049560546875</LatitudeDegrees>
              <LongitudeDegrees>-8.1297823973000049591064453125</LongitudeDegrees>
            </Position>
            <AltitudeMeters>324</AltitudeMeters>
            <DistanceMeters>58663.755495703</DistanceMeters>
          </Trackpoint>
          <Trackpoint>
            <Time>2019-07-26T12:32:41.000Z</Time>
            <Position>
              <LatitudeDegrees>42.931004650890827178955078125</LatitudeDegrees>
              <LongitudeDegrees>-8.12987652607262134552001953125</LongitudeDegrees>
            </Position>
            <AltitudeMeters>322.20001220703125</AltitudeMeters>
            <DistanceMeters>58672.077253705</DistanceMeters>
          </Trackpoint>
          <Trackpoint>
            <Time>2019-07-26T12:32:42.000Z</Time>
            <Position>
              <LatitudeDegrees>42.9309820197522640228271484375</LatitudeDegrees>
              <LongitudeDegrees>-8.1299728341400623321533203125</LongitudeDegrees>
            </Position>
            <AltitudeMeters>320.20001220703125</AltitudeMeters>
            <DistanceMeters>58680.319965344</DistanceMeters>
          </Trackpoint>
          <Trackpoint>
            <Time>2019-07-26T12:32:43.000Z</Time>
            <Position>
              <LatitudeDegrees>42.93095813132822513580322265625</LatitudeDegrees>
              <LongitudeDegrees>-8.1300670467317104339599609375</LongitudeDegrees>
            </Position>
            <AltitudeMeters>318</AltitudeMeters>
            <DistanceMeters>58688.444610494</DistanceMeters>
          </Trackpoint>
          <Trackpoint>
            <Time>2019-07-26T12:32:44.000Z</Time>
            <Position>
              <LatitudeDegrees>42.93093114160001277923583984375</LatitudeDegrees>
              <LongitudeDegrees>-8.13015866093337535858154296875</LongitudeDegrees>
            </Position>
            <AltitudeMeters>315.79998779296875</AltitudeMeters>
            <DistanceMeters>58696.492200708</DistanceMeters>
          </Trackpoint>
          <Trackpoint>
            <Time>2019-07-26T12:32:45.000Z</Time>
            <Position>
              <LatitudeDegrees>42.930900715291500091552734375</LatitudeDegrees>
              <LongitudeDegrees>-8.1302283145487308502197265625</LongitudeDegrees>
            </Position>
            <AltitudeMeters>314</AltitudeMeters>
            <DistanceMeters>58703.102536547</DistanceMeters>
          </Trackpoint>
          <Trackpoint>
            <Time>2019-07-26T12:32:46.000Z</Time>
            <Position>
              <LatitudeDegrees>42.9308780841529369354248046875</LatitudeDegrees>
              <LongitudeDegrees>-8.1302712298929691314697265625</LongitudeDegrees>
            </Position>
            <AltitudeMeters>312.79998779296875</AltitudeMeters>
            <DistanceMeters>58707.412393534</DistanceMeters>
          </Trackpoint>
          <Trackpoint>
            <Time>2019-07-26T12:32:48.000Z</Time>
            <Position>
              <LatitudeDegrees>42.9308435507118701934814453125</LatitudeDegrees>
              <LongitudeDegrees>-8.13032093457877635955810546875</LongitudeDegrees>
            </Position>
            <AltitudeMeters>311.20001220703125</AltitudeMeters>
            <DistanceMeters>58712.996375443</DistanceMeters>
          </Trackpoint>
          <Trackpoint>
            <Time>2019-07-26T12:32:50.000Z</Time>
            <Position>
              <LatitudeDegrees>42.93081278912723064422607421875</LatitudeDegrees>
              <LongitudeDegrees>-8.130356557667255401611328125</LongitudeDegrees>
            </Position>
            <AltitudeMeters>309.79998779296875</AltitudeMeters>
            <DistanceMeters>58717.484816213</DistanceMeters>
          </Trackpoint>
          <Trackpoint>
            <Time>2019-07-26T12:32:52.000Z</Time>
            <Position>
              <LatitudeDegrees>42.93079518713057041168212890625</LatitudeDegrees>
              <LongitudeDegrees>-8.13038581050932407379150390625</LongitudeDegrees>
            </Position>
            <AltitudeMeters>308.79998779296875</AltitudeMeters>
            <DistanceMeters>58720.56989329</DistanceMeters>
          </Trackpoint>
          <Trackpoint>
            <Time>2019-07-26T12:32:54.000Z</Time>
            <Position>
              <LatitudeDegrees>42.93078328482806682586669921875</LatitudeDegrees>
              <LongitudeDegrees>-8.13039436005055904388427734375</LongitudeDegrees>
            </Position>
            <AltitudeMeters>308.20001220703125</AltitudeMeters>
            <DistanceMeters>58722.066375485</DistanceMeters>
          </Trackpoint>
          <Trackpoint>
            <Time>2019-07-26T12:32:55.000Z</Time>
            <Position>
              <LatitudeDegrees>42.93077875860035419464111328125</LatitudeDegrees>
              <LongitudeDegrees>-8.13039201311767101287841796875</LongitudeDegrees>
            </Position>
            <AltitudeMeters>308</AltitudeMeters>
            <DistanceMeters>58722.603927758</DistanceMeters>
          </Trackpoint>
          <Trackpoint>
            <Time>2019-07-26T12:32:56.000Z</Time>
            <Position>
              <LatitudeDegrees>42.93077859096229076385498046875</LatitudeDegrees>
              <LongitudeDegrees>-8.13039100728929042816162109375</LongitudeDegrees>
            </Position>
            <AltitudeMeters>307.79998779296875</AltitudeMeters>
            <DistanceMeters>58722.738315826</DistanceMeters>
          </Trackpoint>
          <Trackpoint>
            <Time>2019-07-26T12:33:03.000Z</Time>
            <Position>
              <LatitudeDegrees>42.930761910974979400634765625</LatitudeDegrees>
              <LongitudeDegrees>-8.1304921768605709075927734375</LongitudeDegrees>
            </Position>
            <AltitudeMeters>306.600006103515625</AltitudeMeters>
            <DistanceMeters>58731.189818927</DistanceMeters>
          </Trackpoint>
          <Trackpoint>
            <Time>2019-07-26T12:33:04.000Z</Time>
            <Position>
              <LatitudeDegrees>42.93076283298432826995849609375</LatitudeDegrees>
              <LongitudeDegrees>-8.130508773028850555419921875</LongitudeDegrees>
            </Position>
            <AltitudeMeters>306.600006103515625</AltitudeMeters>
            <DistanceMeters>58732.547071886</DistanceMeters>
          </Trackpoint>
          <Trackpoint>
            <Time>2019-07-26T12:33:05.000Z</Time>
            <Position>
              <LatitudeDegrees>42.93078211136162281036376953125</LatitudeDegrees>
              <LongitudeDegrees>-8.13052042387425899505615234375</LongitudeDegrees>
            </Position>
            <AltitudeMeters>306.600006103515625</AltitudeMeters>
            <DistanceMeters>58734.894058599</DistanceMeters>
          </Trackpoint>
          <Trackpoint>
            <Time>2019-07-26T12:33:09.000Z</Time>
            <Position>
              <LatitudeDegrees>42.93089459650218486785888671875</LatitudeDegrees>
              <LongitudeDegrees>-8.13045973889529705047607421875</LongitudeDegrees>
            </Position>
            <AltitudeMeters>306.399993896484375</AltitudeMeters>
            <DistanceMeters>58748.355021192</DistanceMeters>
          </Trackpoint>
          <Trackpoint>
            <Time>2019-07-26T12:33:13.000Z</Time>
            <Position>
              <LatitudeDegrees>42.93093918822705745697021484375</LatitudeDegrees>
              <LongitudeDegrees>-8.13038765452802181243896484375</LongitudeDegrees>
            </Position>
            <AltitudeMeters>306.20001220703125</AltitudeMeters>
            <DistanceMeters>58756.045142818</DistanceMeters>
          </Trackpoint>
          <Trackpoint>
            <Time>2019-07-26T12:33:14.000Z</Time>
            <Position>
              <LatitudeDegrees>42.93094388209283351898193359375</LatitudeDegrees>
              <LongitudeDegrees>-8.13038966618478298187255859375</LongitudeDegrees>
            </Position>
            <AltitudeMeters>306</AltitudeMeters>
            <DistanceMeters>58756.599239019</DistanceMeters>
          </Trackpoint>
          <Trackpoint>
            <Time>2019-07-26T12:35:19.000Z</Time>
            <Position>
              <LatitudeDegrees>42.93089442886412143707275390625</LatitudeDegrees>
              <LongitudeDegrees>-8.13050667755305767059326171875</LongitudeDegrees>
            </Position>
            <AltitudeMeters>305.600006103515625</AltitudeMeters>
            <DistanceMeters>58767.609222951</DistanceMeters>
          </Trackpoint>
          <Trackpoint>
            <Time>2019-07-26T12:35:20.000Z</Time>
            <Position>
              <LatitudeDegrees>42.9308626614511013031005859375</LatitudeDegrees>
              <LongitudeDegrees>-8.13052226789295673370361328125</LongitudeDegrees>
            </Position>
            <AltitudeMeters>305.600006103515625</AltitudeMeters>
            <DistanceMeters>58771.364882601</DistanceMeters>
          </Trackpoint>
          <Trackpoint>
            <Time>2019-07-26T12:35:23.000Z</Time>
            <Position>
              <LatitudeDegrees>42.93078781105577945709228515625</LatitudeDegrees>
              <LongitudeDegrees>-8.13052075915038585662841796875</LongitudeDegrees>
            </Position>
            <AltitudeMeters>305.79998779296875</AltitudeMeters>
            <DistanceMeters>58779.696942832</DistanceMeters>
          </Trackpoint>
          <Trackpoint>
            <Time>2019-07-26T12:35:24.000Z</Time>
            <Position>
              <LatitudeDegrees>42.93076350353658199310302734375</LatitudeDegrees>
              <LongitudeDegrees>-8.1305163167417049407958984375</LongitudeDegrees>
            </Position>
            <AltitudeMeters>305.79998779296875</AltitudeMeters>
            <DistanceMeters>58782.428031103</DistanceMeters>
          </Trackpoint>
          <Trackpoint>
            <Time>2019-07-26T12:35:26.000Z</Time>
            <Position>
              <LatitudeDegrees>42.9307184927165508270263671875</LatitudeDegrees>
              <LongitudeDegrees>-8.130556046962738037109375</LongitudeDegrees>
            </Position>
            <AltitudeMeters>305.79998779296875</AltitudeMeters>
            <DistanceMeters>58788.392802782</DistanceMeters>
          </Trackpoint>
          <Trackpoint>
            <Time>2019-07-26T12:35:27.000Z</Time>
            <Position>
              <LatitudeDegrees>42.930701561272144317626953125</LatitudeDegrees>
              <LongitudeDegrees>-8.13060726039111614227294921875</LongitudeDegrees>
            </Position>
            <AltitudeMeters>305.79998779296875</AltitudeMeters>
            <DistanceMeters>58792.971867917</DistanceMeters>
          </Trackpoint>
          <Trackpoint>
            <Time>2019-07-26T12:35:28.000Z</Time>
            <Position>
              <LatitudeDegrees>42.930686473846435546875</LatitudeDegrees>
              <LongitudeDegrees>-8.13066677190363407135009765625</LongitudeDegrees>
            </Position>
            <AltitudeMeters>305.79998779296875</AltitudeMeters>
            <DistanceMeters>58798.103310493</DistanceMeters>
          </Trackpoint>
          <Trackpoint>
            <Time>2019-07-26T12:35:30.000Z</Time>
            <Position>
              <LatitudeDegrees>42.93064154684543609619140625</LatitudeDegrees>
              <LongitudeDegrees>-8.1307868845760822296142578125</LongitudeDegrees>
            </Position>
            <AltitudeMeters>305.79998779296875</AltitudeMeters>
            <DistanceMeters>58809.094825072</DistanceMeters>
          </Trackpoint>
          <Trackpoint>
            <Time>2019-07-26T12:35:32.000Z</Time>
            <Position>
              <LatitudeDegrees>42.930601648986339569091796875</LatitudeDegrees>
              <LongitudeDegrees>-8.1308898143470287322998046875</LongitudeDegrees>
            </Position>
            <AltitudeMeters>306</AltitudeMeters>
            <DistanceMeters>58818.585134996</DistanceMeters>
          </Trackpoint>
          <Trackpoint>
            <Time>2019-07-26T12:35:39.000Z</Time>
            <Position>
              <LatitudeDegrees>42.93047985993325710296630859375</LatitudeDegrees>
              <LongitudeDegrees>-8.1311540119349956512451171875</LongitudeDegrees>
            </Position>
            <AltitudeMeters>306.20001220703125</AltitudeMeters>
            <DistanceMeters>58844.027107004</DistanceMeters>
          </Trackpoint>
          <Trackpoint>
            <Time>2019-07-26T12:35:42.000Z</Time>
            <Position>
              <LatitudeDegrees>42.93045974336564540863037109375</LatitudeDegrees>
              <LongitudeDegrees>-8.13125819899141788482666015625</LongitudeDegrees>
            </Position>
            <AltitudeMeters>306.79998779296875</AltitudeMeters>
            <DistanceMeters>58852.807698822</DistanceMeters>
          </Trackpoint>
          <Trackpoint>
            <Time>2019-07-26T12:35:45.000Z</Time>
            <Position>
              <LatitudeDegrees>42.93046276085078716278076171875</LatitudeDegrees>
              <LongitudeDegrees>-8.13134319148957729339599609375</LongitudeDegrees>
            </Position>
            <AltitudeMeters>307.20001220703125</AltitudeMeters>
            <DistanceMeters>58859.742696092</DistanceMeters>
          </Trackpoint>
          <Trackpoint>
            <Time>2019-07-26T12:35:51.000Z</Time>
            <Position>
              <LatitudeDegrees>42.9304599948227405548095703125</LatitudeDegrees>
              <LongitudeDegrees>-8.131554163992404937744140625</LongitudeDegrees>
            </Position>
            <AltitudeMeters>307.79998779296875</AltitudeMeters>
            <DistanceMeters>58876.938068234</DistanceMeters>
          </Trackpoint>
          <Trackpoint>
            <Time>2019-07-26T12:35:53.000Z</Time>
            <Position>
              <LatitudeDegrees>42.93045136146247386932373046875</LatitudeDegrees>
              <LongitudeDegrees>-8.131633289158344268798828125</LongitudeDegrees>
            </Position>
            <AltitudeMeters>308</AltitudeMeters>
            <DistanceMeters>58883.456235896</DistanceMeters>
          </Trackpoint>
          <Trackpoint>
            <Time>2019-07-26T12:35:57.000Z</Time>
            <Position>
              <LatitudeDegrees>42.9304482601583003997802734375</LatitudeDegrees>
              <LongitudeDegrees>-8.13178609125316143035888671875</LongitudeDegrees>
            </Position>
            <AltitudeMeters>308.399993896484375</AltitudeMeters>
            <DistanceMeters>58895.913074725</DistanceMeters>
          </Trackpoint>
          <Trackpoint>
            <Time>2019-07-26T12:36:00.000Z</Time>
            <Position>
              <LatitudeDegrees>42.9304651916027069091796875</LatitudeDegrees>
              <LongitudeDegrees>-8.1318943016231060028076171875</LongitudeDegrees>
            </Position>
            <AltitudeMeters>309</AltitudeMeters>
            <DistanceMeters>58904.931104912</DistanceMeters>
          </Trackpoint>
          <Trackpoint>
            <Time>2019-07-26T12:36:03.000Z</Time>
            <Position>
              <LatitudeDegrees>42.930481620132923126220703125</LatitudeDegrees>
              <LongitudeDegrees>-8.13200385309755802154541015625</LongitudeDegrees>
            </Position>
            <AltitudeMeters>309.79998779296875</AltitudeMeters>
            <DistanceMeters>58914.044260954</DistanceMeters>
          </Trackpoint>
          <Trackpoint>
            <Time>2019-07-26T12:36:05.000Z</Time>
            <Position>
              <LatitudeDegrees>42.93049268424510955810546875</LatitudeDegrees>
              <LongitudeDegrees>-8.1320730037987232208251953125</LongitudeDegrees>
            </Position>
            <AltitudeMeters>310</AltitudeMeters>
            <DistanceMeters>58919.811998953</DistanceMeters>
          </Trackpoint>
          <Trackpoint>
            <Time>2019-07-26T12:36:08.000Z</Time>
            <Position>
              <LatitudeDegrees>42.93050433509051799774169921875</LatitudeDegrees>
              <LongitudeDegrees>-8.1321779452264308929443359375</LongitudeDegrees>
            </Position>
            <AltitudeMeters>310.600006103515625</AltitudeMeters>
            <DistanceMeters>58928.460996193</DistanceMeters>
          </Trackpoint>
          <Trackpoint>
            <Time>2019-07-26T12:36:09.000Z</Time>
            <Position>
              <LatitudeDegrees>42.9305096156895160675048828125</LatitudeDegrees>
              <LongitudeDegrees>-8.13221591524779796600341796875</LongitudeDegrees>
            </Position>
            <AltitudeMeters>310.79998779296875</AltitudeMeters>
            <DistanceMeters>58931.609809292</DistanceMeters>
          </Trackpoint>
          <Trackpoint>
            <Time>2019-07-26T12:36:12.000Z</Time>
            <Position>
              <LatitudeDegrees>42.9305350966751575469970703125</LatitudeDegrees>
              <LongitudeDegrees>-8.13232404179871082305908203125</LongitudeDegrees>
            </Position>
            <AltitudeMeters>311.20001220703125</AltitudeMeters>
            <DistanceMeters>58940.866016145</DistanceMeters>
          </Trackpoint>
          <Trackpoint>
            <Time>2019-07-26T12:36:15.000Z</Time>
            <Position>
              <LatitudeDegrees>42.9305713064968585968017578125</LatitudeDegrees>
              <LongitudeDegrees>-8.13241272233426570892333984375</LongitudeDegrees>
            </Position>
            <AltitudeMeters>312</AltitudeMeters>
            <DistanceMeters>58949.140436946</DistanceMeters>
          </Trackpoint>
          <Trackpoint>
            <Time>2019-07-26T12:36:16.000Z</Time>
            <Position>
              <LatitudeDegrees>42.93057239614427089691162109375</LatitudeDegrees>
              <LongitudeDegrees>-8.1324458308517932891845703125</LongitudeDegrees>
            </Position>
            <AltitudeMeters>312.399993896484375</AltitudeMeters>
            <DistanceMeters>58951.841603688</DistanceMeters>
          </Trackpoint>
          <Trackpoint>
            <Time>2019-07-26T12:36:20.000Z</Time>
            <Position>
              <LatitudeDegrees>42.93058480136096477508544921875</LatitudeDegrees>
              <LongitudeDegrees>-8.132556974887847900390625</LongitudeDegrees>
            </Position>
            <AltitudeMeters>313.399993896484375</AltitudeMeters>
            <DistanceMeters>58961.003677178</DistanceMeters>
          </Trackpoint>
          <Trackpoint>
            <Time>2019-07-26T12:36:24.000Z</Time>
            <Position>
              <LatitudeDegrees>42.93061967007815837860107421875</LatitudeDegrees>
              <LongitudeDegrees>-8.1326547078788280487060546875</LongitudeDegrees>
            </Position>
            <AltitudeMeters>314.79998779296875</AltitudeMeters>
            <DistanceMeters>58969.863102918</DistanceMeters>
          </Trackpoint>
          <Trackpoint>
            <Time>2019-07-26T12:36:27.000Z</Time>
            <Position>
              <LatitudeDegrees>42.93063207529485225677490234375</LatitudeDegrees>
              <LongitudeDegrees>-8.13273131847381591796875</LongitudeDegrees>
            </Position>
            <AltitudeMeters>315.79998779296875</AltitudeMeters>
            <DistanceMeters>58976.258196054</DistanceMeters>
          </Trackpoint>
          <Trackpoint>
            <Time>2019-07-26T12:36:28.000Z</Time>
            <Position>
              <LatitudeDegrees>42.9306360147893428802490234375</LatitudeDegrees>
              <LongitudeDegrees>-8.132756464183330535888671875</LongitudeDegrees>
            </Position>
            <AltitudeMeters>316</AltitudeMeters>
            <DistanceMeters>58978.353098713</DistanceMeters>
          </Trackpoint>
          <Trackpoint>
            <Time>2019-07-26T12:36:31.000Z</Time>
            <Position>
              <LatitudeDegrees>42.93064448051154613494873046875</LatitudeDegrees>
              <LongitudeDegrees>-8.13283248804509639739990234375</LongitudeDegrees>
            </Position>
            <AltitudeMeters>317.20001220703125</AltitudeMeters>
            <DistanceMeters>58984.620540977</DistanceMeters>
          </Trackpoint>
          <Trackpoint>
            <Time>2019-07-26T12:36:35.000Z</Time>
            <Position>
              <LatitudeDegrees>42.93066208250820636749267578125</LatitudeDegrees>
              <LongitudeDegrees>-8.13293525017797946929931640625</LongitudeDegrees>
            </Position>
            <AltitudeMeters>318.399993896484375</AltitudeMeters>
            <DistanceMeters>58993.220852375</DistanceMeters>
          </Trackpoint>
          <Trackpoint>
            <Time>2019-07-26T12:36:39.000Z</Time>
            <Position>
              <LatitudeDegrees>42.93067968450486660003662109375</LatitudeDegrees>
              <LongitudeDegrees>-8.13305594958364963531494140625</LongitudeDegrees>
            </Position>
            <AltitudeMeters>319.600006103515625</AltitudeMeters>
            <DistanceMeters>59003.250560825</DistanceMeters>
          </Trackpoint>
          <Trackpoint>
            <Time>2019-07-26T12:36:42.000Z</Time>
            <Position>
              <LatitudeDegrees>42.9307000525295734405517578125</LatitudeDegrees>
              <LongitudeDegrees>-8.13314228318631649017333984375</LongitudeDegrees>
            </Position>
            <AltitudeMeters>320.20001220703125</AltitudeMeters>
            <DistanceMeters>59010.642515408</DistanceMeters>
          </Trackpoint>
          <Trackpoint>
            <Time>2019-07-26T12:36:43.000Z</Time>
            <Position>
              <LatitudeDegrees>42.930706925690174102783203125</LatitudeDegrees>
              <LongitudeDegrees>-8.13317078165709972381591796875</LongitudeDegrees>
            </Position>
            <AltitudeMeters>320.600006103515625</AltitudeMeters>
            <DistanceMeters>59013.087492015</DistanceMeters>
          </Trackpoint>
          <Trackpoint>
            <Time>2019-07-26T12:36:46.000Z</Time>
            <Position>
              <LatitudeDegrees>42.93073181994259357452392578125</LatitudeDegrees>
              <LongitudeDegrees>-8.13325828872621059417724609375</LongitudeDegrees>
            </Position>
            <AltitudeMeters>321.600006103515625</AltitudeMeters>
            <DistanceMeters>59020.738175351</DistanceMeters>
          </Trackpoint>
          <Trackpoint>
            <Time>2019-07-26T12:36:48.000Z</Time>
            <Position>
              <LatitudeDegrees>42.93074774555861949920654296875</LatitudeDegrees>
              <LongitudeDegrees>-8.1333172135055065155029296875</LongitudeDegrees>
            </Position>
            <AltitudeMeters>322.20001220703125</AltitudeMeters>
            <DistanceMeters>59025.856402755</DistanceMeters>
          </Trackpoint>
          <Trackpoint>
            <Time>2019-07-26T12:36:50.000Z</Time>
            <Position>
              <LatitudeDegrees>42.93075562454760074615478515625</LatitudeDegrees>
              <LongitudeDegrees>-8.13337479718029499053955078125</LongitudeDegrees>
            </Position>
            <AltitudeMeters>322.79998779296875</AltitudeMeters>
            <DistanceMeters>59030.630490411</DistanceMeters>
          </Trackpoint>
          <Trackpoint>
            <Time>2019-07-26T12:36:56.000Z</Time>
            <Position>
              <LatitudeDegrees>42.93079552240669727325439453125</LatitudeDegrees>
              <LongitudeDegrees>-8.1335354782640933990478515625</LongitudeDegrees>
            </Position>
            <AltitudeMeters>324</AltitudeMeters>
            <DistanceMeters>59044.457448807</DistanceMeters>
          </Trackpoint>
          <Trackpoint>
            <Time>2019-07-26T12:37:00.000Z</Time>
            <Position>
              <LatitudeDegrees>42.93082066811621189117431640625</LatitudeDegrees>
              <LongitudeDegrees>-8.133641593158245086669921875</LongitudeDegrees>
            </Position>
            <AltitudeMeters>325.20001220703125</AltitudeMeters>
            <DistanceMeters>59053.546792534</DistanceMeters>
          </Trackpoint>
          <Trackpoint>
            <Time>2019-07-26T12:37:05.000Z</Time>
            <Position>
              <LatitudeDegrees>42.9308465681970119476318359375</LatitudeDegrees>
              <LongitudeDegrees>-8.13378014601767063140869140625</LongitudeDegrees>
            </Position>
            <AltitudeMeters>326.20001220703125</AltitudeMeters>
            <DistanceMeters>59065.199873223</DistanceMeters>
          </Trackpoint>
          <Trackpoint>
            <Time>2019-07-26T12:37:06.000Z</Time>
            <Position>
              <LatitudeDegrees>42.93085184879601001739501953125</LatitudeDegrees>
              <LongitudeDegrees>-8.133807890117168426513671875</LongitudeDegrees>
            </Position>
            <AltitudeMeters>326.399993896484375</AltitudeMeters>
            <DistanceMeters>59067.535288855</DistanceMeters>
          </Trackpoint>
          <Trackpoint>
            <Time>2019-07-26T12:37:11.000Z</Time>
            <Position>
              <LatitudeDegrees>42.9308675229549407958984375</LatitudeDegrees>
              <LongitudeDegrees>-8.1339451856911182403564453125</LongitudeDegrees>
            </Position>
            <AltitudeMeters>327.399993896484375</AltitudeMeters>
            <DistanceMeters>59078.858630033</DistanceMeters>
          </Trackpoint>
          <Trackpoint>
            <Time>2019-07-26T12:37:13.000Z</Time>
            <Position>
              <LatitudeDegrees>42.930875904858112335205078125</LatitudeDegrees>
              <LongitudeDegrees>-8.1340001709759235382080078125</LongitudeDegrees>
            </Position>
            <AltitudeMeters>327.79998779296875</AltitudeMeters>
            <DistanceMeters>59083.435722707</DistanceMeters>
          </Trackpoint>
          <Trackpoint>
            <Time>2019-07-26T12:37:17.000Z</Time>
            <Position>
              <LatitudeDegrees>42.93089275248348712921142578125</LatitudeDegrees>
              <LongitudeDegrees>-8.13411441631615161895751953125</LongitudeDegrees>
            </Position>
            <AltitudeMeters>328.600006103515625</AltitudeMeters>
            <DistanceMeters>59092.93269083</DistanceMeters>
          </Trackpoint>
          <Trackpoint>
            <Time>2019-07-26T12:37:22.000Z</Time>
            <Position>
              <LatitudeDegrees>42.93092074804008007049560546875</LatitudeDegrees>
              <LongitudeDegrees>-8.1342534720897674560546875</LongitudeDegrees>
            </Position>
            <AltitudeMeters>329.399993896484375</AltitudeMeters>
            <DistanceMeters>59104.685309657</DistanceMeters>
          </Trackpoint>
          <Trackpoint>
            <Time>2019-07-26T12:37:23.000Z</Time>
            <Position>
              <LatitudeDegrees>42.9309265315532684326171875</LatitudeDegrees>
              <LongitudeDegrees>-8.1342821381986141204833984375</LongitudeDegrees>
            </Position>
            <AltitudeMeters>329.600006103515625</AltitudeMeters>
            <DistanceMeters>59107.108025011</DistanceMeters>
          </Trackpoint>
          <Trackpoint>
            <Time>2019-07-26T12:37:29.000Z</Time>
            <Position>
              <LatitudeDegrees>42.9309582151472568511962890625</LatitudeDegrees>
              <LongitudeDegrees>-8.13446846790611743927001953125</LongitudeDegrees>
            </Position>
            <AltitudeMeters>330.79998779296875</AltitudeMeters>
            <DistanceMeters>59122.697040928</DistanceMeters>
          </Trackpoint>
          <Trackpoint>
            <Time>2019-07-26T12:37:30.000Z</Time>
            <Position>
              <LatitudeDegrees>42.93096072971820831298828125</LatitudeDegrees>
              <LongitudeDegrees>-8.1345002353191375732421875</LongitudeDegrees>
            </Position>
            <AltitudeMeters>331.20001220703125</AltitudeMeters>
            <DistanceMeters>59125.302922254</DistanceMeters>
          </Trackpoint>
          <Trackpoint>
            <Time>2019-07-26T12:37:34.000Z</Time>
            <Position>
              <LatitudeDegrees>42.93095645494759082794189453125</LatitudeDegrees>
              <LongitudeDegrees>-8.13462370075285434722900390625</LongitudeDegrees>
            </Position>
            <AltitudeMeters>332</AltitudeMeters>
            <DistanceMeters>59135.375753977</DistanceMeters>
          </Trackpoint>
          <Trackpoint>
            <Time>2019-07-26T12:37:35.000Z</Time>
            <Position>
              <LatitudeDegrees>42.9309478215873241424560546875</LatitudeDegrees>
              <LongitudeDegrees>-8.13465320505201816558837890625</LongitudeDegrees>
            </Position>
            <AltitudeMeters>332.20001220703125</AltitudeMeters>
            <DistanceMeters>59137.964250978</DistanceMeters>
          </Trackpoint>
          <Trackpoint>
            <Time>2019-07-26T12:37:37.000Z</Time>
            <Position>
              <LatitudeDegrees>42.93092544190585613250732421875</LatitudeDegrees>
              <LongitudeDegrees>-8.13470383174717426300048828125</LongitudeDegrees>
            </Position>
            <AltitudeMeters>332.600006103515625</AltitudeMeters>
            <DistanceMeters>59142.783520281</DistanceMeters>
          </Trackpoint>
          <Trackpoint>
            <Time>2019-07-26T12:37:39.000Z</Time>
            <Position>
              <LatitudeDegrees>42.93089996092021465301513671875</LatitudeDegrees>
              <LongitudeDegrees>-8.134748674929141998291015625</LongitudeDegrees>
            </Position>
            <AltitudeMeters>333</AltitudeMeters>
            <DistanceMeters>59147.409672156</DistanceMeters>
          </Trackpoint>
          <Trackpoint>
            <Time>2019-07-26T12:37:45.000Z</Time>
            <Position>
              <LatitudeDegrees>42.930800132453441619873046875</LatitudeDegrees>
              <LongitudeDegrees>-8.1348799355328083038330078125</LongitudeDegrees>
            </Position>
            <AltitudeMeters>334.600006103515625</AltitudeMeters>
            <DistanceMeters>59162.832715749</DistanceMeters>
          </Trackpoint>
          <Trackpoint>
            <Time>2019-07-26T12:37:50.000Z</Time>
            <Position>
              <LatitudeDegrees>42.93071237392723560333251953125</LatitudeDegrees>
              <LongitudeDegrees>-8.13499887473881244659423828125</LongitudeDegrees>
            </Position>
            <AltitudeMeters>335.79998779296875</AltitudeMeters>
            <DistanceMeters>59176.593555223</DistanceMeters>
          </Trackpoint>
          <Trackpoint>
            <Time>2019-07-26T12:37:52.000Z</Time>
            <Position>
              <LatitudeDegrees>42.9306822828948497772216796875</LatitudeDegrees>
              <LongitudeDegrees>-8.1350479088723659515380859375</LongitudeDegrees>
            </Position>
            <AltitudeMeters>336.20001220703125</AltitudeMeters>
            <DistanceMeters>59181.807050222</DistanceMeters>
          </Trackpoint>
          <Trackpoint>
            <Time>2019-07-26T12:37:55.000Z</Time>
            <Position>
              <LatitudeDegrees>42.93063542805612087249755859375</LatitudeDegrees>
              <LongitudeDegrees>-8.13511840067803859710693359375</LongitudeDegrees>
            </Position>
            <AltitudeMeters>337</AltitudeMeters>
            <DistanceMeters>59189.565561005</DistanceMeters>
          </Trackpoint>
          <Trackpoint>
            <Time>2019-07-26T12:37:59.000Z</Time>
            <Position>
              <LatitudeDegrees>42.9305686242878437042236328125</LatitudeDegrees>
              <LongitudeDegrees>-8.135192580521106719970703125</LongitudeDegrees>
            </Position>
            <AltitudeMeters>337.79998779296875</AltitudeMeters>
            <DistanceMeters>59199.148664752</DistanceMeters>
          </Trackpoint>
          <Trackpoint>
            <Time>2019-07-26T12:38:00.000Z</Time>
            <Position>
              <LatitudeDegrees>42.93054725043475627899169921875</LatitudeDegrees>
              <LongitudeDegrees>-8.13520389609038829803466796875</LongitudeDegrees>
            </Position>
            <AltitudeMeters>338.20001220703125</AltitudeMeters>
            <DistanceMeters>59201.702038049</DistanceMeters>
          </Trackpoint>
          <Trackpoint>
            <Time>2019-07-26T12:38:04.000Z</Time>
            <Position>
              <LatitudeDegrees>42.9304425604641437530517578125</LatitudeDegrees>
              <LongitudeDegrees>-8.1352430395781993865966796875</LongitudeDegrees>
            </Position>
            <AltitudeMeters>339.20001220703125</AltitudeMeters>
            <DistanceMeters>59213.783144189</DistanceMeters>
          </Trackpoint>
          <Trackpoint>
            <Time>2019-07-26T12:38:06.000Z</Time>
            <Position>
              <LatitudeDegrees>42.9303852282464504241943359375</LatitudeDegrees>
              <LongitudeDegrees>-8.135268352925777435302734375</LongitudeDegrees>
            </Position>
            <AltitudeMeters>339.79998779296875</AltitudeMeters>
            <DistanceMeters>59220.489095329</DistanceMeters>
          </Trackpoint>
          <Trackpoint>
            <Time>2019-07-26T12:38:08.000Z</Time>
            <Position>
              <LatitudeDegrees>42.93031297624111175537109375</LatitudeDegrees>
              <LongitudeDegrees>-8.13528587110340595245361328125</LongitudeDegrees>
            </Position>
            <AltitudeMeters>340.20001220703125</AltitudeMeters>
            <DistanceMeters>59228.656971722</DistanceMeters>
          </Trackpoint>
          <Trackpoint>
            <Time>2019-07-26T12:38:09.000Z</Time>
            <Position>
              <LatitudeDegrees>42.93027031235396862030029296875</LatitudeDegrees>
              <LongitudeDegrees>-8.13528679311275482177734375</LongitudeDegrees>
            </Position>
            <AltitudeMeters>340.600006103515625</AltitudeMeters>
            <DistanceMeters>59233.406406526</DistanceMeters>
          </Trackpoint>
          <Trackpoint>
            <Time>2019-07-26T12:38:10.000Z</Time>
            <Position>
              <LatitudeDegrees>42.93022454716265201568603515625</LatitudeDegrees>
              <LongitudeDegrees>-8.13528436236083507537841796875</LongitudeDegrees>
            </Position>
            <AltitudeMeters>341</AltitudeMeters>
            <DistanceMeters>59238.504304132</DistanceMeters>
          </Trackpoint>
          <Trackpoint>
            <Time>2019-07-26T12:38:12.000Z</Time>
            <Position>
              <LatitudeDegrees>42.93013234622776508331298828125</LatitudeDegrees>
              <LongitudeDegrees>-8.13528008759021759033203125</LongitudeDegrees>
            </Position>
            <AltitudeMeters>341.20001220703125</AltitudeMeters>
            <DistanceMeters>59248.772467189</DistanceMeters>
          </Trackpoint>
          <Trackpoint>
            <Time>2019-07-26T12:38:15.000Z</Time>
            <Position>
              <LatitudeDegrees>42.92999974451959133148193359375</LatitudeDegrees>
              <LongitudeDegrees>-8.13528402708470821380615234375</LongitudeDegrees>
            </Position>
            <AltitudeMeters>341.399993896484375</AltitudeMeters>
            <DistanceMeters>59263.534676875</DistanceMeters>
          </Trackpoint>
          <Trackpoint>
            <Time>2019-07-26T12:38:17.000Z</Time>
            <Position>
              <LatitudeDegrees>42.92991139926016330718994140625</LatitudeDegrees>
              <LongitudeDegrees>-8.1352780759334564208984375</LongitudeDegrees>
            </Position>
            <AltitudeMeters>341.399993896484375</AltitudeMeters>
            <DistanceMeters>59273.37992144</DistanceMeters>
          </Trackpoint>
          <Trackpoint>
            <Time>2019-07-26T12:38:18.000Z</Time>
            <Position>
              <LatitudeDegrees>42.92986412532627582550048828125</LatitudeDegrees>
              <LongitudeDegrees>-8.1352802552282810211181640625</LongitudeDegrees>
            </Position>
            <AltitudeMeters>341.399993896484375</AltitudeMeters>
            <DistanceMeters>59278.644264192</DistanceMeters>
          </Trackpoint>
          <Trackpoint>
            <Time>2019-07-26T12:38:21.000Z</Time>
            <Position>
              <LatitudeDegrees>42.92970201931893825531005859375</LatitudeDegrees>
              <LongitudeDegrees>-8.13534638844430446624755859375</LongitudeDegrees>
            </Position>
            <AltitudeMeters>341.20001220703125</AltitudeMeters>
            <DistanceMeters>59297.474905227</DistanceMeters>
          </Trackpoint>
          <Trackpoint>
            <Time>2019-07-26T12:38:23.000Z</Time>
            <Position>
              <LatitudeDegrees>42.929584085941314697265625</LatitudeDegrees>
              <LongitudeDegrees>-8.135422579944133758544921875</LongitudeDegrees>
            </Position>
            <AltitudeMeters>341</AltitudeMeters>
            <DistanceMeters>59311.995969756</DistanceMeters>
          </Trackpoint>
          <Trackpoint>
            <Time>2019-07-26T12:38:25.000Z</Time>
            <Position>
              <LatitudeDegrees>42.9294467903673648834228515625</LatitudeDegrees>
              <LongitudeDegrees>-8.1354750506579875946044921875</LongitudeDegrees>
            </Position>
            <AltitudeMeters>340.79998779296875</AltitudeMeters>
            <DistanceMeters>59327.864577499</DistanceMeters>
          </Trackpoint>
          <Trackpoint>
            <Time>2019-07-26T12:38:26.000Z</Time>
            <Position>
              <LatitudeDegrees>42.92937512509524822235107421875</LatitudeDegrees>
              <LongitudeDegrees>-8.135512433946132659912109375</LongitudeDegrees>
            </Position>
            <AltitudeMeters>340.79998779296875</AltitudeMeters>
            <DistanceMeters>59336.403244679</DistanceMeters>
          </Trackpoint>
          <Trackpoint>
            <Time>2019-07-26T12:38:28.000Z</Time>
            <Position>
              <LatitudeDegrees>42.92926465161144733428955078125</LatitudeDegrees>
              <LongitudeDegrees>-8.13561268150806427001953125</LongitudeDegrees>
            </Position>
            <AltitudeMeters>340.79998779296875</AltitudeMeters>
            <DistanceMeters>59351.165760213</DistanceMeters>
          </Trackpoint>
          <Trackpoint>
            <Time>2019-07-26T12:38:29.000Z</Time>
            <Position>
              <LatitudeDegrees>42.92923900298774242401123046875</LatitudeDegrees>
              <LongitudeDegrees>-8.13567680306732654571533203125</LongitudeDegrees>
            </Position>
            <AltitudeMeters>340.600006103515625</AltitudeMeters>
            <DistanceMeters>59357.119925152</DistanceMeters>
          </Trackpoint>
          <Trackpoint>
            <Time>2019-07-26T12:38:31.000Z</Time>
            <Position>
              <LatitudeDegrees>42.92924000881612300872802734375</LatitudeDegrees>
              <LongitudeDegrees>-8.13580848276615142822265625</LongitudeDegrees>
            </Position>
            <AltitudeMeters>340.600006103515625</AltitudeMeters>
            <DistanceMeters>59367.85163494</DistanceMeters>
          </Trackpoint>
          <Trackpoint>
            <Time>2019-07-26T12:38:32.000Z</Time>
            <Position>
              <LatitudeDegrees>42.9292583651840686798095703125</LatitudeDegrees>
              <LongitudeDegrees>-8.13587830401957035064697265625</LongitudeDegrees>
            </Position>
            <AltitudeMeters>340.399993896484375</AltitudeMeters>
            <DistanceMeters>59373.899098011</DistanceMeters>
          </Trackpoint>
          <Trackpoint>
            <Time>2019-07-26T12:38:35.000Z</Time>
            <Position>
              <LatitudeDegrees>42.929241098463535308837890625</LatitudeDegrees>
              <LongitudeDegrees>-8.13602079637348651885986328125</LongitudeDegrees>
            </Position>
            <AltitudeMeters>339.20001220703125</AltitudeMeters>
            <DistanceMeters>59385.669759118</DistanceMeters>
          </Trackpoint>
          <Trackpoint>
            <Time>2019-07-26T12:38:37.000Z</Time>
            <Position>
              <LatitudeDegrees>42.92917412705719470977783203125</LatitudeDegrees>
              <LongitudeDegrees>-8.13605532981455326080322265625</LongitudeDegrees>
            </Position>
            <AltitudeMeters>338.399993896484375</AltitudeMeters>
            <DistanceMeters>59393.637283037</DistanceMeters>
          </Trackpoint>
          <Trackpoint>
            <Time>2019-07-26T12:38:38.000Z</Time>
            <Position>
              <LatitudeDegrees>42.92914126999676227569580078125</LatitudeDegrees>
              <LongitudeDegrees>-8.136076368391513824462890625</LongitudeDegrees>
            </Position>
            <AltitudeMeters>338.20001220703125</AltitudeMeters>
            <DistanceMeters>59397.675638897</DistanceMeters>
          </Trackpoint>
          <Trackpoint>
            <Time>2019-07-26T12:38:39.000Z</Time>
            <Position>
              <LatitudeDegrees>42.92910740710794925689697265625</LatitudeDegrees>
              <LongitudeDegrees>-8.13609472475945949554443359375</LongitudeDegrees>
            </Position>
            <AltitudeMeters>338.20001220703125</AltitudeMeters>
            <DistanceMeters>59401.729617083</DistanceMeters>
          </Trackpoint>
          <Trackpoint>
            <Time>2019-07-26T12:38:41.000Z</Time>
            <Position>
              <LatitudeDegrees>42.9290558584034442901611328125</LatitudeDegrees>
              <LongitudeDegrees>-8.1361355446279048919677734375</LongitudeDegrees>
            </Position>
            <AltitudeMeters>338</AltitudeMeters>
            <DistanceMeters>59408.361773773</DistanceMeters>
          </Trackpoint>
          <Trackpoint>
            <Time>2019-07-26T12:38:44.000Z</Time>
            <Position>
              <LatitudeDegrees>42.92897614650428295135498046875</LatitudeDegrees>
              <LongitudeDegrees>-8.1362082995474338531494140625</LongitudeDegrees>
            </Position>
            <AltitudeMeters>337.79998779296875</AltitudeMeters>
            <DistanceMeters>59419.032727992</DistanceMeters>
          </Trackpoint>
          <Trackpoint>
            <Time>2019-07-26T12:38:45.000Z</Time>
            <Position>
              <LatitudeDegrees>42.92894840240478515625</LatitudeDegrees>
              <LongitudeDegrees>-8.13623202033340930938720703125</LongitudeDegrees>
            </Position>
            <AltitudeMeters>338.20001220703125</AltitudeMeters>
            <DistanceMeters>59422.676107244</DistanceMeters>
          </Trackpoint>
          <Trackpoint>
            <Time>2019-07-26T12:38:47.000Z</Time>
            <Position>
              <LatitudeDegrees>42.928897775709629058837890625</LatitudeDegrees>
              <LongitudeDegrees>-8.1362766958773136138916015625</LongitudeDegrees>
            </Position>
            <AltitudeMeters>338.600006103515625</AltitudeMeters>
            <DistanceMeters>59429.384750996</DistanceMeters>
          </Trackpoint>
          <Trackpoint>
            <Time>2019-07-26T12:38:48.000Z</Time>
            <Position>
              <LatitudeDegrees>42.92887531220912933349609375</LatitudeDegrees>
              <LongitudeDegrees>-8.13630075193941593170166015625</LongitudeDegrees>
            </Position>
            <AltitudeMeters>339.20001220703125</AltitudeMeters>
            <DistanceMeters>59432.562112396</DistanceMeters>
          </Trackpoint>
          <Trackpoint>
            <Time>2019-07-26T12:38:49.000Z</Time>
            <Position>
              <LatitudeDegrees>42.9288681037724018096923828125</LatitudeDegrees>
              <LongitudeDegrees>-8.13633394427597522735595703125</LongitudeDegrees>
            </Position>
            <AltitudeMeters>340</AltitudeMeters>
            <DistanceMeters>59435.384261829</DistanceMeters>
          </Trackpoint>
          <Trackpoint>
            <Time>2019-07-26T12:38:50.000Z</Time>
            <Position>
              <LatitudeDegrees>42.92887656949460506439208984375</LatitudeDegrees>
              <LongitudeDegrees>-8.13636579550802707672119140625</LongitudeDegrees>
            </Position>
            <AltitudeMeters>340.399993896484375</AltitudeMeters>
            <DistanceMeters>59438.144947346</DistanceMeters>
          </Trackpoint>
          <Trackpoint>
            <Time>2019-07-26T12:38:51.000Z</Time>
            <Position>
              <LatitudeDegrees>42.928903140127658843994140625</LatitudeDegrees>
              <LongitudeDegrees>-8.1363843195140361785888671875</LongitudeDegrees>
            </Position>
            <AltitudeMeters>340.600006103515625</AltitudeMeters>
            <DistanceMeters>59441.464087786</DistanceMeters>
          </Trackpoint>
          <Trackpoint>
            <Time>2019-07-26T12:38:53.000Z</Time>
            <Position>
              <LatitudeDegrees>42.928959466516971588134765625</LatitudeDegrees>
              <LongitudeDegrees>-8.1363709084689617156982421875</LongitudeDegrees>
            </Position>
            <AltitudeMeters>341.600006103515625</AltitudeMeters>
            <DistanceMeters>59447.827330888</DistanceMeters>
          </Trackpoint>
          <Trackpoint>
            <Time>2019-07-26T12:38:55.000Z</Time>
            <Position>
              <LatitudeDegrees>42.929015122354030609130859375</LatitudeDegrees>
              <LongitudeDegrees>-8.13634165562689304351806640625</LongitudeDegrees>
            </Position>
            <AltitudeMeters>342.399993896484375</AltitudeMeters>
            <DistanceMeters>59454.464251325</DistanceMeters>
          </Trackpoint>
          <Trackpoint>
            <Time>2019-07-26T12:38:57.000Z</Time>
            <Position>
              <LatitudeDegrees>42.92907203547656536102294921875</LatitudeDegrees>
              <LongitudeDegrees>-8.136323131620883941650390625</LongitudeDegrees>
            </Position>
            <AltitudeMeters>342.79998779296875</AltitudeMeters>
            <DistanceMeters>59460.976181836</DistanceMeters>
          </Trackpoint>
          <Trackpoint>
            <Time>2019-07-26T12:39:00.000Z</Time>
            <Position>
              <LatitudeDegrees>42.929158620536327362060546875</LatitudeDegrees>
              <LongitudeDegrees>-8.13629622571170330047607421875</LongitudeDegrees>
            </Position>
            <AltitudeMeters>343.79998779296875</AltitudeMeters>
            <DistanceMeters>59470.858960131</DistanceMeters>
          </Trackpoint>
          <Trackpoint>
            <Time>2019-07-26T12:39:03.000Z</Time>
            <Position>
              <LatitudeDegrees>42.92925291694700717926025390625</LatitudeDegrees>
              <LongitudeDegrees>-8.13626705668866634368896484375</LongitudeDegrees>
            </Position>
            <AltitudeMeters>344.79998779296875</AltitudeMeters>
            <DistanceMeters>59481.620919082</DistanceMeters>
          </Trackpoint>
          <Trackpoint>
            <Time>2019-07-26T12:39:08.000Z</Time>
            <Position>
              <LatitudeDegrees>42.92942407540977001190185546875</LatitudeDegrees>
              <LongitudeDegrees>-8.13622900284826755523681640625</LongitudeDegrees>
            </Position>
            <AltitudeMeters>346</AltitudeMeters>
            <DistanceMeters>59500.92210567</DistanceMeters>
          </Trackpoint>
          <Trackpoint>
            <Time>2019-07-26T12:39:10.000Z</Time>
            <Position>
              <LatitudeDegrees>42.9294933937489986419677734375</LatitudeDegrees>
              <LongitudeDegrees>-8.13621349632740020751953125</LongitudeDegrees>
            </Position>
            <AltitudeMeters>346.20001220703125</AltitudeMeters>
            <DistanceMeters>59508.740904652</DistanceMeters>
          </Trackpoint>
          <Trackpoint>
            <Time>2019-07-26T12:39:14.000Z</Time>
            <Position>
              <LatitudeDegrees>42.92962423525750637054443359375</LatitudeDegrees>
              <LongitudeDegrees>-8.1361831538379192352294921875</LongitudeDegrees>
            </Position>
            <AltitudeMeters>347.20001220703125</AltitudeMeters>
            <DistanceMeters>59523.511981358</DistanceMeters>
          </Trackpoint>
          <Trackpoint>
            <Time>2019-07-26T12:39:18.000Z</Time>
            <Position>
              <LatitudeDegrees>42.929755412042140960693359375</LatitudeDegrees>
              <LongitudeDegrees>-8.13615792430937290191650390625</LongitudeDegrees>
            </Position>
            <AltitudeMeters>348</AltitudeMeters>
            <DistanceMeters>59538.256134786</DistanceMeters>
          </Trackpoint>
          <Trackpoint>
            <Time>2019-07-26T12:39:21.000Z</Time>
            <Position>
              <LatitudeDegrees>42.92985205538570880889892578125</LatitudeDegrees>
              <LongitudeDegrees>-8.13614778220653533935546875</LongitudeDegrees>
            </Position>
            <AltitudeMeters>348.600006103515625</AltitudeMeters>
            <DistanceMeters>59549.044910683</DistanceMeters>
          </Trackpoint>
          <Trackpoint>
            <Time>2019-07-26T12:39:25.000Z</Time>
            <Position>
              <LatitudeDegrees>42.9299822263419628143310546875</LatitudeDegrees>
              <LongitudeDegrees>-8.1361442618072032928466796875</LongitudeDegrees>
            </Position>
            <AltitudeMeters>349.399993896484375</AltitudeMeters>
            <DistanceMeters>59563.535783591</DistanceMeters>
          </Trackpoint>
          <Trackpoint>
            <Time>2019-07-26T12:39:27.000Z</Time>
            <Position>
              <LatitudeDegrees>42.93004802428185939788818359375</LatitudeDegrees>
              <LongitudeDegrees>-8.1361378915607929229736328125</LongitudeDegrees>
            </Position>
            <AltitudeMeters>349.600006103515625</AltitudeMeters>
            <DistanceMeters>59570.876866359</DistanceMeters>
          </Trackpoint>
          <Trackpoint>
            <Time>2019-07-26T12:39:32.000Z</Time>
            <Position>
              <LatitudeDegrees>42.93020040728151798248291015625</LatitudeDegrees>
              <LongitudeDegrees>-8.13615289516746997833251953125</LongitudeDegrees>
            </Position>
            <AltitudeMeters>350.600006103515625</AltitudeMeters>
            <DistanceMeters>59587.881338648</DistanceMeters>
          </Trackpoint>
          <Trackpoint>
            <Time>2019-07-26T12:39:33.000Z</Time>
            <Position>
              <LatitudeDegrees>42.93023116886615753173828125</LatitudeDegrees>
              <LongitudeDegrees>-8.1361613608896732330322265625</LongitudeDegrees>
            </Position>
            <AltitudeMeters>350.79998779296875</AltitudeMeters>
            <DistanceMeters>59591.37284308</DistanceMeters>
          </Trackpoint>
          <Trackpoint>
            <Time>2019-07-26T12:39:39.000Z</Time>
            <Position>
              <LatitudeDegrees>42.930412553250789642333984375</LatitudeDegrees>
              <LongitudeDegrees>-8.1362347863614559173583984375</LongitudeDegrees>
            </Position>
            <AltitudeMeters>351.79998779296875</AltitudeMeters>
            <DistanceMeters>59612.429356405</DistanceMeters>
          </Trackpoint>
          <Trackpoint>
            <Time>2019-07-26T12:39:41.000Z</Time>
            <Position>
              <LatitudeDegrees>42.9304720647633075714111328125</LatitudeDegrees>
              <LongitudeDegrees>-8.13626202754676342010498046875</LongitudeDegrees>
            </Position>
            <AltitudeMeters>352</AltitudeMeters>
            <DistanceMeters>59619.41495109</DistanceMeters>
          </Trackpoint>
          <Trackpoint>
            <Time>2019-07-26T12:39:46.000Z</Time>
            <Position>
              <LatitudeDegrees>42.93060667812824249267578125</LatitudeDegrees>
              <LongitudeDegrees>-8.13637970946729183197021484375</LongitudeDegrees>
            </Position>
            <AltitudeMeters>352.79998779296875</AltitudeMeters>
            <DistanceMeters>59637.20399263</DistanceMeters>
          </Trackpoint>
          <Trackpoint>
            <Time>2019-07-26T12:39:47.000Z</Time>
            <Position>
              <LatitudeDegrees>42.9306303150951862335205078125</LatitudeDegrees>
              <LongitudeDegrees>-8.1364126503467559814453125</LongitudeDegrees>
            </Position>
            <AltitudeMeters>353</AltitudeMeters>
            <DistanceMeters>59640.963257137</DistanceMeters>
          </Trackpoint>
          <Trackpoint>
            <Time>2019-07-26T12:39:52.000Z</Time>
            <Position>
              <LatitudeDegrees>42.9307226836681365966796875</LatitudeDegrees>
              <LongitudeDegrees>-8.13660367392003536224365234375</LongitudeDegrees>
            </Position>
            <AltitudeMeters>354</AltitudeMeters>
            <DistanceMeters>59659.618528407</DistanceMeters>
          </Trackpoint>
          <Trackpoint>
            <Time>2019-07-26T12:39:54.000Z</Time>
            <Position>
              <LatitudeDegrees>42.93075730092823505401611328125</LatitudeDegrees>
              <LongitudeDegrees>-8.136684894561767578125</LongitudeDegrees>
            </Position>
            <AltitudeMeters>354.20001220703125</AltitudeMeters>
            <DistanceMeters>59667.277469363</DistanceMeters>
          </Trackpoint>
          <Trackpoint>
            <Time>2019-07-26T12:40:00.000Z</Time>
            <Position>
              <LatitudeDegrees>42.93081027455627918243408203125</LatitudeDegrees>
              <LongitudeDegrees>-8.1369445659220218658447265625</LongitudeDegrees>
            </Position>
            <AltitudeMeters>355</AltitudeMeters>
            <DistanceMeters>59689.244677996</DistanceMeters>
          </Trackpoint>
          <Trackpoint>
            <Time>2019-07-26T12:40:01.000Z</Time>
            <Position>
              <LatitudeDegrees>42.9308180697262287139892578125</LatitudeDegrees>
              <LongitudeDegrees>-8.13698840327560901641845703125</LongitudeDegrees>
            </Position>
            <AltitudeMeters>355.20001220703125</AltitudeMeters>
            <DistanceMeters>59692.920136383</DistanceMeters>
          </Trackpoint>
          <Trackpoint>
            <Time>2019-07-26T12:40:07.000Z</Time>
            <Position>
              <LatitudeDegrees>42.93087489902973175048828125</LatitudeDegrees>
              <LongitudeDegrees>-8.13723944127559661865234375</LongitudeDegrees>
            </Position>
            <AltitudeMeters>356.20001220703125</AltitudeMeters>
            <DistanceMeters>59714.333642676</DistanceMeters>
          </Trackpoint>
          <Trackpoint>
            <Time>2019-07-26T12:40:10.000Z</Time>
            <Position>
              <LatitudeDegrees>42.93088872916996479034423828125</LatitudeDegrees>
              <LongitudeDegrees>-8.13736324198544025421142578125</LongitudeDegrees>
            </Position>
            <AltitudeMeters>356.600006103515625</AltitudeMeters>
            <DistanceMeters>59724.539617974</DistanceMeters>
          </Trackpoint>
          <Trackpoint>
            <Time>2019-07-26T12:40:13.000Z</Time>
            <Position>
              <LatitudeDegrees>42.93090574443340301513671875</LatitudeDegrees>
              <LongitudeDegrees>-8.1374914012849330902099609375</LongitudeDegrees>
            </Position>
            <AltitudeMeters>357.20001220703125</AltitudeMeters>
            <DistanceMeters>59735.154574115</DistanceMeters>
          </Trackpoint>
          <Trackpoint>
            <Time>2019-07-26T12:40:18.000Z</Time>
            <Position>
              <LatitudeDegrees>42.9309230111539363861083984375</LatitudeDegrees>
              <LongitudeDegrees>-8.13770748674869537353515625</LongitudeDegrees>
            </Position>
            <AltitudeMeters>358.20001220703125</AltitudeMeters>
            <DistanceMeters>59752.868583439</DistanceMeters>
          </Trackpoint>
          <Trackpoint>
            <Time>2019-07-26T12:40:20.000Z</Time>
            <Position>
              <LatitudeDegrees>42.9309260286390781402587890625</LatitudeDegrees>
              <LongitudeDegrees>-8.137790970504283905029296875</LongitudeDegrees>
            </Position>
            <AltitudeMeters>358.399993896484375</AltitudeMeters>
            <DistanceMeters>59759.67942059</DistanceMeters>
          </Trackpoint>
          <Trackpoint>
            <Time>2019-07-26T12:40:24.000Z</Time>
            <Position>
              <LatitudeDegrees>42.93093399144709110260009765625</LatitudeDegrees>
              <LongitudeDegrees>-8.1379597820341587066650390625</LongitudeDegrees>
            </Position>
            <AltitudeMeters>359.600006103515625</AltitudeMeters>
            <DistanceMeters>59773.464846182</DistanceMeters>
          </Trackpoint>
          <Trackpoint>
            <Time>2019-07-26T12:40:27.000Z</Time>
            <Position>
              <LatitudeDegrees>42.93093432672321796417236328125</LatitudeDegrees>
              <LongitudeDegrees>-8.13809238374233245849609375</LongitudeDegrees>
            </Position>
            <AltitudeMeters>360</AltitudeMeters>
            <DistanceMeters>59784.270766712</DistanceMeters>
          </Trackpoint>
          <Trackpoint>
            <Time>2019-07-26T12:40:30.000Z</Time>
            <Position>
              <LatitudeDegrees>42.930932901799678802490234375</LatitudeDegrees>
              <LongitudeDegrees>-8.1382377259433269500732421875</LongitudeDegrees>
            </Position>
            <AltitudeMeters>360.399993896484375</AltitudeMeters>
            <DistanceMeters>59796.116752865</DistanceMeters>
          </Trackpoint>
          <Trackpoint>
            <Time>2019-07-26T12:40:35.000Z</Time>
            <Position>
              <LatitudeDegrees>42.93090515770018100738525390625</LatitudeDegrees>
              <LongitudeDegrees>-8.13847803510725498199462890625</LongitudeDegrees>
            </Position>
            <AltitudeMeters>361.399993896484375</AltitudeMeters>
            <DistanceMeters>59815.942295414</DistanceMeters>
          </Trackpoint>
          <Trackpoint>
            <Time>2019-07-26T12:40:36.000Z</Time>
            <Position>
              <LatitudeDegrees>42.9309008829295635223388671875</LatitudeDegrees>
              <LongitudeDegrees>-8.138525895774364471435546875</LongitudeDegrees>
            </Position>
            <AltitudeMeters>361.600006103515625</AltitudeMeters>
            <DistanceMeters>59819.871854005</DistanceMeters>
          </Trackpoint>
          <Trackpoint>
            <Time>2019-07-26T12:40:42.000Z</Time>
            <Position>
              <LatitudeDegrees>42.93086257763206958770751953125</LatitudeDegrees>
              <LongitudeDegrees>-8.1388036720454692840576171875</LongitudeDegrees>
            </Position>
            <AltitudeMeters>362.399993896484375</AltitudeMeters>
            <DistanceMeters>59842.906768632</DistanceMeters>
          </Trackpoint>
          <Trackpoint>
            <Time>2019-07-26T12:40:44.000Z</Time>
            <Position>
              <LatitudeDegrees>42.93085318990051746368408203125</LatitudeDegrees>
              <LongitudeDegrees>-8.13889578916132450103759765625</LongitudeDegrees>
            </Position>
            <AltitudeMeters>362.79998779296875</AltitudeMeters>
            <DistanceMeters>59850.485707625</DistanceMeters>
          </Trackpoint>
          <Trackpoint>
            <Time>2019-07-26T12:40:49.000Z</Time>
            <Position>
              <LatitudeDegrees>42.930834330618381500244140625</LatitudeDegrees>
              <LongitudeDegrees>-8.13912905752658843994140625</LongitudeDegrees>
            </Position>
            <AltitudeMeters>363.600006103515625</AltitudeMeters>
            <DistanceMeters>59869.610881518</DistanceMeters>
          </Trackpoint>
          <Trackpoint>
            <Time>2019-07-26T12:40:52.000Z</Time>
            <Position>
              <LatitudeDegrees>42.930825613439083099365234375</LatitudeDegrees>
              <LongitudeDegrees>-8.13926509581506252288818359375</LongitudeDegrees>
            </Position>
            <AltitudeMeters>364.20001220703125</AltitudeMeters>
            <DistanceMeters>59880.739154895</DistanceMeters>
          </Trackpoint>
          <Trackpoint>
            <Time>2019-07-26T12:40:55.000Z</Time>
            <Position>
              <LatitudeDegrees>42.93081698007881641387939453125</LatitudeDegrees>
              <LongitudeDegrees>-8.139401972293853759765625</LongitudeDegrees>
            </Position>
            <AltitudeMeters>364.79998779296875</AltitudeMeters>
            <DistanceMeters>59891.934576327</DistanceMeters>
          </Trackpoint>
          <Trackpoint>
            <Time>2019-07-26T12:41:00.000Z</Time>
            <Position>
              <LatitudeDegrees>42.93078370392322540283203125</LatitudeDegrees>
              <LongitudeDegrees>-8.1396224163472652435302734375</LongitudeDegrees>
            </Position>
            <AltitudeMeters>365.399993896484375</AltitudeMeters>
            <DistanceMeters>59910.276947715</DistanceMeters>
          </Trackpoint>
          <Trackpoint>
            <Time>2019-07-26T12:41:01.000Z</Time>
            <Position>
              <LatitudeDegrees>42.9307778365910053253173828125</LatitudeDegrees>
              <LongitudeDegrees>-8.13966591842472553253173828125</LongitudeDegrees>
            </Position>
            <AltitudeMeters>365.600006103515625</AltitudeMeters>
            <DistanceMeters>59913.882957987</DistanceMeters>
          </Trackpoint>
          <Trackpoint>
            <Time>2019-07-26T12:41:06.000Z</Time>
            <Position>
              <LatitudeDegrees>42.9307560436427593231201171875</LatitudeDegrees>
              <LongitudeDegrees>-8.13988066278398036956787109375</LongitudeDegrees>
            </Position>
            <AltitudeMeters>366.79998779296875</AltitudeMeters>
            <DistanceMeters>59931.550772864</DistanceMeters>
          </Trackpoint>
          <Trackpoint>
            <Time>2019-07-26T12:41:07.000Z</Time>
            <Position>
              <LatitudeDegrees>42.93074690736830234527587890625</LatitudeDegrees>
              <LongitudeDegrees>-8.13992307521402835845947265625</LongitudeDegrees>
            </Position>
            <AltitudeMeters>367</AltitudeMeters>
            <DistanceMeters>59935.154278091</DistanceMeters>
          </Trackpoint>
          <Trackpoint>
            <Time>2019-07-26T12:41:12.000Z</Time>
            <Position>
              <LatitudeDegrees>42.93068580329418182373046875</LatitudeDegrees>
              <LongitudeDegrees>-8.14013496972620487213134765625</LongitudeDegrees>
            </Position>
            <AltitudeMeters>368</AltitudeMeters>
            <DistanceMeters>59953.713216795</DistanceMeters>
          </Trackpoint>
          <Trackpoint>
            <Time>2019-07-26T12:41:15.000Z</Time>
            <Position>
              <LatitudeDegrees>42.930644564330577850341796875</LatitudeDegrees>
              <LongitudeDegrees>-8.14026103354990482330322265625</LongitudeDegrees>
            </Position>
            <AltitudeMeters>368.79998779296875</AltitudeMeters>
            <DistanceMeters>59964.965358894</DistanceMeters>
          </Trackpoint>
          <Trackpoint>
            <Time>2019-07-26T12:41:17.000Z</Time>
            <Position>
              <LatitudeDegrees>42.9306185804307460784912109375</LatitudeDegrees>
              <LongitudeDegrees>-8.14033747650682926177978515625</LongitudeDegrees>
            </Position>
            <AltitudeMeters>369.20001220703125</AltitudeMeters>
            <DistanceMeters>59971.833627915</DistanceMeters>
          </Trackpoint>
          <Trackpoint>
            <Time>2019-07-26T12:41:22.000Z</Time>
            <Position>
              <LatitudeDegrees>42.9305525310337543487548828125</LatitudeDegrees>
              <LongitudeDegrees>-8.14050276763737201690673828125</LongitudeDegrees>
            </Position>
            <AltitudeMeters>370.20001220703125</AltitudeMeters>
            <DistanceMeters>59987.179191883</DistanceMeters>
          </Trackpoint>
          <Trackpoint>
            <Time>2019-07-26T12:41:24.000Z</Time>
            <Position>
              <LatitudeDegrees>42.93051992543041706085205078125</LatitudeDegrees>
              <LongitudeDegrees>-8.14057267270982265472412109375</LongitudeDegrees>
            </Position>
            <AltitudeMeters>370.600006103515625</AltitudeMeters>
            <DistanceMeters>59993.933445817</DistanceMeters>
          </Trackpoint>
          <Trackpoint>
            <Time>2019-07-26T12:41:29.000Z</Time>
            <Position>
              <LatitudeDegrees>42.9304063506424427032470703125</LatitudeDegrees>
              <LongitudeDegrees>-8.14075003378093242645263671875</LongitudeDegrees>
            </Position>
            <AltitudeMeters>371.600006103515625</AltitudeMeters>
            <DistanceMeters>60013.135427</DistanceMeters>
          </Trackpoint>
          <Trackpoint>
            <Time>2019-07-26T12:41:33.000Z</Time>
            <Position>
              <LatitudeDegrees>42.93033636175096035003662109375</LatitudeDegrees>
              <LongitudeDegrees>-8.1409092061221599578857421875</LongitudeDegrees>
            </Position>
            <AltitudeMeters>371.79998779296875</AltitudeMeters>
            <DistanceMeters>60028.266473168</DistanceMeters>
          </Trackpoint>
          <Trackpoint>
            <Time>2019-07-26T12:41:36.000Z</Time>
            <Position>
              <LatitudeDegrees>42.930281125009059906005859375</LatitudeDegrees>
              <LongitudeDegrees>-8.1410252116620540618896484375</LongitudeDegrees>
            </Position>
            <AltitudeMeters>372.600006103515625</AltitudeMeters>
            <DistanceMeters>60039.543065583</DistanceMeters>
          </Trackpoint>
          <Trackpoint>
            <Time>2019-07-26T12:41:43.000Z</Time>
            <Position>
              <LatitudeDegrees>42.93016277253627777099609375</LatitudeDegrees>
              <LongitudeDegrees>-8.1412843801081180572509765625</LongitudeDegrees>
            </Position>
            <AltitudeMeters>373.600006103515625</AltitudeMeters>
            <DistanceMeters>60064.434986467</DistanceMeters>
          </Trackpoint>
          <Trackpoint>
            <Time>2019-07-26T12:41:44.000Z</Time>
            <Position>
              <LatitudeDegrees>42.93014978058636188507080078125</LatitudeDegrees>
              <LongitudeDegrees>-8.141322098672389984130859375</LongitudeDegrees>
            </Position>
            <AltitudeMeters>373.79998779296875</AltitudeMeters>
            <DistanceMeters>60067.832108439</DistanceMeters>
          </Trackpoint>
          <Trackpoint>
            <Time>2019-07-26T12:41:49.000Z</Time>
            <Position>
              <LatitudeDegrees>42.93007425963878631591796875</LatitudeDegrees>
              <LongitudeDegrees>-8.1415133737027645111083984375</LongitudeDegrees>
            </Position>
            <AltitudeMeters>375.20001220703125</AltitudeMeters>
            <DistanceMeters>60085.542039131</DistanceMeters>
          </Trackpoint>
          <Trackpoint>
            <Time>2019-07-26T12:41:50.000Z</Time>
            <Position>
              <LatitudeDegrees>42.9300576634705066680908203125</LatitudeDegrees>
              <LongitudeDegrees>-8.1415526010096073150634765625</LongitudeDegrees>
            </Position>
            <AltitudeMeters>375.600006103515625</AltitudeMeters>
            <DistanceMeters>60089.233432548</DistanceMeters>
          </Trackpoint>
          <Trackpoint>
            <Time>2019-07-26T12:41:55.000Z</Time>
            <Position>
              <LatitudeDegrees>42.93000058270990848541259765625</LatitudeDegrees>
              <LongitudeDegrees>-8.14177505671977996826171875</LongitudeDegrees>
            </Position>
            <AltitudeMeters>376.399993896484375</AltitudeMeters>
            <DistanceMeters>60108.442936545</DistanceMeters>
          </Trackpoint>
          <Trackpoint>
            <Time>2019-07-26T12:41:56.000Z</Time>
            <Position>
              <LatitudeDegrees>42.92999035678803920745849609375</LatitudeDegrees>
              <LongitudeDegrees>-8.14181797206401824951171875</LongitudeDegrees>
            </Position>
            <AltitudeMeters>376.600006103515625</AltitudeMeters>
            <DistanceMeters>60112.120850969</DistanceMeters>
          </Trackpoint>
          <Trackpoint>
            <Time>2019-07-26T12:42:02.000Z</Time>
            <Position>
              <LatitudeDegrees>42.92994928546249866485595703125</LatitudeDegrees>
              <LongitudeDegrees>-8.1420893780887126922607421875</LongitudeDegrees>
            </Position>
            <AltitudeMeters>377.600006103515625</AltitudeMeters>
            <DistanceMeters>60134.706244219</DistanceMeters>
          </Trackpoint>
          <Trackpoint>
            <Time>2019-07-26T12:42:06.000Z</Time>
            <Position>
              <LatitudeDegrees>42.9299349524080753326416015625</LatitudeDegrees>
              <LongitudeDegrees>-8.14228408969938755035400390625</LongitudeDegrees>
            </Position>
            <AltitudeMeters>378.20001220703125</AltitudeMeters>
            <DistanceMeters>60150.654037265</DistanceMeters>
          </Trackpoint>
          <Trackpoint>
            <Time>2019-07-26T12:42:09.000Z</Time>
            <Position>
              <LatitudeDegrees>42.9299389757215976715087890625</LatitudeDegrees>
              <LongitudeDegrees>-8.14242591150104999542236328125</LongitudeDegrees>
            </Position>
            <AltitudeMeters>378.79998779296875</AltitudeMeters>
            <DistanceMeters>60162.220392893</DistanceMeters>
          </Trackpoint>
          <Trackpoint>
            <Time>2019-07-26T12:42:13.000Z</Time>
            <Position>
              <LatitudeDegrees>42.92993218638002872467041015625</LatitudeDegrees>
              <LongitudeDegrees>-8.14259505830705165863037109375</LongitudeDegrees>
            </Position>
            <AltitudeMeters>379.600006103515625</AltitudeMeters>
            <DistanceMeters>60176.025128793</DistanceMeters>
          </Trackpoint>
          <Trackpoint>
            <Time>2019-07-26T12:42:16.000Z</Time>
            <Position>
              <LatitudeDegrees>42.92992481030523777008056640625</LatitudeDegrees>
              <LongitudeDegrees>-8.14273553900420665740966796875</LongitudeDegrees>
            </Position>
            <AltitudeMeters>379.79998779296875</AltitudeMeters>
            <DistanceMeters>60187.502530728</DistanceMeters>
          </Trackpoint>
          <Trackpoint>
            <Time>2019-07-26T12:42:20.000Z</Time>
            <Position>
              <LatitudeDegrees>42.9299171827733516693115234375</LatitudeDegrees>
              <LongitudeDegrees>-8.14292999915778636932373046875</LongitudeDegrees>
            </Position>
            <AltitudeMeters>380.20001220703125</AltitudeMeters>
            <DistanceMeters>60203.372561039</DistanceMeters>
          </Trackpoint>
          <Trackpoint>
            <Time>2019-07-26T12:42:27.000Z</Time>
            <Position>
              <LatitudeDegrees>42.9299292527139186859130859375</LatitudeDegrees>
              <LongitudeDegrees>-8.143329732120037078857421875</LongitudeDegrees>
            </Position>
            <AltitudeMeters>381</AltitudeMeters>
            <DistanceMeters>60235.976142265</DistanceMeters>
          </Trackpoint>
          <Trackpoint>
            <Time>2019-07-26T12:42:28.000Z</Time>
            <Position>
              <LatitudeDegrees>42.929929755628108978271484375</LatitudeDegrees>
              <LongitudeDegrees>-8.1433890759944915771484375</LongitudeDegrees>
            </Position>
            <AltitudeMeters>381</AltitudeMeters>
            <DistanceMeters>60240.813179382</DistanceMeters>
          </Trackpoint>
          <Trackpoint>
            <Time>2019-07-26T12:42:34.000Z</Time>
            <Position>
              <LatitudeDegrees>42.929919026792049407958984375</LatitudeDegrees>
              <LongitudeDegrees>-8.14370750449597835540771484375</LongitudeDegrees>
            </Position>
            <AltitudeMeters>382.20001220703125</AltitudeMeters>
            <DistanceMeters>60266.790778825</DistanceMeters>
          </Trackpoint>
          <Trackpoint>
            <Time>2019-07-26T12:42:37.000Z</Time>
            <Position>
              <LatitudeDegrees>42.92991726659238338470458984375</LatitudeDegrees>
              <LongitudeDegrees>-8.14385603182017803192138671875</LongitudeDegrees>
            </Position>
            <AltitudeMeters>382.600006103515625</AltitudeMeters>
            <DistanceMeters>60278.89615286</DistanceMeters>
          </Trackpoint>
          <Trackpoint>
            <Time>2019-07-26T12:42:40.000Z</Time>
            <Position>
              <LatitudeDegrees>42.92990167625248432159423828125</LatitudeDegrees>
              <LongitudeDegrees>-8.14400372095406055450439453125</LongitudeDegrees>
            </Position>
            <AltitudeMeters>383.20001220703125</AltitudeMeters>
            <DistanceMeters>60291.055859752</DistanceMeters>
          </Trackpoint>
          <Trackpoint>
            <Time>2019-07-26T12:42:46.000Z</Time>
            <Position>
              <LatitudeDegrees>42.92991600930690765380859375</LatitudeDegrees>
              <LongitudeDegrees>-8.1443618796765804290771484375</LongitudeDegrees>
            </Position>
            <AltitudeMeters>383.399993896484375</AltitudeMeters>
            <DistanceMeters>60320.287040936</DistanceMeters>
          </Trackpoint>
          <Trackpoint>
            <Time>2019-07-26T12:42:52.000Z</Time>
            <Position>
              <LatitudeDegrees>42.92992967180907726287841796875</LatitudeDegrees>
              <LongitudeDegrees>-8.14465030096471309661865234375</LongitudeDegrees>
            </Position>
            <AltitudeMeters>384</AltitudeMeters>
            <DistanceMeters>60343.840634641</DistanceMeters>
          </Trackpoint>
          <Trackpoint>
            <Time>2019-07-26T12:42:58.000Z</Time>
            <Position>
              <LatitudeDegrees>42.92992967180907726287841796875</LatitudeDegrees>
              <LongitudeDegrees>-8.14489874057471752166748046875</LongitudeDegrees>
            </Position>
            <AltitudeMeters>384.600006103515625</AltitudeMeters>
            <DistanceMeters>60364.086677712</DistanceMeters>
          </Trackpoint>
          <Trackpoint>
            <Time>2019-07-26T12:43:00.000Z</Time>
            <Position>
              <LatitudeDegrees>42.92992732487618923187255859375</LatitudeDegrees>
              <LongitudeDegrees>-8.14497652463614940643310546875</LongitudeDegrees>
            </Position>
            <AltitudeMeters>384.79998779296875</AltitudeMeters>
            <DistanceMeters>60370.430734041</DistanceMeters>
          </Trackpoint>
          <Trackpoint>
            <Time>2019-07-26T12:43:04.000Z</Time>
            <Position>
              <LatitudeDegrees>42.92994157411158084869384765625</LatitudeDegrees>
              <LongitudeDegrees>-8.14515874721109867095947265625</LongitudeDegrees>
            </Position>
            <AltitudeMeters>385.20001220703125</AltitudeMeters>
            <DistanceMeters>60385.365354497</DistanceMeters>
          </Trackpoint>
          <Trackpoint>
            <Time>2019-07-26T12:43:06.000Z</Time>
            <Position>
              <LatitudeDegrees>42.92994325049221515655517578125</LatitudeDegrees>
              <LongitudeDegrees>-8.14525782130658626556396484375</LongitudeDegrees>
            </Position>
            <AltitudeMeters>385.20001220703125</AltitudeMeters>
            <DistanceMeters>60393.440948102</DistanceMeters>
          </Trackpoint>
          <Trackpoint>
            <Time>2019-07-26T12:43:11.000Z</Time>
            <Position>
              <LatitudeDegrees>42.92992807924747467041015625</LatitudeDegrees>
              <LongitudeDegrees>-8.14550064504146575927734375</LongitudeDegrees>
            </Position>
            <AltitudeMeters>385.600006103515625</AltitudeMeters>
            <DistanceMeters>60413.301304068</DistanceMeters>
          </Trackpoint>
          <Trackpoint>
            <Time>2019-07-26T12:43:13.000Z</Time>
            <Position>
              <LatitudeDegrees>42.9299238882958889007568359375</LatitudeDegrees>
              <LongitudeDegrees>-8.14560868777334690093994140625</LongitudeDegrees>
            </Position>
            <AltitudeMeters>385.79998779296875</AltitudeMeters>
            <DistanceMeters>60422.117816872</DistanceMeters>
          </Trackpoint>
          <Trackpoint>
            <Time>2019-07-26T12:43:19.000Z</Time>
            <Position>
              <LatitudeDegrees>42.9299396462738513946533203125</LatitudeDegrees>
              <LongitudeDegrees>-8.14597195945680141448974609375</LongitudeDegrees>
            </Position>
            <AltitudeMeters>386.20001220703125</AltitudeMeters>
            <DistanceMeters>60451.774069591</DistanceMeters>
          </Trackpoint>
          <Trackpoint>
            <Time>2019-07-26T12:43:22.000Z</Time>
            <Position>
              <LatitudeDegrees>42.92994375340640544891357421875</LatitudeDegrees>
              <LongitudeDegrees>-8.14616759307682514190673828125</LongitudeDegrees>
            </Position>
            <AltitudeMeters>386.600006103515625</AltitudeMeters>
            <DistanceMeters>60467.723278143</DistanceMeters>
          </Trackpoint>
          <Trackpoint>
            <Time>2019-07-26T12:43:27.000Z</Time>
            <Position>
              <LatitudeDegrees>42.92993738315999507904052734375</LatitudeDegrees>
              <LongitudeDegrees>-8.1464600376784801483154296875</LongitudeDegrees>
            </Position>
            <AltitudeMeters>387</AltitudeMeters>
            <DistanceMeters>60491.566084866</DistanceMeters>
          </Trackpoint>
          <Trackpoint>
            <Time>2019-07-26T12:43:31.000Z</Time>
            <Position>
              <LatitudeDegrees>42.929929755628108978271484375</LatitudeDegrees>
              <LongitudeDegrees>-8.14668039791285991668701171875</LongitudeDegrees>
            </Position>
            <AltitudeMeters>387.79998779296875</AltitudeMeters>
            <DistanceMeters>60509.544225097</DistanceMeters>
          </Trackpoint>
          <Trackpoint>
            <Time>2019-07-26T12:43:33.000Z</Time>
            <Position>
              <LatitudeDegrees>42.929932437837123870849609375</LatitudeDegrees>
              <LongitudeDegrees>-8.14678953029215335845947265625</LongitudeDegrees>
            </Position>
            <AltitudeMeters>388</AltitudeMeters>
            <DistanceMeters>60518.443313276</DistanceMeters>
          </Trackpoint>
          <Trackpoint>
            <Time>2019-07-26T12:43:39.000Z</Time>
            <Position>
              <LatitudeDegrees>42.929939813911914825439453125</LatitudeDegrees>
              <LongitudeDegrees>-8.14715213142335414886474609375</LongitudeDegrees>
            </Position>
            <AltitudeMeters>388.399993896484375</AltitudeMeters>
            <DistanceMeters>60548.004564733</DistanceMeters>
          </Trackpoint>
          <Trackpoint>
            <Time>2019-07-26T12:43:43.000Z</Time>
            <Position>
              <LatitudeDegrees>42.92995112948119640350341796875</LatitudeDegrees>
              <LongitudeDegrees>-8.14741884358227252960205078125</LongitudeDegrees>
            </Position>
            <AltitudeMeters>389.20001220703125</AltitudeMeters>
            <DistanceMeters>60569.776676088</DistanceMeters>
          </Trackpoint>
          <Trackpoint>
            <Time>2019-07-26T12:43:48.000Z</Time>
            <Position>
              <LatitudeDegrees>42.9299600981175899505615234375</LatitudeDegrees>
              <LongitudeDegrees>-8.14771757461130619049072265625</LongitudeDegrees>
            </Position>
            <AltitudeMeters>389.600006103515625</AltitudeMeters>
            <DistanceMeters>60594.141718374</DistanceMeters>
          </Trackpoint>
          <Trackpoint>
            <Time>2019-07-26T12:43:54.000Z</Time>
            <Position>
              <LatitudeDegrees>42.9299738444387912750244140625</LatitudeDegrees>
              <LongitudeDegrees>-8.14801077358424663543701171875</LongitudeDegrees>
            </Position>
            <AltitudeMeters>390.20001220703125</AltitudeMeters>
            <DistanceMeters>60618.084302044</DistanceMeters>
          </Trackpoint>
          <Trackpoint>
            <Time>2019-07-26T12:43:58.000Z</Time>
            <Position>
              <LatitudeDegrees>42.92999756522476673126220703125</LatitudeDegrees>
              <LongitudeDegrees>-8.14817338250577449798583984375</LongitudeDegrees>
            </Position>
            <AltitudeMeters>390.399993896484375</AltitudeMeters>
            <DistanceMeters>60631.596151863</DistanceMeters>
          </Trackpoint>
          <Trackpoint>
            <Time>2019-07-26T12:43:59.000Z</Time>
            <Position>
              <LatitudeDegrees>42.9300026781857013702392578125</LatitudeDegrees>
              <LongitudeDegrees>-8.1481974385678768157958984375</LongitudeDegrees>
            </Position>
            <AltitudeMeters>390.399993896484375</AltitudeMeters>
            <DistanceMeters>60633.638673667</DistanceMeters>
          </Trackpoint>
          <Trackpoint>
            <Time>2019-07-26T12:44:03.000Z</Time>
            <Position>
              <LatitudeDegrees>42.93001097626984119415283203125</LatitudeDegrees>
              <LongitudeDegrees>-8.14836365170776844024658203125</LongitudeDegrees>
            </Position>
            <AltitudeMeters>390.600006103515625</AltitudeMeters>
            <DistanceMeters>60647.215527148</DistanceMeters>
          </Trackpoint>
          <Trackpoint>
            <Time>2019-07-26T12:44:09.000Z</Time>
            <Position>
              <LatitudeDegrees>42.93001567013561725616455078125</LatitudeDegrees>
              <LongitudeDegrees>-8.1487432681024074554443359375</LongitudeDegrees>
            </Position>
            <AltitudeMeters>390.79998779296875</AltitudeMeters>
            <DistanceMeters>60678.156318739</DistanceMeters>
          </Trackpoint>
          <Trackpoint>
            <Time>2019-07-26T12:44:10.000Z</Time>
            <Position>
              <LatitudeDegrees>42.930007539689540863037109375</LatitudeDegrees>
              <LongitudeDegrees>-8.1488106586039066314697265625</LongitudeDegrees>
            </Position>
            <AltitudeMeters>390.79998779296875</AltitudeMeters>
            <DistanceMeters>60683.721672475</DistanceMeters>
          </Trackpoint>
          <Trackpoint>
            <Time>2019-07-26T12:44:12.000Z</Time>
            <Position>
              <LatitudeDegrees>42.92999823577702045440673828125</LatitudeDegrees>
              <LongitudeDegrees>-8.14894770272076129913330078125</LongitudeDegrees>
            </Position>
            <AltitudeMeters>390.79998779296875</AltitudeMeters>
            <DistanceMeters>60694.938045552</DistanceMeters>
          </Trackpoint>
          <Trackpoint>
            <Time>2019-07-26T12:44:16.000Z</Time>
            <Position>
              <LatitudeDegrees>42.9300020076334476470947265625</LatitudeDegrees>
              <LongitudeDegrees>-8.149242661893367767333984375</LongitudeDegrees>
            </Position>
            <AltitudeMeters>390.79998779296875</AltitudeMeters>
            <DistanceMeters>60718.979053077</DistanceMeters>
          </Trackpoint>
          <Trackpoint>
            <Time>2019-07-26T12:44:21.000Z</Time>
            <Position>
              <LatitudeDegrees>42.93001064099371433258056640625</LatitudeDegrees>
              <LongitudeDegrees>-8.14961976371705532073974609375</LongitudeDegrees>
            </Position>
            <AltitudeMeters>390.20001220703125</AltitudeMeters>
            <DistanceMeters>60749.725445431</DistanceMeters>
          </Trackpoint>
          <Trackpoint>
            <Time>2019-07-26T12:44:22.000Z</Time>
            <Position>
              <LatitudeDegrees>42.93001131154596805572509765625</LatitudeDegrees>
              <LongitudeDegrees>-8.1496887467801570892333984375</LongitudeDegrees>
            </Position>
            <AltitudeMeters>390.20001220703125</AltitudeMeters>
            <DistanceMeters>60755.347301668</DistanceMeters>
          </Trackpoint>
          <Trackpoint>
            <Time>2019-07-26T12:44:23.000Z</Time>
            <Position>
              <LatitudeDegrees>42.93001600541174411773681640625</LatitudeDegrees>
              <LongitudeDegrees>-8.14975789748132228851318359375</LongitudeDegrees>
            </Position>
            <AltitudeMeters>390</AltitudeMeters>
            <DistanceMeters>60761.006778777</DistanceMeters>
          </Trackpoint>
          <Trackpoint>
            <Time>2019-07-26T12:44:26.000Z</Time>
            <Position>
              <LatitudeDegrees>42.9300459288060665130615234375</LatitudeDegrees>
              <LongitudeDegrees>-8.14996258355677127838134765625</LongitudeDegrees>
            </Position>
            <AltitudeMeters>389.600006103515625</AltitudeMeters>
            <DistanceMeters>60778.016826085</DistanceMeters>
          </Trackpoint>
          <Trackpoint>
            <Time>2019-07-26T12:44:27.000Z</Time>
            <Position>
              <LatitudeDegrees>42.930047772824764251708984375</LatitudeDegrees>
              <LongitudeDegrees>-8.15001958049833774566650390625</LongitudeDegrees>
            </Position>
            <AltitudeMeters>389.399993896484375</AltitudeMeters>
            <DistanceMeters>60782.666342512</DistanceMeters>
          </Trackpoint>
          <Trackpoint>
            <Time>2019-07-26T12:44:29.000Z</Time>
            <Position>
              <LatitudeDegrees>42.9300435818731784820556640625</LatitudeDegrees>
              <LongitudeDegrees>-8.15012871287763118743896484375</LongitudeDegrees>
            </Position>
            <AltitudeMeters>389.20001220703125</AltitudeMeters>
            <DistanceMeters>60791.572530893</DistanceMeters>
          </Trackpoint>
          <Trackpoint>
            <Time>2019-07-26T12:44:31.000Z</Time>
            <Position>
              <LatitudeDegrees>42.9300452582538127899169921875</LatitudeDegrees>
              <LongitudeDegrees>-8.15027120523154735565185546875</LongitudeDegrees>
            </Position>
            <AltitudeMeters>388.79998779296875</AltitudeMeters>
            <DistanceMeters>60803.186412753</DistanceMeters>
          </Trackpoint>
          <Trackpoint>
            <Time>2019-07-26T12:44:32.000Z</Time>
            <Position>
              <LatitudeDegrees>42.9300469346344470977783203125</LatitudeDegrees>
              <LongitudeDegrees>-8.1503467261791229248046875</LongitudeDegrees>
            </Position>
            <AltitudeMeters>388.399993896484375</AltitudeMeters>
            <DistanceMeters>60809.343381237</DistanceMeters>
          </Trackpoint>
          <Trackpoint>
            <Time>2019-07-26T12:44:35.000Z</Time>
            <Position>
              <LatitudeDegrees>42.93005573563277721405029296875</LatitudeDegrees>
              <LongitudeDegrees>-8.1505892984569072723388671875</LongitudeDegrees>
            </Position>
            <AltitudeMeters>388.20001220703125</AltitudeMeters>
            <DistanceMeters>60829.135874164</DistanceMeters>
          </Trackpoint>
          <Trackpoint>
            <Time>2019-07-26T12:44:38.000Z</Time>
            <Position>
              <LatitudeDegrees>42.93006084859371185302734375</LatitudeDegrees>
              <LongitudeDegrees>-8.15084092319011688232421875</LongitudeDegrees>
            </Position>
            <AltitudeMeters>388</AltitudeMeters>
            <DistanceMeters>60849.64976269</DistanceMeters>
          </Trackpoint>
          <Trackpoint>
            <Time>2019-07-26T12:44:40.000Z</Time>
            <Position>
              <LatitudeDegrees>42.930093370378017425537109375</LatitudeDegrees>
              <LongitudeDegrees>-8.151004202663898468017578125</LongitudeDegrees>
            </Position>
            <AltitudeMeters>388</AltitudeMeters>
            <DistanceMeters>60863.439445419</DistanceMeters>
          </Trackpoint>
          <Trackpoint>
            <Time>2019-07-26T12:44:42.000Z</Time>
            <Position>
              <LatitudeDegrees>42.93014357797801494598388671875</LatitudeDegrees>
              <LongitudeDegrees>-8.15115767531096935272216796875</LongitudeDegrees>
            </Position>
            <AltitudeMeters>388</AltitudeMeters>
            <DistanceMeters>60877.138461758</DistanceMeters>
          </Trackpoint>
          <Trackpoint>
            <Time>2019-07-26T12:44:44.000Z</Time>
            <Position>
              <LatitudeDegrees>42.93013687245547771453857421875</LatitudeDegrees>
              <LongitudeDegrees>-8.151307962834835052490234375</LongitudeDegrees>
            </Position>
            <AltitudeMeters>388</AltitudeMeters>
            <DistanceMeters>60889.409056471</DistanceMeters>
          </Trackpoint>
          <Trackpoint>
            <Time>2019-07-26T12:44:46.000Z</Time>
            <Position>
              <LatitudeDegrees>42.93012656271457672119140625</LatitudeDegrees>
              <LongitudeDegrees>-8.1514529697597026824951171875</LongitudeDegrees>
            </Position>
            <AltitudeMeters>388</AltitudeMeters>
            <DistanceMeters>60901.281692796</DistanceMeters>
          </Trackpoint>
          <Trackpoint>
            <Time>2019-07-26T12:44:49.000Z</Time>
            <Position>
              <LatitudeDegrees>42.93010770343244075775146484375</LatitudeDegrees>
              <LongitudeDegrees>-8.151655308902263641357421875</LongitudeDegrees>
            </Position>
            <AltitudeMeters>388</AltitudeMeters>
            <DistanceMeters>60917.904035562</DistanceMeters>
          </Trackpoint>
          <Trackpoint>
            <Time>2019-07-26T12:44:53.000Z</Time>
            <Position>
              <LatitudeDegrees>42.93007920496165752410888671875</LatitudeDegrees>
              <LongitudeDegrees>-8.151908777654170989990234375</LongitudeDegrees>
            </Position>
            <AltitudeMeters>388.399993896484375</AltitudeMeters>
            <DistanceMeters>60938.802136364</DistanceMeters>
          </Trackpoint>
          <Trackpoint>
            <Time>2019-07-26T12:44:54.000Z</Time>
            <Position>
              <LatitudeDegrees>42.93007417581975460052490234375</LatitudeDegrees>
              <LongitudeDegrees>-8.15196887589991092681884765625</LongitudeDegrees>
            </Position>
            <AltitudeMeters>388.79998779296875</AltitudeMeters>
            <DistanceMeters>60943.730716853</DistanceMeters>
          </Trackpoint>
          <Trackpoint>
            <Time>2019-07-26T12:44:57.000Z</Time>
            <Position>
              <LatitudeDegrees>42.9300628602504730224609375</LatitudeDegrees>
              <LongitudeDegrees>-8.15214036963880062103271484375</LongitudeDegrees>
            </Position>
            <AltitudeMeters>389.20001220703125</AltitudeMeters>
            <DistanceMeters>60957.762852002</DistanceMeters>
          </Trackpoint>
          <Trackpoint>
            <Time>2019-07-26T12:44:58.000Z</Time>
            <Position>
              <LatitudeDegrees>42.93005540035665035247802734375</LatitudeDegrees>
              <LongitudeDegrees>-8.15219753421843051910400390625</LongitudeDegrees>
            </Position>
            <AltitudeMeters>389.399993896484375</AltitudeMeters>
            <DistanceMeters>60962.495144215</DistanceMeters>
          </Trackpoint>
          <Trackpoint>
            <Time>2019-07-26T12:45:01.000Z</Time>
            <Position>
              <LatitudeDegrees>42.93003226630389690399169921875</LatitudeDegrees>
              <LongitudeDegrees>-8.15236953087151050567626953125</LongitudeDegrees>
            </Position>
            <AltitudeMeters>389.600006103515625</AltitudeMeters>
            <DistanceMeters>60976.746300283</DistanceMeters>
          </Trackpoint>
          <Trackpoint>
            <Time>2019-07-26T12:45:02.000Z</Time>
            <Position>
              <LatitudeDegrees>42.93002656660974025726318359375</LatitudeDegrees>
              <LongitudeDegrees>-8.15242736600339412689208984375</LongitudeDegrees>
            </Position>
            <AltitudeMeters>389.79998779296875</AltitudeMeters>
            <DistanceMeters>60981.501435551</DistanceMeters>
          </Trackpoint>
          <Trackpoint>
            <Time>2019-07-26T12:45:06.000Z</Time>
            <Position>
              <LatitudeDegrees>42.9299782030284404754638671875</LatitudeDegrees>
              <LongitudeDegrees>-8.152661807835102081298828125</LongitudeDegrees>
            </Position>
            <AltitudeMeters>390</AltitudeMeters>
            <DistanceMeters>61001.350876234</DistanceMeters>
          </Trackpoint>
          <Trackpoint>
            <Time>2019-07-26T12:45:07.000Z</Time>
            <Position>
              <LatitudeDegrees>42.9299671389162540435791015625</LatitudeDegrees>
              <LongitudeDegrees>-8.15272140316665172576904296875</LongitudeDegrees>
            </Position>
            <AltitudeMeters>390.20001220703125</AltitudeMeters>
            <DistanceMeters>61006.361226772</DistanceMeters>
          </Trackpoint>
          <Trackpoint>
            <Time>2019-07-26T12:45:11.000Z</Time>
            <Position>
              <LatitudeDegrees>42.92992539703845977783203125</LatitudeDegrees>
              <LongitudeDegrees>-8.1529586948454380035400390625</LongitudeDegrees>
            </Position>
            <AltitudeMeters>391</AltitudeMeters>
            <DistanceMeters>61026.249525806</DistanceMeters>
          </Trackpoint>
          <Trackpoint>
            <Time>2019-07-26T12:45:12.000Z</Time>
            <Position>
              <LatitudeDegrees>42.92991257272660732269287109375</LatitudeDegrees>
              <LongitudeDegrees>-8.1530173681676387786865234375</LongitudeDegrees>
            </Position>
            <AltitudeMeters>391.20001220703125</AltitudeMeters>
            <DistanceMeters>61031.240011838</DistanceMeters>
          </Trackpoint>
          <Trackpoint>
            <Time>2019-07-26T12:45:14.000Z</Time>
            <Position>
              <LatitudeDegrees>42.9298804700374603271484375</LatitudeDegrees>
              <LongitudeDegrees>-8.15313429571688175201416015625</LongitudeDegrees>
            </Position>
            <AltitudeMeters>391.399993896484375</AltitudeMeters>
            <DistanceMeters>61041.416747401</DistanceMeters>
          </Trackpoint>
          <Trackpoint>
            <Time>2019-07-26T12:45:20.000Z</Time>
            <Position>
              <LatitudeDegrees>42.92977477423846721649169921875</LatitudeDegrees>
              <LongitudeDegrees>-8.1534823961555957794189453125</LongitudeDegrees>
            </Position>
            <AltitudeMeters>392</AltitudeMeters>
            <DistanceMeters>61072.127582041</DistanceMeters>
          </Trackpoint>
          <Trackpoint>
            <Time>2019-07-26T12:45:24.000Z</Time>
            <Position>
              <LatitudeDegrees>42.92970604263246059417724609375</LatitudeDegrees>
              <LongitudeDegrees>-8.15371901728212833404541015625</LongitudeDegrees>
            </Position>
            <AltitudeMeters>392.600006103515625</AltitudeMeters>
            <DistanceMeters>61092.873025958</DistanceMeters>
          </Trackpoint>
          <Trackpoint>
            <Time>2019-07-26T12:45:28.000Z</Time>
            <Position>
              <LatitudeDegrees>42.929632365703582763671875</LatitudeDegrees>
              <LongitudeDegrees>-8.15396561287343502044677734375</LongitudeDegrees>
            </Position>
            <AltitudeMeters>392.79998779296875</AltitudeMeters>
            <DistanceMeters>61114.577843121</DistanceMeters>
          </Trackpoint>
          <Trackpoint>
            <Time>2019-07-26T12:45:35.000Z</Time>
            <Position>
              <LatitudeDegrees>42.929508648812770843505859375</LatitudeDegrees>
              <LongitudeDegrees>-8.15436542965471744537353515625</LongitudeDegrees>
            </Position>
            <AltitudeMeters>393.600006103515625</AltitudeMeters>
            <DistanceMeters>61149.950891371</DistanceMeters>
          </Trackpoint>
          <Trackpoint>
            <Time>2019-07-26T12:45:36.000Z</Time>
            <Position>
              <LatitudeDegrees>42.929489873349666595458984375</LatitudeDegrees>
              <LongitudeDegrees>-8.15442108549177646636962890625</LongitudeDegrees>
            </Position>
            <AltitudeMeters>393.600006103515625</AltitudeMeters>
            <DistanceMeters>61154.944995008</DistanceMeters>
          </Trackpoint>
          <Trackpoint>
            <Time>2019-07-26T12:45:37.000Z</Time>
            <Position>
              <LatitudeDegrees>42.92947319336235523223876953125</LatitudeDegrees>
              <LongitudeDegrees>-8.154477663338184356689453125</LongitudeDegrees>
            </Position>
            <AltitudeMeters>393.600006103515625</AltitudeMeters>
            <DistanceMeters>61159.915537146</DistanceMeters>
          </Trackpoint>
          <Trackpoint>
            <Time>2019-07-26T12:45:44.000Z</Time>
            <Position>
              <LatitudeDegrees>42.92934067547321319580078125</LatitudeDegrees>
              <LongitudeDegrees>-8.15486649982631206512451171875</LongitudeDegrees>
            </Position>
            <AltitudeMeters>394.20001220703125</AltitudeMeters>
            <DistanceMeters>61194.868062693</DistanceMeters>
          </Trackpoint>
          <Trackpoint>
            <Time>2019-07-26T12:45:48.000Z</Time>
            <Position>
              <LatitudeDegrees>42.92926465161144733428955078125</LatitudeDegrees>
              <LongitudeDegrees>-8.1550789810717105865478515625</LongitudeDegrees>
            </Position>
            <AltitudeMeters>394.79998779296875</AltitudeMeters>
            <DistanceMeters>61214.14092352</DistanceMeters>
          </Trackpoint>
          <Trackpoint>
            <Time>2019-07-26T12:45:52.000Z</Time>
            <Position>
              <LatitudeDegrees>42.92921050451695919036865234375</LatitudeDegrees>
              <LongitudeDegrees>-8.15527771599590778350830078125</LongitudeDegrees>
            </Position>
            <AltitudeMeters>395.20001220703125</AltitudeMeters>
            <DistanceMeters>61231.421682415</DistanceMeters>
          </Trackpoint>
          <Trackpoint>
            <Time>2019-07-26T12:45:54.000Z</Time>
            <Position>
              <LatitudeDegrees>42.9291938245296478271484375</LatitudeDegrees>
              <LongitudeDegrees>-8.15535642206668853759765625</LongitudeDegrees>
            </Position>
            <AltitudeMeters>395.600006103515625</AltitudeMeters>
            <DistanceMeters>61238.099295573</DistanceMeters>
          </Trackpoint>
          <Trackpoint>
            <Time>2019-07-26T12:45:57.000Z</Time>
            <Position>
              <LatitudeDegrees>42.92916138656437397003173828125</LatitudeDegrees>
              <LongitudeDegrees>-8.1554917059838771820068359375</LongitudeDegrees>
            </Position>
            <AltitudeMeters>395.79998779296875</AltitudeMeters>
            <DistanceMeters>61249.700341186</DistanceMeters>
          </Trackpoint>
          <Trackpoint>
            <Time>2019-07-26T12:46:01.000Z</Time>
            <Position>
              <LatitudeDegrees>42.929132468998432159423828125</LatitudeDegrees>
              <LongitudeDegrees>-8.15565071068704128265380859375</LongitudeDegrees>
            </Position>
            <AltitudeMeters>396</AltitudeMeters>
            <DistanceMeters>61263.052186345</DistanceMeters>
          </Trackpoint>
          <Trackpoint>
            <Time>2019-07-26T12:46:02.000Z</Time>
            <Position>
              <LatitudeDegrees>42.9291321337223052978515625</LatitudeDegrees>
              <LongitudeDegrees>-8.1556841544806957244873046875</LongitudeDegrees>
            </Position>
            <AltitudeMeters>396</AltitudeMeters>
            <DistanceMeters>61265.776653786</DistanceMeters>
          </Trackpoint>
          <Trackpoint>
            <Time>2019-07-26T12:46:07.000Z</Time>
            <Position>
              <LatitudeDegrees>42.9290920682251453399658203125</LatitudeDegrees>
              <LongitudeDegrees>-8.155818767845630645751953125</LongitudeDegrees>
            </Position>
            <AltitudeMeters>396.399993896484375</AltitudeMeters>
            <DistanceMeters>61277.618065316</DistanceMeters>
          </Trackpoint>
          <Trackpoint>
            <Time>2019-07-26T12:46:14.000Z</Time>
            <Position>
              <LatitudeDegrees>42.9290015436708927154541015625</LatitudeDegrees>
              <LongitudeDegrees>-8.15613367594778537750244140625</LongitudeDegrees>
            </Position>
            <AltitudeMeters>396.79998779296875</AltitudeMeters>
            <DistanceMeters>61305.188588977</DistanceMeters>
          </Trackpoint>
          <Trackpoint>
            <Time>2019-07-26T12:46:15.000Z</Time>
            <Position>
              <LatitudeDegrees>42.92899525724351406097412109375</LatitudeDegrees>
              <LongitudeDegrees>-8.156187236309051513671875</LongitudeDegrees>
            </Position>
            <AltitudeMeters>396.79998779296875</AltitudeMeters>
            <DistanceMeters>61309.610140232</DistanceMeters>
          </Trackpoint>
          <Trackpoint>
            <Time>2019-07-26T12:46:18.000Z</Time>
            <Position>
              <LatitudeDegrees>42.928960807621479034423828125</LatitudeDegrees>
              <LongitudeDegrees>-8.15635227598249912261962890625</LongitudeDegrees>
            </Position>
            <AltitudeMeters>397.20001220703125</AltitudeMeters>
            <DistanceMeters>61323.595864591</DistanceMeters>
          </Trackpoint>
          <Trackpoint>
            <Time>2019-07-26T12:46:20.000Z</Time>
            <Position>
              <LatitudeDegrees>42.928909175097942352294921875</LatitudeDegrees>
              <LongitudeDegrees>-8.15644967369735240936279296875</LongitudeDegrees>
            </Position>
            <AltitudeMeters>397.399993896484375</AltitudeMeters>
            <DistanceMeters>61333.395141753</DistanceMeters>
          </Trackpoint>
          <Trackpoint>
            <Time>2019-07-26T12:46:21.000Z</Time>
            <Position>
              <LatitudeDegrees>42.92889408767223358154296875</LatitudeDegrees>
              <LongitudeDegrees>-8.1565069220960140228271484375</LongitudeDegrees>
            </Position>
            <AltitudeMeters>397.399993896484375</AltitudeMeters>
            <DistanceMeters>61338.352950552</DistanceMeters>
          </Trackpoint>
          <Trackpoint>
            <Time>2019-07-26T12:46:23.000Z</Time>
            <Position>
              <LatitudeDegrees>42.92886533774435520172119140625</LatitudeDegrees>
              <LongitudeDegrees>-8.15661932341754436492919921875</LongitudeDegrees>
            </Position>
            <AltitudeMeters>397.399993896484375</AltitudeMeters>
            <DistanceMeters>61348.055917984</DistanceMeters>
          </Trackpoint>
          <Trackpoint>
            <Time>2019-07-26T12:46:27.000Z</Time>
            <Position>
              <LatitudeDegrees>42.92869954369962215423583984375</LatitudeDegrees>
              <LongitudeDegrees>-8.1568163819611072540283203125</LongitudeDegrees>
            </Position>
            <AltitudeMeters>397.399993896484375</AltitudeMeters>
            <DistanceMeters>61372.518607247</DistanceMeters>
          </Trackpoint>
          <Trackpoint>
            <Time>2019-07-26T12:46:34.000Z</Time>
            <Position>
              <LatitudeDegrees>42.92848396115005016326904296875</LatitudeDegrees>
              <LongitudeDegrees>-8.157315440475940704345703125</LongitudeDegrees>
            </Position>
            <AltitudeMeters>397.20001220703125</AltitudeMeters>
            <DistanceMeters>61419.740287406</DistanceMeters>
          </Trackpoint>
          <Trackpoint>
            <Time>2019-07-26T12:46:41.000Z</Time>
            <Position>
              <LatitudeDegrees>42.92826301418244838714599609375</LatitudeDegrees>
              <LongitudeDegrees>-8.15788532607257366180419921875</LongitudeDegrees>
            </Position>
            <AltitudeMeters>396.600006103515625</AltitudeMeters>
            <DistanceMeters>61472.292552053</DistanceMeters>
          </Trackpoint>
          <Trackpoint>
            <Time>2019-07-26T12:46:45.000Z</Time>
            <Position>
              <LatitudeDegrees>42.9281341843307018280029296875</LatitudeDegrees>
              <LongitudeDegrees>-8.15824113786220550537109375</LongitudeDegrees>
            </Position>
            <AltitudeMeters>396.20001220703125</AltitudeMeters>
            <DistanceMeters>61504.641577367</DistanceMeters>
          </Trackpoint>
          <Trackpoint>
            <Time>2019-07-26T12:46:48.000Z</Time>
            <Position>
              <LatitudeDegrees>42.928043492138385772705078125</LatitudeDegrees>
              <LongitudeDegrees>-8.15848790109157562255859375</LongitudeDegrees>
            </Position>
            <AltitudeMeters>396</AltitudeMeters>
            <DistanceMeters>61527.143052568</DistanceMeters>
          </Trackpoint>
          <Trackpoint>
            <Time>2019-07-26T12:46:49.000Z</Time>
            <Position>
              <LatitudeDegrees>42.9280195198953151702880859375</LatitudeDegrees>
              <LongitudeDegrees>-8.1585688702762126922607421875</LongitudeDegrees>
            </Position>
            <AltitudeMeters>396</AltitudeMeters>
            <DistanceMeters>61534.260547131</DistanceMeters>
          </Trackpoint>
          <Trackpoint>
            <Time>2019-07-26T12:46:51.000Z</Time>
            <Position>
              <LatitudeDegrees>42.9279600083827972412109375</LatitudeDegrees>
              <LongitudeDegrees>-8.158729970455169677734375</LongitudeDegrees>
            </Position>
            <AltitudeMeters>395.79998779296875</AltitudeMeters>
            <DistanceMeters>61548.965451432</DistanceMeters>
          </Trackpoint>
          <Trackpoint>
            <Time>2019-07-26T12:46:54.000Z</Time>
            <Position>
              <LatitudeDegrees>42.92786621488630771636962890625</LatitudeDegrees>
              <LongitudeDegrees>-8.15896960906684398651123046875</LongitudeDegrees>
            </Position>
            <AltitudeMeters>395.600006103515625</AltitudeMeters>
            <DistanceMeters>61571.110142249</DistanceMeters>
          </Trackpoint>
          <Trackpoint>
            <Time>2019-07-26T12:46:56.000Z</Time>
            <Position>
              <LatitudeDegrees>42.92781315743923187255859375</LatitudeDegrees>
              <LongitudeDegrees>-8.15913205035030841827392578125</LongitudeDegrees>
            </Position>
            <AltitudeMeters>395.20001220703125</AltitudeMeters>
            <DistanceMeters>61585.605999549</DistanceMeters>
          </Trackpoint>
          <Trackpoint>
            <Time>2019-07-26T12:46:59.000Z</Time>
            <Position>
              <LatitudeDegrees>42.9277452640235424041748046875</LatitudeDegrees>
              <LongitudeDegrees>-8.159376047551631927490234375</LongitudeDegrees>
            </Position>
            <AltitudeMeters>394.399993896484375</AltitudeMeters>
            <DistanceMeters>61606.878403991</DistanceMeters>
          </Trackpoint>
          <Trackpoint>
            <Time>2019-07-26T12:47:00.000Z</Time>
            <Position>
              <LatitudeDegrees>42.92773067951202392578125</LatitudeDegrees>
              <LongitudeDegrees>-8.1594555079936981201171875</LongitudeDegrees>
            </Position>
            <AltitudeMeters>394.20001220703125</AltitudeMeters>
            <DistanceMeters>61613.554664721</DistanceMeters>
          </Trackpoint>
          <Trackpoint>
            <Time>2019-07-26T12:47:01.000Z</Time>
            <Position>
              <LatitudeDegrees>42.9277228005230426788330078125</LatitudeDegrees>
              <LongitudeDegrees>-8.159533627331256866455078125</LongitudeDegrees>
            </Position>
            <AltitudeMeters>394</AltitudeMeters>
            <DistanceMeters>61619.982152545</DistanceMeters>
          </Trackpoint>
          <Trackpoint>
            <Time>2019-07-26T12:47:04.000Z</Time>
            <Position>
              <LatitudeDegrees>42.92771995067596435546875</LatitudeDegrees>
              <LongitudeDegrees>-8.15977611579000949859619140625</LongitudeDegrees>
            </Position>
            <AltitudeMeters>393.399993896484375</AltitudeMeters>
            <DistanceMeters>61639.746795394</DistanceMeters>
          </Trackpoint>
          <Trackpoint>
            <Time>2019-07-26T12:47:07.000Z</Time>
            <Position>
              <LatitudeDegrees>42.92768575251102447509765625</LatitudeDegrees>
              <LongitudeDegrees>-8.15999521873891353607177734375</LongitudeDegrees>
            </Position>
            <AltitudeMeters>393</AltitudeMeters>
            <DistanceMeters>61658.004293631</DistanceMeters>
          </Trackpoint>
          <Trackpoint>
            <Time>2019-07-26T12:47:10.000Z</Time>
            <Position>
              <LatitudeDegrees>42.92764107696712017059326171875</LatitudeDegrees>
              <LongitudeDegrees>-8.16019646823406219482421875</LongitudeDegrees>
            </Position>
            <AltitudeMeters>392.79998779296875</AltitudeMeters>
            <DistanceMeters>61675.142329295</DistanceMeters>
          </Trackpoint>
          <Trackpoint>
            <Time>2019-07-26T12:47:13.000Z</Time>
            <Position>
              <LatitudeDegrees>42.92759883217513561248779296875</LatitudeDegrees>
              <LongitudeDegrees>-8.16036318428814411163330078125</LongitudeDegrees>
            </Position>
            <AltitudeMeters>392.600006103515625</AltitudeMeters>
            <DistanceMeters>61689.519654494</DistanceMeters>
          </Trackpoint>
          <Trackpoint>
            <Time>2019-07-26T12:47:16.000Z</Time>
            <Position>
              <LatitudeDegrees>42.92758944444358348846435546875</LatitudeDegrees>
              <LongitudeDegrees>-8.1604501046240329742431640625</LongitudeDegrees>
            </Position>
            <AltitudeMeters>392.20001220703125</AltitudeMeters>
            <DistanceMeters>61696.680155457</DistanceMeters>
          </Trackpoint>
          <Trackpoint>
            <Time>2019-07-26T12:47:17.000Z</Time>
            <Position>
              <LatitudeDegrees>42.92758709751069545745849609375</LatitudeDegrees>
              <LongitudeDegrees>-8.1604648567736148834228515625</LongitudeDegrees>
            </Position>
            <AltitudeMeters>392</AltitudeMeters>
            <DistanceMeters>61697.911842448</DistanceMeters>
          </Trackpoint>
          <Trackpoint>
            <Time>2019-07-26T12:47:21.000Z</Time>
            <Position>
              <LatitudeDegrees>42.9273922182619571685791015625</LatitudeDegrees>
              <LongitudeDegrees>-8.16037994809448719024658203125</LongitudeDegrees>
            </Position>
            <AltitudeMeters>391.399993896484375</AltitudeMeters>
            <DistanceMeters>61720.679418256</DistanceMeters>
          </Trackpoint>
          <Trackpoint>
            <Time>2019-07-26T12:47:34.000Z</Time>
            <Position>
              <LatitudeDegrees>42.9273094050586223602294921875</LatitudeDegrees>
              <LongitudeDegrees>-8.16040827892720699310302734375</LongitudeDegrees>
            </Position>
            <AltitudeMeters>390.79998779296875</AltitudeMeters>
            <DistanceMeters>61730.181614548</DistanceMeters>
          </Trackpoint>
          <Trackpoint>
            <Time>2019-07-26T12:47:38.000Z</Time>
            <Position>
              <LatitudeDegrees>42.92725081555545330047607421875</LatitudeDegrees>
              <LongitudeDegrees>-8.16047851927578449249267578125</LongitudeDegrees>
            </Position>
            <AltitudeMeters>390.79998779296875</AltitudeMeters>
            <DistanceMeters>61738.859275953</DistanceMeters>
          </Trackpoint>
          <Trackpoint>
            <Time>2019-07-26T12:47:39.000Z</Time>
            <Position>
              <LatitudeDegrees>42.92724343948066234588623046875</LatitudeDegrees>
              <LongitudeDegrees>-8.160508610308170318603515625</LongitudeDegrees>
            </Position>
            <AltitudeMeters>390.79998779296875</AltitudeMeters>
            <DistanceMeters>61741.444282059</DistanceMeters>
          </Trackpoint>
          <Trackpoint>
            <Time>2019-07-26T12:47:42.000Z</Time>
            <Position>
              <LatitudeDegrees>42.92720253579318523406982421875</LatitudeDegrees>
              <LongitudeDegrees>-8.16067364998161792755126953125</LongitudeDegrees>
            </Position>
            <AltitudeMeters>390.600006103515625</AltitudeMeters>
            <DistanceMeters>61755.643702711</DistanceMeters>
          </Trackpoint>
          <Trackpoint>
            <Time>2019-07-26T12:47:44.000Z</Time>
            <Position>
              <LatitudeDegrees>42.9271437786519527435302734375</LatitudeDegrees>
              <LongitudeDegrees>-8.1608098559081554412841796875</LongitudeDegrees>
            </Position>
            <AltitudeMeters>390.600006103515625</AltitudeMeters>
            <DistanceMeters>61768.527446933</DistanceMeters>
          </Trackpoint>
          <Trackpoint>
            <Time>2019-07-26T12:47:47.000Z</Time>
            <Position>
              <LatitudeDegrees>42.92703053914010524749755859375</LatitudeDegrees>
              <LongitudeDegrees>-8.16100389696657657623291015625</LongitudeDegrees>
            </Position>
            <AltitudeMeters>389.79998779296875</AltitudeMeters>
            <DistanceMeters>61788.749614024</DistanceMeters>
          </Trackpoint>
          <Trackpoint>
            <Time>2019-07-26T12:47:48.000Z</Time>
            <Position>
              <LatitudeDegrees>42.92700304649770259857177734375</LatitudeDegrees>
              <LongitudeDegrees>-8.16108754836022853851318359375</LongitudeDegrees>
            </Position>
            <AltitudeMeters>389.399993896484375</AltitudeMeters>
            <DistanceMeters>61796.222364035</DistanceMeters>
          </Trackpoint>
          <Trackpoint>
            <Time>2019-07-26T12:47:50.000Z</Time>
            <Position>
              <LatitudeDegrees>42.926941104233264923095703125</LatitudeDegrees>
              <LongitudeDegrees>-8.16122149117290973663330078125</LongitudeDegrees>
            </Position>
            <AltitudeMeters>388.600006103515625</AltitudeMeters>
            <DistanceMeters>61809.133413998</DistanceMeters>
          </Trackpoint>
          <Trackpoint>
            <Time>2019-07-26T12:47:52.000Z</Time>
            <Position>
              <LatitudeDegrees>42.9268708638846874237060546875</LatitudeDegrees>
              <LongitudeDegrees>-8.1613399274647235870361328125</LongitudeDegrees>
            </Position>
            <AltitudeMeters>387.79998779296875</AltitudeMeters>
            <DistanceMeters>61821.554681491</DistanceMeters>
          </Trackpoint>
          <Trackpoint>
            <Time>2019-07-26T12:47:53.000Z</Time>
            <Position>
              <LatitudeDegrees>42.9268386773765087127685546875</LatitudeDegrees>
              <LongitudeDegrees>-8.16139600239694118499755859375</LongitudeDegrees>
            </Position>
            <AltitudeMeters>387.20001220703125</AltitudeMeters>
            <DistanceMeters>61827.361428036</DistanceMeters>
          </Trackpoint>
          <Trackpoint>
            <Time>2019-07-26T12:47:55.000Z</Time>
            <Position>
              <LatitudeDegrees>42.92679383419454097747802734375</LatitudeDegrees>
              <LongitudeDegrees>-8.16151343286037445068359375</LongitudeDegrees>
            </Position>
            <AltitudeMeters>386.79998779296875</AltitudeMeters>
            <DistanceMeters>61838.155224694</DistanceMeters>
          </Trackpoint>
          <Trackpoint>
            <Time>2019-07-26T12:47:58.000Z</Time>
            <Position>
              <LatitudeDegrees>42.92672141455113887786865234375</LatitudeDegrees>
              <LongitudeDegrees>-8.161673359572887420654296875</LongitudeDegrees>
            </Position>
            <AltitudeMeters>386.600006103515625</AltitudeMeters>
            <DistanceMeters>61853.480179119</DistanceMeters>
          </Trackpoint>
          <Trackpoint>
            <Time>2019-07-26T12:47:59.000Z</Time>
            <Position>
              <LatitudeDegrees>42.92669157497584819793701171875</LatitudeDegrees>
              <LongitudeDegrees>-8.1617251597344875335693359375</LongitudeDegrees>
            </Position>
            <AltitudeMeters>386.600006103515625</AltitudeMeters>
            <DistanceMeters>61858.85150058</DistanceMeters>
          </Trackpoint>
          <Trackpoint>
            <Time>2019-07-26T12:48:00.000Z</Time>
            <Position>
              <LatitudeDegrees>42.9266676865518093109130859375</LatitudeDegrees>
              <LongitudeDegrees>-8.1617831625044345855712890625</LongitudeDegrees>
            </Position>
            <AltitudeMeters>386.600006103515625</AltitudeMeters>
            <DistanceMeters>61864.273855134</DistanceMeters>
          </Trackpoint>
          <Trackpoint>
            <Time>2019-07-26T12:48:04.000Z</Time>
            <Position>
              <LatitudeDegrees>42.926570288836956024169921875</LatitudeDegrees>
              <LongitudeDegrees>-8.1620047800242900848388671875</LongitudeDegrees>
            </Position>
            <AltitudeMeters>386.600006103515625</AltitudeMeters>
            <DistanceMeters>61885.338943704</DistanceMeters>
          </Trackpoint>
          <Trackpoint>
            <Time>2019-07-26T12:48:05.000Z</Time>
            <Position>
              <LatitudeDegrees>42.926554866135120391845703125</LatitudeDegrees>
              <LongitudeDegrees>-8.1620647944509983062744140625</LongitudeDegrees>
            </Position>
            <AltitudeMeters>386.79998779296875</AltitudeMeters>
            <DistanceMeters>61890.522039055</DistanceMeters>
          </Trackpoint>
          <Trackpoint>
            <Time>2019-07-26T12:48:11.000Z</Time>
            <Position>
              <LatitudeDegrees>42.926473729312419891357421875</LatitudeDegrees>
              <LongitudeDegrees>-8.162378109991550445556640625</LongitudeDegrees>
            </Position>
            <AltitudeMeters>388</AltitudeMeters>
            <DistanceMeters>61917.606653139</DistanceMeters>
          </Trackpoint>
          <Trackpoint>
            <Time>2019-07-26T12:48:17.000Z</Time>
            <Position>
              <LatitudeDegrees>42.92643022723495960235595703125</LatitudeDegrees>
              <LongitudeDegrees>-8.1626669503748416900634765625</LongitudeDegrees>
            </Position>
            <AltitudeMeters>388.20001220703125</AltitudeMeters>
            <DistanceMeters>61941.639583662</DistanceMeters>
          </Trackpoint>
          <Trackpoint>
            <Time>2019-07-26T12:48:19.000Z</Time>
            <Position>
              <LatitudeDegrees>42.92641329579055309295654296875</LatitudeDegrees>
              <LongitudeDegrees>-8.1627521105110645294189453125</LongitudeDegrees>
            </Position>
            <AltitudeMeters>388.20001220703125</AltitudeMeters>
            <DistanceMeters>61948.830287224</DistanceMeters>
          </Trackpoint>
          <Trackpoint>
            <Time>2019-07-26T12:48:24.000Z</Time>
            <Position>
              <LatitudeDegrees>42.92637951672077178955078125</LatitudeDegrees>
              <LongitudeDegrees>-8.16297096200287342071533203125</LongitudeDegrees>
            </Position>
            <AltitudeMeters>388.20001220703125</AltitudeMeters>
            <DistanceMeters>61967.058085573</DistanceMeters>
          </Trackpoint>
          <Trackpoint>
            <Time>2019-07-26T12:48:25.000Z</Time>
            <Position>
              <LatitudeDegrees>42.92637557722628116607666015625</LatitudeDegrees>
              <LongitudeDegrees>-8.163018487393856048583984375</LongitudeDegrees>
            </Position>
            <AltitudeMeters>388.20001220703125</AltitudeMeters>
            <DistanceMeters>61970.9576559</DistanceMeters>
          </Trackpoint>
          <Trackpoint>
            <Time>2019-07-26T12:48:28.000Z</Time>
            <Position>
              <LatitudeDegrees>42.9263652674853801727294921875</LatitudeDegrees>
              <LongitudeDegrees>-8.16316374577581882476806640625</LongitudeDegrees>
            </Position>
            <AltitudeMeters>388</AltitudeMeters>
            <DistanceMeters>61982.851569367</DistanceMeters>
          </Trackpoint>
          <Trackpoint>
            <Time>2019-07-26T12:48:32.000Z</Time>
            <Position>
              <LatitudeDegrees>42.92635965161025524139404296875</LatitudeDegrees>
              <LongitudeDegrees>-8.16335082985460758209228515625</LongitudeDegrees>
            </Position>
            <AltitudeMeters>388</AltitudeMeters>
            <DistanceMeters>61998.111273862</DistanceMeters>
          </Trackpoint>
          <Trackpoint>
            <Time>2019-07-26T12:48:37.000Z</Time>
            <Position>
              <LatitudeDegrees>42.9263739846646785736083984375</LatitudeDegrees>
              <LongitudeDegrees>-8.163599856197834014892578125</LongitudeDegrees>
            </Position>
            <AltitudeMeters>387.600006103515625</AltitudeMeters>
            <DistanceMeters>62018.469181133</DistanceMeters>
          </Trackpoint>
          <Trackpoint>
            <Time>2019-07-26T12:48:38.000Z</Time>
            <Position>
              <LatitudeDegrees>42.926378510892391204833984375</LatitudeDegrees>
              <LongitudeDegrees>-8.16365383565425872802734375</LongitudeDegrees>
            </Position>
            <AltitudeMeters>387.399993896484375</AltitudeMeters>
            <DistanceMeters>62022.897874624</DistanceMeters>
          </Trackpoint>
          <Trackpoint>
            <Time>2019-07-26T12:48:41.000Z</Time>
            <Position>
              <LatitudeDegrees>42.926337607204914093017578125</LatitudeDegrees>
              <LongitudeDegrees>-8.1637797318398952484130859375</LongitudeDegrees>
            </Position>
            <AltitudeMeters>387.399993896484375</AltitudeMeters>
            <DistanceMeters>62034.123100087</DistanceMeters>
          </Trackpoint>
          <Trackpoint>
            <Time>2019-07-26T12:48:42.000Z</Time>
            <Position>
              <LatitudeDegrees>42.92631288059055805206298828125</LatitudeDegrees>
              <LongitudeDegrees>-8.16380563192069530487060546875</LongitudeDegrees>
            </Position>
            <AltitudeMeters>387.20001220703125</AltitudeMeters>
            <DistanceMeters>62037.591249713</DistanceMeters>
          </Trackpoint>
          <Trackpoint>
            <Time>2019-07-26T12:48:44.000Z</Time>
            <Position>
              <LatitudeDegrees>42.92628555558621883392333984375</LatitudeDegrees>
              <LongitudeDegrees>-8.1638355553150177001953125</LongitudeDegrees>
            </Position>
            <AltitudeMeters>387</AltitudeMeters>
            <DistanceMeters>62041.488503692</DistanceMeters>
          </Trackpoint>
          <Trackpoint>
            <Time>2019-07-26T12:48:46.000Z</Time>
            <Position>
              <LatitudeDegrees>42.9262734018266201019287109375</LatitudeDegrees>
              <LongitudeDegrees>-8.163853324949741363525390625</LongitudeDegrees>
            </Position>
            <AltitudeMeters>386.600006103515625</AltitudeMeters>
            <DistanceMeters>62043.468163556</DistanceMeters>
          </Trackpoint>
          <Trackpoint>
            <Time>2019-07-26T12:48:47.000Z</Time>
            <Position>
              <LatitudeDegrees>42.92627968825399875640869140625</LatitudeDegrees>
              <LongitudeDegrees>-8.16387637518346309661865234375</LongitudeDegrees>
            </Position>
            <AltitudeMeters>386.399993896484375</AltitudeMeters>
            <DistanceMeters>62045.472754292</DistanceMeters>
          </Trackpoint>
          <Trackpoint>
            <Time>2019-07-26T12:48:48.000Z</Time>
            <Position>
              <LatitudeDegrees>42.92628622613847255706787109375</LatitudeDegrees>
              <LongitudeDegrees>-8.16390286199748516082763671875</LongitudeDegrees>
            </Position>
            <AltitudeMeters>386.20001220703125</AltitudeMeters>
            <DistanceMeters>62047.753395436</DistanceMeters>
          </Trackpoint>
          <Trackpoint>
            <Time>2019-07-26T12:48:52.000Z</Time>
            <Position>
              <LatitudeDegrees>42.9262787662446498870849609375</LatitudeDegrees>
              <LongitudeDegrees>-8.16406480036675930023193359375</LongitudeDegrees>
            </Position>
            <AltitudeMeters>385.600006103515625</AltitudeMeters>
            <DistanceMeters>62060.976798942</DistanceMeters>
          </Trackpoint>
          <Trackpoint>
            <Time>2019-07-26T12:48:57.000Z</Time>
            <Position>
              <LatitudeDegrees>42.926292009651660919189453125</LatitudeDegrees>
              <LongitudeDegrees>-8.1644348613917827606201171875</LongitudeDegrees>
            </Position>
            <AltitudeMeters>385.399993896484375</AltitudeMeters>
            <DistanceMeters>62091.172275731</DistanceMeters>
          </Trackpoint>
          <Trackpoint>
            <Time>2019-07-26T12:49:01.000Z</Time>
            <Position>
              <LatitudeDegrees>42.9263079352676868438720703125</LatitudeDegrees>
              <LongitudeDegrees>-8.1647785194218158721923828125</LongitudeDegrees>
            </Position>
            <AltitudeMeters>385</AltitudeMeters>
            <DistanceMeters>62119.235902495</DistanceMeters>
          </Trackpoint>
          <Trackpoint>
            <Time>2019-07-26T12:49:02.000Z</Time>
            <Position>
              <LatitudeDegrees>42.92633316479623317718505859375</LatitudeDegrees>
              <LongitudeDegrees>-8.1648546271026134490966796875</LongitudeDegrees>
            </Position>
            <AltitudeMeters>384.79998779296875</AltitudeMeters>
            <DistanceMeters>62126.04342424</DistanceMeters>
          </Trackpoint>
          <Trackpoint>
            <Time>2019-07-26T12:49:04.000Z</Time>
            <Position>
              <LatitudeDegrees>42.92638228274881839752197265625</LatitudeDegrees>
              <LongitudeDegrees>-8.164973147213459014892578125</LongitudeDegrees>
            </Position>
            <AltitudeMeters>384</AltitudeMeters>
            <DistanceMeters>62137.142446848</DistanceMeters>
          </Trackpoint>
          <Trackpoint>
            <Time>2019-07-26T12:49:05.000Z</Time>
            <Position>
              <LatitudeDegrees>42.9263904131948947906494140625</LatitudeDegrees>
              <LongitudeDegrees>-8.16503307782113552093505859375</LongitudeDegrees>
            </Position>
            <AltitudeMeters>383.600006103515625</AltitudeMeters>
            <DistanceMeters>62142.10935422</DistanceMeters>
          </Trackpoint>
          <Trackpoint>
            <Time>2019-07-26T12:49:06.000Z</Time>
            <Position>
              <LatitudeDegrees>42.92639426887035369873046875</LatitudeDegrees>
              <LongitudeDegrees>-8.165097199380397796630859375</LongitudeDegrees>
            </Position>
            <AltitudeMeters>383.399993896484375</AltitudeMeters>
            <DistanceMeters>62147.351350273</DistanceMeters>
          </Trackpoint>
          <Trackpoint>
            <Time>2019-07-26T12:49:09.000Z</Time>
            <Position>
              <LatitudeDegrees>42.92637088336050510406494140625</LatitudeDegrees>
              <LongitudeDegrees>-8.1653322279453277587890625</LongitudeDegrees>
            </Position>
            <AltitudeMeters>382.600006103515625</AltitudeMeters>
            <DistanceMeters>62166.681755423</DistanceMeters>
          </Trackpoint>
          <Trackpoint>
            <Time>2019-07-26T12:49:10.000Z</Time>
            <Position>
              <LatitudeDegrees>42.92636384256184101104736328125</LatitudeDegrees>
              <LongitudeDegrees>-8.1654202379286289215087890625</LongitudeDegrees>
            </Position>
            <AltitudeMeters>382.20001220703125</AltitudeMeters>
            <DistanceMeters>62173.896279705</DistanceMeters>
          </Trackpoint>
          <Trackpoint>
            <Time>2019-07-26T12:49:12.000Z</Time>
            <Position>
              <LatitudeDegrees>42.92638312093913555145263671875</LatitudeDegrees>
              <LongitudeDegrees>-8.165602125227451324462890625</LongitudeDegrees>
            </Position>
            <AltitudeMeters>381</AltitudeMeters>
            <DistanceMeters>62188.874371011</DistanceMeters>
          </Trackpoint>
          <Trackpoint>
            <Time>2019-07-26T12:49:13.000Z</Time>
            <Position>
              <LatitudeDegrees>42.92640491388738155364990234375</LatitudeDegrees>
              <LongitudeDegrees>-8.1656958349049091339111328125</LongitudeDegrees>
            </Position>
            <AltitudeMeters>380.399993896484375</AltitudeMeters>
            <DistanceMeters>62196.887664566</DistanceMeters>
          </Trackpoint>
          <Trackpoint>
            <Time>2019-07-26T12:49:14.000Z</Time>
            <Position>
              <LatitudeDegrees>42.92642922140657901763916015625</LatitudeDegrees>
              <LongitudeDegrees>-8.16579021513462066650390625</LongitudeDegrees>
            </Position>
            <AltitudeMeters>379.79998779296875</AltitudeMeters>
            <DistanceMeters>62205.042263448</DistanceMeters>
          </Trackpoint>
          <Trackpoint>
            <Time>2019-07-26T12:49:17.000Z</Time>
            <Position>
              <LatitudeDegrees>42.9265342466533184051513671875</LatitudeDegrees>
              <LongitudeDegrees>-8.16607964225113391876220703125</LongitudeDegrees>
            </Position>
            <AltitudeMeters>379</AltitudeMeters>
            <DistanceMeters>62231.367922166</DistanceMeters>
          </Trackpoint>
          <Trackpoint>
            <Time>2019-07-26T12:49:18.000Z</Time>
            <Position>
              <LatitudeDegrees>42.92657808400690555572509765625</LatitudeDegrees>
              <LongitudeDegrees>-8.16617938689887523651123046875</LongitudeDegrees>
            </Position>
            <AltitudeMeters>378.79998779296875</AltitudeMeters>
            <DistanceMeters>62240.848712266</DistanceMeters>
          </Trackpoint>
          <Trackpoint>
            <Time>2019-07-26T12:49:21.000Z</Time>
            <Position>
              <LatitudeDegrees>42.92670096270740032196044921875</LatitudeDegrees>
              <LongitudeDegrees>-8.16651164554059505462646484375</LongitudeDegrees>
            </Position>
            <AltitudeMeters>377.600006103515625</AltitudeMeters>
            <DistanceMeters>62271.185014129</DistanceMeters>
          </Trackpoint>
          <Trackpoint>
            <Time>2019-07-26T12:49:23.000Z</Time>
            <Position>
              <LatitudeDegrees>42.92676575481891632080078125</LatitudeDegrees>
              <LongitudeDegrees>-8.1667484343051910400390625</LongitudeDegrees>
            </Position>
            <AltitudeMeters>376.399993896484375</AltitudeMeters>
            <DistanceMeters>62291.786314886</DistanceMeters>
          </Trackpoint>
          <Trackpoint>
            <Time>2019-07-26T12:49:24.000Z</Time>
            <Position>
              <LatitudeDegrees>42.9267877154052257537841796875</LatitudeDegrees>
              <LongitudeDegrees>-8.16687340848147869110107421875</LongitudeDegrees>
            </Position>
            <AltitudeMeters>375.79998779296875</AltitudeMeters>
            <DistanceMeters>62302.260828182</DistanceMeters>
          </Trackpoint>
          <Trackpoint>
            <Time>2019-07-26T12:49:25.000Z</Time>
            <Position>
              <LatitudeDegrees>42.92680003680288791656494140625</LatitudeDegrees>
              <LongitudeDegrees>-8.1670017354190349578857421875</LongitudeDegrees>
            </Position>
            <AltitudeMeters>375</AltitudeMeters>
            <DistanceMeters>62312.809221517</DistanceMeters>
          </Trackpoint>
          <Trackpoint>
            <Time>2019-07-26T12:49:27.000Z</Time>
            <Position>
              <LatitudeDegrees>42.92680406011641025543212890625</LatitudeDegrees>
              <LongitudeDegrees>-8.16726702265441417694091796875</LongitudeDegrees>
            </Position>
            <AltitudeMeters>373.79998779296875</AltitudeMeters>
            <DistanceMeters>62334.434429004</DistanceMeters>
          </Trackpoint>
          <Trackpoint>
            <Time>2019-07-26T12:49:29.000Z</Time>
            <Position>
              <LatitudeDegrees>42.9268058203160762786865234375</LatitudeDegrees>
              <LongitudeDegrees>-8.1675411947071552276611328125</LongitudeDegrees>
            </Position>
            <AltitudeMeters>372.600006103515625</AltitudeMeters>
            <DistanceMeters>62356.779855314</DistanceMeters>
          </Trackpoint>
          <Trackpoint>
            <Time>2019-07-26T12:49:31.000Z</Time>
            <Position>
              <LatitudeDegrees>42.92680556885898113250732421875</LatitudeDegrees>
              <LongitudeDegrees>-8.1678188033401966094970703125</LongitudeDegrees>
            </Position>
            <AltitudeMeters>371.399993896484375</AltitudeMeters>
            <DistanceMeters>62379.404197363</DistanceMeters>
          </Trackpoint>
          <Trackpoint>
            <Time>2019-07-26T12:49:32.000Z</Time>
            <Position>
              <LatitudeDegrees>42.92680825106799602508544921875</LatitudeDegrees>
              <LongitudeDegrees>-8.167953081429004669189453125</LongitudeDegrees>
            </Position>
            <AltitudeMeters>369.79998779296875</AltitudeMeters>
            <DistanceMeters>62390.351670796</DistanceMeters>
          </Trackpoint>
          <Trackpoint>
            <Time>2019-07-26T12:49:33.000Z</Time>
            <Position>
              <LatitudeDegrees>42.92682015337049961090087890625</LatitudeDegrees>
              <LongitudeDegrees>-8.16808945499360561370849609375</LongitudeDegrees>
            </Position>
            <AltitudeMeters>369</AltitudeMeters>
            <DistanceMeters>62401.544672207</DistanceMeters>
          </Trackpoint>
          <Trackpoint>
            <Time>2019-07-26T12:49:34.000Z</Time>
            <Position>
              <LatitudeDegrees>42.92683708481490612030029296875</LatitudeDegrees>
              <LongitudeDegrees>-8.16822775639593601226806640625</LongitudeDegrees>
            </Position>
            <AltitudeMeters>368.399993896484375</AltitudeMeters>
            <DistanceMeters>62412.972400132</DistanceMeters>
          </Trackpoint>
          <Trackpoint>
            <Time>2019-07-26T12:49:37.000Z</Time>
            <Position>
              <LatitudeDegrees>42.926904223859310150146484375</LatitudeDegrees>
              <LongitudeDegrees>-8.1686720810830593109130859375</LongitudeDegrees>
            </Position>
            <AltitudeMeters>366.600006103515625</AltitudeMeters>
            <DistanceMeters>62449.94695156</DistanceMeters>
          </Trackpoint>
          <Trackpoint>
            <Time>2019-07-26T12:49:38.000Z</Time>
            <Position>
              <LatitudeDegrees>42.92693071067333221435546875</LatitudeDegrees>
              <LongitudeDegrees>-8.16883049905300140380859375</LongitudeDegrees>
            </Position>
            <AltitudeMeters>365.600006103515625</AltitudeMeters>
            <DistanceMeters>62463.190143951</DistanceMeters>
          </Trackpoint>
          <Trackpoint>
            <Time>2019-07-26T12:49:40.000Z</Time>
            <Position>
              <LatitudeDegrees>42.92699416168034076690673828125</LatitudeDegrees>
              <LongitudeDegrees>-8.16915244795382022857666015625</LongitudeDegrees>
            </Position>
            <AltitudeMeters>363.399993896484375</AltitudeMeters>
            <DistanceMeters>62490.362135233</DistanceMeters>
          </Trackpoint>
          <Trackpoint>
            <Time>2019-07-26T12:49:41.000Z</Time>
            <Position>
              <LatitudeDegrees>42.9270265996456146240234375</LatitudeDegrees>
              <LongitudeDegrees>-8.16931270994246006011962890625</LongitudeDegrees>
            </Position>
            <AltitudeMeters>362</AltitudeMeters>
            <DistanceMeters>62503.913024668</DistanceMeters>
          </Trackpoint>
          <Trackpoint>
            <Time>2019-07-26T12:49:43.000Z</Time>
            <Position>
              <LatitudeDegrees>42.92708368040621280670166015625</LatitudeDegrees>
              <LongitudeDegrees>-8.1696108542382717132568359375</LongitudeDegrees>
            </Position>
            <AltitudeMeters>360.20001220703125</AltitudeMeters>
            <DistanceMeters>62529.027957869</DistanceMeters>
          </Trackpoint>
          <Trackpoint>
            <Time>2019-07-26T12:49:44.000Z</Time>
            <Position>
              <LatitudeDegrees>42.92711301706731319427490234375</LatitudeDegrees>
              <LongitudeDegrees>-8.16975158639252185821533203125</LongitudeDegrees>
            </Position>
            <AltitudeMeters>359</AltitudeMeters>
            <DistanceMeters>62540.952958659</DistanceMeters>
          </Trackpoint>
          <Trackpoint>
            <Time>2019-07-26T12:49:45.000Z</Time>
            <Position>
              <LatitudeDegrees>42.92713749222457408905029296875</LatitudeDegrees>
              <LongitudeDegrees>-8.1698891334235668182373046875</LongitudeDegrees>
            </Position>
            <AltitudeMeters>357.79998779296875</AltitudeMeters>
            <DistanceMeters>62552.489217438</DistanceMeters>
          </Trackpoint>
          <Trackpoint>
            <Time>2019-07-26T12:49:46.000Z</Time>
            <Position>
              <LatitudeDegrees>42.92714972980320453643798828125</LatitudeDegrees>
              <LongitudeDegrees>-8.1700198911130428314208984375</LongitudeDegrees>
            </Position>
            <AltitudeMeters>356.79998779296875</AltitudeMeters>
            <DistanceMeters>62563.23270091</DistanceMeters>
          </Trackpoint>
          <Trackpoint>
            <Time>2019-07-26T12:49:47.000Z</Time>
            <Position>
              <LatitudeDegrees>42.9271531663835048675537109375</LatitudeDegrees>
              <LongitudeDegrees>-8.17015073262155055999755859375</LongitudeDegrees>
            </Position>
            <AltitudeMeters>355.399993896484375</AltitudeMeters>
            <DistanceMeters>62573.902808867</DistanceMeters>
          </Trackpoint>
          <Trackpoint>
            <Time>2019-07-26T12:49:48.000Z</Time>
            <Position>
              <LatitudeDegrees>42.92714587412774562835693359375</LatitudeDegrees>
              <LongitudeDegrees>-8.170279562473297119140625</LongitudeDegrees>
            </Position>
            <AltitudeMeters>354.20001220703125</AltitudeMeters>
            <DistanceMeters>62584.433638312</DistanceMeters>
          </Trackpoint>
          <Trackpoint>
            <Time>2019-07-26T12:49:49.000Z</Time>
            <Position>
              <LatitudeDegrees>42.9271313734352588653564453125</LatitudeDegrees>
              <LongitudeDegrees>-8.17040621303021907806396484375</LongitudeDegrees>
            </Position>
            <AltitudeMeters>352.79998779296875</AltitudeMeters>
            <DistanceMeters>62594.881392332</DistanceMeters>
          </Trackpoint>
          <Trackpoint>
            <Time>2019-07-26T12:49:50.000Z</Time>
            <Position>
              <LatitudeDegrees>42.92711452580988407135009765625</LatitudeDegrees>
              <LongitudeDegrees>-8.17053244449198246002197265625</LongitudeDegrees>
            </Position>
            <AltitudeMeters>351</AltitudeMeters>
            <DistanceMeters>62605.338649416</DistanceMeters>
          </Trackpoint>
          <Trackpoint>
            <Time>2019-07-26T12:49:51.000Z</Time>
            <Position>
              <LatitudeDegrees>42.92709759436547756195068359375</LatitudeDegrees>
              <LongitudeDegrees>-8.17066001705825328826904296875</LongitudeDegrees>
            </Position>
            <AltitudeMeters>349.399993896484375</AltitudeMeters>
            <DistanceMeters>62615.905004756</DistanceMeters>
          </Trackpoint>
          <Trackpoint>
            <Time>2019-07-26T12:49:52.000Z</Time>
            <Position>
              <LatitudeDegrees>42.92707982473075389862060546875</LatitudeDegrees>
              <LongitudeDegrees>-8.17078138701617717742919921875</LongitudeDegrees>
            </Position>
            <AltitudeMeters>348.399993896484375</AltitudeMeters>
            <DistanceMeters>62625.992617528</DistanceMeters>
          </Trackpoint>
          <Trackpoint>
            <Time>2019-07-26T12:49:53.000Z</Time>
            <Position>
              <LatitudeDegrees>42.92706993408501148223876953125</LatitudeDegrees>
              <LongitudeDegrees>-8.17089806310832500457763671875</LongitudeDegrees>
            </Position>
            <AltitudeMeters>346.79998779296875</AltitudeMeters>
            <DistanceMeters>62635.565350458</DistanceMeters>
          </Trackpoint>
          <Trackpoint>
            <Time>2019-07-26T12:49:54.000Z</Time>
            <Position>
              <LatitudeDegrees>42.9270639829337596893310546875</LatitudeDegrees>
              <LongitudeDegrees>-8.17100551910698413848876953125</LongitudeDegrees>
            </Position>
            <AltitudeMeters>345.399993896484375</AltitudeMeters>
            <DistanceMeters>62644.347998862</DistanceMeters>
          </Trackpoint>
          <Trackpoint>
            <Time>2019-07-26T12:49:55.000Z</Time>
            <Position>
              <LatitudeDegrees>42.92705886997282505035400390625</LatitudeDegrees>
              <LongitudeDegrees>-8.17110006697475910186767578125</LongitudeDegrees>
            </Position>
            <AltitudeMeters>344.20001220703125</AltitudeMeters>
            <DistanceMeters>62652.075020633</DistanceMeters>
          </Trackpoint>
          <Trackpoint>
            <Time>2019-07-26T12:49:56.000Z</Time>
            <Position>
              <LatitudeDegrees>42.9270465485751628875732421875</LatitudeDegrees>
              <LongitudeDegrees>-8.1711812876164913177490234375</LongitudeDegrees>
            </Position>
            <AltitudeMeters>343.20001220703125</AltitudeMeters>
            <DistanceMeters>62658.834620237</DistanceMeters>
          </Trackpoint>
          <Trackpoint>
            <Time>2019-07-26T12:49:58.000Z</Time>
            <Position>
              <LatitudeDegrees>42.927039004862308502197265625</LatitudeDegrees>
              <LongitudeDegrees>-8.17132101394236087799072265625</LongitudeDegrees>
            </Position>
            <AltitudeMeters>341.399993896484375</AltitudeMeters>
            <DistanceMeters>62670.252861945</DistanceMeters>
          </Trackpoint>
          <Trackpoint>
            <Time>2019-07-26T12:50:03.000Z</Time>
            <Position>
              <LatitudeDegrees>42.9270364902913570404052734375</LatitudeDegrees>
              <LongitudeDegrees>-8.17155771888792514801025390625</LongitudeDegrees>
            </Position>
            <AltitudeMeters>340.600006103515625</AltitudeMeters>
            <DistanceMeters>62689.545859405</DistanceMeters>
          </Trackpoint>
          <Trackpoint>
            <Time>2019-07-26T12:50:06.000Z</Time>
            <Position>
              <LatitudeDegrees>42.92704202234745025634765625</LatitudeDegrees>
              <LongitudeDegrees>-8.17165561951696872711181640625</LongitudeDegrees>
            </Position>
            <AltitudeMeters>340.600006103515625</AltitudeMeters>
            <DistanceMeters>62697.548440373</DistanceMeters>
          </Trackpoint>
          <Trackpoint>
            <Time>2019-07-26T12:50:09.000Z</Time>
            <Position>
              <LatitudeDegrees>42.92705233208835124969482421875</LatitudeDegrees>
              <LongitudeDegrees>-8.17172636277973651885986328125</LongitudeDegrees>
            </Position>
            <AltitudeMeters>341</AltitudeMeters>
            <DistanceMeters>62703.427054372</DistanceMeters>
          </Trackpoint>
          <Trackpoint>
            <Time>2019-07-26T12:50:12.000Z</Time>
            <Position>
              <LatitudeDegrees>42.92705886997282505035400390625</LatitudeDegrees>
              <LongitudeDegrees>-8.17179375328123569488525390625</LongitudeDegrees>
            </Position>
            <AltitudeMeters>342</AltitudeMeters>
            <DistanceMeters>62708.967201467</DistanceMeters>
          </Trackpoint>
          <Trackpoint>
            <Time>2019-07-26T12:50:15.000Z</Time>
            <Position>
              <LatitudeDegrees>42.92707161046564579010009765625</LatitudeDegrees>
              <LongitudeDegrees>-8.171859718859195709228515625</LongitudeDegrees>
            </Position>
            <AltitudeMeters>342.600006103515625</AltitudeMeters>
            <DistanceMeters>62714.527685416</DistanceMeters>
          </Trackpoint>
          <Trackpoint>
            <Time>2019-07-26T12:50:17.000Z</Time>
            <Position>
              <LatitudeDegrees>42.9270921461284160614013671875</LatitudeDegrees>
              <LongitudeDegrees>-8.17189894616603851318359375</LongitudeDegrees>
            </Position>
            <AltitudeMeters>343</AltitudeMeters>
            <DistanceMeters>62718.457244006</DistanceMeters>
          </Trackpoint>
          <Trackpoint>
            <Time>2019-07-26T12:50:19.000Z</Time>
            <Position>
              <LatitudeDegrees>42.92710463516414165496826171875</LatitudeDegrees>
              <LongitudeDegrees>-8.17193926312029361724853515625</LongitudeDegrees>
            </Position>
            <AltitudeMeters>343.600006103515625</AltitudeMeters>
            <DistanceMeters>62722.025493968</DistanceMeters>
          </Trackpoint>
          <Trackpoint>
            <Time>2019-07-26T12:50:20.000Z</Time>
            <Position>
              <LatitudeDegrees>42.927111089229583740234375</LatitudeDegrees>
              <LongitudeDegrees>-8.17196005024015903472900390625</LongitudeDegrees>
            </Position>
            <AltitudeMeters>343.79998779296875</AltitudeMeters>
            <DistanceMeters>62723.865678379</DistanceMeters>
          </Trackpoint>
          <Trackpoint>
            <Time>2019-07-26T12:50:22.000Z</Time>
            <Position>
              <LatitudeDegrees>42.9271182976663112640380859375</LatitudeDegrees>
              <LongitudeDegrees>-8.1720060668885707855224609375</LongitudeDegrees>
            </Position>
            <AltitudeMeters>344.399993896484375</AltitudeMeters>
            <DistanceMeters>62727.70221648</DistanceMeters>
          </Trackpoint>
          <Trackpoint>
            <Time>2019-07-26T12:50:24.000Z</Time>
            <Position>
              <LatitudeDegrees>42.92713430710136890411376953125</LatitudeDegrees>
              <LongitudeDegrees>-8.1720550172030925750732421875</LongitudeDegrees>
            </Position>
            <AltitudeMeters>344.79998779296875</AltitudeMeters>
            <DistanceMeters>62732.071379055</DistanceMeters>
          </Trackpoint>
          <Trackpoint>
            <Time>2019-07-26T12:50:27.000Z</Time>
            <Position>
              <LatitudeDegrees>42.9271508194506168365478515625</LatitudeDegrees>
              <LongitudeDegrees>-8.1721173785626888275146484375</LongitudeDegrees>
            </Position>
            <AltitudeMeters>346.399993896484375</AltitudeMeters>
            <DistanceMeters>62737.475383794</DistanceMeters>
          </Trackpoint>
          <Trackpoint>
            <Time>2019-07-26T12:50:30.000Z</Time>
            <Position>
              <LatitudeDegrees>42.9271602071821689605712890625</LatitudeDegrees>
              <LongitudeDegrees>-8.17217915318906307220458984375</LongitudeDegrees>
            </Position>
            <AltitudeMeters>347.399993896484375</AltitudeMeters>
            <DistanceMeters>62742.616495906</DistanceMeters>
          </Trackpoint>
          <Trackpoint>
            <Time>2019-07-26T12:50:32.000Z</Time>
            <Position>
              <LatitudeDegrees>42.927174456417560577392578125</LatitudeDegrees>
              <LongitudeDegrees>-8.17223732359707355499267578125</LongitudeDegrees>
            </Position>
            <AltitudeMeters>347.79998779296875</AltitudeMeters>
            <DistanceMeters>62747.615117868</DistanceMeters>
          </Trackpoint>
          <Trackpoint>
            <Time>2019-07-26T12:50:34.000Z</Time>
            <Position>
              <LatitudeDegrees>42.9272027872502803802490234375</LatitudeDegrees>
              <LongitudeDegrees>-8.17230395972728729248046875</LongitudeDegrees>
            </Position>
            <AltitudeMeters>348.600006103515625</AltitudeMeters>
            <DistanceMeters>62753.894075883</DistanceMeters>
          </Trackpoint>
          <Trackpoint>
            <Time>2019-07-26T12:50:37.000Z</Time>
            <Position>
              <LatitudeDegrees>42.9272425174713134765625</LatitudeDegrees>
              <LongitudeDegrees>-8.17242172546684741973876953125</LongitudeDegrees>
            </Position>
            <AltitudeMeters>349.79998779296875</AltitudeMeters>
            <DistanceMeters>62764.461285794</DistanceMeters>
          </Trackpoint>
          <Trackpoint>
            <Time>2019-07-26T12:50:43.000Z</Time>
            <Position>
              <LatitudeDegrees>42.92729280889034271240234375</LatitudeDegrees>
              <LongitudeDegrees>-8.172604702413082122802734375</LongitudeDegrees>
            </Position>
            <AltitudeMeters>350.79998779296875</AltitudeMeters>
            <DistanceMeters>62780.389532018</DistanceMeters>
          </Trackpoint>
          <Trackpoint>
            <Time>2019-07-26T12:50:49.000Z</Time>
            <Position>
              <LatitudeDegrees>42.92733144946396350860595703125</LatitudeDegrees>
              <LongitudeDegrees>-8.1727403216063976287841796875</LongitudeDegrees>
            </Position>
            <AltitudeMeters>352</AltitudeMeters>
            <DistanceMeters>62792.249231453</DistanceMeters>
          </Trackpoint>
          <Trackpoint>
            <Time>2019-07-26T12:50:50.000Z</Time>
            <Position>
              <LatitudeDegrees>42.92734284885227680206298828125</LatitudeDegrees>
              <LongitudeDegrees>-8.17275867797434329986572265625</LongitudeDegrees>
            </Position>
            <AltitudeMeters>352.20001220703125</AltitudeMeters>
            <DistanceMeters>62794.212861419</DistanceMeters>
          </Trackpoint>
          <Trackpoint>
            <Time>2019-07-26T12:50:56.000Z</Time>
            <Position>
              <LatitudeDegrees>42.9273922182619571685791015625</LatitudeDegrees>
              <LongitudeDegrees>-8.1729039363563060760498046875</LongitudeDegrees>
            </Position>
            <AltitudeMeters>353</AltitudeMeters>
            <DistanceMeters>62807.26442692</DistanceMeters>
          </Trackpoint>
          <Trackpoint>
            <Time>2019-07-26T12:50:58.000Z</Time>
            <Position>
              <LatitudeDegrees>42.92741241864860057830810546875</LatitudeDegrees>
              <LongitudeDegrees>-8.172951042652130126953125</LongitudeDegrees>
            </Position>
            <AltitudeMeters>353.399993896484375</AltitudeMeters>
            <DistanceMeters>62811.713463621</DistanceMeters>
          </Trackpoint>
          <Trackpoint>
            <Time>2019-07-26T12:51:03.000Z</Time>
            <Position>
              <LatitudeDegrees>42.927458770573139190673828125</LatitudeDegrees>
              <LongitudeDegrees>-8.17307031713426113128662109375</LongitudeDegrees>
            </Position>
            <AltitudeMeters>354.20001220703125</AltitudeMeters>
            <DistanceMeters>62822.718525423</DistanceMeters>
          </Trackpoint>
          <Trackpoint>
            <Time>2019-07-26T12:51:04.000Z</Time>
            <Position>
              <LatitudeDegrees>42.9274636320769786834716796875</LatitudeDegrees>
              <LongitudeDegrees>-8.1731027550995349884033203125</LongitudeDegrees>
            </Position>
            <AltitudeMeters>354.600006103515625</AltitudeMeters>
            <DistanceMeters>62825.416347066</DistanceMeters>
          </Trackpoint>
          <Trackpoint>
            <Time>2019-07-26T12:51:08.000Z</Time>
            <Position>
              <LatitudeDegrees>42.92748081497848033905029296875</LatitudeDegrees>
              <LongitudeDegrees>-8.17327684722840785980224609375</LongitudeDegrees>
            </Position>
            <AltitudeMeters>355.399993896484375</AltitudeMeters>
            <DistanceMeters>62839.732303721</DistanceMeters>
          </Trackpoint>
          <Trackpoint>
            <Time>2019-07-26T12:51:10.000Z</Time>
            <Position>
              <LatitudeDegrees>42.9274656437337398529052734375</LatitudeDegrees>
              <LongitudeDegrees>-8.17337340675294399261474609375</LongitudeDegrees>
            </Position>
            <AltitudeMeters>355.79998779296875</AltitudeMeters>
            <DistanceMeters>62847.781015942</DistanceMeters>
          </Trackpoint>
          <Trackpoint>
            <Time>2019-07-26T12:51:15.000Z</Time>
            <Position>
              <LatitudeDegrees>42.92739615775644779205322265625</LatitudeDegrees>
              <LongitudeDegrees>-8.17355847917497158050537109375</LongitudeDegrees>
            </Position>
            <AltitudeMeters>356</AltitudeMeters>
            <DistanceMeters>62864.730969102</DistanceMeters>
          </Trackpoint>
          <Trackpoint>
            <Time>2019-07-26T12:51:17.000Z</Time>
            <Position>
              <LatitudeDegrees>42.92735391296446323394775390625</LatitudeDegrees>
              <LongitudeDegrees>-8.17364715971052646636962890625</LongitudeDegrees>
            </Position>
            <AltitudeMeters>356</AltitudeMeters>
            <DistanceMeters>62873.352778036</DistanceMeters>
          </Trackpoint>
          <Trackpoint>
            <Time>2019-07-26T12:51:22.000Z</Time>
            <Position>
              <LatitudeDegrees>42.927236817777156829833984375</LatitudeDegrees>
              <LongitudeDegrees>-8.17384145222604274749755859375</LongitudeDegrees>
            </Position>
            <AltitudeMeters>355.79998779296875</AltitudeMeters>
            <DistanceMeters>62893.86094325</DistanceMeters>
          </Trackpoint>
          <Trackpoint>
            <Time>2019-07-26T12:51:23.000Z</Time>
            <Position>
              <LatitudeDegrees>42.9272044636309146881103515625</LatitudeDegrees>
              <LongitudeDegrees>-8.17388369701802730560302734375</LongitudeDegrees>
            </Position>
            <AltitudeMeters>355.79998779296875</AltitudeMeters>
            <DistanceMeters>62898.842373774</DistanceMeters>
          </Trackpoint>
          <Trackpoint>
            <Time>2019-07-26T12:51:25.000Z</Time>
            <Position>
              <LatitudeDegrees>42.92714595794677734375</LatitudeDegrees>
              <LongitudeDegrees>-8.17394957877695560455322265625</LongitudeDegrees>
            </Position>
            <AltitudeMeters>355.399993896484375</AltitudeMeters>
            <DistanceMeters>62907.282115654</DistanceMeters>
          </Trackpoint>
          <Trackpoint>
            <Time>2019-07-26T12:51:28.000Z</Time>
            <Position>
              <LatitudeDegrees>42.9270180501043796539306640625</LatitudeDegrees>
              <LongitudeDegrees>-8.174034990370273590087890625</LongitudeDegrees>
            </Position>
            <AltitudeMeters>355</AltitudeMeters>
            <DistanceMeters>62923.129084635</DistanceMeters>
          </Trackpoint>
          <Trackpoint>
            <Time>2019-07-26T12:51:30.000Z</Time>
            <Position>
              <LatitudeDegrees>42.92690967209637165069580078125</LatitudeDegrees>
              <LongitudeDegrees>-8.17408083938062191009521484375</LongitudeDegrees>
            </Position>
            <AltitudeMeters>354.79998779296875</AltitudeMeters>
            <DistanceMeters>62935.757273342</DistanceMeters>
          </Trackpoint>
          <Trackpoint>
            <Time>2019-07-26T12:51:32.000Z</Time>
            <Position>
              <LatitudeDegrees>42.9267870448529720306396484375</LatitudeDegrees>
              <LongitudeDegrees>-8.17413724958896636962890625</LongitudeDegrees>
            </Position>
            <AltitudeMeters>354.600006103515625</AltitudeMeters>
            <DistanceMeters>62950.159386239</DistanceMeters>
          </Trackpoint>
          <Trackpoint>
            <Time>2019-07-26T12:51:33.000Z</Time>
            <Position>
              <LatitudeDegrees>42.9267186485230922698974609375</LatitudeDegrees>
              <LongitudeDegrees>-8.1741756387054920196533203125</LongitudeDegrees>
            </Position>
            <AltitudeMeters>354.600006103515625</AltitudeMeters>
            <DistanceMeters>62958.390038308</DistanceMeters>
          </Trackpoint>
          <Trackpoint>
            <Time>2019-07-26T12:51:35.000Z</Time>
            <Position>
              <LatitudeDegrees>42.9266123659908771514892578125</LatitudeDegrees>
              <LongitudeDegrees>-8.17426842637360095977783203125</LongitudeDegrees>
            </Position>
            <AltitudeMeters>354.600006103515625</AltitudeMeters>
            <DistanceMeters>62972.430215258</DistanceMeters>
          </Trackpoint>
          <Trackpoint>
            <Time>2019-07-26T12:51:37.000Z</Time>
            <Position>
              <LatitudeDegrees>42.926538772881031036376953125</LatitudeDegrees>
              <LongitudeDegrees>-8.17439666949212551116943359375</LongitudeDegrees>
            </Position>
            <AltitudeMeters>354.399993896484375</AltitudeMeters>
            <DistanceMeters>62985.709157336</DistanceMeters>
          </Trackpoint>
          <Trackpoint>
            <Time>2019-07-26T12:51:39.000Z</Time>
            <Position>
              <LatitudeDegrees>42.9264789260923862457275390625</LatitudeDegrees>
              <LongitudeDegrees>-8.17453279159963130950927734375</LongitudeDegrees>
            </Position>
            <AltitudeMeters>354.20001220703125</AltitudeMeters>
            <DistanceMeters>62998.64920013</DistanceMeters>
          </Trackpoint>
          <Trackpoint>
            <Time>2019-07-26T12:51:40.000Z</Time>
            <Position>
              <LatitudeDegrees>42.92645671404898166656494140625</LatitudeDegrees>
              <LongitudeDegrees>-8.17460169084370136260986328125</LongitudeDegrees>
            </Position>
            <AltitudeMeters>354.20001220703125</AltitudeMeters>
            <DistanceMeters>63004.78412952</DistanceMeters>
          </Trackpoint>
          <Trackpoint>
            <Time>2019-07-26T12:51:42.000Z</Time>
            <Position>
              <LatitudeDegrees>42.92641782201826572418212890625</LatitudeDegrees>
              <LongitudeDegrees>-8.17475373856723308563232421875</LongitudeDegrees>
            </Position>
            <AltitudeMeters>354.20001220703125</AltitudeMeters>
            <DistanceMeters>63017.910205039</DistanceMeters>
          </Trackpoint>
          <Trackpoint>
            <Time>2019-07-26T12:51:48.000Z</Time>
            <Position>
              <LatitudeDegrees>42.9262392036616802215576171875</LatitudeDegrees>
              <LongitudeDegrees>-8.17523050121963024139404296875</LongitudeDegrees>
            </Position>
            <AltitudeMeters>354</AltitudeMeters>
            <DistanceMeters>63061.556338048</DistanceMeters>
          </Trackpoint>
          <Trackpoint>
            <Time>2019-07-26T12:51:53.000Z</Time>
            <Position>
              <LatitudeDegrees>42.92607701383531093597412109375</LatitudeDegrees>
              <LongitudeDegrees>-8.17566879093647003173828125</LongitudeDegrees>
            </Position>
            <AltitudeMeters>353.399993896484375</AltitudeMeters>
            <DistanceMeters>63101.578720285</DistanceMeters>
          </Trackpoint>
          <Trackpoint>
            <Time>2019-07-26T12:51:54.000Z</Time>
            <Position>
              <LatitudeDegrees>42.9260263033211231231689453125</LatitudeDegrees>
              <LongitudeDegrees>-8.17577566020190715789794921875</LongitudeDegrees>
            </Position>
            <AltitudeMeters>353</AltitudeMeters>
            <DistanceMeters>63111.957534375</DistanceMeters>
          </Trackpoint>
          <Trackpoint>
            <Time>2019-07-26T12:51:59.000Z</Time>
            <Position>
              <LatitudeDegrees>42.92580225504934787750244140625</LatitudeDegrees>
              <LongitudeDegrees>-8.17638535983860492706298828125</LongitudeDegrees>
            </Position>
            <AltitudeMeters>352.600006103515625</AltitudeMeters>
            <DistanceMeters>63167.553928561</DistanceMeters>
          </Trackpoint>
          <Trackpoint>
            <Time>2019-07-26T12:52:01.000Z</Time>
            <Position>
              <LatitudeDegrees>42.92572162114083766937255859375</LatitudeDegrees>
              <LongitudeDegrees>-8.17663983441889286041259765625</LongitudeDegrees>
            </Position>
            <AltitudeMeters>352.399993896484375</AltitudeMeters>
            <DistanceMeters>63190.151912609</DistanceMeters>
          </Trackpoint>
          <Trackpoint>
            <Time>2019-07-26T12:52:05.000Z</Time>
            <Position>
              <LatitudeDegrees>42.92556521482765674591064453125</LatitudeDegrees>
              <LongitudeDegrees>-8.1771441735327243804931640625</LongitudeDegrees>
            </Position>
            <AltitudeMeters>350.79998779296875</AltitudeMeters>
            <DistanceMeters>63234.789795039</DistanceMeters>
          </Trackpoint>
          <Trackpoint>
            <Time>2019-07-26T12:52:07.000Z</Time>
            <Position>
              <LatitudeDegrees>42.9255099780857563018798828125</LatitudeDegrees>
              <LongitudeDegrees>-8.177399821579456329345703125</LongitudeDegrees>
            </Position>
            <AltitudeMeters>349.600006103515625</AltitudeMeters>
            <DistanceMeters>63256.513118102</DistanceMeters>
          </Trackpoint>
          <Trackpoint>
            <Time>2019-07-26T12:52:08.000Z</Time>
            <Position>
              <LatitudeDegrees>42.92548977769911289215087890625</LatitudeDegrees>
              <LongitudeDegrees>-8.17752898670732975006103515625</LongitudeDegrees>
            </Position>
            <AltitudeMeters>349</AltitudeMeters>
            <DistanceMeters>63267.27759398</DistanceMeters>
          </Trackpoint>
          <Trackpoint>
            <Time>2019-07-26T12:52:09.000Z</Time>
            <Position>
              <LatitudeDegrees>42.925465889275074005126953125</LatitudeDegrees>
              <LongitudeDegrees>-8.17766209132969379425048828125</LongitudeDegrees>
            </Position>
            <AltitudeMeters>348.399993896484375</AltitudeMeters>
            <DistanceMeters>63278.446366338</DistanceMeters>
          </Trackpoint>
          <Trackpoint>
            <Time>2019-07-26T12:52:10.000Z</Time>
            <Position>
              <LatitudeDegrees>42.9254476167261600494384765625</LatitudeDegrees>
              <LongitudeDegrees>-8.177800141274929046630859375</LongitudeDegrees>
            </Position>
            <AltitudeMeters>347.600006103515625</AltitudeMeters>
            <DistanceMeters>63289.879624256</DistanceMeters>
          </Trackpoint>
          <Trackpoint>
            <Time>2019-07-26T12:52:11.000Z</Time>
            <Position>
              <LatitudeDegrees>42.92543512769043445587158203125</LatitudeDegrees>
              <LongitudeDegrees>-8.17794456146657466888427734375</LongitudeDegrees>
            </Position>
            <AltitudeMeters>346.79998779296875</AltitudeMeters>
            <DistanceMeters>63301.73170716</DistanceMeters>
          </Trackpoint>
          <Trackpoint>
            <Time>2019-07-26T12:52:13.000Z</Time>
            <Position>
              <LatitudeDegrees>42.9254271648824214935302734375</LatitudeDegrees>
              <LongitudeDegrees>-8.1782443821430206298828125</LongitudeDegrees>
            </Position>
            <AltitudeMeters>345.399993896484375</AltitudeMeters>
            <DistanceMeters>63326.183319813</DistanceMeters>
          </Trackpoint>
          <Trackpoint>
            <Time>2019-07-26T12:52:14.000Z</Time>
            <Position>
              <LatitudeDegrees>42.92542942799627780914306640625</LatitudeDegrees>
              <LongitudeDegrees>-8.17839584313333034515380859375</LongitudeDegrees>
            </Position>
            <AltitudeMeters>344.79998779296875</AltitudeMeters>
            <DistanceMeters>63338.530212156</DistanceMeters>
          </Trackpoint>
          <Trackpoint>
            <Time>2019-07-26T12:52:15.000Z</Time>
            <Position>
              <LatitudeDegrees>42.92542959563434123992919921875</LatitudeDegrees>
              <LongitudeDegrees>-8.1785447895526885986328125</LongitudeDegrees>
            </Position>
            <AltitudeMeters>344.20001220703125</AltitudeMeters>
            <DistanceMeters>63350.669851671</DistanceMeters>
          </Trackpoint>
          <Trackpoint>
            <Time>2019-07-26T12:52:17.000Z</Time>
            <Position>
              <LatitudeDegrees>42.92542305774986743927001953125</LatitudeDegrees>
              <LongitudeDegrees>-8.17884829826653003692626953125</LongitudeDegrees>
            </Position>
            <AltitudeMeters>342.600006103515625</AltitudeMeters>
            <DistanceMeters>63375.416603464</DistanceMeters>
          </Trackpoint>
          <Trackpoint>
            <Time>2019-07-26T12:52:19.000Z</Time>
            <Position>
              <LatitudeDegrees>42.92544074356555938720703125</LatitudeDegrees>
              <LongitudeDegrees>-8.17916077561676502227783203125</LongitudeDegrees>
            </Position>
            <AltitudeMeters>341.20001220703125</AltitudeMeters>
            <DistanceMeters>63400.959352986</DistanceMeters>
          </Trackpoint>
          <Trackpoint>
            <Time>2019-07-26T12:52:20.000Z</Time>
            <Position>
              <LatitudeDegrees>42.92545960284769535064697265625</LatitudeDegrees>
              <LongitudeDegrees>-8.1793150864541530609130859375</LongitudeDegrees>
            </Position>
            <AltitudeMeters>340.600006103515625</AltitudeMeters>
            <DistanceMeters>63413.709232834</DistanceMeters>
          </Trackpoint>
          <Trackpoint>
            <Time>2019-07-26T12:52:21.000Z</Time>
            <Position>
              <LatitudeDegrees>42.925488017499446868896484375</LatitudeDegrees>
              <LongitudeDegrees>-8.17947040311992168426513671875</LongitudeDegrees>
            </Position>
            <AltitudeMeters>339.600006103515625</AltitudeMeters>
            <DistanceMeters>63426.756300361</DistanceMeters>
          </Trackpoint>
          <Trackpoint>
            <Time>2019-07-26T12:52:22.000Z</Time>
            <Position>
              <LatitudeDegrees>42.925522886216640472412109375</LatitudeDegrees>
              <LongitudeDegrees>-8.1796198524534702301025390625</LongitudeDegrees>
            </Position>
            <AltitudeMeters>338.600006103515625</AltitudeMeters>
            <DistanceMeters>63439.539424522</DistanceMeters>
          </Trackpoint>
          <Trackpoint>
            <Time>2019-07-26T12:52:24.000Z</Time>
            <Position>
              <LatitudeDegrees>42.92559505440294742584228515625</LatitudeDegrees>
              <LongitudeDegrees>-8.1798914261162281036376953125</LongitudeDegrees>
            </Position>
            <AltitudeMeters>336.600006103515625</AltitudeMeters>
            <DistanceMeters>63463.085157539</DistanceMeters>
          </Trackpoint>
          <Trackpoint>
            <Time>2019-07-26T12:52:25.000Z</Time>
            <Position>
              <LatitudeDegrees>42.9256303422152996063232421875</LatitudeDegrees>
              <LongitudeDegrees>-8.18000919185578823089599609375</LongitudeDegrees>
            </Position>
            <AltitudeMeters>335.600006103515625</AltitudeMeters>
            <DistanceMeters>63473.455267489</DistanceMeters>
          </Trackpoint>
          <Trackpoint>
            <Time>2019-07-26T12:52:26.000Z</Time>
            <Position>
              <LatitudeDegrees>42.92566713877022266387939453125</LatitudeDegrees>
              <LongitudeDegrees>-8.1801210902631282806396484375</LongitudeDegrees>
            </Position>
            <AltitudeMeters>334.20001220703125</AltitudeMeters>
            <DistanceMeters>63483.452511413</DistanceMeters>
          </Trackpoint>
          <Trackpoint>
            <Time>2019-07-26T12:52:27.000Z</Time>
            <Position>
              <LatitudeDegrees>42.92568884789943695068359375</LatitudeDegrees>
              <LongitudeDegrees>-8.1802313961088657379150390625</LongitudeDegrees>
            </Position>
            <AltitudeMeters>333.399993896484375</AltitudeMeters>
            <DistanceMeters>63492.761249972</DistanceMeters>
          </Trackpoint>
          <Trackpoint>
            <Time>2019-07-26T12:52:28.000Z</Time>
            <Position>
              <LatitudeDegrees>42.925703935325145721435546875</LatitudeDegrees>
              <LongitudeDegrees>-8.18033516407012939453125</LongitudeDegrees>
            </Position>
            <AltitudeMeters>332.399993896484375</AltitudeMeters>
            <DistanceMeters>63501.382535213</DistanceMeters>
          </Trackpoint>
          <Trackpoint>
            <Time>2019-07-26T12:52:30.000Z</Time>
            <Position>
              <LatitudeDegrees>42.92567769996821880340576171875</LatitudeDegrees>
              <LongitudeDegrees>-8.18047463893890380859375</LongitudeDegrees>
            </Position>
            <AltitudeMeters>330.399993896484375</AltitudeMeters>
            <DistanceMeters>63513.118238256</DistanceMeters>
          </Trackpoint>
          <Trackpoint>
            <Time>2019-07-26T12:52:31.000Z</Time>
            <Position>
              <LatitudeDegrees>42.92564786039292812347412109375</LatitudeDegrees>
              <LongitudeDegrees>-8.180507831275463104248046875</LongitudeDegrees>
            </Position>
            <AltitudeMeters>329.399993896484375</AltitudeMeters>
            <DistanceMeters>63517.401824993</DistanceMeters>
          </Trackpoint>
          <Trackpoint>
            <Time>2019-07-26T12:52:32.000Z</Time>
            <Position>
              <LatitudeDegrees>42.9256018437445163726806640625</LatitudeDegrees>
              <LongitudeDegrees>-8.1805234216153621673583984375</LongitudeDegrees>
            </Position>
            <AltitudeMeters>328</AltitudeMeters>
            <DistanceMeters>63522.679017026</DistanceMeters>
          </Trackpoint>
          <Trackpoint>
            <Time>2019-07-26T12:52:33.000Z</Time>
            <Position>
              <LatitudeDegrees>42.9255515523254871368408203125</LatitudeDegrees>
              <LongitudeDegrees>-8.18053473718464374542236328125</LongitudeDegrees>
            </Position>
            <AltitudeMeters>326.600006103515625</AltitudeMeters>
            <DistanceMeters>63528.351244311</DistanceMeters>
          </Trackpoint>
          <Trackpoint>
            <Time>2019-07-26T12:52:34.000Z</Time>
            <Position>
              <LatitudeDegrees>42.9254905320703983306884765625</LatitudeDegrees>
              <LongitudeDegrees>-8.18054261617362499237060546875</LongitudeDegrees>
            </Position>
            <AltitudeMeters>325.20001220703125</AltitudeMeters>
            <DistanceMeters>63535.173341789</DistanceMeters>
          </Trackpoint>
          <Trackpoint>
            <Time>2019-07-26T12:52:35.000Z</Time>
            <Position>
              <LatitudeDegrees>42.92542909272015094757080078125</LatitudeDegrees>
              <LongitudeDegrees>-8.1805448792874813079833984375</LongitudeDegrees>
            </Position>
            <AltitudeMeters>323.79998779296875</AltitudeMeters>
            <DistanceMeters>63542.01394528</DistanceMeters>
          </Trackpoint>
          <Trackpoint>
            <Time>2019-07-26T12:52:36.000Z</Time>
            <Position>
              <LatitudeDegrees>42.92536564171314239501953125</LatitudeDegrees>
              <LongitudeDegrees>-8.18054831586778163909912109375</LongitudeDegrees>
            </Position>
            <AltitudeMeters>322.600006103515625</AltitudeMeters>
            <DistanceMeters>63549.081786739</DistanceMeters>
          </Trackpoint>
          <Trackpoint>
            <Time>2019-07-26T12:52:37.000Z</Time>
            <Position>
              <LatitudeDegrees>42.9253021068871021270751953125</LatitudeDegrees>
              <LongitudeDegrees>-8.18055468611419200897216796875</LongitudeDegrees>
            </Position>
            <AltitudeMeters>321.399993896484375</AltitudeMeters>
            <DistanceMeters>63556.17258822</DistanceMeters>
          </Trackpoint>
          <Trackpoint>
            <Time>2019-07-26T12:52:38.000Z</Time>
            <Position>
              <LatitudeDegrees>42.925233542919158935546875</LatitudeDegrees>
              <LongitudeDegrees>-8.18056524731218814849853515625</LongitudeDegrees>
            </Position>
            <AltitudeMeters>320.20001220703125</AltitudeMeters>
            <DistanceMeters>63563.85272229</DistanceMeters>
          </Trackpoint>
          <Trackpoint>
            <Time>2019-07-26T12:52:39.000Z</Time>
            <Position>
              <LatitudeDegrees>42.92516791261732578277587890625</LatitudeDegrees>
              <LongitudeDegrees>-8.18058603443205356597900390625</LongitudeDegrees>
            </Position>
            <AltitudeMeters>319.20001220703125</AltitudeMeters>
            <DistanceMeters>63571.351407909</DistanceMeters>
          </Trackpoint>
          <Trackpoint>
            <Time>2019-07-26T12:52:40.000Z</Time>
            <Position>
              <LatitudeDegrees>42.92511896230280399322509765625</LatitudeDegrees>
              <LongitudeDegrees>-8.18061989732086658477783203125</LongitudeDegrees>
            </Position>
            <AltitudeMeters>318.600006103515625</AltitudeMeters>
            <DistanceMeters>63577.458306935</DistanceMeters>
          </Trackpoint>
          <Trackpoint>
            <Time>2019-07-26T12:52:42.000Z</Time>
            <Position>
              <LatitudeDegrees>42.92502634227275848388671875</LatitudeDegrees>
              <LongitudeDegrees>-8.1807265989482402801513671875</LongitudeDegrees>
            </Position>
            <AltitudeMeters>318</AltitudeMeters>
            <DistanceMeters>63590.945406693</DistanceMeters>
          </Trackpoint>
          <Trackpoint>
            <Time>2019-07-26T12:52:43.000Z</Time>
            <Position>
              <LatitudeDegrees>42.9249926470220088958740234375</LatitudeDegrees>
              <LongitudeDegrees>-8.18080522119998931884765625</LongitudeDegrees>
            </Position>
            <AltitudeMeters>317.600006103515625</AltitudeMeters>
            <DistanceMeters>63598.369663331</DistanceMeters>
          </Trackpoint>
          <Trackpoint>
            <Time>2019-07-26T12:52:44.000Z</Time>
            <Position>
              <LatitudeDegrees>42.92496456764638423919677734375</LatitudeDegrees>
              <LongitudeDegrees>-8.180888034403324127197265625</LongitudeDegrees>
            </Position>
            <AltitudeMeters>317.399993896484375</AltitudeMeters>
            <DistanceMeters>63605.807287165</DistanceMeters>
          </Trackpoint>
          <Trackpoint>
            <Time>2019-07-26T12:52:45.000Z</Time>
            <Position>
              <LatitudeDegrees>42.92494428344070911407470703125</LatitudeDegrees>
              <LongitudeDegrees>-8.180977888405323028564453125</LongitudeDegrees>
            </Position>
            <AltitudeMeters>317</AltitudeMeters>
            <DistanceMeters>63613.470942767</DistanceMeters>
          </Trackpoint>
          <Trackpoint>
            <Time>2019-07-26T12:52:46.000Z</Time>
            <Position>
              <LatitudeDegrees>42.924921400845050811767578125</LatitudeDegrees>
              <LongitudeDegrees>-8.181075118482112884521484375</LongitudeDegrees>
            </Position>
            <AltitudeMeters>316.79998779296875</AltitudeMeters>
            <DistanceMeters>63621.794328285</DistanceMeters>
          </Trackpoint>
          <Trackpoint>
            <Time>2019-07-26T12:52:47.000Z</Time>
            <Position>
              <LatitudeDegrees>42.92490069754421710968017578125</LatitudeDegrees>
              <LongitudeDegrees>-8.18117109127342700958251953125</LongitudeDegrees>
            </Position>
            <AltitudeMeters>316.399993896484375</AltitudeMeters>
            <DistanceMeters>63629.948927167</DistanceMeters>
          </Trackpoint>
          <Trackpoint>
            <Time>2019-07-26T12:52:48.000Z</Time>
            <Position>
              <LatitudeDegrees>42.924884520471096038818359375</LatitudeDegrees>
              <LongitudeDegrees>-8.1812730990350246429443359375</LongitudeDegrees>
            </Position>
            <AltitudeMeters>316</AltitudeMeters>
            <DistanceMeters>63638.455277886</DistanceMeters>
          </Trackpoint>
          <Trackpoint>
            <Time>2019-07-26T12:52:49.000Z</Time>
            <Position>
              <LatitudeDegrees>42.92486406862735748291015625</LatitudeDegrees>
              <LongitudeDegrees>-8.1813750229775905609130859375</LongitudeDegrees>
            </Position>
            <AltitudeMeters>315.79998779296875</AltitudeMeters>
            <DistanceMeters>63647.068703921</DistanceMeters>
          </Trackpoint>
          <Trackpoint>
            <Time>2019-07-26T12:52:51.000Z</Time>
            <Position>
              <LatitudeDegrees>42.92482408694922924041748046875</LatitudeDegrees>
              <LongitudeDegrees>-8.18156470544636249542236328125</LongitudeDegrees>
            </Position>
            <AltitudeMeters>315.600006103515625</AltitudeMeters>
            <DistanceMeters>63663.155466514</DistanceMeters>
          </Trackpoint>
          <Trackpoint>
            <Time>2019-07-26T12:52:52.000Z</Time>
            <Position>
              <LatitudeDegrees>42.92480497620999813079833984375</LatitudeDegrees>
              <LongitudeDegrees>-8.18165992386639118194580078125</LongitudeDegrees>
            </Position>
            <AltitudeMeters>315.600006103515625</AltitudeMeters>
            <DistanceMeters>63671.201934566</DistanceMeters>
          </Trackpoint>
          <Trackpoint>
            <Time>2019-07-26T12:52:55.000Z</Time>
            <Position>
              <LatitudeDegrees>42.92474848218262195587158203125</LatitudeDegrees>
              <LongitudeDegrees>-8.1819091178476810455322265625</LongitudeDegrees>
            </Position>
            <AltitudeMeters>315.600006103515625</AltitudeMeters>
            <DistanceMeters>63692.46266213</DistanceMeters>
          </Trackpoint>
          <Trackpoint>
            <Time>2019-07-26T12:52:57.000Z</Time>
            <Position>
              <LatitudeDegrees>42.92470238171517848968505859375</LatitudeDegrees>
              <LongitudeDegrees>-8.18205152638256549835205078125</LongitudeDegrees>
            </Position>
            <AltitudeMeters>315.600006103515625</AltitudeMeters>
            <DistanceMeters>63705.152909696</DistanceMeters>
          </Trackpoint>
          <Trackpoint>
            <Time>2019-07-26T12:53:01.000Z</Time>
            <Position>
              <LatitudeDegrees>42.9246634058654308319091796875</LatitudeDegrees>
              <LongitudeDegrees>-8.18224900402128696441650390625</LongitudeDegrees>
            </Position>
            <AltitudeMeters>315.600006103515625</AltitudeMeters>
            <DistanceMeters>63721.821906432</DistanceMeters>
          </Trackpoint>
          <Trackpoint>
            <Time>2019-07-26T12:53:05.000Z</Time>
            <Position>
              <LatitudeDegrees>42.924633063375949859619140625</LatitudeDegrees>
              <LongitudeDegrees>-8.1824002973735332489013671875</LongitudeDegrees>
            </Position>
            <AltitudeMeters>315.79998779296875</AltitudeMeters>
            <DistanceMeters>63734.606443328</DistanceMeters>
          </Trackpoint>
          <Trackpoint>
            <Time>2019-07-26T12:53:08.000Z</Time>
            <Position>
              <LatitudeDegrees>42.92461504228413105010986328125</LatitudeDegrees>
              <LongitudeDegrees>-8.18250850774347782135009765625</LongitudeDegrees>
            </Position>
            <AltitudeMeters>316</AltitudeMeters>
            <DistanceMeters>63743.650969988</DistanceMeters>
          </Trackpoint>
          <Trackpoint>
            <Time>2019-07-26T12:53:11.000Z</Time>
            <Position>
              <LatitudeDegrees>42.9245997034013271331787109375</LatitudeDegrees>
              <LongitudeDegrees>-8.1826192326843738555908203125</LongitudeDegrees>
            </Position>
            <AltitudeMeters>317</AltitudeMeters>
            <DistanceMeters>63752.834700928</DistanceMeters>
          </Trackpoint>
          <Trackpoint>
            <Time>2019-07-26T12:53:14.000Z</Time>
            <Position>
              <LatitudeDegrees>42.9245698638260364532470703125</LatitudeDegrees>
              <LongitudeDegrees>-8.18271168507635593414306640625</LongitudeDegrees>
            </Position>
            <AltitudeMeters>318.20001220703125</AltitudeMeters>
            <DistanceMeters>63761.068643723</DistanceMeters>
          </Trackpoint>
          <Trackpoint>
            <Time>2019-07-26T12:53:17.000Z</Time>
            <Position>
              <LatitudeDegrees>42.92454564012587070465087890625</LatitudeDegrees>
              <LongitudeDegrees>-8.1827922351658344268798828125</LongitudeDegrees>
            </Position>
            <AltitudeMeters>319.399993896484375</AltitudeMeters>
            <DistanceMeters>63768.165809805</DistanceMeters>
          </Trackpoint>
          <Trackpoint>
            <Time>2019-07-26T12:53:20.000Z</Time>
            <Position>
              <LatitudeDegrees>42.9245219193398952484130859375</LatitudeDegrees>
              <LongitudeDegrees>-8.1828643195331096649169921875</LongitudeDegrees>
            </Position>
            <AltitudeMeters>320.600006103515625</AltitudeMeters>
            <DistanceMeters>63774.606630497</DistanceMeters>
          </Trackpoint>
          <Trackpoint>
            <Time>2019-07-26T12:53:21.000Z</Time>
            <Position>
              <LatitudeDegrees>42.9245118610560894012451171875</LatitudeDegrees>
              <LongitudeDegrees>-8.18288795650005340576171875</LongitudeDegrees>
            </Position>
            <AltitudeMeters>321</AltitudeMeters>
            <DistanceMeters>63776.83520449</DistanceMeters>
          </Trackpoint>
          <Trackpoint>
            <Time>2019-07-26T12:53:23.000Z</Time>
            <Position>
              <LatitudeDegrees>42.9244961030781269073486328125</LatitudeDegrees>
              <LongitudeDegrees>-8.18292542360723018646240234375</LongitudeDegrees>
            </Position>
            <AltitudeMeters>321.600006103515625</AltitudeMeters>
            <DistanceMeters>63780.357607794</DistanceMeters>
          </Trackpoint>
          <Trackpoint>
            <Time>2019-07-26T12:53:28.000Z</Time>
            <Position>
              <LatitudeDegrees>42.92448076419532299041748046875</LatitudeDegrees>
              <LongitudeDegrees>-8.18302935920655727386474609375</LongitudeDegrees>
            </Position>
            <AltitudeMeters>322.600006103515625</AltitudeMeters>
            <DistanceMeters>63788.998248513</DistanceMeters>
          </Trackpoint>
          <Trackpoint>
            <Time>2019-07-26T12:53:34.000Z</Time>
            <Position>
              <LatitudeDegrees>42.9244407825171947479248046875</LatitudeDegrees>
              <LongitudeDegrees>-8.18317671306431293487548828125</LongitudeDegrees>
            </Position>
            <AltitudeMeters>323.79998779296875</AltitudeMeters>
            <DistanceMeters>63801.805720497</DistanceMeters>
          </Trackpoint>
          <Trackpoint>
            <Time>2019-07-26T12:53:36.000Z</Time>
            <Position>
              <LatitudeDegrees>42.92441672645509243011474609375</LatitudeDegrees>
              <LongitudeDegrees>-8.1832076422870159149169921875</LongitudeDegrees>
            </Position>
            <AltitudeMeters>324.79998779296875</AltitudeMeters>
            <DistanceMeters>63805.482407108</DistanceMeters>
          </Trackpoint>
          <Trackpoint>
            <Time>2019-07-26T12:53:37.000Z</Time>
            <Position>
              <LatitudeDegrees>42.9244112782180309295654296875</LatitudeDegrees>
              <LongitudeDegrees>-8.1832173652946949005126953125</LongitudeDegrees>
            </Position>
            <AltitudeMeters>325</AltitudeMeters>
            <DistanceMeters>63806.479055696</DistanceMeters>
          </Trackpoint>
          <Trackpoint>
            <Time>2019-07-26T12:53:42.000Z</Time>
            <Position>
              <LatitudeDegrees>42.924370877444744110107421875</LatitudeDegrees>
              <LongitudeDegrees>-8.18327880464494228363037109375</LongitudeDegrees>
            </Position>
            <AltitudeMeters>326.20001220703125</AltitudeMeters>
            <DistanceMeters>63813.208530666</DistanceMeters>
          </Trackpoint>
          <Trackpoint>
            <Time>2019-07-26T12:53:43.000Z</Time>
            <Position>
              <LatitudeDegrees>42.9243663512170314788818359375</LatitudeDegrees>
              <LongitudeDegrees>-8.1833005137741565704345703125</LongitudeDegrees>
            </Position>
            <AltitudeMeters>326.399993896484375</AltitudeMeters>
            <DistanceMeters>63815.048715077</DistanceMeters>
          </Trackpoint>
          <Trackpoint>
            <Time>2019-07-26T12:53:46.000Z</Time>
            <Position>
              <LatitudeDegrees>42.924345396459102630615234375</LatitudeDegrees>
              <LongitudeDegrees>-8.18336497060954570770263671875</LongitudeDegrees>
            </Position>
            <AltitudeMeters>327.399993896484375</AltitudeMeters>
            <DistanceMeters>63820.796849532</DistanceMeters>
          </Trackpoint>
          <Trackpoint>
            <Time>2019-07-26T12:53:50.000Z</Time>
            <Position>
              <LatitudeDegrees>42.92432988993823528289794921875</LatitudeDegrees>
              <LongitudeDegrees>-8.183483742177486419677734375</LongitudeDegrees>
            </Position>
            <AltitudeMeters>328.20001220703125</AltitudeMeters>
            <DistanceMeters>63830.629704076</DistanceMeters>
          </Trackpoint>
          <Trackpoint>
            <Time>2019-07-26T12:53:51.000Z</Time>
            <Position>
              <LatitudeDegrees>42.924325279891490936279296875</LatitudeDegrees>
              <LongitudeDegrees>-8.18351835943758487701416015625</LongitudeDegrees>
            </Position>
            <AltitudeMeters>328.399993896484375</AltitudeMeters>
            <DistanceMeters>63833.497874161</DistanceMeters>
          </Trackpoint>
          <Trackpoint>
            <Time>2019-07-26T12:53:56.000Z</Time>
            <Position>
              <LatitudeDegrees>42.92430021800100803375244140625</LatitudeDegrees>
              <LongitudeDegrees>-8.18365104496479034423828125</LongitudeDegrees>
            </Position>
            <AltitudeMeters>329.79998779296875</AltitudeMeters>
            <DistanceMeters>63844.66583798</DistanceMeters>
          </Trackpoint>
          <Trackpoint>
            <Time>2019-07-26T12:53:57.000Z</Time>
            <Position>
              <LatitudeDegrees>42.92428898625075817108154296875</LatitudeDegrees>
              <LongitudeDegrees>-8.183674849569797515869140625</LongitudeDegrees>
            </Position>
            <AltitudeMeters>330</AltitudeMeters>
            <DistanceMeters>63846.974028852</DistanceMeters>
          </Trackpoint>
          <Trackpoint>
            <Time>2019-07-26T12:54:02.000Z</Time>
            <Position>
              <LatitudeDegrees>42.9242667742073535919189453125</LatitudeDegrees>
              <LongitudeDegrees>-8.1837866641581058502197265625</LongitudeDegrees>
            </Position>
            <AltitudeMeters>331</AltitudeMeters>
            <DistanceMeters>63856.416643681</DistanceMeters>
          </Trackpoint>
          <Trackpoint>
            <Time>2019-07-26T12:54:04.000Z</Time>
            <Position>
              <LatitudeDegrees>42.92426954023540019989013671875</LatitudeDegrees>
              <LongitudeDegrees>-8.18383754231035709381103515625</LongitudeDegrees>
            </Position>
            <AltitudeMeters>331.399993896484375</AltitudeMeters>
            <DistanceMeters>63860.575080453</DistanceMeters>
          </Trackpoint>
          <Trackpoint>
            <Time>2019-07-26T12:54:07.000Z</Time>
            <Position>
              <LatitudeDegrees>42.9242691211402416229248046875</LatitudeDegrees>
              <LongitudeDegrees>-8.1839038431644439697265625</LongitudeDegrees>
            </Position>
            <AltitudeMeters>332</AltitudeMeters>
            <DistanceMeters>63865.978249629</DistanceMeters>
          </Trackpoint>
          <Trackpoint>
            <Time>2019-07-26T12:54:11.000Z</Time>
            <Position>
              <LatitudeDegrees>42.92426769621670246124267578125</LatitudeDegrees>
              <LongitudeDegrees>-8.1840086169540882110595703125</LongitudeDegrees>
            </Position>
            <AltitudeMeters>333.20001220703125</AltitudeMeters>
            <DistanceMeters>63874.519031649</DistanceMeters>
          </Trackpoint>
          <Trackpoint>
            <Time>2019-07-26T12:54:16.000Z</Time>
            <Position>
              <LatitudeDegrees>42.9242424666881561279296875</LatitudeDegrees>
              <LongitudeDegrees>-8.18414046429097652435302734375</LongitudeDegrees>
            </Position>
            <AltitudeMeters>334.399993896484375</AltitudeMeters>
            <DistanceMeters>63885.625374171</DistanceMeters>
          </Trackpoint>
          <Trackpoint>
            <Time>2019-07-26T12:54:19.000Z</Time>
            <Position>
              <LatitudeDegrees>42.92422360740602016448974609375</LatitudeDegrees>
              <LongitudeDegrees>-8.18421355448663234710693359375</LongitudeDegrees>
            </Position>
            <AltitudeMeters>335.20001220703125</AltitudeMeters>
            <DistanceMeters>63891.941613379</DistanceMeters>
          </Trackpoint>
          <Trackpoint>
            <Time>2019-07-26T12:54:21.000Z</Time>
            <Position>
              <LatitudeDegrees>42.9242087714374065399169921875</LatitudeDegrees>
              <LongitudeDegrees>-8.18426401354372501373291015625</LongitudeDegrees>
            </Position>
            <AltitudeMeters>335.600006103515625</AltitudeMeters>
            <DistanceMeters>63896.373364305</DistanceMeters>
          </Trackpoint>
          <Trackpoint>
            <Time>2019-07-26T12:54:26.000Z</Time>
            <Position>
              <LatitudeDegrees>42.92415688745677471160888671875</LatitudeDegrees>
              <LongitudeDegrees>-8.1843812763690948486328125</LongitudeDegrees>
            </Position>
            <AltitudeMeters>336.399993896484375</AltitudeMeters>
            <DistanceMeters>63907.539710866</DistanceMeters>
          </Trackpoint>
          <Trackpoint>
            <Time>2019-07-26T12:54:27.000Z</Time>
            <Position>
              <LatitudeDegrees>42.924146242439746856689453125</LatitudeDegrees>
              <LongitudeDegrees>-8.18439980037510395050048828125</LongitudeDegrees>
            </Position>
            <AltitudeMeters>336.600006103515625</AltitudeMeters>
            <DistanceMeters>63909.459156408</DistanceMeters>
          </Trackpoint>
          <Trackpoint>
            <Time>2019-07-26T12:54:32.000Z</Time>
            <Position>
              <LatitudeDegrees>42.924093268811702728271484375</LatitudeDegrees>
              <LongitudeDegrees>-8.18447657860815525054931640625</LongitudeDegrees>
            </Position>
            <AltitudeMeters>337.79998779296875</AltitudeMeters>
            <DistanceMeters>63918.056842479</DistanceMeters>
          </Trackpoint>
          <Trackpoint>
            <Time>2019-07-26T12:54:33.000Z</Time>
            <Position>
              <LatitudeDegrees>42.92408220469951629638671875</LatitudeDegrees>
              <LongitudeDegrees>-8.18449795246124267578125</LongitudeDegrees>
            </Position>
            <AltitudeMeters>338.20001220703125</AltitudeMeters>
            <DistanceMeters>63920.190186926</DistanceMeters>
          </Trackpoint>
          <Trackpoint>
            <Time>2019-07-26T12:54:37.000Z</Time>
            <Position>
              <LatitudeDegrees>42.92401137761771678924560546875</LatitudeDegrees>
              <LongitudeDegrees>-8.18457867018878459930419921875</LongitudeDegrees>
            </Position>
            <AltitudeMeters>338.79998779296875</AltitudeMeters>
            <DistanceMeters>63930.458349982</DistanceMeters>
          </Trackpoint>
          <Trackpoint>
            <Time>2019-07-26T12:54:39.000Z</Time>
            <Position>
              <LatitudeDegrees>42.923981286585330963134765625</LatitudeDegrees>
              <LongitudeDegrees>-8.184615634381771087646484375</LongitudeDegrees>
            </Position>
            <AltitudeMeters>338.79998779296875</AltitudeMeters>
            <DistanceMeters>63934.962856811</DistanceMeters>
          </Trackpoint>
          <Trackpoint>
            <Time>2019-07-26T12:54:40.000Z</Time>
            <Position>
              <LatitudeDegrees>42.92396284639835357666015625</LatitudeDegrees>
              <LongitudeDegrees>-8.1846359185874462127685546875</LongitudeDegrees>
            </Position>
            <AltitudeMeters>338.79998779296875</AltitudeMeters>
            <DistanceMeters>63937.598028302</DistanceMeters>
          </Trackpoint>
          <Trackpoint>
            <Time>2019-07-26T12:54:44.000Z</Time>
            <Position>
              <LatitudeDegrees>42.923865281045436859130859375</LatitudeDegrees>
              <LongitudeDegrees>-8.18472803570330142974853515625</LongitudeDegrees>
            </Position>
            <AltitudeMeters>339</AltitudeMeters>
            <DistanceMeters>63950.80024537</DistanceMeters>
          </Trackpoint>
          <Trackpoint>
            <Time>2019-07-26T12:54:50.000Z</Time>
            <Position>
              <LatitudeDegrees>42.92363888584077358245849609375</LatitudeDegrees>
              <LongitudeDegrees>-8.1848478130996227264404296875</LongitudeDegrees>
            </Position>
            <AltitudeMeters>339</AltitudeMeters>
            <DistanceMeters>63977.823443774</DistanceMeters>
          </Trackpoint>
          <Trackpoint>
            <Time>2019-07-26T12:54:53.000Z</Time>
            <Position>
              <LatitudeDegrees>42.92351852171123027801513671875</LatitudeDegrees>
              <LongitudeDegrees>-8.1848981045186519622802734375</LongitudeDegrees>
            </Position>
            <AltitudeMeters>339</AltitudeMeters>
            <DistanceMeters>63991.833359604</DistanceMeters>
          </Trackpoint>
          <Trackpoint>
            <Time>2019-07-26T12:54:56.000Z</Time>
            <Position>
              <LatitudeDegrees>42.92337485589087009429931640625</LatitudeDegrees>
              <LongitudeDegrees>-8.184935487806797027587890625</LongitudeDegrees>
            </Position>
            <AltitudeMeters>339.20001220703125</AltitudeMeters>
            <DistanceMeters>64008.11124439</DistanceMeters>
          </Trackpoint>
          <Trackpoint>
            <Time>2019-07-26T12:54:57.000Z</Time>
            <Position>
              <LatitudeDegrees>42.92332942597568035125732421875</LatitudeDegrees>
              <LongitudeDegrees>-8.18495032377541065216064453125</LongitudeDegrees>
            </Position>
            <AltitudeMeters>339.20001220703125</AltitudeMeters>
            <DistanceMeters>64013.31086446</DistanceMeters>
          </Trackpoint>
          <Trackpoint>
            <Time>2019-07-26T12:55:03.000Z</Time>
            <Position>
              <LatitudeDegrees>42.9229952394962310791015625</LatitudeDegrees>
              <LongitudeDegrees>-8.18506415002048015594482421875</LongitudeDegrees>
            </Position>
            <AltitudeMeters>339.600006103515625</AltitudeMeters>
            <DistanceMeters>64051.64610622</DistanceMeters>
          </Trackpoint>
          <Trackpoint>
            <Time>2019-07-26T12:55:05.000Z</Time>
            <Position>
              <LatitudeDegrees>42.9228830896317958831787109375</LatitudeDegrees>
              <LongitudeDegrees>-8.185131959617137908935546875</LongitudeDegrees>
            </Position>
            <AltitudeMeters>339.600006103515625</AltitudeMeters>
            <DistanceMeters>64065.297248574</DistanceMeters>
          </Trackpoint>
          <Trackpoint>
            <Time>2019-07-26T12:55:08.000Z</Time>
            <Position>
              <LatitudeDegrees>42.92274671606719493865966796875</LatitudeDegrees>
              <LongitudeDegrees>-8.1852905452251434326171875</LongitudeDegrees>
            </Position>
            <AltitudeMeters>339.600006103515625</AltitudeMeters>
            <DistanceMeters>64085.233391245</DistanceMeters>
          </Trackpoint>
          <Trackpoint>
            <Time>2019-07-26T12:55:09.000Z</Time>
            <Position>
              <LatitudeDegrees>42.92271369136869907379150390625</LatitudeDegrees>
              <LongitudeDegrees>-8.18534997291862964630126953125</LongitudeDegrees>
            </Position>
            <AltitudeMeters>339.600006103515625</AltitudeMeters>
            <DistanceMeters>64091.313615991</DistanceMeters>
          </Trackpoint>
          <Trackpoint>
            <Time>2019-07-26T12:55:11.000Z</Time>
            <Position>
              <LatitudeDegrees>42.92265652678906917572021484375</LatitudeDegrees>
              <LongitudeDegrees>-8.185460530221462249755859375</LongitudeDegrees>
            </Position>
            <AltitudeMeters>339.600006103515625</AltitudeMeters>
            <DistanceMeters>64102.344085157</DistanceMeters>
          </Trackpoint>
          <Trackpoint>
            <Time>2019-07-26T12:55:13.000Z</Time>
            <Position>
              <LatitudeDegrees>42.92261830531060695648193359375</LatitudeDegrees>
              <LongitudeDegrees>-8.18556471727788448333740234375</LongitudeDegrees>
            </Position>
            <AltitudeMeters>339.399993896484375</AltitudeMeters>
            <DistanceMeters>64111.841053279</DistanceMeters>
          </Trackpoint>
          <Trackpoint>
            <Time>2019-07-26T12:55:17.000Z</Time>
            <Position>
              <LatitudeDegrees>42.9226138629019260406494140625</LatitudeDegrees>
              <LongitudeDegrees>-8.18573243916034698486328125</LongitudeDegrees>
            </Position>
            <AltitudeMeters>339.399993896484375</AltitudeMeters>
            <DistanceMeters>64125.519619868</DistanceMeters>
          </Trackpoint>
          <Trackpoint>
            <Time>2019-07-26T12:55:24.000Z</Time>
            <Position>
              <LatitudeDegrees>42.92266759090125560760498046875</LatitudeDegrees>
              <LongitudeDegrees>-8.1859932839870452880859375</LongitudeDegrees>
            </Position>
            <AltitudeMeters>339.399993896484375</AltitudeMeters>
            <DistanceMeters>64147.604286243</DistanceMeters>
          </Trackpoint>
          <Trackpoint>
            <Time>2019-07-26T12:55:26.000Z</Time>
            <Position>
              <LatitudeDegrees>42.9226738773286342620849609375</LatitudeDegrees>
              <LongitudeDegrees>-8.186074756085872650146484375</LongitudeDegrees>
            </Position>
            <AltitudeMeters>339.399993896484375</AltitudeMeters>
            <DistanceMeters>64154.281223221</DistanceMeters>
          </Trackpoint>
          <Trackpoint>
            <Time>2019-07-26T12:55:28.000Z</Time>
            <Position>
              <LatitudeDegrees>42.9226742126047611236572265625</LatitudeDegrees>
              <LongitudeDegrees>-8.18615622818470001220703125</LongitudeDegrees>
            </Position>
            <AltitudeMeters>339.600006103515625</AltitudeMeters>
            <DistanceMeters>64160.922224151</DistanceMeters>
          </Trackpoint>
          <Trackpoint>
            <Time>2019-07-26T12:55:30.000Z</Time>
            <Position>
              <LatitudeDegrees>42.92267111130058765411376953125</LatitudeDegrees>
              <LongitudeDegrees>-8.18623560480773448944091796875</LongitudeDegrees>
            </Position>
            <AltitudeMeters>340</AltitudeMeters>
            <DistanceMeters>64167.400788445</DistanceMeters>
          </Trackpoint>
          <Trackpoint>
            <Time>2019-07-26T12:55:31.000Z</Time>
            <Position>
              <LatitudeDegrees>42.9226681776344776153564453125</LatitudeDegrees>
              <LongitudeDegrees>-8.1862747482955455780029296875</LongitudeDegrees>
            </Position>
            <AltitudeMeters>340.20001220703125</AltitudeMeters>
            <DistanceMeters>64170.606443915</DistanceMeters>
          </Trackpoint>
          <Trackpoint>
            <Time>2019-07-26T12:55:36.000Z</Time>
            <Position>
              <LatitudeDegrees>42.922644875943660736083984375</LatitudeDegrees>
              <LongitudeDegrees>-8.1864739023149013519287109375</LongitudeDegrees>
            </Position>
            <AltitudeMeters>341.20001220703125</AltitudeMeters>
            <DistanceMeters>64187.044142882</DistanceMeters>
          </Trackpoint>
          <Trackpoint>
            <Time>2019-07-26T12:55:38.000Z</Time>
            <Position>
              <LatitudeDegrees>42.92263624258339405059814453125</LatitudeDegrees>
              <LongitudeDegrees>-8.186554871499538421630859375</LongitudeDegrees>
            </Position>
            <AltitudeMeters>341.79998779296875</AltitudeMeters>
            <DistanceMeters>64193.713637358</DistanceMeters>
          </Trackpoint>
          <Trackpoint>
            <Time>2019-07-26T12:55:40.000Z</Time>
            <Position>
              <LatitudeDegrees>42.92262786068022251129150390625</LatitudeDegrees>
              <LongitudeDegrees>-8.18663676269352436065673828125</LongitudeDegrees>
            </Position>
            <AltitudeMeters>342</AltitudeMeters>
            <DistanceMeters>64200.452498867</DistanceMeters>
          </Trackpoint>
          <Trackpoint>
            <Time>2019-07-26T12:55:41.000Z</Time>
            <Position>
              <LatitudeDegrees>42.9226202331483364105224609375</LatitudeDegrees>
              <LongitudeDegrees>-8.186675570905208587646484375</LongitudeDegrees>
            </Position>
            <AltitudeMeters>342.20001220703125</AltitudeMeters>
            <DistanceMeters>64203.72782035</DistanceMeters>
          </Trackpoint>
          <Trackpoint>
            <Time>2019-07-26T12:55:47.000Z</Time>
            <Position>
              <LatitudeDegrees>42.92261277325451374053955078125</LatitudeDegrees>
              <LongitudeDegrees>-8.18689928390085697174072265625</LongitudeDegrees>
            </Position>
            <AltitudeMeters>343.20001220703125</AltitudeMeters>
            <DistanceMeters>64221.980371961</DistanceMeters>
          </Trackpoint>
          <Trackpoint>
            <Time>2019-07-26T12:55:48.000Z</Time>
            <Position>
              <LatitudeDegrees>42.92261444963514804840087890625</LatitudeDegrees>
              <LongitudeDegrees>-8.1869342364370822906494140625</LongitudeDegrees>
            </Position>
            <AltitudeMeters>343.399993896484375</AltitudeMeters>
            <DistanceMeters>64224.835920775</DistanceMeters>
          </Trackpoint>
          <Trackpoint>
            <Time>2019-07-26T12:55:51.000Z</Time>
            <Position>
              <LatitudeDegrees>42.92264043353497982025146484375</LatitudeDegrees>
              <LongitudeDegrees>-8.1870334781706333160400390625</LongitudeDegrees>
            </Position>
            <AltitudeMeters>344</AltitudeMeters>
            <DistanceMeters>64233.425726048</DistanceMeters>
          </Trackpoint>
          <Trackpoint>
            <Time>2019-07-26T12:55:52.000Z</Time>
            <Position>
              <LatitudeDegrees>42.92265552096068859100341796875</LatitudeDegrees>
              <LongitudeDegrees>-8.1870606355369091033935546875</LongitudeDegrees>
            </Position>
            <AltitudeMeters>344.399993896484375</AltitudeMeters>
            <DistanceMeters>64236.205968022</DistanceMeters>
          </Trackpoint>
          <Trackpoint>
            <Time>2019-07-26T12:55:53.000Z</Time>
            <Position>
              <LatitudeDegrees>42.922669686377048492431640625</LatitudeDegrees>
              <LongitudeDegrees>-8.1870881281793117523193359375</LongitudeDegrees>
            </Position>
            <AltitudeMeters>344.79998779296875</AltitudeMeters>
            <DistanceMeters>64238.946957552</DistanceMeters>
          </Trackpoint>
          <Trackpoint>
            <Time>2019-07-26T12:55:56.000Z</Time>
            <Position>
              <LatitudeDegrees>42.92270698584616184234619140625</LatitudeDegrees>
              <LongitudeDegrees>-8.18718376569449901580810546875</LongitudeDegrees>
            </Position>
            <AltitudeMeters>345.79998779296875</AltitudeMeters>
            <DistanceMeters>64247.778820341</DistanceMeters>
          </Trackpoint>
          <Trackpoint>
            <Time>2019-07-26T12:56:00.000Z</Time>
            <Position>
              <LatitudeDegrees>42.92275593616068363189697265625</LatitudeDegrees>
              <LongitudeDegrees>-8.187306225299835205078125</LongitudeDegrees>
            </Position>
            <AltitudeMeters>346.600006103515625</AltitudeMeters>
            <DistanceMeters>64259.150306377</DistanceMeters>
          </Trackpoint>
          <Trackpoint>
            <Time>2019-07-26T12:56:02.000Z</Time>
            <Position>
              <LatitudeDegrees>42.92276951484382152557373046875</LatitudeDegrees>
              <LongitudeDegrees>-8.18738040514290332794189453125</LongitudeDegrees>
            </Position>
            <AltitudeMeters>346.79998779296875</AltitudeMeters>
            <DistanceMeters>64265.383073729</DistanceMeters>
          </Trackpoint>
          <Trackpoint>
            <Time>2019-07-26T12:56:07.000Z</Time>
            <Position>
              <LatitudeDegrees>42.922790385782718658447265625</LatitudeDegrees>
              <LongitudeDegrees>-8.187540583312511444091796875</LongitudeDegrees>
            </Position>
            <AltitudeMeters>347.20001220703125</AltitudeMeters>
            <DistanceMeters>64278.643301801</DistanceMeters>
          </Trackpoint>
          <Trackpoint>
            <Time>2019-07-26T12:56:11.000Z</Time>
            <Position>
              <LatitudeDegrees>42.922797761857509613037109375</LatitudeDegrees>
              <LongitudeDegrees>-8.1876456923782825469970703125</LongitudeDegrees>
            </Position>
            <AltitudeMeters>348.20001220703125</AltitudeMeters>
            <DistanceMeters>64287.249386102</DistanceMeters>
          </Trackpoint>
          <Trackpoint>
            <Time>2019-07-26T12:56:15.000Z</Time>
            <Position>
              <LatitudeDegrees>42.9228103347122669219970703125</LatitudeDegrees>
              <LongitudeDegrees>-8.18775356747210025787353515625</LongitudeDegrees>
            </Position>
            <AltitudeMeters>349.20001220703125</AltitudeMeters>
            <DistanceMeters>64296.152532233</DistanceMeters>
          </Trackpoint>
          <Trackpoint>
            <Time>2019-07-26T12:56:16.000Z</Time>
            <Position>
              <LatitudeDegrees>42.922813184559345245361328125</LatitudeDegrees>
              <LongitudeDegrees>-8.18777955137193202972412109375</LongitudeDegrees>
            </Position>
            <AltitudeMeters>349.399993896484375</AltitudeMeters>
            <DistanceMeters>64298.292216498</DistanceMeters>
          </Trackpoint>
          <Trackpoint>
            <Time>2019-07-26T12:56:21.000Z</Time>
            <Position>
              <LatitudeDegrees>42.92286791838705539703369140625</LatitudeDegrees>
              <LongitudeDegrees>-8.187873847782611846923828125</LongitudeDegrees>
            </Position>
            <AltitudeMeters>350.600006103515625</AltitudeMeters>
            <DistanceMeters>64308.09932332</DistanceMeters>
          </Trackpoint>
          <Trackpoint>
            <Time>2019-07-26T12:56:25.000Z</Time>
            <Position>
              <LatitudeDegrees>42.92293229140341281890869140625</LatitudeDegrees>
              <LongitudeDegrees>-8.18792455829679965972900390625</LongitudeDegrees>
            </Position>
            <AltitudeMeters>351.600006103515625</AltitudeMeters>
            <DistanceMeters>64316.371561184</DistanceMeters>
          </Trackpoint>
          <Trackpoint>
            <Time>2019-07-26T12:56:26.000Z</Time>
            <Position>
              <LatitudeDegrees>42.9229504801332950592041015625</LatitudeDegrees>
              <LongitudeDegrees>-8.18793562240898609161376953125</LongitudeDegrees>
            </Position>
            <AltitudeMeters>351.79998779296875</AltitudeMeters>
            <DistanceMeters>64318.587945985</DistanceMeters>
          </Trackpoint>
          <Trackpoint>
            <Time>2019-07-26T12:56:30.000Z</Time>
            <Position>
              <LatitudeDegrees>42.9230192117393016815185546875</LatitudeDegrees>
              <LongitudeDegrees>-8.18797744810581207275390625</LongitudeDegrees>
            </Position>
            <AltitudeMeters>353</AltitudeMeters>
            <DistanceMeters>64326.962705907</DistanceMeters>
          </Trackpoint>
          <Trackpoint>
            <Time>2019-07-26T12:56:34.000Z</Time>
            <Position>
              <LatitudeDegrees>42.92308148927986621856689453125</LatitudeDegrees>
              <LongitudeDegrees>-8.18804693408310413360595703125</LongitudeDegrees>
            </Position>
            <AltitudeMeters>354</AltitudeMeters>
            <DistanceMeters>64335.913395166</DistanceMeters>
          </Trackpoint>
          <Trackpoint>
            <Time>2019-07-26T12:56:35.000Z</Time>
            <Position>
              <LatitudeDegrees>42.92309221811592578887939453125</LatitudeDegrees>
              <LongitudeDegrees>-8.188066966831684112548828125</LongitudeDegrees>
            </Position>
            <AltitudeMeters>354.20001220703125</AltitudeMeters>
            <DistanceMeters>64337.933690825</DistanceMeters>
          </Trackpoint>
          <Trackpoint>
            <Time>2019-07-26T12:56:39.000Z</Time>
            <Position>
              <LatitudeDegrees>42.92309372685849666595458984375</LatitudeDegrees>
              <LongitudeDegrees>-8.1881392188370227813720703125</LongitudeDegrees>
            </Position>
            <AltitudeMeters>355</AltitudeMeters>
            <DistanceMeters>64343.824580722</DistanceMeters>
          </Trackpoint>
          <Trackpoint>
            <Time>2019-07-26T12:56:40.000Z</Time>
            <Position>
              <LatitudeDegrees>42.92306254617869853973388671875</LatitudeDegrees>
              <LongitudeDegrees>-8.188154138624668121337890625</LongitudeDegrees>
            </Position>
            <AltitudeMeters>355</AltitudeMeters>
            <DistanceMeters>64347.502495146</DistanceMeters>
          </Trackpoint>
          <Trackpoint>
            <Time>2019-07-26T12:56:41.000Z</Time>
            <Position>
              <LatitudeDegrees>42.92305986396968364715576171875</LatitudeDegrees>
              <LongitudeDegrees>-8.188159503042697906494140625</LongitudeDegrees>
            </Position>
            <AltitudeMeters>355</AltitudeMeters>
            <DistanceMeters>64348.0315815</DistanceMeters>
          </Trackpoint>
          <Trackpoint>
            <Time>2019-07-26T12:56:45.000Z</Time>
            <Position>
              <LatitudeDegrees>42.92304645292460918426513671875</LatitudeDegrees>
              <LongitudeDegrees>-8.18826922215521335601806640625</LongitudeDegrees>
            </Position>
            <AltitudeMeters>355.20001220703125</AltitudeMeters>
            <DistanceMeters>64357.098544384</DistanceMeters>
          </Trackpoint>
          <Trackpoint>
            <Time>2019-07-26T12:56:47.000Z</Time>
            <Position>
              <LatitudeDegrees>42.92304025031626224517822265625</LatitudeDegrees>
              <LongitudeDegrees>-8.1883477605879306793212890625</LongitudeDegrees>
            </Position>
            <AltitudeMeters>355.600006103515625</AltitudeMeters>
            <DistanceMeters>64363.536560451</DistanceMeters>
          </Trackpoint>
          <Trackpoint>
            <Time>2019-07-26T12:56:49.000Z</Time>
            <Position>
              <LatitudeDegrees>42.92303069494664669036865234375</LatitudeDegrees>
              <LongitudeDegrees>-8.18838204257190227508544921875</LongitudeDegrees>
            </Position>
            <AltitudeMeters>356.20001220703125</AltitudeMeters>
            <DistanceMeters>64366.523484543</DistanceMeters>
          </Trackpoint>
          <Trackpoint>
            <Time>2019-07-26T12:56:51.000Z</Time>
            <Position>
              <LatitudeDegrees>42.92301812209188938140869140625</LatitudeDegrees>
              <LongitudeDegrees>-8.18843920715153217315673828125</LongitudeDegrees>
            </Position>
            <AltitudeMeters>356.79998779296875</AltitudeMeters>
            <DistanceMeters>64371.387515822</DistanceMeters>
          </Trackpoint>
          <Trackpoint>
            <Time>2019-07-26T12:56:53.000Z</Time>
            <Position>
              <LatitudeDegrees>42.92300253175199031829833984375</LatitudeDegrees>
              <LongitudeDegrees>-8.18849385716021060943603515625</LongitudeDegrees>
            </Position>
            <AltitudeMeters>357.600006103515625</AltitudeMeters>
            <DistanceMeters>64376.16727454</DistanceMeters>
          </Trackpoint>
          <Trackpoint>
            <Time>2019-07-26T12:56:56.000Z</Time>
            <Position>
              <LatitudeDegrees>42.92300336994230747222900390625</LatitudeDegrees>
              <LongitudeDegrees>-8.18856510333716869354248046875</LongitudeDegrees>
            </Position>
            <AltitudeMeters>358.600006103515625</AltitudeMeters>
            <DistanceMeters>64381.974021085</DistanceMeters>
          </Trackpoint>
          <Trackpoint>
            <Time>2019-07-26T12:56:58.000Z</Time>
            <Position>
              <LatitudeDegrees>42.92302901856601238250732421875</LatitudeDegrees>
              <LongitudeDegrees>-8.1885978765785694122314453125</LongitudeDegrees>
            </Position>
            <AltitudeMeters>359.399993896484375</AltitudeMeters>
            <DistanceMeters>64385.882843074</DistanceMeters>
          </Trackpoint>
          <Trackpoint>
            <Time>2019-07-26T12:57:00.000Z</Time>
            <Position>
              <LatitudeDegrees>42.923051901161670684814453125</LatitudeDegrees>
              <LongitudeDegrees>-8.18861874751746654510498046875</LongitudeDegrees>
            </Position>
            <AltitudeMeters>359.79998779296875</AltitudeMeters>
            <DistanceMeters>64388.947362531</DistanceMeters>
          </Trackpoint>
          <Trackpoint>
            <Time>2019-07-26T12:57:02.000Z</Time>
            <Position>
              <LatitudeDegrees>42.92309121228754520416259765625</LatitudeDegrees>
              <LongitudeDegrees>-8.18862679414451122283935546875</LongitudeDegrees>
            </Position>
            <AltitudeMeters>360.600006103515625</AltitudeMeters>
            <DistanceMeters>64393.371976156</DistanceMeters>
          </Trackpoint>
          <Trackpoint>
            <Time>2019-07-26T12:57:03.000Z</Time>
            <Position>
              <LatitudeDegrees>42.92311526834964752197265625</LatitudeDegrees>
              <LongitudeDegrees>-8.1886310689151287078857421875</LongitudeDegrees>
            </Position>
            <AltitudeMeters>361</AltitudeMeters>
            <DistanceMeters>64396.069797798</DistanceMeters>
          </Trackpoint>
          <Trackpoint>
            <Time>2019-07-26T12:57:07.000Z</Time>
            <Position>
              <LatitudeDegrees>42.92318760417401790618896484375</LatitudeDegrees>
              <LongitudeDegrees>-8.18865495733916759490966796875</LongitudeDegrees>
            </Position>
            <AltitudeMeters>362</AltitudeMeters>
            <DistanceMeters>64404.352944593</DistanceMeters>
          </Trackpoint>
          <Trackpoint>
            <Time>2019-07-26T12:57:09.000Z</Time>
            <Position>
              <LatitudeDegrees>42.92322264052927494049072265625</LatitudeDegrees>
              <LongitudeDegrees>-8.18866484798491001129150390625</LongitudeDegrees>
            </Position>
            <AltitudeMeters>362.79998779296875</AltitudeMeters>
            <DistanceMeters>64408.335006149</DistanceMeters>
          </Trackpoint>
          <Trackpoint>
            <Time>2019-07-26T12:57:10.000Z</Time>
            <Position>
              <LatitudeDegrees>42.92323789559304714202880859375</LatitudeDegrees>
              <LongitudeDegrees>-8.18867188878357410430908203125</LongitudeDegrees>
            </Position>
            <AltitudeMeters>363</AltitudeMeters>
            <DistanceMeters>64410.125446636</DistanceMeters>
          </Trackpoint>
          <Trackpoint>
            <Time>2019-07-26T12:57:15.000Z</Time>
            <Position>
              <LatitudeDegrees>42.923312745988368988037109375</LatitudeDegrees>
              <LongitudeDegrees>-8.18872310221195220947265625</LongitudeDegrees>
            </Position>
            <AltitudeMeters>364.20001220703125</AltitudeMeters>
            <DistanceMeters>64419.442911685</DistanceMeters>
          </Trackpoint>
          <Trackpoint>
            <Time>2019-07-26T12:57:17.000Z</Time>
            <Position>
              <LatitudeDegrees>42.923344261944293975830078125</LatitudeDegrees>
              <LongitudeDegrees>-8.1887453980743885040283203125</LongitudeDegrees>
            </Position>
            <AltitudeMeters>364.399993896484375</AltitudeMeters>
            <DistanceMeters>64423.39424085</DistanceMeters>
          </Trackpoint>
          <Trackpoint>
            <Time>2019-07-26T12:57:21.000Z</Time>
            <Position>
              <LatitudeDegrees>42.9234121553599834442138671875</LatitudeDegrees>
              <LongitudeDegrees>-8.188777081668376922607421875</LongitudeDegrees>
            </Position>
            <AltitudeMeters>365.20001220703125</AltitudeMeters>
            <DistanceMeters>64431.379877947</DistanceMeters>
          </Trackpoint>
          <Trackpoint>
            <Time>2019-07-26T12:57:25.000Z</Time>
            <Position>
              <LatitudeDegrees>42.9234906099736690521240234375</LatitudeDegrees>
              <LongitudeDegrees>-8.18881622515618801116943359375</LongitudeDegrees>
            </Position>
            <AltitudeMeters>366.20001220703125</AltitudeMeters>
            <DistanceMeters>64440.676968445</DistanceMeters>
          </Trackpoint>
          <Trackpoint>
            <Time>2019-07-26T12:57:26.000Z</Time>
            <Position>
              <LatitudeDegrees>42.92351382784545421600341796875</LatitudeDegrees>
              <LongitudeDegrees>-8.1888283789157867431640625</LongitudeDegrees>
            </Position>
            <AltitudeMeters>366.20001220703125</AltitudeMeters>
            <DistanceMeters>64443.445819271</DistanceMeters>
          </Trackpoint>
          <Trackpoint>
            <Time>2019-07-26T12:57:32.000Z</Time>
            <Position>
              <LatitudeDegrees>42.9236820526421070098876953125</LatitudeDegrees>
              <LongitudeDegrees>-8.18890138529241085052490234375</LongitudeDegrees>
            </Position>
            <AltitudeMeters>367</AltitudeMeters>
            <DistanceMeters>64463.092693009</DistanceMeters>
          </Trackpoint>
          <Trackpoint>
            <Time>2019-07-26T12:57:36.000Z</Time>
            <Position>
              <LatitudeDegrees>42.92383334599435329437255859375</LatitudeDegrees>
              <LongitudeDegrees>-8.18897120654582977294921875</LongitudeDegrees>
            </Position>
            <AltitudeMeters>367.20001220703125</AltitudeMeters>
            <DistanceMeters>64480.867515501</DistanceMeters>
          </Trackpoint>
          <Trackpoint>
            <Time>2019-07-26T12:57:39.000Z</Time>
            <Position>
              <LatitudeDegrees>42.92395572178065776824951171875</LatitudeDegrees>
              <LongitudeDegrees>-8.189033232629299163818359375</LongitudeDegrees>
            </Position>
            <AltitudeMeters>367.399993896484375</AltitudeMeters>
            <DistanceMeters>64495.396040439</DistanceMeters>
          </Trackpoint>
          <Trackpoint>
            <Time>2019-07-26T12:57:43.000Z</Time>
            <Position>
              <LatitudeDegrees>42.9241259582340717315673828125</LatitudeDegrees>
              <LongitudeDegrees>-8.189112357795238494873046875</LongitudeDegrees>
            </Position>
            <AltitudeMeters>367.600006103515625</AltitudeMeters>
            <DistanceMeters>64515.411066827</DistanceMeters>
          </Trackpoint>
          <Trackpoint>
            <Time>2019-07-26T12:57:48.000Z</Time>
            <Position>
              <LatitudeDegrees>42.9243458993732929229736328125</LatitudeDegrees>
              <LongitudeDegrees>-8.1892174668610095977783203125</LongitudeDegrees>
            </Position>
            <AltitudeMeters>367.79998779296875</AltitudeMeters>
            <DistanceMeters>64541.346571339</DistanceMeters>
          </Trackpoint>
          <Trackpoint>
            <Time>2019-07-26T12:57:55.000Z</Time>
            <Position>
              <LatitudeDegrees>42.92457145638763904571533203125</LatitudeDegrees>
              <LongitudeDegrees>-8.18932869471609592437744140625</LongitudeDegrees>
            </Position>
            <AltitudeMeters>368.600006103515625</AltitudeMeters>
            <DistanceMeters>64568.03808518</DistanceMeters>
          </Trackpoint>
          <Trackpoint>
            <Time>2019-07-26T12:58:01.000Z</Time>
            <Position>
              <LatitudeDegrees>42.9247606359422206878662109375</LatitudeDegrees>
              <LongitudeDegrees>-8.18941955454647541046142578125</LongitudeDegrees>
            </Position>
            <AltitudeMeters>369.20001220703125</AltitudeMeters>
            <DistanceMeters>64590.358442424</DistanceMeters>
          </Trackpoint>
          <Trackpoint>
            <Time>2019-07-26T12:58:05.000Z</Time>
            <Position>
              <LatitudeDegrees>42.9248915612697601318359375</LatitudeDegrees>
              <LongitudeDegrees>-8.18947546184062957763671875</LongitudeDegrees>
            </Position>
            <AltitudeMeters>369.399993896484375</AltitudeMeters>
            <DistanceMeters>64605.626429305</DistanceMeters>
          </Trackpoint>
          <Trackpoint>
            <Time>2019-07-26T12:58:07.000Z</Time>
            <Position>
              <LatitudeDegrees>42.9249621368944644927978515625</LatitudeDegrees>
              <LongitudeDegrees>-8.1895091570913791656494140625</LongitudeDegrees>
            </Position>
            <AltitudeMeters>369.600006103515625</AltitudeMeters>
            <DistanceMeters>64613.947644731</DistanceMeters>
          </Trackpoint>
          <Trackpoint>
            <Time>2019-07-26T12:58:08.000Z</Time>
            <Position>
              <LatitudeDegrees>42.92500044219195842742919921875</LatitudeDegrees>
              <LongitudeDegrees>-8.18952717818319797515869140625</LongitudeDegrees>
            </Position>
            <AltitudeMeters>369.79998779296875</AltitudeMeters>
            <DistanceMeters>64618.457160465</DistanceMeters>
          </Trackpoint>
          <Trackpoint>
            <Time>2019-07-26T12:58:15.000Z</Time>
            <Position>
              <LatitudeDegrees>42.92529280297458171844482421875</LatitudeDegrees>
              <LongitudeDegrees>-8.1896446086466312408447265625</LongitudeDegrees>
            </Position>
            <AltitudeMeters>370.79998779296875</AltitudeMeters>
            <DistanceMeters>64652.375707888</DistanceMeters>
          </Trackpoint>
          <Trackpoint>
            <Time>2019-07-26T12:58:24.000Z</Time>
            <Position>
              <LatitudeDegrees>42.9256226308643817901611328125</LatitudeDegrees>
              <LongitudeDegrees>-8.18979422561824321746826171875</LongitudeDegrees>
            </Position>
            <AltitudeMeters>371.600006103515625</AltitudeMeters>
            <DistanceMeters>64691.058467709</DistanceMeters>
          </Trackpoint>
          <Trackpoint>
            <Time>2019-07-26T12:58:25.000Z</Time>
            <Position>
              <LatitudeDegrees>42.92565925978124141693115234375</LatitudeDegrees>
              <LongitudeDegrees>-8.1898115761578083038330078125</LongitudeDegrees>
            </Position>
            <AltitudeMeters>371.79998779296875</AltitudeMeters>
            <DistanceMeters>64695.373559553</DistanceMeters>
          </Trackpoint>
          <Trackpoint>
            <Time>2019-07-26T12:58:29.000Z</Time>
            <Position>
              <LatitudeDegrees>42.9257956333458423614501953125</LatitudeDegrees>
              <LongitudeDegrees>-8.18988039158284664154052734375</LongitudeDegrees>
            </Position>
            <AltitudeMeters>372</AltitudeMeters>
            <DistanceMeters>64711.555467869</DistanceMeters>
          </Trackpoint>
          <Trackpoint>
            <Time>2019-07-26T12:58:32.000Z</Time>
            <Position>
              <LatitudeDegrees>42.92590602301061153411865234375</LatitudeDegrees>
              <LongitudeDegrees>-8.18993948400020599365234375</LongitudeDegrees>
            </Position>
            <AltitudeMeters>372.399993896484375</AltitudeMeters>
            <DistanceMeters>64724.752211948</DistanceMeters>
          </Trackpoint>
          <Trackpoint>
            <Time>2019-07-26T12:58:37.000Z</Time>
            <Position>
              <LatitudeDegrees>42.9260878264904022216796875</LatitudeDegrees>
              <LongitudeDegrees>-8.19009840488433837890625</LongitudeDegrees>
            </Position>
            <AltitudeMeters>372.79998779296875</AltitudeMeters>
            <DistanceMeters>64748.777626543</DistanceMeters>
          </Trackpoint>
          <Trackpoint>
            <Time>2019-07-26T12:58:38.000Z</Time>
            <Position>
              <LatitudeDegrees>42.92611037380993366241455078125</LatitudeDegrees>
              <LongitudeDegrees>-8.19014375098049640655517578125</LongitudeDegrees>
            </Position>
            <AltitudeMeters>372.79998779296875</AltitudeMeters>
            <DistanceMeters>64753.244892926</DistanceMeters>
          </Trackpoint>
          <Trackpoint>
            <Time>2019-07-26T12:58:43.000Z</Time>
            <Position>
              <LatitudeDegrees>42.92615345679223537445068359375</LatitudeDegrees>
              <LongitudeDegrees>-8.19039403460919857025146484375</LongitudeDegrees>
            </Position>
            <AltitudeMeters>373.79998779296875</AltitudeMeters>
            <DistanceMeters>64774.198660532</DistanceMeters>
          </Trackpoint>
          <Trackpoint>
            <Time>2019-07-26T12:58:44.000Z</Time>
            <Position>
              <LatitudeDegrees>42.92615395970642566680908203125</LatitudeDegrees>
              <LongitudeDegrees>-8.1904470920562744140625</LongitudeDegrees>
            </Position>
            <AltitudeMeters>374.20001220703125</AltitudeMeters>
            <DistanceMeters>64778.524203086</DistanceMeters>
          </Trackpoint>
          <Trackpoint>
            <Time>2019-07-26T12:58:52.000Z</Time>
            <Position>
              <LatitudeDegrees>42.92614742182195186614990234375</LatitudeDegrees>
              <LongitudeDegrees>-8.19085336290299892425537109375</LongitudeDegrees>
            </Position>
            <AltitudeMeters>375</AltitudeMeters>
            <DistanceMeters>64811.642887622</DistanceMeters>
          </Trackpoint>
          <Trackpoint>
            <Time>2019-07-26T12:58:53.000Z</Time>
            <Position>
              <LatitudeDegrees>42.9261470027267932891845703125</LatitudeDegrees>
              <LongitudeDegrees>-8.1909025646746158599853515625</LongitudeDegrees>
            </Position>
            <AltitudeMeters>375.20001220703125</AltitudeMeters>
            <DistanceMeters>64815.65432081</DistanceMeters>
          </Trackpoint>
          <Trackpoint>
            <Time>2019-07-26T12:58:59.000Z</Time>
            <Position>
              <LatitudeDegrees>42.926151864230632781982421875</LatitudeDegrees>
              <LongitudeDegrees>-8.19120909087359905242919921875</LongitudeDegrees>
            </Position>
            <AltitudeMeters>376.20001220703125</AltitudeMeters>
            <DistanceMeters>64840.641829802</DistanceMeters>
          </Trackpoint>
          <Trackpoint>
            <Time>2019-07-26T12:59:01.000Z</Time>
            <Position>
              <LatitudeDegrees>42.92615798301994800567626953125</LatitudeDegrees>
              <LongitudeDegrees>-8.191311769187450408935546875</LongitudeDegrees>
            </Position>
            <AltitudeMeters>376.399993896484375</AltitudeMeters>
            <DistanceMeters>64849.037589251</DistanceMeters>
          </Trackpoint>
          <Trackpoint>
            <Time>2019-07-26T12:59:06.000Z</Time>
            <Position>
              <LatitudeDegrees>42.9261624254286289215087890625</LatitudeDegrees>
              <LongitudeDegrees>-8.19156381301581859588623046875</LongitudeDegrees>
            </Position>
            <AltitudeMeters>377.399993896484375</AltitudeMeters>
            <DistanceMeters>64869.584905233</DistanceMeters>
          </Trackpoint>
          <Trackpoint>
            <Time>2019-07-26T12:59:09.000Z</Time>
            <Position>
              <LatitudeDegrees>42.92617030441761016845703125</LatitudeDegrees>
              <LongitudeDegrees>-8.191710077226161956787109375</LongitudeDegrees>
            </Position>
            <AltitudeMeters>378.20001220703125</AltitudeMeters>
            <DistanceMeters>64881.537513292</DistanceMeters>
          </Trackpoint>
          <Trackpoint>
            <Time>2019-07-26T12:59:10.000Z</Time>
            <Position>
              <LatitudeDegrees>42.92617256753146648406982421875</LatitudeDegrees>
              <LongitudeDegrees>-8.1917602010071277618408203125</LongitudeDegrees>
            </Position>
            <AltitudeMeters>378.399993896484375</AltitudeMeters>
            <DistanceMeters>64885.630286411</DistanceMeters>
          </Trackpoint>
          <Trackpoint>
            <Time>2019-07-26T12:59:15.000Z</Time>
            <Position>
              <LatitudeDegrees>42.92616385035216808319091796875</LatitudeDegrees>
              <LongitudeDegrees>-8.1920109875500202178955078125</LongitudeDegrees>
            </Position>
            <AltitudeMeters>379.399993896484375</AltitudeMeters>
            <DistanceMeters>64906.092166198</DistanceMeters>
          </Trackpoint>
          <Trackpoint>
            <Time>2019-07-26T12:59:16.000Z</Time>
            <Position>
              <LatitudeDegrees>42.92616351507604122161865234375</LatitudeDegrees>
              <LongitudeDegrees>-8.192060105502605438232421875</LongitudeDegrees>
            </Position>
            <AltitudeMeters>379.79998779296875</AltitudeMeters>
            <DistanceMeters>64910.094584918</DistanceMeters>
          </Trackpoint>
          <Trackpoint>
            <Time>2019-07-26T12:59:20.000Z</Time>
            <Position>
              <LatitudeDegrees>42.92615965940058231353759765625</LatitudeDegrees>
              <LongitudeDegrees>-8.192259930074214935302734375</LongitudeDegrees>
            </Position>
            <AltitudeMeters>380.600006103515625</AltitudeMeters>
            <DistanceMeters>64926.385778145</DistanceMeters>
          </Trackpoint>
          <Trackpoint>
            <Time>2019-07-26T12:59:27.000Z</Time>
            <Position>
              <LatitudeDegrees>42.92616435326635837554931640625</LatitudeDegrees>
              <LongitudeDegrees>-8.1926151551306247711181640625</LongitudeDegrees>
            </Position>
            <AltitudeMeters>381.399993896484375</AltitudeMeters>
            <DistanceMeters>64955.34087178</DistanceMeters>
          </Trackpoint>
          <Trackpoint>
            <Time>2019-07-26T12:59:31.000Z</Time>
            <Position>
              <LatitudeDegrees>42.92616921477019786834716796875</LatitudeDegrees>
              <LongitudeDegrees>-8.1928183324635028839111328125</LongitudeDegrees>
            </Position>
            <AltitudeMeters>381.79998779296875</AltitudeMeters>
            <DistanceMeters>64971.908255508</DistanceMeters>
          </Trackpoint>
          <Trackpoint>
            <Time>2019-07-26T12:59:34.000Z</Time>
            <Position>
              <LatitudeDegrees>42.92618245817720890045166015625</LatitudeDegrees>
              <LongitudeDegrees>-8.1929591484367847442626953125</LongitudeDegrees>
            </Position>
            <AltitudeMeters>382.20001220703125</AltitudeMeters>
            <DistanceMeters>64983.478904296</DistanceMeters>
          </Trackpoint>
          <Trackpoint>
            <Time>2019-07-26T12:59:37.000Z</Time>
            <Position>
              <LatitudeDegrees>42.92620207183063030242919921875</LatitudeDegrees>
              <LongitudeDegrees>-8.1931076757609844207763671875</LongitudeDegrees>
            </Position>
            <AltitudeMeters>382.79998779296875</AltitudeMeters>
            <DistanceMeters>64995.778900261</DistanceMeters>
          </Trackpoint>
          <Trackpoint>
            <Time>2019-07-26T12:59:40.000Z</Time>
            <Position>
              <LatitudeDegrees>42.9262408800423145294189453125</LatitudeDegrees>
              <LongitudeDegrees>-8.1932334043085575103759765625</LongitudeDegrees>
            </Position>
            <AltitudeMeters>383.20001220703125</AltitudeMeters>
            <DistanceMeters>65006.899056142</DistanceMeters>
          </Trackpoint>
          <Trackpoint>
            <Time>2019-07-26T12:59:44.000Z</Time>
            <Position>
              <LatitudeDegrees>42.9263035766780376434326171875</LatitudeDegrees>
              <LongitudeDegrees>-8.19339157082140445709228515625</LongitudeDegrees>
            </Position>
            <AltitudeMeters>383.79998779296875</AltitudeMeters>
            <DistanceMeters>65021.556907582</DistanceMeters>
          </Trackpoint>
          <Trackpoint>
            <Time>2019-07-26T12:59:47.000Z</Time>
            <Position>
              <LatitudeDegrees>42.92634925805032253265380859375</LatitudeDegrees>
              <LongitudeDegrees>-8.19350858218967914581298828125</LongitudeDegrees>
            </Position>
            <AltitudeMeters>384.399993896484375</AltitudeMeters>
            <DistanceMeters>65032.364081529</DistanceMeters>
          </Trackpoint>
          <Trackpoint>
            <Time>2019-07-26T12:59:51.000Z</Time>
            <Position>
              <LatitudeDegrees>42.9264048300683498382568359375</LatitudeDegrees>
              <LongitudeDegrees>-8.19368024356663227081298828125</LongitudeDegrees>
            </Position>
            <AltitudeMeters>384.79998779296875</AltitudeMeters>
            <DistanceMeters>65047.660431118</DistanceMeters>
          </Trackpoint>
          <Trackpoint>
            <Time>2019-07-26T12:59:56.000Z</Time>
            <Position>
              <LatitudeDegrees>42.92646509595215320587158203125</LatitudeDegrees>
              <LongitudeDegrees>-8.19391745142638683319091796875</LongitudeDegrees>
            </Position>
            <AltitudeMeters>385.20001220703125</AltitudeMeters>
            <DistanceMeters>65068.12319351</DistanceMeters>
          </Trackpoint>
          <Trackpoint>
            <Time>2019-07-26T13:00:00.000Z</Time>
            <Position>
              <LatitudeDegrees>42.92651270516216754913330078125</LatitudeDegrees>
              <LongitudeDegrees>-8.1941289268434047698974609375</LongitudeDegrees>
            </Position>
            <AltitudeMeters>385.79998779296875</AltitudeMeters>
            <DistanceMeters>65086.154496911</DistanceMeters>
          </Trackpoint>
          <Trackpoint>
            <Time>2019-07-26T13:00:04.000Z</Time>
            <Position>
              <LatitudeDegrees>42.92654958553612232208251953125</LatitudeDegrees>
              <LongitudeDegrees>-8.19433922879397869110107421875</LongitudeDegrees>
            </Position>
            <AltitudeMeters>386.20001220703125</AltitudeMeters>
            <DistanceMeters>65103.778302101</DistanceMeters>
          </Trackpoint>
          <Trackpoint>
            <Time>2019-07-26T13:00:09.000Z</Time>
            <Position>
              <LatitudeDegrees>42.9265805147588253021240234375</LatitudeDegrees>
              <LongitudeDegrees>-8.19462086074054241180419921875</LongitudeDegrees>
            </Position>
            <AltitudeMeters>386.79998779296875</AltitudeMeters>
            <DistanceMeters>65126.987397733</DistanceMeters>
          </Trackpoint>
          <Trackpoint>
            <Time>2019-07-26T13:00:11.000Z</Time>
            <Position>
              <LatitudeDegrees>42.92658043093979358673095703125</LatitudeDegrees>
              <LongitudeDegrees>-8.19473217241466045379638671875</LongitudeDegrees>
            </Position>
            <AltitudeMeters>387</AltitudeMeters>
            <DistanceMeters>65136.059338909</DistanceMeters>
          </Trackpoint>
          <Trackpoint>
            <Time>2019-07-26T13:00:16.000Z</Time>
            <Position>
              <LatitudeDegrees>42.92665318585932254791259765625</LatitudeDegrees>
              <LongitudeDegrees>-8.19493015296757221221923828125</LongitudeDegrees>
            </Position>
            <AltitudeMeters>387.600006103515625</AltitudeMeters>
            <DistanceMeters>65154.112413966</DistanceMeters>
          </Trackpoint>
          <Trackpoint>
            <Time>2019-07-26T13:00:19.000Z</Time>
            <Position>
              <LatitudeDegrees>42.92670330964028835296630859375</LatitudeDegrees>
              <LongitudeDegrees>-8.19498580880463123321533203125</LongitudeDegrees>
            </Position>
            <AltitudeMeters>387.79998779296875</AltitudeMeters>
            <DistanceMeters>65161.302489602</DistanceMeters>
          </Trackpoint>
          <Trackpoint>
            <Time>2019-07-26T13:00:20.000Z</Time>
            <Position>
              <LatitudeDegrees>42.92671403847634792327880859375</LatitudeDegrees>
              <LongitudeDegrees>-8.1950023211538791656494140625</LongitudeDegrees>
            </Position>
            <AltitudeMeters>388</AltitudeMeters>
            <DistanceMeters>65163.100479414</DistanceMeters>
          </Trackpoint>
          <Trackpoint>
            <Time>2019-07-26T13:00:21.000Z</Time>
            <Position>
              <LatitudeDegrees>42.92672141455113887786865234375</LatitudeDegrees>
              <LongitudeDegrees>-8.1950164027512073516845703125</LongitudeDegrees>
            </Position>
            <AltitudeMeters>388</AltitudeMeters>
            <DistanceMeters>65164.509953365</DistanceMeters>
          </Trackpoint>
          <Trackpoint>
            <Time>2019-07-26T13:00:23.000Z</Time>
            <Position>
              <LatitudeDegrees>42.92672552168369293212890625</LatitudeDegrees>
              <LongitudeDegrees>-8.1950271315872669219970703125</LongitudeDegrees>
            </Position>
            <AltitudeMeters>388.20001220703125</AltitudeMeters>
            <DistanceMeters>65165.497499949</DistanceMeters>
          </Trackpoint>
          <Trackpoint>
            <Time>2019-07-26T13:53:47.000Z</Time>
            <Position>
              <LatitudeDegrees>42.92673356831073760986328125</LatitudeDegrees>
              <LongitudeDegrees>-8.1950378604233264923095703125</LongitudeDegrees>
            </Position>
            <AltitudeMeters>391.79998779296875</AltitudeMeters>
            <DistanceMeters>65166.750988402</DistanceMeters>
          </Trackpoint>
          <Trackpoint>
            <Time>2019-07-26T13:53:48.000Z</Time>
            <Position>
              <LatitudeDegrees>42.92673381976783275604248046875</LatitudeDegrees>
              <LongitudeDegrees>-8.1950376927852630615234375</LongitudeDegrees>
            </Position>
            <AltitudeMeters>391.79998779296875</AltitudeMeters>
            <DistanceMeters>65166.750988402</DistanceMeters>
          </Trackpoint>
          <Trackpoint>
            <Time>2019-07-26T13:54:33.000Z</Time>
            <Position>
              <LatitudeDegrees>42.9267159663140773773193359375</LatitudeDegrees>
              <LongitudeDegrees>-8.19526056759059429168701171875</LongitudeDegrees>
            </Position>
            <AltitudeMeters>393.20001220703125</AltitudeMeters>
            <DistanceMeters>65185.023318479</DistanceMeters>
          </Trackpoint>
          <Trackpoint>
            <Time>2019-07-26T13:54:35.000Z</Time>
            <Position>
              <LatitudeDegrees>42.926694341003894805908203125</LatitudeDegrees>
              <LongitudeDegrees>-8.19530365057289600372314453125</LongitudeDegrees>
            </Position>
            <AltitudeMeters>393.20001220703125</AltitudeMeters>
            <DistanceMeters>65189.279412151</DistanceMeters>
          </Trackpoint>
          <Trackpoint>
            <Time>2019-07-26T13:54:38.000Z</Time>
            <Position>
              <LatitudeDegrees>42.9266666807234287261962890625</LatitudeDegrees>
              <LongitudeDegrees>-8.19536969996988773345947265625</LongitudeDegrees>
            </Position>
            <AltitudeMeters>393.20001220703125</AltitudeMeters>
            <DistanceMeters>65195.480951926</DistanceMeters>
          </Trackpoint>
          <Trackpoint>
            <Time>2019-07-26T13:54:39.000Z</Time>
            <Position>
              <LatitudeDegrees>42.92666559107601642608642578125</LatitudeDegrees>
              <LongitudeDegrees>-8.19540909491479396820068359375</LongitudeDegrees>
            </Position>
            <AltitudeMeters>393.20001220703125</AltitudeMeters>
            <DistanceMeters>65198.693641978</DistanceMeters>
          </Trackpoint>
          <Trackpoint>
            <Time>2019-07-26T13:54:41.000Z</Time>
            <Position>
              <LatitudeDegrees>42.92665150947868824005126953125</LatitudeDegrees>
              <LongitudeDegrees>-8.19550146348774433135986328125</LongitudeDegrees>
            </Position>
            <AltitudeMeters>393.20001220703125</AltitudeMeters>
            <DistanceMeters>65206.382589272</DistanceMeters>
          </Trackpoint>
          <Trackpoint>
            <Time>2019-07-26T13:54:44.000Z</Time>
            <Position>
              <LatitudeDegrees>42.92664597742259502410888671875</LatitudeDegrees>
              <LongitudeDegrees>-8.19564714096486568450927734375</LongitudeDegrees>
            </Position>
            <AltitudeMeters>393.20001220703125</AltitudeMeters>
            <DistanceMeters>65218.271187023</DistanceMeters>
          </Trackpoint>
          <Trackpoint>
            <Time>2019-07-26T13:54:46.000Z</Time>
            <Position>
              <LatitudeDegrees>42.92664832435548305511474609375</LatitudeDegrees>
              <LongitudeDegrees>-8.1957597099244594573974609375</LongitudeDegrees>
            </Position>
            <AltitudeMeters>393</AltitudeMeters>
            <DistanceMeters>65227.449016455</DistanceMeters>
          </Trackpoint>
          <Trackpoint>
            <Time>2019-07-26T13:54:48.000Z</Time>
            <Position>
              <LatitudeDegrees>42.926652096211910247802734375</LatitudeDegrees>
              <LongitudeDegrees>-8.19588703103363513946533203125</LongitudeDegrees>
            </Position>
            <AltitudeMeters>393</AltitudeMeters>
            <DistanceMeters>65237.834353861</DistanceMeters>
          </Trackpoint>
          <Trackpoint>
            <Time>2019-07-26T13:54:49.000Z</Time>
            <Position>
              <LatitudeDegrees>42.9266458936035633087158203125</LatitudeDegrees>
              <LongitudeDegrees>-8.19595375098288059234619140625</LongitudeDegrees>
            </Position>
            <AltitudeMeters>393</AltitudeMeters>
            <DistanceMeters>65243.314685443</DistanceMeters>
          </Trackpoint>
          <Trackpoint>
            <Time>2019-07-26T13:54:53.000Z</Time>
            <Position>
              <LatitudeDegrees>42.9265429638326168060302734375</LatitudeDegrees>
              <LongitudeDegrees>-8.1961898691952228546142578125</LongitudeDegrees>
            </Position>
            <AltitudeMeters>393</AltitudeMeters>
            <DistanceMeters>65265.709964094</DistanceMeters>
          </Trackpoint>
          <Trackpoint>
            <Time>2019-07-26T13:54:56.000Z</Time>
            <Position>
              <LatitudeDegrees>42.926419079303741455078125</LatitudeDegrees>
              <LongitudeDegrees>-8.19636547006666660308837890625</LongitudeDegrees>
            </Position>
            <AltitudeMeters>392.79998779296875</AltitudeMeters>
            <DistanceMeters>65285.583046979</DistanceMeters>
          </Trackpoint>
          <Trackpoint>
            <Time>2019-07-26T13:54:58.000Z</Time>
            <Position>
              <LatitudeDegrees>42.9263498447835445404052734375</LatitudeDegrees>
              <LongitudeDegrees>-8.19650008343160152435302734375</LongitudeDegrees>
            </Position>
            <AltitudeMeters>392.79998779296875</AltitudeMeters>
            <DistanceMeters>65298.989561871</DistanceMeters>
          </Trackpoint>
          <Trackpoint>
            <Time>2019-07-26T13:55:01.000Z</Time>
            <Position>
              <LatitudeDegrees>42.9262650199234485626220703125</LatitudeDegrees>
              <LongitudeDegrees>-8.19672673009335994720458984375</LongitudeDegrees>
            </Position>
            <AltitudeMeters>392.600006103515625</AltitudeMeters>
            <DistanceMeters>65319.733699907</DistanceMeters>
          </Trackpoint>
          <Trackpoint>
            <Time>2019-07-26T13:55:03.000Z</Time>
            <Position>
              <LatitudeDegrees>42.92622453533113002777099609375</LatitudeDegrees>
              <LongitudeDegrees>-8.1968845613300800323486328125</LongitudeDegrees>
            </Position>
            <AltitudeMeters>392.399993896484375</AltitudeMeters>
            <DistanceMeters>65333.363326923</DistanceMeters>
          </Trackpoint>
          <Trackpoint>
            <Time>2019-07-26T13:55:05.000Z</Time>
            <Position>
              <LatitudeDegrees>42.92617239989340305328369140625</LatitudeDegrees>
              <LongitudeDegrees>-8.19703736342489719390869140625</LongitudeDegrees>
            </Position>
            <AltitudeMeters>392</AltitudeMeters>
            <DistanceMeters>65347.101836953</DistanceMeters>
          </Trackpoint>
          <Trackpoint>
            <Time>2019-07-26T13:55:08.000Z</Time>
            <Position>
              <LatitudeDegrees>42.926061339676380157470703125</LatitudeDegrees>
              <LongitudeDegrees>-8.19729703478515148162841796875</LongitudeDegrees>
            </Position>
            <AltitudeMeters>391.79998779296875</AltitudeMeters>
            <DistanceMeters>65371.610256423</DistanceMeters>
          </Trackpoint>
          <Trackpoint>
            <Time>2019-07-26T13:55:10.000Z</Time>
            <Position>
              <LatitudeDegrees>42.92601582594215869903564453125</LatitudeDegrees>
              <LongitudeDegrees>-8.19748185575008392333984375</LongitudeDegrees>
            </Position>
            <AltitudeMeters>391.20001220703125</AltitudeMeters>
            <DistanceMeters>65387.502178207</DistanceMeters>
          </Trackpoint>
          <Trackpoint>
            <Time>2019-07-26T13:55:11.000Z</Time>
            <Position>
              <LatitudeDegrees>42.925992943346500396728515625</LatitudeDegrees>
              <LongitudeDegrees>-8.1975822709500789642333984375</LongitudeDegrees>
            </Position>
            <AltitudeMeters>390.399993896484375</AltitudeMeters>
            <DistanceMeters>65396.073039999</DistanceMeters>
          </Trackpoint>
          <Trackpoint>
            <Time>2019-07-26T13:55:12.000Z</Time>
            <Position>
              <LatitudeDegrees>42.9259780235588550567626953125</LatitudeDegrees>
              <LongitudeDegrees>-8.1976707838475704193115234375</LongitudeDegrees>
            </Position>
            <AltitudeMeters>389.79998779296875</AltitudeMeters>
            <DistanceMeters>65403.475370974</DistanceMeters>
          </Trackpoint>
          <Trackpoint>
            <Time>2019-07-26T13:55:13.000Z</Time>
            <Position>
              <LatitudeDegrees>42.92595078237354755401611328125</LatitudeDegrees>
              <LongitudeDegrees>-8.1977609731256961822509765625</LongitudeDegrees>
            </Position>
            <AltitudeMeters>388.79998779296875</AltitudeMeters>
            <DistanceMeters>65411.427012016</DistanceMeters>
          </Trackpoint>
          <Trackpoint>
            <Time>2019-07-26T13:55:15.000Z</Time>
            <Position>
              <LatitudeDegrees>42.92591038160026073455810546875</LatitudeDegrees>
              <LongitudeDegrees>-8.19785493426024913787841796875</LongitudeDegrees>
            </Position>
            <AltitudeMeters>387.600006103515625</AltitudeMeters>
            <DistanceMeters>65420.307308046</DistanceMeters>
          </Trackpoint>
          <Trackpoint>
            <Time>2019-07-26T13:55:18.000Z</Time>
            <Position>
              <LatitudeDegrees>42.9258905164897441864013671875</LatitudeDegrees>
              <LongitudeDegrees>-8.197882175445556640625</LongitudeDegrees>
            </Position>
            <AltitudeMeters>385.600006103515625</AltitudeMeters>
            <DistanceMeters>65423.438867246</DistanceMeters>
          </Trackpoint>
          <Trackpoint>
            <Time>2019-07-26T13:55:32.000Z</Time>
            <Position>
              <LatitudeDegrees>42.9259770177304744720458984375</LatitudeDegrees>
              <LongitudeDegrees>-8.19790489040315151214599609375</LongitudeDegrees>
            </Position>
            <AltitudeMeters>380.600006103515625</AltitudeMeters>
            <DistanceMeters>65433.243211372</DistanceMeters>
          </Trackpoint>
          <Trackpoint>
            <Time>2019-07-26T13:55:36.000Z</Time>
            <Position>
              <LatitudeDegrees>42.92609780095517635345458984375</LatitudeDegrees>
              <LongitudeDegrees>-8.1980597041547298431396484375</LongitudeDegrees>
            </Position>
            <AltitudeMeters>380.600006103515625</AltitudeMeters>
            <DistanceMeters>65451.680108279</DistanceMeters>
          </Trackpoint>
          <Trackpoint>
            <Time>2019-07-26T13:55:40.000Z</Time>
            <Position>
              <LatitudeDegrees>42.926298044621944427490234375</LatitudeDegrees>
              <LongitudeDegrees>-8.19831962697207927703857421875</LongitudeDegrees>
            </Position>
            <AltitudeMeters>380.20001220703125</AltitudeMeters>
            <DistanceMeters>65482.42870327</DistanceMeters>
          </Trackpoint>
          <Trackpoint>
            <Time>2019-07-26T13:55:43.000Z</Time>
            <Position>
              <LatitudeDegrees>42.92642301879823207855224609375</LatitudeDegrees>
              <LongitudeDegrees>-8.19851291365921497344970703125</LongitudeDegrees>
            </Position>
            <AltitudeMeters>379.600006103515625</AltitudeMeters>
            <DistanceMeters>65503.443577017</DistanceMeters>
          </Trackpoint>
          <Trackpoint>
            <Time>2019-07-26T13:55:45.000Z</Time>
            <Position>
              <LatitudeDegrees>42.9264993779361248016357421875</LatitudeDegrees>
              <LongitudeDegrees>-8.19863914512097835540771484375</LongitudeDegrees>
            </Position>
            <AltitudeMeters>379</AltitudeMeters>
            <DistanceMeters>65516.787642267</DistanceMeters>
          </Trackpoint>
          <Trackpoint>
            <Time>2019-07-26T13:55:48.000Z</Time>
            <Position>
              <LatitudeDegrees>42.92663005180656909942626953125</LatitudeDegrees>
              <LongitudeDegrees>-8.19883695803582668304443359375</LongitudeDegrees>
            </Position>
            <AltitudeMeters>377.79998779296875</AltitudeMeters>
            <DistanceMeters>65538.499946862</DistanceMeters>
          </Trackpoint>
          <Trackpoint>
            <Time>2019-07-26T13:55:49.000Z</Time>
            <Position>
              <LatitudeDegrees>42.92668788693845272064208984375</LatitudeDegrees>
              <LongitudeDegrees>-8.1989032588899135589599609375</LongitudeDegrees>
            </Position>
            <AltitudeMeters>376.20001220703125</AltitudeMeters>
            <DistanceMeters>65546.904306323</DistanceMeters>
          </Trackpoint>
          <Trackpoint>
            <Time>2019-07-26T13:55:50.000Z</Time>
            <Position>
              <LatitudeDegrees>42.92674739845097064971923828125</LatitudeDegrees>
              <LongitudeDegrees>-8.19898028858006000518798828125</LongitudeDegrees>
            </Position>
            <AltitudeMeters>375</AltitudeMeters>
            <DistanceMeters>65556.029840004</DistanceMeters>
          </Trackpoint>
          <Trackpoint>
            <Time>2019-07-26T13:55:51.000Z</Time>
            <Position>
              <LatitudeDegrees>42.9268118552863597869873046875</LatitudeDegrees>
              <LongitudeDegrees>-8.19906176067888736724853515625</LongitudeDegrees>
            </Position>
            <AltitudeMeters>374</AltitudeMeters>
            <DistanceMeters>65565.804666798</DistanceMeters>
          </Trackpoint>
          <Trackpoint>
            <Time>2019-07-26T13:55:52.000Z</Time>
            <Position>
              <LatitudeDegrees>42.92688670568168163299560546875</LatitudeDegrees>
              <LongitudeDegrees>-8.1991614215075969696044921875</LongitudeDegrees>
            </Position>
            <AltitudeMeters>373</AltitudeMeters>
            <DistanceMeters>65577.439910931</DistanceMeters>
          </Trackpoint>
          <Trackpoint>
            <Time>2019-07-26T13:55:54.000Z</Time>
            <Position>
              <LatitudeDegrees>42.9269970953464508056640625</LatitudeDegrees>
              <LongitudeDegrees>-8.19937792606651782989501953125</LongitudeDegrees>
            </Position>
            <AltitudeMeters>371.20001220703125</AltitudeMeters>
            <DistanceMeters>65598.941161909</DistanceMeters>
          </Trackpoint>
          <Trackpoint>
            <Time>2019-07-26T13:55:55.000Z</Time>
            <Position>
              <LatitudeDegrees>42.92706121690571308135986328125</LatitudeDegrees>
              <LongitudeDegrees>-8.199504576623439788818359375</LongitudeDegrees>
            </Position>
            <AltitudeMeters>370.20001220703125</AltitudeMeters>
            <DistanceMeters>65611.48972649</DistanceMeters>
          </Trackpoint>
          <Trackpoint>
            <Time>2019-07-26T13:55:56.000Z</Time>
            <Position>
              <LatitudeDegrees>42.9271122626960277557373046875</LatitudeDegrees>
              <LongitudeDegrees>-8.1996277906000614166259765625</LongitudeDegrees>
            </Position>
            <AltitudeMeters>369.399993896484375</AltitudeMeters>
            <DistanceMeters>65623.026767999</DistanceMeters>
          </Trackpoint>
          <Trackpoint>
            <Time>2019-07-26T13:55:58.000Z</Time>
            <Position>
              <LatitudeDegrees>42.92720605619251728057861328125</LatitudeDegrees>
              <LongitudeDegrees>-8.199881426990032196044921875</LongitudeDegrees>
            </Position>
            <AltitudeMeters>367.79998779296875</AltitudeMeters>
            <DistanceMeters>65646.184058853</DistanceMeters>
          </Trackpoint>
          <Trackpoint>
            <Time>2019-07-26T13:56:00.000Z</Time>
            <Position>
              <LatitudeDegrees>42.92729171924293041229248046875</LatitudeDegrees>
              <LongitudeDegrees>-8.20011938922107219696044921875</LongitudeDegrees>
            </Position>
            <AltitudeMeters>366.79998779296875</AltitudeMeters>
            <DistanceMeters>65667.794228528</DistanceMeters>
          </Trackpoint>
          <Trackpoint>
            <Time>2019-07-26T13:56:02.000Z</Time>
            <Position>
              <LatitudeDegrees>42.927387021481990814208984375</LatitudeDegrees>
              <LongitudeDegrees>-8.2003674097359180450439453125</LongitudeDegrees>
            </Position>
            <AltitudeMeters>365.600006103515625</AltitudeMeters>
            <DistanceMeters>65690.621417606</DistanceMeters>
          </Trackpoint>
          <Trackpoint>
            <Time>2019-07-26T13:56:04.000Z</Time>
            <Position>
              <LatitudeDegrees>42.92748567648231983184814453125</LatitudeDegrees>
              <LongitudeDegrees>-8.20059120655059814453125</LongitudeDegrees>
            </Position>
            <AltitudeMeters>364.20001220703125</AltitudeMeters>
            <DistanceMeters>65711.910371003</DistanceMeters>
          </Trackpoint>
          <Trackpoint>
            <Time>2019-07-26T13:56:06.000Z</Time>
            <Position>
              <LatitudeDegrees>42.9275856725871562957763671875</LatitudeDegrees>
              <LongitudeDegrees>-8.20076496340334415435791015625</LongitudeDegrees>
            </Position>
            <AltitudeMeters>362.399993896484375</AltitudeMeters>
            <DistanceMeters>65729.921380585</DistanceMeters>
          </Trackpoint>
          <Trackpoint>
            <Time>2019-07-26T13:56:07.000Z</Time>
            <Position>
              <LatitudeDegrees>42.92762012220919132232666015625</LatitudeDegrees>
              <LongitudeDegrees>-8.200847022235393524169921875</LongitudeDegrees>
            </Position>
            <AltitudeMeters>362</AltitudeMeters>
            <DistanceMeters>65737.630852885</DistanceMeters>
          </Trackpoint>
          <Trackpoint>
            <Time>2019-07-26T13:56:08.000Z</Time>
            <Position>
              <LatitudeDegrees>42.92763604782521724700927734375</LatitudeDegrees>
              <LongitudeDegrees>-8.20092790760099887847900390625</LongitudeDegrees>
            </Position>
            <AltitudeMeters>361.399993896484375</AltitudeMeters>
            <DistanceMeters>65744.456920161</DistanceMeters>
          </Trackpoint>
          <Trackpoint>
            <Time>2019-07-26T13:56:09.000Z</Time>
            <Position>
              <LatitudeDegrees>42.92764526791870594024658203125</LatitudeDegrees>
              <LongitudeDegrees>-8.20099798031151294708251953125</LongitudeDegrees>
            </Position>
            <AltitudeMeters>361</AltitudeMeters>
            <DistanceMeters>65750.258999528</DistanceMeters>
          </Trackpoint>
          <Trackpoint>
            <Time>2019-07-26T13:56:11.000Z</Time>
            <Position>
              <LatitudeDegrees>42.92764258570969104766845703125</LatitudeDegrees>
              <LongitudeDegrees>-8.2010993175208568572998046875</LongitudeDegrees>
            </Position>
            <AltitudeMeters>360.20001220703125</AltitudeMeters>
            <DistanceMeters>65758.523592575</DistanceMeters>
          </Trackpoint>
          <Trackpoint>
            <Time>2019-07-26T13:56:12.000Z</Time>
            <Position>
              <LatitudeDegrees>42.92764325626194477081298828125</LatitudeDegrees>
              <LongitudeDegrees>-8.201140053570270538330078125</LongitudeDegrees>
            </Position>
            <AltitudeMeters>360</AltitudeMeters>
            <DistanceMeters>65761.845452508</DistanceMeters>
          </Trackpoint>
          <Trackpoint>
            <Time>2019-07-26T13:56:13.000Z</Time>
            <Position>
              <LatitudeDegrees>42.9276515543460845947265625</LatitudeDegrees>
              <LongitudeDegrees>-8.20118137635290622711181640625</LongitudeDegrees>
            </Position>
            <AltitudeMeters>359.79998779296875</AltitudeMeters>
            <DistanceMeters>65765.33695694</DistanceMeters>
          </Trackpoint>
          <Trackpoint>
            <Time>2019-07-26T13:56:14.000Z</Time>
            <Position>
              <LatitudeDegrees>42.92766429483890533447265625</LatitudeDegrees>
              <LongitudeDegrees>-8.20122697390615940093994140625</LongitudeDegrees>
            </Position>
            <AltitudeMeters>359.79998779296875</AltitudeMeters>
            <DistanceMeters>65769.315615508</DistanceMeters>
          </Trackpoint>
          <Trackpoint>
            <Time>2019-07-26T13:56:16.000Z</Time>
            <Position>
              <LatitudeDegrees>42.92768164537847042083740234375</LatitudeDegrees>
              <LongitudeDegrees>-8.20132353343069553375244140625</LongitudeDegrees>
            </Position>
            <AltitudeMeters>359.600006103515625</AltitudeMeters>
            <DistanceMeters>65777.418558543</DistanceMeters>
          </Trackpoint>
          <Trackpoint>
            <Time>2019-07-26T13:56:18.000Z</Time>
            <Position>
              <LatitudeDegrees>42.9277127422392368316650390625</LatitudeDegrees>
              <LongitudeDegrees>-8.201405592262744903564453125</LongitudeDegrees>
            </Position>
            <AltitudeMeters>359.600006103515625</AltitudeMeters>
            <DistanceMeters>65784.947889185</DistanceMeters>
          </Trackpoint>
          <Trackpoint>
            <Time>2019-07-26T13:56:19.000Z</Time>
            <Position>
              <LatitudeDegrees>42.92773537337779998779296875</LatitudeDegrees>
              <LongitudeDegrees>-8.20144859142601490020751953125</LongitudeDegrees>
            </Position>
            <AltitudeMeters>359.600006103515625</AltitudeMeters>
            <DistanceMeters>65789.26298103</DistanceMeters>
          </Trackpoint>
          <Trackpoint>
            <Time>2019-07-26T13:56:21.000Z</Time>
            <Position>
              <LatitudeDegrees>42.9277697391808032989501953125</LatitudeDegrees>
              <LongitudeDegrees>-8.20151044987142086029052734375</LongitudeDegrees>
            </Position>
            <AltitudeMeters>359.600006103515625</AltitudeMeters>
            <DistanceMeters>65795.590647183</DistanceMeters>
          </Trackpoint>
          <Trackpoint>
            <Time>2019-07-26T13:56:23.000Z</Time>
            <Position>
              <LatitudeDegrees>42.9277972318232059478759765625</LatitudeDegrees>
              <LongitudeDegrees>-8.20154733024537563323974609375</LongitudeDegrees>
            </Position>
            <AltitudeMeters>360</AltitudeMeters>
            <DistanceMeters>65799.878447976</DistanceMeters>
          </Trackpoint>
          <Trackpoint>
            <Time>2019-07-26T13:56:24.000Z</Time>
            <Position>
              <LatitudeDegrees>42.92781449854373931884765625</LatitudeDegrees>
              <LongitudeDegrees>-8.20156543515622615814208984375</LongitudeDegrees>
            </Position>
            <AltitudeMeters>360.399993896484375</AltitudeMeters>
            <DistanceMeters>65802.301163331</DistanceMeters>
          </Trackpoint>
          <Trackpoint>
            <Time>2019-07-26T13:56:26.000Z</Time>
            <Position>
              <LatitudeDegrees>42.927844338119029998779296875</LatitudeDegrees>
              <LongitudeDegrees>-8.201614804565906524658203125</LongitudeDegrees>
            </Position>
            <AltitudeMeters>361.399993896484375</AltitudeMeters>
            <DistanceMeters>65807.518121295</DistanceMeters>
          </Trackpoint>
          <Trackpoint>
            <Time>2019-07-26T13:56:28.000Z</Time>
            <Position>
              <LatitudeDegrees>42.9278555698692798614501953125</LatitudeDegrees>
              <LongitudeDegrees>-8.2016659341752529144287109375</LongitudeDegrees>
            </Position>
            <AltitudeMeters>362.20001220703125</AltitudeMeters>
            <DistanceMeters>65811.868643129</DistanceMeters>
          </Trackpoint>
          <Trackpoint>
            <Time>2019-07-26T13:56:29.000Z</Time>
            <Position>
              <LatitudeDegrees>42.9278592579066753387451171875</LatitudeDegrees>
              <LongitudeDegrees>-8.20168479345738887786865234375</LongitudeDegrees>
            </Position>
            <AltitudeMeters>362.79998779296875</AltitudeMeters>
            <DistanceMeters>65813.458744196</DistanceMeters>
          </Trackpoint>
          <Trackpoint>
            <Time>2019-07-26T13:56:32.000Z</Time>
            <Position>
              <LatitudeDegrees>42.92787593789398670196533203125</LatitudeDegrees>
              <LongitudeDegrees>-8.20175587199628353118896484375</LongitudeDegrees>
            </Position>
            <AltitudeMeters>364.20001220703125</AltitudeMeters>
            <DistanceMeters>65819.541938527</DistanceMeters>
          </Trackpoint>
          <Trackpoint>
            <Time>2019-07-26T13:56:36.000Z</Time>
            <Position>
              <LatitudeDegrees>42.9278994910418987274169921875</LatitudeDegrees>
              <LongitudeDegrees>-8.2018600590527057647705078125</LongitudeDegrees>
            </Position>
            <AltitudeMeters>365.20001220703125</AltitudeMeters>
            <DistanceMeters>65828.428841732</DistanceMeters>
          </Trackpoint>
          <Trackpoint>
            <Time>2019-07-26T13:56:40.000Z</Time>
            <Position>
              <LatitudeDegrees>42.92791080661118030548095703125</LatitudeDegrees>
              <LongitudeDegrees>-8.2019780762493610382080078125</LongitudeDegrees>
            </Position>
            <AltitudeMeters>366.399993896484375</AltitudeMeters>
            <DistanceMeters>65838.12901681</DistanceMeters>
          </Trackpoint>
          <Trackpoint>
            <Time>2019-07-26T13:56:43.000Z</Time>
            <Position>
              <LatitudeDegrees>42.92791332118213176727294921875</LatitudeDegrees>
              <LongitudeDegrees>-8.2020689360797405242919921875</LongitudeDegrees>
            </Position>
            <AltitudeMeters>367.600006103515625</AltitudeMeters>
            <DistanceMeters>65845.538663548</DistanceMeters>
          </Trackpoint>
          <Trackpoint>
            <Time>2019-07-26T13:56:47.000Z</Time>
            <Position>
              <LatitudeDegrees>42.92792790569365024566650390625</LatitudeDegrees>
              <LongitudeDegrees>-8.202166669070720672607421875</LongitudeDegrees>
            </Position>
            <AltitudeMeters>368.600006103515625</AltitudeMeters>
            <DistanceMeters>65853.667197816</DistanceMeters>
          </Trackpoint>
          <Trackpoint>
            <Time>2019-07-26T13:56:49.000Z</Time>
            <Position>
              <LatitudeDegrees>42.92793176136910915374755859375</LatitudeDegrees>
              <LongitudeDegrees>-8.20223263464868068695068359375</LongitudeDegrees>
            </Position>
            <AltitudeMeters>369</AltitudeMeters>
            <DistanceMeters>65859.060330136</DistanceMeters>
          </Trackpoint>
          <Trackpoint>
            <Time>2019-07-26T13:56:51.000Z</Time>
            <Position>
              <LatitudeDegrees>42.9279343597590923309326171875</LatitudeDegrees>
              <LongitudeDegrees>-8.2022975943982601165771484375</LongitudeDegrees>
            </Position>
            <AltitudeMeters>369.600006103515625</AltitudeMeters>
            <DistanceMeters>65864.362275814</DistanceMeters>
          </Trackpoint>
          <Trackpoint>
            <Time>2019-07-26T13:56:56.000Z</Time>
            <Position>
              <LatitudeDegrees>42.927910722792148590087890625</LatitudeDegrees>
              <LongitudeDegrees>-8.20245492272078990936279296875</LongitudeDegrees>
            </Position>
            <AltitudeMeters>370.79998779296875</AltitudeMeters>
            <DistanceMeters>65877.451149344</DistanceMeters>
          </Trackpoint>
          <Trackpoint>
            <Time>2019-07-26T13:57:00.000Z</Time>
            <Position>
              <LatitudeDegrees>42.9278954677283763885498046875</LatitudeDegrees>
              <LongitudeDegrees>-8.2025869376957416534423828125</LongitudeDegrees>
            </Position>
            <AltitudeMeters>372.20001220703125</AltitudeMeters>
            <DistanceMeters>65888.343217299</DistanceMeters>
          </Trackpoint>
          <Trackpoint>
            <Time>2019-07-26T13:57:02.000Z</Time>
            <Position>
              <LatitudeDegrees>42.9278669692575931549072265625</LatitudeDegrees>
              <LongitudeDegrees>-8.202679641544818878173828125</LongitudeDegrees>
            </Position>
            <AltitudeMeters>372.79998779296875</AltitudeMeters>
            <DistanceMeters>65896.53703316</DistanceMeters>
          </Trackpoint>
          <Trackpoint>
            <Time>2019-07-26T13:57:03.000Z</Time>
            <Position>
              <LatitudeDegrees>42.92783838696777820587158203125</LatitudeDegrees>
              <LongitudeDegrees>-8.2027344591915607452392578125</LongitudeDegrees>
            </Position>
            <AltitudeMeters>373</AltitudeMeters>
            <DistanceMeters>65902.021482506</DistanceMeters>
          </Trackpoint>
          <Trackpoint>
            <Time>2019-07-26T13:57:05.000Z</Time>
            <Position>
              <LatitudeDegrees>42.92781047523021697998046875</LatitudeDegrees>
              <LongitudeDegrees>-8.20281953550875186920166015625</LongitudeDegrees>
            </Position>
            <AltitudeMeters>373.399993896484375</AltitudeMeters>
            <DistanceMeters>65909.6194611</DistanceMeters>
          </Trackpoint>
          <Trackpoint>
            <Time>2019-07-26T13:57:06.000Z</Time>
            <Position>
              <LatitudeDegrees>42.927798070013523101806640625</LatitudeDegrees>
              <LongitudeDegrees>-8.20285758934915065765380859375</LongitudeDegrees>
            </Position>
            <AltitudeMeters>373.600006103515625</AltitudeMeters>
            <DistanceMeters>65913.013923876</DistanceMeters>
          </Trackpoint>
          <Trackpoint>
            <Time>2019-07-26T13:57:10.000Z</Time>
            <Position>
              <LatitudeDegrees>42.9277559928596019744873046875</LatitudeDegrees>
              <LongitudeDegrees>-8.20297912694513797760009765625</LongitudeDegrees>
            </Position>
            <AltitudeMeters>374.600006103515625</AltitudeMeters>
            <DistanceMeters>65923.970054862</DistanceMeters>
          </Trackpoint>
          <Trackpoint>
            <Time>2019-07-26T13:57:13.000Z</Time>
            <Position>
              <LatitudeDegrees>42.92772020213305950164794921875</LatitudeDegrees>
              <LongitudeDegrees>-8.2030757702887058258056640625</LongitudeDegrees>
            </Position>
            <AltitudeMeters>375.399993896484375</AltitudeMeters>
            <DistanceMeters>65932.796803955</DistanceMeters>
          </Trackpoint>
          <Trackpoint>
            <Time>2019-07-26T13:57:15.000Z</Time>
            <Position>
              <LatitudeDegrees>42.92771198786795139312744140625</LatitudeDegrees>
              <LongitudeDegrees>-8.20312924683094024658203125</LongitudeDegrees>
            </Position>
            <AltitudeMeters>375.79998779296875</AltitudeMeters>
            <DistanceMeters>65937.24888412</DistanceMeters>
          </Trackpoint>
          <Trackpoint>
            <Time>2019-07-26T13:57:20.000Z</Time>
            <Position>
              <LatitudeDegrees>42.92771165259182453155517578125</LatitudeDegrees>
              <LongitudeDegrees>-8.20326411165297031402587890625</LongitudeDegrees>
            </Position>
            <AltitudeMeters>377</AltitudeMeters>
            <DistanceMeters>65948.239987917</DistanceMeters>
          </Trackpoint>
          <Trackpoint>
            <Time>2019-07-26T13:57:27.000Z</Time>
            <Position>
              <LatitudeDegrees>42.92766320519149303436279296875</LatitudeDegrees>
              <LongitudeDegrees>-8.2034812867641448974609375</LongitudeDegrees>
            </Position>
            <AltitudeMeters>378.20001220703125</AltitudeMeters>
            <DistanceMeters>65966.742155303</DistanceMeters>
          </Trackpoint>
          <Trackpoint>
            <Time>2019-07-26T13:57:29.000Z</Time>
            <Position>
              <LatitudeDegrees>42.92763747274875640869140625</LatitudeDegrees>
              <LongitudeDegrees>-8.20355362258851528167724609375</LongitudeDegrees>
            </Position>
            <AltitudeMeters>378.79998779296875</AltitudeMeters>
            <DistanceMeters>65973.295554693</DistanceMeters>
          </Trackpoint>
          <Trackpoint>
            <Time>2019-07-26T13:57:31.000Z</Time>
            <Position>
              <LatitudeDegrees>42.9276265762746334075927734375</LatitudeDegrees>
              <LongitudeDegrees>-8.20361330173909664154052734375</LongitudeDegrees>
            </Position>
            <AltitudeMeters>379.20001220703125</AltitudeMeters>
            <DistanceMeters>65978.307707191</DistanceMeters>
          </Trackpoint>
          <Trackpoint>
            <Time>2019-07-26T13:57:35.000Z</Time>
            <Position>
              <LatitudeDegrees>42.927580811083316802978515625</LatitudeDegrees>
              <LongitudeDegrees>-8.20375294424593448638916015625</LongitudeDegrees>
            </Position>
            <AltitudeMeters>380</AltitudeMeters>
            <DistanceMeters>65990.776139172</DistanceMeters>
          </Trackpoint>
          <Trackpoint>
            <Time>2019-07-26T13:57:37.000Z</Time>
            <Position>
              <LatitudeDegrees>42.9275803081691265106201171875</LatitudeDegrees>
              <LongitudeDegrees>-8.20381849072873592376708984375</LongitudeDegrees>
            </Position>
            <AltitudeMeters>380.399993896484375</AltitudeMeters>
            <DistanceMeters>65996.117959233</DistanceMeters>
          </Trackpoint>
          <Trackpoint>
            <Time>2019-07-26T13:57:40.000Z</Time>
            <Position>
              <LatitudeDegrees>42.92755792848765850067138671875</LatitudeDegrees>
              <LongitudeDegrees>-8.20394069887697696685791015625</LongitudeDegrees>
            </Position>
            <AltitudeMeters>380.79998779296875</AltitudeMeters>
            <DistanceMeters>66006.38436329</DistanceMeters>
          </Trackpoint>
          <Trackpoint>
            <Time>2019-07-26T13:57:42.000Z</Time>
            <Position>
              <LatitudeDegrees>42.9275427572429180145263671875</LatitudeDegrees>
              <LongitudeDegrees>-8.2040225900709629058837890625</LongitudeDegrees>
            </Position>
            <AltitudeMeters>381.399993896484375</AltitudeMeters>
            <DistanceMeters>66013.268391266</DistanceMeters>
          </Trackpoint>
          <Trackpoint>
            <Time>2019-07-26T13:57:46.000Z</Time>
            <Position>
              <LatitudeDegrees>42.92755725793540477752685546875</LatitudeDegrees>
              <LongitudeDegrees>-8.204164914786815643310546875</LongitudeDegrees>
            </Position>
            <AltitudeMeters>382.399993896484375</AltitudeMeters>
            <DistanceMeters>66024.979445917</DistanceMeters>
          </Trackpoint>
          <Trackpoint>
            <Time>2019-07-26T13:57:47.000Z</Time>
            <Position>
              <LatitudeDegrees>42.92755507864058017730712890625</LatitudeDegrees>
              <LongitudeDegrees>-8.2042049802839756011962890625</LongitudeDegrees>
            </Position>
            <AltitudeMeters>382.600006103515625</AltitudeMeters>
            <DistanceMeters>66028.254767399</DistanceMeters>
          </Trackpoint>
          <Trackpoint>
            <Time>2019-07-26T13:57:52.000Z</Time>
            <Position>
              <LatitudeDegrees>42.92754820547997951507568359375</LatitudeDegrees>
              <LongitudeDegrees>-8.20438854396343231201171875</LongitudeDegrees>
            </Position>
            <AltitudeMeters>383.79998779296875</AltitudeMeters>
            <DistanceMeters>66043.234365844</DistanceMeters>
          </Trackpoint>
          <Trackpoint>
            <Time>2019-07-26T13:57:56.000Z</Time>
            <Position>
              <LatitudeDegrees>42.927524149417877197265625</LatitudeDegrees>
              <LongitudeDegrees>-8.2045439444482326507568359375</LongitudeDegrees>
            </Position>
            <AltitudeMeters>384.79998779296875</AltitudeMeters>
            <DistanceMeters>66056.178943801</DistanceMeters>
          </Trackpoint>
          <Trackpoint>
            <Time>2019-07-26T13:57:59.000Z</Time>
            <Position>
              <LatitudeDegrees>42.92752171866595745086669921875</LatitudeDegrees>
              <LongitudeDegrees>-8.20464662276208400726318359375</LongitudeDegrees>
            </Position>
            <AltitudeMeters>385.399993896484375</AltitudeMeters>
            <DistanceMeters>66064.551007666</DistanceMeters>
          </Trackpoint>
          <Trackpoint>
            <Time>2019-07-26T13:58:02.000Z</Time>
            <Position>
              <LatitudeDegrees>42.92751819826662540435791015625</LatitudeDegrees>
              <LongitudeDegrees>-8.20474117062985897064208984375</LongitudeDegrees>
            </Position>
            <AltitudeMeters>386.20001220703125</AltitudeMeters>
            <DistanceMeters>66072.266334225</DistanceMeters>
          </Trackpoint>
          <Trackpoint>
            <Time>2019-07-26T13:58:05.000Z</Time>
            <Position>
              <LatitudeDegrees>42.92752658016979694366455078125</LatitudeDegrees>
              <LongitudeDegrees>-8.2048373110592365264892578125</LongitudeDegrees>
            </Position>
            <AltitudeMeters>386.79998779296875</AltitudeMeters>
            <DistanceMeters>66080.156413249</DistanceMeters>
          </Trackpoint>
          <Trackpoint>
            <Time>2019-07-26T13:58:07.000Z</Time>
            <Position>
              <LatitudeDegrees>42.9275367222726345062255859375</LatitudeDegrees>
              <LongitudeDegrees>-8.2049020193517208099365234375</LongitudeDegrees>
            </Position>
            <AltitudeMeters>387.399993896484375</AltitudeMeters>
            <DistanceMeters>66085.548708322</DistanceMeters>
          </Trackpoint>
          <Trackpoint>
            <Time>2019-07-26T13:58:11.000Z</Time>
            <Position>
              <LatitudeDegrees>42.9275611974298954010009765625</LatitudeDegrees>
              <LongitudeDegrees>-8.20503436960279941558837890625</LongitudeDegrees>
            </Position>
            <AltitudeMeters>388.20001220703125</AltitudeMeters>
            <DistanceMeters>66096.673735411</DistanceMeters>
          </Trackpoint>
          <Trackpoint>
            <Time>2019-07-26T13:58:13.000Z</Time>
            <Position>
              <LatitudeDegrees>42.92757787741720676422119140625</LatitudeDegrees>
              <LongitudeDegrees>-8.205096311867237091064453125</LongitudeDegrees>
            </Position>
            <AltitudeMeters>388.600006103515625</AltitudeMeters>
            <DistanceMeters>66102.051777327</DistanceMeters>
          </Trackpoint>
          <Trackpoint>
            <Time>2019-07-26T13:58:17.000Z</Time>
            <Position>
              <LatitudeDegrees>42.92756639420986175537109375</LatitudeDegrees>
              <LongitudeDegrees>-8.20525330491364002227783203125</LongitudeDegrees>
            </Position>
            <AltitudeMeters>389.399993896484375</AltitudeMeters>
            <DistanceMeters>66114.909913647</DistanceMeters>
          </Trackpoint>
          <Trackpoint>
            <Time>2019-07-26T13:58:18.000Z</Time>
            <Position>
              <LatitudeDegrees>42.92754904367029666900634765625</LatitudeDegrees>
              <LongitudeDegrees>-8.20530057884752750396728515625</LongitudeDegrees>
            </Position>
            <AltitudeMeters>389.600006103515625</AltitudeMeters>
            <DistanceMeters>66119.218722899</DistanceMeters>
          </Trackpoint>
          <Trackpoint>
            <Time>2019-07-26T13:58:23.000Z</Time>
            <Position>
              <LatitudeDegrees>42.9275451041758060455322265625</LatitudeDegrees>
              <LongitudeDegrees>-8.20550828240811824798583984375</LongitudeDegrees>
            </Position>
            <AltitudeMeters>390.600006103515625</AltitudeMeters>
            <DistanceMeters>66136.151619498</DistanceMeters>
          </Trackpoint>
          <Trackpoint>
            <Time>2019-07-26T13:58:29.000Z</Time>
            <Position>
              <LatitudeDegrees>42.9275444336235523223876953125</LatitudeDegrees>
              <LongitudeDegrees>-8.20572956465184688568115234375</LongitudeDegrees>
            </Position>
            <AltitudeMeters>391.600006103515625</AltitudeMeters>
            <DistanceMeters>66154.185176359</DistanceMeters>
          </Trackpoint>
          <Trackpoint>
            <Time>2019-07-26T13:58:36.000Z</Time>
            <Position>
              <LatitudeDegrees>42.92757385410368442535400390625</LatitudeDegrees>
              <LongitudeDegrees>-8.20597708225250244140625</LongitudeDegrees>
            </Position>
            <AltitudeMeters>392.399993896484375</AltitudeMeters>
            <DistanceMeters>66174.621002141</DistanceMeters>
          </Trackpoint>
          <Trackpoint>
            <Time>2019-07-26T13:58:39.000Z</Time>
            <Position>
              <LatitudeDegrees>42.92756379581987857818603515625</LatitudeDegrees>
              <LongitudeDegrees>-8.20611865259706974029541015625</LongitudeDegrees>
            </Position>
            <AltitudeMeters>392.79998779296875</AltitudeMeters>
            <DistanceMeters>66186.212703374</DistanceMeters>
          </Trackpoint>
          <Trackpoint>
            <Time>2019-07-26T13:58:43.000Z</Time>
            <Position>
              <LatitudeDegrees>42.927556335926055908203125</LatitudeDegrees>
              <LongitudeDegrees>-8.2062739692628383636474609375</LongitudeDegrees>
            </Position>
            <AltitudeMeters>393.399993896484375</AltitudeMeters>
            <DistanceMeters>66198.897968931</DistanceMeters>
          </Trackpoint>
          <Trackpoint>
            <Time>2019-07-26T13:58:47.000Z</Time>
            <Position>
              <LatitudeDegrees>42.927578799426555633544921875</LatitudeDegrees>
              <LongitudeDegrees>-8.2064090855419635772705078125</LongitudeDegrees>
            </Position>
            <AltitudeMeters>394</AltitudeMeters>
            <DistanceMeters>66210.189765926</DistanceMeters>
          </Trackpoint>
          <Trackpoint>
            <Time>2019-07-26T13:58:48.000Z</Time>
            <Position>
              <LatitudeDegrees>42.92758357711136341094970703125</LatitudeDegrees>
              <LongitudeDegrees>-8.2064509950578212738037109375</LongitudeDegrees>
            </Position>
            <AltitudeMeters>394</AltitudeMeters>
            <DistanceMeters>66213.647485003</DistanceMeters>
          </Trackpoint>
          <Trackpoint>
            <Time>2019-07-26T13:58:51.000Z</Time>
            <Position>
              <LatitudeDegrees>42.92759145610034465789794921875</LatitudeDegrees>
              <LongitudeDegrees>-8.20657161064445972442626953125</LongitudeDegrees>
            </Position>
            <AltitudeMeters>395.20001220703125</AltitudeMeters>
            <DistanceMeters>66223.516548004</DistanceMeters>
          </Trackpoint>
          <Trackpoint>
            <Time>2019-07-26T13:58:54.000Z</Time>
            <Position>
              <LatitudeDegrees>42.92759430594742298126220703125</LatitudeDegrees>
              <LongitudeDegrees>-8.20671075023710727691650390625</LongitudeDegrees>
            </Position>
            <AltitudeMeters>395.600006103515625</AltitudeMeters>
            <DistanceMeters>66234.860206555</DistanceMeters>
          </Trackpoint>
          <Trackpoint>
            <Time>2019-07-26T13:58:57.000Z</Time>
            <Position>
              <LatitudeDegrees>42.92759053409099578857421875</LatitudeDegrees>
              <LongitudeDegrees>-8.20682843215763568878173828125</LongitudeDegrees>
            </Position>
            <AltitudeMeters>396.20001220703125</AltitudeMeters>
            <DistanceMeters>66244.459315891</DistanceMeters>
          </Trackpoint>
          <Trackpoint>
            <Time>2019-07-26T13:59:00.000Z</Time>
            <Position>
              <LatitudeDegrees>42.92759011499583721160888671875</LatitudeDegrees>
              <LongitudeDegrees>-8.20690177381038665771484375</LongitudeDegrees>
            </Position>
            <AltitudeMeters>396.20001220703125</AltitudeMeters>
            <DistanceMeters>66250.435431045</DistanceMeters>
          </Trackpoint>
          <Trackpoint>
            <Time>2019-07-26T13:59:02.000Z</Time>
            <Position>
              <LatitudeDegrees>42.9275823198258876800537109375</LatitudeDegrees>
              <LongitudeDegrees>-8.2069461978971958160400390625</LongitudeDegrees>
            </Position>
            <AltitudeMeters>396.399993896484375</AltitudeMeters>
            <DistanceMeters>66254.157276993</DistanceMeters>
          </Trackpoint>
          <Trackpoint>
            <Time>2019-07-26T13:59:05.000Z</Time>
            <Position>
              <LatitudeDegrees>42.9275645501911640167236328125</LatitudeDegrees>
              <LongitudeDegrees>-8.2070511393249034881591796875</LongitudeDegrees>
            </Position>
            <AltitudeMeters>396.600006103515625</AltitudeMeters>
            <DistanceMeters>66262.93478303</DistanceMeters>
          </Trackpoint>
          <Trackpoint>
            <Time>2019-07-26T13:59:10.000Z</Time>
            <Position>
              <LatitudeDegrees>42.92762883938848972320556640625</LatitudeDegrees>
              <LongitudeDegrees>-8.2072524726390838623046875</LongitudeDegrees>
            </Position>
            <AltitudeMeters>396.79998779296875</AltitudeMeters>
            <DistanceMeters>66280.83515265</DistanceMeters>
          </Trackpoint>
          <Trackpoint>
            <Time>2019-07-26T13:59:12.000Z</Time>
            <Position>
              <LatitudeDegrees>42.92764275334775447845458984375</LatitudeDegrees>
              <LongitudeDegrees>-8.20734492503106594085693359375</LongitudeDegrees>
            </Position>
            <AltitudeMeters>396.79998779296875</AltitudeMeters>
            <DistanceMeters>66288.52703544</DistanceMeters>
          </Trackpoint>
          <Trackpoint>
            <Time>2019-07-26T13:59:17.000Z</Time>
            <Position>
              <LatitudeDegrees>42.927656583487987518310546875</LatitudeDegrees>
              <LongitudeDegrees>-8.2075389660894870758056640625</LongitudeDegrees>
            </Position>
            <AltitudeMeters>397.20001220703125</AltitudeMeters>
            <DistanceMeters>66304.41554755</DistanceMeters>
          </Trackpoint>
          <Trackpoint>
            <Time>2019-07-26T13:59:23.000Z</Time>
            <Position>
              <LatitudeDegrees>42.92763588018715381622314453125</LatitudeDegrees>
              <LongitudeDegrees>-8.207668550312519073486328125</LongitudeDegrees>
            </Position>
            <AltitudeMeters>398.399993896484375</AltitudeMeters>
            <DistanceMeters>66315.224810204</DistanceMeters>
          </Trackpoint>
          <Trackpoint>
            <Time>2019-07-26T13:59:25.000Z</Time>
            <Position>
              <LatitudeDegrees>42.92763856239616870880126953125</LatitudeDegrees>
              <LongitudeDegrees>-8.2076797820627689361572265625</LongitudeDegrees>
            </Position>
            <AltitudeMeters>399</AltitudeMeters>
            <DistanceMeters>66316.189226023</DistanceMeters>
          </Trackpoint>
          <Trackpoint>
            <Time>2019-07-26T14:06:43.000Z</Time>
            <Position>
              <LatitudeDegrees>42.92747595347464084625244140625</LatitudeDegrees>
              <LongitudeDegrees>-8.20795026607811450958251953125</LongitudeDegrees>
            </Position>
            <AltitudeMeters>398.600006103515625</AltitudeMeters>
            <DistanceMeters>66344.710857578</DistanceMeters>
          </Trackpoint>
          <Trackpoint>
            <Time>2019-07-26T14:06:44.000Z</Time>
            <Position>
              <LatitudeDegrees>42.9274914599955081939697265625</LatitudeDegrees>
              <LongitudeDegrees>-8.20798463188111782073974609375</LongitudeDegrees>
            </Position>
            <AltitudeMeters>398.600006103515625</AltitudeMeters>
            <DistanceMeters>66348.002679525</DistanceMeters>
          </Trackpoint>
          <Trackpoint>
            <Time>2019-07-26T14:06:46.000Z</Time>
            <Position>
              <LatitudeDegrees>42.92753378860652446746826171875</LatitudeDegrees>
              <LongitudeDegrees>-8.208055458962917327880859375</LongitudeDegrees>
            </Position>
            <AltitudeMeters>398.600006103515625</AltitudeMeters>
            <DistanceMeters>66355.453646575</DistanceMeters>
          </Trackpoint>
          <Trackpoint>
            <Time>2019-07-26T14:06:47.000Z</Time>
            <Position>
              <LatitudeDegrees>42.92755189351737499237060546875</LatitudeDegrees>
              <LongitudeDegrees>-8.20809267461299896240234375</LongitudeDegrees>
            </Position>
            <AltitudeMeters>398.600006103515625</AltitudeMeters>
            <DistanceMeters>66359.094546494</DistanceMeters>
          </Trackpoint>
          <Trackpoint>
            <Time>2019-07-26T14:06:48.000Z</Time>
            <Position>
              <LatitudeDegrees>42.9275732673704624176025390625</LatitudeDegrees>
              <LongitudeDegrees>-8.20813081227242946624755859375</LongitudeDegrees>
            </Position>
            <AltitudeMeters>398.600006103515625</AltitudeMeters>
            <DistanceMeters>66363.007986113</DistanceMeters>
          </Trackpoint>
          <Trackpoint>
            <Time>2019-07-26T14:06:50.000Z</Time>
            <Position>
              <LatitudeDegrees>42.927625067532062530517578125</LatitudeDegrees>
              <LongitudeDegrees>-8.20820859633386135101318359375</LongitudeDegrees>
            </Position>
            <AltitudeMeters>399</AltitudeMeters>
            <DistanceMeters>66371.576740489</DistanceMeters>
          </Trackpoint>
          <Trackpoint>
            <Time>2019-07-26T14:06:52.000Z</Time>
            <Position>
              <LatitudeDegrees>42.9276708327233791351318359375</LatitudeDegrees>
              <LongitudeDegrees>-8.2083012163639068603515625</LongitudeDegrees>
            </Position>
            <AltitudeMeters>399.20001220703125</AltitudeMeters>
            <DistanceMeters>66380.682957705</DistanceMeters>
          </Trackpoint>
          <Trackpoint>
            <Time>2019-07-26T14:06:56.000Z</Time>
            <Position>
              <LatitudeDegrees>42.92775272391736507415771484375</LatitudeDegrees>
              <LongitudeDegrees>-8.20844404399394989013671875</LongitudeDegrees>
            </Position>
            <AltitudeMeters>399.79998779296875</AltitudeMeters>
            <DistanceMeters>66395.466866872</DistanceMeters>
          </Trackpoint>
          <Trackpoint>
            <Time>2019-07-26T14:06:57.000Z</Time>
            <Position>
              <LatitudeDegrees>42.92777250520884990692138671875</LatitudeDegrees>
              <LongitudeDegrees>-8.2084874622523784637451171875</LongitudeDegrees>
            </Position>
            <AltitudeMeters>399.79998779296875</AltitudeMeters>
            <DistanceMeters>66399.633980621</DistanceMeters>
          </Trackpoint>
          <Trackpoint>
            <Time>2019-07-26T14:07:01.000Z</Time>
            <Position>
              <LatitudeDegrees>42.92787845246493816375732421875</LatitudeDegrees>
              <LongitudeDegrees>-8.2086795754730701446533203125</LongitudeDegrees>
            </Position>
            <AltitudeMeters>400.20001220703125</AltitudeMeters>
            <DistanceMeters>66419.234608221</DistanceMeters>
          </Trackpoint>
          <Trackpoint>
            <Time>2019-07-26T14:07:04.000Z</Time>
            <Position>
              <LatitudeDegrees>42.92798456735908985137939453125</LatitudeDegrees>
              <LongitudeDegrees>-8.20884545333683490753173828125</LongitudeDegrees>
            </Position>
            <AltitudeMeters>400.79998779296875</AltitudeMeters>
            <DistanceMeters>66437.185856311</DistanceMeters>
          </Trackpoint>
          <Trackpoint>
            <Time>2019-07-26T14:07:06.000Z</Time>
            <Position>
              <LatitudeDegrees>42.92804810218513011932373046875</LatitudeDegrees>
              <LongitudeDegrees>-8.20895793847739696502685546875</LongitudeDegrees>
            </Position>
            <AltitudeMeters>401</AltitudeMeters>
            <DistanceMeters>66448.763526834</DistanceMeters>
          </Trackpoint>
          <Trackpoint>
            <Time>2019-07-26T14:07:08.000Z</Time>
            <Position>
              <LatitudeDegrees>42.92811532504856586456298828125</LatitudeDegrees>
              <LongitudeDegrees>-8.2090723514556884765625</LongitudeDegrees>
            </Position>
            <AltitudeMeters>401.399993896484375</AltitudeMeters>
            <DistanceMeters>66460.718778816</DistanceMeters>
          </Trackpoint>
          <Trackpoint>
            <Time>2019-07-26T14:07:10.000Z</Time>
            <Position>
              <LatitudeDegrees>42.92816746048629283905029296875</LatitudeDegrees>
              <LongitudeDegrees>-8.20918609388172626495361328125</LongitudeDegrees>
            </Position>
            <AltitudeMeters>401.79998779296875</AltitudeMeters>
            <DistanceMeters>66471.654698184</DistanceMeters>
          </Trackpoint>
          <Trackpoint>
            <Time>2019-07-26T14:07:11.000Z</Time>
            <Position>
              <LatitudeDegrees>42.92818791233003139495849609375</LatitudeDegrees>
              <LongitudeDegrees>-8.20924979634582996368408203125</LongitudeDegrees>
            </Position>
            <AltitudeMeters>402.399993896484375</AltitudeMeters>
            <DistanceMeters>66477.323740613</DistanceMeters>
          </Trackpoint>
          <Trackpoint>
            <Time>2019-07-26T14:07:13.000Z</Time>
            <Position>
              <LatitudeDegrees>42.9282253794372081756591796875</LatitudeDegrees>
              <LongitudeDegrees>-8.20936915464699268341064453125</LongitudeDegrees>
            </Position>
            <AltitudeMeters>402.79998779296875</AltitudeMeters>
            <DistanceMeters>66487.907174281</DistanceMeters>
          </Trackpoint>
          <Trackpoint>
            <Time>2019-07-26T14:07:16.000Z</Time>
            <Position>
              <LatitudeDegrees>42.92826888151466846466064453125</LatitudeDegrees>
              <LongitudeDegrees>-8.2095243036746978759765625</LongitudeDegrees>
            </Position>
            <AltitudeMeters>403.600006103515625</AltitudeMeters>
            <DistanceMeters>66501.446730474</DistanceMeters>
          </Trackpoint>
          <Trackpoint>
            <Time>2019-07-26T14:07:19.000Z</Time>
            <Position>
              <LatitudeDegrees>42.92831514962017536163330078125</LatitudeDegrees>
              <LongitudeDegrees>-8.2096797041594982147216796875</LongitudeDegrees>
            </Position>
            <AltitudeMeters>404.79998779296875</AltitudeMeters>
            <DistanceMeters>66515.118693844</DistanceMeters>
          </Trackpoint>
          <Trackpoint>
            <Time>2019-07-26T14:07:22.000Z</Time>
            <Position>
              <LatitudeDegrees>42.92836778797209262847900390625</LatitudeDegrees>
              <LongitudeDegrees>-8.20984407328069210052490234375</LongitudeDegrees>
            </Position>
            <AltitudeMeters>405.79998779296875</AltitudeMeters>
            <DistanceMeters>66529.739535121</DistanceMeters>
          </Trackpoint>
          <Trackpoint>
            <Time>2019-07-26T14:07:26.000Z</Time>
            <Position>
              <LatitudeDegrees>42.92845579795539379119873046875</LatitudeDegrees>
              <LongitudeDegrees>-8.210070468485355377197265625</LongitudeDegrees>
            </Position>
            <AltitudeMeters>406.399993896484375</AltitudeMeters>
            <DistanceMeters>66550.628992129</DistanceMeters>
          </Trackpoint>
          <Trackpoint>
            <Time>2019-07-26T14:07:32.000Z</Time>
            <Position>
              <LatitudeDegrees>42.92856811545789241790771484375</LatitudeDegrees>
              <LongitudeDegrees>-8.2104629091918468475341796875</LongitudeDegrees>
            </Position>
            <AltitudeMeters>407</AltitudeMeters>
            <DistanceMeters>66584.967444655</DistanceMeters>
          </Trackpoint>
          <Trackpoint>
            <Time>2019-07-26T14:07:33.000Z</Time>
            <Position>
              <LatitudeDegrees>42.9285881482064723968505859375</LatitudeDegrees>
              <LongitudeDegrees>-8.21053692139685153961181640625</LongitudeDegrees>
            </Position>
            <AltitudeMeters>407</AltitudeMeters>
            <DistanceMeters>66591.397741696</DistanceMeters>
          </Trackpoint>
          <Trackpoint>
            <Time>2019-07-26T14:07:35.000Z</Time>
            <Position>
              <LatitudeDegrees>42.92862008325755596160888671875</LatitudeDegrees>
              <LongitudeDegrees>-8.2106949202716350555419921875</LongitudeDegrees>
            </Position>
            <AltitudeMeters>407</AltitudeMeters>
            <DistanceMeters>66604.75567232</DistanceMeters>
          </Trackpoint>
          <Trackpoint>
            <Time>2019-07-26T14:07:38.000Z</Time>
            <Position>
              <LatitudeDegrees>42.9286531917750835418701171875</LatitudeDegrees>
              <LongitudeDegrees>-8.2109634764492511749267578125</LongitudeDegrees>
            </Position>
            <AltitudeMeters>407.20001220703125</AltitudeMeters>
            <DistanceMeters>66626.949852636</DistanceMeters>
          </Trackpoint>
          <Trackpoint>
            <Time>2019-07-26T14:07:43.000Z</Time>
            <Position>
              <LatitudeDegrees>42.92868227697908878326416015625</LatitudeDegrees>
              <LongitudeDegrees>-8.21150721050798892974853515625</LongitudeDegrees>
            </Position>
            <AltitudeMeters>407.20001220703125</AltitudeMeters>
            <DistanceMeters>66671.379897551</DistanceMeters>
          </Trackpoint>
          <Trackpoint>
            <Time>2019-07-26T14:07:49.000Z</Time>
            <Position>
              <LatitudeDegrees>42.9287262819707393646240234375</LatitudeDegrees>
              <LongitudeDegrees>-8.21212596260011196136474609375</LongitudeDegrees>
            </Position>
            <AltitudeMeters>405.79998779296875</AltitudeMeters>
            <DistanceMeters>66722.042773393</DistanceMeters>
          </Trackpoint>
          <Trackpoint>
            <Time>2019-07-26T14:07:50.000Z</Time>
            <Position>
              <LatitudeDegrees>42.92873608879745006561279296875</LatitudeDegrees>
              <LongitudeDegrees>-8.21221933700144290924072265625</LongitudeDegrees>
            </Position>
            <AltitudeMeters>405.600006103515625</AltitudeMeters>
            <DistanceMeters>66729.731133453</DistanceMeters>
          </Trackpoint>
          <Trackpoint>
            <Time>2019-07-26T14:07:54.000Z</Time>
            <Position>
              <LatitudeDegrees>42.9287705384194850921630859375</LatitudeDegrees>
              <LongitudeDegrees>-8.212566934525966644287109375</LongitudeDegrees>
            </Position>
            <AltitudeMeters>404.79998779296875</AltitudeMeters>
            <DistanceMeters>66758.316963466</DistanceMeters>
          </Trackpoint>
          <Trackpoint>
            <Time>2019-07-26T14:07:56.000Z</Time>
            <Position>
              <LatitudeDegrees>42.92879140935838222503662109375</LatitudeDegrees>
              <LongitudeDegrees>-8.21274756453931331634521484375</LongitudeDegrees>
            </Position>
            <AltitudeMeters>404.600006103515625</AltitudeMeters>
            <DistanceMeters>66773.21950352</DistanceMeters>
          </Trackpoint>
          <Trackpoint>
            <Time>2019-07-26T14:08:02.000Z</Time>
            <Position>
              <LatitudeDegrees>42.92881085537374019622802734375</LatitudeDegrees>
              <LongitudeDegrees>-8.213282413780689239501953125</LongitudeDegrees>
            </Position>
            <AltitudeMeters>404.20001220703125</AltitudeMeters>
            <DistanceMeters>66816.860877732</DistanceMeters>
          </Trackpoint>
          <Trackpoint>
            <Time>2019-07-26T14:08:08.000Z</Time>
            <Position>
              <LatitudeDegrees>42.9288305528461933135986328125</LatitudeDegrees>
              <LongitudeDegrees>-8.2138104736804962158203125</LongitudeDegrees>
            </Position>
            <AltitudeMeters>404</AltitudeMeters>
            <DistanceMeters>66859.951065924</DistanceMeters>
          </Trackpoint>
          <Trackpoint>
            <Time>2019-07-26T14:08:11.000Z</Time>
            <Position>
              <LatitudeDegrees>42.92878319509327411651611328125</LatitudeDegrees>
              <LongitudeDegrees>-8.21406989358365535736083984375</LongitudeDegrees>
            </Position>
            <AltitudeMeters>404</AltitudeMeters>
            <DistanceMeters>66881.739761134</DistanceMeters>
          </Trackpoint>
          <Trackpoint>
            <Time>2019-07-26T14:08:12.000Z</Time>
            <Position>
              <LatitudeDegrees>42.92875335551798343658447265625</LatitudeDegrees>
              <LongitudeDegrees>-8.21415287442505359649658203125</LongitudeDegrees>
            </Position>
            <AltitudeMeters>404</AltitudeMeters>
            <DistanceMeters>66889.273887529</DistanceMeters>
          </Trackpoint>
          <Trackpoint>
            <Time>2019-07-26T14:08:13.000Z</Time>
            <Position>
              <LatitudeDegrees>42.92873022146522998809814453125</LatitudeDegrees>
              <LongitudeDegrees>-8.2142240367829799652099609375</LongitudeDegrees>
            </Position>
            <AltitudeMeters>404</AltitudeMeters>
            <DistanceMeters>66895.61936709</DistanceMeters>
          </Trackpoint>
          <Trackpoint>
            <Time>2019-07-26T14:08:16.000Z</Time>
            <Position>
              <LatitudeDegrees>42.92865646071732044219970703125</LatitudeDegrees>
              <LongitudeDegrees>-8.2144107855856418609619140625</LongitudeDegrees>
            </Position>
            <AltitudeMeters>404</AltitudeMeters>
            <DistanceMeters>66912.911879384</DistanceMeters>
          </Trackpoint>
          <Trackpoint>
            <Time>2019-07-26T14:08:18.000Z</Time>
            <Position>
              <LatitudeDegrees>42.92859527282416820526123046875</LatitudeDegrees>
              <LongitudeDegrees>-8.214541710913181304931640625</LongitudeDegrees>
            </Position>
            <AltitudeMeters>404</AltitudeMeters>
            <DistanceMeters>66925.570065527</DistanceMeters>
          </Trackpoint>
          <Trackpoint>
            <Time>2019-07-26T14:08:24.000Z</Time>
            <Position>
              <LatitudeDegrees>42.92840651236474514007568359375</LatitudeDegrees>
              <LongitudeDegrees>-8.21498653851449489593505859375</LongitudeDegrees>
            </Position>
            <AltitudeMeters>404.20001220703125</AltitudeMeters>
            <DistanceMeters>66967.469735118</DistanceMeters>
          </Trackpoint>
          <Trackpoint>
            <Time>2019-07-26T14:08:31.000Z</Time>
            <Position>
              <LatitudeDegrees>42.92822127230465412139892578125</LatitudeDegrees>
              <LongitudeDegrees>-8.2154461182653903961181640625</LongitudeDegrees>
            </Position>
            <AltitudeMeters>404.79998779296875</AltitudeMeters>
            <DistanceMeters>67010.223520143</DistanceMeters>
          </Trackpoint>
          <Trackpoint>
            <Time>2019-07-26T14:08:36.000Z</Time>
            <Position>
              <LatitudeDegrees>42.92804650962352752685546875</LatitudeDegrees>
              <LongitudeDegrees>-8.21583495475351810455322265625</LongitudeDegrees>
            </Position>
            <AltitudeMeters>405.399993896484375</AltitudeMeters>
            <DistanceMeters>67047.405811139</DistanceMeters>
          </Trackpoint>
          <Trackpoint>
            <Time>2019-07-26T14:08:39.000Z</Time>
            <Position>
              <LatitudeDegrees>42.92794366367161273956298828125</LatitudeDegrees>
              <LongitudeDegrees>-8.216096051037311553955078125</LongitudeDegrees>
            </Position>
            <AltitudeMeters>405.399993896484375</AltitudeMeters>
            <DistanceMeters>67071.567649689</DistanceMeters>
          </Trackpoint>
          <Trackpoint>
            <Time>2019-07-26T14:08:42.000Z</Time>
            <Position>
              <LatitudeDegrees>42.92785297147929668426513671875</LatitudeDegrees>
              <LongitudeDegrees>-8.216366283595561981201171875</LongitudeDegrees>
            </Position>
            <AltitudeMeters>405.399993896484375</AltitudeMeters>
            <DistanceMeters>67095.793685031</DistanceMeters>
          </Trackpoint>
          <Trackpoint>
            <Time>2019-07-26T14:08:46.000Z</Time>
            <Position>
              <LatitudeDegrees>42.92770863510668277740478515625</LatitudeDegrees>
              <LongitudeDegrees>-8.21672209538519382476806640625</LongitudeDegrees>
            </Position>
            <AltitudeMeters>404.79998779296875</AltitudeMeters>
            <DistanceMeters>67128.943710414</DistanceMeters>
          </Trackpoint>
          <Trackpoint>
            <Time>2019-07-26T14:08:48.000Z</Time>
            <Position>
              <LatitudeDegrees>42.92764258570969104766845703125</LatitudeDegrees>
              <LongitudeDegrees>-8.21689928881824016571044921875</LongitudeDegrees>
            </Position>
            <AltitudeMeters>404.600006103515625</AltitudeMeters>
            <DistanceMeters>67145.147924769</DistanceMeters>
          </Trackpoint>
          <Trackpoint>
            <Time>2019-07-26T14:08:49.000Z</Time>
            <Position>
              <LatitudeDegrees>42.92761241085827350616455078125</LatitudeDegrees>
              <LongitudeDegrees>-8.2169893942773342132568359375</LongitudeDegrees>
            </Position>
            <AltitudeMeters>404.600006103515625</AltitudeMeters>
            <DistanceMeters>67153.223518374</DistanceMeters>
          </Trackpoint>
          <Trackpoint>
            <Time>2019-07-26T14:08:50.000Z</Time>
            <Position>
              <LatitudeDegrees>42.92758206836879253387451171875</LatitudeDegrees>
              <LongitudeDegrees>-8.2170779071748256683349609375</LongitudeDegrees>
            </Position>
            <AltitudeMeters>404.399993896484375</AltitudeMeters>
            <DistanceMeters>67161.18877525</DistanceMeters>
          </Trackpoint>
          <Trackpoint>
            <Time>2019-07-26T14:08:53.000Z</Time>
            <Position>
              <LatitudeDegrees>42.9274837486445903778076171875</LatitudeDegrees>
              <LongitudeDegrees>-8.217334561049938201904296875</LongitudeDegrees>
            </Position>
            <AltitudeMeters>403.399993896484375</AltitudeMeters>
            <DistanceMeters>67184.794834162</DistanceMeters>
          </Trackpoint>
          <Trackpoint>
            <Time>2019-07-26T14:08:55.000Z</Time>
            <Position>
              <LatitudeDegrees>42.92740143835544586181640625</LatitudeDegrees>
              <LongitudeDegrees>-8.21750479750335216522216796875</LongitudeDegrees>
            </Position>
            <AltitudeMeters>402.399993896484375</AltitudeMeters>
            <DistanceMeters>67201.420436104</DistanceMeters>
          </Trackpoint>
          <Trackpoint>
            <Time>2019-07-26T14:08:56.000Z</Time>
            <Position>
              <LatitudeDegrees>42.92735860683023929595947265625</LatitudeDegrees>
              <LongitudeDegrees>-8.21759263984858989715576171875</LongitudeDegrees>
            </Position>
            <AltitudeMeters>402</AltitudeMeters>
            <DistanceMeters>67210.021797409</DistanceMeters>
          </Trackpoint>
          <Trackpoint>
            <Time>2019-07-26T14:08:59.000Z</Time>
            <Position>
              <LatitudeDegrees>42.9272269271314144134521484375</LatitudeDegrees>
              <LongitudeDegrees>-8.2178755290806293487548828125</LongitudeDegrees>
            </Position>
            <AltitudeMeters>401.399993896484375</AltitudeMeters>
            <DistanceMeters>67237.340944872</DistanceMeters>
          </Trackpoint>
          <Trackpoint>
            <Time>2019-07-26T14:09:00.000Z</Time>
            <Position>
              <LatitudeDegrees>42.92717906646430492401123046875</LatitudeDegrees>
              <LongitudeDegrees>-8.21795658208429813385009765625</LongitudeDegrees>
            </Position>
            <AltitudeMeters>401</AltitudeMeters>
            <DistanceMeters>67245.827101814</DistanceMeters>
          </Trackpoint>
          <Trackpoint>
            <Time>2019-07-26T14:09:02.000Z</Time>
            <Position>
              <LatitudeDegrees>42.9270733706653118133544921875</LatitudeDegrees>
              <LongitudeDegrees>-8.21808918379247188568115234375</LongitudeDegrees>
            </Position>
            <AltitudeMeters>400.399993896484375</AltitudeMeters>
            <DistanceMeters>67261.801485377</DistanceMeters>
          </Trackpoint>
          <Trackpoint>
            <Time>2019-07-26T14:09:03.000Z</Time>
            <Position>
              <LatitudeDegrees>42.92702182196080684661865234375</LatitudeDegrees>
              <LongitudeDegrees>-8.218162357807159423828125</LongitudeDegrees>
            </Position>
            <AltitudeMeters>400</AltitudeMeters>
            <DistanceMeters>67270.077543003</DistanceMeters>
          </Trackpoint>
          <Trackpoint>
            <Time>2019-07-26T14:09:04.000Z</Time>
            <Position>
              <LatitudeDegrees>42.9269778169691562652587890625</LatitudeDegrees>
              <LongitudeDegrees>-8.21824693121016025543212890625</LongitudeDegrees>
            </Position>
            <AltitudeMeters>399.600006103515625</AltitudeMeters>
            <DistanceMeters>67278.533318857</DistanceMeters>
          </Trackpoint>
          <Trackpoint>
            <Time>2019-07-26T14:09:06.000Z</Time>
            <Position>
              <LatitudeDegrees>42.9269147850573062896728515625</LatitudeDegrees>
              <LongitudeDegrees>-8.2184528745710849761962890625</LongitudeDegrees>
            </Position>
            <AltitudeMeters>398.79998779296875</AltitudeMeters>
            <DistanceMeters>67296.724668764</DistanceMeters>
          </Trackpoint>
          <Trackpoint>
            <Time>2019-07-26T14:09:07.000Z</Time>
            <Position>
              <LatitudeDegrees>42.926886789500713348388671875</LatitudeDegrees>
              <LongitudeDegrees>-8.2185638509690761566162109375</LongitudeDegrees>
            </Position>
            <AltitudeMeters>398.399993896484375</AltitudeMeters>
            <DistanceMeters>67306.291268199</DistanceMeters>
          </Trackpoint>
          <Trackpoint>
            <Time>2019-07-26T14:09:08.000Z</Time>
            <Position>
              <LatitudeDegrees>42.92685619555413722991943359375</LatitudeDegrees>
              <LongitudeDegrees>-8.21867759339511394500732421875</LongitudeDegrees>
            </Position>
            <AltitudeMeters>397.79998779296875</AltitudeMeters>
            <DistanceMeters>67316.166734041</DistanceMeters>
          </Trackpoint>
          <Trackpoint>
            <Time>2019-07-26T14:09:10.000Z</Time>
            <Position>
              <LatitudeDegrees>42.92679131962358951568603515625</LatitudeDegrees>
              <LongitudeDegrees>-8.21891580708324909210205078125</LongitudeDegrees>
            </Position>
            <AltitudeMeters>396.399993896484375</AltitudeMeters>
            <DistanceMeters>67336.879942195</DistanceMeters>
          </Trackpoint>
          <Trackpoint>
            <Time>2019-07-26T14:09:12.000Z</Time>
            <Position>
              <LatitudeDegrees>42.92672376148402690887451171875</LatitudeDegrees>
              <LongitudeDegrees>-8.2191593013703823089599609375</LongitudeDegrees>
            </Position>
            <AltitudeMeters>395</AltitudeMeters>
            <DistanceMeters>67358.101133074</DistanceMeters>
          </Trackpoint>
          <Trackpoint>
            <Time>2019-07-26T14:09:13.000Z</Time>
            <Position>
              <LatitudeDegrees>42.926693670451641082763671875</LatitudeDegrees>
              <LongitudeDegrees>-8.219281844794750213623046875</LongitudeDegrees>
            </Position>
            <AltitudeMeters>394.600006103515625</AltitudeMeters>
            <DistanceMeters>67368.634106025</DistanceMeters>
          </Trackpoint>
          <Trackpoint>
            <Time>2019-07-26T14:09:14.000Z</Time>
            <Position>
              <LatitudeDegrees>42.9266671836376190185546875</LatitudeDegrees>
              <LongitudeDegrees>-8.21940061636269092559814453125</LongitudeDegrees>
            </Position>
            <AltitudeMeters>393.79998779296875</AltitudeMeters>
            <DistanceMeters>67378.752554855</DistanceMeters>
          </Trackpoint>
          <Trackpoint>
            <Time>2019-07-26T14:09:16.000Z</Time>
            <Position>
              <LatitudeDegrees>42.92661647312343120574951171875</LatitudeDegrees>
              <LongitudeDegrees>-8.21962810121476650238037109375</LongitudeDegrees>
            </Position>
            <AltitudeMeters>392.399993896484375</AltitudeMeters>
            <DistanceMeters>67398.132413974</DistanceMeters>
          </Trackpoint>
          <Trackpoint>
            <Time>2019-07-26T14:09:18.000Z</Time>
            <Position>
              <LatitudeDegrees>42.92657456360757350921630859375</LatitudeDegrees>
              <LongitudeDegrees>-8.219837062060832977294921875</LongitudeDegrees>
            </Position>
            <AltitudeMeters>391.20001220703125</AltitudeMeters>
            <DistanceMeters>67415.789748126</DistanceMeters>
          </Trackpoint>
          <Trackpoint>
            <Time>2019-07-26T14:09:21.000Z</Time>
            <Position>
              <LatitudeDegrees>42.9265074245631694793701171875</LatitudeDegrees>
              <LongitudeDegrees>-8.2201326079666614532470703125</LongitudeDegrees>
            </Position>
            <AltitudeMeters>390</AltitudeMeters>
            <DistanceMeters>67441.008914332</DistanceMeters>
          </Trackpoint>
          <Trackpoint>
            <Time>2019-07-26T14:09:24.000Z</Time>
            <Position>
              <LatitudeDegrees>42.92641715146601200103759765625</LatitudeDegrees>
              <LongitudeDegrees>-8.22041063569486141204833984375</LongitudeDegrees>
            </Position>
            <AltitudeMeters>389.20001220703125</AltitudeMeters>
            <DistanceMeters>67465.795408254</DistanceMeters>
          </Trackpoint>
          <Trackpoint>
            <Time>2019-07-26T14:09:27.000Z</Time>
            <Position>
              <LatitudeDegrees>42.92634272016584873199462890625</LatitudeDegrees>
              <LongitudeDegrees>-8.22067533619701862335205078125</LongitudeDegrees>
            </Position>
            <AltitudeMeters>389</AltitudeMeters>
            <DistanceMeters>67488.90390454</DistanceMeters>
          </Trackpoint>
          <Trackpoint>
            <Time>2019-07-26T14:09:30.000Z</Time>
            <Position>
              <LatitudeDegrees>42.92627767659723758697509765625</LatitudeDegrees>
              <LongitudeDegrees>-8.2209422998130321502685546875</LongitudeDegrees>
            </Position>
            <AltitudeMeters>388.79998779296875</AltitudeMeters>
            <DistanceMeters>67511.833911758</DistanceMeters>
          </Trackpoint>
          <Trackpoint>
            <Time>2019-07-26T14:09:34.000Z</Time>
            <Position>
              <LatitudeDegrees>42.926163934171199798583984375</LatitudeDegrees>
              <LongitudeDegrees>-8.22125184349715709686279296875</LongitudeDegrees>
            </Position>
            <AltitudeMeters>388.79998779296875</AltitudeMeters>
            <DistanceMeters>67540.059565414</DistanceMeters>
          </Trackpoint>
          <Trackpoint>
            <Time>2019-07-26T14:09:36.000Z</Time>
            <Position>
              <LatitudeDegrees>42.92612177319824695587158203125</LatitudeDegrees>
              <LongitudeDegrees>-8.22139048017561435699462890625</LongitudeDegrees>
            </Position>
            <AltitudeMeters>388.79998779296875</AltitudeMeters>
            <DistanceMeters>67552.294047305</DistanceMeters>
          </Trackpoint>
          <Trackpoint>
            <Time>2019-07-26T14:09:41.000Z</Time>
            <Position>
              <LatitudeDegrees>42.9260373674333095550537109375</LatitudeDegrees>
              <LongitudeDegrees>-8.221703208982944488525390625</LongitudeDegrees>
            </Position>
            <AltitudeMeters>389.20001220703125</AltitudeMeters>
            <DistanceMeters>67579.457230406</DistanceMeters>
          </Trackpoint>
          <Trackpoint>
            <Time>2019-07-26T14:09:43.000Z</Time>
            <Position>
              <LatitudeDegrees>42.926003672182559967041015625</LatitudeDegrees>
              <LongitudeDegrees>-8.22180856950581073760986328125</LongitudeDegrees>
            </Position>
            <AltitudeMeters>389.20001220703125</AltitudeMeters>
            <DistanceMeters>67588.826883718</DistanceMeters>
          </Trackpoint>
          <Trackpoint>
            <Time>2019-07-26T14:09:48.000Z</Time>
            <Position>
              <LatitudeDegrees>42.92593770660459995269775390625</LatitudeDegrees>
              <LongitudeDegrees>-8.2220876030623912811279296875</LongitudeDegrees>
            </Position>
            <AltitudeMeters>390</AltitudeMeters>
            <DistanceMeters>67612.723599062</DistanceMeters>
          </Trackpoint>
          <Trackpoint>
            <Time>2019-07-26T14:09:51.000Z</Time>
            <Position>
              <LatitudeDegrees>42.9259215295314788818359375</LatitudeDegrees>
              <LongitudeDegrees>-8.2222575880587100982666015625</LongitudeDegrees>
            </Position>
            <AltitudeMeters>390.600006103515625</AltitudeMeters>
            <DistanceMeters>67626.693495701</DistanceMeters>
          </Trackpoint>
          <Trackpoint>
            <Time>2019-07-26T14:09:52.000Z</Time>
            <Position>
              <LatitudeDegrees>42.9259213618934154510498046875</LatitudeDegrees>
              <LongitudeDegrees>-8.22231508791446685791015625</LongitudeDegrees>
            </Position>
            <AltitudeMeters>390.600006103515625</AltitudeMeters>
            <DistanceMeters>67631.379767771</DistanceMeters>
          </Trackpoint>
          <Trackpoint>
            <Time>2019-07-26T14:09:54.000Z</Time>
            <Position>
              <LatitudeDegrees>42.92592496611177921295166015625</LatitudeDegrees>
              <LongitudeDegrees>-8.22242447175085544586181640625</LongitudeDegrees>
            </Position>
            <AltitudeMeters>391.20001220703125</AltitudeMeters>
            <DistanceMeters>67640.303175981</DistanceMeters>
          </Trackpoint>
          <Trackpoint>
            <Time>2019-07-26T14:09:58.000Z</Time>
            <Position>
              <LatitudeDegrees>42.925940640270709991455078125</LatitudeDegrees>
              <LongitudeDegrees>-8.222652375698089599609375</LongitudeDegrees>
            </Position>
            <AltitudeMeters>391.79998779296875</AltitudeMeters>
            <DistanceMeters>67658.958689274</DistanceMeters>
          </Trackpoint>
          <Trackpoint>
            <Time>2019-07-26T14:09:59.000Z</Time>
            <Position>
              <LatitudeDegrees>42.925938628613948822021484375</LatitudeDegrees>
              <LongitudeDegrees>-8.22270912118256092071533203125</LongitudeDegrees>
            </Position>
            <AltitudeMeters>392</AltitudeMeters>
            <DistanceMeters>67663.588743429</DistanceMeters>
          </Trackpoint>
          <Trackpoint>
            <Time>2019-07-26T14:10:01.000Z</Time>
            <Position>
              <LatitudeDegrees>42.9259230382740497589111328125</LatitudeDegrees>
              <LongitudeDegrees>-8.2228267192840576171875</LongitudeDegrees>
            </Position>
            <AltitudeMeters>392.20001220703125</AltitudeMeters>
            <DistanceMeters>67673.328865765</DistanceMeters>
          </Trackpoint>
          <Trackpoint>
            <Time>2019-07-26T14:10:03.000Z</Time>
            <Position>
              <LatitudeDegrees>42.9259025864303112030029296875</LatitudeDegrees>
              <LongitudeDegrees>-8.222947083413600921630859375</LongitudeDegrees>
            </Position>
            <AltitudeMeters>392.79998779296875</AltitudeMeters>
            <DistanceMeters>67683.398559325</DistanceMeters>
          </Trackpoint>
          <Trackpoint>
            <Time>2019-07-26T14:10:07.000Z</Time>
            <Position>
              <LatitudeDegrees>42.92582807131111621856689453125</LatitudeDegrees>
              <LongitudeDegrees>-8.2231916673481464385986328125</LongitudeDegrees>
            </Position>
            <AltitudeMeters>393.600006103515625</AltitudeMeters>
            <DistanceMeters>67704.988244035</DistanceMeters>
          </Trackpoint>
          <Trackpoint>
            <Time>2019-07-26T14:10:10.000Z</Time>
            <Position>
              <LatitudeDegrees>42.9257681407034397125244140625</LatitudeDegrees>
              <LongitudeDegrees>-8.22337397374212741851806640625</LongitudeDegrees>
            </Position>
            <AltitudeMeters>394.20001220703125</AltitudeMeters>
            <DistanceMeters>67721.274725099</DistanceMeters>
          </Trackpoint>
          <Trackpoint>
            <Time>2019-07-26T14:10:17.000Z</Time>
            <Position>
              <LatitudeDegrees>42.92563864029943943023681640625</LatitudeDegrees>
              <LongitudeDegrees>-8.22376742027699947357177734375</LongitudeDegrees>
            </Position>
            <AltitudeMeters>394.399993896484375</AltitudeMeters>
            <DistanceMeters>67756.431013627</DistanceMeters>
          </Trackpoint>
          <Trackpoint>
            <Time>2019-07-26T14:10:20.000Z</Time>
            <Position>
              <LatitudeDegrees>42.92560058645904064178466796875</LatitudeDegrees>
              <LongitudeDegrees>-8.22393857873976230621337890625</LongitudeDegrees>
            </Position>
            <AltitudeMeters>394.79998779296875</AltitudeMeters>
            <DistanceMeters>67771.008867345</DistanceMeters>
          </Trackpoint>
          <Trackpoint>
            <Time>2019-07-26T14:10:23.000Z</Time>
            <Position>
              <LatitudeDegrees>42.92554794810712337493896484375</LatitudeDegrees>
              <LongitudeDegrees>-8.22406665422022342681884765625</LongitudeDegrees>
            </Position>
            <AltitudeMeters>395.20001220703125</AltitudeMeters>
            <DistanceMeters>67782.979216255</DistanceMeters>
          </Trackpoint>
          <Trackpoint>
            <Time>2019-07-26T14:10:25.000Z</Time>
            <Position>
              <LatitudeDegrees>42.92549706995487213134765625</LatitudeDegrees>
              <LongitudeDegrees>-8.22415315546095371246337890625</LongitudeDegrees>
            </Position>
            <AltitudeMeters>395.20001220703125</AltitudeMeters>
            <DistanceMeters>67792.02174589</DistanceMeters>
          </Trackpoint>
          <Trackpoint>
            <Time>2019-07-26T14:10:27.000Z</Time>
            <Position>
              <LatitudeDegrees>42.9254673980176448822021484375</LatitudeDegrees>
              <LongitudeDegrees>-8.22425038553774356842041015625</LongitudeDegrees>
            </Position>
            <AltitudeMeters>395.20001220703125</AltitudeMeters>
            <DistanceMeters>67800.606293278</DistanceMeters>
          </Trackpoint>
          <Trackpoint>
            <Time>2019-07-26T14:10:30.000Z</Time>
            <Position>
              <LatitudeDegrees>42.92540051043033599853515625</LatitudeDegrees>
              <LongitudeDegrees>-8.22438902221620082855224609375</LongitudeDegrees>
            </Position>
            <AltitudeMeters>395.399993896484375</AltitudeMeters>
            <DistanceMeters>67814.137176468</DistanceMeters>
          </Trackpoint>
          <Trackpoint>
            <Time>2019-07-26T14:10:32.000Z</Time>
            <Position>
              <LatitudeDegrees>42.9253383167088031768798828125</LatitudeDegrees>
              <LongitudeDegrees>-8.2245056144893169403076171875</LongitudeDegrees>
            </Position>
            <AltitudeMeters>395.399993896484375</AltitudeMeters>
            <DistanceMeters>67825.893252343</DistanceMeters>
          </Trackpoint>
          <Trackpoint>
            <Time>2019-07-26T14:10:38.000Z</Time>
            <Position>
              <LatitudeDegrees>42.9251649789512157440185546875</LatitudeDegrees>
              <LongitudeDegrees>-8.22493300773203372955322265625</LongitudeDegrees>
            </Position>
            <AltitudeMeters>395</AltitudeMeters>
            <DistanceMeters>67865.71182693</DistanceMeters>
          </Trackpoint>
          <Trackpoint>
            <Time>2019-07-26T14:10:44.000Z</Time>
            <Position>
              <LatitudeDegrees>42.92501335032284259796142578125</LatitudeDegrees>
              <LongitudeDegrees>-8.2253354229032993316650390625</LongitudeDegrees>
            </Position>
            <AltitudeMeters>394.399993896484375</AltitudeMeters>
            <DistanceMeters>67902.596271985</DistanceMeters>
          </Trackpoint>
          <Trackpoint>
            <Time>2019-07-26T14:10:50.000Z</Time>
            <Position>
              <LatitudeDegrees>42.9248749651014804840087890625</LatitudeDegrees>
              <LongitudeDegrees>-8.22574035264551639556884765625</LongitudeDegrees>
            </Position>
            <AltitudeMeters>393.79998779296875</AltitudeMeters>
            <DistanceMeters>67939.015686428</DistanceMeters>
          </Trackpoint>
          <Trackpoint>
            <Time>2019-07-26T14:10:51.000Z</Time>
            <Position>
              <LatitudeDegrees>42.9248468019068241119384765625</LatitudeDegrees>
              <LongitudeDegrees>-8.225818388164043426513671875</LongitudeDegrees>
            </Position>
            <AltitudeMeters>393.79998779296875</AltitudeMeters>
            <DistanceMeters>67946.105214303</DistanceMeters>
          </Trackpoint>
          <Trackpoint>
            <Time>2019-07-26T14:10:54.000Z</Time>
            <Position>
              <LatitudeDegrees>42.92472685687243938446044921875</LatitudeDegrees>
              <LongitudeDegrees>-8.2260713540017604827880859375</LongitudeDegrees>
            </Position>
            <AltitudeMeters>393.600006103515625</AltitudeMeters>
            <DistanceMeters>67970.66700062</DistanceMeters>
          </Trackpoint>
          <Trackpoint>
            <Time>2019-07-26T14:10:56.000Z</Time>
            <Position>
              <LatitudeDegrees>42.92464823462069034576416015625</LatitudeDegrees>
              <LongitudeDegrees>-8.226228766143321990966796875</LongitudeDegrees>
            </Position>
            <AltitudeMeters>393.399993896484375</AltitudeMeters>
            <DistanceMeters>67986.196819732</DistanceMeters>
          </Trackpoint>
          <Trackpoint>
            <Time>2019-07-26T14:10:57.000Z</Time>
            <Position>
              <LatitudeDegrees>42.92461068369448184967041015625</LatitudeDegrees>
              <LongitudeDegrees>-8.22629322297871112823486328125</LongitudeDegrees>
            </Position>
            <AltitudeMeters>393.20001220703125</AltitudeMeters>
            <DistanceMeters>67992.909500378</DistanceMeters>
          </Trackpoint>
          <Trackpoint>
            <Time>2019-07-26T14:11:00.000Z</Time>
            <Position>
              <LatitudeDegrees>42.92445679195225238800048828125</LatitudeDegrees>
              <LongitudeDegrees>-8.22650863789021968841552734375</LongitudeDegrees>
            </Position>
            <AltitudeMeters>393</AltitudeMeters>
            <DistanceMeters>68017.437439815</DistanceMeters>
          </Trackpoint>
          <Trackpoint>
            <Time>2019-07-26T14:11:02.000Z</Time>
            <Position>
              <LatitudeDegrees>42.92432704009115695953369140625</LatitudeDegrees>
              <LongitudeDegrees>-8.226664960384368896484375</LongitudeDegrees>
            </Position>
            <AltitudeMeters>392.600006103515625</AltitudeMeters>
            <DistanceMeters>68036.695536025</DistanceMeters>
          </Trackpoint>
          <Trackpoint>
            <Time>2019-07-26T14:11:05.000Z</Time>
            <Position>
              <LatitudeDegrees>42.92414532043039798736572265625</LatitudeDegrees>
              <LongitudeDegrees>-8.2268870808184146881103515625</LongitudeDegrees>
            </Position>
            <AltitudeMeters>392.20001220703125</AltitudeMeters>
            <DistanceMeters>68063.839597205</DistanceMeters>
          </Trackpoint>
          <Trackpoint>
            <Time>2019-07-26T14:11:07.000Z</Time>
            <Position>
              <LatitudeDegrees>42.92403417639434337615966796875</LatitudeDegrees>
              <LongitudeDegrees>-8.22705321013927459716796875</LongitudeDegrees>
            </Position>
            <AltitudeMeters>391.79998779296875</AltitudeMeters>
            <DistanceMeters>68082.179506894</DistanceMeters>
          </Trackpoint>
          <Trackpoint>
            <Time>2019-07-26T14:11:10.000Z</Time>
            <Position>
              <LatitudeDegrees>42.92388950474560260772705078125</LatitudeDegrees>
              <LongitudeDegrees>-8.227302990853786468505859375</LongitudeDegrees>
            </Position>
            <AltitudeMeters>391.399993896484375</AltitudeMeters>
            <DistanceMeters>68108.135545561</DistanceMeters>
          </Trackpoint>
          <Trackpoint>
            <Time>2019-07-26T14:11:16.000Z</Time>
            <Position>
              <LatitudeDegrees>42.92365749366581439971923828125</LatitudeDegrees>
              <LongitudeDegrees>-8.22774144820868968963623046875</LongitudeDegrees>
            </Position>
            <AltitudeMeters>390.79998779296875</AltitudeMeters>
            <DistanceMeters>68152.224561717</DistanceMeters>
          </Trackpoint>
          <Trackpoint>
            <Time>2019-07-26T14:11:21.000Z</Time>
            <Position>
              <LatitudeDegrees>42.92354366742074489593505859375</LatitudeDegrees>
              <LongitudeDegrees>-8.22803364135324954986572265625</LongitudeDegrees>
            </Position>
            <AltitudeMeters>390.79998779296875</AltitudeMeters>
            <DistanceMeters>68179.199095998</DistanceMeters>
          </Trackpoint>
          <Trackpoint>
            <Time>2019-07-26T14:11:26.000Z</Time>
            <Position>
              <LatitudeDegrees>42.92344660498201847076416015625</LatitudeDegrees>
              <LongitudeDegrees>-8.2282459549605846405029296875</LongitudeDegrees>
            </Position>
            <AltitudeMeters>391</AltitudeMeters>
            <DistanceMeters>68199.598655867</DistanceMeters>
          </Trackpoint>
          <Trackpoint>
            <Time>2019-07-26T14:11:27.000Z</Time>
            <Position>
              <LatitudeDegrees>42.92342280037701129913330078125</LatitudeDegrees>
              <LongitudeDegrees>-8.22828434407711029052734375</LongitudeDegrees>
            </Position>
            <AltitudeMeters>391</AltitudeMeters>
            <DistanceMeters>68203.699143928</DistanceMeters>
          </Trackpoint>
          <Trackpoint>
            <Time>2019-07-26T14:11:29.000Z</Time>
            <Position>
              <LatitudeDegrees>42.9233722575008869171142578125</LatitudeDegrees>
              <LongitudeDegrees>-8.22835919447243213653564453125</LongitudeDegrees>
            </Position>
            <AltitudeMeters>391.399993896484375</AltitudeMeters>
            <DistanceMeters>68211.997539132</DistanceMeters>
          </Trackpoint>
          <Trackpoint>
            <Time>2019-07-26T14:11:32.000Z</Time>
            <Position>
              <LatitudeDegrees>42.923313081264495849609375</LatitudeDegrees>
              <LongitudeDegrees>-8.2284568436443805694580078125</LongitudeDegrees>
            </Position>
            <AltitudeMeters>392</AltitudeMeters>
            <DistanceMeters>68222.327952649</DistanceMeters>
          </Trackpoint>
          <Trackpoint>
            <Time>2019-07-26T14:11:33.000Z</Time>
            <Position>
              <LatitudeDegrees>42.92328282259404659271240234375</LatitudeDegrees>
              <LongitudeDegrees>-8.22848928160965442657470703125</LongitudeDegrees>
            </Position>
            <AltitudeMeters>392.20001220703125</AltitudeMeters>
            <DistanceMeters>68226.609430802</DistanceMeters>
          </Trackpoint>
          <Trackpoint>
            <Time>2019-07-26T14:11:35.000Z</Time>
            <Position>
              <LatitudeDegrees>42.9232312738895416259765625</LatitudeDegrees>
              <LongitudeDegrees>-8.22854728437960147857666015625</LongitudeDegrees>
            </Position>
            <AltitudeMeters>393</AltitudeMeters>
            <DistanceMeters>68234.043411421</DistanceMeters>
          </Trackpoint>
          <Trackpoint>
            <Time>2019-07-26T14:11:37.000Z</Time>
            <Position>
              <LatitudeDegrees>42.9231803119182586669921875</LatitudeDegrees>
              <LongitudeDegrees>-8.228601850569248199462890625</LongitudeDegrees>
            </Position>
            <AltitudeMeters>394.20001220703125</AltitudeMeters>
            <DistanceMeters>68241.251048328</DistanceMeters>
          </Trackpoint>
          <Trackpoint>
            <Time>2019-07-26T14:11:39.000Z</Time>
            <Position>
              <LatitudeDegrees>42.92313672602176666259765625</LatitudeDegrees>
              <LongitudeDegrees>-8.22865985333919525146484375</LongitudeDegrees>
            </Position>
            <AltitudeMeters>395</AltitudeMeters>
            <DistanceMeters>68248.025326776</DistanceMeters>
          </Trackpoint>
          <Trackpoint>
            <Time>2019-07-26T14:11:40.000Z</Time>
            <Position>
              <LatitudeDegrees>42.9231174476444721221923828125</LatitudeDegrees>
              <LongitudeDegrees>-8.22868944145739078521728515625</LongitudeDegrees>
            </Position>
            <AltitudeMeters>395.20001220703125</AltitudeMeters>
            <DistanceMeters>68251.253438951</DistanceMeters>
          </Trackpoint>
          <Trackpoint>
            <Time>2019-07-26T14:11:45.000Z</Time>
            <Position>
              <LatitudeDegrees>42.92302600108087062835693359375</LatitudeDegrees>
              <LongitudeDegrees>-8.2288407348096370697021484375</LongitudeDegrees>
            </Position>
            <AltitudeMeters>396.79998779296875</AltitudeMeters>
            <DistanceMeters>68267.242230779</DistanceMeters>
          </Trackpoint>
          <Trackpoint>
            <Time>2019-07-26T14:11:49.000Z</Time>
            <Position>
              <LatitudeDegrees>42.9229389131069183349609375</LatitudeDegrees>
              <LongitudeDegrees>-8.2289674691855907440185546875</LongitudeDegrees>
            </Position>
            <AltitudeMeters>397.79998779296875</AltitudeMeters>
            <DistanceMeters>68281.407268675</DistanceMeters>
          </Trackpoint>
          <Trackpoint>
            <Time>2019-07-26T14:11:50.000Z</Time>
            <Position>
              <LatitudeDegrees>42.9229290224611759185791015625</LatitudeDegrees>
              <LongitudeDegrees>-8.228995464742183685302734375</LongitudeDegrees>
            </Position>
            <AltitudeMeters>398</AltitudeMeters>
            <DistanceMeters>68283.939333894</DistanceMeters>
          </Trackpoint>
          <Trackpoint>
            <Time>2019-07-26T14:11:54.000Z</Time>
            <Position>
              <LatitudeDegrees>42.92288132943212985992431640625</LatitudeDegrees>
              <LongitudeDegrees>-8.22909059934318065643310546875</LongitudeDegrees>
            </Position>
            <AltitudeMeters>398.79998779296875</AltitudeMeters>
            <DistanceMeters>68293.335933676</DistanceMeters>
          </Trackpoint>
          <Trackpoint>
            <Time>2019-07-26T14:11:56.000Z</Time>
            <Position>
              <LatitudeDegrees>42.92283891700208187103271484375</LatitudeDegrees>
              <LongitudeDegrees>-8.2291595824062824249267578125</LongitudeDegrees>
            </Position>
            <AltitudeMeters>399.20001220703125</AltitudeMeters>
            <DistanceMeters>68300.676401382</DistanceMeters>
          </Trackpoint>
          <Trackpoint>
            <Time>2019-07-26T14:12:00.000Z</Time>
            <Position>
              <LatitudeDegrees>42.92276029475033283233642578125</LatitudeDegrees>
              <LongitudeDegrees>-8.22934574447572231292724609375</LongitudeDegrees>
            </Position>
            <AltitudeMeters>399.79998779296875</AltitudeMeters>
            <DistanceMeters>68318.191760845</DistanceMeters>
          </Trackpoint>
          <Trackpoint>
            <Time>2019-07-26T14:12:01.000Z</Time>
            <Position>
              <LatitudeDegrees>42.922744788229465484619140625</LatitudeDegrees>
              <LongitudeDegrees>-8.22939477860927581787109375</LongitudeDegrees>
            </Position>
            <AltitudeMeters>400</AltitudeMeters>
            <DistanceMeters>68322.544357815</DistanceMeters>
          </Trackpoint>
          <Trackpoint>
            <Time>2019-07-26T14:12:02.000Z</Time>
            <Position>
              <LatitudeDegrees>42.92272592894732952117919921875</LatitudeDegrees>
              <LongitudeDegrees>-8.22945571504533290863037109375</LongitudeDegrees>
            </Position>
            <AltitudeMeters>400.20001220703125</AltitudeMeters>
            <DistanceMeters>68327.936652887</DistanceMeters>
          </Trackpoint>
          <Trackpoint>
            <Time>2019-07-26T14:12:06.000Z</Time>
            <Position>
              <LatitudeDegrees>42.92265149764716625213623046875</LatitudeDegrees>
              <LongitudeDegrees>-8.22964531369507312774658203125</LongitudeDegrees>
            </Position>
            <AltitudeMeters>401</AltitudeMeters>
            <DistanceMeters>68345.47004738</DistanceMeters>
          </Trackpoint>
          <Trackpoint>
            <Time>2019-07-26T14:12:08.000Z</Time>
            <Position>
              <LatitudeDegrees>42.922612689435482025146484375</LatitudeDegrees>
              <LongitudeDegrees>-8.22974908165633678436279296875</LongitudeDegrees>
            </Position>
            <AltitudeMeters>401.399993896484375</AltitudeMeters>
            <DistanceMeters>68354.967015503</DistanceMeters>
          </Trackpoint>
          <Trackpoint>
            <Time>2019-07-26T14:12:12.000Z</Time>
            <Position>
              <LatitudeDegrees>42.9225310496985912322998046875</LatitudeDegrees>
              <LongitudeDegrees>-8.22997011244297027587890625</LongitudeDegrees>
            </Position>
            <AltitudeMeters>402</AltitudeMeters>
            <DistanceMeters>68375.143807526</DistanceMeters>
          </Trackpoint>
          <Trackpoint>
            <Time>2019-07-26T14:12:16.000Z</Time>
            <Position>
              <LatitudeDegrees>42.9224519245326519012451171875</LatitudeDegrees>
              <LongitudeDegrees>-8.2301888801157474517822265625</LongitudeDegrees>
            </Position>
            <AltitudeMeters>403.20001220703125</AltitudeMeters>
            <DistanceMeters>68395.030517358</DistanceMeters>
          </Trackpoint>
          <Trackpoint>
            <Time>2019-07-26T14:12:22.000Z</Time>
            <Position>
              <LatitudeDegrees>42.92230901308357715606689453125</LatitudeDegrees>
              <LongitudeDegrees>-8.2305677421391010284423828125</LongitudeDegrees>
            </Position>
            <AltitudeMeters>403.600006103515625</AltitudeMeters>
            <DistanceMeters>68429.765348776</DistanceMeters>
          </Trackpoint>
          <Trackpoint>
            <Time>2019-07-26T14:12:25.000Z</Time>
            <Position>
              <LatitudeDegrees>42.9222289659082889556884765625</LatitudeDegrees>
              <LongitudeDegrees>-8.2308145053684711456298828125</LongitudeDegrees>
            </Position>
            <AltitudeMeters>403.600006103515625</AltitudeMeters>
            <DistanceMeters>68451.762750358</DistanceMeters>
          </Trackpoint>
          <Trackpoint>
            <Time>2019-07-26T14:12:27.000Z</Time>
            <Position>
              <LatitudeDegrees>42.92217909358441829681396484375</LatitudeDegrees>
              <LongitudeDegrees>-8.230995722115039825439453125</LongitudeDegrees>
            </Position>
            <AltitudeMeters>403.600006103515625</AltitudeMeters>
            <DistanceMeters>68467.541191585</DistanceMeters>
          </Trackpoint>
          <Trackpoint>
            <Time>2019-07-26T14:12:29.000Z</Time>
            <Position>
              <LatitudeDegrees>42.922125868499279022216796875</LatitudeDegrees>
              <LongitudeDegrees>-8.2311886735260486602783203125</LongitudeDegrees>
            </Position>
            <AltitudeMeters>403.600006103515625</AltitudeMeters>
            <DistanceMeters>68484.346149505</DistanceMeters>
          </Trackpoint>
          <Trackpoint>
            <Time>2019-07-26T14:12:31.000Z</Time>
            <Position>
              <LatitudeDegrees>42.92206878773868083953857421875</LatitudeDegrees>
              <LongitudeDegrees>-8.2313787750899791717529296875</LongitudeDegrees>
            </Position>
            <AltitudeMeters>403.20001220703125</AltitudeMeters>
            <DistanceMeters>68501.092434288</DistanceMeters>
          </Trackpoint>
          <Trackpoint>
            <Time>2019-07-26T14:12:32.000Z</Time>
            <Position>
              <LatitudeDegrees>42.9220361821353435516357421875</LatitudeDegrees>
              <LongitudeDegrees>-8.2314699701964855194091796875</LongitudeDegrees>
            </Position>
            <AltitudeMeters>403</AltitudeMeters>
            <DistanceMeters>68509.363580469</DistanceMeters>
          </Trackpoint>
          <Trackpoint>
            <Time>2019-07-26T14:12:33.000Z</Time>
            <Position>
              <LatitudeDegrees>42.92199988849461078643798828125</LatitudeDegrees>
              <LongitudeDegrees>-8.23155504651367664337158203125</LongitudeDegrees>
            </Position>
            <AltitudeMeters>402.79998779296875</AltitudeMeters>
            <DistanceMeters>68517.388697614</DistanceMeters>
          </Trackpoint>
          <Trackpoint>
            <Time>2019-07-26T14:12:34.000Z</Time>
            <Position>
              <LatitudeDegrees>42.92195898480713367462158203125</LatitudeDegrees>
              <LongitudeDegrees>-8.2316423021256923675537109375</LongitudeDegrees>
            </Position>
            <AltitudeMeters>402.600006103515625</AltitudeMeters>
            <DistanceMeters>68525.832718197</DistanceMeters>
          </Trackpoint>
          <Trackpoint>
            <Time>2019-07-26T14:12:36.000Z</Time>
            <Position>
              <LatitudeDegrees>42.92188019491732120513916015625</LatitudeDegrees>
              <LongitudeDegrees>-8.23183265514671802520751953125</LongitudeDegrees>
            </Position>
            <AltitudeMeters>401.79998779296875</AltitudeMeters>
            <DistanceMeters>68543.654217817</DistanceMeters>
          </Trackpoint>
          <Trackpoint>
            <Time>2019-07-26T14:12:37.000Z</Time>
            <Position>
              <LatitudeDegrees>42.921836860477924346923828125</LatitudeDegrees>
              <LongitudeDegrees>-8.23193256743252277374267578125</LongitudeDegrees>
            </Position>
            <AltitudeMeters>401.399993896484375</AltitudeMeters>
            <DistanceMeters>68553.118802241</DistanceMeters>
          </Trackpoint>
          <Trackpoint>
            <Time>2019-07-26T14:12:39.000Z</Time>
            <Position>
              <LatitudeDegrees>42.9217454977333545684814453125</LatitudeDegrees>
              <LongitudeDegrees>-8.23212836869060993194580078125</LongitudeDegrees>
            </Position>
            <AltitudeMeters>400.20001220703125</AltitudeMeters>
            <DistanceMeters>68572.042245677</DistanceMeters>
          </Trackpoint>
          <Trackpoint>
            <Time>2019-07-26T14:12:42.000Z</Time>
            <Position>
              <LatitudeDegrees>42.92162504978477954864501953125</LatitudeDegrees>
              <LongitudeDegrees>-8.23241720907390117645263671875</LongitudeDegrees>
            </Position>
            <AltitudeMeters>398.79998779296875</AltitudeMeters>
            <DistanceMeters>68599.133693648</DistanceMeters>
          </Trackpoint>
          <Trackpoint>
            <Time>2019-07-26T14:12:43.000Z</Time>
            <Position>
              <LatitudeDegrees>42.92158498428761959075927734375</LatitudeDegrees>
              <LongitudeDegrees>-8.23250505141913890838623046875</LongitudeDegrees>
            </Position>
            <AltitudeMeters>398.399993896484375</AltitudeMeters>
            <DistanceMeters>68607.569154654</DistanceMeters>
          </Trackpoint>
          <Trackpoint>
            <Time>2019-07-26T14:12:45.000Z</Time>
            <Position>
              <LatitudeDegrees>42.92150837369263172149658203125</LatitudeDegrees>
              <LongitudeDegrees>-8.232685513794422149658203125</LongitudeDegrees>
            </Position>
            <AltitudeMeters>397.600006103515625</AltitudeMeters>
            <DistanceMeters>68624.570705965</DistanceMeters>
          </Trackpoint>
          <Trackpoint>
            <Time>2019-07-26T14:12:49.000Z</Time>
            <Position>
              <LatitudeDegrees>42.9213505424559116363525390625</LatitudeDegrees>
              <LongitudeDegrees>-8.2330578379333019256591796875</LongitudeDegrees>
            </Position>
            <AltitudeMeters>396.600006103515625</AltitudeMeters>
            <DistanceMeters>68659.634662218</DistanceMeters>
          </Trackpoint>
          <Trackpoint>
            <Time>2019-07-26T14:12:50.000Z</Time>
            <Position>
              <LatitudeDegrees>42.92131290771067142486572265625</LatitudeDegrees>
              <LongitudeDegrees>-8.23314811103045940399169921875</LongitudeDegrees>
            </Position>
            <AltitudeMeters>396.399993896484375</AltitudeMeters>
            <DistanceMeters>68668.101110518</DistanceMeters>
          </Trackpoint>
          <Trackpoint>
            <Time>2019-07-26T14:12:55.000Z</Time>
            <Position>
              <LatitudeDegrees>42.92111023329198360443115234375</LatitudeDegrees>
              <LongitudeDegrees>-8.2335929386317729949951171875</LongitudeDegrees>
            </Position>
            <AltitudeMeters>396</AltitudeMeters>
            <DistanceMeters>68710.801848633</DistanceMeters>
          </Trackpoint>
          <Trackpoint>
            <Time>2019-07-26T14:12:57.000Z</Time>
            <Position>
              <LatitudeDegrees>42.92103680782020092010498046875</LatitudeDegrees>
              <LongitudeDegrees>-8.233759067952632904052734375</LongitudeDegrees>
            </Position>
            <AltitudeMeters>395.600006103515625</AltitudeMeters>
            <DistanceMeters>68726.617445919</DistanceMeters>
          </Trackpoint>
          <Trackpoint>
            <Time>2019-07-26T14:13:01.000Z</Time>
            <Position>
              <LatitudeDegrees>42.92092868126928806304931640625</LatitudeDegrees>
              <LongitudeDegrees>-8.234133236110210418701171875</LongitudeDegrees>
            </Position>
            <AltitudeMeters>394.79998779296875</AltitudeMeters>
            <DistanceMeters>68759.402901832</DistanceMeters>
          </Trackpoint>
          <Trackpoint>
            <Time>2019-07-26T14:13:03.000Z</Time>
            <Position>
              <LatitudeDegrees>42.920899093151092529296875</LatitudeDegrees>
              <LongitudeDegrees>-8.2343266904354095458984375</LongitudeDegrees>
            </Position>
            <AltitudeMeters>394.79998779296875</AltitudeMeters>
            <DistanceMeters>68775.510420461</DistanceMeters>
          </Trackpoint>
          <Trackpoint>
            <Time>2019-07-26T14:13:05.000Z</Time>
            <Position>
              <LatitudeDegrees>42.92087855748832225799560546875</LatitudeDegrees>
              <LongitudeDegrees>-8.23451754637062549591064453125</LongitudeDegrees>
            </Position>
            <AltitudeMeters>394.600006103515625</AltitudeMeters>
            <DistanceMeters>68791.233250128</DistanceMeters>
          </Trackpoint>
          <Trackpoint>
            <Time>2019-07-26T14:13:06.000Z</Time>
            <Position>
              <LatitudeDegrees>42.92085743509232997894287109375</LatitudeDegrees>
              <LongitudeDegrees>-8.2346083223819732666015625</LongitudeDegrees>
            </Position>
            <AltitudeMeters>394</AltitudeMeters>
            <DistanceMeters>68798.996415087</DistanceMeters>
          </Trackpoint>
          <Trackpoint>
            <Time>2019-07-26T14:13:08.000Z</Time>
            <Position>
              <LatitudeDegrees>42.92079943232238292694091796875</LatitudeDegrees>
              <LongitudeDegrees>-8.23477470315992832183837890625</LongitudeDegrees>
            </Position>
            <AltitudeMeters>393.600006103515625</AltitudeMeters>
            <DistanceMeters>68814.015747284</DistanceMeters>
          </Trackpoint>
          <Trackpoint>
            <Time>2019-07-26T14:13:09.000Z</Time>
            <Position>
              <LatitudeDegrees>42.92076774872839450836181640625</LatitudeDegrees>
              <LongitudeDegrees>-8.23485433124005794525146484375</LongitudeDegrees>
            </Position>
            <AltitudeMeters>393.399993896484375</AltitudeMeters>
            <DistanceMeters>68821.402813816</DistanceMeters>
          </Trackpoint>
          <Trackpoint>
            <Time>2019-07-26T14:13:11.000Z</Time>
            <Position>
              <LatitudeDegrees>42.9207014478743076324462890625</LatitudeDegrees>
              <LongitudeDegrees>-8.234998919069766998291015625</LongitudeDegrees>
            </Position>
            <AltitudeMeters>393.20001220703125</AltitudeMeters>
            <DistanceMeters>68835.307920677</DistanceMeters>
          </Trackpoint>
          <Trackpoint>
            <Time>2019-07-26T14:13:13.000Z</Time>
            <Position>
              <LatitudeDegrees>42.92063154280185699462890625</LatitudeDegrees>
              <LongitudeDegrees>-8.2351402379572391510009765625</LongitudeDegrees>
            </Position>
            <AltitudeMeters>393.20001220703125</AltitudeMeters>
            <DistanceMeters>68849.20783131</DistanceMeters>
          </Trackpoint>
          <Trackpoint>
            <Time>2019-07-26T14:13:16.000Z</Time>
            <Position>
              <LatitudeDegrees>42.9205512441694736480712890625</LatitudeDegrees>
              <LongitudeDegrees>-8.23535540141165256500244140625</LongitudeDegrees>
            </Position>
            <AltitudeMeters>393.20001220703125</AltitudeMeters>
            <DistanceMeters>68868.890981458</DistanceMeters>
          </Trackpoint>
          <Trackpoint>
            <Time>2019-07-26T14:13:17.000Z</Time>
            <Position>
              <LatitudeDegrees>42.92053825221955776214599609375</LatitudeDegrees>
              <LongitudeDegrees>-8.2354183495044708251953125</LongitudeDegrees>
            </Position>
            <AltitudeMeters>393.20001220703125</AltitudeMeters>
            <DistanceMeters>68874.221802274</DistanceMeters>
          </Trackpoint>
          <Trackpoint>
            <Time>2019-07-26T14:13:21.000Z</Time>
            <Position>
              <LatitudeDegrees>42.92049751617014408111572265625</LatitudeDegrees>
              <LongitudeDegrees>-8.23571280576288700103759765625</LongitudeDegrees>
            </Position>
            <AltitudeMeters>393.20001220703125</AltitudeMeters>
            <DistanceMeters>68898.646440863</DistanceMeters>
          </Trackpoint>
          <Trackpoint>
            <Time>2019-07-26T14:13:22.000Z</Time>
            <Position>
              <LatitudeDegrees>42.92049818672239780426025390625</LatitudeDegrees>
              <LongitudeDegrees>-8.23580752126872539520263671875</LongitudeDegrees>
            </Position>
            <AltitudeMeters>393.20001220703125</AltitudeMeters>
            <DistanceMeters>68906.366447633</DistanceMeters>
          </Trackpoint>
          <Trackpoint>
            <Time>2019-07-26T14:13:26.000Z</Time>
            <Position>
              <LatitudeDegrees>42.92048628441989421844482421875</LatitudeDegrees>
              <LongitudeDegrees>-8.23629518039524555206298828125</LongitudeDegrees>
            </Position>
            <AltitudeMeters>393.399993896484375</AltitudeMeters>
            <DistanceMeters>68946.135780403</DistanceMeters>
          </Trackpoint>
          <Trackpoint>
            <Time>2019-07-26T14:13:28.000Z</Time>
            <Position>
              <LatitudeDegrees>42.9204818420112133026123046875</LatitudeDegrees>
              <LongitudeDegrees>-8.2365530915558338165283203125</LongitudeDegrees>
            </Position>
            <AltitudeMeters>393.399993896484375</AltitudeMeters>
            <DistanceMeters>68967.163111737</DistanceMeters>
          </Trackpoint>
          <Trackpoint>
            <Time>2019-07-26T14:13:30.000Z</Time>
            <Position>
              <LatitudeDegrees>42.92047798633575439453125</LatitudeDegrees>
              <LongitudeDegrees>-8.2368048839271068572998046875</LongitudeDegrees>
            </Position>
            <AltitudeMeters>393.20001220703125</AltitudeMeters>
            <DistanceMeters>68987.690201814</DistanceMeters>
          </Trackpoint>
          <Trackpoint>
            <Time>2019-07-26T14:13:31.000Z</Time>
            <Position>
              <LatitudeDegrees>42.92046063579618930816650390625</LatitudeDegrees>
              <LongitudeDegrees>-8.23690923862159252166748046875</LongitudeDegrees>
            </Position>
            <AltitudeMeters>393</AltitudeMeters>
            <DistanceMeters>68996.41197709</DistanceMeters>
          </Trackpoint>
          <Trackpoint>
            <Time>2019-07-26T14:13:33.000Z</Time>
            <Position>
              <LatitudeDegrees>42.920385114848613739013671875</LatitudeDegrees>
              <LongitudeDegrees>-8.23708601295948028564453125</LongitudeDegrees>
            </Position>
            <AltitudeMeters>392.399993896484375</AltitudeMeters>
            <DistanceMeters>69013.092887603</DistanceMeters>
          </Trackpoint>
          <Trackpoint>
            <Time>2019-07-26T14:13:34.000Z</Time>
            <Position>
              <LatitudeDegrees>42.92033507488667964935302734375</LatitudeDegrees>
              <LongitudeDegrees>-8.23716337792575359344482421875</LongitudeDegrees>
            </Position>
            <AltitudeMeters>391.20001220703125</AltitudeMeters>
            <DistanceMeters>69021.505838284</DistanceMeters>
          </Trackpoint>
          <Trackpoint>
            <Time>2019-07-26T14:13:36.000Z</Time>
            <Position>
              <LatitudeDegrees>42.92017414234578609466552734375</LatitudeDegrees>
              <LongitudeDegrees>-8.2373227179050445556640625</LongitudeDegrees>
            </Position>
            <AltitudeMeters>390</AltitudeMeters>
            <DistanceMeters>69043.630947188</DistanceMeters>
          </Trackpoint>
          <Trackpoint>
            <Time>2019-07-26T14:13:37.000Z</Time>
            <Position>
              <LatitudeDegrees>42.92009107768535614013671875</LatitudeDegrees>
              <LongitudeDegrees>-8.23738348670303821563720703125</LongitudeDegrees>
            </Position>
            <AltitudeMeters>389.399993896484375</AltitudeMeters>
            <DistanceMeters>69054.119245012</DistanceMeters>
          </Trackpoint>
          <Trackpoint>
            <Time>2019-07-26T14:13:38.000Z</Time>
            <Position>
              <LatitudeDegrees>42.92000046931207180023193359375</LatitudeDegrees>
              <LongitudeDegrees>-8.2374362088739871978759765625</LongitudeDegrees>
            </Position>
            <AltitudeMeters>388.79998779296875</AltitudeMeters>
            <DistanceMeters>69065.081555777</DistanceMeters>
          </Trackpoint>
          <Trackpoint>
            <Time>2019-07-26T14:13:40.000Z</Time>
            <Position>
              <LatitudeDegrees>42.91987859643995761871337890625</LatitudeDegrees>
              <LongitudeDegrees>-8.23757375590503215789794921875</LongitudeDegrees>
            </Position>
            <AltitudeMeters>387.20001220703125</AltitudeMeters>
            <DistanceMeters>69082.679723345</DistanceMeters>
          </Trackpoint>
          <Trackpoint>
            <Time>2019-07-26T14:13:42.000Z</Time>
            <Position>
              <LatitudeDegrees>42.91979662142693996429443359375</LatitudeDegrees>
              <LongitudeDegrees>-8.23776134289801120758056640625</LongitudeDegrees>
            </Position>
            <AltitudeMeters>385.79998779296875</AltitudeMeters>
            <DistanceMeters>69100.48500132</DistanceMeters>
          </Trackpoint>
          <Trackpoint>
            <Time>2019-07-26T14:13:43.000Z</Time>
            <Position>
              <LatitudeDegrees>42.91975890286266803741455078125</LatitudeDegrees>
              <LongitudeDegrees>-8.23786117136478424072265625</LongitudeDegrees>
            </Position>
            <AltitudeMeters>385</AltitudeMeters>
            <DistanceMeters>69109.641159341</DistanceMeters>
          </Trackpoint>
          <Trackpoint>
            <Time>2019-07-26T14:13:44.000Z</Time>
            <Position>
              <LatitudeDegrees>42.91971716098487377166748046875</LatitudeDegrees>
              <LongitudeDegrees>-8.237973153591156005859375</LongitudeDegrees>
            </Position>
            <AltitudeMeters>384.20001220703125</AltitudeMeters>
            <DistanceMeters>69119.882905675</DistanceMeters>
          </Trackpoint>
          <Trackpoint>
            <Time>2019-07-26T14:13:46.000Z</Time>
            <Position>
              <LatitudeDegrees>42.91963518597185611724853515625</LatitudeDegrees>
              <LongitudeDegrees>-8.2382086850702762603759765625</LongitudeDegrees>
            </Position>
            <AltitudeMeters>382.399993896484375</AltitudeMeters>
            <DistanceMeters>69141.138323447</DistanceMeters>
          </Trackpoint>
          <Trackpoint>
            <Time>2019-07-26T14:13:48.000Z</Time>
            <Position>
              <LatitudeDegrees>42.9195504449307918548583984375</LatitudeDegrees>
              <LongitudeDegrees>-8.238434828817844390869140625</LongitudeDegrees>
            </Position>
            <AltitudeMeters>381.20001220703125</AltitudeMeters>
            <DistanceMeters>69161.84368288</DistanceMeters>
          </Trackpoint>
          <Trackpoint>
            <Time>2019-07-26T14:13:50.000Z</Time>
            <Position>
              <LatitudeDegrees>42.91945195756852626800537109375</LatitudeDegrees>
              <LongitudeDegrees>-8.2386653311550617218017578125</LongitudeDegrees>
            </Position>
            <AltitudeMeters>380.399993896484375</AltitudeMeters>
            <DistanceMeters>69183.595461781</DistanceMeters>
          </Trackpoint>
          <Trackpoint>
            <Time>2019-07-26T14:13:51.000Z</Time>
            <Position>
              <LatitudeDegrees>42.91940837167203426361083984375</LatitudeDegrees>
              <LongitudeDegrees>-8.2387722842395305633544921875</LongitudeDegrees>
            </Position>
            <AltitudeMeters>380.20001220703125</AltitudeMeters>
            <DistanceMeters>69193.571909173</DistanceMeters>
          </Trackpoint>
          <Trackpoint>
            <Time>2019-07-26T14:13:52.000Z</Time>
            <Position>
              <LatitudeDegrees>42.919364534318447113037109375</LatitudeDegrees>
              <LongitudeDegrees>-8.23887948878109455108642578125</LongitudeDegrees>
            </Position>
            <AltitudeMeters>380</AltitudeMeters>
            <DistanceMeters>69203.579986307</DistanceMeters>
          </Trackpoint>
          <Trackpoint>
            <Time>2019-07-26T14:13:55.000Z</Time>
            <Position>
              <LatitudeDegrees>42.919228076934814453125</LatitudeDegrees>
              <LongitudeDegrees>-8.23919632472097873687744140625</LongitudeDegrees>
            </Position>
            <AltitudeMeters>379.79998779296875</AltitudeMeters>
            <DistanceMeters>69233.539786015</DistanceMeters>
          </Trackpoint>
          <Trackpoint>
            <Time>2019-07-26T14:13:58.000Z</Time>
            <Position>
              <LatitudeDegrees>42.91909572668373584747314453125</LatitudeDegrees>
              <LongitudeDegrees>-8.239496648311614990234375</LongitudeDegrees>
            </Position>
            <AltitudeMeters>379.20001220703125</AltitudeMeters>
            <DistanceMeters>69262.109026809</DistanceMeters>
          </Trackpoint>
          <Trackpoint>
            <Time>2019-07-26T14:14:01.000Z</Time>
            <Position>
              <LatitudeDegrees>42.91891249828040599822998046875</LatitudeDegrees>
              <LongitudeDegrees>-8.23979160748422145843505859375</LongitudeDegrees>
            </Position>
            <AltitudeMeters>379.20001220703125</AltitudeMeters>
            <DistanceMeters>69293.635276092</DistanceMeters>
          </Trackpoint>
          <Trackpoint>
            <Time>2019-07-26T14:14:02.000Z</Time>
            <Position>
              <LatitudeDegrees>42.918839491903781890869140625</LatitudeDegrees>
              <LongitudeDegrees>-8.23988330550491809844970703125</LongitudeDegrees>
            </Position>
            <AltitudeMeters>379.20001220703125</AltitudeMeters>
            <DistanceMeters>69304.675564668</DistanceMeters>
          </Trackpoint>
          <Trackpoint>
            <Time>2019-07-26T14:14:03.000Z</Time>
            <Position>
              <LatitudeDegrees>42.9187595285475254058837890625</LatitudeDegrees>
              <LongitudeDegrees>-8.2399655319750308990478515625</LongitudeDegrees>
            </Position>
            <AltitudeMeters>378.79998779296875</AltitudeMeters>
            <DistanceMeters>69315.817624215</DistanceMeters>
          </Trackpoint>
          <Trackpoint>
            <Time>2019-07-26T14:14:05.000Z</Time>
            <Position>
              <LatitudeDegrees>42.91858526878058910369873046875</LatitudeDegrees>
              <LongitudeDegrees>-8.24013342149555683135986328125</LongitudeDegrees>
            </Position>
            <AltitudeMeters>378.20001220703125</AltitudeMeters>
            <DistanceMeters>69339.554909442</DistanceMeters>
          </Trackpoint>
          <Trackpoint>
            <Time>2019-07-26T14:14:06.000Z</Time>
            <Position>
              <LatitudeDegrees>42.9185291938483715057373046875</LatitudeDegrees>
              <LongitudeDegrees>-8.24020701460540294647216796875</LongitudeDegrees>
            </Position>
            <AltitudeMeters>377.79998779296875</AltitudeMeters>
            <DistanceMeters>69348.211212021</DistanceMeters>
          </Trackpoint>
          <Trackpoint>
            <Time>2019-07-26T14:14:08.000Z</Time>
            <Position>
              <LatitudeDegrees>42.9184309579432010650634765625</LatitudeDegrees>
              <LongitudeDegrees>-8.24029921554028987884521484375</LongitudeDegrees>
            </Position>
            <AltitudeMeters>376.20001220703125</AltitudeMeters>
            <DistanceMeters>69361.47824824</DistanceMeters>
          </Trackpoint>
          <Trackpoint>
            <Time>2019-07-26T14:14:09.000Z</Time>
            <Position>
              <LatitudeDegrees>42.91839583776891231536865234375</LatitudeDegrees>
              <LongitudeDegrees>-8.24031966738402843475341796875</LongitudeDegrees>
            </Position>
            <AltitudeMeters>375.79998779296875</AltitudeMeters>
            <DistanceMeters>69365.7279721</DistanceMeters>
          </Trackpoint>
          <Trackpoint>
            <Time>2019-07-26T14:14:10.000Z</Time>
            <Position>
              <LatitudeDegrees>42.9183605499565601348876953125</LatitudeDegrees>
              <LongitudeDegrees>-8.2403428852558135986328125</LongitudeDegrees>
            </Position>
            <AltitudeMeters>375.20001220703125</AltitudeMeters>
            <DistanceMeters>69370.088859738</DistanceMeters>
          </Trackpoint>
          <Trackpoint>
            <Time>2019-07-26T14:14:12.000Z</Time>
            <Position>
              <LatitudeDegrees>42.91827530600130558013916015625</LatitudeDegrees>
              <LongitudeDegrees>-8.2404178194701671600341796875</LongitudeDegrees>
            </Position>
            <AltitudeMeters>373.399993896484375</AltitudeMeters>
            <DistanceMeters>69381.372656877</DistanceMeters>
          </Trackpoint>
          <Trackpoint>
            <Time>2019-07-26T14:14:13.000Z</Time>
            <Position>
              <LatitudeDegrees>42.9182304628193378448486328125</LatitudeDegrees>
              <LongitudeDegrees>-8.24046886526048183441162109375</LongitudeDegrees>
            </Position>
            <AltitudeMeters>372.20001220703125</AltitudeMeters>
            <DistanceMeters>69387.870705619</DistanceMeters>
          </Trackpoint>
          <Trackpoint>
            <Time>2019-07-26T14:14:14.000Z</Time>
            <Position>
              <LatitudeDegrees>42.9181902296841144561767578125</LatitudeDegrees>
              <LongitudeDegrees>-8.240528963506221771240234375</LongitudeDegrees>
            </Position>
            <AltitudeMeters>370.399993896484375</AltitudeMeters>
            <DistanceMeters>69394.507626056</DistanceMeters>
          </Trackpoint>
          <Trackpoint>
            <Time>2019-07-26T14:14:15.000Z</Time>
            <Position>
              <LatitudeDegrees>42.918156869709491729736328125</LatitudeDegrees>
              <LongitudeDegrees>-8.24060247279703617095947265625</LongitudeDegrees>
            </Position>
            <AltitudeMeters>368.79998779296875</AltitudeMeters>
            <DistanceMeters>69401.556917557</DistanceMeters>
          </Trackpoint>
          <Trackpoint>
            <Time>2019-07-26T14:14:16.000Z</Time>
            <Position>
              <LatitudeDegrees>42.91812979616224765777587890625</LatitudeDegrees>
              <LongitudeDegrees>-8.2406816817820072174072265625</LongitudeDegrees>
            </Position>
            <AltitudeMeters>367.600006103515625</AltitudeMeters>
            <DistanceMeters>69408.682020347</DistanceMeters>
          </Trackpoint>
          <Trackpoint>
            <Time>2019-07-26T14:14:17.000Z</Time>
            <Position>
              <LatitudeDegrees>42.91810263879597187042236328125</LatitudeDegrees>
              <LongitudeDegrees>-8.24076709337532520294189453125</LongitudeDegrees>
            </Position>
            <AltitudeMeters>366.79998779296875</AltitudeMeters>
            <DistanceMeters>69416.272269863</DistanceMeters>
          </Trackpoint>
          <Trackpoint>
            <Time>2019-07-26T14:14:18.000Z</Time>
            <Position>
              <LatitudeDegrees>42.9180707037448883056640625</LatitudeDegrees>
              <LongitudeDegrees>-8.240859545767307281494140625</LongitudeDegrees>
            </Position>
            <AltitudeMeters>366.20001220703125</AltitudeMeters>
            <DistanceMeters>69424.604330095</DistanceMeters>
          </Trackpoint>
          <Trackpoint>
            <Time>2019-07-26T14:14:21.000Z</Time>
            <Position>
              <LatitudeDegrees>42.91796869598329067230224609375</LatitudeDegrees>
              <LongitudeDegrees>-8.24114662595093250274658203125</LongitudeDegrees>
            </Position>
            <AltitudeMeters>365</AltitudeMeters>
            <DistanceMeters>69450.613195633</DistanceMeters>
          </Trackpoint>
          <Trackpoint>
            <Time>2019-07-26T14:14:22.000Z</Time>
            <Position>
              <LatitudeDegrees>42.91792712174355983734130859375</LatitudeDegrees>
              <LongitudeDegrees>-8.24123614467680454254150390625</LongitudeDegrees>
            </Position>
            <AltitudeMeters>364.600006103515625</AltitudeMeters>
            <DistanceMeters>69459.253836352</DistanceMeters>
          </Trackpoint>
          <Trackpoint>
            <Time>2019-07-26T14:14:24.000Z</Time>
            <Position>
              <LatitudeDegrees>42.91782595217227935791015625</LatitudeDegrees>
              <LongitudeDegrees>-8.24144803918898105621337890625</LongitudeDegrees>
            </Position>
            <AltitudeMeters>364.20001220703125</AltitudeMeters>
            <DistanceMeters>69479.871786751</DistanceMeters>
          </Trackpoint>
          <Trackpoint>
            <Time>2019-07-26T14:14:25.000Z</Time>
            <Position>
              <LatitudeDegrees>42.91777021251618862152099609375</LatitudeDegrees>
              <LongitudeDegrees>-8.24154292233288288116455078125</LongitudeDegrees>
            </Position>
            <AltitudeMeters>364</AltitudeMeters>
            <DistanceMeters>69489.786493614</DistanceMeters>
          </Trackpoint>
          <Trackpoint>
            <Time>2019-07-26T14:14:26.000Z</Time>
            <Position>
              <LatitudeDegrees>42.91770734824240207672119140625</LatitudeDegrees>
              <LongitudeDegrees>-8.241621963679790496826171875</LongitudeDegrees>
            </Position>
            <AltitudeMeters>363.79998779296875</AltitudeMeters>
            <DistanceMeters>69499.29771361</DistanceMeters>
          </Trackpoint>
          <Trackpoint>
            <Time>2019-07-26T14:14:28.000Z</Time>
            <Position>
              <LatitudeDegrees>42.9176081903278827667236328125</LatitudeDegrees>
              <LongitudeDegrees>-8.241721205413341522216796875</LongitudeDegrees>
            </Position>
            <AltitudeMeters>362.79998779296875</AltitudeMeters>
            <DistanceMeters>69512.981230521</DistanceMeters>
          </Trackpoint>
          <Trackpoint>
            <Time>2019-07-26T14:14:29.000Z</Time>
            <Position>
              <LatitudeDegrees>42.91758530773222446441650390625</LatitudeDegrees>
              <LongitudeDegrees>-8.24175096116960048675537109375</LongitudeDegrees>
            </Position>
            <AltitudeMeters>362.20001220703125</AltitudeMeters>
            <DistanceMeters>69516.499786305</DistanceMeters>
          </Trackpoint>
          <Trackpoint>
            <Time>2019-07-26T14:14:30.000Z</Time>
            <Position>
              <LatitudeDegrees>42.9175746627151966094970703125</LatitudeDegrees>
              <LongitudeDegrees>-8.241769485175609588623046875</LongitudeDegrees>
            </Position>
            <AltitudeMeters>361</AltitudeMeters>
            <DistanceMeters>69518.42158267</DistanceMeters>
          </Trackpoint>
          <Trackpoint>
            <Time>2019-07-26T14:14:31.000Z</Time>
            <Position>
              <LatitudeDegrees>42.917570136487483978271484375</LatitudeDegrees>
              <LongitudeDegrees>-8.2417797110974788665771484375</LongitudeDegrees>
            </Position>
            <AltitudeMeters>360.79998779296875</AltitudeMeters>
            <DistanceMeters>69519.395316733</DistanceMeters>
          </Trackpoint>
          <Trackpoint>
            <Time>2019-07-26T14:14:32.000Z</Time>
            <Position>
              <LatitudeDegrees>42.91756711900234222412109375</LatitudeDegrees>
              <LongitudeDegrees>-8.24179085902869701385498046875</LongitudeDegrees>
            </Position>
            <AltitudeMeters>360.399993896484375</AltitudeMeters>
            <DistanceMeters>69520.364402875</DistanceMeters>
          </Trackpoint>
          <Trackpoint>
            <Time>2019-07-26T14:14:33.000Z</Time>
            <Position>
              <LatitudeDegrees>42.917562425136566162109375</LatitudeDegrees>
              <LongitudeDegrees>-8.24179773218929767608642578125</LongitudeDegrees>
            </Position>
            <AltitudeMeters>360</AltitudeMeters>
            <DistanceMeters>69521.130532739</DistanceMeters>
          </Trackpoint>
          <Trackpoint>
            <Time>2019-07-26T14:14:35.000Z</Time>
            <Position>
              <LatitudeDegrees>42.9175448231399059295654296875</LatitudeDegrees>
              <LongitudeDegrees>-8.2417941279709339141845703125</LongitudeDegrees>
            </Position>
            <AltitudeMeters>359.20001220703125</AltitudeMeters>
            <DistanceMeters>69523.114748788</DistanceMeters>
          </Trackpoint>
          <Trackpoint>
            <Time>2019-07-26T14:14:36.000Z</Time>
            <Position>
              <LatitudeDegrees>42.91753401048481464385986328125</LatitudeDegrees>
              <LongitudeDegrees>-8.24177987873554229736328125</LongitudeDegrees>
            </Position>
            <AltitudeMeters>358.600006103515625</AltitudeMeters>
            <DistanceMeters>69524.787866745</DistanceMeters>
          </Trackpoint>
          <Trackpoint>
            <Time>2019-07-26T14:14:37.000Z</Time>
            <Position>
              <LatitudeDegrees>42.9175297357141971588134765625</LatitudeDegrees>
              <LongitudeDegrees>-8.24176403693854808807373046875</LongitudeDegrees>
            </Position>
            <AltitudeMeters>357.79998779296875</AltitudeMeters>
            <DistanceMeters>69526.15836151</DistanceMeters>
          </Trackpoint>
          <Trackpoint>
            <Time>2019-07-26T14:14:38.000Z</Time>
            <Position>
              <LatitudeDegrees>42.91753350757062435150146484375</LatitudeDegrees>
              <LongitudeDegrees>-8.24175364337861537933349609375</LongitudeDegrees>
            </Position>
            <AltitudeMeters>357.399993896484375</AltitudeMeters>
            <DistanceMeters>69527.099077988</DistanceMeters>
          </Trackpoint>
          <Trackpoint>
            <Time>2019-07-26T14:14:40.000Z</Time>
            <Position>
              <LatitudeDegrees>42.9175610840320587158203125</LatitudeDegrees>
              <LongitudeDegrees>-8.2417290844023227691650390625</LongitudeDegrees>
            </Position>
            <AltitudeMeters>356.79998779296875</AltitudeMeters>
            <DistanceMeters>69530.764695773</DistanceMeters>
          </Trackpoint>
          <Trackpoint>
            <Time>2019-07-26T14:14:41.000Z</Time>
            <Position>
              <LatitudeDegrees>42.91757927276194095611572265625</LatitudeDegrees>
              <LongitudeDegrees>-8.24171978048980236053466796875</LongitudeDegrees>
            </Position>
            <AltitudeMeters>356.79998779296875</AltitudeMeters>
            <DistanceMeters>69532.92746705</DistanceMeters>
          </Trackpoint>
          <Trackpoint>
            <Time>2019-07-26T14:14:45.000Z</Time>
            <Position>
              <LatitudeDegrees>42.917703576385974884033203125</LatitudeDegrees>
              <LongitudeDegrees>-8.2417572475969791412353515625</LongitudeDegrees>
            </Position>
            <AltitudeMeters>356.79998779296875</AltitudeMeters>
            <DistanceMeters>69547.09569204</DistanceMeters>
          </Trackpoint>
          <Trackpoint>
            <Time>2019-07-26T14:14:48.000Z</Time>
            <Position>
              <LatitudeDegrees>42.91781111620366573333740234375</LatitudeDegrees>
              <LongitudeDegrees>-8.241924382746219635009765625</LongitudeDegrees>
            </Position>
            <AltitudeMeters>356.600006103515625</AltitudeMeters>
            <DistanceMeters>69565.22986679</DistanceMeters>
          </Trackpoint>
          <Trackpoint>
            <Time>2019-07-26T14:14:49.000Z</Time>
            <Position>
              <LatitudeDegrees>42.91784070432186126708984375</LatitudeDegrees>
              <LongitudeDegrees>-8.24198900721967220306396484375</LongitudeDegrees>
            </Position>
            <AltitudeMeters>356.600006103515625</AltitudeMeters>
            <DistanceMeters>69571.442317733</DistanceMeters>
          </Trackpoint>
          <Trackpoint>
            <Time>2019-07-26T14:14:54.000Z</Time>
            <Position>
              <LatitudeDegrees>42.917961739003658294677734375</LatitudeDegrees>
              <LongitudeDegrees>-8.2423701323568820953369140625</LongitudeDegrees>
            </Position>
            <AltitudeMeters>356.399993896484375</AltitudeMeters>
            <DistanceMeters>69605.302777652</DistanceMeters>
          </Trackpoint>
          <Trackpoint>
            <Time>2019-07-26T14:14:55.000Z</Time>
            <Position>
              <LatitudeDegrees>42.91799359023571014404296875</LatitudeDegrees>
              <LongitudeDegrees>-8.24244313873350620269775390625</LongitudeDegrees>
            </Position>
            <AltitudeMeters>356</AltitudeMeters>
            <DistanceMeters>69612.228654208</DistanceMeters>
          </Trackpoint>
          <Trackpoint>
            <Time>2019-07-26T14:14:58.000Z</Time>
            <Position>
              <LatitudeDegrees>42.91808403097093105316162109375</LatitudeDegrees>
              <LongitudeDegrees>-8.24264933355152606964111328125</LongitudeDegrees>
            </Position>
            <AltitudeMeters>355</AltitudeMeters>
            <DistanceMeters>69631.81937418</DistanceMeters>
          </Trackpoint>
          <Trackpoint>
            <Time>2019-07-26T14:14:59.000Z</Time>
            <Position>
              <LatitudeDegrees>42.91810934431850910186767578125</LatitudeDegrees>
              <LongitudeDegrees>-8.2427211664617061614990234375</LongitudeDegrees>
            </Position>
            <AltitudeMeters>354.600006103515625</AltitudeMeters>
            <DistanceMeters>69638.316728055</DistanceMeters>
          </Trackpoint>
          <Trackpoint>
            <Time>2019-07-26T14:15:02.000Z</Time>
            <Position>
              <LatitudeDegrees>42.9181902296841144561767578125</LatitudeDegrees>
              <LongitudeDegrees>-8.242954351007938385009765625</LongitudeDegrees>
            </Position>
            <AltitudeMeters>353.79998779296875</AltitudeMeters>
            <DistanceMeters>69659.347924036</DistanceMeters>
          </Trackpoint>
          <Trackpoint>
            <Time>2019-07-26T14:15:03.000Z</Time>
            <Position>
              <LatitudeDegrees>42.91823104955255985260009765625</LatitudeDegrees>
              <LongitudeDegrees>-8.24303054250776767730712890625</LongitudeDegrees>
            </Position>
            <AltitudeMeters>353.399993896484375</AltitudeMeters>
            <DistanceMeters>69667.042154417</DistanceMeters>
          </Trackpoint>
          <Trackpoint>
            <Time>2019-07-26T14:15:05.000Z</Time>
            <Position>
              <LatitudeDegrees>42.91827580891549587249755859375</LatitudeDegrees>
              <LongitudeDegrees>-8.24318409897387027740478515625</LongitudeDegrees>
            </Position>
            <AltitudeMeters>352.79998779296875</AltitudeMeters>
            <DistanceMeters>69680.513175768</DistanceMeters>
          </Trackpoint>
          <Trackpoint>
            <Time>2019-07-26T14:15:06.000Z</Time>
            <Position>
              <LatitudeDegrees>42.9182770662009716033935546875</LatitudeDegrees>
              <LongitudeDegrees>-8.2432391680777072906494140625</LongitudeDegrees>
            </Position>
            <AltitudeMeters>352.399993896484375</AltitudeMeters>
            <DistanceMeters>69685.003627939</DistanceMeters>
          </Trackpoint>
          <Trackpoint>
            <Time>2019-07-26T14:15:07.000Z</Time>
            <Position>
              <LatitudeDegrees>42.91827111504971981048583984375</LatitudeDegrees>
              <LongitudeDegrees>-8.24327764101326465606689453125</LongitudeDegrees>
            </Position>
            <AltitudeMeters>352</AltitudeMeters>
            <DistanceMeters>69688.209283409</DistanceMeters>
          </Trackpoint>
          <Trackpoint>
            <Time>2019-07-26T14:15:09.000Z</Time>
            <Position>
              <LatitudeDegrees>42.91823859326541423797607421875</LatitudeDegrees>
              <LongitudeDegrees>-8.24333530850708484649658203125</LongitudeDegrees>
            </Position>
            <AltitudeMeters>350.79998779296875</AltitudeMeters>
            <DistanceMeters>69694.142177979</DistanceMeters>
          </Trackpoint>
          <Trackpoint>
            <Time>2019-07-26T14:15:10.000Z</Time>
            <Position>
              <LatitudeDegrees>42.91821755468845367431640625</LatitudeDegrees>
              <LongitudeDegrees>-8.24336011894047260284423828125</LongitudeDegrees>
            </Position>
            <AltitudeMeters>350.399993896484375</AltitudeMeters>
            <DistanceMeters>69697.236023649</DistanceMeters>
          </Trackpoint>
          <Trackpoint>
            <Time>2019-07-26T14:15:12.000Z</Time>
            <Position>
              <LatitudeDegrees>42.91819048114120960235595703125</LatitudeDegrees>
              <LongitudeDegrees>-8.24339364655315876007080078125</LongitudeDegrees>
            </Position>
            <AltitudeMeters>349.600006103515625</AltitudeMeters>
            <DistanceMeters>69701.305564188</DistanceMeters>
          </Trackpoint>
          <Trackpoint>
            <Time>2019-07-26T14:15:14.000Z</Time>
            <Position>
              <LatitudeDegrees>42.9181860387325286865234375</LatitudeDegrees>
              <LongitudeDegrees>-8.24340437538921833038330078125</LongitudeDegrees>
            </Position>
            <AltitudeMeters>348</AltitudeMeters>
            <DistanceMeters>69702.311232404</DistanceMeters>
          </Trackpoint>
          <Trackpoint>
            <Time>2019-07-26T14:16:45.000Z</Time>
            <Position>
              <LatitudeDegrees>42.91803005151450634002685546875</LatitudeDegrees>
              <LongitudeDegrees>-8.24356212280690670013427734375</LongitudeDegrees>
            </Position>
            <AltitudeMeters>345.20001220703125</AltitudeMeters>
            <DistanceMeters>69723.915760201</DistanceMeters>
          </Trackpoint>
          <Trackpoint>
            <Time>2019-07-26T14:16:46.000Z</Time>
            <Position>
              <LatitudeDegrees>42.91801236569881439208984375</LatitudeDegrees>
              <LongitudeDegrees>-8.24356757104396820068359375</LongitudeDegrees>
            </Position>
            <AltitudeMeters>345.20001220703125</AltitudeMeters>
            <DistanceMeters>69725.936055861</DistanceMeters>
          </Trackpoint>
          <Trackpoint>
            <Time>2019-07-26T14:16:47.000Z</Time>
            <Position>
              <LatitudeDegrees>42.91798889636993408203125</LatitudeDegrees>
              <LongitudeDegrees>-8.243590705096721649169921875</LongitudeDegrees>
            </Position>
            <AltitudeMeters>345.20001220703125</AltitudeMeters>
            <DistanceMeters>69729.158568531</DistanceMeters>
          </Trackpoint>
          <Trackpoint>
            <Time>2019-07-26T14:16:49.000Z</Time>
            <Position>
              <LatitudeDegrees>42.9179149679839611053466796875</LatitudeDegrees>
              <LongitudeDegrees>-8.24367159046232700347900390625</LongitudeDegrees>
            </Position>
            <AltitudeMeters>345.20001220703125</AltitudeMeters>
            <DistanceMeters>69739.701824244</DistanceMeters>
          </Trackpoint>
          <Trackpoint>
            <Time>2019-07-26T14:16:50.000Z</Time>
            <Position>
              <LatitudeDegrees>42.9178623296320438385009765625</LatitudeDegrees>
              <LongitudeDegrees>-8.24371132068336009979248046875</LongitudeDegrees>
            </Position>
            <AltitudeMeters>345.20001220703125</AltitudeMeters>
            <DistanceMeters>69746.395645224</DistanceMeters>
          </Trackpoint>
          <Trackpoint>
            <Time>2019-07-26T14:16:52.000Z</Time>
            <Position>
              <LatitudeDegrees>42.91777021251618862152099609375</LatitudeDegrees>
              <LongitudeDegrees>-8.2437474466860294342041015625</LongitudeDegrees>
            </Position>
            <AltitudeMeters>345.20001220703125</AltitudeMeters>
            <DistanceMeters>69757.062790731</DistanceMeters>
          </Trackpoint>
          <Trackpoint>
            <Time>2019-07-26T14:16:53.000Z</Time>
            <Position>
              <LatitudeDegrees>42.9177379421889781951904296875</LatitudeDegrees>
              <LongitudeDegrees>-8.2437694072723388671875</LongitudeDegrees>
            </Position>
            <AltitudeMeters>345.20001220703125</AltitudeMeters>
            <DistanceMeters>69761.076474373</DistanceMeters>
          </Trackpoint>
          <Trackpoint>
            <Time>2019-07-26T14:16:54.000Z</Time>
            <Position>
              <LatitudeDegrees>42.9177144728600978851318359375</LatitudeDegrees>
              <LongitudeDegrees>-8.2437994144856929779052734375</LongitudeDegrees>
            </Position>
            <AltitudeMeters>345.20001220703125</AltitudeMeters>
            <DistanceMeters>69764.654832711</DistanceMeters>
          </Trackpoint>
          <Trackpoint>
            <Time>2019-07-26T14:16:57.000Z</Time>
            <Position>
              <LatitudeDegrees>42.91769854724407196044921875</LatitudeDegrees>
              <LongitudeDegrees>-8.24393059127032756805419921875</LongitudeDegrees>
            </Position>
            <AltitudeMeters>344.79998779296875</AltitudeMeters>
            <DistanceMeters>69775.492878401</DistanceMeters>
          </Trackpoint>
          <Trackpoint>
            <Time>2019-07-26T14:16:58.000Z</Time>
            <Position>
              <LatitudeDegrees>42.9176983796060085296630859375</LatitudeDegrees>
              <LongitudeDegrees>-8.244001083076000213623046875</LongitudeDegrees>
            </Position>
            <AltitudeMeters>344.79998779296875</AltitudeMeters>
            <DistanceMeters>69781.238655936</DistanceMeters>
          </Trackpoint>
          <Trackpoint>
            <Time>2019-07-26T14:17:00.000Z</Time>
            <Position>
              <LatitudeDegrees>42.9176883213222026824951171875</LatitudeDegrees>
              <LongitudeDegrees>-8.24412890709936618804931640625</LongitudeDegrees>
            </Position>
            <AltitudeMeters>344</AltitudeMeters>
            <DistanceMeters>69791.717478845</DistanceMeters>
          </Trackpoint>
          <Trackpoint>
            <Time>2019-07-26T14:17:02.000Z</Time>
            <Position>
              <LatitudeDegrees>42.91765923611819744110107421875</LatitudeDegrees>
              <LongitudeDegrees>-8.244233764708042144775390625</LongitudeDegrees>
            </Position>
            <AltitudeMeters>343.399993896484375</AltitudeMeters>
            <DistanceMeters>69800.857349587</DistanceMeters>
          </Trackpoint>
          <Trackpoint>
            <Time>2019-07-26T14:17:05.000Z</Time>
            <Position>
              <LatitudeDegrees>42.917627803981304168701171875</LatitudeDegrees>
              <LongitudeDegrees>-8.24439528398215770721435546875</LongitudeDegrees>
            </Position>
            <AltitudeMeters>343.20001220703125</AltitudeMeters>
            <DistanceMeters>69814.479686792</DistanceMeters>
          </Trackpoint>
          <Trackpoint>
            <Time>2019-07-26T14:17:07.000Z</Time>
            <Position>
              <LatitudeDegrees>42.9176254570484161376953125</LatitudeDegrees>
              <LongitudeDegrees>-8.244503326714038848876953125</LongitudeDegrees>
            </Position>
            <AltitudeMeters>343</AltitudeMeters>
            <DistanceMeters>69823.290052114</DistanceMeters>
          </Trackpoint>
          <Trackpoint>
            <Time>2019-07-26T14:17:08.000Z</Time>
            <Position>
              <LatitudeDegrees>42.91762151755392551422119140625</LatitudeDegrees>
              <LongitudeDegrees>-8.2445507682859897613525390625</LongitudeDegrees>
            </Position>
            <AltitudeMeters>343</AltitudeMeters>
            <DistanceMeters>69827.182669264</DistanceMeters>
          </Trackpoint>
          <Trackpoint>
            <Time>2019-07-26T14:17:12.000Z</Time>
            <Position>
              <LatitudeDegrees>42.9175575636327266693115234375</LatitudeDegrees>
              <LongitudeDegrees>-8.24471614323556423187255859375</LongitudeDegrees>
            </Position>
            <AltitudeMeters>343</AltitudeMeters>
            <DistanceMeters>69842.426091683</DistanceMeters>
          </Trackpoint>
          <Trackpoint>
            <Time>2019-07-26T14:17:16.000Z</Time>
            <Position>
              <LatitudeDegrees>42.91755144484341144561767578125</LatitudeDegrees>
              <LongitudeDegrees>-8.2449054904282093048095703125</LongitudeDegrees>
            </Position>
            <AltitudeMeters>343.20001220703125</AltitudeMeters>
            <DistanceMeters>69857.874875468</DistanceMeters>
          </Trackpoint>
          <Trackpoint>
            <Time>2019-07-26T14:17:21.000Z</Time>
            <Position>
              <LatitudeDegrees>42.917573489248752593994140625</LatitudeDegrees>
              <LongitudeDegrees>-8.24504119344055652618408203125</LongitudeDegrees>
            </Position>
            <AltitudeMeters>343.399993896484375</AltitudeMeters>
            <DistanceMeters>69869.204993151</DistanceMeters>
          </Trackpoint>
          <Trackpoint>
            <Time>2019-07-26T14:17:24.000Z</Time>
            <Position>
              <LatitudeDegrees>42.91756175458431243896484375</LatitudeDegrees>
              <LongitudeDegrees>-8.24505795724689960479736328125</LongitudeDegrees>
            </Position>
            <AltitudeMeters>344</AltitudeMeters>
            <DistanceMeters>69871.096000891</DistanceMeters>
          </Trackpoint>
          <Trackpoint>
            <Time>2019-07-26T14:17:25.000Z</Time>
            <Position>
              <LatitudeDegrees>42.91755764745175838470458984375</LatitudeDegrees>
              <LongitudeDegrees>-8.24504203163087368011474609375</LongitudeDegrees>
            </Position>
            <AltitudeMeters>344</AltitudeMeters>
            <DistanceMeters>69872.47306881</DistanceMeters>
          </Trackpoint>
          <Trackpoint>
            <Time>2019-07-26T14:17:29.000Z</Time>
            <Position>
              <LatitudeDegrees>42.91752244345843791961669921875</LatitudeDegrees>
              <LongitudeDegrees>-8.244888894259929656982421875</LongitudeDegrees>
            </Position>
            <AltitudeMeters>344.399993896484375</AltitudeMeters>
            <DistanceMeters>69885.555731724</DistanceMeters>
          </Trackpoint>
          <Trackpoint>
            <Time>2019-07-26T14:17:33.000Z</Time>
            <Position>
              <LatitudeDegrees>42.91754968464374542236328125</LatitudeDegrees>
              <LongitudeDegrees>-8.2446583919227123260498046875</LongitudeDegrees>
            </Position>
            <AltitudeMeters>344.399993896484375</AltitudeMeters>
            <DistanceMeters>69904.587189003</DistanceMeters>
          </Trackpoint>
          <Trackpoint>
            <Time>2019-07-26T14:17:34.000Z</Time>
            <Position>
              <LatitudeDegrees>42.9175770096480846405029296875</LatitudeDegrees>
              <LongitudeDegrees>-8.24460265226662158966064453125</LongitudeDegrees>
            </Position>
            <AltitudeMeters>344.399993896484375</AltitudeMeters>
            <DistanceMeters>69910.054322898</DistanceMeters>
          </Trackpoint>
          <Trackpoint>
            <Time>2019-07-26T14:17:37.000Z</Time>
            <Position>
              <LatitudeDegrees>42.91763274930417537689208984375</LatitudeDegrees>
              <LongitudeDegrees>-8.2445108704268932342529296875</LongitudeDegrees>
            </Position>
            <AltitudeMeters>344.399993896484375</AltitudeMeters>
            <DistanceMeters>69919.773098521</DistanceMeters>
          </Trackpoint>
          <Trackpoint>
            <Time>2019-07-26T14:17:39.000Z</Time>
            <Position>
              <LatitudeDegrees>42.91765236295759677886962890625</LatitudeDegrees>
              <LongitudeDegrees>-8.2444840483367443084716796875</LongitudeDegrees>
            </Position>
            <AltitudeMeters>344.20001220703125</AltitudeMeters>
            <DistanceMeters>69922.861101229</DistanceMeters>
          </Trackpoint>
          <Trackpoint>
            <Time>2019-07-26T14:17:41.000Z</Time>
            <Position>
              <LatitudeDegrees>42.91766476817429065704345703125</LatitudeDegrees>
              <LongitudeDegrees>-8.24450500309467315673828125</LongitudeDegrees>
            </Position>
            <AltitudeMeters>343.79998779296875</AltitudeMeters>
            <DistanceMeters>69925.057020358</DistanceMeters>
          </Trackpoint>
          <Trackpoint>
            <Time>2019-07-26T14:17:42.000Z</Time>
            <Position>
              <LatitudeDegrees>42.91765521280467510223388671875</LatitudeDegrees>
              <LongitudeDegrees>-8.24451581574976444244384765625</LongitudeDegrees>
            </Position>
            <AltitudeMeters>343.600006103515625</AltitudeMeters>
            <DistanceMeters>69926.440630204</DistanceMeters>
          </Trackpoint>
          <Trackpoint>
            <Time>2019-07-26T14:17:45.000Z</Time>
            <Position>
              <LatitudeDegrees>42.91761380620300769805908203125</LatitudeDegrees>
              <LongitudeDegrees>-8.24455864727497100830078125</LongitudeDegrees>
            </Position>
            <AltitudeMeters>343.20001220703125</AltitudeMeters>
            <DistanceMeters>69932.222441598</DistanceMeters>
          </Trackpoint>
          <Trackpoint>
            <Time>2019-07-26T14:17:49.000Z</Time>
            <Position>
              <LatitudeDegrees>42.91764163412153720855712890625</LatitudeDegrees>
              <LongitudeDegrees>-8.24464037083089351654052734375</LongitudeDegrees>
            </Position>
            <AltitudeMeters>343.20001220703125</AltitudeMeters>
            <DistanceMeters>69939.569057615</DistanceMeters>
          </Trackpoint>
          <Trackpoint>
            <Time>2019-07-26T14:17:51.000Z</Time>
            <Position>
              <LatitudeDegrees>42.91768991388380527496337890625</LatitudeDegrees>
              <LongitudeDegrees>-8.2446570508182048797607421875</LongitudeDegrees>
            </Position>
            <AltitudeMeters>343</AltitudeMeters>
            <DistanceMeters>69945.113278049</DistanceMeters>
          </Trackpoint>
          <Trackpoint>
            <Time>2019-07-26T14:17:52.000Z</Time>
            <Position>
              <LatitudeDegrees>42.917712628841400146484375</LatitudeDegrees>
              <LongitudeDegrees>-8.244661577045917510986328125</LongitudeDegrees>
            </Position>
            <AltitudeMeters>343</AltitudeMeters>
            <DistanceMeters>69947.666651346</DistanceMeters>
          </Trackpoint>
          <Trackpoint>
            <Time>2019-07-26T14:17:54.000Z</Time>
            <Position>
              <LatitudeDegrees>42.91777423582971096038818359375</LatitudeDegrees>
              <LongitudeDegrees>-8.24467943049967288970947265625</LongitudeDegrees>
            </Position>
            <AltitudeMeters>343</AltitudeMeters>
            <DistanceMeters>69954.675475488</DistanceMeters>
          </Trackpoint>
          <Trackpoint>
            <Time>2019-07-26T14:17:58.000Z</Time>
            <Position>
              <LatitudeDegrees>42.917825616896152496337890625</LatitudeDegrees>
              <LongitudeDegrees>-8.24482276104390621185302734375</LongitudeDegrees>
            </Position>
            <AltitudeMeters>343</AltitudeMeters>
            <DistanceMeters>69967.682685498</DistanceMeters>
          </Trackpoint>
          <Trackpoint>
            <Time>2019-07-26T14:18:01.000Z</Time>
            <Position>
              <LatitudeDegrees>42.917836010456085205078125</LatitudeDegrees>
              <LongitudeDegrees>-8.24495485983788967132568359375</LongitudeDegrees>
            </Position>
            <AltitudeMeters>343.20001220703125</AltitudeMeters>
            <DistanceMeters>69978.512396152</DistanceMeters>
          </Trackpoint>
          <Trackpoint>
            <Time>2019-07-26T14:18:02.000Z</Time>
            <Position>
              <LatitudeDegrees>42.9178398661315441131591796875</LatitudeDegrees>
              <LongitudeDegrees>-8.24499861337244510650634765625</LongitudeDegrees>
            </Position>
            <AltitudeMeters>343.20001220703125</AltitudeMeters>
            <DistanceMeters>69982.103349948</DistanceMeters>
          </Trackpoint>
          <Trackpoint>
            <Time>2019-07-26T14:18:04.000Z</Time>
            <Position>
              <LatitudeDegrees>42.9178361780941486358642578125</LatitudeDegrees>
              <LongitudeDegrees>-8.24508276768028736114501953125</LongitudeDegrees>
            </Position>
            <AltitudeMeters>343.600006103515625</AltitudeMeters>
            <DistanceMeters>69988.975562096</DistanceMeters>
          </Trackpoint>
          <Trackpoint>
            <Time>2019-07-26T14:18:05.000Z</Time>
            <Position>
              <LatitudeDegrees>42.91782821528613567352294921875</LatitudeDegrees>
              <LongitudeDegrees>-8.24512459337711334228515625</LongitudeDegrees>
            </Position>
            <AltitudeMeters>343.600006103515625</AltitudeMeters>
            <DistanceMeters>69992.49668336</DistanceMeters>
          </Trackpoint>
          <Trackpoint>
            <Time>2019-07-26T14:18:07.000Z</Time>
            <Position>
              <LatitudeDegrees>42.91781765408813953399658203125</LatitudeDegrees>
              <LongitudeDegrees>-8.245208747684955596923828125</LongitudeDegrees>
            </Position>
            <AltitudeMeters>344</AltitudeMeters>
            <DistanceMeters>69999.455727832</DistanceMeters>
          </Trackpoint>
          <Trackpoint>
            <Time>2019-07-26T14:18:08.000Z</Time>
            <Position>
              <LatitudeDegrees>42.91781723499298095703125</LatitudeDegrees>
              <LongitudeDegrees>-8.24524554423987865447998046875</LongitudeDegrees>
            </Position>
            <AltitudeMeters>344</AltitudeMeters>
            <DistanceMeters>70002.454720353</DistanceMeters>
          </Trackpoint>
          <Trackpoint>
            <Time>2019-07-26T14:18:10.000Z</Time>
            <Position>
              <LatitudeDegrees>42.9178231023252010345458984375</LatitudeDegrees>
              <LongitudeDegrees>-8.24532098136842250823974609375</LongitudeDegrees>
            </Position>
            <AltitudeMeters>344.79998779296875</AltitudeMeters>
            <DistanceMeters>70008.63803206</DistanceMeters>
          </Trackpoint>
          <Trackpoint>
            <Time>2019-07-26T14:18:12.000Z</Time>
            <Position>
              <LatitudeDegrees>42.91782000102102756500244140625</LatitudeDegrees>
              <LongitudeDegrees>-8.24541100300848484039306640625</LongitudeDegrees>
            </Position>
            <AltitudeMeters>345.20001220703125</AltitudeMeters>
            <DistanceMeters>70015.984033477</DistanceMeters>
          </Trackpoint>
          <Trackpoint>
            <Time>2019-07-26T14:18:16.000Z</Time>
            <Position>
              <LatitudeDegrees>42.9177956096827983856201171875</LatitudeDegrees>
              <LongitudeDegrees>-8.24559540487825870513916015625</LongitudeDegrees>
            </Position>
            <AltitudeMeters>346</AltitudeMeters>
            <DistanceMeters>70031.257637991</DistanceMeters>
          </Trackpoint>
          <Trackpoint>
            <Time>2019-07-26T14:18:17.000Z</Time>
            <Position>
              <LatitudeDegrees>42.9177902452647686004638671875</LatitudeDegrees>
              <LongitudeDegrees>-8.245639912784099578857421875</LongitudeDegrees>
            </Position>
            <AltitudeMeters>346.20001220703125</AltitudeMeters>
            <DistanceMeters>70034.934324603</DistanceMeters>
          </Trackpoint>
          <Trackpoint>
            <Time>2019-07-26T14:18:18.000Z</Time>
            <Position>
              <LatitudeDegrees>42.9177890717983245849609375</LatitudeDegrees>
              <LongitudeDegrees>-8.24568375013768672943115234375</LongitudeDegrees>
            </Position>
            <AltitudeMeters>346.20001220703125</AltitudeMeters>
            <DistanceMeters>70038.510158526</DistanceMeters>
          </Trackpoint>
          <Trackpoint>
            <Time>2019-07-26T14:18:22.000Z</Time>
            <Position>
              <LatitudeDegrees>42.917818240821361541748046875</LatitudeDegrees>
              <LongitudeDegrees>-8.24583747424185276031494140625</LongitudeDegrees>
            </Position>
            <AltitudeMeters>347</AltitudeMeters>
            <DistanceMeters>70051.453690048</DistanceMeters>
          </Trackpoint>
          <Trackpoint>
            <Time>2019-07-26T14:18:23.000Z</Time>
            <Position>
              <LatitudeDegrees>42.917830646038055419921875</LatitudeDegrees>
              <LongitudeDegrees>-8.24587485752999782562255859375</LongitudeDegrees>
            </Position>
            <AltitudeMeters>347.399993896484375</AltitudeMeters>
            <DistanceMeters>70054.798576401</DistanceMeters>
          </Trackpoint>
          <Trackpoint>
            <Time>2019-07-26T14:18:30.000Z</Time>
            <Position>
              <LatitudeDegrees>42.91792385280132293701171875</LatitudeDegrees>
              <LongitudeDegrees>-8.2461587525904178619384765625</LongitudeDegrees>
            </Position>
            <AltitudeMeters>348</AltitudeMeters>
            <DistanceMeters>70080.15789331</DistanceMeters>
          </Trackpoint>
          <Trackpoint>
            <Time>2019-07-26T14:18:37.000Z</Time>
            <Position>
              <LatitudeDegrees>42.9179994575679302215576171875</LatitudeDegrees>
              <LongitudeDegrees>-8.24647282250225543975830078125</LongitudeDegrees>
            </Position>
            <AltitudeMeters>348.20001220703125</AltitudeMeters>
            <DistanceMeters>70107.105298145</DistanceMeters>
          </Trackpoint>
          <Trackpoint>
            <Time>2019-07-26T14:18:40.000Z</Time>
            <Position>
              <LatitudeDegrees>42.91802099905908107757568359375</LatitudeDegrees>
              <LongitudeDegrees>-8.24661581777036190032958984375</LongitudeDegrees>
            </Position>
            <AltitudeMeters>348.600006103515625</AltitudeMeters>
            <DistanceMeters>70119.004524953</DistanceMeters>
          </Trackpoint>
          <Trackpoint>
            <Time>2019-07-26T14:18:44.000Z</Time>
            <Position>
              <LatitudeDegrees>42.9180631600320339202880859375</LatitudeDegrees>
              <LongitudeDegrees>-8.2468122057616710662841796875</LongitudeDegrees>
            </Position>
            <AltitudeMeters>349.399993896484375</AltitudeMeters>
            <DistanceMeters>70135.685435466</DistanceMeters>
          </Trackpoint>
          <Trackpoint>
            <Time>2019-07-26T14:18:45.000Z</Time>
            <Position>
              <LatitudeDegrees>42.91807615198194980621337890625</LatitudeDegrees>
              <LongitudeDegrees>-8.246855624020099639892578125</LongitudeDegrees>
            </Position>
            <AltitudeMeters>349.600006103515625</AltitudeMeters>
            <DistanceMeters>70139.507825253</DistanceMeters>
          </Trackpoint>
          <Trackpoint>
            <Time>2019-07-26T14:18:50.000Z</Time>
            <Position>
              <LatitudeDegrees>42.91812895797193050384521484375</LatitudeDegrees>
              <LongitudeDegrees>-8.24705578386783599853515625</LongitudeDegrees>
            </Position>
            <AltitudeMeters>350.399993896484375</AltitudeMeters>
            <DistanceMeters>70156.849094115</DistanceMeters>
          </Trackpoint>
          <Trackpoint>
            <Time>2019-07-26T14:18:55.000Z</Time>
            <Position>
              <LatitudeDegrees>42.91817866265773773193359375</LatitudeDegrees>
              <LongitudeDegrees>-8.24727647937834262847900390625</LongitudeDegrees>
            </Position>
            <AltitudeMeters>350.79998779296875</AltitudeMeters>
            <DistanceMeters>70175.669182278</DistanceMeters>
          </Trackpoint>
          <Trackpoint>
            <Time>2019-07-26T14:18:58.000Z</Time>
            <Position>
              <LatitudeDegrees>42.91820590384304523468017578125</LatitudeDegrees>
              <LongitudeDegrees>-8.24739969335496425628662109375</LongitudeDegrees>
            </Position>
            <AltitudeMeters>351</AltitudeMeters>
            <DistanceMeters>70186.160062684</DistanceMeters>
          </Trackpoint>
          <Trackpoint>
            <Time>2019-07-26T14:19:04.000Z</Time>
            <Position>
              <LatitudeDegrees>42.9182207398116588592529296875</LatitudeDegrees>
              <LongitudeDegrees>-8.2476514019072055816650390625</LongitudeDegrees>
            </Position>
            <AltitudeMeters>351.79998779296875</AltitudeMeters>
            <DistanceMeters>70206.742945535</DistanceMeters>
          </Trackpoint>
          <Trackpoint>
            <Time>2019-07-26T14:19:05.000Z</Time>
            <Position>
              <LatitudeDegrees>42.91822048835456371307373046875</LatitudeDegrees>
              <LongitudeDegrees>-8.2476973347365856170654296875</LongitudeDegrees>
            </Position>
            <AltitudeMeters>351.79998779296875</AltitudeMeters>
            <DistanceMeters>70210.486563923</DistanceMeters>
          </Trackpoint>
          <Trackpoint>
            <Time>2019-07-26T14:19:10.000Z</Time>
            <Position>
              <LatitudeDegrees>42.91823456995189189910888671875</LatitudeDegrees>
              <LongitudeDegrees>-8.24791149236261844635009765625</LongitudeDegrees>
            </Position>
            <AltitudeMeters>353</AltitudeMeters>
            <DistanceMeters>70228.012489013</DistanceMeters>
          </Trackpoint>
          <Trackpoint>
            <Time>2019-07-26T14:19:12.000Z</Time>
            <Position>
              <LatitudeDegrees>42.9182435385882854461669921875</LatitudeDegrees>
              <LongitudeDegrees>-8.24799480848014354705810546875</LongitudeDegrees>
            </Position>
            <AltitudeMeters>353.399993896484375</AltitudeMeters>
            <DistanceMeters>70234.876812642</DistanceMeters>
          </Trackpoint>
          <Trackpoint>
            <Time>2019-07-26T14:19:15.000Z</Time>
            <Position>
              <LatitudeDegrees>42.91826725937426090240478515625</LatitudeDegrees>
              <LongitudeDegrees>-8.2481378875672817230224609375</LongitudeDegrees>
            </Position>
            <AltitudeMeters>354.20001220703125</AltitudeMeters>
            <DistanceMeters>70246.833952782</DistanceMeters>
          </Trackpoint>
          <Trackpoint>
            <Time>2019-07-26T14:19:20.000Z</Time>
            <Position>
              <LatitudeDegrees>42.9183317162096500396728515625</LatitudeDegrees>
              <LongitudeDegrees>-8.248387835919857025146484375</LongitudeDegrees>
            </Position>
            <AltitudeMeters>355.20001220703125</AltitudeMeters>
            <DistanceMeters>70268.433464339</DistanceMeters>
          </Trackpoint>
          <Trackpoint>
            <Time>2019-07-26T14:19:21.000Z</Time>
            <Position>
              <LatitudeDegrees>42.91834403760731220245361328125</LatitudeDegrees>
              <LongitudeDegrees>-8.24843980371952056884765625</LongitudeDegrees>
            </Position>
            <AltitudeMeters>355.399993896484375</AltitudeMeters>
            <DistanceMeters>70272.886558529</DistanceMeters>
          </Trackpoint>
          <Trackpoint>
            <Time>2019-07-26T14:19:29.000Z</Time>
            <Position>
              <LatitudeDegrees>42.91841310448944568634033203125</LatitudeDegrees>
              <LongitudeDegrees>-8.24881221167743206024169921875</LongitudeDegrees>
            </Position>
            <AltitudeMeters>355.79998779296875</AltitudeMeters>
            <DistanceMeters>70304.199266817</DistanceMeters>
          </Trackpoint>
          <Trackpoint>
            <Time>2019-07-26T14:19:32.000Z</Time>
            <Position>
              <LatitudeDegrees>42.91844151914119720458984375</LatitudeDegrees>
              <LongitudeDegrees>-8.24893861077725887298583984375</LongitudeDegrees>
            </Position>
            <AltitudeMeters>356.399993896484375</AltitudeMeters>
            <DistanceMeters>70314.976318511</DistanceMeters>
          </Trackpoint>
          <Trackpoint>
            <Time>2019-07-26T14:19:36.000Z</Time>
            <Position>
              <LatitudeDegrees>42.91847177781164646148681640625</LatitudeDegrees>
              <LongitudeDegrees>-8.2491091825067996978759765625</LongitudeDegrees>
            </Position>
            <AltitudeMeters>357</AltitudeMeters>
            <DistanceMeters>70329.281232432</DistanceMeters>
          </Trackpoint>
          <Trackpoint>
            <Time>2019-07-26T14:19:39.000Z</Time>
            <Position>
              <LatitudeDegrees>42.9184891283512115478515625</LatitudeDegrees>
              <LongitudeDegrees>-8.24921789579093456268310546875</LongitudeDegrees>
            </Position>
            <AltitudeMeters>357.399993896484375</AltitudeMeters>
            <DistanceMeters>70338.350186961</DistanceMeters>
          </Trackpoint>
          <Trackpoint>
            <Time>2019-07-26T14:19:42.000Z</Time>
            <Position>
              <LatitudeDegrees>42.91851217858493328094482421875</LatitudeDegrees>
              <LongitudeDegrees>-8.24932602234184741973876953125</LongitudeDegrees>
            </Position>
            <AltitudeMeters>358.20001220703125</AltitudeMeters>
            <DistanceMeters>70347.529000241</DistanceMeters>
          </Trackpoint>
          <Trackpoint>
            <Time>2019-07-26T14:19:43.000Z</Time>
            <Position>
              <LatitudeDegrees>42.918520979583263397216796875</LatitudeDegrees>
              <LongitudeDegrees>-8.249365501105785369873046875</LongitudeDegrees>
            </Position>
            <AltitudeMeters>358.399993896484375</AltitudeMeters>
            <DistanceMeters>70350.894073177</DistanceMeters>
          </Trackpoint>
          <Trackpoint>
            <Time>2019-07-26T14:19:47.000Z</Time>
            <Position>
              <LatitudeDegrees>42.91855274699628353118896484375</LatitudeDegrees>
              <LongitudeDegrees>-8.249520398676395416259765625</LongitudeDegrees>
            </Position>
            <AltitudeMeters>359.600006103515625</AltitudeMeters>
            <DistanceMeters>70364.005693799</DistanceMeters>
          </Trackpoint>
          <Trackpoint>
            <Time>2019-07-26T14:19:49.000Z</Time>
            <Position>
              <LatitudeDegrees>42.9185650683939456939697265625</LatitudeDegrees>
              <LongitudeDegrees>-8.249601535499095916748046875</LongitudeDegrees>
            </Position>
            <AltitudeMeters>359.79998779296875</AltitudeMeters>
            <DistanceMeters>70370.759947732</DistanceMeters>
          </Trackpoint>
          <Trackpoint>
            <Time>2019-07-26T14:19:55.000Z</Time>
            <Position>
              <LatitudeDegrees>42.91862332262098789215087890625</LatitudeDegrees>
              <LongitudeDegrees>-8.24987319298088550567626953125</LongitudeDegrees>
            </Position>
            <AltitudeMeters>360.600006103515625</AltitudeMeters>
            <DistanceMeters>70393.83207391</DistanceMeters>
          </Trackpoint>
          <Trackpoint>
            <Time>2019-07-26T14:19:57.000Z</Time>
            <Position>
              <LatitudeDegrees>42.9186411760747432708740234375</LatitudeDegrees>
              <LongitudeDegrees>-8.24996975250542163848876953125</LongitudeDegrees>
            </Position>
            <AltitudeMeters>361</AltitudeMeters>
            <DistanceMeters>70401.949491468</DistanceMeters>
          </Trackpoint>
          <Trackpoint>
            <Time>2019-07-26T14:20:02.000Z</Time>
            <Position>
              <LatitudeDegrees>42.91868291795253753662109375</LatitudeDegrees>
              <LongitudeDegrees>-8.2502067089080810546875</LongitudeDegrees>
            </Position>
            <AltitudeMeters>362</AltitudeMeters>
            <DistanceMeters>70421.814393698</DistanceMeters>
          </Trackpoint>
          <Trackpoint>
            <Time>2019-07-26T14:20:04.000Z</Time>
            <Position>
              <LatitudeDegrees>42.91869389824569225311279296875</LatitudeDegrees>
              <LongitudeDegrees>-8.2502970658242702484130859375</LongitudeDegrees>
            </Position>
            <AltitudeMeters>362.20001220703125</AltitudeMeters>
            <DistanceMeters>70429.279889784</DistanceMeters>
          </Trackpoint>
          <Trackpoint>
            <Time>2019-07-26T14:20:11.000Z</Time>
            <Position>
              <LatitudeDegrees>42.91872038505971431732177734375</LatitudeDegrees>
              <LongitudeDegrees>-8.25059236027300357818603515625</LongitudeDegrees>
            </Position>
            <AltitudeMeters>363</AltitudeMeters>
            <DistanceMeters>70453.529024158</DistanceMeters>
          </Trackpoint>
          <Trackpoint>
            <Time>2019-07-26T14:20:17.000Z</Time>
            <Position>
              <LatitudeDegrees>42.9187412559986114501953125</LatitudeDegrees>
              <LongitudeDegrees>-8.2508115470409393310546875</LongitudeDegrees>
            </Position>
            <AltitudeMeters>363.79998779296875</AltitudeMeters>
            <DistanceMeters>70471.545297296</DistanceMeters>
          </Trackpoint>
          <Trackpoint>
            <Time>2019-07-26T14:20:18.000Z</Time>
            <Position>
              <LatitudeDegrees>42.91874871589243412017822265625</LatitudeDegrees>
              <LongitudeDegrees>-8.2508462481200695037841796875</LongitudeDegrees>
            </Position>
            <AltitudeMeters>363.79998779296875</AltitudeMeters>
            <DistanceMeters>70474.492657732</DistanceMeters>
          </Trackpoint>
          <Trackpoint>
            <Time>2019-07-26T14:20:20.000Z</Time>
            <Position>
              <LatitudeDegrees>42.91877184994518756866455078125</LatitudeDegrees>
              <LongitudeDegrees>-8.2509173266589641571044921875</LongitudeDegrees>
            </Position>
            <AltitudeMeters>364.20001220703125</AltitudeMeters>
            <DistanceMeters>70480.832442448</DistanceMeters>
          </Trackpoint>
          <Trackpoint>
            <Time>2019-07-26T14:20:25.000Z</Time>
            <Position>
              <LatitudeDegrees>42.9188296012580394744873046875</LatitudeDegrees>
              <LongitudeDegrees>-8.25106493197381496429443359375</LongitudeDegrees>
            </Position>
            <AltitudeMeters>365</AltitudeMeters>
            <DistanceMeters>70494.472665872</DistanceMeters>
          </Trackpoint>
          <Trackpoint>
            <Time>2019-07-26T14:20:26.000Z</Time>
            <Position>
              <LatitudeDegrees>42.91883924044668674468994140625</LatitudeDegrees>
              <LongitudeDegrees>-8.25110935606062412261962890625</LongitudeDegrees>
            </Position>
            <AltitudeMeters>365.399993896484375</AltitudeMeters>
            <DistanceMeters>70498.249903061</DistanceMeters>
          </Trackpoint>
          <Trackpoint>
            <Time>2019-07-26T14:20:30.000Z</Time>
            <Position>
              <LatitudeDegrees>42.918887771666049957275390625</LatitudeDegrees>
              <LongitudeDegrees>-8.2512717135250568389892578125</LongitudeDegrees>
            </Position>
            <AltitudeMeters>366.399993896484375</AltitudeMeters>
            <DistanceMeters>70512.543765717</DistanceMeters>
          </Trackpoint>
          <Trackpoint>
            <Time>2019-07-26T14:20:32.000Z</Time>
            <Position>
              <LatitudeDegrees>42.91892423294484615325927734375</LatitudeDegrees>
              <LongitudeDegrees>-8.2513479888439178466796875</LongitudeDegrees>
            </Position>
            <AltitudeMeters>367</AltitudeMeters>
            <DistanceMeters>70519.968022354</DistanceMeters>
          </Trackpoint>
          <Trackpoint>
            <Time>2019-07-26T14:20:34.000Z</Time>
            <Position>
              <LatitudeDegrees>42.91896647773683071136474609375</LatitudeDegrees>
              <LongitudeDegrees>-8.25142786838114261627197265625</LongitudeDegrees>
            </Position>
            <AltitudeMeters>367.600006103515625</AltitudeMeters>
            <DistanceMeters>70527.999888022</DistanceMeters>
          </Trackpoint>
          <Trackpoint>
            <Time>2019-07-26T14:20:38.000Z</Time>
            <Position>
              <LatitudeDegrees>42.919029258191585540771484375</LatitudeDegrees>
              <LongitudeDegrees>-8.25159651227295398712158203125</LongitudeDegrees>
            </Position>
            <AltitudeMeters>368.79998779296875</AltitudeMeters>
            <DistanceMeters>70543.41941826</DistanceMeters>
          </Trackpoint>
          <Trackpoint>
            <Time>2019-07-26T14:20:44.000Z</Time>
            <Position>
              <LatitudeDegrees>42.91917501948773860931396484375</LatitudeDegrees>
              <LongitudeDegrees>-8.25174705125391483306884765625</LongitudeDegrees>
            </Position>
            <AltitudeMeters>369.79998779296875</AltitudeMeters>
            <DistanceMeters>70563.760463038</DistanceMeters>
          </Trackpoint>
          <Trackpoint>
            <Time>2019-07-26T14:20:45.000Z</Time>
            <Position>
              <LatitudeDegrees>42.91919597424566745758056640625</LatitudeDegrees>
              <LongitudeDegrees>-8.25177655555307865142822265625</LongitudeDegrees>
            </Position>
            <AltitudeMeters>370</AltitudeMeters>
            <DistanceMeters>70567.109396442</DistanceMeters>
          </Trackpoint>
          <Trackpoint>
            <Time>2019-07-26T14:20:50.000Z</Time>
            <Position>
              <LatitudeDegrees>42.9193207807838916778564453125</LatitudeDegrees>
              <LongitudeDegrees>-8.2519251666963100433349609375</LongitudeDegrees>
            </Position>
            <AltitudeMeters>371.20001220703125</AltitudeMeters>
            <DistanceMeters>70585.540170047</DistanceMeters>
          </Trackpoint>
          <Trackpoint>
            <Time>2019-07-26T14:20:51.000Z</Time>
            <Position>
              <LatitudeDegrees>42.91933947242796421051025390625</LatitudeDegrees>
              <LongitudeDegrees>-8.25196179561316967010498046875</LongitudeDegrees>
            </Position>
            <AltitudeMeters>371.399993896484375</AltitudeMeters>
            <DistanceMeters>70589.178588944</DistanceMeters>
          </Trackpoint>
          <Trackpoint>
            <Time>2019-07-26T14:20:57.000Z</Time>
            <Position>
              <LatitudeDegrees>42.9194233752787113189697265625</LatitudeDegrees>
              <LongitudeDegrees>-8.25217637233436107635498046875</LongitudeDegrees>
            </Position>
            <AltitudeMeters>372</AltitudeMeters>
            <DistanceMeters>70609.005270152</DistanceMeters>
          </Trackpoint>
          <Trackpoint>
            <Time>2019-07-26T14:20:59.000Z</Time>
            <Position>
              <LatitudeDegrees>42.919460423290729522705078125</LatitudeDegrees>
              <LongitudeDegrees>-8.25224158354103565216064453125</LongitudeDegrees>
            </Position>
            <AltitudeMeters>372.20001220703125</AltitudeMeters>
            <DistanceMeters>70615.732732017</DistanceMeters>
          </Trackpoint>
          <Trackpoint>
            <Time>2019-07-26T14:21:04.000Z</Time>
            <Position>
              <LatitudeDegrees>42.91953912936151027679443359375</LatitudeDegrees>
              <LongitudeDegrees>-8.25238441117107868194580078125</LongitudeDegrees>
            </Position>
            <AltitudeMeters>373</AltitudeMeters>
            <DistanceMeters>70630.302220922</DistanceMeters>
          </Trackpoint>
          <Trackpoint>
            <Time>2019-07-26T14:21:06.000Z</Time>
            <Position>
              <LatitudeDegrees>42.9195678792893886566162109375</LatitudeDegrees>
              <LongitudeDegrees>-8.25244761072099208831787109375</LongitudeDegrees>
            </Position>
            <AltitudeMeters>373.399993896484375</AltitudeMeters>
            <DistanceMeters>70636.367575935</DistanceMeters>
          </Trackpoint>
          <Trackpoint>
            <Time>2019-07-26T14:21:12.000Z</Time>
            <Position>
              <LatitudeDegrees>42.919654548168182373046875</LatitudeDegrees>
              <LongitudeDegrees>-8.25263209640979766845703125</LongitudeDegrees>
            </Position>
            <AltitudeMeters>374.20001220703125</AltitudeMeters>
            <DistanceMeters>70654.232850966</DistanceMeters>
          </Trackpoint>
          <Trackpoint>
            <Time>2019-07-26T14:21:14.000Z</Time>
            <Position>
              <LatitudeDegrees>42.9196895845234394073486328125</LatitudeDegrees>
              <LongitudeDegrees>-8.2526899315416812896728515625</LongitudeDegrees>
            </Position>
            <AltitudeMeters>374.399993896484375</AltitudeMeters>
            <DistanceMeters>70660.350091911</DistanceMeters>
          </Trackpoint>
          <Trackpoint>
            <Time>2019-07-26T14:21:18.000Z</Time>
            <Position>
              <LatitudeDegrees>42.91979041881859302520751953125</LatitudeDegrees>
              <LongitudeDegrees>-8.25279428623616695404052734375</LongitudeDegrees>
            </Position>
            <AltitudeMeters>375.20001220703125</AltitudeMeters>
            <DistanceMeters>70674.432012189</DistanceMeters>
          </Trackpoint>
          <Trackpoint>
            <Time>2019-07-26T14:21:20.000Z</Time>
            <Position>
              <LatitudeDegrees>42.919842302799224853515625</LatitudeDegrees>
              <LongitudeDegrees>-8.252836279571056365966796875</LongitudeDegrees>
            </Position>
            <AltitudeMeters>375.600006103515625</AltitudeMeters>
            <DistanceMeters>70681.144692835</DistanceMeters>
          </Trackpoint>
          <Trackpoint>
            <Time>2019-07-26T14:21:24.000Z</Time>
            <Position>
              <LatitudeDegrees>42.91994900442659854888916015625</LatitudeDegrees>
              <LongitudeDegrees>-8.25291079469025135040283203125</LongitudeDegrees>
            </Position>
            <AltitudeMeters>376.600006103515625</AltitudeMeters>
            <DistanceMeters>70694.483681786</DistanceMeters>
          </Trackpoint>
          <Trackpoint>
            <Time>2019-07-26T14:21:26.000Z</Time>
            <Position>
              <LatitudeDegrees>42.919993512332439422607421875</LatitudeDegrees>
              <LongitudeDegrees>-8.252944909036159515380859375</LongitudeDegrees>
            </Position>
            <AltitudeMeters>377</AltitudeMeters>
            <DistanceMeters>70700.164658218</DistanceMeters>
          </Trackpoint>
          <Trackpoint>
            <Time>2019-07-26T14:21:30.000Z</Time>
            <Position>
              <LatitudeDegrees>42.92009183205664157867431640625</LatitudeDegrees>
              <LongitudeDegrees>-8.2529987208545207977294921875</LongitudeDegrees>
            </Position>
            <AltitudeMeters>377.79998779296875</AltitudeMeters>
            <DistanceMeters>70711.954099961</DistanceMeters>
          </Trackpoint>
          <Trackpoint>
            <Time>2019-07-26T14:21:32.000Z</Time>
            <Position>
              <LatitudeDegrees>42.9201507568359375</LatitudeDegrees>
              <LongitudeDegrees>-8.25301540084183216094970703125</LongitudeDegrees>
            </Position>
            <AltitudeMeters>378.20001220703125</AltitudeMeters>
            <DistanceMeters>70718.651966769</DistanceMeters>
          </Trackpoint>
          <Trackpoint>
            <Time>2019-07-26T14:21:36.000Z</Time>
            <Position>
              <LatitudeDegrees>42.92027154006063938140869140625</LatitudeDegrees>
              <LongitudeDegrees>-8.25306720100343227386474609375</LongitudeDegrees>
            </Position>
            <AltitudeMeters>378.79998779296875</AltitudeMeters>
            <DistanceMeters>70732.742861731</DistanceMeters>
          </Trackpoint>
          <Trackpoint>
            <Time>2019-07-26T14:21:38.000Z</Time>
            <Position>
              <LatitudeDegrees>42.920345552265644073486328125</LatitudeDegrees>
              <LongitudeDegrees>-8.25308932922780513763427734375</LongitudeDegrees>
            </Position>
            <AltitudeMeters>379.20001220703125</AltitudeMeters>
            <DistanceMeters>70741.175646088</DistanceMeters>
          </Trackpoint>
          <Trackpoint>
            <Time>2019-07-26T14:21:43.000Z</Time>
            <Position>
              <LatitudeDegrees>42.92053540237247943878173828125</LatitudeDegrees>
              <LongitudeDegrees>-8.25325864367187023162841796875</LongitudeDegrees>
            </Position>
            <AltitudeMeters>379.600006103515625</AltitudeMeters>
            <DistanceMeters>70766.413603654</DistanceMeters>
          </Trackpoint>
          <Trackpoint>
            <Time>2019-07-26T14:21:45.000Z</Time>
            <Position>
              <LatitudeDegrees>42.92061553336679935455322265625</LatitudeDegrees>
              <LongitudeDegrees>-8.25335620902478694915771484375</LongitudeDegrees>
            </Position>
            <AltitudeMeters>379.79998779296875</AltitudeMeters>
            <DistanceMeters>70778.362811525</DistanceMeters>
          </Trackpoint>
          <Trackpoint>
            <Time>2019-07-26T14:21:49.000Z</Time>
            <Position>
              <LatitudeDegrees>42.92075081728398799896240234375</LatitudeDegrees>
              <LongitudeDegrees>-8.25353373773396015167236328125</LongitudeDegrees>
            </Position>
            <AltitudeMeters>380.20001220703125</AltitudeMeters>
            <DistanceMeters>70799.245783339</DistanceMeters>
          </Trackpoint>
          <Trackpoint>
            <Time>2019-07-26T14:21:53.000Z</Time>
            <Position>
              <LatitudeDegrees>42.9208915494382381439208984375</LatitudeDegrees>
              <LongitudeDegrees>-8.2537029683589935302734375</LongitudeDegrees>
            </Position>
            <AltitudeMeters>380.79998779296875</AltitudeMeters>
            <DistanceMeters>70820.117076726</DistanceMeters>
          </Trackpoint>
          <Trackpoint>
            <Time>2019-07-26T14:21:57.000Z</Time>
            <Position>
              <LatitudeDegrees>42.9210253246128559112548828125</LatitudeDegrees>
              <LongitudeDegrees>-8.2538945786654949188232421875</LongitudeDegrees>
            </Position>
            <AltitudeMeters>381.399993896484375</AltitudeMeters>
            <DistanceMeters>70841.69462852</DistanceMeters>
          </Trackpoint>
          <Trackpoint>
            <Time>2019-07-26T14:22:01.000Z</Time>
            <Position>
              <LatitudeDegrees>42.92115465737879276275634765625</LatitudeDegrees>
              <LongitudeDegrees>-8.25407722033560276031494140625</LongitudeDegrees>
            </Position>
            <AltitudeMeters>381.79998779296875</AltitudeMeters>
            <DistanceMeters>70862.402604524</DistanceMeters>
          </Trackpoint>
          <Trackpoint>
            <Time>2019-07-26T14:22:02.000Z</Time>
            <Position>
              <LatitudeDegrees>42.92117393575608730316162109375</LatitudeDegrees>
              <LongitudeDegrees>-8.25413086451590061187744140625</LongitudeDegrees>
            </Position>
            <AltitudeMeters>382</AltitudeMeters>
            <DistanceMeters>70867.27220212</DistanceMeters>
          </Trackpoint>
          <Trackpoint>
            <Time>2019-07-26T14:22:03.000Z</Time>
            <Position>
              <LatitudeDegrees>42.92118784971535205841064453125</LatitudeDegrees>
              <LongitudeDegrees>-8.25419322587549686431884765625</LongitudeDegrees>
            </Position>
            <AltitudeMeters>382.20001220703125</AltitudeMeters>
            <DistanceMeters>70872.586056562</DistanceMeters>
          </Trackpoint>
          <Trackpoint>
            <Time>2019-07-26T14:22:09.000Z</Time>
            <Position>
              <LatitudeDegrees>42.9212744347751140594482421875</LatitudeDegrees>
              <LongitudeDegrees>-8.2544729299843311309814453125</LongitudeDegrees>
            </Position>
            <AltitudeMeters>382.79998779296875</AltitudeMeters>
            <DistanceMeters>70897.336821924</DistanceMeters>
          </Trackpoint>
          <Trackpoint>
            <Time>2019-07-26T14:22:11.000Z</Time>
            <Position>
              <LatitudeDegrees>42.92130435816943645477294921875</LatitudeDegrees>
              <LongitudeDegrees>-8.25454392470419406890869140625</LongitudeDegrees>
            </Position>
            <AltitudeMeters>383</AltitudeMeters>
            <DistanceMeters>70904.013082653</DistanceMeters>
          </Trackpoint>
          <Trackpoint>
            <Time>2019-07-26T14:22:16.000Z</Time>
            <Position>
              <LatitudeDegrees>42.9213998280465602874755859375</LatitudeDegrees>
              <LongitudeDegrees>-8.25478482060134410858154296875</LongitudeDegrees>
            </Position>
            <AltitudeMeters>384.20001220703125</AltitudeMeters>
            <DistanceMeters>70926.33849641</DistanceMeters>
          </Trackpoint>
          <Trackpoint>
            <Time>2019-07-26T14:22:19.000Z</Time>
            <Position>
              <LatitudeDegrees>42.92146160267293453216552734375</LatitudeDegrees>
              <LongitudeDegrees>-8.2549268938601016998291015625</LongitudeDegrees>
            </Position>
            <AltitudeMeters>385.20001220703125</AltitudeMeters>
            <DistanceMeters>70939.805495158</DistanceMeters>
          </Trackpoint>
          <Trackpoint>
            <Time>2019-07-26T14:22:22.000Z</Time>
            <Position>
              <LatitudeDegrees>42.921514995396137237548828125</LatitudeDegrees>
              <LongitudeDegrees>-8.2550682127475738525390625</LongitudeDegrees>
            </Position>
            <AltitudeMeters>385.600006103515625</AltitudeMeters>
            <DistanceMeters>70952.766107876</DistanceMeters>
          </Trackpoint>
          <Trackpoint>
            <Time>2019-07-26T14:22:25.000Z</Time>
            <Position>
              <LatitudeDegrees>42.92156117968261241912841796875</LatitudeDegrees>
              <LongitudeDegrees>-8.25521933846175670623779296875</LongitudeDegrees>
            </Position>
            <AltitudeMeters>386.399993896484375</AltitudeMeters>
            <DistanceMeters>70966.113217978</DistanceMeters>
          </Trackpoint>
          <Trackpoint>
            <Time>2019-07-26T14:22:29.000Z</Time>
            <Position>
              <LatitudeDegrees>42.92162454687058925628662109375</LatitudeDegrees>
              <LongitudeDegrees>-8.255444727838039398193359375</LongitudeDegrees>
            </Position>
            <AltitudeMeters>387.20001220703125</AltitudeMeters>
            <DistanceMeters>70985.790862093</DistanceMeters>
          </Trackpoint>
          <Trackpoint>
            <Time>2019-07-26T14:22:30.000Z</Time>
            <Position>
              <LatitudeDegrees>42.921641729772090911865234375</LatitudeDegrees>
              <LongitudeDegrees>-8.25550499372184276580810546875</LongitudeDegrees>
            </Position>
            <AltitudeMeters>387.399993896484375</AltitudeMeters>
            <DistanceMeters>70991.062061693</DistanceMeters>
          </Trackpoint>
          <Trackpoint>
            <Time>2019-07-26T14:22:33.000Z</Time>
            <Position>
              <LatitudeDegrees>42.921699397265911102294921875</LatitudeDegrees>
              <LongitudeDegrees>-8.25568419881165027618408203125</LongitudeDegrees>
            </Position>
            <AltitudeMeters>387.79998779296875</AltitudeMeters>
            <DistanceMeters>71007.016082024</DistanceMeters>
          </Trackpoint>
          <Trackpoint>
            <Time>2019-07-26T14:22:35.000Z</Time>
            <Position>
              <LatitudeDegrees>42.92175672948360443115234375</LatitudeDegrees>
              <LongitudeDegrees>-8.2558100111782550811767578125</LongitudeDegrees>
            </Position>
            <AltitudeMeters>387.79998779296875</AltitudeMeters>
            <DistanceMeters>71019.093450313</DistanceMeters>
          </Trackpoint>
          <Trackpoint>
            <Time>2019-07-26T14:22:36.000Z</Time>
            <Position>
              <LatitudeDegrees>42.92179025709629058837890625</LatitudeDegrees>
              <LongitudeDegrees>-8.2558797486126422882080078125</LongitudeDegrees>
            </Position>
            <AltitudeMeters>387.79998779296875</AltitudeMeters>
            <DistanceMeters>71025.89300849</DistanceMeters>
          </Trackpoint>
          <Trackpoint>
            <Time>2019-07-26T14:22:41.000Z</Time>
            <Position>
              <LatitudeDegrees>42.921997122466564178466796875</LatitudeDegrees>
              <LongitudeDegrees>-8.256294988095760345458984375</LongitudeDegrees>
            </Position>
            <AltitudeMeters>387.79998779296875</AltitudeMeters>
            <DistanceMeters>71066.826255175</DistanceMeters>
          </Trackpoint>
          <Trackpoint>
            <Time>2019-07-26T14:22:46.000Z</Time>
            <Position>
              <LatitudeDegrees>42.92220306582748889923095703125</LatitudeDegrees>
              <LongitudeDegrees>-8.25672841630876064300537109375</LongitudeDegrees>
            </Position>
            <AltitudeMeters>386.79998779296875</AltitudeMeters>
            <DistanceMeters>71108.937459174</DistanceMeters>
          </Trackpoint>
          <Trackpoint>
            <Time>2019-07-26T14:22:47.000Z</Time>
            <Position>
              <LatitudeDegrees>42.9222407005727291107177734375</LatitudeDegrees>
              <LongitudeDegrees>-8.2568143308162689208984375</LongitudeDegrees>
            </Position>
            <AltitudeMeters>386.20001220703125</AltitudeMeters>
            <DistanceMeters>71117.096486294</DistanceMeters>
          </Trackpoint>
          <Trackpoint>
            <Time>2019-07-26T14:22:48.000Z</Time>
            <Position>
              <LatitudeDegrees>42.9222728870809078216552734375</LatitudeDegrees>
              <LongitudeDegrees>-8.25689923949539661407470703125</LongitudeDegrees>
            </Position>
            <AltitudeMeters>385.79998779296875</AltitudeMeters>
            <DistanceMeters>71124.889835649</DistanceMeters>
          </Trackpoint>
          <Trackpoint>
            <Time>2019-07-26T14:22:49.000Z</Time>
            <Position>
              <LatitudeDegrees>42.9222953505814075469970703125</LatitudeDegrees>
              <LongitudeDegrees>-8.256985656917095184326171875</LongitudeDegrees>
            </Position>
            <AltitudeMeters>385.600006103515625</AltitudeMeters>
            <DistanceMeters>71132.363793963</DistanceMeters>
          </Trackpoint>
          <Trackpoint>
            <Time>2019-07-26T14:22:50.000Z</Time>
            <Position>
              <LatitudeDegrees>42.92231001891195774078369140625</LatitudeDegrees>
              <LongitudeDegrees>-8.25707291252911090850830078125</LongitudeDegrees>
            </Position>
            <AltitudeMeters>385.20001220703125</AltitudeMeters>
            <DistanceMeters>71139.660459689</DistanceMeters>
          </Trackpoint>
          <Trackpoint>
            <Time>2019-07-26T14:22:52.000Z</Time>
            <Position>
              <LatitudeDegrees>42.92233608663082122802734375</LatitudeDegrees>
              <LongitudeDegrees>-8.257255889475345611572265625</LongitudeDegrees>
            </Position>
            <AltitudeMeters>384.79998779296875</AltitudeMeters>
            <DistanceMeters>71154.853445375</DistanceMeters>
          </Trackpoint>
          <Trackpoint>
            <Time>2019-07-26T14:22:56.000Z</Time>
            <Position>
              <LatitudeDegrees>42.92237791232764720916748046875</LatitudeDegrees>
              <LongitudeDegrees>-8.2576308958232402801513671875</LongitudeDegrees>
            </Position>
            <AltitudeMeters>384.399993896484375</AltitudeMeters>
            <DistanceMeters>71185.770588062</DistanceMeters>
          </Trackpoint>
          <Trackpoint>
            <Time>2019-07-26T14:22:59.000Z</Time>
            <Position>
              <LatitudeDegrees>42.92240791954100131988525390625</LatitudeDegrees>
              <LongitudeDegrees>-8.2578917406499385833740234375</LongitudeDegrees>
            </Position>
            <AltitudeMeters>384.20001220703125</AltitudeMeters>
            <DistanceMeters>71207.291359208</DistanceMeters>
          </Trackpoint>
          <Trackpoint>
            <Time>2019-07-26T14:23:01.000Z</Time>
            <Position>
              <LatitudeDegrees>42.92242418043315410614013671875</LatitudeDegrees>
              <LongitudeDegrees>-8.2580553553998470306396484375</LongitudeDegrees>
            </Position>
            <AltitudeMeters>384</AltitudeMeters>
            <DistanceMeters>71220.748967211</DistanceMeters>
          </Trackpoint>
          <Trackpoint>
            <Time>2019-07-26T14:23:08.000Z</Time>
            <Position>
              <LatitudeDegrees>42.92245334945619106292724609375</LatitudeDegrees>
              <LongitudeDegrees>-8.2585884444415569305419921875</LongitudeDegrees>
            </Position>
            <AltitudeMeters>384</AltitudeMeters>
            <DistanceMeters>71264.318897098</DistanceMeters>
          </Trackpoint>
          <Trackpoint>
            <Time>2019-07-26T14:23:10.000Z</Time>
            <Position>
              <LatitudeDegrees>42.922465503215789794921875</LatitudeDegrees>
              <LongitudeDegrees>-8.2587279193103313446044921875</LongitudeDegrees>
            </Position>
            <AltitudeMeters>384</AltitudeMeters>
            <DistanceMeters>71275.766362728</DistanceMeters>
          </Trackpoint>
          <Trackpoint>
            <Time>2019-07-26T14:23:12.000Z</Time>
            <Position>
              <LatitudeDegrees>42.92247748933732509613037109375</LatitudeDegrees>
              <LongitudeDegrees>-8.2588072121143341064453125</LongitudeDegrees>
            </Position>
            <AltitudeMeters>384.20001220703125</AltitudeMeters>
            <DistanceMeters>71282.365076892</DistanceMeters>
          </Trackpoint>
          <Trackpoint>
            <Time>2019-07-26T14:23:15.000Z</Time>
            <Position>
              <LatitudeDegrees>42.922410182654857635498046875</LatitudeDegrees>
              <LongitudeDegrees>-8.258862197399139404296875</LongitudeDegrees>
            </Position>
            <AltitudeMeters>384.600006103515625</AltitudeMeters>
            <DistanceMeters>71291.094613827</DistanceMeters>
          </Trackpoint>
          <Trackpoint>
            <Time>2019-07-26T14:23:18.000Z</Time>
            <Position>
              <LatitudeDegrees>42.92234756983816623687744140625</LatitudeDegrees>
              <LongitudeDegrees>-8.25901550240814685821533203125</LongitudeDegrees>
            </Position>
            <AltitudeMeters>384.600006103515625</AltitudeMeters>
            <DistanceMeters>71305.401736977</DistanceMeters>
          </Trackpoint>
          <Trackpoint>
            <Time>2019-07-26T14:23:22.000Z</Time>
            <Position>
              <LatitudeDegrees>42.922342121601104736328125</LatitudeDegrees>
              <LongitudeDegrees>-8.25930275022983551025390625</LongitudeDegrees>
            </Position>
            <AltitudeMeters>384.600006103515625</AltitudeMeters>
            <DistanceMeters>71328.821532946</DistanceMeters>
          </Trackpoint>
          <Trackpoint>
            <Time>2019-07-26T14:23:23.000Z</Time>
            <Position>
              <LatitudeDegrees>42.92233834974467754364013671875</LatitudeDegrees>
              <LongitudeDegrees>-8.25938229449093341827392578125</LongitudeDegrees>
            </Position>
            <AltitudeMeters>384.600006103515625</AltitudeMeters>
            <DistanceMeters>71335.318191879</DistanceMeters>
          </Trackpoint>
          <Trackpoint>
            <Time>2019-07-26T14:23:24.000Z</Time>
            <Position>
              <LatitudeDegrees>42.92234119959175586700439453125</LatitudeDegrees>
              <LongitudeDegrees>-8.25946242548525333404541015625</LongitudeDegrees>
            </Position>
            <AltitudeMeters>384.399993896484375</AltitudeMeters>
            <DistanceMeters>71341.857107077</DistanceMeters>
          </Trackpoint>
          <Trackpoint>
            <Time>2019-07-26T14:23:29.000Z</Time>
            <Position>
              <LatitudeDegrees>42.92234287597239017486572265625</LatitudeDegrees>
              <LongitudeDegrees>-8.259885124862194061279296875</LongitudeDegrees>
            </Position>
            <AltitudeMeters>384.20001220703125</AltitudeMeters>
            <DistanceMeters>71376.309238624</DistanceMeters>
          </Trackpoint>
          <Trackpoint>
            <Time>2019-07-26T14:23:32.000Z</Time>
            <Position>
              <LatitudeDegrees>42.92235813103616237640380859375</LatitudeDegrees>
              <LongitudeDegrees>-8.26017254032194614410400390625</LongitudeDegrees>
            </Position>
            <AltitudeMeters>383.79998779296875</AltitudeMeters>
            <DistanceMeters>71399.796028737</DistanceMeters>
          </Trackpoint>
          <Trackpoint>
            <Time>2019-07-26T14:23:34.000Z</Time>
            <Position>
              <LatitudeDegrees>42.922393418848514556884765625</LatitudeDegrees>
              <LongitudeDegrees>-8.26036951504647731781005859375</LongitudeDegrees>
            </Position>
            <AltitudeMeters>383.79998779296875</AltitudeMeters>
            <DistanceMeters>71416.323575815</DistanceMeters>
          </Trackpoint>
          <Trackpoint>
            <Time>2019-07-26T14:23:39.000Z</Time>
            <Position>
              <LatitudeDegrees>42.92246039025485515594482421875</LatitudeDegrees>
              <LongitudeDegrees>-8.26087125577032566070556640625</LongitudeDegrees>
            </Position>
            <AltitudeMeters>383.399993896484375</AltitudeMeters>
            <DistanceMeters>71457.891219569</DistanceMeters>
          </Trackpoint>
          <Trackpoint>
            <Time>2019-07-26T14:23:41.000Z</Time>
            <Position>
              <LatitudeDegrees>42.9224789142608642578125</LatitudeDegrees>
              <LongitudeDegrees>-8.261062614619731903076171875</LongitudeDegrees>
            </Position>
            <AltitudeMeters>382.79998779296875</AltitudeMeters>
            <DistanceMeters>71473.623235815</DistanceMeters>
          </Trackpoint>
          <Trackpoint>
            <Time>2019-07-26T14:23:43.000Z</Time>
            <Position>
              <LatitudeDegrees>42.9225035570561885833740234375</LatitudeDegrees>
              <LongitudeDegrees>-8.26126319356262683868408203125</LongitudeDegrees>
            </Position>
            <AltitudeMeters>382.20001220703125</AltitudeMeters>
            <DistanceMeters>71490.199610452</DistanceMeters>
          </Trackpoint>
          <Trackpoint>
            <Time>2019-07-26T14:23:47.000Z</Time>
            <Position>
              <LatitudeDegrees>42.92255326174199581146240234375</LatitudeDegrees>
              <LongitudeDegrees>-8.26168597675859928131103515625</LongitudeDegrees>
            </Position>
            <AltitudeMeters>381.20001220703125</AltitudeMeters>
            <DistanceMeters>71525.09939227</DistanceMeters>
          </Trackpoint>
          <Trackpoint>
            <Time>2019-07-26T14:23:48.000Z</Time>
            <Position>
              <LatitudeDegrees>42.9225833527743816375732421875</LatitudeDegrees>
              <LongitudeDegrees>-8.26178404502570629119873046875</LongitudeDegrees>
            </Position>
            <AltitudeMeters>381</AltitudeMeters>
            <DistanceMeters>71533.765599387</DistanceMeters>
          </Trackpoint>
          <Trackpoint>
            <Time>2019-07-26T14:23:50.000Z</Time>
            <Position>
              <LatitudeDegrees>42.92268703691661357879638671875</LatitudeDegrees>
              <LongitudeDegrees>-8.26194363646209239959716796875</LongitudeDegrees>
            </Position>
            <AltitudeMeters>380.399993896484375</AltitudeMeters>
            <DistanceMeters>71551.154189889</DistanceMeters>
          </Trackpoint>
          <Trackpoint>
            <Time>2019-07-26T14:23:52.000Z</Time>
            <Position>
              <LatitudeDegrees>42.92276733554899692535400390625</LatitudeDegrees>
              <LongitudeDegrees>-8.26212183572351932525634765625</LongitudeDegrees>
            </Position>
            <AltitudeMeters>380</AltitudeMeters>
            <DistanceMeters>71568.207712749</DistanceMeters>
          </Trackpoint>
          <Trackpoint>
            <Time>2019-07-26T14:23:54.000Z</Time>
            <Position>
              <LatitudeDegrees>42.92283154092729091644287109375</LatitudeDegrees>
              <LongitudeDegrees>-8.26232048682868480682373046875</LongitudeDegrees>
            </Position>
            <AltitudeMeters>379.20001220703125</AltitudeMeters>
            <DistanceMeters>71585.905146783</DistanceMeters>
          </Trackpoint>
          <Trackpoint>
            <Time>2019-07-26T14:23:55.000Z</Time>
            <Position>
              <LatitudeDegrees>42.92286087758839130401611328125</LatitudeDegrees>
              <LongitudeDegrees>-8.26241972856223583221435546875</LongitudeDegrees>
            </Position>
            <AltitudeMeters>378.600006103515625</AltitudeMeters>
            <DistanceMeters>71594.627957346</DistanceMeters>
          </Trackpoint>
          <Trackpoint>
            <Time>2019-07-26T14:23:57.000Z</Time>
            <Position>
              <LatitudeDegrees>42.92291787452995777130126953125</LatitudeDegrees>
              <LongitudeDegrees>-8.26262542046606540679931640625</LongitudeDegrees>
            </Position>
            <AltitudeMeters>377.600006103515625</AltitudeMeters>
            <DistanceMeters>71612.552524841</DistanceMeters>
          </Trackpoint>
          <Trackpoint>
            <Time>2019-07-26T14:24:01.000Z</Time>
            <Position>
              <LatitudeDegrees>42.923059947788715362548828125</LatitudeDegrees>
              <LongitudeDegrees>-8.2630638778209686279296875</LongitudeDegrees>
            </Position>
            <AltitudeMeters>376.399993896484375</AltitudeMeters>
            <DistanceMeters>71651.630463086</DistanceMeters>
          </Trackpoint>
          <Trackpoint>
            <Time>2019-07-26T14:24:02.000Z</Time>
            <Position>
              <LatitudeDegrees>42.92309624142944812774658203125</LatitudeDegrees>
              <LongitudeDegrees>-8.263180553913116455078125</LongitudeDegrees>
            </Position>
            <AltitudeMeters>376</AltitudeMeters>
            <DistanceMeters>71661.962187707</DistanceMeters>
          </Trackpoint>
          <Trackpoint>
            <Time>2019-07-26T14:24:04.000Z</Time>
            <Position>
              <LatitudeDegrees>42.92314837686717510223388671875</LatitudeDegrees>
              <LongitudeDegrees>-8.2634204439818859100341796875</LongitudeDegrees>
            </Position>
            <AltitudeMeters>375</AltitudeMeters>
            <DistanceMeters>71682.356877731</DistanceMeters>
          </Trackpoint>
          <Trackpoint>
            <Time>2019-07-26T14:24:06.000Z</Time>
            <Position>
              <LatitudeDegrees>42.92319774627685546875</LatitudeDegrees>
              <LongitudeDegrees>-8.26367131434381008148193359375</LongitudeDegrees>
            </Position>
            <AltitudeMeters>373.399993896484375</AltitudeMeters>
            <DistanceMeters>71703.529077068</DistanceMeters>
          </Trackpoint>
          <Trackpoint>
            <Time>2019-07-26T14:24:07.000Z</Time>
            <Position>
              <LatitudeDegrees>42.9232274182140827178955078125</LatitudeDegrees>
              <LongitudeDegrees>-8.2637902535498142242431640625</LongitudeDegrees>
            </Position>
            <AltitudeMeters>372.79998779296875</AltitudeMeters>
            <DistanceMeters>71713.769941671</DistanceMeters>
          </Trackpoint>
          <Trackpoint>
            <Time>2019-07-26T14:24:08.000Z</Time>
            <Position>
              <LatitudeDegrees>42.92326019145548343658447265625</LatitudeDegrees>
              <LongitudeDegrees>-8.26390718109905719757080078125</LongitudeDegrees>
            </Position>
            <AltitudeMeters>372</AltitudeMeters>
            <DistanceMeters>71723.973704771</DistanceMeters>
          </Trackpoint>
          <Trackpoint>
            <Time>2019-07-26T14:24:11.000Z</Time>
            <Position>
              <LatitudeDegrees>42.9233412444591522216796875</LatitudeDegrees>
              <LongitudeDegrees>-8.2642261125147342681884765625</LongitudeDegrees>
            </Position>
            <AltitudeMeters>370.79998779296875</AltitudeMeters>
            <DistanceMeters>71751.488492593</DistanceMeters>
          </Trackpoint>
          <Trackpoint>
            <Time>2019-07-26T14:24:14.000Z</Time>
            <Position>
              <LatitudeDegrees>42.9234061203896999359130859375</LatitudeDegrees>
              <LongitudeDegrees>-8.2645122706890106201171875</LongitudeDegrees>
            </Position>
            <AltitudeMeters>370.399993896484375</AltitudeMeters>
            <DistanceMeters>71775.903331854</DistanceMeters>
          </Trackpoint>
          <Trackpoint>
            <Time>2019-07-26T14:24:16.000Z</Time>
            <Position>
              <LatitudeDegrees>42.923443503677845001220703125</LatitudeDegrees>
              <LongitudeDegrees>-8.26468770392239093780517578125</LongitudeDegrees>
            </Position>
            <AltitudeMeters>370.20001220703125</AltitudeMeters>
            <DistanceMeters>71790.794960956</DistanceMeters>
          </Trackpoint>
          <Trackpoint>
            <Time>2019-07-26T14:24:18.000Z</Time>
            <Position>
              <LatitudeDegrees>42.92348063550889492034912109375</LatitudeDegrees>
              <LongitudeDegrees>-8.2648547552525997161865234375</LongitudeDegrees>
            </Position>
            <AltitudeMeters>370.20001220703125</AltitudeMeters>
            <DistanceMeters>71805.023605089</DistanceMeters>
          </Trackpoint>
          <Trackpoint>
            <Time>2019-07-26T14:24:22.000Z</Time>
            <Position>
              <LatitudeDegrees>42.92357400991022586822509765625</LatitudeDegrees>
              <LongitudeDegrees>-8.26513395644724369049072265625</LongitudeDegrees>
            </Position>
            <AltitudeMeters>370.20001220703125</AltitudeMeters>
            <DistanceMeters>71830.040188548</DistanceMeters>
          </Trackpoint>
          <Trackpoint>
            <Time>2019-07-26T14:24:23.000Z</Time>
            <Position>
              <LatitudeDegrees>42.92359245009720325469970703125</LatitudeDegrees>
              <LongitudeDegrees>-8.26520117931067943572998046875</LongitudeDegrees>
            </Position>
            <AltitudeMeters>370.20001220703125</AltitudeMeters>
            <DistanceMeters>71835.891859239</DistanceMeters>
          </Trackpoint>
          <Trackpoint>
            <Time>2019-07-26T14:24:26.000Z</Time>
            <Position>
              <LatitudeDegrees>42.923607118427753448486328125</LatitudeDegrees>
              <LongitudeDegrees>-8.2654310949146747589111328125</LongitudeDegrees>
            </Position>
            <AltitudeMeters>370.399993896484375</AltitudeMeters>
            <DistanceMeters>71854.701388608</DistanceMeters>
          </Trackpoint>
          <Trackpoint>
            <Time>2019-07-26T14:24:28.000Z</Time>
            <Position>
              <LatitudeDegrees>42.9236109741032123565673828125</LatitudeDegrees>
              <LongitudeDegrees>-8.26557241380214691162109375</LongitudeDegrees>
            </Position>
            <AltitudeMeters>370.600006103515625</AltitudeMeters>
            <DistanceMeters>71866.227075337</DistanceMeters>
          </Trackpoint>
          <Trackpoint>
            <Time>2019-07-26T14:24:31.000Z</Time>
            <Position>
              <LatitudeDegrees>42.9236035980284214019775390625</LatitudeDegrees>
              <LongitudeDegrees>-8.26578036881983280181884765625</LongitudeDegrees>
            </Position>
            <AltitudeMeters>371</AltitudeMeters>
            <DistanceMeters>71883.195664479</DistanceMeters>
          </Trackpoint>
          <Trackpoint>
            <Time>2019-07-26T14:24:33.000Z</Time>
            <Position>
              <LatitudeDegrees>42.9235947132110595703125</LatitudeDegrees>
              <LongitudeDegrees>-8.265918754041194915771484375</LongitudeDegrees>
            </Position>
            <AltitudeMeters>371.399993896484375</AltitudeMeters>
            <DistanceMeters>71894.517809382</DistanceMeters>
          </Trackpoint>
          <Trackpoint>
            <Time>2019-07-26T14:24:36.000Z</Time>
            <Position>
              <LatitudeDegrees>42.92355515062808990478515625</LatitudeDegrees>
              <LongitudeDegrees>-8.26613542623817920684814453125</LongitudeDegrees>
            </Position>
            <AltitudeMeters>371.399993896484375</AltitudeMeters>
            <DistanceMeters>71912.718092187</DistanceMeters>
          </Trackpoint>
          <Trackpoint>
            <Time>2019-07-26T14:24:38.000Z</Time>
            <Position>
              <LatitudeDegrees>42.9235496185719966888427734375</LatitudeDegrees>
              <LongitudeDegrees>-8.266260065138339996337890625</LongitudeDegrees>
            </Position>
            <AltitudeMeters>371.600006103515625</AltitudeMeters>
            <DistanceMeters>71922.895715038</DistanceMeters>
          </Trackpoint>
          <Trackpoint>
            <Time>2019-07-26T14:24:40.000Z</Time>
            <Position>
              <LatitudeDegrees>42.92355841957032680511474609375</LatitudeDegrees>
              <LongitudeDegrees>-8.266361318528652191162109375</LongitudeDegrees>
            </Position>
            <AltitudeMeters>371.600006103515625</AltitudeMeters>
            <DistanceMeters>71931.206614792</DistanceMeters>
          </Trackpoint>
          <Trackpoint>
            <Time>2019-07-26T14:24:43.000Z</Time>
            <Position>
              <LatitudeDegrees>42.9235772788524627685546875</LatitudeDegrees>
              <LongitudeDegrees>-8.26650037430226802825927734375</LongitudeDegrees>
            </Position>
            <AltitudeMeters>371.79998779296875</AltitudeMeters>
            <DistanceMeters>71942.732693251</DistanceMeters>
          </Trackpoint>
          <Trackpoint>
            <Time>2019-07-26T14:24:46.000Z</Time>
            <Position>
              <LatitudeDegrees>42.92359110899269580841064453125</LatitudeDegrees>
              <LongitudeDegrees>-8.2666531763970851898193359375</LongitudeDegrees>
            </Position>
            <AltitudeMeters>372.399993896484375</AltitudeMeters>
            <DistanceMeters>71955.2805382</DistanceMeters>
          </Trackpoint>
          <Trackpoint>
            <Time>2019-07-26T14:24:49.000Z</Time>
            <Position>
              <LatitudeDegrees>42.9235905222594738006591796875</LatitudeDegrees>
              <LongitudeDegrees>-8.2668028771877288818359375</LongitudeDegrees>
            </Position>
            <AltitudeMeters>373</AltitudeMeters>
            <DistanceMeters>71967.481020982</DistanceMeters>
          </Trackpoint>
          <Trackpoint>
            <Time>2019-07-26T14:24:53.000Z</Time>
            <Position>
              <LatitudeDegrees>42.92360234074294567108154296875</LatitudeDegrees>
              <LongitudeDegrees>-8.2669941522181034088134765625</LongitudeDegrees>
            </Position>
            <AltitudeMeters>373.600006103515625</AltitudeMeters>
            <DistanceMeters>71983.125546923</DistanceMeters>
          </Trackpoint>
          <Trackpoint>
            <Time>2019-07-26T14:24:54.000Z</Time>
            <Position>
              <LatitudeDegrees>42.92360820807516574859619140625</LatitudeDegrees>
              <LongitudeDegrees>-8.26703279279172420501708984375</LongitudeDegrees>
            </Position>
            <AltitudeMeters>373.79998779296875</AltitudeMeters>
            <DistanceMeters>71986.342450342</DistanceMeters>
          </Trackpoint>
          <Trackpoint>
            <Time>2019-07-26T14:24:56.000Z</Time>
            <Position>
              <LatitudeDegrees>42.923624217510223388671875</LatitudeDegrees>
              <LongitudeDegrees>-8.267104625701904296875</LongitudeDegrees>
            </Position>
            <AltitudeMeters>374</AltitudeMeters>
            <DistanceMeters>71992.462642912</DistanceMeters>
          </Trackpoint>
          <Trackpoint>
            <Time>2019-07-26T14:24:59.000Z</Time>
            <Position>
              <LatitudeDegrees>42.923661433160305023193359375</LatitudeDegrees>
              <LongitudeDegrees>-8.267231024801731109619140625</LongitudeDegrees>
            </Position>
            <AltitudeMeters>374.600006103515625</AltitudeMeters>
            <DistanceMeters>72003.565732734</DistanceMeters>
          </Trackpoint>
          <Trackpoint>
            <Time>2019-07-26T14:25:01.000Z</Time>
            <Position>
              <LatitudeDegrees>42.92370610870420932769775390625</LatitudeDegrees>
              <LongitudeDegrees>-8.26730654574930667877197265625</LongitudeDegrees>
            </Position>
            <AltitudeMeters>375.20001220703125</AltitudeMeters>
            <DistanceMeters>72011.47866835</DistanceMeters>
          </Trackpoint>
          <Trackpoint>
            <Time>2019-07-26T14:25:05.000Z</Time>
            <Position>
              <LatitudeDegrees>42.923795543611049652099609375</LatitudeDegrees>
              <LongitudeDegrees>-8.26746546663343906402587890625</LongitudeDegrees>
            </Position>
            <AltitudeMeters>375.600006103515625</AltitudeMeters>
            <DistanceMeters>72027.814421136</DistanceMeters>
          </Trackpoint>
          <Trackpoint>
            <Time>2019-07-26T14:25:09.000Z</Time>
            <Position>
              <LatitudeDegrees>42.9238785244524478912353515625</LatitudeDegrees>
              <LongitudeDegrees>-8.26760351657867431640625</LongitudeDegrees>
            </Position>
            <AltitudeMeters>376.20001220703125</AltitudeMeters>
            <DistanceMeters>72042.371198727</DistanceMeters>
          </Trackpoint>
          <Trackpoint>
            <Time>2019-07-26T14:25:11.000Z</Time>
            <Position>
              <LatitudeDegrees>42.9239271394908428192138671875</LatitudeDegrees>
              <LongitudeDegrees>-8.2676958851516246795654296875</LongitudeDegrees>
            </Position>
            <AltitudeMeters>376.600006103515625</AltitudeMeters>
            <DistanceMeters>72051.642027578</DistanceMeters>
          </Trackpoint>
          <Trackpoint>
            <Time>2019-07-26T14:25:14.000Z</Time>
            <Position>
              <LatitudeDegrees>42.92399360798299312591552734375</LatitudeDegrees>
              <LongitudeDegrees>-8.26780124567449092864990234375</LongitudeDegrees>
            </Position>
            <AltitudeMeters>377.20001220703125</AltitudeMeters>
            <DistanceMeters>72062.976926239</DistanceMeters>
          </Trackpoint>
          <Trackpoint>
            <Time>2019-07-26T14:25:19.000Z</Time>
            <Position>
              <LatitudeDegrees>42.92408597655594348907470703125</LatitudeDegrees>
              <LongitudeDegrees>-8.26796201057732105255126953125</LongitudeDegrees>
            </Position>
            <AltitudeMeters>377.79998779296875</AltitudeMeters>
            <DistanceMeters>72079.631560973</DistanceMeters>
          </Trackpoint>
          <Trackpoint>
            <Time>2019-07-26T14:25:22.000Z</Time>
            <Position>
              <LatitudeDegrees>42.92415521107614040374755859375</LatitudeDegrees>
              <LongitudeDegrees>-8.26806527562439441680908203125</LongitudeDegrees>
            </Position>
            <AltitudeMeters>378.399993896484375</AltitudeMeters>
            <DistanceMeters>72091.042682843</DistanceMeters>
          </Trackpoint>
          <Trackpoint>
            <Time>2019-07-26T14:25:25.000Z</Time>
            <Position>
              <LatitudeDegrees>42.9242248646914958953857421875</LatitudeDegrees>
              <LongitudeDegrees>-8.26815278269350528717041015625</LongitudeDegrees>
            </Position>
            <AltitudeMeters>378.79998779296875</AltitudeMeters>
            <DistanceMeters>72101.576941688</DistanceMeters>
          </Trackpoint>
          <Trackpoint>
            <Time>2019-07-26T14:25:31.000Z</Time>
            <Position>
              <LatitudeDegrees>42.92437884025275707244873046875</LatitudeDegrees>
              <LongitudeDegrees>-8.26830516569316387176513671875</LongitudeDegrees>
            </Position>
            <AltitudeMeters>379.600006103515625</AltitudeMeters>
            <DistanceMeters>72122.741462519</DistanceMeters>
          </Trackpoint>
          <Trackpoint>
            <Time>2019-07-26T14:25:37.000Z</Time>
            <Position>
              <LatitudeDegrees>42.924522422254085540771484375</LatitudeDegrees>
              <LongitudeDegrees>-8.26839677989482879638671875</LongitudeDegrees>
            </Position>
            <AltitudeMeters>380.600006103515625</AltitudeMeters>
            <DistanceMeters>72140.380632396</DistanceMeters>
          </Trackpoint>
          <Trackpoint>
            <Time>2019-07-26T14:25:42.000Z</Time>
            <Position>
              <LatitudeDegrees>42.92464949190616607666015625</LatitudeDegrees>
              <LongitudeDegrees>-8.26854622922837734222412109375</LongitudeDegrees>
            </Position>
            <AltitudeMeters>381.79998779296875</AltitudeMeters>
            <DistanceMeters>72159.045582147</DistanceMeters>
          </Trackpoint>
          <Trackpoint>
            <Time>2019-07-26T14:25:48.000Z</Time>
            <Position>
              <LatitudeDegrees>42.92480899952352046966552734375</LatitudeDegrees>
              <LongitudeDegrees>-8.26884948648512363433837890625</LongitudeDegrees>
            </Position>
            <AltitudeMeters>382.600006103515625</AltitudeMeters>
            <DistanceMeters>72189.476987958</DistanceMeters>
          </Trackpoint>
          <Trackpoint>
            <Time>2019-07-26T14:25:51.000Z</Time>
            <Position>
              <LatitudeDegrees>42.92486800812184810638427734375</LatitudeDegrees>
              <LongitudeDegrees>-8.26904897578060626983642578125</LongitudeDegrees>
            </Position>
            <AltitudeMeters>382.79998779296875</AltitudeMeters>
            <DistanceMeters>72207.011927448</DistanceMeters>
          </Trackpoint>
          <Trackpoint>
            <Time>2019-07-26T14:25:54.000Z</Time>
            <Position>
              <LatitudeDegrees>42.924932800233364105224609375</LatitudeDegrees>
              <LongitudeDegrees>-8.26927721500396728515625</LongitudeDegrees>
            </Position>
            <AltitudeMeters>383.20001220703125</AltitudeMeters>
            <DistanceMeters>72226.962559255</DistanceMeters>
          </Trackpoint>
          <Trackpoint>
            <Time>2019-07-26T14:26:00.000Z</Time>
            <Position>
              <LatitudeDegrees>42.925023324787616729736328125</LatitudeDegrees>
              <LongitudeDegrees>-8.269776441156864166259765625</LongitudeDegrees>
            </Position>
            <AltitudeMeters>383.20001220703125</AltitudeMeters>
            <DistanceMeters>72268.878712628</DistanceMeters>
          </Trackpoint>
          <Trackpoint>
            <Time>2019-07-26T14:26:05.000Z</Time>
            <Position>
              <LatitudeDegrees>42.92509079910814762115478515625</LatitudeDegrees>
              <LongitudeDegrees>-8.27019662596285343170166015625</LongitudeDegrees>
            </Position>
            <AltitudeMeters>382.79998779296875</AltitudeMeters>
            <DistanceMeters>72303.937775439</DistanceMeters>
          </Trackpoint>
          <Trackpoint>
            <Time>2019-07-26T14:26:07.000Z</Time>
            <Position>
              <LatitudeDegrees>42.9251394979655742645263671875</LatitudeDegrees>
              <LongitudeDegrees>-8.2703720591962337493896484375</LongitudeDegrees>
            </Position>
            <AltitudeMeters>382.600006103515625</AltitudeMeters>
            <DistanceMeters>72319.229106298</DistanceMeters>
          </Trackpoint>
          <Trackpoint>
            <Time>2019-07-26T14:26:14.000Z</Time>
            <Position>
              <LatitudeDegrees>42.92523798532783985137939453125</LatitudeDegrees>
              <LongitudeDegrees>-8.27098670415580272674560546875</LongitudeDegrees>
            </Position>
            <AltitudeMeters>381.79998779296875</AltitudeMeters>
            <DistanceMeters>72370.508148805</DistanceMeters>
          </Trackpoint>
          <Trackpoint>
            <Time>2019-07-26T14:26:16.000Z</Time>
            <Position>
              <LatitudeDegrees>42.92525776661932468414306640625</LatitudeDegrees>
              <LongitudeDegrees>-8.27115618623793125152587890625</LongitudeDegrees>
            </Position>
            <AltitudeMeters>381.600006103515625</AltitudeMeters>
            <DistanceMeters>72384.49548723</DistanceMeters>
          </Trackpoint>
          <Trackpoint>
            <Time>2019-07-26T14:26:19.000Z</Time>
            <Position>
              <LatitudeDegrees>42.92529850266873836517333984375</LatitudeDegrees>
              <LongitudeDegrees>-8.27139289118349552154541015625</LongitudeDegrees>
            </Position>
            <AltitudeMeters>381.600006103515625</AltitudeMeters>
            <DistanceMeters>72404.312373829</DistanceMeters>
          </Trackpoint>
          <Trackpoint>
            <Time>2019-07-26T14:26:24.000Z</Time>
            <Position>
              <LatitudeDegrees>42.92537502944469451904296875</LatitudeDegrees>
              <LongitudeDegrees>-8.271761275827884674072265625</LongitudeDegrees>
            </Position>
            <AltitudeMeters>381.20001220703125</AltitudeMeters>
            <DistanceMeters>72435.52051259</DistanceMeters>
          </Trackpoint>
          <Trackpoint>
            <Time>2019-07-26T14:26:30.000Z</Time>
            <Position>
              <LatitudeDegrees>42.92548441328108310699462890625</LatitudeDegrees>
              <LongitudeDegrees>-8.27219772152602672576904296875</LongitudeDegrees>
            </Position>
            <AltitudeMeters>381.20001220703125</AltitudeMeters>
            <DistanceMeters>72473.116520432</DistanceMeters>
          </Trackpoint>
          <Trackpoint>
            <Time>2019-07-26T14:26:31.000Z</Time>
            <Position>
              <LatitudeDegrees>42.925504781305789947509765625</LatitudeDegrees>
              <LongitudeDegrees>-8.27226662077009677886962890625</LongitudeDegrees>
            </Position>
            <AltitudeMeters>381.20001220703125</AltitudeMeters>
            <DistanceMeters>72479.172190538</DistanceMeters>
          </Trackpoint>
          <Trackpoint>
            <Time>2019-07-26T14:26:36.000Z</Time>
            <Position>
              <LatitudeDegrees>42.92557418346405029296875</LatitudeDegrees>
              <LongitudeDegrees>-8.2726180739700794219970703125</LongitudeDegrees>
            </Position>
            <AltitudeMeters>381</AltitudeMeters>
            <DistanceMeters>72508.838794162</DistanceMeters>
          </Trackpoint>
          <Trackpoint>
            <Time>2019-07-26T14:26:37.000Z</Time>
            <Position>
              <LatitudeDegrees>42.9255937971174716949462890625</LatitudeDegrees>
              <LongitudeDegrees>-8.27269309200346469879150390625</LongitudeDegrees>
            </Position>
            <AltitudeMeters>381</AltitudeMeters>
            <DistanceMeters>72515.331281885</DistanceMeters>
          </Trackpoint>
          <Trackpoint>
            <Time>2019-07-26T14:26:43.000Z</Time>
            <Position>
              <LatitudeDegrees>42.925699241459369659423828125</LatitudeDegrees>
              <LongitudeDegrees>-8.27319256961345672607421875</LongitudeDegrees>
            </Position>
            <AltitudeMeters>381</AltitudeMeters>
            <DistanceMeters>72557.696574213</DistanceMeters>
          </Trackpoint>
          <Trackpoint>
            <Time>2019-07-26T14:26:48.000Z</Time>
            <Position>
              <LatitudeDegrees>42.9257713258266448974609375</LatitudeDegrees>
              <LongitudeDegrees>-8.27362096868455410003662109375</LongitudeDegrees>
            </Position>
            <AltitudeMeters>380.79998779296875</AltitudeMeters>
            <DistanceMeters>72593.520763309</DistanceMeters>
          </Trackpoint>
          <Trackpoint>
            <Time>2019-07-26T14:26:49.000Z</Time>
            <Position>
              <LatitudeDegrees>42.92579538188874721527099609375</LatitudeDegrees>
              <LongitudeDegrees>-8.2737140916287899017333984375</LongitudeDegrees>
            </Position>
            <AltitudeMeters>380.79998779296875</AltitudeMeters>
            <DistanceMeters>72601.568353523</DistanceMeters>
          </Trackpoint>
          <Trackpoint>
            <Time>2019-07-26T14:26:50.000Z</Time>
            <Position>
              <LatitudeDegrees>42.92582488618791103363037109375</LatitudeDegrees>
              <LongitudeDegrees>-8.27379849739372730255126953125</LongitudeDegrees>
            </Position>
            <AltitudeMeters>380.600006103515625</AltitudeMeters>
            <DistanceMeters>72609.191249424</DistanceMeters>
          </Trackpoint>
          <Trackpoint>
            <Time>2019-07-26T14:26:54.000Z</Time>
            <Position>
              <LatitudeDegrees>42.92596771381795406341552734375</LatitudeDegrees>
              <LongitudeDegrees>-8.2740993238985538482666015625</LongitudeDegrees>
            </Position>
            <AltitudeMeters>380</AltitudeMeters>
            <DistanceMeters>72638.410998358</DistanceMeters>
          </Trackpoint>
          <Trackpoint>
            <Time>2019-07-26T14:26:55.000Z</Time>
            <Position>
              <LatitudeDegrees>42.9260098747909069061279296875</LatitudeDegrees>
              <LongitudeDegrees>-8.27415858395397663116455078125</LongitudeDegrees>
            </Position>
            <AltitudeMeters>379.600006103515625</AltitudeMeters>
            <DistanceMeters>72645.145168233</DistanceMeters>
          </Trackpoint>
          <Trackpoint>
            <Time>2019-07-26T14:26:58.000Z</Time>
            <Position>
              <LatitudeDegrees>42.9261235333979129791259765625</LatitudeDegrees>
              <LongitudeDegrees>-8.27429872937500476837158203125</LongitudeDegrees>
            </Position>
            <AltitudeMeters>379</AltitudeMeters>
            <DistanceMeters>72662.189157179</DistanceMeters>
          </Trackpoint>
          <Trackpoint>
            <Time>2019-07-26T14:27:01.000Z</Time>
            <Position>
              <LatitudeDegrees>42.9262060113251209259033203125</LatitudeDegrees>
              <LongitudeDegrees>-8.274488747119903564453125</LongitudeDegrees>
            </Position>
            <AltitudeMeters>378.399993896484375</AltitudeMeters>
            <DistanceMeters>72680.191641551</DistanceMeters>
          </Trackpoint>
          <Trackpoint>
            <Time>2019-07-26T14:27:03.000Z</Time>
            <Position>
              <LatitudeDegrees>42.9262579791247844696044921875</LatitudeDegrees>
              <LongitudeDegrees>-8.27464423142373561859130859375</LongitudeDegrees>
            </Position>
            <AltitudeMeters>378</AltitudeMeters>
            <DistanceMeters>72694.120755754</DistanceMeters>
          </Trackpoint>
          <Trackpoint>
            <Time>2019-07-26T14:27:09.000Z</Time>
            <Position>
              <LatitudeDegrees>42.92637490667402744293212890625</LatitudeDegrees>
              <LongitudeDegrees>-8.275144211947917938232421875</LongitudeDegrees>
            </Position>
            <AltitudeMeters>377.600006103515625</AltitudeMeters>
            <DistanceMeters>72736.896289996</DistanceMeters>
          </Trackpoint>
          <Trackpoint>
            <Time>2019-07-26T14:27:12.000Z</Time>
            <Position>
              <LatitudeDegrees>42.9264391958713531494140625</LatitudeDegrees>
              <LongitudeDegrees>-8.27538485638797283172607421875</LongitudeDegrees>
            </Position>
            <AltitudeMeters>377.399993896484375</AltitudeMeters>
            <DistanceMeters>72757.772990875</DistanceMeters>
          </Trackpoint>
          <Trackpoint>
            <Time>2019-07-26T14:27:14.000Z</Time>
            <Position>
              <LatitudeDegrees>42.92646107263863086700439453125</LatitudeDegrees>
              <LongitudeDegrees>-8.275565989315509796142578125</LongitudeDegrees>
            </Position>
            <AltitudeMeters>377</AltitudeMeters>
            <DistanceMeters>72772.734493639</DistanceMeters>
          </Trackpoint>
          <Trackpoint>
            <Time>2019-07-26T14:27:15.000Z</Time>
            <Position>
              <LatitudeDegrees>42.926463671028614044189453125</LatitudeDegrees>
              <LongitudeDegrees>-8.2756556756794452667236328125</LongitudeDegrees>
            </Position>
            <AltitudeMeters>377</AltitudeMeters>
            <DistanceMeters>72780.049699241</DistanceMeters>
          </Trackpoint>
          <Trackpoint>
            <Time>2019-07-26T14:27:17.000Z</Time>
            <Position>
              <LatitudeDegrees>42.92647046037018299102783203125</LatitudeDegrees>
              <LongitudeDegrees>-8.2758300192654132843017578125</LongitudeDegrees>
            </Position>
            <AltitudeMeters>377</AltitudeMeters>
            <DistanceMeters>72794.278343375</DistanceMeters>
          </Trackpoint>
          <Trackpoint>
            <Time>2019-07-26T14:27:20.000Z</Time>
            <Position>
              <LatitudeDegrees>42.9264936782419681549072265625</LatitudeDegrees>
              <LongitudeDegrees>-8.27610435895621776580810546875</LongitudeDegrees>
            </Position>
            <AltitudeMeters>376.79998779296875</AltitudeMeters>
            <DistanceMeters>72816.785035006</DistanceMeters>
          </Trackpoint>
          <Trackpoint>
            <Time>2019-07-26T14:27:27.000Z</Time>
            <Position>
              <LatitudeDegrees>42.9265137948095798492431640625</LatitudeDegrees>
              <LongitudeDegrees>-8.27675043605268001556396484375</LongitudeDegrees>
            </Position>
            <AltitudeMeters>376.399993896484375</AltitudeMeters>
            <DistanceMeters>72869.48692276</DistanceMeters>
          </Trackpoint>
          <Trackpoint>
            <Time>2019-07-26T14:27:29.000Z</Time>
            <Position>
              <LatitudeDegrees>42.9264982044696807861328125</LatitudeDegrees>
              <LongitudeDegrees>-8.27693819068372249603271484375</LongitudeDegrees>
            </Position>
            <AltitudeMeters>376.399993896484375</AltitudeMeters>
            <DistanceMeters>72884.886528845</DistanceMeters>
          </Trackpoint>
          <Trackpoint>
            <Time>2019-07-26T14:27:31.000Z</Time>
            <Position>
              <LatitudeDegrees>42.92645755223929882049560546875</LatitudeDegrees>
              <LongitudeDegrees>-8.27712410129606723785400390625</LongitudeDegrees>
            </Position>
            <AltitudeMeters>376.399993896484375</AltitudeMeters>
            <DistanceMeters>72900.698985538</DistanceMeters>
          </Trackpoint>
          <Trackpoint>
            <Time>2019-07-26T14:27:32.000Z</Time>
            <Position>
              <LatitudeDegrees>42.92643626220524311065673828125</LatitudeDegrees>
              <LongitudeDegrees>-8.27722166664898395538330078125</LongitudeDegrees>
            </Position>
            <AltitudeMeters>376.20001220703125</AltitudeMeters>
            <DistanceMeters>72908.995748324</DistanceMeters>
          </Trackpoint>
          <Trackpoint>
            <Time>2019-07-26T14:27:35.000Z</Time>
            <Position>
              <LatitudeDegrees>42.92638228274881839752197265625</LatitudeDegrees>
              <LongitudeDegrees>-8.2775134406983852386474609375</LongitudeDegrees>
            </Position>
            <AltitudeMeters>375.79998779296875</AltitudeMeters>
            <DistanceMeters>72933.522215098</DistanceMeters>
          </Trackpoint>
          <Trackpoint>
            <Time>2019-07-26T14:27:36.000Z</Time>
            <Position>
              <LatitudeDegrees>42.926352359354496002197265625</LatitudeDegrees>
              <LongitudeDegrees>-8.27759415842592716217041015625</LongitudeDegrees>
            </Position>
            <AltitudeMeters>375.399993896484375</AltitudeMeters>
            <DistanceMeters>72940.895210431</DistanceMeters>
          </Trackpoint>
          <Trackpoint>
            <Time>2019-07-26T14:27:37.000Z</Time>
            <Position>
              <LatitudeDegrees>42.92631514370441436767578125</LatitudeDegrees>
              <LongitudeDegrees>-8.27764176763594150543212890625</LongitudeDegrees>
            </Position>
            <AltitudeMeters>375.20001220703125</AltitudeMeters>
            <DistanceMeters>72946.569825185</DistanceMeters>
          </Trackpoint>
          <Trackpoint>
            <Time>2019-07-26T14:27:39.000Z</Time>
            <Position>
              <LatitudeDegrees>42.9262809455394744873046875</LatitudeDegrees>
              <LongitudeDegrees>-8.27773061580955982208251953125</LongitudeDegrees>
            </Position>
            <AltitudeMeters>374.600006103515625</AltitudeMeters>
            <DistanceMeters>72954.750957539</DistanceMeters>
          </Trackpoint>
          <Trackpoint>
            <Time>2019-07-26T14:27:41.000Z</Time>
            <Position>
              <LatitudeDegrees>42.92629092000424861907958984375</LatitudeDegrees>
              <LongitudeDegrees>-8.277851901948451995849609375</LongitudeDegrees>
            </Position>
            <AltitudeMeters>373.79998779296875</AltitudeMeters>
            <DistanceMeters>72964.697944399</DistanceMeters>
          </Trackpoint>
          <Trackpoint>
            <Time>2019-07-26T14:27:43.000Z</Time>
            <Position>
              <LatitudeDegrees>42.9263032414019107818603515625</LatitudeDegrees>
              <LongitudeDegrees>-8.2779898680746555328369140625</LongitudeDegrees>
            </Position>
            <AltitudeMeters>373.399993896484375</AltitudeMeters>
            <DistanceMeters>72976.025272248</DistanceMeters>
          </Trackpoint>
          <Trackpoint>
            <Time>2019-07-26T14:27:44.000Z</Time>
            <Position>
              <LatitudeDegrees>42.92630575597286224365234375</LatitudeDegrees>
              <LongitudeDegrees>-8.27806555666029453277587890625</LongitudeDegrees>
            </Position>
            <AltitudeMeters>373.399993896484375</AltitudeMeters>
            <DistanceMeters>72982.20054656</DistanceMeters>
          </Trackpoint>
          <Trackpoint>
            <Time>2019-07-26T14:27:46.000Z</Time>
            <Position>
              <LatitudeDegrees>42.926298044621944427490234375</LatitudeDegrees>
              <LongitudeDegrees>-8.27821458689868450164794921875</LongitudeDegrees>
            </Position>
            <AltitudeMeters>372.79998779296875</AltitudeMeters>
            <DistanceMeters>72994.376580194</DistanceMeters>
          </Trackpoint>
          <Trackpoint>
            <Time>2019-07-26T14:27:47.000Z</Time>
            <Position>
              <LatitudeDegrees>42.926301062107086181640625</LatitudeDegrees>
              <LongitudeDegrees>-8.278288431465625762939453125</LongitudeDegrees>
            </Position>
            <AltitudeMeters>371.600006103515625</AltitudeMeters>
            <DistanceMeters>73000.403851345</DistanceMeters>
          </Trackpoint>
          <Trackpoint>
            <Time>2019-07-26T14:27:48.000Z</Time>
            <Position>
              <LatitudeDegrees>42.92630768381059169769287109375</LatitudeDegrees>
              <LongitudeDegrees>-8.2783640362322330474853515625</LongitudeDegrees>
            </Position>
            <AltitudeMeters>371</AltitudeMeters>
            <DistanceMeters>73006.610485386</DistanceMeters>
          </Trackpoint>
          <Trackpoint>
            <Time>2019-07-26T14:27:53.000Z</Time>
            <Position>
              <LatitudeDegrees>42.92635495774447917938232421875</LatitudeDegrees>
              <LongitudeDegrees>-8.27876829542219638824462890625</LongitudeDegrees>
            </Position>
            <AltitudeMeters>370.79998779296875</AltitudeMeters>
            <DistanceMeters>73039.974742361</DistanceMeters>
          </Trackpoint>
          <Trackpoint>
            <Time>2019-07-26T14:27:56.000Z</Time>
            <Position>
              <LatitudeDegrees>42.926393933594226837158203125</LatitudeDegrees>
              <LongitudeDegrees>-8.27903148718178272247314453125</LongitudeDegrees>
            </Position>
            <AltitudeMeters>370.399993896484375</AltitudeMeters>
            <DistanceMeters>73061.858963487</DistanceMeters>
          </Trackpoint>
          <Trackpoint>
            <Time>2019-07-26T14:27:58.000Z</Time>
            <Position>
              <LatitudeDegrees>42.9264155589044094085693359375</LatitudeDegrees>
              <LongitudeDegrees>-8.279207088053226470947265625</LongitudeDegrees>
            </Position>
            <AltitudeMeters>370.399993896484375</AltitudeMeters>
            <DistanceMeters>73076.371630471</DistanceMeters>
          </Trackpoint>
          <Trackpoint>
            <Time>2019-07-26T14:28:01.000Z</Time>
            <Position>
              <LatitudeDegrees>42.92643584311008453369140625</LatitudeDegrees>
              <LongitudeDegrees>-8.2794677652418613433837890625</LongitudeDegrees>
            </Position>
            <AltitudeMeters>370.399993896484375</AltitudeMeters>
            <DistanceMeters>73097.736163558</DistanceMeters>
          </Trackpoint>
          <Trackpoint>
            <Time>2019-07-26T14:28:02.000Z</Time>
            <Position>
              <LatitudeDegrees>42.926445566117763519287109375</LatitudeDegrees>
              <LongitudeDegrees>-8.27955317683517932891845703125</LongitudeDegrees>
            </Position>
            <AltitudeMeters>370.399993896484375</AltitudeMeters>
            <DistanceMeters>73104.779688242</DistanceMeters>
          </Trackpoint>
          <Trackpoint>
            <Time>2019-07-26T14:28:06.000Z</Time>
            <Position>
              <LatitudeDegrees>42.92649191804230213165283203125</LatitudeDegrees>
              <LongitudeDegrees>-8.279878981411457061767578125</LongitudeDegrees>
            </Position>
            <AltitudeMeters>370.20001220703125</AltitudeMeters>
            <DistanceMeters>73131.828771661</DistanceMeters>
          </Trackpoint>
          <Trackpoint>
            <Time>2019-07-26T14:28:07.000Z</Time>
            <Position>
              <LatitudeDegrees>42.92649175040423870086669921875</LatitudeDegrees>
              <LongitudeDegrees>-8.2799643091857433319091796875</LongitudeDegrees>
            </Position>
            <AltitudeMeters>370.20001220703125</AltitudeMeters>
            <DistanceMeters>73138.782623785</DistanceMeters>
          </Trackpoint>
          <Trackpoint>
            <Time>2019-07-26T14:28:10.000Z</Time>
            <Position>
              <LatitudeDegrees>42.9264718852937221527099609375</LatitudeDegrees>
              <LongitudeDegrees>-8.28020813874900341033935546875</LongitudeDegrees>
            </Position>
            <AltitudeMeters>370.399993896484375</AltitudeMeters>
            <DistanceMeters>73158.776885818</DistanceMeters>
          </Trackpoint>
          <Trackpoint>
            <Time>2019-07-26T14:28:13.000Z</Time>
            <Position>
              <LatitudeDegrees>42.92643575929105281829833984375</LatitudeDegrees>
              <LongitudeDegrees>-8.28042908571660518646240234375</LongitudeDegrees>
            </Position>
            <AltitudeMeters>370.399993896484375</AltitudeMeters>
            <DistanceMeters>73177.227491549</DistanceMeters>
          </Trackpoint>
          <Trackpoint>
            <Time>2019-07-26T14:28:22.000Z</Time>
            <Position>
              <LatitudeDegrees>42.926299385726451873779296875</LatitudeDegrees>
              <LongitudeDegrees>-8.2810775935649871826171875</LongitudeDegrees>
            </Position>
            <AltitudeMeters>371</AltitudeMeters>
            <DistanceMeters>73232.216356583</DistanceMeters>
          </Trackpoint>
          <Trackpoint>
            <Time>2019-07-26T14:28:29.000Z</Time>
            <Position>
              <LatitudeDegrees>42.92615010403096675872802734375</LatitudeDegrees>
              <LongitudeDegrees>-8.28156081028282642364501953125</LongitudeDegrees>
            </Position>
            <AltitudeMeters>371.399993896484375</AltitudeMeters>
            <DistanceMeters>73274.959579746</DistanceMeters>
          </Trackpoint>
          <Trackpoint>
            <Time>2019-07-26T14:28:32.000Z</Time>
            <Position>
              <LatitudeDegrees>42.92607500217854976654052734375</LatitudeDegrees>
              <LongitudeDegrees>-8.28175292350351810455322265625</LongitudeDegrees>
            </Position>
            <AltitudeMeters>371.600006103515625</AltitudeMeters>
            <DistanceMeters>73292.707965212</DistanceMeters>
          </Trackpoint>
          <Trackpoint>
            <Time>2019-07-26T14:28:37.000Z</Time>
            <Position>
              <LatitudeDegrees>42.92594474740326404571533203125</LatitudeDegrees>
              <LongitudeDegrees>-8.28204880468547344207763671875</LongitudeDegrees>
            </Position>
            <AltitudeMeters>372</AltitudeMeters>
            <DistanceMeters>73320.844699776</DistanceMeters>
          </Trackpoint>
          <Trackpoint>
            <Time>2019-07-26T14:28:43.000Z</Time>
            <Position>
              <LatitudeDegrees>42.925773672759532928466796875</LatitudeDegrees>
              <LongitudeDegrees>-8.28238223679363727569580078125</LongitudeDegrees>
            </Position>
            <AltitudeMeters>372.600006103515625</AltitudeMeters>
            <DistanceMeters>73354.026308548</DistanceMeters>
          </Trackpoint>
          <Trackpoint>
            <Time>2019-07-26T14:28:44.000Z</Time>
            <Position>
              <LatitudeDegrees>42.92574643157422542572021484375</LatitudeDegrees>
              <LongitudeDegrees>-8.282428421080112457275390625</LongitudeDegrees>
            </Position>
            <AltitudeMeters>372.600006103515625</AltitudeMeters>
            <DistanceMeters>73358.8596105</DistanceMeters>
          </Trackpoint>
          <Trackpoint>
            <Time>2019-07-26T14:28:48.000Z</Time>
            <Position>
              <LatitudeDegrees>42.9256524704396724700927734375</LatitudeDegrees>
              <LongitudeDegrees>-8.28263469971716403961181640625</LongitudeDegrees>
            </Position>
            <AltitudeMeters>373</AltitudeMeters>
            <DistanceMeters>73378.658489721</DistanceMeters>
          </Trackpoint>
          <Trackpoint>
            <Time>2019-07-26T14:28:49.000Z</Time>
            <Position>
              <LatitudeDegrees>42.92564568109810352325439453125</LatitudeDegrees>
              <LongitudeDegrees>-8.28269965946674346923828125</LongitudeDegrees>
            </Position>
            <AltitudeMeters>373</AltitudeMeters>
            <DistanceMeters>73384.007067306</DistanceMeters>
          </Trackpoint>
          <Trackpoint>
            <Time>2019-07-26T14:28:52.000Z</Time>
            <Position>
              <LatitudeDegrees>42.925622463226318359375</LatitudeDegrees>
              <LongitudeDegrees>-8.282883726060390472412109375</LongitudeDegrees>
            </Position>
            <AltitudeMeters>373.20001220703125</AltitudeMeters>
            <DistanceMeters>73399.229741897</DistanceMeters>
          </Trackpoint>
          <Trackpoint>
            <Time>2019-07-26T14:28:55.000Z</Time>
            <Position>
              <LatitudeDegrees>42.92558667249977588653564453125</LatitudeDegrees>
              <LongitudeDegrees>-8.2830461673438549041748046875</LongitudeDegrees>
            </Position>
            <AltitudeMeters>373.600006103515625</AltitudeMeters>
            <DistanceMeters>73413.055067502</DistanceMeters>
          </Trackpoint>
          <Trackpoint>
            <Time>2019-07-26T14:28:56.000Z</Time>
            <Position>
              <LatitudeDegrees>42.92557812295854091644287109375</LatitudeDegrees>
              <LongitudeDegrees>-8.28309402801096439361572265625</LongitudeDegrees>
            </Position>
            <AltitudeMeters>373.79998779296875</AltitudeMeters>
            <DistanceMeters>73417.071000336</DistanceMeters>
          </Trackpoint>
          <Trackpoint>
            <Time>2019-07-26T14:29:01.000Z</Time>
            <Position>
              <LatitudeDegrees>42.9255163483321666717529296875</LatitudeDegrees>
              <LongitudeDegrees>-8.28331145457923412322998046875</LongitudeDegrees>
            </Position>
            <AltitudeMeters>374.20001220703125</AltitudeMeters>
            <DistanceMeters>73436.078243649</DistanceMeters>
          </Trackpoint>
          <Trackpoint>
            <Time>2019-07-26T14:29:04.000Z</Time>
            <Position>
              <LatitudeDegrees>42.92547318153083324432373046875</LatitudeDegrees>
              <LongitudeDegrees>-8.28344237990677356719970703125</LongitudeDegrees>
            </Position>
            <AltitudeMeters>375</AltitudeMeters>
            <DistanceMeters>73447.780813425</DistanceMeters>
          </Trackpoint>
          <Trackpoint>
            <Time>2019-07-26T14:29:08.000Z</Time>
            <Position>
              <LatitudeDegrees>42.92542221955955028533935546875</LatitudeDegrees>
              <LongitudeDegrees>-8.28362627886235713958740234375</LongitudeDegrees>
            </Position>
            <AltitudeMeters>375.79998779296875</AltitudeMeters>
            <DistanceMeters>73463.805710114</DistanceMeters>
          </Trackpoint>
          <Trackpoint>
            <Time>2019-07-26T14:29:10.000Z</Time>
            <Position>
              <LatitudeDegrees>42.92540662921965122222900390625</LatitudeDegrees>
              <LongitudeDegrees>-8.28371546231210231781005859375</LongitudeDegrees>
            </Position>
            <AltitudeMeters>376.399993896484375</AltitudeMeters>
            <DistanceMeters>73471.278460126</DistanceMeters>
          </Trackpoint>
          <Trackpoint>
            <Time>2019-07-26T14:29:14.000Z</Time>
            <Position>
              <LatitudeDegrees>42.92541283182799816131591796875</LatitudeDegrees>
              <LongitudeDegrees>-8.28390120528638362884521484375</LongitudeDegrees>
            </Position>
            <AltitudeMeters>377.399993896484375</AltitudeMeters>
            <DistanceMeters>73486.431869441</DistanceMeters>
          </Trackpoint>
          <Trackpoint>
            <Time>2019-07-26T14:29:15.000Z</Time>
            <Position>
              <LatitudeDegrees>42.92541534639894962310791015625</LatitudeDegrees>
              <LongitudeDegrees>-8.28394412063062191009521484375</LongitudeDegrees>
            </Position>
            <AltitudeMeters>377.79998779296875</AltitudeMeters>
            <DistanceMeters>73489.941431276</DistanceMeters>
          </Trackpoint>
          <Trackpoint>
            <Time>2019-07-26T14:29:19.000Z</Time>
            <Position>
              <LatitudeDegrees>42.9254429228603839874267578125</LatitudeDegrees>
              <LongitudeDegrees>-8.284086026251316070556640625</LongitudeDegrees>
            </Position>
            <AltitudeMeters>378.79998779296875</AltitudeMeters>
            <DistanceMeters>73501.906498427</DistanceMeters>
          </Trackpoint>
          <Trackpoint>
            <Time>2019-07-26T14:29:20.000Z</Time>
            <Position>
              <LatitudeDegrees>42.9254492931067943572998046875</LatitudeDegrees>
              <LongitudeDegrees>-8.2841227389872074127197265625</LongitudeDegrees>
            </Position>
            <AltitudeMeters>379.20001220703125</AltitudeMeters>
            <DistanceMeters>73504.979845131</DistanceMeters>
          </Trackpoint>
          <Trackpoint>
            <Time>2019-07-26T14:29:23.000Z</Time>
            <Position>
              <LatitudeDegrees>42.9254754446446895599365234375</LatitudeDegrees>
              <LongitudeDegrees>-8.2842260040342807769775390625</LongitudeDegrees>
            </Position>
            <AltitudeMeters>380</AltitudeMeters>
            <DistanceMeters>73513.885019544</DistanceMeters>
          </Trackpoint>
          <Trackpoint>
            <Time>2019-07-26T14:29:26.000Z</Time>
            <Position>
              <LatitudeDegrees>42.92551576159894466400146484375</LatitudeDegrees>
              <LongitudeDegrees>-8.28433513641357421875</LongitudeDegrees>
            </Position>
            <AltitudeMeters>380.79998779296875</AltitudeMeters>
            <DistanceMeters>73523.847880593</DistanceMeters>
          </Trackpoint>
          <Trackpoint>
            <Time>2019-07-26T14:29:27.000Z</Time>
            <Position>
              <LatitudeDegrees>42.92552649043500423431396484375</LatitudeDegrees>
              <LongitudeDegrees>-8.28437126241624355316162109375</LongitudeDegrees>
            </Position>
            <AltitudeMeters>381</AltitudeMeters>
            <DistanceMeters>73527.025241992</DistanceMeters>
          </Trackpoint>
          <Trackpoint>
            <Time>2019-07-26T14:29:30.000Z</Time>
            <Position>
              <LatitudeDegrees>42.92551643215119838714599609375</LatitudeDegrees>
              <LongitudeDegrees>-8.28448575921356678009033203125</LongitudeDegrees>
            </Position>
            <AltitudeMeters>381.600006103515625</AltitudeMeters>
            <DistanceMeters>73536.423763566</DistanceMeters>
          </Trackpoint>
          <Trackpoint>
            <Time>2019-07-26T14:29:32.000Z</Time>
            <Position>
              <LatitudeDegrees>42.92550570331513881683349609375</LatitudeDegrees>
              <LongitudeDegrees>-8.2845767028629779815673828125</LongitudeDegrees>
            </Position>
            <AltitudeMeters>382.20001220703125</AltitudeMeters>
            <DistanceMeters>73543.930272543</DistanceMeters>
          </Trackpoint>
          <Trackpoint>
            <Time>2019-07-26T14:29:37.000Z</Time>
            <Position>
              <LatitudeDegrees>42.92544744908809661865234375</LatitudeDegrees>
              <LongitudeDegrees>-8.2847844064235687255859375</LongitudeDegrees>
            </Position>
            <AltitudeMeters>383</AltitudeMeters>
            <DistanceMeters>73562.057225448</DistanceMeters>
          </Trackpoint>
          <Trackpoint>
            <Time>2019-07-26T14:29:38.000Z</Time>
            <Position>
              <LatitudeDegrees>42.9254382289946079254150390625</LatitudeDegrees>
              <LongitudeDegrees>-8.28482606448233127593994140625</LongitudeDegrees>
            </Position>
            <AltitudeMeters>383.20001220703125</AltitudeMeters>
            <DistanceMeters>73565.603899452</DistanceMeters>
          </Trackpoint>
          <Trackpoint>
            <Time>2019-07-26T14:29:42.000Z</Time>
            <Position>
              <LatitudeDegrees>42.92543496005237102508544921875</LatitudeDegrees>
              <LongitudeDegrees>-8.28497760929167270660400390625</LongitudeDegrees>
            </Position>
            <AltitudeMeters>384</AltitudeMeters>
            <DistanceMeters>73577.960295873</DistanceMeters>
          </Trackpoint>
          <Trackpoint>
            <Time>2019-07-26T14:29:43.000Z</Time>
            <Position>
              <LatitudeDegrees>42.92543428950011730194091796875</LatitudeDegrees>
              <LongitudeDegrees>-8.28500862233340740203857421875</LongitudeDegrees>
            </Position>
            <AltitudeMeters>384.20001220703125</AltitudeMeters>
            <DistanceMeters>73580.488792288</DistanceMeters>
          </Trackpoint>
          <Trackpoint>
            <Time>2019-07-26T14:29:47.000Z</Time>
            <Position>
              <LatitudeDegrees>42.92542959563434123992919921875</LatitudeDegrees>
              <LongitudeDegrees>-8.28514038585126399993896484375</LongitudeDegrees>
            </Position>
            <AltitudeMeters>385.399993896484375</AltitudeMeters>
            <DistanceMeters>73591.240257702</DistanceMeters>
          </Trackpoint>
          <Trackpoint>
            <Time>2019-07-26T14:29:48.000Z</Time>
            <Position>
              <LatitudeDegrees>42.9254333674907684326171875</LatitudeDegrees>
              <LongitudeDegrees>-8.2851681299507617950439453125</LongitudeDegrees>
            </Position>
            <AltitudeMeters>385.79998779296875</AltitudeMeters>
            <DistanceMeters>73593.540610892</DistanceMeters>
          </Trackpoint>
          <Trackpoint>
            <Time>2019-07-26T14:29:52.000Z</Time>
            <Position>
              <LatitudeDegrees>42.9254172742366790771484375</LatitudeDegrees>
              <LongitudeDegrees>-8.2852801121771335601806640625</LongitudeDegrees>
            </Position>
            <AltitudeMeters>386.600006103515625</AltitudeMeters>
            <DistanceMeters>73602.841585697</DistanceMeters>
          </Trackpoint>
          <Trackpoint>
            <Time>2019-07-26T14:29:55.000Z</Time>
            <Position>
              <LatitudeDegrees>42.92540243826806545257568359375</LatitudeDegrees>
              <LongitudeDegrees>-8.28537021763622760772705078125</LongitudeDegrees>
            </Position>
            <AltitudeMeters>387.399993896484375</AltitudeMeters>
            <DistanceMeters>73610.368517317</DistanceMeters>
          </Trackpoint>
          <Trackpoint>
            <Time>2019-07-26T14:29:57.000Z</Time>
            <Position>
              <LatitudeDegrees>42.92538483627140522003173828125</LatitudeDegrees>
              <LongitudeDegrees>-8.285434506833553314208984375</LongitudeDegrees>
            </Position>
            <AltitudeMeters>387.79998779296875</AltitudeMeters>
            <DistanceMeters>73615.962193647</DistanceMeters>
          </Trackpoint>
          <Trackpoint>
            <Time>2019-07-26T14:30:02.000Z</Time>
            <Position>
              <LatitudeDegrees>42.9253295995295047760009765625</LatitudeDegrees>
              <LongitudeDegrees>-8.28563927672803401947021484375</LongitudeDegrees>
            </Position>
            <AltitudeMeters>389</AltitudeMeters>
            <DistanceMeters>73633.747427628</DistanceMeters>
          </Trackpoint>
          <Trackpoint>
            <Time>2019-07-26T14:30:09.000Z</Time>
            <Position>
              <LatitudeDegrees>42.92526639997959136962890625</LatitudeDegrees>
              <LongitudeDegrees>-8.285942785441875457763671875</LongitudeDegrees>
            </Position>
            <AltitudeMeters>390.20001220703125</AltitudeMeters>
            <DistanceMeters>73659.464051407</DistanceMeters>
          </Trackpoint>
          <Trackpoint>
            <Time>2019-07-26T14:30:10.000Z</Time>
            <Position>
              <LatitudeDegrees>42.92525709606707096099853515625</LatitudeDegrees>
              <LongitudeDegrees>-8.2859838567674160003662109375</LongitudeDegrees>
            </Position>
            <AltitudeMeters>390.20001220703125</AltitudeMeters>
            <DistanceMeters>73662.968463478</DistanceMeters>
          </Trackpoint>
          <Trackpoint>
            <Time>2019-07-26T14:30:15.000Z</Time>
            <Position>
              <LatitudeDegrees>42.92521971277892589569091796875</LatitudeDegrees>
              <LongitudeDegrees>-8.28618192113935947418212890625</LongitudeDegrees>
            </Position>
            <AltitudeMeters>390.79998779296875</AltitudeMeters>
            <DistanceMeters>73679.638272787</DistanceMeters>
          </Trackpoint>
          <Trackpoint>
            <Time>2019-07-26T14:30:16.000Z</Time>
            <Position>
              <LatitudeDegrees>42.925219126045703887939453125</LatitudeDegrees>
              <LongitudeDegrees>-8.2862269319593906402587890625</LongitudeDegrees>
            </Position>
            <AltitudeMeters>390.79998779296875</AltitudeMeters>
            <DistanceMeters>73683.306353198</DistanceMeters>
          </Trackpoint>
          <Trackpoint>
            <Time>2019-07-26T14:30:19.000Z</Time>
            <Position>
              <LatitudeDegrees>42.92522189207375049591064453125</LatitudeDegrees>
              <LongitudeDegrees>-8.286384679377079010009765625</LongitudeDegrees>
            </Position>
            <AltitudeMeters>391.20001220703125</AltitudeMeters>
            <DistanceMeters>73696.16694728</DistanceMeters>
          </Trackpoint>
          <Trackpoint>
            <Time>2019-07-26T14:30:22.000Z</Time>
            <Position>
              <LatitudeDegrees>42.925233207643032073974609375</LatitudeDegrees>
              <LongitudeDegrees>-8.28656547702848911285400390625</LongitudeDegrees>
            </Position>
            <AltitudeMeters>391.600006103515625</AltitudeMeters>
            <DistanceMeters>73710.955742075</DistanceMeters>
          </Trackpoint>
          <Trackpoint>
            <Time>2019-07-26T14:30:26.000Z</Time>
            <Position>
              <LatitudeDegrees>42.9252605326473712921142578125</LatitudeDegrees>
              <LongitudeDegrees>-8.28681525774300098419189453125</LongitudeDegrees>
            </Position>
            <AltitudeMeters>391.79998779296875</AltitudeMeters>
            <DistanceMeters>73731.538844283</DistanceMeters>
          </Trackpoint>
          <Trackpoint>
            <Time>2019-07-26T14:30:28.000Z</Time>
            <Position>
              <LatitudeDegrees>42.92526246048510074615478515625</LatitudeDegrees>
              <LongitudeDegrees>-8.28694752417504787445068359375</LongitudeDegrees>
            </Position>
            <AltitudeMeters>392</AltitudeMeters>
            <DistanceMeters>73742.320922197</DistanceMeters>
          </Trackpoint>
          <Trackpoint>
            <Time>2019-07-26T14:30:31.000Z</Time>
            <Position>
              <LatitudeDegrees>42.92523010633885860443115234375</LatitudeDegrees>
              <LongitudeDegrees>-8.28712555579841136932373046875</LongitudeDegrees>
            </Position>
            <AltitudeMeters>392</AltitudeMeters>
            <DistanceMeters>73757.270651024</DistanceMeters>
          </Trackpoint>
          <Trackpoint>
            <Time>2019-07-26T14:30:33.000Z</Time>
            <Position>
              <LatitudeDegrees>42.92520915158092975616455078125</LatitudeDegrees>
              <LongitudeDegrees>-8.28722965903580188751220703125</LongitudeDegrees>
            </Position>
            <AltitudeMeters>392</AltitudeMeters>
            <DistanceMeters>73766.070247918</DistanceMeters>
          </Trackpoint>
          <Trackpoint>
            <Time>2019-07-26T14:30:39.000Z</Time>
            <Position>
              <LatitudeDegrees>42.92515584267675876617431640625</LatitudeDegrees>
              <LongitudeDegrees>-8.28754196874797344207763671875</LongitudeDegrees>
            </Position>
            <AltitudeMeters>392</AltitudeMeters>
            <DistanceMeters>73792.206222411</DistanceMeters>
          </Trackpoint>
          <Trackpoint>
            <Time>2019-07-26T14:30:43.000Z</Time>
            <Position>
              <LatitudeDegrees>42.92511644773185253143310546875</LatitudeDegrees>
              <LongitudeDegrees>-8.2877417095005512237548828125</LongitudeDegrees>
            </Position>
            <AltitudeMeters>392</AltitudeMeters>
            <DistanceMeters>73809.06536492</DistanceMeters>
          </Trackpoint>
          <Trackpoint>
            <Time>2019-07-26T14:30:44.000Z</Time>
            <Position>
              <LatitudeDegrees>42.92509985156357288360595703125</LatitudeDegrees>
              <LongitudeDegrees>-8.28779811970889568328857421875</LongitudeDegrees>
            </Position>
            <AltitudeMeters>392</AltitudeMeters>
            <DistanceMeters>73814.01952961</DistanceMeters>
          </Trackpoint>
          <Trackpoint>
            <Time>2019-07-26T14:30:49.000Z</Time>
            <Position>
              <LatitudeDegrees>42.92499926872551441192626953125</LatitudeDegrees>
              <LongitudeDegrees>-8.28805142082273960113525390625</LongitudeDegrees>
            </Position>
            <AltitudeMeters>392</AltitudeMeters>
            <DistanceMeters>73837.503628246</DistanceMeters>
          </Trackpoint>
          <Trackpoint>
            <Time>2019-07-26T14:30:54.000Z</Time>
            <Position>
              <LatitudeDegrees>42.92485509999096393585205078125</LatitudeDegrees>
              <LongitudeDegrees>-8.28844000585377216339111328125</LongitudeDegrees>
            </Position>
            <AltitudeMeters>391.79998779296875</AltitudeMeters>
            <DistanceMeters>73873.006631224</DistanceMeters>
          </Trackpoint>
          <Trackpoint>
            <Time>2019-07-26T14:31:00.000Z</Time>
            <Position>
              <LatitudeDegrees>42.92465393431484699249267578125</LatitudeDegrees>
              <LongitudeDegrees>-8.2888585142791271209716796875</LongitudeDegrees>
            </Position>
            <AltitudeMeters>391.79998779296875</AltitudeMeters>
            <DistanceMeters>73913.807632225</DistanceMeters>
          </Trackpoint>
          <Trackpoint>
            <Time>2019-07-26T14:31:01.000Z</Time>
            <Position>
              <LatitudeDegrees>42.9246251843869686126708984375</LatitudeDegrees>
              <LongitudeDegrees>-8.28892498277127742767333984375</LongitudeDegrees>
            </Position>
            <AltitudeMeters>391.79998779296875</AltitudeMeters>
            <DistanceMeters>73920.099520266</DistanceMeters>
          </Trackpoint>
          <Trackpoint>
            <Time>2019-07-26T14:31:07.000Z</Time>
            <Position>
              <LatitudeDegrees>42.9244813509285449981689453125</LatitudeDegrees>
              <LongitudeDegrees>-8.2893426530063152313232421875</LongitudeDegrees>
            </Position>
            <AltitudeMeters>392.20001220703125</AltitudeMeters>
            <DistanceMeters>73957.716538609</DistanceMeters>
          </Trackpoint>
          <Trackpoint>
            <Time>2019-07-26T14:31:08.000Z</Time>
            <Position>
              <LatitudeDegrees>42.92446165345609188079833984375</LatitudeDegrees>
              <LongitudeDegrees>-8.28940928913652896881103515625</LongitudeDegrees>
            </Position>
            <AltitudeMeters>392.20001220703125</AltitudeMeters>
            <DistanceMeters>73963.572836957</DistanceMeters>
          </Trackpoint>
          <Trackpoint>
            <Time>2019-07-26T14:31:15.000Z</Time>
            <Position>
              <LatitudeDegrees>42.92434195987880229949951171875</LatitudeDegrees>
              <LongitudeDegrees>-8.28984238207340240478515625</LongitudeDegrees>
            </Position>
            <AltitudeMeters>392.600006103515625</AltitudeMeters>
            <DistanceMeters>74001.300955779</DistanceMeters>
          </Trackpoint>
          <Trackpoint>
            <Time>2019-07-26T14:31:18.000Z</Time>
            <Position>
              <LatitudeDegrees>42.92429451830685138702392578125</LatitudeDegrees>
              <LongitudeDegrees>-8.290029466152191162109375</LongitudeDegrees>
            </Position>
            <AltitudeMeters>392.79998779296875</AltitudeMeters>
            <DistanceMeters>74017.437320123</DistanceMeters>
          </Trackpoint>
          <Trackpoint>
            <Time>2019-07-26T14:31:21.000Z</Time>
            <Position>
              <LatitudeDegrees>42.9242463223636150360107421875</LatitudeDegrees>
              <LongitudeDegrees>-8.2902113534510135650634765625</LongitudeDegrees>
            </Position>
            <AltitudeMeters>393</AltitudeMeters>
            <DistanceMeters>74033.202306453</DistanceMeters>
          </Trackpoint>
          <Trackpoint>
            <Time>2019-07-26T14:31:22.000Z</Time>
            <Position>
              <LatitudeDegrees>42.924220673739910125732421875</LatitudeDegrees>
              <LongitudeDegrees>-8.29025812447071075439453125</LongitudeDegrees>
            </Position>
            <AltitudeMeters>393.20001220703125</AltitudeMeters>
            <DistanceMeters>74037.965031726</DistanceMeters>
          </Trackpoint>
          <Trackpoint>
            <Time>2019-07-26T14:31:26.000Z</Time>
            <Position>
              <LatitudeDegrees>42.9240682907402515411376953125</LatitudeDegrees>
              <LongitudeDegrees>-8.29041503369808197021484375</LongitudeDegrees>
            </Position>
            <AltitudeMeters>393.600006103515625</AltitudeMeters>
            <DistanceMeters>74059.206850381</DistanceMeters>
          </Trackpoint>
          <Trackpoint>
            <Time>2019-07-26T14:31:30.000Z</Time>
            <Position>
              <LatitudeDegrees>42.9239046759903430938720703125</LatitudeDegrees>
              <LongitudeDegrees>-8.29063002951443195343017578125</LongitudeDegrees>
            </Position>
            <AltitudeMeters>394.20001220703125</AltitudeMeters>
            <DistanceMeters>74084.478775844</DistanceMeters>
          </Trackpoint>
          <Trackpoint>
            <Time>2019-07-26T14:31:31.000Z</Time>
            <Position>
              <LatitudeDegrees>42.92386620305478572845458984375</LatitudeDegrees>
              <LongitudeDegrees>-8.29069800674915313720703125</LongitudeDegrees>
            </Position>
            <AltitudeMeters>394.600006103515625</AltitudeMeters>
            <DistanceMeters>74091.481155089</DistanceMeters>
          </Trackpoint>
          <Trackpoint>
            <Time>2019-07-26T14:31:35.000Z</Time>
            <Position>
              <LatitudeDegrees>42.92370527051389217376708984375</LatitudeDegrees>
              <LongitudeDegrees>-8.29093915410339832305908203125</LongitudeDegrees>
            </Position>
            <AltitudeMeters>394.79998779296875</AltitudeMeters>
            <DistanceMeters>74118.073018999</DistanceMeters>
          </Trackpoint>
          <Trackpoint>
            <Time>2019-07-26T14:31:37.000Z</Time>
            <Position>
              <LatitudeDegrees>42.92363251559436321258544921875</LatitudeDegrees>
              <LongitudeDegrees>-8.29104795120656490325927734375</LongitudeDegrees>
            </Position>
            <AltitudeMeters>395</AltitudeMeters>
            <DistanceMeters>74130.081403184</DistanceMeters>
          </Trackpoint>
          <Trackpoint>
            <Time>2019-07-26T14:31:40.000Z</Time>
            <Position>
              <LatitudeDegrees>42.92354308068752288818359375</LatitudeDegrees>
              <LongitudeDegrees>-8.29118608497083187103271484375</LongitudeDegrees>
            </Position>
            <AltitudeMeters>395.20001220703125</AltitudeMeters>
            <DistanceMeters>74145.10945069</DistanceMeters>
          </Trackpoint>
          <Trackpoint>
            <Time>2019-07-26T14:31:42.000Z</Time>
            <Position>
              <LatitudeDegrees>42.923492453992366790771484375</LatitudeDegrees>
              <LongitudeDegrees>-8.2912872545421123504638671875</LongitudeDegrees>
            </Position>
            <AltitudeMeters>395.20001220703125</AltitudeMeters>
            <DistanceMeters>74155.09675385</DistanceMeters>
          </Trackpoint>
          <Trackpoint>
            <Time>2019-07-26T14:31:47.000Z</Time>
            <Position>
              <LatitudeDegrees>42.9233923740684986114501953125</LatitudeDegrees>
              <LongitudeDegrees>-8.2914736680686473846435546875</LongitudeDegrees>
            </Position>
            <AltitudeMeters>395.600006103515625</AltitudeMeters>
            <DistanceMeters>74173.936264317</DistanceMeters>
          </Trackpoint>
          <Trackpoint>
            <Time>2019-07-26T14:31:53.000Z</Time>
            <Position>
              <LatitudeDegrees>42.9232760332524776458740234375</LatitudeDegrees>
              <LongitudeDegrees>-8.291672654449939727783203125</LongitudeDegrees>
            </Position>
            <AltitudeMeters>396.20001220703125</AltitudeMeters>
            <DistanceMeters>74194.689541795</DistanceMeters>
          </Trackpoint>
          <Trackpoint>
            <Time>2019-07-26T14:31:55.000Z</Time>
            <Position>
              <LatitudeDegrees>42.92324661277234554290771484375</LatitudeDegrees>
              <LongitudeDegrees>-8.2917314954102039337158203125</LongitudeDegrees>
            </Position>
            <AltitudeMeters>396.600006103515625</AltitudeMeters>
            <DistanceMeters>74200.49628834</DistanceMeters>
          </Trackpoint>
          <Trackpoint>
            <Time>2019-07-26T14:31:58.000Z</Time>
            <Position>
              <LatitudeDegrees>42.923197411000728607177734375</LatitudeDegrees>
              <LongitudeDegrees>-8.2918359339237213134765625</LongitudeDegrees>
            </Position>
            <AltitudeMeters>397.399993896484375</AltitudeMeters>
            <DistanceMeters>74210.617414126</DistanceMeters>
          </Trackpoint>
          <Trackpoint>
            <Time>2019-07-26T14:31:59.000Z</Time>
            <Position>
              <LatitudeDegrees>42.923191376030445098876953125</LatitudeDegrees>
              <LongitudeDegrees>-8.2918686233460903167724609375</LongitudeDegrees>
            </Position>
            <AltitudeMeters>398.20001220703125</AltitudeMeters>
            <DistanceMeters>74213.364984672</DistanceMeters>
          </Trackpoint>
          <Trackpoint>
            <Time>2019-07-26T14:32:03.000Z</Time>
            <Position>
              <LatitudeDegrees>42.92317084036767482757568359375</LatitudeDegrees>
              <LongitudeDegrees>-8.2919946871697902679443359375</LongitudeDegrees>
            </Position>
            <AltitudeMeters>399.600006103515625</AltitudeMeters>
            <DistanceMeters>74223.891096869</DistanceMeters>
          </Trackpoint>
          <Trackpoint>
            <Time>2019-07-26T14:32:06.000Z</Time>
            <Position>
              <LatitudeDegrees>42.92315416038036346435546875</LatitudeDegrees>
              <LongitudeDegrees>-8.292097114026546478271484375</LongitudeDegrees>
            </Position>
            <AltitudeMeters>400.79998779296875</AltitudeMeters>
            <DistanceMeters>74232.443501162</DistanceMeters>
          </Trackpoint>
          <Trackpoint>
            <Time>2019-07-26T14:32:10.000Z</Time>
            <Position>
              <LatitudeDegrees>42.92311937548220157623291015625</LatitudeDegrees>
              <LongitudeDegrees>-8.29227908514440059661865234375</LongitudeDegrees>
            </Position>
            <AltitudeMeters>401.79998779296875</AltitudeMeters>
            <DistanceMeters>74247.77199062</DistanceMeters>
          </Trackpoint>
          <Trackpoint>
            <Time>2019-07-26T14:32:16.000Z</Time>
            <Position>
              <LatitudeDegrees>42.92301476933062076568603515625</LatitudeDegrees>
              <LongitudeDegrees>-8.29253473319113254547119140625</LongitudeDegrees>
            </Position>
            <AltitudeMeters>402.79998779296875</AltitudeMeters>
            <DistanceMeters>74271.640537347</DistanceMeters>
          </Trackpoint>
          <Trackpoint>
            <Time>2019-07-26T14:32:17.000Z</Time>
            <Position>
              <LatitudeDegrees>42.922988198697566986083984375</LatitudeDegrees>
              <LongitudeDegrees>-8.29256750643253326416015625</LongitudeDegrees>
            </Position>
            <AltitudeMeters>403</AltitudeMeters>
            <DistanceMeters>74275.625998985</DistanceMeters>
          </Trackpoint>
          <Trackpoint>
            <Time>2019-07-26T14:32:22.000Z</Time>
            <Position>
              <LatitudeDegrees>42.92282567359507083892822265625</LatitudeDegrees>
              <LongitudeDegrees>-8.29280798323452472686767578125</LongitudeDegrees>
            </Position>
            <AltitudeMeters>403.600006103515625</AltitudeMeters>
            <DistanceMeters>74302.297544911</DistanceMeters>
          </Trackpoint>
          <Trackpoint>
            <Time>2019-07-26T14:32:26.000Z</Time>
            <Position>
              <LatitudeDegrees>42.9227493144571781158447265625</LatitudeDegrees>
              <LongitudeDegrees>-8.292991630733013153076171875</LongitudeDegrees>
            </Position>
            <AltitudeMeters>404</AltitudeMeters>
            <DistanceMeters>74319.509713513</DistanceMeters>
          </Trackpoint>
          <Trackpoint>
            <Time>2019-07-26T14:32:27.000Z</Time>
            <Position>
              <LatitudeDegrees>42.9227305389940738677978515625</LatitudeDegrees>
              <LongitudeDegrees>-8.29305675812065601348876953125</LongitudeDegrees>
            </Position>
            <AltitudeMeters>404.20001220703125</AltitudeMeters>
            <DistanceMeters>74325.214483053</DistanceMeters>
          </Trackpoint>
          <Trackpoint>
            <Time>2019-07-26T14:32:34.000Z</Time>
            <Position>
              <LatitudeDegrees>42.9226098395884037017822265625</LatitudeDegrees>
              <LongitudeDegrees>-8.29340980388224124908447265625</LongitudeDegrees>
            </Position>
            <AltitudeMeters>405</AltitudeMeters>
            <DistanceMeters>74356.97061391</DistanceMeters>
          </Trackpoint>
          <Trackpoint>
            <Time>2019-07-26T14:32:35.000Z</Time>
            <Position>
              <LatitudeDegrees>42.9225917346775531768798828125</LatitudeDegrees>
              <LongitudeDegrees>-8.29345263540744781494140625</LongitudeDegrees>
            </Position>
            <AltitudeMeters>405.20001220703125</AltitudeMeters>
            <DistanceMeters>74361.002255958</DistanceMeters>
          </Trackpoint>
          <Trackpoint>
            <Time>2019-07-26T14:32:39.000Z</Time>
            <Position>
              <LatitudeDegrees>42.92250816710293292999267578125</LatitudeDegrees>
              <LongitudeDegrees>-8.293644748628139495849609375</LongitudeDegrees>
            </Position>
            <AltitudeMeters>406.20001220703125</AltitudeMeters>
            <DistanceMeters>74379.21469039</DistanceMeters>
          </Trackpoint>
          <Trackpoint>
            <Time>2019-07-26T14:32:40.000Z</Time>
            <Position>
              <LatitudeDegrees>42.92249341495335102081298828125</LatitudeDegrees>
              <LongitudeDegrees>-8.29369361512362957000732421875</LongitudeDegrees>
            </Position>
            <AltitudeMeters>406.399993896484375</AltitudeMeters>
            <DistanceMeters>74383.523499641</DistanceMeters>
          </Trackpoint>
          <Trackpoint>
            <Time>2019-07-26T14:32:45.000Z</Time>
            <Position>
              <LatitudeDegrees>42.9223640821874141693115234375</LatitudeDegrees>
              <LongitudeDegrees>-8.29392009414732456207275390625</LongitudeDegrees>
            </Position>
            <AltitudeMeters>407.20001220703125</AltitudeMeters>
            <DistanceMeters>74406.931725517</DistanceMeters>
          </Trackpoint>
          <Trackpoint>
            <Time>2019-07-26T14:32:46.000Z</Time>
            <Position>
              <LatitudeDegrees>42.92234572581946849822998046875</LatitudeDegrees>
              <LongitudeDegrees>-8.29396317712962627410888671875</LongitudeDegrees>
            </Position>
            <AltitudeMeters>407.399993896484375</AltitudeMeters>
            <DistanceMeters>74410.994603775</DistanceMeters>
          </Trackpoint>
          <Trackpoint>
            <Time>2019-07-26T14:32:50.000Z</Time>
            <Position>
              <LatitudeDegrees>42.9222742281854152679443359375</LatitudeDegrees>
              <LongitudeDegrees>-8.29415830783545970916748046875</LongitudeDegrees>
            </Position>
            <AltitudeMeters>407.600006103515625</AltitudeMeters>
            <DistanceMeters>74428.778314504</DistanceMeters>
          </Trackpoint>
          <Trackpoint>
            <Time>2019-07-26T14:32:54.000Z</Time>
            <Position>
              <LatitudeDegrees>42.92218747548758983612060546875</LatitudeDegrees>
              <LongitudeDegrees>-8.2943811826407909393310546875</LongitudeDegrees>
            </Position>
            <AltitudeMeters>408</AltitudeMeters>
            <DistanceMeters>74449.350226486</DistanceMeters>
          </Trackpoint>
          <Trackpoint>
            <Time>2019-07-26T14:32:56.000Z</Time>
            <Position>
              <LatitudeDegrees>42.9221260361373424530029296875</LatitudeDegrees>
              <LongitudeDegrees>-8.2945074141025543212890625</LongitudeDegrees>
            </Position>
            <AltitudeMeters>408</AltitudeMeters>
            <DistanceMeters>74461.703699354</DistanceMeters>
          </Trackpoint>
          <Trackpoint>
            <Time>2019-07-26T14:32:59.000Z</Time>
            <Position>
              <LatitudeDegrees>42.9220237769186496734619140625</LatitudeDegrees>
              <LongitudeDegrees>-8.2946986891329288482666015625</LongitudeDegrees>
            </Position>
            <AltitudeMeters>408</AltitudeMeters>
            <DistanceMeters>74481.006055534</DistanceMeters>
          </Trackpoint>
          <Trackpoint>
            <Time>2019-07-26T14:33:00.000Z</Time>
            <Position>
              <LatitudeDegrees>42.92198337614536285400390625</LatitudeDegrees>
              <LongitudeDegrees>-8.29475828446447849273681640625</LongitudeDegrees>
            </Position>
            <AltitudeMeters>408</AltitudeMeters>
            <DistanceMeters>74487.62526477</DistanceMeters>
          </Trackpoint>
          <Trackpoint>
            <Time>2019-07-26T14:33:01.000Z</Time>
            <Position>
              <LatitudeDegrees>42.92193953879177570343017578125</LatitudeDegrees>
              <LongitudeDegrees>-8.2948158681392669677734375</LongitudeDegrees>
            </Position>
            <AltitudeMeters>408</AltitudeMeters>
            <DistanceMeters>74494.395543053</DistanceMeters>
          </Trackpoint>
          <Trackpoint>
            <Time>2019-07-26T14:33:04.000Z</Time>
            <Position>
              <LatitudeDegrees>42.92182437144219875335693359375</LatitudeDegrees>
              <LongitudeDegrees>-8.29501192085444927215576171875</LongitudeDegrees>
            </Position>
            <AltitudeMeters>407.79998779296875</AltitudeMeters>
            <DistanceMeters>74514.880799031</DistanceMeters>
          </Trackpoint>
          <Trackpoint>
            <Time>2019-07-26T14:33:06.000Z</Time>
            <Position>
              <LatitudeDegrees>42.92176100425422191619873046875</LatitudeDegrees>
              <LongitudeDegrees>-8.2951653935015201568603515625</LongitudeDegrees>
            </Position>
            <AltitudeMeters>407.399993896484375</AltitudeMeters>
            <DistanceMeters>74529.240841708</DistanceMeters>
          </Trackpoint>
          <Trackpoint>
            <Time>2019-07-26T14:33:10.000Z</Time>
            <Position>
              <LatitudeDegrees>42.9216251336038112640380859375</LatitudeDegrees>
              <LongitudeDegrees>-8.29555892385542392730712890625</LongitudeDegrees>
            </Position>
            <AltitudeMeters>407</AltitudeMeters>
            <DistanceMeters>74564.7017253</DistanceMeters>
          </Trackpoint>
          <Trackpoint>
            <Time>2019-07-26T14:33:11.000Z</Time>
            <Position>
              <LatitudeDegrees>42.92158179916441440582275390625</LatitudeDegrees>
              <LongitudeDegrees>-8.2956553995609283447265625</LongitudeDegrees>
            </Position>
            <AltitudeMeters>406.79998779296875</AltitudeMeters>
            <DistanceMeters>74573.926171643</DistanceMeters>
          </Trackpoint>
          <Trackpoint>
            <Time>2019-07-26T14:33:13.000Z</Time>
            <Position>
              <LatitudeDegrees>42.921495549380779266357421875</LatitudeDegrees>
              <LongitudeDegrees>-8.2958329282701015472412109375</LongitudeDegrees>
            </Position>
            <AltitudeMeters>406.399993896484375</AltitudeMeters>
            <DistanceMeters>74591.290857433</DistanceMeters>
          </Trackpoint>
          <Trackpoint>
            <Time>2019-07-26T14:33:14.000Z</Time>
            <Position>
              <LatitudeDegrees>42.92145657353103160858154296875</LatitudeDegrees>
              <LongitudeDegrees>-8.29591951332986354827880859375</LongitudeDegrees>
            </Position>
            <AltitudeMeters>406</AltitudeMeters>
            <DistanceMeters>74599.574549297</DistanceMeters>
          </Trackpoint>
          <Trackpoint>
            <Time>2019-07-26T14:33:16.000Z</Time>
            <Position>
              <LatitudeDegrees>42.9213780350983142852783203125</LatitudeDegrees>
              <LongitudeDegrees>-8.29606753773987293243408203125</LongitudeDegrees>
            </Position>
            <AltitudeMeters>405.399993896484375</AltitudeMeters>
            <DistanceMeters>74614.473453255</DistanceMeters>
          </Trackpoint>
          <Trackpoint>
            <Time>2019-07-26T14:33:18.000Z</Time>
            <Position>
              <LatitudeDegrees>42.9212895222008228302001953125</LatitudeDegrees>
              <LongitudeDegrees>-8.29619393683969974517822265625</LongitudeDegrees>
            </Position>
            <AltitudeMeters>405</AltitudeMeters>
            <DistanceMeters>74628.727460411</DistanceMeters>
          </Trackpoint>
          <Trackpoint>
            <Time>2019-07-26T14:33:20.000Z</Time>
            <Position>
              <LatitudeDegrees>42.92117376811802387237548828125</LatitudeDegrees>
              <LongitudeDegrees>-8.29631346277892589569091796875</LongitudeDegrees>
            </Position>
            <AltitudeMeters>404.20001220703125</AltitudeMeters>
            <DistanceMeters>74644.879765776</DistanceMeters>
          </Trackpoint>
          <Trackpoint>
            <Time>2019-07-26T14:33:21.000Z</Time>
            <Position>
              <LatitudeDegrees>42.92111274786293506622314453125</LatitudeDegrees>
              <LongitudeDegrees>-8.29638428986072540283203125</LongitudeDegrees>
            </Position>
            <AltitudeMeters>404</AltitudeMeters>
            <DistanceMeters>74653.793048704</DistanceMeters>
          </Trackpoint>
          <Trackpoint>
            <Time>2019-07-26T14:33:23.000Z</Time>
            <Position>
              <LatitudeDegrees>42.92099095880985260009765625</LatitudeDegrees>
              <LongitudeDegrees>-8.29653541557490825653076171875</LongitudeDegrees>
            </Position>
            <AltitudeMeters>402.600006103515625</AltitudeMeters>
            <DistanceMeters>74672.108816226</DistanceMeters>
          </Trackpoint>
          <Trackpoint>
            <Time>2019-07-26T14:33:25.000Z</Time>
            <Position>
              <LatitudeDegrees>42.92084922082722187042236328125</LatitudeDegrees>
              <LongitudeDegrees>-8.29669768922030925750732421875</LongitudeDegrees>
            </Position>
            <AltitudeMeters>401.79998779296875</AltitudeMeters>
            <DistanceMeters>74692.695427839</DistanceMeters>
          </Trackpoint>
          <Trackpoint>
            <Time>2019-07-26T14:33:26.000Z</Time>
            <Position>
              <LatitudeDegrees>42.92078367434442043304443359375</LatitudeDegrees>
              <LongitudeDegrees>-8.29678519628942012786865234375</LongitudeDegrees>
            </Position>
            <AltitudeMeters>401.399993896484375</AltitudeMeters>
            <DistanceMeters>74702.89786339</DistanceMeters>
          </Trackpoint>
          <Trackpoint>
            <Time>2019-07-26T14:33:27.000Z</Time>
            <Position>
              <LatitudeDegrees>42.92072399519383907318115234375</LatitudeDegrees>
              <LongitudeDegrees>-8.29687639139592647552490234375</LongitudeDegrees>
            </Position>
            <AltitudeMeters>401.399993896484375</AltitudeMeters>
            <DistanceMeters>74712.866161198</DistanceMeters>
          </Trackpoint>
          <Trackpoint>
            <Time>2019-07-26T14:33:30.000Z</Time>
            <Position>
              <LatitudeDegrees>42.9205619730055332183837890625</LatitudeDegrees>
              <LongitudeDegrees>-8.297173865139484405517578125</LongitudeDegrees>
            </Position>
            <AltitudeMeters>400.20001220703125</AltitudeMeters>
            <DistanceMeters>74743.0831622</DistanceMeters>
          </Trackpoint>
          <Trackpoint>
            <Time>2019-07-26T14:33:33.000Z</Time>
            <Position>
              <LatitudeDegrees>42.92043750174343585968017578125</LatitudeDegrees>
              <LongitudeDegrees>-8.29749799333512783050537109375</LongitudeDegrees>
            </Position>
            <AltitudeMeters>399.399993896484375</AltitudeMeters>
            <DistanceMeters>74772.913681021</DistanceMeters>
          </Trackpoint>
          <Trackpoint>
            <Time>2019-07-26T14:33:34.000Z</Time>
            <Position>
              <LatitudeDegrees>42.9204122722148895263671875</LatitudeDegrees>
              <LongitudeDegrees>-8.29762372188270092010498046875</LongitudeDegrees>
            </Position>
            <AltitudeMeters>399.20001220703125</AltitudeMeters>
            <DistanceMeters>74783.538840582</DistanceMeters>
          </Trackpoint>
          <Trackpoint>
            <Time>2019-07-26T14:33:36.000Z</Time>
            <Position>
              <LatitudeDegrees>42.92038788087666034698486328125</LatitudeDegrees>
              <LongitudeDegrees>-8.29788825474679470062255859375</LongitudeDegrees>
            </Position>
            <AltitudeMeters>398.600006103515625</AltitudeMeters>
            <DistanceMeters>74805.270268006</DistanceMeters>
          </Trackpoint>
          <Trackpoint>
            <Time>2019-07-26T14:33:38.000Z</Time>
            <Position>
              <LatitudeDegrees>42.92037229053676128387451171875</LatitudeDegrees>
              <LongitudeDegrees>-8.29811506904661655426025390625</LongitudeDegrees>
            </Position>
            <AltitudeMeters>397.79998779296875</AltitudeMeters>
            <DistanceMeters>74823.838205926</DistanceMeters>
          </Trackpoint>
          <Trackpoint>
            <Time>2019-07-26T14:33:39.000Z</Time>
            <Position>
              <LatitudeDegrees>42.92034027166664600372314453125</LatitudeDegrees>
              <LongitudeDegrees>-8.29819335602223873138427734375</LongitudeDegrees>
            </Position>
            <AltitudeMeters>397.399993896484375</AltitudeMeters>
            <DistanceMeters>74831.147236795</DistanceMeters>
          </Trackpoint>
          <Trackpoint>
            <Time>2019-07-26T14:33:41.000Z</Time>
            <Position>
              <LatitudeDegrees>42.92030607350170612335205078125</LatitudeDegrees>
              <LongitudeDegrees>-8.29835261218249797821044921875</LongitudeDegrees>
            </Position>
            <AltitudeMeters>395.79998779296875</AltitudeMeters>
            <DistanceMeters>74844.674448964</DistanceMeters>
          </Trackpoint>
          <Trackpoint>
            <Time>2019-07-26T14:33:43.000Z</Time>
            <Position>
              <LatitudeDegrees>42.92030632495880126953125</LatitudeDegrees>
              <LongitudeDegrees>-8.29854858107864856719970703125</LongitudeDegrees>
            </Position>
            <AltitudeMeters>394.20001220703125</AltitudeMeters>
            <DistanceMeters>74860.647419253</DistanceMeters>
          </Trackpoint>
          <Trackpoint>
            <Time>2019-07-26T14:33:44.000Z</Time>
            <Position>
              <LatitudeDegrees>42.920305319130420684814453125</LatitudeDegrees>
              <LongitudeDegrees>-8.29865972511470317840576171875</LongitudeDegrees>
            </Position>
            <AltitudeMeters>393.600006103515625</AltitudeMeters>
            <DistanceMeters>74869.707407933</DistanceMeters>
          </Trackpoint>
          <Trackpoint>
            <Time>2019-07-26T14:33:45.000Z</Time>
            <Position>
              <LatitudeDegrees>42.920299284160137176513671875</LatitudeDegrees>
              <LongitudeDegrees>-8.2987632416188716888427734375</LongitudeDegrees>
            </Position>
            <AltitudeMeters>392.600006103515625</AltitudeMeters>
            <DistanceMeters>74878.17172282</DistanceMeters>
          </Trackpoint>
          <Trackpoint>
            <Time>2019-07-26T14:33:46.000Z</Time>
            <Position>
              <LatitudeDegrees>42.92028327472507953643798828125</LatitudeDegrees>
              <LongitudeDegrees>-8.29886457882821559906005859375</LongitudeDegrees>
            </Position>
            <AltitudeMeters>391.20001220703125</AltitudeMeters>
            <DistanceMeters>74886.621088735</DistanceMeters>
          </Trackpoint>
          <Trackpoint>
            <Time>2019-07-26T14:33:47.000Z</Time>
            <Position>
              <LatitudeDegrees>42.9202612303197383880615234375</LatitudeDegrees>
              <LongitudeDegrees>-8.29895024187862873077392578125</LongitudeDegrees>
            </Position>
            <AltitudeMeters>390.20001220703125</AltitudeMeters>
            <DistanceMeters>74894.022199713</DistanceMeters>
          </Trackpoint>
          <Trackpoint>
            <Time>2019-07-26T14:33:48.000Z</Time>
            <Position>
              <LatitudeDegrees>42.92022895999252796173095703125</LatitudeDegrees>
              <LongitudeDegrees>-8.29902534373104572296142578125</LongitudeDegrees>
            </Position>
            <AltitudeMeters>388.600006103515625</AltitudeMeters>
            <DistanceMeters>74901.119365795</DistanceMeters>
          </Trackpoint>
          <Trackpoint>
            <Time>2019-07-26T14:33:49.000Z</Time>
            <Position>
              <LatitudeDegrees>42.92019166052341461181640625</LatitudeDegrees>
              <LongitudeDegrees>-8.29908871091902256011962890625</LongitudeDegrees>
            </Position>
            <AltitudeMeters>387.20001220703125</AltitudeMeters>
            <DistanceMeters>74907.746074009</DistanceMeters>
          </Trackpoint>
          <Trackpoint>
            <Time>2019-07-26T14:33:51.000Z</Time>
            <Position>
              <LatitudeDegrees>42.9200935922563076019287109375</LatitudeDegrees>
              <LongitudeDegrees>-8.29920488409698009490966796875</LongitudeDegrees>
            </Position>
            <AltitudeMeters>385.600006103515625</AltitudeMeters>
            <DistanceMeters>74922.195760079</DistanceMeters>
          </Trackpoint>
          <Trackpoint>
            <Time>2019-07-26T14:33:52.000Z</Time>
            <Position>
              <LatitudeDegrees>42.92003869079053401947021484375</LatitudeDegrees>
              <LongitudeDegrees>-8.29925836063921451568603515625</LongitudeDegrees>
            </Position>
            <AltitudeMeters>384.79998779296875</AltitudeMeters>
            <DistanceMeters>74929.701065993</DistanceMeters>
          </Trackpoint>
          <Trackpoint>
            <Time>2019-07-26T14:33:53.000Z</Time>
            <Position>
              <LatitudeDegrees>42.91998018510639667510986328125</LatitudeDegrees>
              <LongitudeDegrees>-8.299303539097309112548828125</LongitudeDegrees>
            </Position>
            <AltitudeMeters>383.79998779296875</AltitudeMeters>
            <DistanceMeters>74937.182270027</DistanceMeters>
          </Trackpoint>
          <Trackpoint>
            <Time>2019-07-26T14:33:55.000Z</Time>
            <Position>
              <LatitudeDegrees>42.91986568830907344818115234375</LatitudeDegrees>
              <LongitudeDegrees>-8.29940085299313068389892578125</LongitudeDegrees>
            </Position>
            <AltitudeMeters>382.20001220703125</AltitudeMeters>
            <DistanceMeters>74952.192881854</DistanceMeters>
          </Trackpoint>
          <Trackpoint>
            <Time>2019-07-26T14:33:56.000Z</Time>
            <Position>
              <LatitudeDegrees>42.91981020011007785797119140625</LatitudeDegrees>
              <LongitudeDegrees>-8.29944611527025699615478515625</LongitudeDegrees>
            </Position>
            <AltitudeMeters>381.79998779296875</AltitudeMeters>
            <DistanceMeters>74959.386096575</DistanceMeters>
          </Trackpoint>
          <Trackpoint>
            <Time>2019-07-26T14:34:00.000Z</Time>
            <Position>
              <LatitudeDegrees>42.91959780268371105194091796875</LatitudeDegrees>
              <LongitudeDegrees>-8.29963236115872859954833984375</LongitudeDegrees>
            </Position>
            <AltitudeMeters>381.399993896484375</AltitudeMeters>
            <DistanceMeters>74987.480596425</DistanceMeters>
          </Trackpoint>
          <Trackpoint>
            <Time>2019-07-26T14:34:02.000Z</Time>
            <Position>
              <LatitudeDegrees>42.919500656425952911376953125</LatitudeDegrees>
              <LongitudeDegrees>-8.299736045300960540771484375</LongitudeDegrees>
            </Position>
            <AltitudeMeters>381.399993896484375</AltitudeMeters>
            <DistanceMeters>75001.20398064</DistanceMeters>
          </Trackpoint>
          <Trackpoint>
            <Time>2019-07-26T14:34:06.000Z</Time>
            <Position>
              <LatitudeDegrees>42.91934886015951633453369140625</LatitudeDegrees>
              <LongitudeDegrees>-8.2999826408922672271728515625</LongitudeDegrees>
            </Position>
            <AltitudeMeters>381.399993896484375</AltitudeMeters>
            <DistanceMeters>75027.46111884</DistanceMeters>
          </Trackpoint>
          <Trackpoint>
            <Time>2019-07-26T14:34:09.000Z</Time>
            <Position>
              <LatitudeDegrees>42.91925825178623199462890625</LatitudeDegrees>
              <LongitudeDegrees>-8.3002039231359958648681640625</LongitudeDegrees>
            </Position>
            <AltitudeMeters>381.399993896484375</AltitudeMeters>
            <DistanceMeters>75048.125223582</DistanceMeters>
          </Trackpoint>
          <Trackpoint>
            <Time>2019-07-26T14:34:11.000Z</Time>
            <Position>
              <LatitudeDegrees>42.91921625845134258270263671875</LatitudeDegrees>
              <LongitudeDegrees>-8.300363011658191680908203125</LongitudeDegrees>
            </Position>
            <AltitudeMeters>381.600006103515625</AltitudeMeters>
            <DistanceMeters>75061.908683899</DistanceMeters>
          </Trackpoint>
          <Trackpoint>
            <Time>2019-07-26T14:34:14.000Z</Time>
            <Position>
              <LatitudeDegrees>42.91916110552847385406494140625</LatitudeDegrees>
              <LongitudeDegrees>-8.3006052486598491668701171875</LongitudeDegrees>
            </Position>
            <AltitudeMeters>381.600006103515625</AltitudeMeters>
            <DistanceMeters>75082.585457565</DistanceMeters>
          </Trackpoint>
          <Trackpoint>
            <Time>2019-07-26T14:34:15.000Z</Time>
            <Position>
              <LatitudeDegrees>42.91913445107638835906982421875</LatitudeDegrees>
              <LongitudeDegrees>-8.30066752620041370391845703125</LongitudeDegrees>
            </Position>
            <AltitudeMeters>381.79998779296875</AltitudeMeters>
            <DistanceMeters>75088.465607453</DistanceMeters>
          </Trackpoint>
          <Trackpoint>
            <Time>2019-07-26T14:34:16.000Z</Time>
            <Position>
              <LatitudeDegrees>42.91911534033715724945068359375</LatitudeDegrees>
              <LongitudeDegrees>-8.300729803740978240966796875</LongitudeDegrees>
            </Position>
            <AltitudeMeters>381.79998779296875</AltitudeMeters>
            <DistanceMeters>75093.968958831</DistanceMeters>
          </Trackpoint>
          <Trackpoint>
            <Time>2019-07-26T14:34:18.000Z</Time>
            <Position>
              <LatitudeDegrees>42.9191092215478420257568359375</LatitudeDegrees>
              <LongitudeDegrees>-8.300838433206081390380859375</LongitudeDegrees>
            </Position>
            <AltitudeMeters>382</AltitudeMeters>
            <DistanceMeters>75102.84976328</DistanceMeters>
          </Trackpoint>
          <Trackpoint>
            <Time>2019-07-26T14:34:21.000Z</Time>
            <Position>
              <LatitudeDegrees>42.919105701148509979248046875</LatitudeDegrees>
              <LongitudeDegrees>-8.3009894751012325286865234375</LongitudeDegrees>
            </Position>
            <AltitudeMeters>382.79998779296875</AltitudeMeters>
            <DistanceMeters>75115.166999753</DistanceMeters>
          </Trackpoint>
          <Trackpoint>
            <Time>2019-07-26T14:34:22.000Z</Time>
            <Position>
              <LatitudeDegrees>42.91908969171345233917236328125</LatitudeDegrees>
              <LongitudeDegrees>-8.3010515011847019195556640625</LongitudeDegrees>
            </Position>
            <AltitudeMeters>383.20001220703125</AltitudeMeters>
            <DistanceMeters>75120.528224737</DistanceMeters>
          </Trackpoint>
          <Trackpoint>
            <Time>2019-07-26T14:34:23.000Z</Time>
            <Position>
              <LatitudeDegrees>42.9190733470022678375244140625</LatitudeDegrees>
              <LongitudeDegrees>-8.30111780203878879547119140625</LongitudeDegrees>
            </Position>
            <AltitudeMeters>383.399993896484375</AltitudeMeters>
            <DistanceMeters>75126.229827599</DistanceMeters>
          </Trackpoint>
          <Trackpoint>
            <Time>2019-07-26T14:34:26.000Z</Time>
            <Position>
              <LatitudeDegrees>42.91905582882463932037353515625</LatitudeDegrees>
              <LongitudeDegrees>-8.30132885836064815521240234375</LongitudeDegrees>
            </Position>
            <AltitudeMeters>383.79998779296875</AltitudeMeters>
            <DistanceMeters>75143.542954338</DistanceMeters>
          </Trackpoint>
          <Trackpoint>
            <Time>2019-07-26T14:34:29.000Z</Time>
            <Position>
              <LatitudeDegrees>42.91906823404133319854736328125</LatitudeDegrees>
              <LongitudeDegrees>-8.3015406690537929534912109375</LongitudeDegrees>
            </Position>
            <AltitudeMeters>384.399993896484375</AltitudeMeters>
            <DistanceMeters>75160.862338834</DistanceMeters>
          </Trackpoint>
          <Trackpoint>
            <Time>2019-07-26T14:34:30.000Z</Time>
            <Position>
              <LatitudeDegrees>42.9190711677074432373046875</LatitudeDegrees>
              <LongitudeDegrees>-8.30160629935562610626220703125</LongitudeDegrees>
            </Position>
            <AltitudeMeters>384.600006103515625</AltitudeMeters>
            <DistanceMeters>75166.221036725</DistanceMeters>
          </Trackpoint>
          <Trackpoint>
            <Time>2019-07-26T14:34:31.000Z</Time>
            <Position>
              <LatitudeDegrees>42.9190765321254730224609375</LatitudeDegrees>
              <LongitudeDegrees>-8.30166916362941265106201171875</LongitudeDegrees>
            </Position>
            <AltitudeMeters>384.79998779296875</AltitudeMeters>
            <DistanceMeters>75171.38055854</DistanceMeters>
          </Trackpoint>
          <Trackpoint>
            <Time>2019-07-26T14:34:32.000Z</Time>
            <Position>
              <LatitudeDegrees>42.919084914028644561767578125</LatitudeDegrees>
              <LongitudeDegrees>-8.30172783695161342620849609375</LongitudeDegrees>
            </Position>
            <AltitudeMeters>384.79998779296875</AltitudeMeters>
            <DistanceMeters>75176.253863481</DistanceMeters>
          </Trackpoint>
          <Trackpoint>
            <Time>2019-07-26T14:34:37.000Z</Time>
            <Position>
              <LatitudeDegrees>42.91912372224032878875732421875</LatitudeDegrees>
              <LongitudeDegrees>-8.302031345665454864501953125</LongitudeDegrees>
            </Position>
            <AltitudeMeters>385.399993896484375</AltitudeMeters>
            <DistanceMeters>75201.366639289</DistanceMeters>
          </Trackpoint>
          <Trackpoint>
            <Time>2019-07-26T14:34:38.000Z</Time>
            <Position>
              <LatitudeDegrees>42.91913093067705631256103515625</LatitudeDegrees>
              <LongitudeDegrees>-8.3020885102450847625732421875</LongitudeDegrees>
            </Position>
            <AltitudeMeters>385.399993896484375</AltitudeMeters>
            <DistanceMeters>75206.094158638</DistanceMeters>
          </Trackpoint>
          <Trackpoint>
            <Time>2019-07-26T14:34:42.000Z</Time>
            <Position>
              <LatitudeDegrees>42.91916613467037677764892578125</LatitudeDegrees>
              <LongitudeDegrees>-8.30233518965542316436767578125</LongitudeDegrees>
            </Position>
            <AltitudeMeters>385.600006103515625</AltitudeMeters>
            <DistanceMeters>75226.57853298</DistanceMeters>
          </Trackpoint>
          <Trackpoint>
            <Time>2019-07-26T14:34:44.000Z</Time>
            <Position>
              <LatitudeDegrees>42.91918558068573474884033203125</LatitudeDegrees>
              <LongitudeDegrees>-8.30247080884873867034912109375</LongitudeDegrees>
            </Position>
            <AltitudeMeters>386</AltitudeMeters>
            <DistanceMeters>75237.842305618</DistanceMeters>
          </Trackpoint>
          <Trackpoint>
            <Time>2019-07-26T14:34:52.000Z</Time>
            <Position>
              <LatitudeDegrees>42.919241152703762054443359375</LatitudeDegrees>
              <LongitudeDegrees>-8.3029260300099849700927734375</LongitudeDegrees>
            </Position>
            <AltitudeMeters>386.79998779296875</AltitudeMeters>
            <DistanceMeters>75275.458483766</DistanceMeters>
          </Trackpoint>
          <Trackpoint>
            <Time>2019-07-26T14:34:53.000Z</Time>
            <Position>
              <LatitudeDegrees>42.91924609802663326263427734375</LatitudeDegrees>
              <LongitudeDegrees>-8.302983529865741729736328125</LongitudeDegrees>
            </Position>
            <AltitudeMeters>387</AltitudeMeters>
            <DistanceMeters>75280.177399798</DistanceMeters>
          </Trackpoint>
          <Trackpoint>
            <Time>2019-07-26T14:35:00.000Z</Time>
            <Position>
              <LatitudeDegrees>42.91932438500225543975830078125</LatitudeDegrees>
              <LongitudeDegrees>-8.30335945822298526763916015625</LongitudeDegrees>
            </Position>
            <AltitudeMeters>387.79998779296875</AltitudeMeters>
            <DistanceMeters>75312.033608783</DistanceMeters>
          </Trackpoint>
          <Trackpoint>
            <Time>2019-07-26T14:35:02.000Z</Time>
            <Position>
              <LatitudeDegrees>42.919343747198581695556640625</LatitudeDegrees>
              <LongitudeDegrees>-8.303466998040676116943359375</LongitudeDegrees>
            </Position>
            <AltitudeMeters>388</AltitudeMeters>
            <DistanceMeters>75321.059646102</DistanceMeters>
          </Trackpoint>
          <Trackpoint>
            <Time>2019-07-26T14:35:07.000Z</Time>
            <Position>
              <LatitudeDegrees>42.919335030019283294677734375</LatitudeDegrees>
              <LongitudeDegrees>-8.3037370629608631134033203125</LongitudeDegrees>
            </Position>
            <AltitudeMeters>388.79998779296875</AltitudeMeters>
            <DistanceMeters>75343.093347558</DistanceMeters>
          </Trackpoint>
          <Trackpoint>
            <Time>2019-07-26T14:35:10.000Z</Time>
            <Position>
              <LatitudeDegrees>42.91928767226636409759521484375</LatitudeDegrees>
              <LongitudeDegrees>-8.30389824695885181427001953125</LongitudeDegrees>
            </Position>
            <AltitudeMeters>389</AltitudeMeters>
            <DistanceMeters>75357.249138824</DistanceMeters>
          </Trackpoint>
          <Trackpoint>
            <Time>2019-07-26T14:35:12.000Z</Time>
            <Position>
              <LatitudeDegrees>42.9192698188126087188720703125</LatitudeDegrees>
              <LongitudeDegrees>-8.304021544754505157470703125</LongitudeDegrees>
            </Position>
            <AltitudeMeters>389.399993896484375</AltitudeMeters>
            <DistanceMeters>75367.493529896</DistanceMeters>
          </Trackpoint>
          <Trackpoint>
            <Time>2019-07-26T14:35:13.000Z</Time>
            <Position>
              <LatitudeDegrees>42.91925850324332714080810546875</LatitudeDegrees>
              <LongitudeDegrees>-8.30408516339957714080810546875</LongitudeDegrees>
            </Position>
            <AltitudeMeters>389.399993896484375</AltitudeMeters>
            <DistanceMeters>75372.828583874</DistanceMeters>
          </Trackpoint>
          <Trackpoint>
            <Time>2019-07-26T14:35:18.000Z</Time>
            <Position>
              <LatitudeDegrees>42.91920460760593414306640625</LatitudeDegrees>
              <LongitudeDegrees>-8.30443368293344974517822265625</LongitudeDegrees>
            </Position>
            <AltitudeMeters>389.399993896484375</AltitudeMeters>
            <DistanceMeters>75401.86216109</DistanceMeters>
          </Trackpoint>
          <Trackpoint>
            <Time>2019-07-26T14:35:19.000Z</Time>
            <Position>
              <LatitudeDegrees>42.91919044218957424163818359375</LatitudeDegrees>
              <LongitudeDegrees>-8.3045081980526447296142578125</LongitudeDegrees>
            </Position>
            <AltitudeMeters>389.399993896484375</AltitudeMeters>
            <DistanceMeters>75408.136803175</DistanceMeters>
          </Trackpoint>
          <Trackpoint>
            <Time>2019-07-26T14:35:21.000Z</Time>
            <Position>
              <LatitudeDegrees>42.91917216964066028594970703125</LatitudeDegrees>
              <LongitudeDegrees>-8.30465890467166900634765625</LongitudeDegrees>
            </Position>
            <AltitudeMeters>389.399993896484375</AltitudeMeters>
            <DistanceMeters>75420.587478752</DistanceMeters>
          </Trackpoint>
          <Trackpoint>
            <Time>2019-07-26T14:35:24.000Z</Time>
            <Position>
              <LatitudeDegrees>42.91913478635251522064208984375</LatitudeDegrees>
              <LongitudeDegrees>-8.30488664098083972930908203125</LongitudeDegrees>
            </Position>
            <AltitudeMeters>389.20001220703125</AltitudeMeters>
            <DistanceMeters>75439.610393445</DistanceMeters>
          </Trackpoint>
          <Trackpoint>
            <Time>2019-07-26T14:35:25.000Z</Time>
            <Position>
              <LatitudeDegrees>42.91913093067705631256103515625</LatitudeDegrees>
              <LongitudeDegrees>-8.30496258102357387542724609375</LongitudeDegrees>
            </Position>
            <AltitudeMeters>389.20001220703125</AltitudeMeters>
            <DistanceMeters>75445.81484474</DistanceMeters>
          </Trackpoint>
          <Trackpoint>
            <Time>2019-07-26T14:35:27.000Z</Time>
            <Position>
              <LatitudeDegrees>42.91911701671779155731201171875</LatitudeDegrees>
              <LongitudeDegrees>-8.30508043058216571807861328125</LongitudeDegrees>
            </Position>
            <AltitudeMeters>388.79998779296875</AltitudeMeters>
            <DistanceMeters>75455.544299574</DistanceMeters>
          </Trackpoint>
          <Trackpoint>
            <Time>2019-07-26T14:35:28.000Z</Time>
            <Position>
              <LatitudeDegrees>42.9190948046743869781494140625</LatitudeDegrees>
              <LongitudeDegrees>-8.30512250773608684539794921875</LongitudeDegrees>
            </Position>
            <AltitudeMeters>388.79998779296875</AltitudeMeters>
            <DistanceMeters>75459.772721426</DistanceMeters>
          </Trackpoint>
          <Trackpoint>
            <Time>2019-07-26T14:35:30.000Z</Time>
            <Position>
              <LatitudeDegrees>42.91902414523065090179443359375</LatitudeDegrees>
              <LongitudeDegrees>-8.30518755130469799041748046875</LongitudeDegrees>
            </Position>
            <AltitudeMeters>388.399993896484375</AltitudeMeters>
            <DistanceMeters>75469.257320603</DistanceMeters>
          </Trackpoint>
          <Trackpoint>
            <Time>2019-07-26T14:35:32.000Z</Time>
            <Position>
              <LatitudeDegrees>42.91893714107573032379150390625</LatitudeDegrees>
              <LongitudeDegrees>-8.3052360825240612030029296875</LongitudeDegrees>
            </Position>
            <AltitudeMeters>387.79998779296875</AltitudeMeters>
            <DistanceMeters>75479.717599579</DistanceMeters>
          </Trackpoint>
          <Trackpoint>
            <Time>2019-07-26T14:35:33.000Z</Time>
            <Position>
              <LatitudeDegrees>42.91889087297022342681884765625</LatitudeDegrees>
              <LongitudeDegrees>-8.3052511699497699737548828125</LongitudeDegrees>
            </Position>
            <AltitudeMeters>387.600006103515625</AltitudeMeters>
            <DistanceMeters>75485.011022593</DistanceMeters>
          </Trackpoint>
          <Trackpoint>
            <Time>2019-07-26T14:35:34.000Z</Time>
            <Position>
              <LatitudeDegrees>42.91885323822498321533203125</LatitudeDegrees>
              <LongitudeDegrees>-8.30526449717581272125244140625</LongitudeDegrees>
            </Position>
            <AltitudeMeters>387</AltitudeMeters>
            <DistanceMeters>75489.339695441</DistanceMeters>
          </Trackpoint>
          <Trackpoint>
            <Time>2019-07-26T14:35:35.000Z</Time>
            <Position>
              <LatitudeDegrees>42.91883169673383235931396484375</LatitudeDegrees>
              <LongitudeDegrees>-8.30529718659818172454833984375</LongitudeDegrees>
            </Position>
            <AltitudeMeters>386.79998779296875</AltitudeMeters>
            <DistanceMeters>75492.92435704</DistanceMeters>
          </Trackpoint>
          <Trackpoint>
            <Time>2019-07-26T14:35:36.000Z</Time>
            <Position>
              <LatitudeDegrees>42.918827421963214874267578125</LatitudeDegrees>
              <LongitudeDegrees>-8.30535351298749446868896484375</LongitudeDegrees>
            </Position>
            <AltitudeMeters>386.399993896484375</AltitudeMeters>
            <DistanceMeters>75497.539760634</DistanceMeters>
          </Trackpoint>
          <Trackpoint>
            <Time>2019-07-26T14:35:39.000Z</Time>
            <Position>
              <LatitudeDegrees>42.91887871921062469482421875</LatitudeDegrees>
              <LongitudeDegrees>-8.30555786378681659698486328125</LongitudeDegrees>
            </Position>
            <AltitudeMeters>385.79998779296875</AltitudeMeters>
            <DistanceMeters>75515.147418472</DistanceMeters>
          </Trackpoint>
          <Trackpoint>
            <Time>2019-07-26T14:35:40.000Z</Time>
            <Position>
              <LatitudeDegrees>42.918922640383243560791015625</LatitudeDegrees>
              <LongitudeDegrees>-8.3056025393307209014892578125</LongitudeDegrees>
            </Position>
            <AltitudeMeters>385.600006103515625</AltitudeMeters>
            <DistanceMeters>75521.242476674</DistanceMeters>
          </Trackpoint>
          <Trackpoint>
            <Time>2019-07-26T14:35:42.000Z</Time>
            <Position>
              <LatitudeDegrees>42.9189989157021045684814453125</LatitudeDegrees>
              <LongitudeDegrees>-8.30571829341351985931396484375</LongitudeDegrees>
            </Position>
            <AltitudeMeters>385.399993896484375</AltitudeMeters>
            <DistanceMeters>75533.934858789</DistanceMeters>
          </Trackpoint>
          <Trackpoint>
            <Time>2019-07-26T14:35:45.000Z</Time>
            <Position>
              <LatitudeDegrees>42.919018529355525970458984375</LatitudeDegrees>
              <LongitudeDegrees>-8.30598399974405765533447265625</LongitudeDegrees>
            </Position>
            <AltitudeMeters>384.399993896484375</AltitudeMeters>
            <DistanceMeters>75555.701992524</DistanceMeters>
          </Trackpoint>
          <Trackpoint>
            <Time>2019-07-26T14:35:47.000Z</Time>
            <Position>
              <LatitudeDegrees>42.9190160147845745086669921875</LatitudeDegrees>
              <LongitudeDegrees>-8.3061765320599079132080078125</LongitudeDegrees>
            </Position>
            <AltitudeMeters>383.79998779296875</AltitudeMeters>
            <DistanceMeters>75571.397517857</DistanceMeters>
          </Trackpoint>
          <Trackpoint>
            <Time>2019-07-26T14:35:48.000Z</Time>
            <Position>
              <LatitudeDegrees>42.91902246885001659393310546875</LatitudeDegrees>
              <LongitudeDegrees>-8.3062911964952945709228515625</LongitudeDegrees>
            </Position>
            <AltitudeMeters>383.399993896484375</AltitudeMeters>
            <DistanceMeters>75580.771025407</DistanceMeters>
          </Trackpoint>
          <Trackpoint>
            <Time>2019-07-26T14:35:50.000Z</Time>
            <Position>
              <LatitudeDegrees>42.91903437115252017974853515625</LatitudeDegrees>
              <LongitudeDegrees>-8.3065116405487060546875</LongitudeDegrees>
            </Position>
            <AltitudeMeters>382.600006103515625</AltitudeMeters>
            <DistanceMeters>75598.787799756</DistanceMeters>
          </Trackpoint>
          <Trackpoint>
            <Time>2019-07-26T14:35:51.000Z</Time>
            <Position>
              <LatitudeDegrees>42.91903537698090076446533203125</LatitudeDegrees>
              <LongitudeDegrees>-8.30662320367991924285888671875</LongitudeDegrees>
            </Position>
            <AltitudeMeters>382.20001220703125</AltitudeMeters>
            <DistanceMeters>75607.881613041</DistanceMeters>
          </Trackpoint>
          <Trackpoint>
            <Time>2019-07-26T14:35:52.000Z</Time>
            <Position>
              <LatitudeDegrees>42.91902917437255382537841796875</LatitudeDegrees>
              <LongitudeDegrees>-8.30673568882048130035400390625</LongitudeDegrees>
            </Position>
            <AltitudeMeters>382</AltitudeMeters>
            <DistanceMeters>75617.076153577</DistanceMeters>
          </Trackpoint>
          <Trackpoint>
            <Time>2019-07-26T14:35:54.000Z</Time>
            <Position>
              <LatitudeDegrees>42.91898458264768123626708984375</LatitudeDegrees>
              <LongitudeDegrees>-8.306948840618133544921875</LongitudeDegrees>
            </Position>
            <AltitudeMeters>381.20001220703125</AltitudeMeters>
            <DistanceMeters>75635.144728058</DistanceMeters>
          </Trackpoint>
          <Trackpoint>
            <Time>2019-07-26T14:35:56.000Z</Time>
            <Position>
              <LatitudeDegrees>42.91890629567205905914306640625</LatitudeDegrees>
              <LongitudeDegrees>-8.30712854862213134765625</LongitudeDegrees>
            </Position>
            <AltitudeMeters>379.399993896484375</AltitudeMeters>
            <DistanceMeters>75652.188187186</DistanceMeters>
          </Trackpoint>
          <Trackpoint>
            <Time>2019-07-26T14:35:58.000Z</Time>
            <Position>
              <LatitudeDegrees>42.91882373392581939697265625</LatitudeDegrees>
              <LongitudeDegrees>-8.30729710869491100311279296875</LongitudeDegrees>
            </Position>
            <AltitudeMeters>378.600006103515625</AltitudeMeters>
            <DistanceMeters>75668.717373279</DistanceMeters>
          </Trackpoint>
          <Trackpoint>
            <Time>2019-07-26T14:35:59.000Z</Time>
            <Position>
              <LatitudeDegrees>42.918779812753200531005859375</LatitudeDegrees>
              <LongitudeDegrees>-8.30737388692796230316162109375</LongitudeDegrees>
            </Position>
            <AltitudeMeters>378</AltitudeMeters>
            <DistanceMeters>75676.658218562</DistanceMeters>
          </Trackpoint>
          <Trackpoint>
            <Time>2019-07-26T14:36:02.000Z</Time>
            <Position>
              <LatitudeDegrees>42.9186515696346759796142578125</LatitudeDegrees>
              <LongitudeDegrees>-8.30758058466017246246337890625</LongitudeDegrees>
            </Position>
            <AltitudeMeters>376.79998779296875</AltitudeMeters>
            <DistanceMeters>75698.739613619</DistanceMeters>
          </Trackpoint>
          <Trackpoint>
            <Time>2019-07-26T14:36:03.000Z</Time>
            <Position>
              <LatitudeDegrees>42.9186146892607212066650390625</LatitudeDegrees>
              <LongitudeDegrees>-8.30764512531459331512451171875</LongitudeDegrees>
            </Position>
            <AltitudeMeters>376.399993896484375</AltitudeMeters>
            <DistanceMeters>75705.412492079</DistanceMeters>
          </Trackpoint>
          <Trackpoint>
            <Time>2019-07-26T14:36:04.000Z</Time>
            <Position>
              <LatitudeDegrees>42.91858476586639881134033203125</LatitudeDegrees>
              <LongitudeDegrees>-8.3077146112918853759765625</LongitudeDegrees>
            </Position>
            <AltitudeMeters>376.20001220703125</AltitudeMeters>
            <DistanceMeters>75711.982405732</DistanceMeters>
          </Trackpoint>
          <Trackpoint>
            <Time>2019-07-26T14:36:07.000Z</Time>
            <Position>
              <LatitudeDegrees>42.9185211472213268280029296875</LatitudeDegrees>
              <LongitudeDegrees>-8.30793061293661594390869140625</LongitudeDegrees>
            </Position>
            <AltitudeMeters>376</AltitudeMeters>
            <DistanceMeters>75730.958743324</DistanceMeters>
          </Trackpoint>
          <Trackpoint>
            <Time>2019-07-26T14:36:11.000Z</Time>
            <Position>
              <LatitudeDegrees>42.91846423409879207611083984375</LatitudeDegrees>
              <LongitudeDegrees>-8.30823604948818683624267578125</LongitudeDegrees>
            </Position>
            <AltitudeMeters>376</AltitudeMeters>
            <DistanceMeters>75756.647612247</DistanceMeters>
          </Trackpoint>
          <Trackpoint>
            <Time>2019-07-26T14:36:13.000Z</Time>
            <Position>
              <LatitudeDegrees>42.9184614680707454681396484375</LatitudeDegrees>
              <LongitudeDegrees>-8.30839279107749462127685546875</LongitudeDegrees>
            </Position>
            <AltitudeMeters>376</AltitudeMeters>
            <DistanceMeters>75769.42720389</DistanceMeters>
          </Trackpoint>
          <Trackpoint>
            <Time>2019-07-26T14:36:15.000Z</Time>
            <Position>
              <LatitudeDegrees>42.91847680695354938507080078125</LatitudeDegrees>
              <LongitudeDegrees>-8.3085412345826625823974609375</LongitudeDegrees>
            </Position>
            <AltitudeMeters>376</AltitudeMeters>
            <DistanceMeters>75781.646915183</DistanceMeters>
          </Trackpoint>
          <Trackpoint>
            <Time>2019-07-26T14:36:17.000Z</Time>
            <Position>
              <LatitudeDegrees>42.91849943809211254119873046875</LatitudeDegrees>
              <LongitudeDegrees>-8.30869303084909915924072265625</LongitudeDegrees>
            </Position>
            <AltitudeMeters>376</AltitudeMeters>
            <DistanceMeters>75794.274031234</DistanceMeters>
          </Trackpoint>
          <Trackpoint>
            <Time>2019-07-26T14:36:20.000Z</Time>
            <Position>
              <LatitudeDegrees>42.91847580112516880035400390625</LatitudeDegrees>
              <LongitudeDegrees>-8.308922611176967620849609375</LongitudeDegrees>
            </Position>
            <AltitudeMeters>376.20001220703125</AltitudeMeters>
            <DistanceMeters>75813.171210998</DistanceMeters>
          </Trackpoint>
          <Trackpoint>
            <Time>2019-07-26T14:36:22.000Z</Time>
            <Position>
              <LatitudeDegrees>42.9184346459805965423583984375</LatitudeDegrees>
              <LongitudeDegrees>-8.309046328067779541015625</LongitudeDegrees>
            </Position>
            <AltitudeMeters>376.20001220703125</AltitudeMeters>
            <DistanceMeters>75824.247021962</DistanceMeters>
          </Trackpoint>
          <Trackpoint>
            <Time>2019-07-26T14:36:23.000Z</Time>
            <Position>
              <LatitudeDegrees>42.91841645725071430206298828125</LatitudeDegrees>
              <LongitudeDegrees>-8.30910868942737579345703125</LongitudeDegrees>
            </Position>
            <AltitudeMeters>376.20001220703125</AltitudeMeters>
            <DistanceMeters>75829.718283554</DistanceMeters>
          </Trackpoint>
          <Trackpoint>
            <Time>2019-07-26T14:36:25.000Z</Time>
            <Position>
              <LatitudeDegrees>42.9184051416814327239990234375</LatitudeDegrees>
              <LongitudeDegrees>-8.3092354238033294677734375</LongitudeDegrees>
            </Position>
            <AltitudeMeters>376.399993896484375</AltitudeMeters>
            <DistanceMeters>75840.12533582</DistanceMeters>
          </Trackpoint>
          <Trackpoint>
            <Time>2019-07-26T14:36:27.000Z</Time>
            <Position>
              <LatitudeDegrees>42.91840606369078159332275390625</LatitudeDegrees>
              <LongitudeDegrees>-8.3093640021979808807373046875</LongitudeDegrees>
            </Position>
            <AltitudeMeters>376.399993896484375</AltitudeMeters>
            <DistanceMeters>75850.606312871</DistanceMeters>
          </Trackpoint>
          <Trackpoint>
            <Time>2019-07-26T14:36:29.000Z</Time>
            <Position>
              <LatitudeDegrees>42.918412350118160247802734375</LatitudeDegrees>
              <LongitudeDegrees>-8.3094883896410465240478515625</LongitudeDegrees>
            </Position>
            <AltitudeMeters>376.399993896484375</AltitudeMeters>
            <DistanceMeters>75860.769285584</DistanceMeters>
          </Trackpoint>
          <Trackpoint>
            <Time>2019-07-26T14:36:31.000Z</Time>
            <Position>
              <LatitudeDegrees>42.9184235818684101104736328125</LatitudeDegrees>
              <LongitudeDegrees>-8.309609591960906982421875</LongitudeDegrees>
            </Position>
            <AltitudeMeters>376.79998779296875</AltitudeMeters>
            <DistanceMeters>75870.726706904</DistanceMeters>
          </Trackpoint>
          <Trackpoint>
            <Time>2019-07-26T14:36:34.000Z</Time>
            <Position>
              <LatitudeDegrees>42.9184286110103130340576171875</LatitudeDegrees>
              <LongitudeDegrees>-8.3097901381552219390869140625</LongitudeDegrees>
            </Position>
            <AltitudeMeters>377.399993896484375</AltitudeMeters>
            <DistanceMeters>75885.453701711</DistanceMeters>
          </Trackpoint>
          <Trackpoint>
            <Time>2019-07-26T14:36:37.000Z</Time>
            <Position>
              <LatitudeDegrees>42.91843950748443603515625</LatitudeDegrees>
              <LongitudeDegrees>-8.30996959470212459564208984375</LongitudeDegrees>
            </Position>
            <AltitudeMeters>377.79998779296875</AltitudeMeters>
            <DistanceMeters>75900.130946127</DistanceMeters>
          </Trackpoint>
          <Trackpoint>
            <Time>2019-07-26T14:36:39.000Z</Time>
            <Position>
              <LatitudeDegrees>42.918443866074085235595703125</LatitudeDegrees>
              <LongitudeDegrees>-8.3100818283855915069580078125</LongitudeDegrees>
            </Position>
            <AltitudeMeters>377.79998779296875</AltitudeMeters>
            <DistanceMeters>75909.29203397</DistanceMeters>
          </Trackpoint>
          <Trackpoint>
            <Time>2019-07-26T14:36:41.000Z</Time>
            <Position>
              <LatitudeDegrees>42.91843347251415252685546875</LatitudeDegrees>
              <LongitudeDegrees>-8.31019707955420017242431640625</LongitudeDegrees>
            </Position>
            <AltitudeMeters>378</AltitudeMeters>
            <DistanceMeters>75918.756618394</DistanceMeters>
          </Trackpoint>
          <Trackpoint>
            <Time>2019-07-26T14:36:44.000Z</Time>
            <Position>
              <LatitudeDegrees>42.9184205643832683563232421875</LatitudeDegrees>
              <LongitudeDegrees>-8.3103829063475131988525390625</LongitudeDegrees>
            </Position>
            <AltitudeMeters>378</AltitudeMeters>
            <DistanceMeters>75933.970985932</DistanceMeters>
          </Trackpoint>
          <Trackpoint>
            <Time>2019-07-26T14:36:47.000Z</Time>
            <Position>
              <LatitudeDegrees>42.9183974303305149078369140625</LatitudeDegrees>
              <LongitudeDegrees>-8.31055968068540096282958984375</LongitudeDegrees>
            </Position>
            <AltitudeMeters>378.600006103515625</AltitudeMeters>
            <DistanceMeters>75948.607567963</DistanceMeters>
          </Trackpoint>
          <Trackpoint>
            <Time>2019-07-26T14:36:48.000Z</Time>
            <Position>
              <LatitudeDegrees>42.91838251054286956787109375</LatitudeDegrees>
              <LongitudeDegrees>-8.31061466597020626068115234375</LongitudeDegrees>
            </Position>
            <AltitudeMeters>379</AltitudeMeters>
            <DistanceMeters>75953.388271204</DistanceMeters>
          </Trackpoint>
          <Trackpoint>
            <Time>2019-07-26T14:36:50.000Z</Time>
            <Position>
              <LatitudeDegrees>42.9183303751051425933837890625</LatitudeDegrees>
              <LongitudeDegrees>-8.3106918632984161376953125</LongitudeDegrees>
            </Position>
            <AltitudeMeters>379.399993896484375</AltitudeMeters>
            <DistanceMeters>75961.948063273</DistanceMeters>
          </Trackpoint>
          <Trackpoint>
            <Time>2019-07-26T14:36:53.000Z</Time>
            <Position>
              <LatitudeDegrees>42.918191738426685333251953125</LatitudeDegrees>
              <LongitudeDegrees>-8.310682475566864013671875</LongitudeDegrees>
            </Position>
            <AltitudeMeters>379.79998779296875</AltitudeMeters>
            <DistanceMeters>75977.397723808</DistanceMeters>
          </Trackpoint>
          <Trackpoint>
            <Time>2019-07-26T14:36:55.000Z</Time>
            <Position>
              <LatitudeDegrees>42.91809056885540485382080078125</LatitudeDegrees>
              <LongitudeDegrees>-8.31065724603831768035888671875</LongitudeDegrees>
            </Position>
            <AltitudeMeters>380</AltitudeMeters>
            <DistanceMeters>75988.844400584</DistanceMeters>
          </Trackpoint>
          <Trackpoint>
            <Time>2019-07-26T14:36:59.000Z</Time>
            <Position>
              <LatitudeDegrees>42.91787691414356231689453125</LatitudeDegrees>
              <LongitudeDegrees>-8.31059932708740234375</LongitudeDegrees>
            </Position>
            <AltitudeMeters>380.399993896484375</AltitudeMeters>
            <DistanceMeters>76013.088507204</DistanceMeters>
          </Trackpoint>
          <Trackpoint>
            <Time>2019-07-26T14:37:01.000Z</Time>
            <Position>
              <LatitudeDegrees>42.91776828467845916748046875</LatitudeDegrees>
              <LongitudeDegrees>-8.3105673082172870635986328125</LongitudeDegrees>
            </Position>
            <AltitudeMeters>380.399993896484375</AltitudeMeters>
            <DistanceMeters>76025.457321016</DistanceMeters>
          </Trackpoint>
          <Trackpoint>
            <Time>2019-07-26T14:37:04.000Z</Time>
            <Position>
              <LatitudeDegrees>42.91761045344173908233642578125</LatitudeDegrees>
              <LongitudeDegrees>-8.3104928769171237945556640625</LongitudeDegrees>
            </Position>
            <AltitudeMeters>380.600006103515625</AltitudeMeters>
            <DistanceMeters>76044.042272562</DistanceMeters>
          </Trackpoint>
          <Trackpoint>
            <Time>2019-07-26T14:37:05.000Z</Time>
            <Position>
              <LatitudeDegrees>42.91756502352654933929443359375</LatitudeDegrees>
              <LongitudeDegrees>-8.31047569401562213897705078125</LongitudeDegrees>
            </Position>
            <AltitudeMeters>380.399993896484375</AltitudeMeters>
            <DistanceMeters>76049.289433993</DistanceMeters>
          </Trackpoint>
          <Trackpoint>
            <Time>2019-07-26T14:37:06.000Z</Time>
            <Position>
              <LatitudeDegrees>42.91752420365810394287109375</LatitudeDegrees>
              <LongitudeDegrees>-8.310470916330814361572265625</LongitudeDegrees>
            </Position>
            <AltitudeMeters>380.399993896484375</AltitudeMeters>
            <DistanceMeters>76053.848736129</DistanceMeters>
          </Trackpoint>
          <Trackpoint>
            <Time>2019-07-26T14:37:09.000Z</Time>
            <Position>
              <LatitudeDegrees>42.9174640215933322906494140625</LatitudeDegrees>
              <LongitudeDegrees>-8.3105324395000934600830078125</LongitudeDegrees>
            </Position>
            <AltitudeMeters>380</AltitudeMeters>
            <DistanceMeters>76062.215944904</DistanceMeters>
          </Trackpoint>
          <Trackpoint>
            <Time>2019-07-26T14:37:11.000Z</Time>
            <Position>
              <LatitudeDegrees>42.917456813156604766845703125</LatitudeDegrees>
              <LongitudeDegrees>-8.3106149174273014068603515625</LongitudeDegrees>
            </Position>
            <AltitudeMeters>379.79998779296875</AltitudeMeters>
            <DistanceMeters>76068.986223187</DistanceMeters>
          </Trackpoint>
          <Trackpoint>
            <Time>2019-07-26T14:37:13.000Z</Time>
            <Position>
              <LatitudeDegrees>42.91744851507246494293212890625</LatitudeDegrees>
              <LongitudeDegrees>-8.3107161708176136016845703125</LongitudeDegrees>
            </Position>
            <AltitudeMeters>379.79998779296875</AltitudeMeters>
            <DistanceMeters>76077.291144853</DistanceMeters>
          </Trackpoint>
          <Trackpoint>
            <Time>2019-07-26T14:37:21.000Z</Time>
            <Position>
              <LatitudeDegrees>42.9174087010324001312255859375</LatitudeDegrees>
              <LongitudeDegrees>-8.31117331981658935546875</LongitudeDegrees>
            </Position>
            <AltitudeMeters>379.79998779296875</AltitudeMeters>
            <DistanceMeters>76114.816110282</DistanceMeters>
          </Trackpoint>
          <Trackpoint>
            <Time>2019-07-26T14:37:24.000Z</Time>
            <Position>
              <LatitudeDegrees>42.91739009320735931396484375</LatitudeDegrees>
              <LongitudeDegrees>-8.31135428510606288909912109375</LongitudeDegrees>
            </Position>
            <AltitudeMeters>380.399993896484375</AltitudeMeters>
            <DistanceMeters>76129.711377256</DistanceMeters>
          </Trackpoint>
          <Trackpoint>
            <Time>2019-07-26T14:37:28.000Z</Time>
            <Position>
              <LatitudeDegrees>42.91737274266779422760009765625</LatitudeDegrees>
              <LongitudeDegrees>-8.3115942589938640594482421875</LongitudeDegrees>
            </Position>
            <AltitudeMeters>381</AltitudeMeters>
            <DistanceMeters>76149.367211521</DistanceMeters>
          </Trackpoint>
          <Trackpoint>
            <Time>2019-07-26T14:37:29.000Z</Time>
            <Position>
              <LatitudeDegrees>42.91736670769751071929931640625</LatitudeDegrees>
              <LongitudeDegrees>-8.3116556145250797271728515625</LongitudeDegrees>
            </Position>
            <AltitudeMeters>381.20001220703125</AltitudeMeters>
            <DistanceMeters>76154.41347901</DistanceMeters>
          </Trackpoint>
          <Trackpoint>
            <Time>2019-07-26T14:37:30.000Z</Time>
            <Position>
              <LatitudeDegrees>42.91736067272722721099853515625</LatitudeDegrees>
              <LongitudeDegrees>-8.311717472970485687255859375</LongitudeDegrees>
            </Position>
            <AltitudeMeters>381.399993896484375</AltitudeMeters>
            <DistanceMeters>76159.499849918</DistanceMeters>
          </Trackpoint>
          <Trackpoint>
            <Time>2019-07-26T14:37:34.000Z</Time>
            <Position>
              <LatitudeDegrees>42.9173369519412517547607421875</LatitudeDegrees>
              <LongitudeDegrees>-8.311958871781826019287109375</LongitudeDegrees>
            </Position>
            <AltitudeMeters>382.600006103515625</AltitudeMeters>
            <DistanceMeters>76179.352474844</DistanceMeters>
          </Trackpoint>
          <Trackpoint>
            <Time>2019-07-26T14:37:39.000Z</Time>
            <Position>
              <LatitudeDegrees>42.91730535216629505157470703125</LatitudeDegrees>
              <LongitudeDegrees>-8.312254585325717926025390625</LongitudeDegrees>
            </Position>
            <AltitudeMeters>383.399993896484375</AltitudeMeters>
            <DistanceMeters>76203.711586551</DistanceMeters>
          </Trackpoint>
          <Trackpoint>
            <Time>2019-07-26T14:37:40.000Z</Time>
            <Position>
              <LatitudeDegrees>42.9173009097576141357421875</LatitudeDegrees>
              <LongitudeDegrees>-8.31231351010501384735107421875</LongitudeDegrees>
            </Position>
            <AltitudeMeters>383.600006103515625</AltitudeMeters>
            <DistanceMeters>76208.540215484</DistanceMeters>
          </Trackpoint>
          <Trackpoint>
            <Time>2019-07-26T14:37:46.000Z</Time>
            <Position>
              <LatitudeDegrees>42.9172729142010211944580078125</LatitudeDegrees>
              <LongitudeDegrees>-8.312675692141056060791015625</LongitudeDegrees>
            </Position>
            <AltitudeMeters>384.399993896484375</AltitudeMeters>
            <DistanceMeters>76238.225837089</DistanceMeters>
          </Trackpoint>
          <Trackpoint>
            <Time>2019-07-26T14:37:47.000Z</Time>
            <Position>
              <LatitudeDegrees>42.91726746596395969390869140625</LatitudeDegrees>
              <LongitudeDegrees>-8.31273444928228855133056640625</LongitudeDegrees>
            </Position>
            <AltitudeMeters>384.600006103515625</AltitudeMeters>
            <DistanceMeters>76243.052595549</DistanceMeters>
          </Trackpoint>
          <Trackpoint>
            <Time>2019-07-26T14:37:55.000Z</Time>
            <Position>
              <LatitudeDegrees>42.9172204434871673583984375</LatitudeDegrees>
              <LongitudeDegrees>-8.31320852972567081451416015625</LongitudeDegrees>
            </Position>
            <AltitudeMeters>385.399993896484375</AltitudeMeters>
            <DistanceMeters>76282.047951464</DistanceMeters>
          </Trackpoint>
          <Trackpoint>
            <Time>2019-07-26T14:38:00.000Z</Time>
            <Position>
              <LatitudeDegrees>42.9171837307512760162353515625</LatitudeDegrees>
              <LongitudeDegrees>-8.31353031098842620849609375</LongitudeDegrees>
            </Position>
            <AltitudeMeters>385.79998779296875</AltitudeMeters>
            <DistanceMeters>76308.59291191</DistanceMeters>
          </Trackpoint>
          <Trackpoint>
            <Time>2019-07-26T14:38:03.000Z</Time>
            <Position>
              <LatitudeDegrees>42.91716855950653553009033203125</LatitudeDegrees>
              <LongitudeDegrees>-8.31371529959142208099365234375</LongitudeDegrees>
            </Position>
            <AltitudeMeters>386.399993896484375</AltitudeMeters>
            <DistanceMeters>76323.76597353</DistanceMeters>
          </Trackpoint>
          <Trackpoint>
            <Time>2019-07-26T14:38:07.000Z</Time>
            <Position>
              <LatitudeDegrees>42.91713821701705455780029296875</LatitudeDegrees>
              <LongitudeDegrees>-8.31395099870860576629638671875</LongitudeDegrees>
            </Position>
            <AltitudeMeters>386.79998779296875</AltitudeMeters>
            <DistanceMeters>76343.272622684</DistanceMeters>
          </Trackpoint>
          <Trackpoint>
            <Time>2019-07-26T14:38:11.000Z</Time>
            <Position>
              <LatitudeDegrees>42.9171133227646350860595703125</LatitudeDegrees>
              <LongitudeDegrees>-8.31419206224381923675537109375</LongitudeDegrees>
            </Position>
            <AltitudeMeters>387.399993896484375</AltitudeMeters>
            <DistanceMeters>76363.116603473</DistanceMeters>
          </Trackpoint>
          <Trackpoint>
            <Time>2019-07-26T14:38:12.000Z</Time>
            <Position>
              <LatitudeDegrees>42.917106784880161285400390625</LatitudeDegrees>
              <LongitudeDegrees>-8.3142536692321300506591796875</LongitudeDegrees>
            </Position>
            <AltitudeMeters>387.600006103515625</AltitudeMeters>
            <DistanceMeters>76368.191421501</DistanceMeters>
          </Trackpoint>
          <Trackpoint>
            <Time>2019-07-26T14:38:18.000Z</Time>
            <Position>
              <LatitudeDegrees>42.91706361807882785797119140625</LatitudeDegrees>
              <LongitudeDegrees>-8.31462800502777099609375</LongitudeDegrees>
            </Position>
            <AltitudeMeters>388.20001220703125</AltitudeMeters>
            <DistanceMeters>76399.079781555</DistanceMeters>
          </Trackpoint>
          <Trackpoint>
            <Time>2019-07-26T14:38:19.000Z</Time>
            <Position>
              <LatitudeDegrees>42.91705741547048091888427734375</LatitudeDegrees>
              <LongitudeDegrees>-8.3146883547306060791015625</LongitudeDegrees>
            </Position>
            <AltitudeMeters>388.399993896484375</AltitudeMeters>
            <DistanceMeters>76404.04577982</DistanceMeters>
          </Trackpoint>
          <Trackpoint>
            <Time>2019-07-26T14:38:26.000Z</Time>
            <Position>
              <LatitudeDegrees>42.91701651178300380706787109375</LatitudeDegrees>
              <LongitudeDegrees>-8.31509747542440891265869140625</LongitudeDegrees>
            </Position>
            <AltitudeMeters>388.79998779296875</AltitudeMeters>
            <DistanceMeters>76437.70294889</DistanceMeters>
          </Trackpoint>
          <Trackpoint>
            <Time>2019-07-26T14:38:28.000Z</Time>
            <Position>
              <LatitudeDegrees>42.9169979877769947052001953125</LatitudeDegrees>
              <LongitudeDegrees>-8.3152051828801631927490234375</LongitudeDegrees>
            </Position>
            <AltitudeMeters>389.399993896484375</AltitudeMeters>
            <DistanceMeters>76446.720979077</DistanceMeters>
          </Trackpoint>
          <Trackpoint>
            <Time>2019-07-26T14:38:29.000Z</Time>
            <Position>
              <LatitudeDegrees>42.91698432527482509613037109375</LatitudeDegrees>
              <LongitudeDegrees>-8.31525924615561962127685546875</LongitudeDegrees>
            </Position>
            <AltitudeMeters>389.600006103515625</AltitudeMeters>
            <DistanceMeters>76451.383102413</DistanceMeters>
          </Trackpoint>
          <Trackpoint>
            <Time>2019-07-26T14:38:32.000Z</Time>
            <Position>
              <LatitudeDegrees>42.91692472994327545166015625</LatitudeDegrees>
              <LongitudeDegrees>-8.3154180832207202911376953125</LongitudeDegrees>
            </Position>
            <AltitudeMeters>390</AltitudeMeters>
            <DistanceMeters>76465.930572005</DistanceMeters>
          </Trackpoint>
          <Trackpoint>
            <Time>2019-07-26T14:38:33.000Z</Time>
            <Position>
              <LatitudeDegrees>42.916899584233760833740234375</LatitudeDegrees>
              <LongitudeDegrees>-8.31547231413424015045166015625</LongitudeDegrees>
            </Position>
            <AltitudeMeters>390.20001220703125</AltitudeMeters>
            <DistanceMeters>76471.163084956</DistanceMeters>
          </Trackpoint>
          <Trackpoint>
            <Time>2019-07-26T14:38:37.000Z</Time>
            <Position>
              <LatitudeDegrees>42.91680805385112762451171875</LatitudeDegrees>
              <LongitudeDegrees>-8.3156933449208736419677734375</LongitudeDegrees>
            </Position>
            <AltitudeMeters>390.399993896484375</AltitudeMeters>
            <DistanceMeters>76491.860374547</DistanceMeters>
          </Trackpoint>
          <Trackpoint>
            <Time>2019-07-26T14:38:39.000Z</Time>
            <Position>
              <LatitudeDegrees>42.91679187677800655364990234375</LatitudeDegrees>
              <LongitudeDegrees>-8.315818570554256439208984375</LongitudeDegrees>
            </Position>
            <AltitudeMeters>390.399993896484375</AltitudeMeters>
            <DistanceMeters>76502.225258504</DistanceMeters>
          </Trackpoint>
          <Trackpoint>
            <Time>2019-07-26T14:38:43.000Z</Time>
            <Position>
              <LatitudeDegrees>42.91675248183310031890869140625</LatitudeDegrees>
              <LongitudeDegrees>-8.31606457941234111785888671875</LongitudeDegrees>
            </Position>
            <AltitudeMeters>390.600006103515625</AltitudeMeters>
            <DistanceMeters>76522.751688705</DistanceMeters>
          </Trackpoint>
          <Trackpoint>
            <Time>2019-07-26T14:38:52.000Z</Time>
            <Position>
              <LatitudeDegrees>42.9166627116501331329345703125</LatitudeDegrees>
              <LongitudeDegrees>-8.3166093192994594573974609375</LongitudeDegrees>
            </Position>
            <AltitudeMeters>391.20001220703125</AltitudeMeters>
            <DistanceMeters>76568.264524978</DistanceMeters>
          </Trackpoint>
          <Trackpoint>
            <Time>2019-07-26T14:38:54.000Z</Time>
            <Position>
              <LatitudeDegrees>42.916653156280517578125</LatitudeDegrees>
              <LongitudeDegrees>-8.31672591157257556915283203125</LongitudeDegrees>
            </Position>
            <AltitudeMeters>391.399993896484375</AltitudeMeters>
            <DistanceMeters>76577.827820133</DistanceMeters>
          </Trackpoint>
          <Trackpoint>
            <Time>2019-07-26T14:38:57.000Z</Time>
            <Position>
              <LatitudeDegrees>42.91664720512926578521728515625</LatitudeDegrees>
              <LongitudeDegrees>-8.31691567786037921905517578125</LongitudeDegrees>
            </Position>
            <AltitudeMeters>392</AltitudeMeters>
            <DistanceMeters>76593.310468785</DistanceMeters>
          </Trackpoint>
          <Trackpoint>
            <Time>2019-07-26T14:38:59.000Z</Time>
            <Position>
              <LatitudeDegrees>42.916621305048465728759765625</LatitudeDegrees>
              <LongitudeDegrees>-8.31703419797122478485107421875</LongitudeDegrees>
            </Position>
            <AltitudeMeters>392</AltitudeMeters>
            <DistanceMeters>76603.392261307</DistanceMeters>
          </Trackpoint>
          <Trackpoint>
            <Time>2019-07-26T14:39:02.000Z</Time>
            <Position>
              <LatitudeDegrees>42.91657327674329280853271484375</LatitudeDegrees>
              <LongitudeDegrees>-8.3172017522156238555908203125</LongitudeDegrees>
            </Position>
            <AltitudeMeters>392.399993896484375</AltitudeMeters>
            <DistanceMeters>76618.058735013</DistanceMeters>
          </Trackpoint>
          <Trackpoint>
            <Time>2019-07-26T14:39:05.000Z</Time>
            <Position>
              <LatitudeDegrees>42.91654251515865325927734375</LatitudeDegrees>
              <LongitudeDegrees>-8.3173759281635284423828125</LongitudeDegrees>
            </Position>
            <AltitudeMeters>392.79998779296875</AltitudeMeters>
            <DistanceMeters>76632.663200276</DistanceMeters>
          </Trackpoint>
          <Trackpoint>
            <Time>2019-07-26T14:39:10.000Z</Time>
            <Position>
              <LatitudeDegrees>42.91649289429187774658203125</LatitudeDegrees>
              <LongitudeDegrees>-8.31765898503363132476806640625</LongitudeDegrees>
            </Position>
            <AltitudeMeters>393.399993896484375</AltitudeMeters>
            <DistanceMeters>76656.387167157</DistanceMeters>
          </Trackpoint>
          <Trackpoint>
            <Time>2019-07-26T14:39:14.000Z</Time>
            <Position>
              <LatitudeDegrees>42.9164555110037326812744140625</LatitudeDegrees>
              <LongitudeDegrees>-8.31789216957986354827880859375</LongitudeDegrees>
            </Position>
            <AltitudeMeters>394</AltitudeMeters>
            <DistanceMeters>76675.844684599</DistanceMeters>
          </Trackpoint>
          <Trackpoint>
            <Time>2019-07-26T14:39:18.000Z</Time>
            <Position>
              <LatitudeDegrees>42.91641385294497013092041015625</LatitudeDegrees>
              <LongitudeDegrees>-8.31810909323394298553466796875</LongitudeDegrees>
            </Position>
            <AltitudeMeters>394.399993896484375</AltitudeMeters>
            <DistanceMeters>76694.124426083</DistanceMeters>
          </Trackpoint>
          <Trackpoint>
            <Time>2019-07-26T14:39:21.000Z</Time>
            <Position>
              <LatitudeDegrees>42.9163901321589946746826171875</LatitudeDegrees>
              <LongitudeDegrees>-8.31825795583426952362060546875</LongitudeDegrees>
            </Position>
            <AltitudeMeters>395</AltitudeMeters>
            <DistanceMeters>76706.542785295</DistanceMeters>
          </Trackpoint>
          <Trackpoint>
            <Time>2019-07-26T14:39:22.000Z</Time>
            <Position>
              <LatitudeDegrees>42.91638602502644062042236328125</LatitudeDegrees>
              <LongitudeDegrees>-8.3183034695684909820556640625</LongitudeDegrees>
            </Position>
            <AltitudeMeters>395.399993896484375</AltitudeMeters>
            <DistanceMeters>76710.281576321</DistanceMeters>
          </Trackpoint>
          <Trackpoint>
            <Time>2019-07-26T14:39:26.000Z</Time>
            <Position>
              <LatitudeDegrees>42.916351072490215301513671875</LatitudeDegrees>
              <LongitudeDegrees>-8.31848443485796451568603515625</LongitudeDegrees>
            </Position>
            <AltitudeMeters>396.600006103515625</AltitudeMeters>
            <DistanceMeters>76725.536841973</DistanceMeters>
          </Trackpoint>
          <Trackpoint>
            <Time>2019-07-26T14:39:29.000Z</Time>
            <Position>
              <LatitudeDegrees>42.9163076542317867279052734375</LatitudeDegrees>
              <LongitudeDegrees>-8.318624831736087799072265625</LongitudeDegrees>
            </Position>
            <AltitudeMeters>397.399993896484375</AltitudeMeters>
            <DistanceMeters>76737.958836429</DistanceMeters>
          </Trackpoint>
          <Trackpoint>
            <Time>2019-07-26T14:39:31.000Z</Time>
            <Position>
              <LatitudeDegrees>42.9162737913429737091064453125</LatitudeDegrees>
              <LongitudeDegrees>-8.31871636211872100830078125</LongitudeDegrees>
            </Position>
            <AltitudeMeters>397.79998779296875</AltitudeMeters>
            <DistanceMeters>76746.316866781</DistanceMeters>
          </Trackpoint>
          <Trackpoint>
            <Time>2019-07-26T14:39:36.000Z</Time>
            <Position>
              <LatitudeDegrees>42.9161889664828777313232421875</LatitudeDegrees>
              <LongitudeDegrees>-8.318942673504352569580078125</LongitudeDegrees>
            </Position>
            <AltitudeMeters>398.79998779296875</AltitudeMeters>
            <DistanceMeters>76767.039663778</DistanceMeters>
          </Trackpoint>
          <Trackpoint>
            <Time>2019-07-26T14:39:41.000Z</Time>
            <Position>
              <LatitudeDegrees>42.91610129177570343017578125</LatitudeDegrees>
              <LongitudeDegrees>-8.31916806288063526153564453125</LongitudeDegrees>
            </Position>
            <AltitudeMeters>400</AltitudeMeters>
            <DistanceMeters>76787.842268265</DistanceMeters>
          </Trackpoint>
          <Trackpoint>
            <Time>2019-07-26T14:39:42.000Z</Time>
            <Position>
              <LatitudeDegrees>42.91608192957937717437744140625</LatitudeDegrees>
              <LongitudeDegrees>-8.31921148113906383514404296875</LongitudeDegrees>
            </Position>
            <AltitudeMeters>400.20001220703125</AltitudeMeters>
            <DistanceMeters>76791.986566202</DistanceMeters>
          </Trackpoint>
          <Trackpoint>
            <Time>2019-07-26T14:39:43.000Z</Time>
            <Position>
              <LatitudeDegrees>42.91605862788856029510498046875</LatitudeDegrees>
              <LongitudeDegrees>-8.31925540231168270111083984375</LongitudeDegrees>
            </Position>
            <AltitudeMeters>400.20001220703125</AltitudeMeters>
            <DistanceMeters>76796.407096196</DistanceMeters>
          </Trackpoint>
          <Trackpoint>
            <Time>2019-07-26T14:39:47.000Z</Time>
            <Position>
              <LatitudeDegrees>42.91595913469791412353515625</LatitudeDegrees>
              <LongitudeDegrees>-8.31944047473371028900146484375</LongitudeDegrees>
            </Position>
            <AltitudeMeters>401</AltitudeMeters>
            <DistanceMeters>76815.120845811</DistanceMeters>
          </Trackpoint>
          <Trackpoint>
            <Time>2019-07-26T14:39:48.000Z</Time>
            <Position>
              <LatitudeDegrees>42.91594094596803188323974609375</LatitudeDegrees>
              <LongitudeDegrees>-8.31948481500148773193359375</LongitudeDegrees>
            </Position>
            <AltitudeMeters>401.20001220703125</AltitudeMeters>
            <DistanceMeters>76819.264054147</DistanceMeters>
          </Trackpoint>
          <Trackpoint>
            <Time>2019-07-26T14:39:53.000Z</Time>
            <Position>
              <LatitudeDegrees>42.91586550883948802947998046875</LatitudeDegrees>
              <LongitudeDegrees>-8.31967935897409915924072265625</LongitudeDegrees>
            </Position>
            <AltitudeMeters>402.20001220703125</AltitudeMeters>
            <DistanceMeters>76837.207503526</DistanceMeters>
          </Trackpoint>
          <Trackpoint>
            <Time>2019-07-26T14:39:54.000Z</Time>
            <Position>
              <LatitudeDegrees>42.9158483259379863739013671875</LatitudeDegrees>
              <LongitudeDegrees>-8.319718502461910247802734375</LongitudeDegrees>
            </Position>
            <AltitudeMeters>402.20001220703125</AltitudeMeters>
            <DistanceMeters>76840.926922448</DistanceMeters>
          </Trackpoint>
          <Trackpoint>
            <Time>2019-07-26T14:39:59.000Z</Time>
            <Position>
              <LatitudeDegrees>42.9157862998545169830322265625</LatitudeDegrees>
              <LongitudeDegrees>-8.319923691451549530029296875</LongitudeDegrees>
            </Position>
            <AltitudeMeters>403.399993896484375</AltitudeMeters>
            <DistanceMeters>76859.020967091</DistanceMeters>
          </Trackpoint>
          <Trackpoint>
            <Time>2019-07-26T14:40:05.000Z</Time>
            <Position>
              <LatitudeDegrees>42.91570574976503849029541015625</LatitudeDegrees>
              <LongitudeDegrees>-8.32014069892466068267822265625</LongitudeDegrees>
            </Position>
            <AltitudeMeters>404.399993896484375</AltitudeMeters>
            <DistanceMeters>76878.85197461</DistanceMeters>
          </Trackpoint>
          <Trackpoint>
            <Time>2019-07-26T14:40:06.000Z</Time>
            <Position>
              <LatitudeDegrees>42.91569753549993038177490234375</LatitudeDegrees>
              <LongitudeDegrees>-8.3201756514608860015869140625</LongitudeDegrees>
            </Position>
            <AltitudeMeters>404.600006103515625</AltitudeMeters>
            <DistanceMeters>76881.844938998</DistanceMeters>
          </Trackpoint>
          <Trackpoint>
            <Time>2019-07-26T14:40:09.000Z</Time>
            <Position>
              <LatitudeDegrees>42.91566149331629276275634765625</LatitudeDegrees>
              <LongitudeDegrees>-8.32029023207724094390869140625</LongitudeDegrees>
            </Position>
            <AltitudeMeters>405.399993896484375</AltitudeMeters>
            <DistanceMeters>76892.00968861</DistanceMeters>
          </Trackpoint>
          <Trackpoint>
            <Time>2019-07-26T14:40:13.000Z</Time>
            <Position>
              <LatitudeDegrees>42.91560617275536060333251953125</LatitudeDegrees>
              <LongitudeDegrees>-8.3204509131610393524169921875</LongitudeDegrees>
            </Position>
            <AltitudeMeters>405.79998779296875</AltitudeMeters>
            <DistanceMeters>76906.481854759</DistanceMeters>
          </Trackpoint>
          <Trackpoint>
            <Time>2019-07-26T14:40:17.000Z</Time>
            <Position>
              <LatitudeDegrees>42.9155656881630420684814453125</LatitudeDegrees>
              <LongitudeDegrees>-8.3206121809780597686767578125</LongitudeDegrees>
            </Position>
            <AltitudeMeters>406.399993896484375</AltitudeMeters>
            <DistanceMeters>76920.377866945</DistanceMeters>
          </Trackpoint>
          <Trackpoint>
            <Time>2019-07-26T14:40:21.000Z</Time>
            <Position>
              <LatitudeDegrees>42.91552939452230930328369140625</LatitudeDegrees>
              <LongitudeDegrees>-8.32077872939407825469970703125</LongitudeDegrees>
            </Position>
            <AltitudeMeters>407</AltitudeMeters>
            <DistanceMeters>76934.541948573</DistanceMeters>
          </Trackpoint>
          <Trackpoint>
            <Time>2019-07-26T14:40:22.000Z</Time>
            <Position>
              <LatitudeDegrees>42.91551950387656688690185546875</LatitudeDegrees>
              <LongitudeDegrees>-8.3208170346915721893310546875</LongitudeDegrees>
            </Position>
            <AltitudeMeters>407.20001220703125</AltitudeMeters>
            <DistanceMeters>76937.852917133</DistanceMeters>
          </Trackpoint>
          <Trackpoint>
            <Time>2019-07-26T14:40:24.000Z</Time>
            <Position>
              <LatitudeDegrees>42.91550290770828723907470703125</LatitudeDegrees>
              <LongitudeDegrees>-8.32089624367654323577880859375</LongitudeDegrees>
            </Position>
            <AltitudeMeters>407.399993896484375</AltitudeMeters>
            <DistanceMeters>76944.568287693</DistanceMeters>
          </Trackpoint>
          <Trackpoint>
            <Time>2019-07-26T14:40:29.000Z</Time>
            <Position>
              <LatitudeDegrees>42.915454208850860595703125</LatitudeDegrees>
              <LongitudeDegrees>-8.32111501134932041168212890625</LongitudeDegrees>
            </Position>
            <AltitudeMeters>408.399993896484375</AltitudeMeters>
            <DistanceMeters>76963.206367281</DistanceMeters>
          </Trackpoint>
          <Trackpoint>
            <Time>2019-07-26T14:40:34.000Z</Time>
            <Position>
              <LatitudeDegrees>42.91541104204952716827392578125</LatitudeDegrees>
              <LongitudeDegrees>-8.3213440887629985809326171875</LongitudeDegrees>
            </Position>
            <AltitudeMeters>408.600006103515625</AltitudeMeters>
            <DistanceMeters>76982.487425787</DistanceMeters>
          </Trackpoint>
          <Trackpoint>
            <Time>2019-07-26T14:40:38.000Z</Time>
            <Position>
              <LatitudeDegrees>42.91538774035871028900146484375</LatitudeDegrees>
              <LongitudeDegrees>-8.32154265604913234710693359375</LongitudeDegrees>
            </Position>
            <AltitudeMeters>408.79998779296875</AltitudeMeters>
            <DistanceMeters>76998.879740594</DistanceMeters>
          </Trackpoint>
          <Trackpoint>
            <Time>2019-07-26T14:40:45.000Z</Time>
            <Position>
              <LatitudeDegrees>42.91534356772899627685546875</LatitudeDegrees>
              <LongitudeDegrees>-8.321899473667144775390625</LongitudeDegrees>
            </Position>
            <AltitudeMeters>409.79998779296875</AltitudeMeters>
            <DistanceMeters>77028.377538919</DistanceMeters>
          </Trackpoint>
          <Trackpoint>
            <Time>2019-07-26T14:40:46.000Z</Time>
            <Position>
              <LatitudeDegrees>42.91534147225320339202880859375</LatitudeDegrees>
              <LongitudeDegrees>-8.3219506032764911651611328125</LongitudeDegrees>
            </Position>
            <AltitudeMeters>410</AltitudeMeters>
            <DistanceMeters>77032.551148563</DistanceMeters>
          </Trackpoint>
          <Trackpoint>
            <Time>2019-07-26T14:40:53.000Z</Time>
            <Position>
              <LatitudeDegrees>42.91534222662448883056640625</LatitudeDegrees>
              <LongitudeDegrees>-8.32231194712221622467041015625</LongitudeDegrees>
            </Position>
            <AltitudeMeters>410.399993896484375</AltitudeMeters>
            <DistanceMeters>77062.005444757</DistanceMeters>
          </Trackpoint>
          <Trackpoint>
            <Time>2019-07-26T14:40:59.000Z</Time>
            <Position>
              <LatitudeDegrees>42.915405929088592529296875</LatitudeDegrees>
              <LongitudeDegrees>-8.32260430790483951568603515625</LongitudeDegrees>
            </Position>
            <AltitudeMeters>411</AltitudeMeters>
            <DistanceMeters>77086.869053371</DistanceMeters>
          </Trackpoint>
          <Trackpoint>
            <Time>2019-07-26T14:41:01.000Z</Time>
            <Position>
              <LatitudeDegrees>42.9154315777122974395751953125</LatitudeDegrees>
              <LongitudeDegrees>-8.3227093331515789031982421875</LongitudeDegrees>
            </Position>
            <AltitudeMeters>411.399993896484375</AltitudeMeters>
            <DistanceMeters>77095.893089573</DistanceMeters>
          </Trackpoint>
          <Trackpoint>
            <Time>2019-07-26T14:41:04.000Z</Time>
            <Position>
              <LatitudeDegrees>42.91543744504451751708984375</LatitudeDegrees>
              <LongitudeDegrees>-8.32288560457527637481689453125</LongitudeDegrees>
            </Position>
            <AltitudeMeters>411.600006103515625</AltitudeMeters>
            <DistanceMeters>77110.276380272</DistanceMeters>
          </Trackpoint>
          <Trackpoint>
            <Time>2019-07-26T14:41:08.000Z</Time>
            <Position>
              <LatitudeDegrees>42.915445826947689056396484375</LatitudeDegrees>
              <LongitudeDegrees>-8.32311795093119144439697265625</LongitudeDegrees>
            </Position>
            <AltitudeMeters>411.79998779296875</AltitudeMeters>
            <DistanceMeters>77129.238674804</DistanceMeters>
          </Trackpoint>
          <Trackpoint>
            <Time>2019-07-26T14:41:10.000Z</Time>
            <Position>
              <LatitudeDegrees>42.915457226336002349853515625</LatitudeDegrees>
              <LongitudeDegrees>-8.32322808913886547088623046875</LongitudeDegrees>
            </Position>
            <AltitudeMeters>412</AltitudeMeters>
            <DistanceMeters>77138.305637689</DistanceMeters>
          </Trackpoint>
          <Trackpoint>
            <Time>2019-07-26T14:41:12.000Z</Time>
            <Position>
              <LatitudeDegrees>42.9154664464294910430908203125</LatitudeDegrees>
              <LongitudeDegrees>-8.3233379758894443511962890625</LongitudeDegrees>
            </Position>
            <AltitudeMeters>412.20001220703125</AltitudeMeters>
            <DistanceMeters>77147.321664982</DistanceMeters>
          </Trackpoint>
          <Trackpoint>
            <Time>2019-07-26T14:41:16.000Z</Time>
            <Position>
              <LatitudeDegrees>42.91548765264451503753662109375</LatitudeDegrees>
              <LongitudeDegrees>-8.32355263642966747283935546875</LongitudeDegrees>
            </Position>
            <AltitudeMeters>413.399993896484375</AltitudeMeters>
            <DistanceMeters>77164.977720572</DistanceMeters>
          </Trackpoint>
          <Trackpoint>
            <Time>2019-07-26T14:41:20.000Z</Time>
            <Position>
              <LatitudeDegrees>42.9155311547219753265380859375</LatitudeDegrees>
              <LongitudeDegrees>-8.32375086843967437744140625</LongitudeDegrees>
            </Position>
            <AltitudeMeters>414</AltitudeMeters>
            <DistanceMeters>77181.845966146</DistanceMeters>
          </Trackpoint>
          <Trackpoint>
            <Time>2019-07-26T14:41:23.000Z</Time>
            <Position>
              <LatitudeDegrees>42.91557247750461101531982421875</LatitudeDegrees>
              <LongitudeDegrees>-8.32383326254785060882568359375</LongitudeDegrees>
            </Position>
            <AltitudeMeters>414.399993896484375</AltitudeMeters>
            <DistanceMeters>77189.986156619</DistanceMeters>
          </Trackpoint>
          <Trackpoint>
            <Time>2019-07-26T14:41:26.000Z</Time>
            <Position>
              <LatitudeDegrees>42.91554716415703296661376953125</LatitudeDegrees>
              <LongitudeDegrees>-8.32380694337189197540283203125</LongitudeDegrees>
            </Position>
            <AltitudeMeters>414.399993896484375</AltitudeMeters>
            <DistanceMeters>77193.529009461</DistanceMeters>
          </Trackpoint>
          <Trackpoint>
            <Time>2019-07-26T14:41:29.000Z</Time>
            <Position>
              <LatitudeDegrees>42.91560265235602855682373046875</LatitudeDegrees>
              <LongitudeDegrees>-8.32373536191880702972412109375</LongitudeDegrees>
            </Position>
            <AltitudeMeters>414.399993896484375</AltitudeMeters>
            <DistanceMeters>77202.025269291</DistanceMeters>
          </Trackpoint>
          <Trackpoint>
            <Time>2019-07-26T14:41:33.000Z</Time>
            <Position>
              <LatitudeDegrees>42.91571999900043010711669921875</LatitudeDegrees>
              <LongitudeDegrees>-8.32363109104335308074951171875</LongitudeDegrees>
            </Position>
            <AltitudeMeters>414.600006103515625</AltitudeMeters>
            <DistanceMeters>77217.608491542</DistanceMeters>
          </Trackpoint>
          <Trackpoint>
            <Time>2019-07-26T14:41:36.000Z</Time>
            <Position>
              <LatitudeDegrees>42.91582460515201091766357421875</LatitudeDegrees>
              <LongitudeDegrees>-8.32355079241096973419189453125</LongitudeDegrees>
            </Position>
            <AltitudeMeters>414.600006103515625</AltitudeMeters>
            <DistanceMeters>77230.965408114</DistanceMeters>
          </Trackpoint>
          <Trackpoint>
            <Time>2019-07-26T14:41:41.000Z</Time>
            <Position>
              <LatitudeDegrees>42.91599978692829608917236328125</LatitudeDegrees>
              <LongitudeDegrees>-8.3234305121004581451416015625</LongitudeDegrees>
            </Position>
            <AltitudeMeters>414.79998779296875</AltitudeMeters>
            <DistanceMeters>77252.78971594</DistanceMeters>
          </Trackpoint>
          <Trackpoint>
            <Time>2019-07-26T14:41:45.000Z</Time>
            <Position>
              <LatitudeDegrees>42.916147895157337188720703125</LatitudeDegrees>
              <LongitudeDegrees>-8.3234231360256671905517578125</LongitudeDegrees>
            </Position>
            <AltitudeMeters>415</AltitudeMeters>
            <DistanceMeters>77269.285543399</DistanceMeters>
          </Trackpoint>
          <Trackpoint>
            <Time>2019-07-26T14:41:49.000Z</Time>
            <Position>
              <LatitudeDegrees>42.916304133832454681396484375</LatitudeDegrees>
              <LongitudeDegrees>-8.32342606969177722930908203125</LongitudeDegrees>
            </Position>
            <AltitudeMeters>415.399993896484375</AltitudeMeters>
            <DistanceMeters>77286.676989874</DistanceMeters>
          </Trackpoint>
          <Trackpoint>
            <Time>2019-07-26T14:41:52.000Z</Time>
            <Position>
              <LatitudeDegrees>42.91640966199338436126708984375</LatitudeDegrees>
              <LongitudeDegrees>-8.3234202861785888671875</LongitudeDegrees>
            </Position>
            <AltitudeMeters>415.79998779296875</AltitudeMeters>
            <DistanceMeters>77298.432297604</DistanceMeters>
          </Trackpoint>
          <Trackpoint>
            <Time>2019-07-26T14:41:56.000Z</Time>
            <Position>
              <LatitudeDegrees>42.9165393300354480743408203125</LatitudeDegrees>
              <LongitudeDegrees>-8.323422968387603759765625</LongitudeDegrees>
            </Position>
            <AltitudeMeters>416.399993896484375</AltitudeMeters>
            <DistanceMeters>77312.86635191</DistanceMeters>
          </Trackpoint>
          <Trackpoint>
            <Time>2019-07-26T14:41:57.000Z</Time>
            <Position>
              <LatitudeDegrees>42.91655860841274261474609375</LatitudeDegrees>
              <LongitudeDegrees>-8.32344585098326206207275390625</LongitudeDegrees>
            </Position>
            <AltitudeMeters>416.600006103515625</AltitudeMeters>
            <DistanceMeters>77315.707634779</DistanceMeters>
          </Trackpoint>
          <Trackpoint>
            <Time>2019-07-26T14:41:58.000Z</Time>
            <Position>
              <LatitudeDegrees>42.91656925342977046966552734375</LatitudeDegrees>
              <LongitudeDegrees>-8.32347636111080646514892578125</LongitudeDegrees>
            </Position>
            <AltitudeMeters>416.79998779296875</AltitudeMeters>
            <DistanceMeters>77318.461770617</DistanceMeters>
          </Trackpoint>
          <Trackpoint>
            <Time>2019-07-26T14:42:02.000Z</Time>
            <Position>
              <LatitudeDegrees>42.91653941385447978973388671875</LatitudeDegrees>
              <LongitudeDegrees>-8.3236313425004482269287109375</LongitudeDegrees>
            </Position>
            <AltitudeMeters>417.20001220703125</AltitudeMeters>
            <DistanceMeters>77331.523710149</DistanceMeters>
          </Trackpoint>
          <Trackpoint>
            <Time>2019-07-26T14:42:05.000Z</Time>
            <Position>
              <LatitudeDegrees>42.9165125079452991485595703125</LatitudeDegrees>
              <LongitudeDegrees>-8.32377559505403041839599609375</LongitudeDegrees>
            </Position>
            <AltitudeMeters>417.399993896484375</AltitudeMeters>
            <DistanceMeters>77343.657397401</DistanceMeters>
          </Trackpoint>
          <Trackpoint>
            <Time>2019-07-26T14:42:07.000Z</Time>
            <Position>
              <LatitudeDegrees>42.91649398393929004669189453125</LatitudeDegrees>
              <LongitudeDegrees>-8.3238868229091167449951171875</LongitudeDegrees>
            </Position>
            <AltitudeMeters>417.399993896484375</AltitudeMeters>
            <DistanceMeters>77352.955459128</DistanceMeters>
          </Trackpoint>
          <Trackpoint>
            <Time>2019-07-26T14:42:08.000Z</Time>
            <Position>
              <LatitudeDegrees>42.9164836741983890533447265625</LatitudeDegrees>
              <LongitudeDegrees>-8.32394474186003208160400390625</LongitudeDegrees>
            </Position>
            <AltitudeMeters>417.399993896484375</AltitudeMeters>
            <DistanceMeters>77357.813917713</DistanceMeters>
          </Trackpoint>
          <Trackpoint>
            <Time>2019-07-26T14:42:13.000Z</Time>
            <Position>
              <LatitudeDegrees>42.91641913354396820068359375</LatitudeDegrees>
              <LongitudeDegrees>-8.32424514926970005035400390625</LongitudeDegrees>
            </Position>
            <AltitudeMeters>417.600006103515625</AltitudeMeters>
            <DistanceMeters>77383.332439079</DistanceMeters>
          </Trackpoint>
          <Trackpoint>
            <Time>2019-07-26T14:42:14.000Z</Time>
            <Position>
              <LatitudeDegrees>42.9164119251072406768798828125</LatitudeDegrees>
              <LongitudeDegrees>-8.3243122883141040802001953125</LongitudeDegrees>
            </Position>
            <AltitudeMeters>417.600006103515625</AltitudeMeters>
            <DistanceMeters>77388.86361427</DistanceMeters>
          </Trackpoint>
          <Trackpoint>
            <Time>2019-07-26T14:42:20.000Z</Time>
            <Position>
              <LatitudeDegrees>42.9163726978003978729248046875</LatitudeDegrees>
              <LongitudeDegrees>-8.32477002404630184173583984375</LongitudeDegrees>
            </Position>
            <AltitudeMeters>417.20001220703125</AltitudeMeters>
            <DistanceMeters>77426.429105964</DistanceMeters>
          </Trackpoint>
          <Trackpoint>
            <Time>2019-07-26T14:42:25.000Z</Time>
            <Position>
              <LatitudeDegrees>42.9163924790918827056884765625</LatitudeDegrees>
              <LongitudeDegrees>-8.3252000994980335235595703125</LongitudeDegrees>
            </Position>
            <AltitudeMeters>416.600006103515625</AltitudeMeters>
            <DistanceMeters>77461.5544298</DistanceMeters>
          </Trackpoint>
          <Trackpoint>
            <Time>2019-07-26T14:42:26.000Z</Time>
            <Position>
              <LatitudeDegrees>42.9164001904428005218505859375</LatitudeDegrees>
              <LongitudeDegrees>-8.32529255189001560211181640625</LongitudeDegrees>
            </Position>
            <AltitudeMeters>416.399993896484375</AltitudeMeters>
            <DistanceMeters>77469.138728512</DistanceMeters>
          </Trackpoint>
          <Trackpoint>
            <Time>2019-07-26T14:42:29.000Z</Time>
            <Position>
              <LatitudeDegrees>42.9164353944361209869384765625</LatitudeDegrees>
              <LongitudeDegrees>-8.32556496374309062957763671875</LongitudeDegrees>
            </Position>
            <AltitudeMeters>415.399993896484375</AltitudeMeters>
            <DistanceMeters>77491.686507424</DistanceMeters>
          </Trackpoint>
          <Trackpoint>
            <Time>2019-07-26T14:42:30.000Z</Time>
            <Position>
              <LatitudeDegrees>42.91645132005214691162109375</LatitudeDegrees>
              <LongitudeDegrees>-8.32566185854375362396240234375</LongitudeDegrees>
            </Position>
            <AltitudeMeters>415.20001220703125</AltitudeMeters>
            <DistanceMeters>77499.781087998</DistanceMeters>
          </Trackpoint>
          <Trackpoint>
            <Time>2019-07-26T14:42:31.000Z</Time>
            <Position>
              <LatitudeDegrees>42.9164716042578220367431640625</LatitudeDegrees>
              <LongitudeDegrees>-8.3257579989731311798095703125</LongitudeDegrees>
            </Position>
            <AltitudeMeters>415</AltitudeMeters>
            <DistanceMeters>77507.935686881</DistanceMeters>
          </Trackpoint>
          <Trackpoint>
            <Time>2019-07-26T14:42:33.000Z</Time>
            <Position>
              <LatitudeDegrees>42.91650823317468166351318359375</LatitudeDegrees>
              <LongitudeDegrees>-8.3259578235447406768798828125</LongitudeDegrees>
            </Position>
            <AltitudeMeters>414.600006103515625</AltitudeMeters>
            <DistanceMeters>77524.726130192</DistanceMeters>
          </Trackpoint>
          <Trackpoint>
            <Time>2019-07-26T14:42:36.000Z</Time>
            <Position>
              <LatitudeDegrees>42.9165470413863658905029296875</LatitudeDegrees>
              <LongitudeDegrees>-8.326266445219516754150390625</LongitudeDegrees>
            </Position>
            <AltitudeMeters>414</AltitudeMeters>
            <DistanceMeters>77550.250489639</DistanceMeters>
          </Trackpoint>
          <Trackpoint>
            <Time>2019-07-26T14:42:39.000Z</Time>
            <Position>
              <LatitudeDegrees>42.9165809042751789093017578125</LatitudeDegrees>
              <LongitudeDegrees>-8.3265680260956287384033203125</LongitudeDegrees>
            </Position>
            <AltitudeMeters>412.600006103515625</AltitudeMeters>
            <DistanceMeters>77575.119908527</DistanceMeters>
          </Trackpoint>
          <Trackpoint>
            <Time>2019-07-26T14:42:41.000Z</Time>
            <Position>
              <LatitudeDegrees>42.91660554707050323486328125</LatitudeDegrees>
              <LongitudeDegrees>-8.32676977850496768951416015625</LongitudeDegrees>
            </Position>
            <AltitudeMeters>412</AltitudeMeters>
            <DistanceMeters>77591.792155319</DistanceMeters>
          </Trackpoint>
          <Trackpoint>
            <Time>2019-07-26T14:42:42.000Z</Time>
            <Position>
              <LatitudeDegrees>42.9166249930858612060546875</LatitudeDegrees>
              <LongitudeDegrees>-8.32687555812299251556396484375</LongitudeDegrees>
            </Position>
            <AltitudeMeters>411.399993896484375</AltitudeMeters>
            <DistanceMeters>77600.682106333</DistanceMeters>
          </Trackpoint>
          <Trackpoint>
            <Time>2019-07-26T14:42:45.000Z</Time>
            <Position>
              <LatitudeDegrees>42.91669967584311962127685546875</LatitudeDegrees>
              <LongitudeDegrees>-8.32719222642481327056884765625</LongitudeDegrees>
            </Position>
            <AltitudeMeters>410.79998779296875</AltitudeMeters>
            <DistanceMeters>77627.799707171</DistanceMeters>
          </Trackpoint>
          <Trackpoint>
            <Time>2019-07-26T14:42:46.000Z</Time>
            <Position>
              <LatitudeDegrees>42.9167354665696620941162109375</LatitudeDegrees>
              <LongitudeDegrees>-8.32730236463248729705810546875</LongitudeDegrees>
            </Position>
            <AltitudeMeters>410.399993896484375</AltitudeMeters>
            <DistanceMeters>77637.621075537</DistanceMeters>
          </Trackpoint>
          <Trackpoint>
            <Time>2019-07-26T14:42:47.000Z</Time>
            <Position>
              <LatitudeDegrees>42.91676823981106281280517578125</LatitudeDegrees>
              <LongitudeDegrees>-8.327412419021129608154296875</LongitudeDegrees>
            </Position>
            <AltitudeMeters>410.20001220703125</AltitudeMeters>
            <DistanceMeters>77647.305412063</DistanceMeters>
          </Trackpoint>
          <Trackpoint>
            <Time>2019-07-26T14:42:51.000Z</Time>
            <Position>
              <LatitudeDegrees>42.91693151928484439849853515625</LatitudeDegrees>
              <LongitudeDegrees>-8.327882476150989532470703125</LongitudeDegrees>
            </Position>
            <AltitudeMeters>409</AltitudeMeters>
            <DistanceMeters>77689.711821997</DistanceMeters>
          </Trackpoint>
          <Trackpoint>
            <Time>2019-07-26T14:42:52.000Z</Time>
            <Position>
              <LatitudeDegrees>42.91696605272591114044189453125</LatitudeDegrees>
              <LongitudeDegrees>-8.3279979787766933441162109375</LongitudeDegrees>
            </Position>
            <AltitudeMeters>408.600006103515625</AltitudeMeters>
            <DistanceMeters>77699.88145648</DistanceMeters>
          </Trackpoint>
          <Trackpoint>
            <Time>2019-07-26T14:42:54.000Z</Time>
            <Position>
              <LatitudeDegrees>42.91702665388584136962890625</LatitudeDegrees>
              <LongitudeDegrees>-8.32825521938502788543701171875</LongitudeDegrees>
            </Position>
            <AltitudeMeters>408</AltitudeMeters>
            <DistanceMeters>77721.907574772</DistanceMeters>
          </Trackpoint>
          <Trackpoint>
            <Time>2019-07-26T14:42:55.000Z</Time>
            <Position>
              <LatitudeDegrees>42.9170419089496135711669921875</LatitudeDegrees>
              <LongitudeDegrees>-8.32839050330221652984619140625</LongitudeDegrees>
            </Position>
            <AltitudeMeters>407.399993896484375</AltitudeMeters>
            <DistanceMeters>77733.064212873</DistanceMeters>
          </Trackpoint>
          <Trackpoint>
            <Time>2019-07-26T14:42:56.000Z</Time>
            <Position>
              <LatitudeDegrees>42.9170630313456058502197265625</LatitudeDegrees>
              <LongitudeDegrees>-8.32852511666715145111083984375</LongitudeDegrees>
            </Position>
            <AltitudeMeters>406.79998779296875</AltitudeMeters>
            <DistanceMeters>77744.28541539</DistanceMeters>
          </Trackpoint>
          <Trackpoint>
            <Time>2019-07-26T14:42:59.000Z</Time>
            <Position>
              <LatitudeDegrees>42.91717090643942356109619140625</LatitudeDegrees>
              <LongitudeDegrees>-8.3289156295359134674072265625</LongitudeDegrees>
            </Position>
            <AltitudeMeters>405</AltitudeMeters>
            <DistanceMeters>77778.305642722</DistanceMeters>
          </Trackpoint>
          <Trackpoint>
            <Time>2019-07-26T14:43:00.000Z</Time>
            <Position>
              <LatitudeDegrees>42.91721281595528125762939453125</LatitudeDegrees>
              <LongitudeDegrees>-8.3290564455091953277587890625</LongitudeDegrees>
            </Position>
            <AltitudeMeters>404</AltitudeMeters>
            <DistanceMeters>77790.69561042</DistanceMeters>
          </Trackpoint>
          <Trackpoint>
            <Time>2019-07-26T14:43:01.000Z</Time>
            <Position>
              <LatitudeDegrees>42.917248271405696868896484375</LatitudeDegrees>
              <LongitudeDegrees>-8.32920220680534839630126953125</LongitudeDegrees>
            </Position>
            <AltitudeMeters>402.79998779296875</AltitudeMeters>
            <DistanceMeters>77803.214636211</DistanceMeters>
          </Trackpoint>
          <Trackpoint>
            <Time>2019-07-26T14:43:03.000Z</Time>
            <Position>
              <LatitudeDegrees>42.91730786673724651336669921875</LatitudeDegrees>
              <LongitudeDegrees>-8.3295023627579212188720703125</LongitudeDegrees>
            </Position>
            <AltitudeMeters>401.20001220703125</AltitudeMeters>
            <DistanceMeters>77828.563624548</DistanceMeters>
          </Trackpoint>
          <Trackpoint>
            <Time>2019-07-26T14:43:04.000Z</Time>
            <Position>
              <LatitudeDegrees>42.9173372872173786163330078125</LatitudeDegrees>
              <LongitudeDegrees>-8.32964904606342315673828125</LongitudeDegrees>
            </Position>
            <AltitudeMeters>399.79998779296875</AltitudeMeters>
            <DistanceMeters>77840.960149904</DistanceMeters>
          </Trackpoint>
          <Trackpoint>
            <Time>2019-07-26T14:43:05.000Z</Time>
            <Position>
              <LatitudeDegrees>42.917369306087493896484375</LatitudeDegrees>
              <LongitudeDegrees>-8.3297963999211788177490234375</LongitudeDegrees>
            </Position>
            <AltitudeMeters>398.600006103515625</AltitudeMeters>
            <DistanceMeters>77853.488909573</DistanceMeters>
          </Trackpoint>
          <Trackpoint>
            <Time>2019-07-26T14:43:06.000Z</Time>
            <Position>
              <LatitudeDegrees>42.9173969663679599761962890625</LatitudeDegrees>
              <LongitudeDegrees>-8.329942412674427032470703125</LongitudeDegrees>
            </Position>
            <AltitudeMeters>397.600006103515625</AltitudeMeters>
            <DistanceMeters>77865.782296387</DistanceMeters>
          </Trackpoint>
          <Trackpoint>
            <Time>2019-07-26T14:43:07.000Z</Time>
            <Position>
              <LatitudeDegrees>42.917421273887157440185546875</LatitudeDegrees>
              <LongitudeDegrees>-8.33008348010480403900146484375</LongitudeDegrees>
            </Position>
            <AltitudeMeters>396</AltitudeMeters>
            <DistanceMeters>77877.594694163</DistanceMeters>
          </Trackpoint>
          <Trackpoint>
            <Time>2019-07-26T14:43:08.000Z</Time>
            <Position>
              <LatitudeDegrees>42.91744650341570377349853515625</LatitudeDegrees>
              <LongitudeDegrees>-8.33022111095488071441650390625</LongitudeDegrees>
            </Position>
            <AltitudeMeters>394.79998779296875</AltitudeMeters>
            <DistanceMeters>77889.159488247</DistanceMeters>
          </Trackpoint>
          <Trackpoint>
            <Time>2019-07-26T14:43:09.000Z</Time>
            <Position>
              <LatitudeDegrees>42.91747516952455043792724609375</LatitudeDegrees>
              <LongitudeDegrees>-8.3303596638143062591552734375</LongitudeDegrees>
            </Position>
            <AltitudeMeters>393.600006103515625</AltitudeMeters>
            <DistanceMeters>77900.89519129</DistanceMeters>
          </Trackpoint>
          <Trackpoint>
            <Time>2019-07-26T14:43:10.000Z</Time>
            <Position>
              <LatitudeDegrees>42.91749914176762104034423828125</LatitudeDegrees>
              <LongitudeDegrees>-8.33049855194985866546630859375</LongitudeDegrees>
            </Position>
            <AltitudeMeters>392.20001220703125</AltitudeMeters>
            <DistanceMeters>77912.5253897</DistanceMeters>
          </Trackpoint>
          <Trackpoint>
            <Time>2019-07-26T14:43:11.000Z</Time>
            <Position>
              <LatitudeDegrees>42.9175193421542644500732421875</LatitudeDegrees>
              <LongitudeDegrees>-8.33062981255352497100830078125</LongitudeDegrees>
            </Position>
            <AltitudeMeters>391</AltitudeMeters>
            <DistanceMeters>77923.458005664</DistanceMeters>
          </Trackpoint>
          <Trackpoint>
            <Time>2019-07-26T14:43:13.000Z</Time>
            <Position>
              <LatitudeDegrees>42.91755982674658298492431640625</LatitudeDegrees>
              <LongitudeDegrees>-8.33086534403264522552490234375</LongitudeDegrees>
            </Position>
            <AltitudeMeters>389.20001220703125</AltitudeMeters>
            <DistanceMeters>77943.177823411</DistanceMeters>
          </Trackpoint>
          <Trackpoint>
            <Time>2019-07-26T14:43:14.000Z</Time>
            <Position>
              <LatitudeDegrees>42.9175773449242115020751953125</LatitudeDegrees>
              <LongitudeDegrees>-8.33097942173480987548828125</LongitudeDegrees>
            </Position>
            <AltitudeMeters>388.600006103515625</AltitudeMeters>
            <DistanceMeters>77952.678594124</DistanceMeters>
          </Trackpoint>
          <Trackpoint>
            <Time>2019-07-26T14:43:15.000Z</Time>
            <Position>
              <LatitudeDegrees>42.91759368963539600372314453125</LatitudeDegrees>
              <LongitudeDegrees>-8.33109517581760883331298828125</LongitudeDegrees>
            </Position>
            <AltitudeMeters>388</AltitudeMeters>
            <DistanceMeters>77962.28804581</DistanceMeters>
          </Trackpoint>
          <Trackpoint>
            <Time>2019-07-26T14:43:17.000Z</Time>
            <Position>
              <LatitudeDegrees>42.9176242835819721221923828125</LatitudeDegrees>
              <LongitudeDegrees>-8.3313279412686824798583984375</LongitudeDegrees>
            </Position>
            <AltitudeMeters>386.20001220703125</AltitudeMeters>
            <DistanceMeters>77981.563951897</DistanceMeters>
          </Trackpoint>
          <Trackpoint>
            <Time>2019-07-26T14:43:19.000Z</Time>
            <Position>
              <LatitudeDegrees>42.91764532215893268585205078125</LatitudeDegrees>
              <LongitudeDegrees>-8.331569842994213104248046875</LongitudeDegrees>
            </Position>
            <AltitudeMeters>384</AltitudeMeters>
            <DistanceMeters>78001.419987947</DistanceMeters>
          </Trackpoint>
          <Trackpoint>
            <Time>2019-07-26T14:43:20.000Z</Time>
            <Position>
              <LatitudeDegrees>42.91765638627111911773681640625</LatitudeDegrees>
              <LongitudeDegrees>-8.33168945275247097015380859375</LongitudeDegrees>
            </Position>
            <AltitudeMeters>382.79998779296875</AltitudeMeters>
            <DistanceMeters>78011.246871353</DistanceMeters>
          </Trackpoint>
          <Trackpoint>
            <Time>2019-07-26T14:43:22.000Z</Time>
            <Position>
              <LatitudeDegrees>42.9176779277622699737548828125</LatitudeDegrees>
              <LongitudeDegrees>-8.33189983852207660675048828125</LongitudeDegrees>
            </Position>
            <AltitudeMeters>381.20001220703125</AltitudeMeters>
            <DistanceMeters>78028.562345016</DistanceMeters>
          </Trackpoint>
          <Trackpoint>
            <Time>2019-07-26T14:43:23.000Z</Time>
            <Position>
              <LatitudeDegrees>42.91768245398998260498046875</LatitudeDegrees>
              <LongitudeDegrees>-8.3319644629955291748046875</LongitudeDegrees>
            </Position>
            <AltitudeMeters>380.79998779296875</AltitudeMeters>
            <DistanceMeters>78033.854915009</DistanceMeters>
          </Trackpoint>
          <Trackpoint>
            <Time>2019-07-26T14:43:25.000Z</Time>
            <Position>
              <LatitudeDegrees>42.9176930151879787445068359375</LatitudeDegrees>
              <LongitudeDegrees>-8.33205389790236949920654296875</LongitudeDegrees>
            </Position>
            <AltitudeMeters>380</AltitudeMeters>
            <DistanceMeters>78041.238924866</DistanceMeters>
          </Trackpoint>
          <Trackpoint>
            <Time>2019-07-26T14:43:27.000Z</Time>
            <Position>
              <LatitudeDegrees>42.91769728995859622955322265625</LatitudeDegrees>
              <LongitudeDegrees>-8.3321393094956874847412109375</LongitudeDegrees>
            </Position>
            <AltitudeMeters>379.399993896484375</AltitudeMeters>
            <DistanceMeters>78048.217406238</DistanceMeters>
          </Trackpoint>
          <Trackpoint>
            <Time>2019-07-26T14:43:29.000Z</Time>
            <Position>
              <LatitudeDegrees>42.917702235281467437744140625</LatitudeDegrees>
              <LongitudeDegrees>-8.3322487771511077880859375</LongitudeDegrees>
            </Position>
            <AltitudeMeters>379.20001220703125</AltitudeMeters>
            <DistanceMeters>78057.156991046</DistanceMeters>
          </Trackpoint>
          <Trackpoint>
            <Time>2019-07-26T14:43:31.000Z</Time>
            <Position>
              <LatitudeDegrees>42.91771405376493930816650390625</LatitudeDegrees>
              <LongitudeDegrees>-8.332386910915374755859375</LongitudeDegrees>
            </Position>
            <AltitudeMeters>378.600006103515625</AltitudeMeters>
            <DistanceMeters>78068.49268634</DistanceMeters>
          </Trackpoint>
          <Trackpoint>
            <Time>2019-07-26T14:43:32.000Z</Time>
            <Position>
              <LatitudeDegrees>42.91772210039198398590087890625</LatitudeDegrees>
              <LongitudeDegrees>-8.33246142603456974029541015625</LongitudeDegrees>
            </Position>
            <AltitudeMeters>378.399993896484375</AltitudeMeters>
            <DistanceMeters>78074.631294407</DistanceMeters>
          </Trackpoint>
          <Trackpoint>
            <Time>2019-07-26T14:43:38.000Z</Time>
            <Position>
              <LatitudeDegrees>42.91778597049415111541748046875</LatitudeDegrees>
              <LongitudeDegrees>-8.33293802104890346527099609375</LongitudeDegrees>
            </Position>
            <AltitudeMeters>377.600006103515625</AltitudeMeters>
            <DistanceMeters>78114.12355546</DistanceMeters>
          </Trackpoint>
          <Trackpoint>
            <Time>2019-07-26T14:43:39.000Z</Time>
            <Position>
              <LatitudeDegrees>42.91779586113989353179931640625</LatitudeDegrees>
              <LongitudeDegrees>-8.3330220915377140045166015625</LongitudeDegrees>
            </Position>
            <AltitudeMeters>377.600006103515625</AltitudeMeters>
            <DistanceMeters>78121.063759186</DistanceMeters>
          </Trackpoint>
          <Trackpoint>
            <Time>2019-07-26T14:43:42.000Z</Time>
            <Position>
              <LatitudeDegrees>42.9178516007959842681884765625</LatitudeDegrees>
              <LongitudeDegrees>-8.333308584988117218017578125</LongitudeDegrees>
            </Position>
            <AltitudeMeters>377.600006103515625</AltitudeMeters>
            <DistanceMeters>78145.225597735</DistanceMeters>
          </Trackpoint>
          <Trackpoint>
            <Time>2019-07-26T14:43:43.000Z</Time>
            <Position>
              <LatitudeDegrees>42.91786593385040760040283203125</LatitudeDegrees>
              <LongitudeDegrees>-8.3334048092365264892578125</LongitudeDegrees>
            </Position>
            <AltitudeMeters>377.600006103515625</AltitudeMeters>
            <DistanceMeters>78153.229307019</DistanceMeters>
          </Trackpoint>
          <Trackpoint>
            <Time>2019-07-26T14:43:47.000Z</Time>
            <Position>
              <LatitudeDegrees>42.91794254444539546966552734375</LatitudeDegrees>
              <LongitudeDegrees>-8.33373329602181911468505859375</LongitudeDegrees>
            </Position>
            <AltitudeMeters>377.399993896484375</AltitudeMeters>
            <DistanceMeters>78181.329270442</DistanceMeters>
          </Trackpoint>
          <Trackpoint>
            <Time>2019-07-26T14:43:48.000Z</Time>
            <Position>
              <LatitudeDegrees>42.9179733060300350189208984375</LatitudeDegrees>
              <LongitudeDegrees>-8.33380973897874355316162109375</LongitudeDegrees>
            </Position>
            <AltitudeMeters>376.79998779296875</AltitudeMeters>
            <DistanceMeters>78188.439148636</DistanceMeters>
          </Trackpoint>
          <Trackpoint>
            <Time>2019-07-26T14:43:52.000Z</Time>
            <Position>
              <LatitudeDegrees>42.91809417307376861572265625</LatitudeDegrees>
              <LongitudeDegrees>-8.33413244225084781646728515625</LongitudeDegrees>
            </Position>
            <AltitudeMeters>375.600006103515625</AltitudeMeters>
            <DistanceMeters>78217.983135996</DistanceMeters>
          </Trackpoint>
          <Trackpoint>
            <Time>2019-07-26T14:43:54.000Z</Time>
            <Position>
              <LatitudeDegrees>42.91814387775957584381103515625</LatitudeDegrees>
              <LongitudeDegrees>-8.33430293016135692596435546875</LongitudeDegrees>
            </Position>
            <AltitudeMeters>375.399993896484375</AltitudeMeters>
            <DistanceMeters>78232.940111419</DistanceMeters>
          </Trackpoint>
          <Trackpoint>
            <Time>2019-07-26T14:43:55.000Z</Time>
            <Position>
              <LatitudeDegrees>42.91815720498561859130859375</LatitudeDegrees>
              <LongitudeDegrees>-8.33438993431627750396728515625</LongitudeDegrees>
            </Position>
            <AltitudeMeters>375.20001220703125</AltitudeMeters>
            <DistanceMeters>78240.185859444</DistanceMeters>
          </Trackpoint>
          <Trackpoint>
            <Time>2019-07-26T14:43:57.000Z</Time>
            <Position>
              <LatitudeDegrees>42.91818478144705295562744140625</LatitudeDegrees>
              <LongitudeDegrees>-8.33457584492862224578857421875</LongitudeDegrees>
            </Position>
            <AltitudeMeters>374.600006103515625</AltitudeMeters>
            <DistanceMeters>78255.646913213</DistanceMeters>
          </Trackpoint>
          <Trackpoint>
            <Time>2019-07-26T14:44:01.000Z</Time>
            <Position>
              <LatitudeDegrees>42.91823021136224269866943359375</LatitudeDegrees>
              <LongitudeDegrees>-8.33495571278035640716552734375</LongitudeDegrees>
            </Position>
            <AltitudeMeters>373.79998779296875</AltitudeMeters>
            <DistanceMeters>78287.019835809</DistanceMeters>
          </Trackpoint>
          <Trackpoint>
            <Time>2019-07-26T14:44:02.000Z</Time>
            <Position>
              <LatitudeDegrees>42.91824295185506343841552734375</LatitudeDegrees>
              <LongitudeDegrees>-8.33505327813327312469482421875</LongitudeDegrees>
            </Position>
            <AltitudeMeters>373.20001220703125</AltitudeMeters>
            <DistanceMeters>78295.098783298</DistanceMeters>
          </Trackpoint>
          <Trackpoint>
            <Time>2019-07-26T14:44:07.000Z</Time>
            <Position>
              <LatitudeDegrees>42.91831067763268947601318359375</LatitudeDegrees>
              <LongitudeDegrees>-8.33555736579000949859619140625</LongitudeDegrees>
            </Position>
            <AltitudeMeters>372.20001220703125</AltitudeMeters>
            <DistanceMeters>78336.872401559</DistanceMeters>
          </Trackpoint>
          <Trackpoint>
            <Time>2019-07-26T14:44:08.000Z</Time>
            <Position>
              <LatitudeDegrees>42.91832257993519306182861328125</LatitudeDegrees>
              <LongitudeDegrees>-8.33565878681838512420654296875</LongitudeDegrees>
            </Position>
            <AltitudeMeters>372</AltitudeMeters>
            <DistanceMeters>78345.244465424</DistanceMeters>
          </Trackpoint>
          <Trackpoint>
            <Time>2019-07-26T14:44:09.000Z</Time>
            <Position>
              <LatitudeDegrees>42.9183266870677471160888671875</LatitudeDegrees>
              <LongitudeDegrees>-8.33576406352221965789794921875</LongitudeDegrees>
            </Position>
            <AltitudeMeters>372</AltitudeMeters>
            <DistanceMeters>78353.837423883</DistanceMeters>
          </Trackpoint>
          <Trackpoint>
            <Time>2019-07-26T14:44:12.000Z</Time>
            <Position>
              <LatitudeDegrees>42.9183471389114856719970703125</LatitudeDegrees>
              <LongitudeDegrees>-8.336063884198665618896484375</LongitudeDegrees>
            </Position>
            <AltitudeMeters>371.399993896484375</AltitudeMeters>
            <DistanceMeters>78378.381372825</DistanceMeters>
          </Trackpoint>
          <Trackpoint>
            <Time>2019-07-26T14:44:13.000Z</Time>
            <Position>
              <LatitudeDegrees>42.918352670967578887939453125</LatitudeDegrees>
              <LongitudeDegrees>-8.336159102618694305419921875</LongitudeDegrees>
            </Position>
            <AltitudeMeters>370.79998779296875</AltitudeMeters>
            <DistanceMeters>78386.166607124</DistanceMeters>
          </Trackpoint>
          <Trackpoint>
            <Time>2019-07-26T14:44:16.000Z</Time>
            <Position>
              <LatitudeDegrees>42.91837689466774463653564453125</LatitudeDegrees>
              <LongitudeDegrees>-8.3364625275135040283203125</LongitudeDegrees>
            </Position>
            <AltitudeMeters>369.600006103515625</AltitudeMeters>
            <DistanceMeters>78411.045283329</DistanceMeters>
          </Trackpoint>
          <Trackpoint>
            <Time>2019-07-26T14:44:19.000Z</Time>
            <Position>
              <LatitudeDegrees>42.91840421967208385467529296875</LatitudeDegrees>
              <LongitudeDegrees>-8.3367996476590633392333984375</LongitudeDegrees>
            </Position>
            <AltitudeMeters>368.399993896484375</AltitudeMeters>
            <DistanceMeters>78438.691688707</DistanceMeters>
          </Trackpoint>
          <Trackpoint>
            <Time>2019-07-26T14:44:20.000Z</Time>
            <Position>
              <LatitudeDegrees>42.91841930709779262542724609375</LatitudeDegrees>
              <LongitudeDegrees>-8.33691422827541828155517578125</LongitudeDegrees>
            </Position>
            <AltitudeMeters>368</AltitudeMeters>
            <DistanceMeters>78448.180571267</DistanceMeters>
          </Trackpoint>
          <Trackpoint>
            <Time>2019-07-26T14:44:22.000Z</Time>
            <Position>
              <LatitudeDegrees>42.91845518164336681365966796875</LatitudeDegrees>
              <LongitudeDegrees>-8.33714607171714305877685546875</LongitudeDegrees>
            </Position>
            <AltitudeMeters>367.20001220703125</AltitudeMeters>
            <DistanceMeters>78467.495087001</DistanceMeters>
          </Trackpoint>
          <Trackpoint>
            <Time>2019-07-26T14:44:23.000Z</Time>
            <Position>
              <LatitudeDegrees>42.91846741922199726104736328125</LatitudeDegrees>
              <LongitudeDegrees>-8.33726710639894008636474609375</LongitudeDegrees>
            </Position>
            <AltitudeMeters>367</AltitudeMeters>
            <DistanceMeters>78477.454321894</DistanceMeters>
          </Trackpoint>
          <Trackpoint>
            <Time>2019-07-26T14:44:26.000Z</Time>
            <Position>
              <LatitudeDegrees>42.9184966720640659332275390625</LatitudeDegrees>
              <LongitudeDegrees>-8.3376401849091053009033203125</LongitudeDegrees>
            </Position>
            <AltitudeMeters>366</AltitudeMeters>
            <DistanceMeters>78508.037574142</DistanceMeters>
          </Trackpoint>
          <Trackpoint>
            <Time>2019-07-26T14:44:29.000Z</Time>
            <Position>
              <LatitudeDegrees>42.91851385496556758880615234375</LatitudeDegrees>
              <LongitudeDegrees>-8.33801896311342716217041015625</LongitudeDegrees>
            </Position>
            <AltitudeMeters>364.600006103515625</AltitudeMeters>
            <DistanceMeters>78538.970776697</DistanceMeters>
          </Trackpoint>
          <Trackpoint>
            <Time>2019-07-26T14:44:30.000Z</Time>
            <Position>
              <LatitudeDegrees>42.9185186326503753662109375</LatitudeDegrees>
              <LongitudeDegrees>-8.33813915960490703582763671875</LongitudeDegrees>
            </Position>
            <AltitudeMeters>364</AltitudeMeters>
            <DistanceMeters>78548.782026103</DistanceMeters>
          </Trackpoint>
          <Trackpoint>
            <Time>2019-07-26T14:44:31.000Z</Time>
            <Position>
              <LatitudeDegrees>42.9185211472213268280029296875</LatitudeDegrees>
              <LongitudeDegrees>-8.3382574282586574554443359375</LongitudeDegrees>
            </Position>
            <AltitudeMeters>363.399993896484375</AltitudeMeters>
            <DistanceMeters>78558.426184302</DistanceMeters>
          </Trackpoint>
          <Trackpoint>
            <Time>2019-07-26T14:44:33.000Z</Time>
            <Position>
              <LatitudeDegrees>42.91851955465972423553466796875</LatitudeDegrees>
              <LongitudeDegrees>-8.33849103190004825592041015625</LongitudeDegrees>
            </Position>
            <AltitudeMeters>362.399993896484375</AltitudeMeters>
            <DistanceMeters>78577.467603088</DistanceMeters>
          </Trackpoint>
          <Trackpoint>
            <Time>2019-07-26T14:44:35.000Z</Time>
            <Position>
              <LatitudeDegrees>42.91849943809211254119873046875</LatitudeDegrees>
              <LongitudeDegrees>-8.33871767856180667877197265625</LongitudeDegrees>
            </Position>
            <AltitudeMeters>361</AltitudeMeters>
            <DistanceMeters>78596.076590206</DistanceMeters>
          </Trackpoint>
          <Trackpoint>
            <Time>2019-07-26T14:44:36.000Z</Time>
            <Position>
              <LatitudeDegrees>42.91848309338092803955078125</LatitudeDegrees>
              <LongitudeDegrees>-8.33882479928433895111083984375</LongitudeDegrees>
            </Position>
            <AltitudeMeters>360.399993896484375</AltitudeMeters>
            <DistanceMeters>78604.995949682</DistanceMeters>
          </Trackpoint>
          <Trackpoint>
            <Time>2019-07-26T14:44:38.000Z</Time>
            <Position>
              <LatitudeDegrees>42.9184450395405292510986328125</LatitudeDegrees>
              <LongitudeDegrees>-8.33903769962489604949951171875</LongitudeDegrees>
            </Position>
            <AltitudeMeters>359.79998779296875</AltitudeMeters>
            <DistanceMeters>78622.858697263</DistanceMeters>
          </Trackpoint>
          <Trackpoint>
            <Time>2019-07-26T14:44:40.000Z</Time>
            <Position>
              <LatitudeDegrees>42.91838812641799449920654296875</LatitudeDegrees>
              <LongitudeDegrees>-8.33924087695777416229248046875</LongitudeDegrees>
            </Position>
            <AltitudeMeters>358.79998779296875</AltitudeMeters>
            <DistanceMeters>78640.589521028</DistanceMeters>
          </Trackpoint>
          <Trackpoint>
            <Time>2019-07-26T14:44:41.000Z</Time>
            <Position>
              <LatitudeDegrees>42.9183571971952915191650390625</LatitudeDegrees>
              <LongitudeDegrees>-8.33934162743389606475830078125</LongitudeDegrees>
            </Position>
            <AltitudeMeters>358.20001220703125</AltitudeMeters>
            <DistanceMeters>78649.493681358</DistanceMeters>
          </Trackpoint>
          <Trackpoint>
            <Time>2019-07-26T14:44:42.000Z</Time>
            <Position>
              <LatitudeDegrees>42.9183283634483814239501953125</LatitudeDegrees>
              <LongitudeDegrees>-8.339446820318698883056640625</LongitudeDegrees>
            </Position>
            <AltitudeMeters>357.600006103515625</AltitudeMeters>
            <DistanceMeters>78658.649839379</DistanceMeters>
          </Trackpoint>
          <Trackpoint>
            <Time>2019-07-26T14:44:46.000Z</Time>
            <Position>
              <LatitudeDegrees>42.91821244172751903533935546875</LatitudeDegrees>
              <LongitudeDegrees>-8.339864909648895263671875</LongitudeDegrees>
            </Position>
            <AltitudeMeters>356.600006103515625</AltitudeMeters>
            <DistanceMeters>78695.088712446</DistanceMeters>
          </Trackpoint>
          <Trackpoint>
            <Time>2019-07-26T14:44:47.000Z</Time>
            <Position>
              <LatitudeDegrees>42.918185032904148101806640625</LatitudeDegrees>
              <LongitudeDegrees>-8.33996423520147800445556640625</LongitudeDegrees>
            </Position>
            <AltitudeMeters>356.20001220703125</AltitudeMeters>
            <DistanceMeters>78703.739797556</DistanceMeters>
          </Trackpoint>
          <Trackpoint>
            <Time>2019-07-26T14:44:50.000Z</Time>
            <Position>
              <LatitudeDegrees>42.9181111045181751251220703125</LatitudeDegrees>
              <LongitudeDegrees>-8.34026095457375049591064453125</LongitudeDegrees>
            </Position>
            <AltitudeMeters>355.399993896484375</AltitudeMeters>
            <DistanceMeters>78729.286612326</DistanceMeters>
          </Trackpoint>
          <Trackpoint>
            <Time>2019-07-26T14:44:54.000Z</Time>
            <Position>
              <LatitudeDegrees>42.917995937168598175048828125</LatitudeDegrees>
              <LongitudeDegrees>-8.34066160954535007476806640625</LongitudeDegrees>
            </Position>
            <AltitudeMeters>355</AltitudeMeters>
            <DistanceMeters>78764.369492045</DistanceMeters>
          </Trackpoint>
          <Trackpoint>
            <Time>2019-07-26T14:44:58.000Z</Time>
            <Position>
              <LatitudeDegrees>42.91787423193454742431640625</LatitudeDegrees>
              <LongitudeDegrees>-8.341077603399753570556640625</LongitudeDegrees>
            </Position>
            <AltitudeMeters>354</AltitudeMeters>
            <DistanceMeters>78800.882757393</DistanceMeters>
          </Trackpoint>
          <Trackpoint>
            <Time>2019-07-26T14:45:00.000Z</Time>
            <Position>
              <LatitudeDegrees>42.91780449450016021728515625</LatitudeDegrees>
              <LongitudeDegrees>-8.3413037471473217010498046875</LongitudeDegrees>
            </Position>
            <AltitudeMeters>353.600006103515625</AltitudeMeters>
            <DistanceMeters>78820.883115547</DistanceMeters>
          </Trackpoint>
          <Trackpoint>
            <Time>2019-07-26T14:45:03.000Z</Time>
            <Position>
              <LatitudeDegrees>42.91769318282604217529296875</LatitudeDegrees>
              <LongitudeDegrees>-8.34163893945515155792236328125</LongitudeDegrees>
            </Position>
            <AltitudeMeters>352.79998779296875</AltitudeMeters>
            <DistanceMeters>78850.882373514</DistanceMeters>
          </Trackpoint>
          <Trackpoint>
            <Time>2019-07-26T14:45:05.000Z</Time>
            <Position>
              <LatitudeDegrees>42.9176262952387332916259765625</LatitudeDegrees>
              <LongitudeDegrees>-8.34185888059437274932861328125</LongitudeDegrees>
            </Position>
            <AltitudeMeters>352.20001220703125</AltitudeMeters>
            <DistanceMeters>78870.294356669</DistanceMeters>
          </Trackpoint>
          <Trackpoint>
            <Time>2019-07-26T14:45:07.000Z</Time>
            <Position>
              <LatitudeDegrees>42.9175557196140289306640625</LatitudeDegrees>
              <LongitudeDegrees>-8.34206725470721721649169921875</LongitudeDegrees>
            </Position>
            <AltitudeMeters>351.399993896484375</AltitudeMeters>
            <DistanceMeters>78889.007623741</DistanceMeters>
          </Trackpoint>
          <Trackpoint>
            <Time>2019-07-26T14:45:10.000Z</Time>
            <Position>
              <LatitudeDegrees>42.91743141598999500274658203125</LatitudeDegrees>
              <LongitudeDegrees>-8.34241694770753383636474609375</LongitudeDegrees>
            </Position>
            <AltitudeMeters>349.79998779296875</AltitudeMeters>
            <DistanceMeters>78920.691588112</DistanceMeters>
          </Trackpoint>
          <Trackpoint>
            <Time>2019-07-26T14:45:12.000Z</Time>
            <Position>
              <LatitudeDegrees>42.9173433221876621246337890625</LatitudeDegrees>
              <LongitudeDegrees>-8.3426518924534320831298828125</LongitudeDegrees>
            </Position>
            <AltitudeMeters>349</AltitudeMeters>
            <DistanceMeters>78942.206274224</DistanceMeters>
          </Trackpoint>
          <Trackpoint>
            <Time>2019-07-26T14:45:13.000Z</Time>
            <Position>
              <LatitudeDegrees>42.917307280004024505615234375</LatitudeDegrees>
              <LongitudeDegrees>-8.342773430049419403076171875</LongitudeDegrees>
            </Position>
            <AltitudeMeters>348.600006103515625</AltitudeMeters>
            <DistanceMeters>78952.894139634</DistanceMeters>
          </Trackpoint>
          <Trackpoint>
            <Time>2019-07-26T14:45:15.000Z</Time>
            <Position>
              <LatitudeDegrees>42.9172390513122081756591796875</LatitudeDegrees>
              <LongitudeDegrees>-8.34300988353788852691650390625</LongitudeDegrees>
            </Position>
            <AltitudeMeters>348</AltitudeMeters>
            <DistanceMeters>78973.609963367</DistanceMeters>
          </Trackpoint>
          <Trackpoint>
            <Time>2019-07-26T14:45:16.000Z</Time>
            <Position>
              <LatitudeDegrees>42.9172031767666339874267578125</LatitudeDegrees>
              <LongitudeDegrees>-8.34310946054756641387939453125</LongitudeDegrees>
            </Position>
            <AltitudeMeters>347.600006103515625</AltitudeMeters>
            <DistanceMeters>78982.655987506</DistanceMeters>
          </Trackpoint>
          <Trackpoint>
            <Time>2019-07-26T14:45:17.000Z</Time>
            <Position>
              <LatitudeDegrees>42.9171428270637989044189453125</LatitudeDegrees>
              <LongitudeDegrees>-8.3432050980627536773681640625</LongitudeDegrees>
            </Position>
            <AltitudeMeters>347</AltitudeMeters>
            <DistanceMeters>78992.946112694</DistanceMeters>
          </Trackpoint>
          <Trackpoint>
            <Time>2019-07-26T14:45:18.000Z</Time>
            <Position>
              <LatitudeDegrees>42.917072586715221405029296875</LatitudeDegrees>
              <LongitudeDegrees>-8.3432865701615810394287109375</LongitudeDegrees>
            </Position>
            <AltitudeMeters>346.399993896484375</AltitudeMeters>
            <DistanceMeters>79003.203717226</DistanceMeters>
          </Trackpoint>
          <Trackpoint>
            <Time>2019-07-26T14:45:19.000Z</Time>
            <Position>
              <LatitudeDegrees>42.9169929586350917816162109375</LatitudeDegrees>
              <LongitudeDegrees>-8.34333141334354877471923828125</LongitudeDegrees>
            </Position>
            <AltitudeMeters>346</AltitudeMeters>
            <DistanceMeters>79012.791060347</DistanceMeters>
          </Trackpoint>
          <Trackpoint>
            <Time>2019-07-26T14:45:20.000Z</Time>
            <Position>
              <LatitudeDegrees>42.9169168509542942047119140625</LatitudeDegrees>
              <LongitudeDegrees>-8.3433516137301921844482421875</LongitudeDegrees>
            </Position>
            <AltitudeMeters>345.399993896484375</AltitudeMeters>
            <DistanceMeters>79021.420197636</DistanceMeters>
          </Trackpoint>
          <Trackpoint>
            <Time>2019-07-26T14:45:22.000Z</Time>
            <Position>
              <LatitudeDegrees>42.9167663119733333587646484375</LatitudeDegrees>
              <LongitudeDegrees>-8.34330241195857524871826171875</LongitudeDegrees>
            </Position>
            <AltitudeMeters>343.79998779296875</AltitudeMeters>
            <DistanceMeters>79038.648622193</DistanceMeters>
          </Trackpoint>
          <Trackpoint>
            <Time>2019-07-26T14:45:23.000Z</Time>
            <Position>
              <LatitudeDegrees>42.91670478880405426025390625</LatitudeDegrees>
              <LongitudeDegrees>-8.34328246302902698516845703125</LongitudeDegrees>
            </Position>
            <AltitudeMeters>342.79998779296875</AltitudeMeters>
            <DistanceMeters>79045.687016852</DistanceMeters>
          </Trackpoint>
          <Trackpoint>
            <Time>2019-07-26T14:45:24.000Z</Time>
            <Position>
              <LatitudeDegrees>42.916644103825092315673828125</LatitudeDegrees>
              <LongitudeDegrees>-8.3432755060493946075439453125</LongitudeDegrees>
            </Position>
            <AltitudeMeters>341.79998779296875</AltitudeMeters>
            <DistanceMeters>79052.465293104</DistanceMeters>
          </Trackpoint>
          <Trackpoint>
            <Time>2019-07-26T14:45:25.000Z</Time>
            <Position>
              <LatitudeDegrees>42.9165923036634922027587890625</LatitudeDegrees>
              <LongitudeDegrees>-8.34329335950314998626708984375</LongitudeDegrees>
            </Position>
            <AltitudeMeters>341</AltitudeMeters>
            <DistanceMeters>79058.411110901</DistanceMeters>
          </Trackpoint>
          <Trackpoint>
            <Time>2019-07-26T14:45:26.000Z</Time>
            <Position>
              <LatitudeDegrees>42.91655835695564746856689453125</LatitudeDegrees>
              <LongitudeDegrees>-8.34333040751516819000244140625</LongitudeDegrees>
            </Position>
            <AltitudeMeters>339.600006103515625</AltitudeMeters>
            <DistanceMeters>79063.248148017</DistanceMeters>
          </Trackpoint>
          <Trackpoint>
            <Time>2019-07-26T14:45:28.000Z</Time>
            <Position>
              <LatitudeDegrees>42.91653891094028949737548828125</LatitudeDegrees>
              <LongitudeDegrees>-8.3434635959565639495849609375</LongitudeDegrees>
            </Position>
            <AltitudeMeters>338</AltitudeMeters>
            <DistanceMeters>79074.317842564</DistanceMeters>
          </Trackpoint>
          <Trackpoint>
            <Time>2019-07-26T14:45:29.000Z</Time>
            <Position>
              <LatitudeDegrees>42.91654678992927074432373046875</LatitudeDegrees>
              <LongitudeDegrees>-8.34354364313185214996337890625</LongitudeDegrees>
            </Position>
            <AltitudeMeters>337.399993896484375</AltitudeMeters>
            <DistanceMeters>79080.900800626</DistanceMeters>
          </Trackpoint>
          <Trackpoint>
            <Time>2019-07-26T14:45:30.000Z</Time>
            <Position>
              <LatitudeDegrees>42.91655584238469600677490234375</LatitudeDegrees>
              <LongitudeDegrees>-8.3436292223632335662841796875</LongitudeDegrees>
            </Position>
            <AltitudeMeters>336.600006103515625</AltitudeMeters>
            <DistanceMeters>79087.949451603</DistanceMeters>
          </Trackpoint>
          <Trackpoint>
            <Time>2019-07-26T14:45:32.000Z</Time>
            <Position>
              <LatitudeDegrees>42.91657461784780025482177734375</LatitudeDegrees>
              <LongitudeDegrees>-8.34379929117858409881591796875</LongitudeDegrees>
            </Position>
            <AltitudeMeters>335.20001220703125</AltitudeMeters>
            <DistanceMeters>79101.968388215</DistanceMeters>
          </Trackpoint>
          <Trackpoint>
            <Time>2019-07-26T14:45:33.000Z</Time>
            <Position>
              <LatitudeDegrees>42.91657025925815105438232421875</LatitudeDegrees>
              <LongitudeDegrees>-8.34386182017624378204345703125</LongitudeDegrees>
            </Position>
            <AltitudeMeters>334.79998779296875</AltitudeMeters>
            <DistanceMeters>79107.088379613</DistanceMeters>
          </Trackpoint>
          <Trackpoint>
            <Time>2019-07-26T14:45:35.000Z</Time>
            <Position>
              <LatitudeDegrees>42.91654142551124095916748046875</LatitudeDegrees>
              <LongitudeDegrees>-8.34394899196922779083251953125</LongitudeDegrees>
            </Position>
            <AltitudeMeters>333.600006103515625</AltitudeMeters>
            <DistanceMeters>79114.885204263</DistanceMeters>
          </Trackpoint>
          <Trackpoint>
            <Time>2019-07-26T14:45:36.000Z</Time>
            <Position>
              <LatitudeDegrees>42.91652432642877101898193359375</LatitudeDegrees>
              <LongitudeDegrees>-8.3439916558563709259033203125</LongitudeDegrees>
            </Position>
            <AltitudeMeters>333.20001220703125</AltitudeMeters>
            <DistanceMeters>79118.849082794</DistanceMeters>
          </Trackpoint>
          <Trackpoint>
            <Time>2019-07-26T14:45:37.000Z</Time>
            <Position>
              <LatitudeDegrees>42.916494570672512054443359375</LatitudeDegrees>
              <LongitudeDegrees>-8.344049155712127685546875</LongitudeDegrees>
            </Position>
            <AltitudeMeters>333</AltitudeMeters>
            <DistanceMeters>79124.586996938</DistanceMeters>
          </Trackpoint>
          <Trackpoint>
            <Time>2019-07-26T14:45:39.000Z</Time>
            <Position>
              <LatitudeDegrees>42.91646347381174564361572265625</LatitudeDegrees>
              <LongitudeDegrees>-8.3441495709121227264404296875</LongitudeDegrees>
            </Position>
            <AltitudeMeters>332</AltitudeMeters>
            <DistanceMeters>79133.473900143</DistanceMeters>
          </Trackpoint>
          <Trackpoint>
            <Time>2019-07-26T14:45:40.000Z</Time>
            <Position>
              <LatitudeDegrees>42.9164454527199268341064453125</LatitudeDegrees>
              <LongitudeDegrees>-8.3441874571144580841064453125</LongitudeDegrees>
            </Position>
            <AltitudeMeters>331</AltitudeMeters>
            <DistanceMeters>79137.156721727</DistanceMeters>
          </Trackpoint>
          <Trackpoint>
            <Time>2019-07-26T14:45:41.000Z</Time>
            <Position>
              <LatitudeDegrees>42.9164256714284420013427734375</LatitudeDegrees>
              <LongitudeDegrees>-8.34422794170677661895751953125</LongitudeDegrees>
            </Position>
            <AltitudeMeters>329.79998779296875</AltitudeMeters>
            <DistanceMeters>79141.122877695</DistanceMeters>
          </Trackpoint>
          <Trackpoint>
            <Time>2019-07-26T14:45:42.000Z</Time>
            <Position>
              <LatitudeDegrees>42.91641133837401866912841796875</LatitudeDegrees>
              <LongitudeDegrees>-8.34427068941295146942138671875</LongitudeDegrees>
            </Position>
            <AltitudeMeters>328.79998779296875</AltitudeMeters>
            <DistanceMeters>79144.954705496</DistanceMeters>
          </Trackpoint>
          <Trackpoint>
            <Time>2019-07-26T14:45:45.000Z</Time>
            <Position>
              <LatitudeDegrees>42.9163807444274425506591796875</LatitudeDegrees>
              <LongitudeDegrees>-8.344419635832309722900390625</LongitudeDegrees>
            </Position>
            <AltitudeMeters>328</AltitudeMeters>
            <DistanceMeters>79157.564288599</DistanceMeters>
          </Trackpoint>
          <Trackpoint>
            <Time>2019-07-26T14:45:46.000Z</Time>
            <Position>
              <LatitudeDegrees>42.91636875830590724945068359375</LatitudeDegrees>
              <LongitudeDegrees>-8.3444925583899021148681640625</LongitudeDegrees>
            </Position>
            <AltitudeMeters>327.79998779296875</AltitudeMeters>
            <DistanceMeters>79163.656383</DistanceMeters>
          </Trackpoint>
          <Trackpoint>
            <Time>2019-07-26T14:45:47.000Z</Time>
            <Position>
              <LatitudeDegrees>42.91635232977569103240966796875</LatitudeDegrees>
              <LongitudeDegrees>-8.3445663191378116607666015625</LongitudeDegrees>
            </Position>
            <AltitudeMeters>327.600006103515625</AltitudeMeters>
            <DistanceMeters>79169.941090977</DistanceMeters>
          </Trackpoint>
          <Trackpoint>
            <Time>2019-07-26T14:45:48.000Z</Time>
            <Position>
              <LatitudeDegrees>42.9163247533142566680908203125</LatitudeDegrees>
              <LongitudeDegrees>-8.344648294150829315185546875</LongitudeDegrees>
            </Position>
            <AltitudeMeters>327.600006103515625</AltitudeMeters>
            <DistanceMeters>79177.2944642</DistanceMeters>
          </Trackpoint>
          <Trackpoint>
            <Time>2019-07-26T14:45:50.000Z</Time>
            <Position>
              <LatitudeDegrees>42.91625794954597949981689453125</LatitudeDegrees>
              <LongitudeDegrees>-8.344838730990886688232421875</LongitudeDegrees>
            </Position>
            <AltitudeMeters>327.600006103515625</AltitudeMeters>
            <DistanceMeters>79194.50610816</DistanceMeters>
          </Trackpoint>
          <Trackpoint>
            <Time>2019-07-26T14:45:51.000Z</Time>
            <Position>
              <LatitudeDegrees>42.91621520183980464935302734375</LatitudeDegrees>
              <LongitudeDegrees>-8.3449371345341205596923828125</LongitudeDegrees>
            </Position>
            <AltitudeMeters>327.399993896484375</AltitudeMeters>
            <DistanceMeters>79203.832291533</DistanceMeters>
          </Trackpoint>
          <Trackpoint>
            <Time>2019-07-26T14:45:56.000Z</Time>
            <Position>
              <LatitudeDegrees>42.91602744720876216888427734375</LatitudeDegrees>
              <LongitudeDegrees>-8.34550785832107067108154296875</LongitudeDegrees>
            </Position>
            <AltitudeMeters>326.79998779296875</AltitudeMeters>
            <DistanceMeters>79254.831456801</DistanceMeters>
          </Trackpoint>
          <Trackpoint>
            <Time>2019-07-26T14:45:57.000Z</Time>
            <Position>
              <LatitudeDegrees>42.91596743278205394744873046875</LatitudeDegrees>
              <LongitudeDegrees>-8.34561162628233432769775390625</LongitudeDegrees>
            </Position>
            <AltitudeMeters>326.399993896484375</AltitudeMeters>
            <DistanceMeters>79265.60976527</DistanceMeters>
          </Trackpoint>
          <Trackpoint>
            <Time>2019-07-26T14:45:59.000Z</Time>
            <Position>
              <LatitudeDegrees>42.91585578583180904388427734375</LatitudeDegrees>
              <LongitudeDegrees>-8.34580399096012115478515625</LongitudeDegrees>
            </Position>
            <AltitudeMeters>324.79998779296875</AltitudeMeters>
            <DistanceMeters>79285.616894714</DistanceMeters>
          </Trackpoint>
          <Trackpoint>
            <Time>2019-07-26T14:46:00.000Z</Time>
            <Position>
              <LatitudeDegrees>42.915806584060192108154296875</LatitudeDegrees>
              <LongitudeDegrees>-8.34588906727731227874755859375</LongitudeDegrees>
            </Position>
            <AltitudeMeters>324.20001220703125</AltitudeMeters>
            <DistanceMeters>79294.45386824</DistanceMeters>
          </Trackpoint>
          <Trackpoint>
            <Time>2019-07-26T14:46:01.000Z</Time>
            <Position>
              <LatitudeDegrees>42.91575704701244831085205078125</LatitudeDegrees>
              <LongitudeDegrees>-8.345969952642917633056640625</LongitudeDegrees>
            </Position>
            <AltitudeMeters>323.399993896484375</AltitudeMeters>
            <DistanceMeters>79303.048402858</DistanceMeters>
          </Trackpoint>
          <Trackpoint>
            <Time>2019-07-26T14:46:02.000Z</Time>
            <Position>
              <LatitudeDegrees>42.915711700916290283203125</LatitudeDegrees>
              <LongitudeDegrees>-8.34605469368398189544677734375</LongitudeDegrees>
            </Position>
            <AltitudeMeters>322.600006103515625</AltitudeMeters>
            <DistanceMeters>79311.602918596</DistanceMeters>
          </Trackpoint>
          <Trackpoint>
            <Time>2019-07-26T14:46:03.000Z</Time>
            <Position>
              <LatitudeDegrees>42.91567473672330379486083984375</LatitudeDegrees>
              <LongitudeDegrees>-8.34614438004791736602783203125</LongitudeDegrees>
            </Position>
            <AltitudeMeters>322</AltitudeMeters>
            <DistanceMeters>79319.991684043</DistanceMeters>
          </Trackpoint>
          <Trackpoint>
            <Time>2019-07-26T14:46:05.000Z</Time>
            <Position>
              <LatitudeDegrees>42.91562394239008426666259765625</LatitudeDegrees>
              <LongitudeDegrees>-8.346334397792816162109375</LongitudeDegrees>
            </Position>
            <AltitudeMeters>321</AltitudeMeters>
            <DistanceMeters>79336.4798459</DistanceMeters>
          </Trackpoint>
          <Trackpoint>
            <Time>2019-07-26T14:46:06.000Z</Time>
            <Position>
              <LatitudeDegrees>42.91559494100511074066162109375</LatitudeDegrees>
              <LongitudeDegrees>-8.3464277721941471099853515625</LongitudeDegrees>
            </Position>
            <AltitudeMeters>320.399993896484375</AltitudeMeters>
            <DistanceMeters>79344.746623902</DistanceMeters>
          </Trackpoint>
          <Trackpoint>
            <Time>2019-07-26T14:46:08.000Z</Time>
            <Position>
              <LatitudeDegrees>42.91551053524017333984375</LatitudeDegrees>
              <LongitudeDegrees>-8.3466047979891300201416015625</LongitudeDegrees>
            </Position>
            <AltitudeMeters>319</AltitudeMeters>
            <DistanceMeters>79361.965611385</DistanceMeters>
          </Trackpoint>
          <Trackpoint>
            <Time>2019-07-26T14:46:09.000Z</Time>
            <Position>
              <LatitudeDegrees>42.9154654406011104583740234375</LatitudeDegrees>
              <LongitudeDegrees>-8.346685431897640228271484375</LongitudeDegrees>
            </Position>
            <AltitudeMeters>318.20001220703125</AltitudeMeters>
            <DistanceMeters>79370.235665737</DistanceMeters>
          </Trackpoint>
          <Trackpoint>
            <Time>2019-07-26T14:46:10.000Z</Time>
            <Position>
              <LatitudeDegrees>42.91542026214301586151123046875</LatitudeDegrees>
              <LongitudeDegrees>-8.34676564671099185943603515625</LongitudeDegrees>
            </Position>
            <AltitudeMeters>317.600006103515625</AltitudeMeters>
            <DistanceMeters>79378.48385317</DistanceMeters>
          </Trackpoint>
          <Trackpoint>
            <Time>2019-07-26T14:46:13.000Z</Time>
            <Position>
              <LatitudeDegrees>42.91525362990796566009521484375</LatitudeDegrees>
              <LongitudeDegrees>-8.34702850319445133209228515625</LongitudeDegrees>
            </Position>
            <AltitudeMeters>316.600006103515625</AltitudeMeters>
            <DistanceMeters>79406.822215126</DistanceMeters>
          </Trackpoint>
          <Trackpoint>
            <Time>2019-07-26T14:46:14.000Z</Time>
            <Position>
              <LatitudeDegrees>42.91520216502249240875244140625</LatitudeDegrees>
              <LongitudeDegrees>-8.34712087176740169525146484375</LongitudeDegrees>
            </Position>
            <AltitudeMeters>316.20001220703125</AltitudeMeters>
            <DistanceMeters>79416.282982415</DistanceMeters>
          </Trackpoint>
          <Trackpoint>
            <Time>2019-07-26T14:46:17.000Z</Time>
            <Position>
              <LatitudeDegrees>42.91501726023852825164794921875</LatitudeDegrees>
              <LongitudeDegrees>-8.34739915095269680023193359375</LongitudeDegrees>
            </Position>
            <AltitudeMeters>315.20001220703125</AltitudeMeters>
            <DistanceMeters>79446.911376455</DistanceMeters>
          </Trackpoint>
          <Trackpoint>
            <Time>2019-07-26T14:46:19.000Z</Time>
            <Position>
              <LatitudeDegrees>42.91490980423986911773681640625</LatitudeDegrees>
              <LongitudeDegrees>-8.3476116321980953216552734375</LongitudeDegrees>
            </Position>
            <AltitudeMeters>314.79998779296875</AltitudeMeters>
            <DistanceMeters>79467.959740061</DistanceMeters>
          </Trackpoint>
          <Trackpoint>
            <Time>2019-07-26T14:46:21.000Z</Time>
            <Position>
              <LatitudeDegrees>42.91481290943920612335205078125</LatitudeDegrees>
              <LongitudeDegrees>-8.34783308207988739013671875</LongitudeDegrees>
            </Position>
            <AltitudeMeters>314.20001220703125</AltitudeMeters>
            <DistanceMeters>79488.987500835</DistanceMeters>
          </Trackpoint>
          <Trackpoint>
            <Time>2019-07-26T14:46:23.000Z</Time>
            <Position>
              <LatitudeDegrees>42.9147442616522312164306640625</LatitudeDegrees>
              <LongitudeDegrees>-8.3480387739837169647216796875</LongitudeDegrees>
            </Position>
            <AltitudeMeters>313.399993896484375</AltitudeMeters>
            <DistanceMeters>79507.413374332</DistanceMeters>
          </Trackpoint>
          <Trackpoint>
            <Time>2019-07-26T14:46:24.000Z</Time>
            <Position>
              <LatitudeDegrees>42.9147201217710971832275390625</LatitudeDegrees>
              <LongitudeDegrees>-8.348131477832794189453125</LongitudeDegrees>
            </Position>
            <AltitudeMeters>313</AltitudeMeters>
            <DistanceMeters>79515.433989308</DistanceMeters>
          </Trackpoint>
          <Trackpoint>
            <Time>2019-07-26T14:46:26.000Z</Time>
            <Position>
              <LatitudeDegrees>42.91465558111667633056640625</LatitudeDegrees>
              <LongitudeDegrees>-8.34833155386149883270263671875</LongitudeDegrees>
            </Position>
            <AltitudeMeters>311.600006103515625</AltitudeMeters>
            <DistanceMeters>79533.254982225</DistanceMeters>
          </Trackpoint>
          <Trackpoint>
            <Time>2019-07-26T14:46:27.000Z</Time>
            <Position>
              <LatitudeDegrees>42.91461828164756298065185546875</LatitudeDegrees>
              <LongitudeDegrees>-8.34842643700540065765380859375</LongitudeDegrees>
            </Position>
            <AltitudeMeters>311.20001220703125</AltitudeMeters>
            <DistanceMeters>79542.033516975</DistanceMeters>
          </Trackpoint>
          <Trackpoint>
            <Time>2019-07-26T14:46:30.000Z</Time>
            <Position>
              <LatitudeDegrees>42.9145390726625919342041015625</LatitudeDegrees>
              <LongitudeDegrees>-8.348731957376003265380859375</LongitudeDegrees>
            </Position>
            <AltitudeMeters>310</AltitudeMeters>
            <DistanceMeters>79568.452310826</DistanceMeters>
          </Trackpoint>
          <Trackpoint>
            <Time>2019-07-26T14:46:32.000Z</Time>
            <Position>
              <LatitudeDegrees>42.9144860990345478057861328125</LatitudeDegrees>
              <LongitudeDegrees>-8.3489420078694820404052734375</LongitudeDegrees>
            </Position>
            <AltitudeMeters>309</AltitudeMeters>
            <DistanceMeters>79586.561071856</DistanceMeters>
          </Trackpoint>
          <Trackpoint>
            <Time>2019-07-26T14:46:35.000Z</Time>
            <Position>
              <LatitudeDegrees>42.91452792473137378692626953125</LatitudeDegrees>
              <LongitudeDegrees>-8.34922607056796550750732421875</LongitudeDegrees>
            </Position>
            <AltitudeMeters>307.600006103515625</AltitudeMeters>
            <DistanceMeters>79610.179559791</DistanceMeters>
          </Trackpoint>
          <Trackpoint>
            <Time>2019-07-26T14:46:37.000Z</Time>
            <Position>
              <LatitudeDegrees>42.91461962275207042694091796875</LatitudeDegrees>
              <LongitudeDegrees>-8.34934945218265056610107421875</LongitudeDegrees>
            </Position>
            <AltitudeMeters>306.399993896484375</AltitudeMeters>
            <DistanceMeters>79624.508441398</DistanceMeters>
          </Trackpoint>
          <Trackpoint>
            <Time>2019-07-26T14:46:38.000Z</Time>
            <Position>
              <LatitudeDegrees>42.91467024944722652435302734375</LatitudeDegrees>
              <LongitudeDegrees>-8.3494122326374053955078125</LongitudeDegrees>
            </Position>
            <AltitudeMeters>306</AltitudeMeters>
            <DistanceMeters>79632.120075287</DistanceMeters>
          </Trackpoint>
          <Trackpoint>
            <Time>2019-07-26T14:46:40.000Z</Time>
            <Position>
              <LatitudeDegrees>42.91475641541182994842529296875</LatitudeDegrees>
              <LongitudeDegrees>-8.34952714852988719940185546875</LongitudeDegrees>
            </Position>
            <AltitudeMeters>304.79998779296875</AltitudeMeters>
            <DistanceMeters>79645.526253395</DistanceMeters>
          </Trackpoint>
          <Trackpoint>
            <Time>2019-07-26T14:46:41.000Z</Time>
            <Position>
              <LatitudeDegrees>42.91478969156742095947265625</LatitudeDegrees>
              <LongitudeDegrees>-8.349591605365276336669921875</LongitudeDegrees>
            </Position>
            <AltitudeMeters>303.79998779296875</AltitudeMeters>
            <DistanceMeters>79651.954443639</DistanceMeters>
          </Trackpoint>
          <Trackpoint>
            <Time>2019-07-26T14:46:42.000Z</Time>
            <Position>
              <LatitudeDegrees>42.9148109816014766693115234375</LatitudeDegrees>
              <LongitudeDegrees>-8.34966863505542278289794921875</LongitudeDegrees>
            </Position>
            <AltitudeMeters>303</AltitudeMeters>
            <DistanceMeters>79658.665778924</DistanceMeters>
          </Trackpoint>
          <Trackpoint>
            <Time>2019-07-26T14:46:43.000Z</Time>
            <Position>
              <LatitudeDegrees>42.91481710039079189300537109375</LatitudeDegrees>
              <LongitudeDegrees>-8.3497537113726139068603515625</LongitudeDegrees>
            </Position>
            <AltitudeMeters>302.20001220703125</AltitudeMeters>
            <DistanceMeters>79665.634548622</DistanceMeters>
          </Trackpoint>
          <Trackpoint>
            <Time>2019-07-26T14:46:44.000Z</Time>
            <Position>
              <LatitudeDegrees>42.9148203693330287933349609375</LatitudeDegrees>
              <LongitudeDegrees>-8.349842727184295654296875</LongitudeDegrees>
            </Position>
            <AltitudeMeters>301.399993896484375</AltitudeMeters>
            <DistanceMeters>79672.898966475</DistanceMeters>
          </Trackpoint>
          <Trackpoint>
            <Time>2019-07-26T14:46:47.000Z</Time>
            <Position>
              <LatitudeDegrees>42.91474736295640468597412109375</LatitudeDegrees>
              <LongitudeDegrees>-8.35009812377393245697021484375</LongitudeDegrees>
            </Position>
            <AltitudeMeters>299.600006103515625</AltitudeMeters>
            <DistanceMeters>79695.247019365</DistanceMeters>
          </Trackpoint>
          <Trackpoint>
            <Time>2019-07-26T14:46:48.000Z</Time>
            <Position>
              <LatitudeDegrees>42.91471299715340137481689453125</LatitudeDegrees>
              <LongitudeDegrees>-8.350164256989955902099609375</LongitudeDegrees>
            </Position>
            <AltitudeMeters>298.20001220703125</AltitudeMeters>
            <DistanceMeters>79701.858038196</DistanceMeters>
          </Trackpoint>
          <Trackpoint>
            <Time>2019-07-26T14:46:49.000Z</Time>
            <Position>
              <LatitudeDegrees>42.91467946954071521759033203125</LatitudeDegrees>
              <LongitudeDegrees>-8.35023810155689716339111328125</LongitudeDegrees>
            </Position>
            <AltitudeMeters>296.79998779296875</AltitudeMeters>
            <DistanceMeters>79708.941194606</DistanceMeters>
          </Trackpoint>
          <Trackpoint>
            <Time>2019-07-26T14:46:50.000Z</Time>
            <Position>
              <LatitudeDegrees>42.91464510373771190643310546875</LatitudeDegrees>
              <LongitudeDegrees>-8.35031622089445590972900390625</LongitudeDegrees>
            </Position>
            <AltitudeMeters>295</AltitudeMeters>
            <DistanceMeters>79716.369099228</DistanceMeters>
          </Trackpoint>
          <Trackpoint>
            <Time>2019-07-26T14:46:51.000Z</Time>
            <Position>
              <LatitudeDegrees>42.9146141745150089263916015625</LatitudeDegrees>
              <LongitudeDegrees>-8.35039266385138034820556640625</LongitudeDegrees>
            </Position>
            <AltitudeMeters>294.399993896484375</AltitudeMeters>
            <DistanceMeters>79723.48913077</DistanceMeters>
          </Trackpoint>
          <Trackpoint>
            <Time>2019-07-26T14:46:53.000Z</Time>
            <Position>
              <LatitudeDegrees>42.91456446982920169830322265625</LatitudeDegrees>
              <LongitudeDegrees>-8.3505271933972835540771484375</LongitudeDegrees>
            </Position>
            <AltitudeMeters>293.20001220703125</AltitudeMeters>
            <DistanceMeters>79735.771862027</DistanceMeters>
          </Trackpoint>
          <Trackpoint>
            <Time>2019-07-26T14:46:55.000Z</Time>
            <Position>
              <LatitudeDegrees>42.914518453180789947509765625</LatitudeDegrees>
              <LongitudeDegrees>-8.350677900016307830810546875</LongitudeDegrees>
            </Position>
            <AltitudeMeters>291.79998779296875</AltitudeMeters>
            <DistanceMeters>79749.081709497</DistanceMeters>
          </Trackpoint>
          <Trackpoint>
            <Time>2019-07-26T14:46:56.000Z</Time>
            <Position>
              <LatitudeDegrees>42.91449154727160930633544921875</LatitudeDegrees>
              <LongitudeDegrees>-8.35075668990612030029296875</LongitudeDegrees>
            </Position>
            <AltitudeMeters>291.399993896484375</AltitudeMeters>
            <DistanceMeters>79756.168052356</DistanceMeters>
          </Trackpoint>
          <Trackpoint>
            <Time>2019-07-26T14:46:59.000Z</Time>
            <Position>
              <LatitudeDegrees>42.91440873406827449798583984375</LatitudeDegrees>
              <LongitudeDegrees>-8.3509947359561920166015625</LongitudeDegrees>
            </Position>
            <AltitudeMeters>290.600006103515625</AltitudeMeters>
            <DistanceMeters>79777.650185785</DistanceMeters>
          </Trackpoint>
          <Trackpoint>
            <Time>2019-07-26T14:47:02.000Z</Time>
            <Position>
              <LatitudeDegrees>42.91432290337979793548583984375</LatitudeDegrees>
              <LongitudeDegrees>-8.35124661214649677276611328125</LongitudeDegrees>
            </Position>
            <AltitudeMeters>289.399993896484375</AltitudeMeters>
            <DistanceMeters>79800.295273135</DistanceMeters>
          </Trackpoint>
          <Trackpoint>
            <Time>2019-07-26T14:47:03.000Z</Time>
            <Position>
              <LatitudeDegrees>42.914295494556427001953125</LatitudeDegrees>
              <LongitudeDegrees>-8.35133596323430538177490234375</LongitudeDegrees>
            </Position>
            <AltitudeMeters>289.399993896484375</AltitudeMeters>
            <DistanceMeters>79808.191644317</DistanceMeters>
          </Trackpoint>
          <Trackpoint>
            <Time>2019-07-26T14:47:10.000Z</Time>
            <Position>
              <LatitudeDegrees>42.9140649922192096710205078125</LatitudeDegrees>
              <LongitudeDegrees>-8.3519496023654937744140625</LongitudeDegrees>
            </Position>
            <AltitudeMeters>288.600006103515625</AltitudeMeters>
            <DistanceMeters>79864.407797273</DistanceMeters>
          </Trackpoint>
          <Trackpoint>
            <Time>2019-07-26T14:47:11.000Z</Time>
            <Position>
              <LatitudeDegrees>42.914032973349094390869140625</LatitudeDegrees>
              <LongitudeDegrees>-8.35204239003360271453857421875</LongitudeDegrees>
            </Position>
            <AltitudeMeters>288.399993896484375</AltitudeMeters>
            <DistanceMeters>79872.768528207</DistanceMeters>
          </Trackpoint>
          <Trackpoint>
            <Time>2019-07-26T14:47:18.000Z</Time>
            <Position>
              <LatitudeDegrees>42.91381110437214374542236328125</LatitudeDegrees>
              <LongitudeDegrees>-8.35265074856579303741455078125</LongitudeDegrees>
            </Position>
            <AltitudeMeters>287.20001220703125</AltitudeMeters>
            <DistanceMeters>79928.167228198</DistanceMeters>
          </Trackpoint>
          <Trackpoint>
            <Time>2019-07-26T14:47:19.000Z</Time>
            <Position>
              <LatitudeDegrees>42.91377858258783817291259765625</LatitudeDegrees>
              <LongitudeDegrees>-8.35272870026528835296630859375</LongitudeDegrees>
            </Position>
            <AltitudeMeters>287.20001220703125</AltitudeMeters>
            <DistanceMeters>79935.479964533</DistanceMeters>
          </Trackpoint>
          <Trackpoint>
            <Time>2019-07-26T14:47:23.000Z</Time>
            <Position>
              <LatitudeDegrees>42.913615219295024871826171875</LatitudeDegrees>
              <LongitudeDegrees>-8.35302089340984821319580078125</LongitudeDegrees>
            </Position>
            <AltitudeMeters>286.79998779296875</AltitudeMeters>
            <DistanceMeters>79965.445339741</DistanceMeters>
          </Trackpoint>
          <Trackpoint>
            <Time>2019-07-26T14:47:24.000Z</Time>
            <Position>
              <LatitudeDegrees>42.91356937028467655181884765625</LatitudeDegrees>
              <LongitudeDegrees>-8.3530895411968231201171875</LongitudeDegrees>
            </Position>
            <AltitudeMeters>286.79998779296875</AltitudeMeters>
            <DistanceMeters>79973.018915222</DistanceMeters>
          </Trackpoint>
          <Trackpoint>
            <Time>2019-07-26T14:47:27.000Z</Time>
            <Position>
              <LatitudeDegrees>42.913419418036937713623046875</LatitudeDegrees>
              <LongitudeDegrees>-8.3532828278839588165283203125</LongitudeDegrees>
            </Position>
            <AltitudeMeters>286.399993896484375</AltitudeMeters>
            <DistanceMeters>79995.971358659</DistanceMeters>
          </Trackpoint>
          <Trackpoint>
            <Time>2019-07-26T14:47:31.000Z</Time>
            <Position>
              <LatitudeDegrees>42.91321179829537868499755859375</LatitudeDegrees>
              <LongitudeDegrees>-8.3535181917250156402587890625</LongitudeDegrees>
            </Position>
            <AltitudeMeters>286.20001220703125</AltitudeMeters>
            <DistanceMeters>80026.006415456</DistanceMeters>
          </Trackpoint>
          <Trackpoint>
            <Time>2019-07-26T14:47:35.000Z</Time>
            <Position>
              <LatitudeDegrees>42.91301918216049671173095703125</LatitudeDegrees>
              <LongitudeDegrees>-8.35378264077007770538330078125</LongitudeDegrees>
            </Position>
            <AltitudeMeters>285.600006103515625</AltitudeMeters>
            <DistanceMeters>80056.408727286</DistanceMeters>
          </Trackpoint>
          <Trackpoint>
            <Time>2019-07-26T14:47:36.000Z</Time>
            <Position>
              <LatitudeDegrees>42.9129840619862079620361328125</LatitudeDegrees>
              <LongitudeDegrees>-8.35386059246957302093505859375</LongitudeDegrees>
            </Position>
            <AltitudeMeters>285.399993896484375</AltitudeMeters>
            <DistanceMeters>80063.8687783</DistanceMeters>
          </Trackpoint>
          <Trackpoint>
            <Time>2019-07-26T14:47:37.000Z</Time>
            <Position>
              <LatitudeDegrees>42.9129525460302829742431640625</LatitudeDegrees>
              <LongitudeDegrees>-8.3539478480815887451171875</LongitudeDegrees>
            </Position>
            <AltitudeMeters>285.399993896484375</AltitudeMeters>
            <DistanceMeters>80071.799951763</DistanceMeters>
          </Trackpoint>
          <Trackpoint>
            <Time>2019-07-26T14:47:41.000Z</Time>
            <Position>
              <LatitudeDegrees>42.912815250456333160400390625</LatitudeDegrees>
              <LongitudeDegrees>-8.3543459884822368621826171875</LongitudeDegrees>
            </Position>
            <AltitudeMeters>284.600006103515625</AltitudeMeters>
            <DistanceMeters>80107.672756698</DistanceMeters>
          </Trackpoint>
          <Trackpoint>
            <Time>2019-07-26T14:47:43.000Z</Time>
            <Position>
              <LatitudeDegrees>42.912750206887722015380859375</LatitudeDegrees>
              <LongitudeDegrees>-8.354565761983394622802734375</LongitudeDegrees>
            </Position>
            <AltitudeMeters>284.399993896484375</AltitudeMeters>
            <DistanceMeters>80126.99545244</DistanceMeters>
          </Trackpoint>
          <Trackpoint>
            <Time>2019-07-26T14:47:47.000Z</Time>
            <Position>
              <LatitudeDegrees>42.91264669038355350494384765625</LatitudeDegrees>
              <LongitudeDegrees>-8.35502366535365581512451171875</LongitudeDegrees>
            </Position>
            <AltitudeMeters>283.20001220703125</AltitudeMeters>
            <DistanceMeters>80166.059870246</DistanceMeters>
          </Trackpoint>
          <Trackpoint>
            <Time>2019-07-26T14:47:51.000Z</Time>
            <Position>
              <LatitudeDegrees>42.91255046613514423370361328125</LatitudeDegrees>
              <LongitudeDegrees>-8.35545566864311695098876953125</LongitudeDegrees>
            </Position>
            <AltitudeMeters>282</AltitudeMeters>
            <DistanceMeters>80202.867974644</DistanceMeters>
          </Trackpoint>
          <Trackpoint>
            <Time>2019-07-26T14:47:53.000Z</Time>
            <Position>
              <LatitudeDegrees>42.9125133343040943145751953125</LatitudeDegrees>
              <LongitudeDegrees>-8.355683572590351104736328125</LongitudeDegrees>
            </Position>
            <AltitudeMeters>281.20001220703125</AltitudeMeters>
            <DistanceMeters>80221.900143632</DistanceMeters>
          </Trackpoint>
          <Trackpoint>
            <Time>2019-07-26T14:47:54.000Z</Time>
            <Position>
              <LatitudeDegrees>42.9125069640576839447021484375</LatitudeDegrees>
              <LongitudeDegrees>-8.35580703802406787872314453125</LongitudeDegrees>
            </Position>
            <AltitudeMeters>280.600006103515625</AltitudeMeters>
            <DistanceMeters>80231.989099063</DistanceMeters>
          </Trackpoint>
          <Trackpoint>
            <Time>2019-07-26T14:47:56.000Z</Time>
            <Position>
              <LatitudeDegrees>42.91250470094382762908935546875</LatitudeDegrees>
              <LongitudeDegrees>-8.3560703136026859283447265625</LongitudeDegrees>
            </Position>
            <AltitudeMeters>279.20001220703125</AltitudeMeters>
            <DistanceMeters>80253.452097915</DistanceMeters>
          </Trackpoint>
          <Trackpoint>
            <Time>2019-07-26T14:47:57.000Z</Time>
            <Position>
              <LatitudeDegrees>42.91250738315284252166748046875</LatitudeDegrees>
              <LongitudeDegrees>-8.356207273900508880615234375</LongitudeDegrees>
            </Position>
            <AltitudeMeters>278.399993896484375</AltitudeMeters>
            <DistanceMeters>80264.620870273</DistanceMeters>
          </Trackpoint>
          <Trackpoint>
            <Time>2019-07-26T14:47:58.000Z</Time>
            <Position>
              <LatitudeDegrees>42.9125133343040943145751953125</LatitudeDegrees>
              <LongitudeDegrees>-8.3563492633402347564697265625</LongitudeDegrees>
            </Position>
            <AltitudeMeters>278</AltitudeMeters>
            <DistanceMeters>80276.214518873</DistanceMeters>
          </Trackpoint>
          <Trackpoint>
            <Time>2019-07-26T14:48:01.000Z</Time>
            <Position>
              <LatitudeDegrees>42.912510819733142852783203125</LatitudeDegrees>
              <LongitudeDegrees>-8.35677824914455413818359375</LongitudeDegrees>
            </Position>
            <AltitudeMeters>276.600006103515625</AltitudeMeters>
            <DistanceMeters>80311.185253537</DistanceMeters>
          </Trackpoint>
          <Trackpoint>
            <Time>2019-07-26T14:48:02.000Z</Time>
            <Position>
              <LatitudeDegrees>42.91249648667871952056884765625</LatitudeDegrees>
              <LongitudeDegrees>-8.3569036424160003662109375</LongitudeDegrees>
            </Position>
            <AltitudeMeters>276.20001220703125</AltitudeMeters>
            <DistanceMeters>80321.530952937</DistanceMeters>
          </Trackpoint>
          <Trackpoint>
            <Time>2019-07-26T14:48:03.000Z</Time>
            <Position>
              <LatitudeDegrees>42.9124784655869007110595703125</LatitudeDegrees>
              <LongitudeDegrees>-8.3570188097655773162841796875</LongitudeDegrees>
            </Position>
            <AltitudeMeters>275.399993896484375</AltitudeMeters>
            <DistanceMeters>80331.130532621</DistanceMeters>
          </Trackpoint>
          <Trackpoint>
            <Time>2019-07-26T14:48:05.000Z</Time>
            <Position>
              <LatitudeDegrees>42.9124378971755504608154296875</LatitudeDegrees>
              <LongitudeDegrees>-8.35721117444336414337158203125</LongitudeDegrees>
            </Position>
            <AltitudeMeters>274</AltitudeMeters>
            <DistanceMeters>80347.448586861</DistanceMeters>
          </Trackpoint>
          <Trackpoint>
            <Time>2019-07-26T14:48:06.000Z</Time>
            <Position>
              <LatitudeDegrees>42.912422306835651397705078125</LatitudeDegrees>
              <LongitudeDegrees>-8.357283510267734527587890625</LongitudeDegrees>
            </Position>
            <AltitudeMeters>273.399993896484375</AltitudeMeters>
            <DistanceMeters>80353.595280269</DistanceMeters>
          </Trackpoint>
          <Trackpoint>
            <Time>2019-07-26T14:48:07.000Z</Time>
            <Position>
              <LatitudeDegrees>42.912408895790576934814453125</LatitudeDegrees>
              <LongitudeDegrees>-8.357335142791271209716796875</LongitudeDegrees>
            </Position>
            <AltitudeMeters>272.399993896484375</AltitudeMeters>
            <DistanceMeters>80358.061535844</DistanceMeters>
          </Trackpoint>
          <Trackpoint>
            <Time>2019-07-26T14:48:09.000Z</Time>
            <Position>
              <LatitudeDegrees>42.9124033637344837188720703125</LatitudeDegrees>
              <LongitudeDegrees>-8.357390463352203369140625</LongitudeDegrees>
            </Position>
            <AltitudeMeters>271.79998779296875</AltitudeMeters>
            <DistanceMeters>80362.612908754</DistanceMeters>
          </Trackpoint>
          <Trackpoint>
            <Time>2019-07-26T14:48:10.000Z</Time>
            <Position>
              <LatitudeDegrees>42.91241233237087726593017578125</LatitudeDegrees>
              <LongitudeDegrees>-8.35740228183567523956298828125</LongitudeDegrees>
            </Position>
            <AltitudeMeters>271.600006103515625</AltitudeMeters>
            <DistanceMeters>80363.999777991</DistanceMeters>
          </Trackpoint>
          <Trackpoint>
            <Time>2019-07-26T14:48:13.000Z</Time>
            <Position>
              <LatitudeDegrees>42.9124264977872371673583984375</LatitudeDegrees>
              <LongitudeDegrees>-8.35744419135153293609619140625</LongitudeDegrees>
            </Position>
            <AltitudeMeters>271.600006103515625</AltitudeMeters>
            <DistanceMeters>80367.762643902</DistanceMeters>
          </Trackpoint>
          <Trackpoint>
            <Time>2019-07-26T14:48:14.000Z</Time>
            <Position>
              <LatitudeDegrees>42.9124197922646999359130859375</LatitudeDegrees>
              <LongitudeDegrees>-8.35747302509844303131103515625</LongitudeDegrees>
            </Position>
            <AltitudeMeters>271.600006103515625</AltitudeMeters>
            <DistanceMeters>80370.229680895</DistanceMeters>
          </Trackpoint>
          <Trackpoint>
            <Time>2019-07-26T14:48:17.000Z</Time>
            <Position>
              <LatitudeDegrees>42.9123359732329845428466796875</LatitudeDegrees>
              <LongitudeDegrees>-8.3575673215091228485107421875</LongitudeDegrees>
            </Position>
            <AltitudeMeters>271.600006103515625</AltitudeMeters>
            <DistanceMeters>80382.317138728</DistanceMeters>
          </Trackpoint>
          <Trackpoint>
            <Time>2019-07-26T14:48:19.000Z</Time>
            <Position>
              <LatitudeDegrees>42.9122436046600341796875</LatitudeDegrees>
              <LongitudeDegrees>-8.3576189540326595306396484375</LongitudeDegrees>
            </Position>
            <AltitudeMeters>271.79998779296875</AltitudeMeters>
            <DistanceMeters>80393.426326581</DistanceMeters>
          </Trackpoint>
          <Trackpoint>
            <Time>2019-07-26T14:48:21.000Z</Time>
            <Position>
              <LatitudeDegrees>42.91215852834284305572509765625</LatitudeDegrees>
              <LongitudeDegrees>-8.3576600253582000732421875</LongitudeDegrees>
            </Position>
            <AltitudeMeters>271.79998779296875</AltitudeMeters>
            <DistanceMeters>80403.470430027</DistanceMeters>
          </Trackpoint>
          <Trackpoint>
            <Time>2019-07-26T14:48:22.000Z</Time>
            <Position>
              <LatitudeDegrees>42.91212181560695171356201171875</LatitudeDegrees>
              <LongitudeDegrees>-8.35768626071512699127197265625</LongitudeDegrees>
            </Position>
            <AltitudeMeters>271.79998779296875</AltitudeMeters>
            <DistanceMeters>80408.082897924</DistanceMeters>
          </Trackpoint>
          <Trackpoint>
            <Time>2019-07-26T14:48:26.000Z</Time>
            <Position>
              <LatitudeDegrees>42.911995835602283477783203125</LatitudeDegrees>
              <LongitudeDegrees>-8.3578345365822315216064453125</LongitudeDegrees>
            </Position>
            <AltitudeMeters>272.20001220703125</AltitudeMeters>
            <DistanceMeters>80426.59531163</DistanceMeters>
          </Trackpoint>
          <Trackpoint>
            <Time>2019-07-26T14:48:30.000Z</Time>
            <Position>
              <LatitudeDegrees>42.911886870861053466796875</LatitudeDegrees>
              <LongitudeDegrees>-8.35799706168472766876220703125</LongitudeDegrees>
            </Position>
            <AltitudeMeters>273</AltitudeMeters>
            <DistanceMeters>80444.556868943</DistanceMeters>
          </Trackpoint>
          <Trackpoint>
            <Time>2019-07-26T14:48:33.000Z</Time>
            <Position>
              <LatitudeDegrees>42.91181654669344425201416015625</LatitudeDegrees>
              <LongitudeDegrees>-8.35812061093747615814208984375</LongitudeDegrees>
            </Position>
            <AltitudeMeters>273.600006103515625</AltitudeMeters>
            <DistanceMeters>80457.312059545</DistanceMeters>
          </Trackpoint>
          <Trackpoint>
            <Time>2019-07-26T14:48:34.000Z</Time>
            <Position>
              <LatitudeDegrees>42.91178964078426361083984375</LatitudeDegrees>
              <LongitudeDegrees>-8.35815832950174808502197265625</LongitudeDegrees>
            </Position>
            <AltitudeMeters>273.79998779296875</AltitudeMeters>
            <DistanceMeters>80461.604070256</DistanceMeters>
          </Trackpoint>
          <Trackpoint>
            <Time>2019-07-26T14:48:38.000Z</Time>
            <Position>
              <LatitudeDegrees>42.91168478317558765411376953125</LatitudeDegrees>
              <LongitudeDegrees>-8.3583062700927257537841796875</LongitudeDegrees>
            </Position>
            <AltitudeMeters>274.399993896484375</AltitudeMeters>
            <DistanceMeters>80478.386713503</DistanceMeters>
          </Trackpoint>
          <Trackpoint>
            <Time>2019-07-26T14:48:40.000Z</Time>
            <Position>
              <LatitudeDegrees>42.911632061004638671875</LatitudeDegrees>
              <LongitudeDegrees>-8.3583739958703517913818359375</LongitudeDegrees>
            </Position>
            <AltitudeMeters>274.79998779296875</AltitudeMeters>
            <DistanceMeters>80486.443275393</DistanceMeters>
          </Trackpoint>
          <Trackpoint>
            <Time>2019-07-26T14:48:42.000Z</Time>
            <Position>
              <LatitudeDegrees>42.9115738905966281890869140625</LatitudeDegrees>
              <LongitudeDegrees>-8.35844130255281925201416015625</LongitudeDegrees>
            </Position>
            <AltitudeMeters>275.399993896484375</AltitudeMeters>
            <DistanceMeters>80494.929964365</DistanceMeters>
          </Trackpoint>
          <Trackpoint>
            <Time>2019-07-26T14:48:45.000Z</Time>
            <Position>
              <LatitudeDegrees>42.91148428805172443389892578125</LatitudeDegrees>
              <LongitudeDegrees>-8.358544819056987762451171875</LongitudeDegrees>
            </Position>
            <AltitudeMeters>275.79998779296875</AltitudeMeters>
            <DistanceMeters>80507.993977715</DistanceMeters>
          </Trackpoint>
          <Trackpoint>
            <Time>2019-07-26T14:48:49.000Z</Time>
            <Position>
              <LatitudeDegrees>42.91136920452117919921875</LatitudeDegrees>
              <LongitudeDegrees>-8.35872008465230464935302734375</LongitudeDegrees>
            </Position>
            <AltitudeMeters>276.399993896484375</AltitudeMeters>
            <DistanceMeters>80527.182316281</DistanceMeters>
          </Trackpoint>
          <Trackpoint>
            <Time>2019-07-26T14:48:51.000Z</Time>
            <Position>
              <LatitudeDegrees>42.9113187454640865325927734375</LatitudeDegrees>
              <LongitudeDegrees>-8.3588138781487941741943359375</LongitudeDegrees>
            </Position>
            <AltitudeMeters>276.79998779296875</AltitudeMeters>
            <DistanceMeters>80536.66977126</DistanceMeters>
          </Trackpoint>
          <Trackpoint>
            <Time>2019-07-26T14:48:57.000Z</Time>
            <Position>
              <LatitudeDegrees>42.91116242296993732452392578125</LatitudeDegrees>
              <LongitudeDegrees>-8.3590743876993656158447265625</LongitudeDegrees>
            </Position>
            <AltitudeMeters>277.79998779296875</AltitudeMeters>
            <DistanceMeters>80564.12344789</DistanceMeters>
          </Trackpoint>
          <Trackpoint>
            <Time>2019-07-26T14:49:00.000Z</Time>
            <Position>
              <LatitudeDegrees>42.91109360754489898681640625</LatitudeDegrees>
              <LongitudeDegrees>-8.35919315926730632781982421875</LongitudeDegrees>
            </Position>
            <AltitudeMeters>278</AltitudeMeters>
            <DistanceMeters>80576.468877417</DistanceMeters>
          </Trackpoint>
          <Trackpoint>
            <Time>2019-07-26T14:49:04.000Z</Time>
            <Position>
              <LatitudeDegrees>42.911001741886138916015625</LatitudeDegrees>
              <LongitudeDegrees>-8.359354175627231597900390625</LongitudeDegrees>
            </Position>
            <AltitudeMeters>278.399993896484375</AltitudeMeters>
            <DistanceMeters>80593.107509681</DistanceMeters>
          </Trackpoint>
          <Trackpoint>
            <Time>2019-07-26T14:49:08.000Z</Time>
            <Position>
              <LatitudeDegrees>42.91091633029282093048095703125</LatitudeDegrees>
              <LongitudeDegrees>-8.359498679637908935546875</LongitudeDegrees>
            </Position>
            <AltitudeMeters>279.20001220703125</AltitudeMeters>
            <DistanceMeters>80608.245119131</DistanceMeters>
          </Trackpoint>
          <Trackpoint>
            <Time>2019-07-26T14:49:11.000Z</Time>
            <Position>
              <LatitudeDegrees>42.91085891425609588623046875</LatitudeDegrees>
              <LongitudeDegrees>-8.35960923694074153900146484375</LongitudeDegrees>
            </Position>
            <AltitudeMeters>279.79998779296875</AltitudeMeters>
            <DistanceMeters>80619.292766537</DistanceMeters>
          </Trackpoint>
          <Trackpoint>
            <Time>2019-07-26T14:49:16.000Z</Time>
            <Position>
              <LatitudeDegrees>42.9107320122420787811279296875</LatitudeDegrees>
              <LongitudeDegrees>-8.3598012663424015045166015625</LongitudeDegrees>
            </Position>
            <AltitudeMeters>280.20001220703125</AltitudeMeters>
            <DistanceMeters>80640.377136657</DistanceMeters>
          </Trackpoint>
          <Trackpoint>
            <Time>2019-07-26T14:49:23.000Z</Time>
            <Position>
              <LatitudeDegrees>42.91059471666812896728515625</LatitudeDegrees>
              <LongitudeDegrees>-8.3600579202175140380859375</LongitudeDegrees>
            </Position>
            <AltitudeMeters>281.20001220703125</AltitudeMeters>
            <DistanceMeters>80666.285817876</DistanceMeters>
          </Trackpoint>
          <Trackpoint>
            <Time>2019-07-26T14:49:26.000Z</Time>
            <Position>
              <LatitudeDegrees>42.91054953821003437042236328125</LatitudeDegrees>
              <LongitudeDegrees>-8.36018825881183147430419921875</LongitudeDegrees>
            </Position>
            <AltitudeMeters>281.399993896484375</AltitudeMeters>
            <DistanceMeters>80678.040741515</DistanceMeters>
          </Trackpoint>
          <Trackpoint>
            <Time>2019-07-26T14:49:29.000Z</Time>
            <Position>
              <LatitudeDegrees>42.91049857623875141143798828125</LatitudeDegrees>
              <LongitudeDegrees>-8.360329829156398773193359375</LongitudeDegrees>
            </Position>
            <AltitudeMeters>281.600006103515625</AltitudeMeters>
            <DistanceMeters>80690.8995801</DistanceMeters>
          </Trackpoint>
          <Trackpoint>
            <Time>2019-07-26T14:49:34.000Z</Time>
            <Position>
              <LatitudeDegrees>42.9104309342801570892333984375</LatitudeDegrees>
              <LongitudeDegrees>-8.36052588187158107757568359375</LongitudeDegrees>
            </Position>
            <AltitudeMeters>282</AltitudeMeters>
            <DistanceMeters>80708.566117173</DistanceMeters>
          </Trackpoint>
          <Trackpoint>
            <Time>2019-07-26T14:49:37.000Z</Time>
            <Position>
              <LatitudeDegrees>42.91035507805645465850830078125</LatitudeDegrees>
              <LongitudeDegrees>-8.3606428094208240509033203125</LongitudeDegrees>
            </Position>
            <AltitudeMeters>282.399993896484375</AltitudeMeters>
            <DistanceMeters>80721.299342316</DistanceMeters>
          </Trackpoint>
          <Trackpoint>
            <Time>2019-07-26T14:49:39.000Z</Time>
            <Position>
              <LatitudeDegrees>42.910310737788677215576171875</LatitudeDegrees>
              <LongitudeDegrees>-8.3607340045273303985595703125</LongitudeDegrees>
            </Position>
            <AltitudeMeters>282.79998779296875</AltitudeMeters>
            <DistanceMeters>80730.221738515</DistanceMeters>
          </Trackpoint>
          <Trackpoint>
            <Time>2019-07-26T14:49:41.000Z</Time>
            <Position>
              <LatitudeDegrees>42.91026237420737743377685546875</LatitudeDegrees>
              <LongitudeDegrees>-8.36081220768392086029052734375</LongitudeDegrees>
            </Position>
            <AltitudeMeters>283.399993896484375</AltitudeMeters>
            <DistanceMeters>80738.565711752</DistanceMeters>
          </Trackpoint>
          <Trackpoint>
            <Time>2019-07-26T14:49:44.000Z</Time>
            <Position>
              <LatitudeDegrees>42.91020847856998443603515625</LatitudeDegrees>
              <LongitudeDegrees>-8.3609056659042835235595703125</LongitudeDegrees>
            </Position>
            <AltitudeMeters>284</AltitudeMeters>
            <DistanceMeters>80748.262628067</DistanceMeters>
          </Trackpoint>
          <Trackpoint>
            <Time>2019-07-26T14:49:49.000Z</Time>
            <Position>
              <LatitudeDegrees>42.91014687158167362213134765625</LatitudeDegrees>
              <LongitudeDegrees>-8.3610954321920871734619140625</LongitudeDegrees>
            </Position>
            <AltitudeMeters>284.600006103515625</AltitudeMeters>
            <DistanceMeters>80765.184055133</DistanceMeters>
          </Trackpoint>
          <Trackpoint>
            <Time>2019-07-26T14:49:50.000Z</Time>
            <Position>
              <LatitudeDegrees>42.91012776084244251251220703125</LatitudeDegrees>
              <LongitudeDegrees>-8.36114044301211833953857421875</LongitudeDegrees>
            </Position>
            <AltitudeMeters>284.600006103515625</AltitudeMeters>
            <DistanceMeters>80769.425271029</DistanceMeters>
          </Trackpoint>
          <Trackpoint>
            <Time>2019-07-26T14:49:55.000Z</Time>
            <Position>
              <LatitudeDegrees>42.91006565093994140625</LatitudeDegrees>
              <LongitudeDegrees>-8.36135669611394405364990234375</LongitudeDegrees>
            </Position>
            <AltitudeMeters>285.600006103515625</AltitudeMeters>
            <DistanceMeters>80788.361117338</DistanceMeters>
          </Trackpoint>
          <Trackpoint>
            <Time>2019-07-26T14:49:56.000Z</Time>
            <Position>
              <LatitudeDegrees>42.91005886159837245941162109375</LatitudeDegrees>
              <LongitudeDegrees>-8.361395336687564849853515625</LongitudeDegrees>
            </Position>
            <AltitudeMeters>285.600006103515625</AltitudeMeters>
            <DistanceMeters>80791.600399485</DistanceMeters>
          </Trackpoint>
          <Trackpoint>
            <Time>2019-07-26T14:50:01.000Z</Time>
            <Position>
              <LatitudeDegrees>42.9099897108972072601318359375</LatitudeDegrees>
              <LongitudeDegrees>-8.3615681715309619903564453125</LongitudeDegrees>
            </Position>
            <AltitudeMeters>286.600006103515625</AltitudeMeters>
            <DistanceMeters>80807.654852822</DistanceMeters>
          </Trackpoint>
          <Trackpoint>
            <Time>2019-07-26T14:50:03.000Z</Time>
            <Position>
              <LatitudeDegrees>42.90996381081640720367431640625</LatitudeDegrees>
              <LongitudeDegrees>-8.36163732223212718963623046875</LongitudeDegrees>
            </Position>
            <AltitudeMeters>287.20001220703125</AltitudeMeters>
            <DistanceMeters>80813.986085666</DistanceMeters>
          </Trackpoint>
          <Trackpoint>
            <Time>2019-07-26T14:50:05.000Z</Time>
            <Position>
              <LatitudeDegrees>42.90994034148752689361572265625</LatitudeDegrees>
              <LongitudeDegrees>-8.36171083152294158935546875</LongitudeDegrees>
            </Position>
            <AltitudeMeters>287.600006103515625</AltitudeMeters>
            <DistanceMeters>80820.523619743</DistanceMeters>
          </Trackpoint>
          <Trackpoint>
            <Time>2019-07-26T14:50:08.000Z</Time>
            <Position>
              <LatitudeDegrees>42.90991209447383880615234375</LatitudeDegrees>
              <LongitudeDegrees>-8.36181384511291980743408203125</LongitudeDegrees>
            </Position>
            <AltitudeMeters>288.600006103515625</AltitudeMeters>
            <DistanceMeters>80829.490436384</DistanceMeters>
          </Trackpoint>
          <Trackpoint>
            <Time>2019-07-26T14:50:09.000Z</Time>
            <Position>
              <LatitudeDegrees>42.90990463458001613616943359375</LatitudeDegrees>
              <LongitudeDegrees>-8.36184200830757617950439453125</LongitudeDegrees>
            </Position>
            <AltitudeMeters>289.20001220703125</AltitudeMeters>
            <DistanceMeters>80831.933565633</DistanceMeters>
          </Trackpoint>
          <Trackpoint>
            <Time>2019-07-26T14:50:15.000Z</Time>
            <Position>
              <LatitudeDegrees>42.90990463458001613616943359375</LatitudeDegrees>
              <LongitudeDegrees>-8.36205474101006984710693359375</LongitudeDegrees>
            </Position>
            <AltitudeMeters>290</AltitudeMeters>
            <DistanceMeters>80849.275355214</DistanceMeters>
          </Trackpoint>
          <Trackpoint>
            <Time>2019-07-26T14:50:17.000Z</Time>
            <Position>
              <LatitudeDegrees>42.90989038534462451934814453125</LatitudeDegrees>
              <LongitudeDegrees>-8.3621337823569774627685546875</LongitudeDegrees>
            </Position>
            <AltitudeMeters>290.399993896484375</AltitudeMeters>
            <DistanceMeters>80855.91091493</DistanceMeters>
          </Trackpoint>
          <Trackpoint>
            <Time>2019-07-26T14:50:20.000Z</Time>
            <Position>
              <LatitudeDegrees>42.9098539240658283233642578125</LatitudeDegrees>
              <LongitudeDegrees>-8.3622564934194087982177734375</LongitudeDegrees>
            </Position>
            <AltitudeMeters>290.79998779296875</AltitudeMeters>
            <DistanceMeters>80866.706384655</DistanceMeters>
          </Trackpoint>
          <Trackpoint>
            <Time>2019-07-26T14:50:24.000Z</Time>
            <Position>
              <LatitudeDegrees>42.9098126851022243499755859375</LatitudeDegrees>
              <LongitudeDegrees>-8.36240946315228939056396484375</LongitudeDegrees>
            </Position>
            <AltitudeMeters>291.600006103515625</AltitudeMeters>
            <DistanceMeters>80879.994503965</DistanceMeters>
          </Trackpoint>
          <Trackpoint>
            <Time>2019-07-26T14:50:27.000Z</Time>
            <Position>
              <LatitudeDegrees>42.90978980250656604766845703125</LatitudeDegrees>
              <LongitudeDegrees>-8.362506441771984100341796875</LongitudeDegrees>
            </Position>
            <AltitudeMeters>292.399993896484375</AltitudeMeters>
            <DistanceMeters>80888.300512876</DistanceMeters>
          </Trackpoint>
          <Trackpoint>
            <Time>2019-07-26T14:50:29.000Z</Time>
            <Position>
              <LatitudeDegrees>42.90977018885314464569091796875</LatitudeDegrees>
              <LongitudeDegrees>-8.36257710121572017669677734375</LongitudeDegrees>
            </Position>
            <AltitudeMeters>292.600006103515625</AltitudeMeters>
            <DistanceMeters>80894.460413948</DistanceMeters>
          </Trackpoint>
          <Trackpoint>
            <Time>2019-07-26T14:50:34.000Z</Time>
            <Position>
              <LatitudeDegrees>42.9097053967416286468505859375</LatitudeDegrees>
              <LongitudeDegrees>-8.36276359856128692626953125</LongitudeDegrees>
            </Position>
            <AltitudeMeters>293.79998779296875</AltitudeMeters>
            <DistanceMeters>80911.287388631</DistanceMeters>
          </Trackpoint>
          <Trackpoint>
            <Time>2019-07-26T14:50:39.000Z</Time>
            <Position>
              <LatitudeDegrees>42.9095937497913837432861328125</LatitudeDegrees>
              <LongitudeDegrees>-8.3629303984344005584716796875</LongitudeDegrees>
            </Position>
            <AltitudeMeters>295</AltitudeMeters>
            <DistanceMeters>80929.708115613</DistanceMeters>
          </Trackpoint>
          <Trackpoint>
            <Time>2019-07-26T14:50:44.000Z</Time>
            <Position>
              <LatitudeDegrees>42.9094864614307880401611328125</LatitudeDegrees>
              <LongitudeDegrees>-8.3631047420203685760498046875</LongitudeDegrees>
            </Position>
            <AltitudeMeters>295.399993896484375</AltitudeMeters>
            <DistanceMeters>80948.271432859</DistanceMeters>
          </Trackpoint>
          <Trackpoint>
            <Time>2019-07-26T14:50:48.000Z</Time>
            <Position>
              <LatitudeDegrees>42.9093543626368045806884765625</LatitudeDegrees>
              <LongitudeDegrees>-8.36323843337595462799072265625</LongitudeDegrees>
            </Position>
            <AltitudeMeters>296</AltitudeMeters>
            <DistanceMeters>80966.573390558</DistanceMeters>
          </Trackpoint>
          <Trackpoint>
            <Time>2019-07-26T14:50:49.000Z</Time>
            <Position>
              <LatitudeDegrees>42.90932737290859222412109375</LatitudeDegrees>
              <LongitudeDegrees>-8.363270200788974761962890625</LongitudeDegrees>
            </Position>
            <AltitudeMeters>296.399993896484375</AltitudeMeters>
            <DistanceMeters>80970.539546526</DistanceMeters>
          </Trackpoint>
          <Trackpoint>
            <Time>2019-07-26T14:50:55.000Z</Time>
            <Position>
              <LatitudeDegrees>42.9091998003423213958740234375</LatitudeDegrees>
              <LongitudeDegrees>-8.3634514175355434417724609375</LongitudeDegrees>
            </Position>
            <AltitudeMeters>297</AltitudeMeters>
            <DistanceMeters>80991.030091524</DistanceMeters>
          </Trackpoint>
          <Trackpoint>
            <Time>2019-07-26T14:50:56.000Z</Time>
            <Position>
              <LatitudeDegrees>42.90917591191828250885009765625</LatitudeDegrees>
              <LongitudeDegrees>-8.3634822629392147064208984375</LongitudeDegrees>
            </Position>
            <AltitudeMeters>297.20001220703125</AltitudeMeters>
            <DistanceMeters>80994.688311486</DistanceMeters>
          </Trackpoint>
          <Trackpoint>
            <Time>2019-07-26T14:50:59.000Z</Time>
            <Position>
              <LatitudeDegrees>42.90907817892730236053466796875</LatitudeDegrees>
              <LongitudeDegrees>-8.363534398376941680908203125</LongitudeDegrees>
            </Position>
            <AltitudeMeters>297.399993896484375</AltitudeMeters>
            <DistanceMeters>81006.366936175</DistanceMeters>
          </Trackpoint>
          <Trackpoint>
            <Time>2019-07-26T14:51:03.000Z</Time>
            <Position>
              <LatitudeDegrees>42.9089594073593616485595703125</LatitudeDegrees>
              <LongitudeDegrees>-8.3634812571108341217041015625</LongitudeDegrees>
            </Position>
            <AltitudeMeters>297.79998779296875</AltitudeMeters>
            <DistanceMeters>81020.277886473</DistanceMeters>
          </Trackpoint>
          <Trackpoint>
            <Time>2019-07-26T14:51:07.000Z</Time>
            <Position>
              <LatitudeDegrees>42.90886695496737957000732421875</LatitudeDegrees>
              <LongitudeDegrees>-8.36339601315557956695556640625</LongitudeDegrees>
            </Position>
            <AltitudeMeters>298.399993896484375</AltitudeMeters>
            <DistanceMeters>81032.694791288</DistanceMeters>
          </Trackpoint>
          <Trackpoint>
            <Time>2019-07-26T14:51:09.000Z</Time>
            <Position>
              <LatitudeDegrees>42.90884097106754779815673828125</LatitudeDegrees>
              <LongitudeDegrees>-8.36336583830416202545166015625</LongitudeDegrees>
            </Position>
            <AltitudeMeters>298.79998779296875</AltitudeMeters>
            <DistanceMeters>81036.491105554</DistanceMeters>
          </Trackpoint>
          <Trackpoint>
            <Time>2019-07-26T14:51:13.000Z</Time>
            <Position>
              <LatitudeDegrees>42.90877944789826869964599609375</LatitudeDegrees>
              <LongitudeDegrees>-8.36327363736927509307861328125</LongitudeDegrees>
            </Position>
            <AltitudeMeters>299.399993896484375</AltitudeMeters>
            <DistanceMeters>81046.659408032</DistanceMeters>
          </Trackpoint>
          <Trackpoint>
            <Time>2019-07-26T14:51:15.000Z</Time>
            <Position>
              <LatitudeDegrees>42.9087354429066181182861328125</LatitudeDegrees>
              <LongitudeDegrees>-8.36324932985007762908935546875</LongitudeDegrees>
            </Position>
            <AltitudeMeters>299.600006103515625</AltitudeMeters>
            <DistanceMeters>81051.943440239</DistanceMeters>
          </Trackpoint>
          <Trackpoint>
            <Time>2019-07-26T14:51:18.000Z</Time>
            <Position>
              <LatitudeDegrees>42.90864097885787487030029296875</LatitudeDegrees>
              <LongitudeDegrees>-8.363272212445735931396484375</LongitudeDegrees>
            </Position>
            <AltitudeMeters>300.399993896484375</AltitudeMeters>
            <DistanceMeters>81062.621584987</DistanceMeters>
          </Trackpoint>
          <Trackpoint>
            <Time>2019-07-26T14:51:19.000Z</Time>
            <Position>
              <LatitudeDegrees>42.9086080379784107208251953125</LatitudeDegrees>
              <LongitudeDegrees>-8.3632831089198589324951171875</LongitudeDegrees>
            </Position>
            <AltitudeMeters>300.399993896484375</AltitudeMeters>
            <DistanceMeters>81066.394037833</DistanceMeters>
          </Trackpoint>
          <Trackpoint>
            <Time>2019-07-26T14:51:21.000Z</Time>
            <Position>
              <LatitudeDegrees>42.9085515439510345458984375</LatitudeDegrees>
              <LongitudeDegrees>-8.36330917663872241973876953125</LongitudeDegrees>
            </Position>
            <AltitudeMeters>300.79998779296875</AltitudeMeters>
            <DistanceMeters>81073.030958271</DistanceMeters>
          </Trackpoint>
          <Trackpoint>
            <Time>2019-07-26T14:51:25.000Z</Time>
            <Position>
              <LatitudeDegrees>42.908433191478252410888671875</LatitudeDegrees>
              <LongitudeDegrees>-8.36335645057260990142822265625</LongitudeDegrees>
            </Position>
            <AltitudeMeters>301.600006103515625</AltitudeMeters>
            <DistanceMeters>81086.755987404</DistanceMeters>
          </Trackpoint>
          <Trackpoint>
            <Time>2019-07-26T14:51:30.000Z</Time>
            <Position>
              <LatitudeDegrees>42.90827821008861064910888671875</LatitudeDegrees>
              <LongitudeDegrees>-8.36342736147344112396240234375</LongitudeDegrees>
            </Position>
            <AltitudeMeters>301.79998779296875</AltitudeMeters>
            <DistanceMeters>81104.948578253</DistanceMeters>
          </Trackpoint>
          <Trackpoint>
            <Time>2019-07-26T14:51:32.000Z</Time>
            <Position>
              <LatitudeDegrees>42.90821417234838008880615234375</LatitudeDegrees>
              <LongitudeDegrees>-8.36343624629080295562744140625</LongitudeDegrees>
            </Position>
            <AltitudeMeters>301.79998779296875</AltitudeMeters>
            <DistanceMeters>81112.112861505</DistanceMeters>
          </Trackpoint>
          <Trackpoint>
            <Time>2019-07-26T14:51:34.000Z</Time>
            <Position>
              <LatitudeDegrees>42.90815566666424274444580078125</LatitudeDegrees>
              <LongitudeDegrees>-8.3634375035762786865234375</LongitudeDegrees>
            </Position>
            <AltitudeMeters>301.79998779296875</AltitudeMeters>
            <DistanceMeters>81118.625485328</DistanceMeters>
          </Trackpoint>
          <Trackpoint>
            <Time>2019-07-26T14:51:37.000Z</Time>
            <Position>
              <LatitudeDegrees>42.90807369165122509002685546875</LatitudeDegrees>
              <LongitudeDegrees>-8.36346155963838100433349609375</LongitudeDegrees>
            </Position>
            <AltitudeMeters>301.79998779296875</AltitudeMeters>
            <DistanceMeters>81127.957960203</DistanceMeters>
          </Trackpoint>
          <Trackpoint>
            <Time>2019-07-26T14:51:45.000Z</Time>
            <Position>
              <LatitudeDegrees>42.90779340080916881561279296875</LatitudeDegrees>
              <LongitudeDegrees>-8.3635831810534000396728515625</LongitudeDegrees>
            </Position>
            <AltitudeMeters>302.600006103515625</AltitudeMeters>
            <DistanceMeters>81160.69255996</DistanceMeters>
          </Trackpoint>
          <Trackpoint>
            <Time>2019-07-26T14:51:46.000Z</Time>
            <Position>
              <LatitudeDegrees>42.9077517427504062652587890625</LatitudeDegrees>
              <LongitudeDegrees>-8.36360639892518520355224609375</LongitudeDegrees>
            </Position>
            <AltitudeMeters>302.600006103515625</AltitudeMeters>
            <DistanceMeters>81165.701107889</DistanceMeters>
          </Trackpoint>
          <Trackpoint>
            <Time>2019-07-26T14:51:49.000Z</Time>
            <Position>
              <LatitudeDegrees>42.9076374135911464691162109375</LatitudeDegrees>
              <LongitudeDegrees>-8.363717459142208099365234375</LongitudeDegrees>
            </Position>
            <AltitudeMeters>302.79998779296875</AltitudeMeters>
            <DistanceMeters>81181.3184817</DistanceMeters>
          </Trackpoint>
          <Trackpoint>
            <Time>2019-07-26T14:51:50.000Z</Time>
            <Position>
              <LatitudeDegrees>42.9075988568365573883056640625</LatitudeDegrees>
              <LongitudeDegrees>-8.36375928483903408050537109375</LongitudeDegrees>
            </Position>
            <AltitudeMeters>302.79998779296875</AltitudeMeters>
            <DistanceMeters>81186.800460759</DistanceMeters>
          </Trackpoint>
          <Trackpoint>
            <Time>2019-07-26T14:51:54.000Z</Time>
            <Position>
              <LatitudeDegrees>42.90743046440184116363525390625</LatitudeDegrees>
              <LongitudeDegrees>-8.36396732367575168609619140625</LongitudeDegrees>
            </Position>
            <AltitudeMeters>302.600006103515625</AltitudeMeters>
            <DistanceMeters>81212.077388159</DistanceMeters>
          </Trackpoint>
          <Trackpoint>
            <Time>2019-07-26T14:51:55.000Z</Time>
            <Position>
              <LatitudeDegrees>42.90740297175943851470947265625</LatitudeDegrees>
              <LongitudeDegrees>-8.36403706111013889312744140625</LongitudeDegrees>
            </Position>
            <AltitudeMeters>302.600006103515625</AltitudeMeters>
            <DistanceMeters>81218.53361251</DistanceMeters>
          </Trackpoint>
          <Trackpoint>
            <Time>2019-07-26T14:51:58.000Z</Time>
            <Position>
              <LatitudeDegrees>42.90742945857346057891845703125</LatitudeDegrees>
              <LongitudeDegrees>-8.3642339520156383514404296875</LongitudeDegrees>
            </Position>
            <AltitudeMeters>302.20001220703125</AltitudeMeters>
            <DistanceMeters>81234.853326804</DistanceMeters>
          </Trackpoint>
          <Trackpoint>
            <Time>2019-07-26T14:52:00.000Z</Time>
            <Position>
              <LatitudeDegrees>42.90749886073172092437744140625</LatitudeDegrees>
              <LongitudeDegrees>-8.36432858370244503021240234375</LongitudeDegrees>
            </Position>
            <AltitudeMeters>301.79998779296875</AltitudeMeters>
            <DistanceMeters>81245.77106508</DistanceMeters>
          </Trackpoint>
          <Trackpoint>
            <Time>2019-07-26T14:52:01.000Z</Time>
            <Position>
              <LatitudeDegrees>42.90753590874373912811279296875</LatitudeDegrees>
              <LongitudeDegrees>-8.36437066085636615753173828125</LongitudeDegrees>
            </Position>
            <AltitudeMeters>301.600006103515625</AltitudeMeters>
            <DistanceMeters>81251.135657667</DistanceMeters>
          </Trackpoint>
          <Trackpoint>
            <Time>2019-07-26T14:52:02.000Z</Time>
            <Position>
              <LatitudeDegrees>42.90757186710834503173828125</LatitudeDegrees>
              <LongitudeDegrees>-8.36441340856254100799560546875</LongitudeDegrees>
            </Position>
            <AltitudeMeters>301.20001220703125</AltitudeMeters>
            <DistanceMeters>81256.441859543</DistanceMeters>
          </Trackpoint>
          <Trackpoint>
            <Time>2019-07-26T14:52:05.000Z</Time>
            <Position>
              <LatitudeDegrees>42.907681167125701904296875</LatitudeDegrees>
              <LongitudeDegrees>-8.36455271579325199127197265625</LongitudeDegrees>
            </Position>
            <AltitudeMeters>299.399993896484375</AltitudeMeters>
            <DistanceMeters>81273.084290396</DistanceMeters>
          </Trackpoint>
          <Trackpoint>
            <Time>2019-07-26T14:52:09.000Z</Time>
            <Position>
              <LatitudeDegrees>42.9078181274235248565673828125</LatitudeDegrees>
              <LongitudeDegrees>-8.3647422306239604949951171875</LongitudeDegrees>
            </Position>
            <AltitudeMeters>299</AltitudeMeters>
            <DistanceMeters>81294.788691515</DistanceMeters>
          </Trackpoint>
          <Trackpoint>
            <Time>2019-07-26T14:52:13.000Z</Time>
            <Position>
              <LatitudeDegrees>42.90793119929730892181396484375</LatitudeDegrees>
              <LongitudeDegrees>-8.3649226091802120208740234375</LongitudeDegrees>
            </Position>
            <AltitudeMeters>298.79998779296875</AltitudeMeters>
            <DistanceMeters>81314.143839444</DistanceMeters>
          </Trackpoint>
          <Trackpoint>
            <Time>2019-07-26T14:52:15.000Z</Time>
            <Position>
              <LatitudeDegrees>42.90798199363052845001220703125</LatitudeDegrees>
              <LongitudeDegrees>-8.36499745957553386688232421875</LongitudeDegrees>
            </Position>
            <AltitudeMeters>298.79998779296875</AltitudeMeters>
            <DistanceMeters>81322.46234146</DistanceMeters>
          </Trackpoint>
          <Trackpoint>
            <Time>2019-07-26T14:52:17.000Z</Time>
            <Position>
              <LatitudeDegrees>42.9080231487751007080078125</LatitudeDegrees>
              <LongitudeDegrees>-8.36507373489439487457275390625</LongitudeDegrees>
            </Position>
            <AltitudeMeters>298.79998779296875</AltitudeMeters>
            <DistanceMeters>81330.185856527</DistanceMeters>
          </Trackpoint>
          <Trackpoint>
            <Time>2019-07-26T14:52:19.000Z</Time>
            <Position>
              <LatitudeDegrees>42.90806564502418041229248046875</LatitudeDegrees>
              <LongitudeDegrees>-8.36514246650040149688720703125</LongitudeDegrees>
            </Position>
            <AltitudeMeters>298.79998779296875</AltitudeMeters>
            <DistanceMeters>81337.518323721</DistanceMeters>
          </Trackpoint>
          <Trackpoint>
            <Time>2019-07-26T14:52:21.000Z</Time>
            <Position>
              <LatitudeDegrees>42.9081212170422077178955078125</LatitudeDegrees>
              <LongitudeDegrees>-8.3652126230299472808837890625</LongitudeDegrees>
            </Position>
            <AltitudeMeters>298.79998779296875</AltitudeMeters>
            <DistanceMeters>81345.942001106</DistanceMeters>
          </Trackpoint>
          <Trackpoint>
            <Time>2019-07-26T14:52:25.000Z</Time>
            <Position>
              <LatitudeDegrees>42.90823730640113353729248046875</LatitudeDegrees>
              <LongitudeDegrees>-8.3653651736676692962646484375</LongitudeDegrees>
            </Position>
            <AltitudeMeters>299</AltitudeMeters>
            <DistanceMeters>81363.875634386</DistanceMeters>
          </Trackpoint>
          <Trackpoint>
            <Time>2019-07-26T14:52:27.000Z</Time>
            <Position>
              <LatitudeDegrees>42.9082868434488773345947265625</LatitudeDegrees>
              <LongitudeDegrees>-8.3654473163187503814697265625</LongitudeDegrees>
            </Position>
            <AltitudeMeters>299</AltitudeMeters>
            <DistanceMeters>81372.549652886</DistanceMeters>
          </Trackpoint>
          <Trackpoint>
            <Time>2019-07-26T14:52:32.000Z</Time>
            <Position>
              <LatitudeDegrees>42.9083146713674068450927734375</LatitudeDegrees>
              <LongitudeDegrees>-8.36567723192274570465087890625</LongitudeDegrees>
            </Position>
            <AltitudeMeters>299.399993896484375</AltitudeMeters>
            <DistanceMeters>81391.547392102</DistanceMeters>
          </Trackpoint>
          <Trackpoint>
            <Time>2019-07-26T14:52:36.000Z</Time>
            <Position>
              <LatitudeDegrees>42.90825809352099895477294921875</LatitudeDegrees>
              <LongitudeDegrees>-8.36581553332507610321044921875</LongitudeDegrees>
            </Position>
            <AltitudeMeters>300</AltitudeMeters>
            <DistanceMeters>81404.461239389</DistanceMeters>
          </Trackpoint>
          <Trackpoint>
            <Time>2019-07-26T14:52:42.000Z</Time>
            <Position>
              <LatitudeDegrees>42.90814007632434368133544921875</LatitudeDegrees>
              <LongitudeDegrees>-8.36604855023324489593505859375</LongitudeDegrees>
            </Position>
            <AltitudeMeters>300.399993896484375</AltitudeMeters>
            <DistanceMeters>81427.556836709</DistanceMeters>
          </Trackpoint>
          <Trackpoint>
            <Time>2019-07-26T14:52:45.000Z</Time>
            <Position>
              <LatitudeDegrees>42.9080853424966335296630859375</LatitudeDegrees>
              <LongitudeDegrees>-8.36617813445627689361572265625</LongitudeDegrees>
            </Position>
            <AltitudeMeters>300.399993896484375</AltitudeMeters>
            <DistanceMeters>81439.751396926</DistanceMeters>
          </Trackpoint>
          <Trackpoint>
            <Time>2019-07-26T14:52:47.000Z</Time>
            <Position>
              <LatitudeDegrees>42.9080687463283538818359375</LatitudeDegrees>
              <LongitudeDegrees>-8.366217948496341705322265625</LongitudeDegrees>
            </Position>
            <AltitudeMeters>300.399993896484375</AltitudeMeters>
            <DistanceMeters>81443.485354348</DistanceMeters>
          </Trackpoint>
          <Trackpoint>
            <Time>2019-07-26T14:52:49.000Z</Time>
            <Position>
              <LatitudeDegrees>42.9080746136605739593505859375</LatitudeDegrees>
              <LongitudeDegrees>-8.3662404119968414306640625</LongitudeDegrees>
            </Position>
            <AltitudeMeters>300.399993896484375</AltitudeMeters>
            <DistanceMeters>81445.428180113</DistanceMeters>
          </Trackpoint>
          <Trackpoint>
            <Time>2019-07-26T14:53:43.000Z</Time>
            <Position>
              <LatitudeDegrees>42.90811099112033843994140625</LatitudeDegrees>
              <LongitudeDegrees>-8.366547524929046630859375</LongitudeDegrees>
            </Position>
            <AltitudeMeters>300</AltitudeMeters>
            <DistanceMeters>81470.79016752</DistanceMeters>
          </Trackpoint>
          <Trackpoint>
            <Time>2019-07-26T14:53:44.000Z</Time>
            <Position>
              <LatitudeDegrees>42.90807637386023998260498046875</LatitudeDegrees>
              <LongitudeDegrees>-8.36658868007361888885498046875</LongitudeDegrees>
            </Position>
            <AltitudeMeters>300</AltitudeMeters>
            <DistanceMeters>81475.898682072</DistanceMeters>
          </Trackpoint>
          <Trackpoint>
            <Time>2019-07-26T14:53:50.000Z</Time>
            <Position>
              <LatitudeDegrees>42.9079324565827846527099609375</LatitudeDegrees>
              <LongitudeDegrees>-8.36681951768696308135986328125</LongitudeDegrees>
            </Position>
            <AltitudeMeters>299.79998779296875</AltitudeMeters>
            <DistanceMeters>81500.611474914</DistanceMeters>
          </Trackpoint>
          <Trackpoint>
            <Time>2019-07-26T14:53:55.000Z</Time>
            <Position>
              <LatitudeDegrees>42.9078003577888011932373046875</LatitudeDegrees>
              <LongitudeDegrees>-8.3671019040048122406005859375</LongitudeDegrees>
            </Position>
            <AltitudeMeters>299.79998779296875</AltitudeMeters>
            <DistanceMeters>81527.926986193</DistanceMeters>
          </Trackpoint>
          <Trackpoint>
            <Time>2019-07-26T14:53:58.000Z</Time>
            <Position>
              <LatitudeDegrees>42.90769801475107669830322265625</LatitudeDegrees>
              <LongitudeDegrees>-8.3673560433089733123779296875</LongitudeDegrees>
            </Position>
            <AltitudeMeters>299.79998779296875</AltitudeMeters>
            <DistanceMeters>81551.570121606</DistanceMeters>
          </Trackpoint>
          <Trackpoint>
            <Time>2019-07-26T14:54:00.000Z</Time>
            <Position>
              <LatitudeDegrees>42.90762484073638916015625</LatitudeDegrees>
              <LongitudeDegrees>-8.367555029690265655517578125</LongitudeDegrees>
            </Position>
            <AltitudeMeters>299.399993896484375</AltitudeMeters>
            <DistanceMeters>81569.721965295</DistanceMeters>
          </Trackpoint>
          <Trackpoint>
            <Time>2019-07-26T14:54:05.000Z</Time>
            <Position>
              <LatitudeDegrees>42.90748469531536102294921875</LatitudeDegrees>
              <LongitudeDegrees>-8.368004970252513885498046875</LongitudeDegrees>
            </Position>
            <AltitudeMeters>299.20001220703125</AltitudeMeters>
            <DistanceMeters>81609.581566018</DistanceMeters>
          </Trackpoint>
          <Trackpoint>
            <Time>2019-07-26T14:54:06.000Z</Time>
            <Position>
              <LatitudeDegrees>42.9074583761394023895263671875</LatitudeDegrees>
              <LongitudeDegrees>-8.36809608153998851776123046875</LongitudeDegrees>
            </Position>
            <AltitudeMeters>299.20001220703125</AltitudeMeters>
            <DistanceMeters>81617.566072246</DistanceMeters>
          </Trackpoint>
          <Trackpoint>
            <Time>2019-07-26T14:54:11.000Z</Time>
            <Position>
              <LatitudeDegrees>42.9073420353233814239501953125</LatitudeDegrees>
              <LongitudeDegrees>-8.36862246505916118621826171875</LongitudeDegrees>
            </Position>
            <AltitudeMeters>298.79998779296875</AltitudeMeters>
            <DistanceMeters>81662.389882309</DistanceMeters>
          </Trackpoint>
          <Trackpoint>
            <Time>2019-07-26T14:54:14.000Z</Time>
            <Position>
              <LatitudeDegrees>42.9072448052465915679931640625</LatitudeDegrees>
              <LongitudeDegrees>-8.36886218748986721038818359375</LongitudeDegrees>
            </Position>
            <AltitudeMeters>297.79998779296875</AltitudeMeters>
            <DistanceMeters>81684.72904399</DistanceMeters>
          </Trackpoint>
          <Trackpoint>
            <Time>2019-07-26T14:54:16.000Z</Time>
            <Position>
              <LatitudeDegrees>42.9071495868265628814697265625</LatitudeDegrees>
              <LongitudeDegrees>-8.368992023169994354248046875</LongitudeDegrees>
            </Position>
            <AltitudeMeters>297.20001220703125</AltitudeMeters>
            <DistanceMeters>81699.707436736</DistanceMeters>
          </Trackpoint>
          <Trackpoint>
            <Time>2019-07-26T14:54:18.000Z</Time>
            <Position>
              <LatitudeDegrees>42.90707054547965526580810546875</LatitudeDegrees>
              <LongitudeDegrees>-8.36913577280938625335693359375</LongitudeDegrees>
            </Position>
            <AltitudeMeters>296.79998779296875</AltitudeMeters>
            <DistanceMeters>81714.361283256</DistanceMeters>
          </Trackpoint>
          <Trackpoint>
            <Time>2019-07-26T14:54:20.000Z</Time>
            <Position>
              <LatitudeDegrees>42.90703383274376392364501953125</LatitudeDegrees>
              <LongitudeDegrees>-8.36929637007415294647216796875</LongitudeDegrees>
            </Position>
            <AltitudeMeters>296.79998779296875</AltitudeMeters>
            <DistanceMeters>81728.07676912</DistanceMeters>
          </Trackpoint>
          <Trackpoint>
            <Time>2019-07-26T14:54:22.000Z</Time>
            <Position>
              <LatitudeDegrees>42.9070070944726467132568359375</LatitudeDegrees>
              <LongitudeDegrees>-8.3694873936474323272705078125</LongitudeDegrees>
            </Position>
            <AltitudeMeters>296.600006103515625</AltitudeMeters>
            <DistanceMeters>81743.931713713</DistanceMeters>
          </Trackpoint>
          <Trackpoint>
            <Time>2019-07-26T14:54:23.000Z</Time>
            <Position>
              <LatitudeDegrees>42.90697197429835796356201171875</LatitudeDegrees>
              <LongitudeDegrees>-8.36958504281938076019287109375</LongitudeDegrees>
            </Position>
            <AltitudeMeters>296.600006103515625</AltitudeMeters>
            <DistanceMeters>81752.800308068</DistanceMeters>
          </Trackpoint>
          <Trackpoint>
            <Time>2019-07-26T14:54:24.000Z</Time>
            <Position>
              <LatitudeDegrees>42.906935177743434906005859375</LatitudeDegrees>
              <LongitudeDegrees>-8.369678668677806854248046875</LongitudeDegrees>
            </Position>
            <AltitudeMeters>296.399993896484375</AltitudeMeters>
            <DistanceMeters>81761.462346233</DistanceMeters>
          </Trackpoint>
          <Trackpoint>
            <Time>2019-07-26T14:54:27.000Z</Time>
            <Position>
              <LatitudeDegrees>42.90678924880921840667724609375</LatitudeDegrees>
              <LongitudeDegrees>-8.3699671737849712371826171875</LongitudeDegrees>
            </Position>
            <AltitudeMeters>296</AltitudeMeters>
            <DistanceMeters>81790.045648987</DistanceMeters>
          </Trackpoint>
          <Trackpoint>
            <Time>2019-07-26T14:54:29.000Z</Time>
            <Position>
              <LatitudeDegrees>42.906687073409557342529296875</LatitudeDegrees>
              <LongitudeDegrees>-8.37009768001735210418701171875</LongitudeDegrees>
            </Position>
            <AltitudeMeters>295.600006103515625</AltitudeMeters>
            <DistanceMeters>81805.61901706</DistanceMeters>
          </Trackpoint>
          <Trackpoint>
            <Time>2019-07-26T14:54:30.000Z</Time>
            <Position>
              <LatitudeDegrees>42.9066476784646511077880859375</LatitudeDegrees>
              <LongitudeDegrees>-8.3701435290277004241943359375</LongitudeDegrees>
            </Position>
            <AltitudeMeters>295.20001220703125</AltitudeMeters>
            <DistanceMeters>81811.380489182</DistanceMeters>
          </Trackpoint>
          <Trackpoint>
            <Time>2019-07-26T14:54:32.000Z</Time>
            <Position>
              <LatitudeDegrees>42.90656268596649169921875</LatitudeDegrees>
              <LongitudeDegrees>-8.37019122205674648284912109375</LongitudeDegrees>
            </Position>
            <AltitudeMeters>294.20001220703125</AltitudeMeters>
            <DistanceMeters>81821.608118698</DistanceMeters>
          </Trackpoint>
          <Trackpoint>
            <Time>2019-07-26T14:54:34.000Z</Time>
            <Position>
              <LatitudeDegrees>42.90645229630172252655029296875</LatitudeDegrees>
              <LongitudeDegrees>-8.37025375105440616607666015625</LongitudeDegrees>
            </Position>
            <AltitudeMeters>293.20001220703125</AltitudeMeters>
            <DistanceMeters>81834.910501116</DistanceMeters>
          </Trackpoint>
          <Trackpoint>
            <Time>2019-07-26T14:54:35.000Z</Time>
            <Position>
              <LatitudeDegrees>42.9064019210636615753173828125</LatitudeDegrees>
              <LongitudeDegrees>-8.37031024508178234100341796875</LongitudeDegrees>
            </Position>
            <AltitudeMeters>292.79998779296875</AltitudeMeters>
            <DistanceMeters>81842.166212361</DistanceMeters>
          </Trackpoint>
          <Trackpoint>
            <Time>2019-07-26T14:54:36.000Z</Time>
            <Position>
              <LatitudeDegrees>42.90637157857418060302734375</LatitudeDegrees>
              <LongitudeDegrees>-8.37037897668778896331787109375</LongitudeDegrees>
            </Position>
            <AltitudeMeters>292</AltitudeMeters>
            <DistanceMeters>81848.708579084</DistanceMeters>
          </Trackpoint>
          <Trackpoint>
            <Time>2019-07-26T14:54:37.000Z</Time>
            <Position>
              <LatitudeDegrees>42.9063811339437961578369140625</LatitudeDegrees>
              <LongitudeDegrees>-8.3704704232513904571533203125</LongitudeDegrees>
            </Position>
            <AltitudeMeters>291</AltitudeMeters>
            <DistanceMeters>81856.239108951</DistanceMeters>
          </Trackpoint>
          <Trackpoint>
            <Time>2019-07-26T14:54:38.000Z</Time>
            <Position>
              <LatitudeDegrees>42.90639781393110752105712890625</LatitudeDegrees>
              <LongitudeDegrees>-8.37054560892283916473388671875</LongitudeDegrees>
            </Position>
            <AltitudeMeters>290.20001220703125</AltitudeMeters>
            <DistanceMeters>81862.643373718</DistanceMeters>
          </Trackpoint>
          <Trackpoint>
            <Time>2019-07-26T14:54:39.000Z</Time>
            <Position>
              <LatitudeDegrees>42.90642790496349334716796875</LatitudeDegrees>
              <LongitudeDegrees>-8.3706150949001312255859375</LongitudeDegrees>
            </Position>
            <AltitudeMeters>289.399993896484375</AltitudeMeters>
            <DistanceMeters>81869.224273856</DistanceMeters>
          </Trackpoint>
          <Trackpoint>
            <Time>2019-07-26T14:54:41.000Z</Time>
            <Position>
              <LatitudeDegrees>42.90649739094078540802001953125</LatitudeDegrees>
              <LongitudeDegrees>-8.37075649760663509368896484375</LongitudeDegrees>
            </Position>
            <AltitudeMeters>288.20001220703125</AltitudeMeters>
            <DistanceMeters>81883.105982372</DistanceMeters>
          </Trackpoint>
          <Trackpoint>
            <Time>2019-07-26T14:54:42.000Z</Time>
            <Position>
              <LatitudeDegrees>42.90652588941156864166259765625</LatitudeDegrees>
              <LongitudeDegrees>-8.370831348001956939697265625</LongitudeDegrees>
            </Position>
            <AltitudeMeters>288</AltitudeMeters>
            <DistanceMeters>81889.983448505</DistanceMeters>
          </Trackpoint>
          <Trackpoint>
            <Time>2019-07-26T14:54:44.000Z</Time>
            <Position>
              <LatitudeDegrees>42.90654097683727741241455078125</LatitudeDegrees>
              <LongitudeDegrees>-8.3709803782403469085693359375</LongitudeDegrees>
            </Position>
            <AltitudeMeters>286.79998779296875</AltitudeMeters>
            <DistanceMeters>81902.248890753</DistanceMeters>
          </Trackpoint>
          <Trackpoint>
            <Time>2019-07-26T14:54:45.000Z</Time>
            <Position>
              <LatitudeDegrees>42.90651650168001651763916015625</LatitudeDegrees>
              <LongitudeDegrees>-8.37106226943433284759521484375</LongitudeDegrees>
            </Position>
            <AltitudeMeters>286.600006103515625</AltitudeMeters>
            <DistanceMeters>81909.459032922</DistanceMeters>
          </Trackpoint>
          <Trackpoint>
            <Time>2019-07-26T14:54:48.000Z</Time>
            <Position>
              <LatitudeDegrees>42.90636411868035793304443359375</LatitudeDegrees>
              <LongitudeDegrees>-8.37126678787171840667724609375</LongitudeDegrees>
            </Position>
            <AltitudeMeters>286.20001220703125</AltitudeMeters>
            <DistanceMeters>81933.24268379</DistanceMeters>
          </Trackpoint>
          <Trackpoint>
            <Time>2019-07-26T14:54:50.000Z</Time>
            <Position>
              <LatitudeDegrees>42.9062805511057376861572265625</LatitudeDegrees>
              <LongitudeDegrees>-8.37134708650410175323486328125</LongitudeDegrees>
            </Position>
            <AltitudeMeters>285.399993896484375</AltitudeMeters>
            <DistanceMeters>81944.61694883</DistanceMeters>
          </Trackpoint>
          <Trackpoint>
            <Time>2019-07-26T14:54:51.000Z</Time>
            <Position>
              <LatitudeDegrees>42.90625649504363536834716796875</LatitudeDegrees>
              <LongitudeDegrees>-8.37137441150844097137451171875</LongitudeDegrees>
            </Position>
            <AltitudeMeters>284.600006103515625</AltitudeMeters>
            <DistanceMeters>81948.100685723</DistanceMeters>
          </Trackpoint>
          <Trackpoint>
            <Time>2019-07-26T14:54:52.000Z</Time>
            <Position>
              <LatitudeDegrees>42.90623168461024761199951171875</LatitudeDegrees>
              <LongitudeDegrees>-8.37140458635985851287841796875</LongitudeDegrees>
            </Position>
            <AltitudeMeters>283.600006103515625</AltitudeMeters>
            <DistanceMeters>81951.799410613</DistanceMeters>
          </Trackpoint>
          <Trackpoint>
            <Time>2019-07-26T14:54:54.000Z</Time>
            <Position>
              <LatitudeDegrees>42.90616764687001705169677734375</LatitudeDegrees>
              <LongitudeDegrees>-8.3714745752513408660888671875</LongitudeDegrees>
            </Position>
            <AltitudeMeters>282.600006103515625</AltitudeMeters>
            <DistanceMeters>81960.928901595</DistanceMeters>
          </Trackpoint>
          <Trackpoint>
            <Time>2019-07-26T14:54:56.000Z</Time>
            <Position>
              <LatitudeDegrees>42.90609170682728290557861328125</LatitudeDegrees>
              <LongitudeDegrees>-8.37156166322529315948486328125</LongitudeDegrees>
            </Position>
            <AltitudeMeters>281.399993896484375</AltitudeMeters>
            <DistanceMeters>81971.96714518</DistanceMeters>
          </Trackpoint>
          <Trackpoint>
            <Time>2019-07-26T14:54:58.000Z</Time>
            <Position>
              <LatitudeDegrees>42.90600336156785488128662109375</LatitudeDegrees>
              <LongitudeDegrees>-8.371649421751499176025390625</LongitudeDegrees>
            </Position>
            <AltitudeMeters>280.20001220703125</AltitudeMeters>
            <DistanceMeters>81984.127965955</DistanceMeters>
          </Trackpoint>
          <Trackpoint>
            <Time>2019-07-26T14:55:01.000Z</Time>
            <Position>
              <LatitudeDegrees>42.90586019866168498992919921875</LatitudeDegrees>
              <LongitudeDegrees>-8.37177339009940624237060546875</LongitudeDegrees>
            </Position>
            <AltitudeMeters>279.399993896484375</AltitudeMeters>
            <DistanceMeters>82002.996931323</DistanceMeters>
          </Trackpoint>
          <Trackpoint>
            <Time>2019-07-26T14:55:02.000Z</Time>
            <Position>
              <LatitudeDegrees>42.9058232344686985015869140625</LatitudeDegrees>
              <LongitudeDegrees>-8.37182485498487949371337890625</LongitudeDegrees>
            </Position>
            <AltitudeMeters>279.20001220703125</AltitudeMeters>
            <DistanceMeters>82008.873240736</DistanceMeters>
          </Trackpoint>
          <Trackpoint>
            <Time>2019-07-26T14:55:03.000Z</Time>
            <Position>
              <LatitudeDegrees>42.90580001659691333770751953125</LatitudeDegrees>
              <LongitudeDegrees>-8.3718822710216045379638671875</LongitudeDegrees>
            </Position>
            <AltitudeMeters>279.20001220703125</AltitudeMeters>
            <DistanceMeters>82014.22012974</DistanceMeters>
          </Trackpoint>
          <Trackpoint>
            <Time>2019-07-26T14:55:05.000Z</Time>
            <Position>
              <LatitudeDegrees>42.90584024973213672637939453125</LatitudeDegrees>
              <LongitudeDegrees>-8.3719932474195957183837890625</LongitudeDegrees>
            </Position>
            <AltitudeMeters>279</AltitudeMeters>
            <DistanceMeters>82024.314454016</DistanceMeters>
          </Trackpoint>
          <Trackpoint>
            <Time>2019-07-26T14:55:08.000Z</Time>
            <Position>
              <LatitudeDegrees>42.90596656501293182373046875</LatitudeDegrees>
              <LongitudeDegrees>-8.3721263520419597625732421875</LongitudeDegrees>
            </Position>
            <AltitudeMeters>278.600006103515625</AltitudeMeters>
            <DistanceMeters>82042.074029181</DistanceMeters>
          </Trackpoint>
          <Trackpoint>
            <Time>2019-07-26T14:55:10.000Z</Time>
            <Position>
              <LatitudeDegrees>42.90604862384498119354248046875</LatitudeDegrees>
              <LongitudeDegrees>-8.37224126793444156646728515625</LongitudeDegrees>
            </Position>
            <AltitudeMeters>278.79998779296875</AltitudeMeters>
            <DistanceMeters>82055.158072487</DistanceMeters>
          </Trackpoint>
          <Trackpoint>
            <Time>2019-07-26T14:55:12.000Z</Time>
            <Position>
              <LatitudeDegrees>42.90610847063362598419189453125</LatitudeDegrees>
              <LongitudeDegrees>-8.37238694541156291961669921875</LongitudeDegrees>
            </Position>
            <AltitudeMeters>278.79998779296875</AltitudeMeters>
            <DistanceMeters>82068.775105559</DistanceMeters>
          </Trackpoint>
          <Trackpoint>
            <Time>2019-07-26T14:55:16.000Z</Time>
            <Position>
              <LatitudeDegrees>42.90611936710774898529052734375</LatitudeDegrees>
              <LongitudeDegrees>-8.37266321294009685516357421875</LongitudeDegrees>
            </Position>
            <AltitudeMeters>278.79998779296875</AltitudeMeters>
            <DistanceMeters>82091.330692602</DistanceMeters>
          </Trackpoint>
          <Trackpoint>
            <Time>2019-07-26T14:55:18.000Z</Time>
            <Position>
              <LatitudeDegrees>42.9061045311391353607177734375</LatitudeDegrees>
              <LongitudeDegrees>-8.3728022687137126922607421875</LongitudeDegrees>
            </Position>
            <AltitudeMeters>278.79998779296875</AltitudeMeters>
            <DistanceMeters>82102.787226158</DistanceMeters>
          </Trackpoint>
          <Trackpoint>
            <Time>2019-07-26T14:55:21.000Z</Time>
            <Position>
              <LatitudeDegrees>42.90608651004731655120849609375</LatitudeDegrees>
              <LongitudeDegrees>-8.37300905026495456695556640625</LongitudeDegrees>
            </Position>
            <AltitudeMeters>279</AltitudeMeters>
            <DistanceMeters>82119.763795888</DistanceMeters>
          </Trackpoint>
          <Trackpoint>
            <Time>2019-07-26T14:55:22.000Z</Time>
            <Position>
              <LatitudeDegrees>42.90607980452477931976318359375</LatitudeDegrees>
              <LongitudeDegrees>-8.37306864559650421142578125</LongitudeDegrees>
            </Position>
            <AltitudeMeters>279</AltitudeMeters>
            <DistanceMeters>82124.679534343</DistanceMeters>
          </Trackpoint>
          <Trackpoint>
            <Time>2019-07-26T14:55:23.000Z</Time>
            <Position>
              <LatitudeDegrees>42.90606471709907054901123046875</LatitudeDegrees>
              <LongitudeDegrees>-8.37312572635710239410400390625</LongitudeDegrees>
            </Position>
            <AltitudeMeters>279.20001220703125</AltitudeMeters>
            <DistanceMeters>82129.626402763</DistanceMeters>
          </Trackpoint>
          <Trackpoint>
            <Time>2019-07-26T14:55:26.000Z</Time>
            <Position>
              <LatitudeDegrees>42.9059979133307933807373046875</LatitudeDegrees>
              <LongitudeDegrees>-8.37329437024891376495361328125</LongitudeDegrees>
            </Position>
            <AltitudeMeters>279.600006103515625</AltitudeMeters>
            <DistanceMeters>82145.25706968</DistanceMeters>
          </Trackpoint>
          <Trackpoint>
            <Time>2019-07-26T14:55:29.000Z</Time>
            <Position>
              <LatitudeDegrees>42.9059533216059207916259765625</LatitudeDegrees>
              <LongitudeDegrees>-8.37346117012202739715576171875</LongitudeDegrees>
            </Position>
            <AltitudeMeters>280</AltitudeMeters>
            <DistanceMeters>82159.732979115</DistanceMeters>
          </Trackpoint>
          <Trackpoint>
            <Time>2019-07-26T14:55:31.000Z</Time>
            <Position>
              <LatitudeDegrees>42.90592708624899387359619140625</LatitudeDegrees>
              <LongitudeDegrees>-8.37356560863554477691650390625</LongitudeDegrees>
            </Position>
            <AltitudeMeters>280.399993896484375</AltitudeMeters>
            <DistanceMeters>82168.733970497</DistanceMeters>
          </Trackpoint>
          <Trackpoint>
            <Time>2019-07-26T14:55:37.000Z</Time>
            <Position>
              <LatitudeDegrees>42.905787527561187744140625</LatitudeDegrees>
              <LongitudeDegrees>-8.37388479150831699371337890625</LongitudeDegrees>
            </Position>
            <AltitudeMeters>281.20001220703125</AltitudeMeters>
            <DistanceMeters>82199.039001344</DistanceMeters>
          </Trackpoint>
          <Trackpoint>
            <Time>2019-07-26T14:55:39.000Z</Time>
            <Position>
              <LatitudeDegrees>42.90574469603598117828369140625</LatitudeDegrees>
              <LongitudeDegrees>-8.37398101575672626495361328125</LongitudeDegrees>
            </Position>
            <AltitudeMeters>281.399993896484375</AltitudeMeters>
            <DistanceMeters>82208.218798366</DistanceMeters>
          </Trackpoint>
          <Trackpoint>
            <Time>2019-07-26T14:55:42.000Z</Time>
            <Position>
              <LatitudeDegrees>42.9056601226329803466796875</LatitudeDegrees>
              <LongitudeDegrees>-8.37411210872232913970947265625</LongitudeDegrees>
            </Position>
            <AltitudeMeters>281.399993896484375</AltitudeMeters>
            <DistanceMeters>82222.460763718</DistanceMeters>
          </Trackpoint>
          <Trackpoint>
            <Time>2019-07-26T14:55:47.000Z</Time>
            <Position>
              <LatitudeDegrees>42.90556557476520538330078125</LatitudeDegrees>
              <LongitudeDegrees>-8.37430187501013278961181640625</LongitudeDegrees>
            </Position>
            <AltitudeMeters>281.79998779296875</AltitudeMeters>
            <DistanceMeters>82241.171617887</DistanceMeters>
          </Trackpoint>
          <Trackpoint>
            <Time>2019-07-26T14:55:52.000Z</Time>
            <Position>
              <LatitudeDegrees>42.90545962750911712646484375</LatitudeDegrees>
              <LongitudeDegrees>-8.37444772012531757354736328125</LongitudeDegrees>
            </Position>
            <AltitudeMeters>282</AltitudeMeters>
            <DistanceMeters>82257.917902671</DistanceMeters>
          </Trackpoint>
          <Trackpoint>
            <Time>2019-07-26T14:55:55.000Z</Time>
            <Position>
              <LatitudeDegrees>42.90536583401262760162353515625</LatitudeDegrees>
              <LongitudeDegrees>-8.374535478651523590087890625</LongitudeDegrees>
            </Position>
            <AltitudeMeters>282.600006103515625</AltitudeMeters>
            <DistanceMeters>82270.573591743</DistanceMeters>
          </Trackpoint>
          <Trackpoint>
            <Time>2019-07-26T14:55:57.000Z</Time>
            <Position>
              <LatitudeDegrees>42.90531621314585208892822265625</LatitudeDegrees>
              <LongitudeDegrees>-8.374609239399433135986328125</LongitudeDegrees>
            </Position>
            <AltitudeMeters>283</AltitudeMeters>
            <DistanceMeters>82278.738150782</DistanceMeters>
          </Trackpoint>
          <Trackpoint>
            <Time>2019-07-26T14:56:00.000Z</Time>
            <Position>
              <LatitudeDegrees>42.90524144656956195831298828125</LatitudeDegrees>
              <LongitudeDegrees>-8.3747086487710475921630859375</LongitudeDegrees>
            </Position>
            <AltitudeMeters>283.79998779296875</AltitudeMeters>
            <DistanceMeters>82290.35397629</DistanceMeters>
          </Trackpoint>
          <Trackpoint>
            <Time>2019-07-26T14:56:03.000Z</Time>
            <Position>
              <LatitudeDegrees>42.90511655621230602264404296875</LatitudeDegrees>
              <LongitudeDegrees>-8.374798335134983062744140625</LongitudeDegrees>
            </Position>
            <AltitudeMeters>284</AltitudeMeters>
            <DistanceMeters>82306.060141585</DistanceMeters>
          </Trackpoint>
          <Trackpoint>
            <Time>2019-07-26T14:56:07.000Z</Time>
            <Position>
              <LatitudeDegrees>42.90495813824236392974853515625</LatitudeDegrees>
              <LongitudeDegrees>-8.3749466948211193084716796875</LongitudeDegrees>
            </Position>
            <AltitudeMeters>284.600006103515625</AltitudeMeters>
            <DistanceMeters>82327.442208145</DistanceMeters>
          </Trackpoint>
          <Trackpoint>
            <Time>2019-07-26T14:56:10.000Z</Time>
            <Position>
              <LatitudeDegrees>42.90485613048076629638671875</LatitudeDegrees>
              <LongitudeDegrees>-8.37507485412061214447021484375</LongitudeDegrees>
            </Position>
            <AltitudeMeters>284.79998779296875</AltitudeMeters>
            <DistanceMeters>82342.872276049</DistanceMeters>
          </Trackpoint>
          <Trackpoint>
            <Time>2019-07-26T14:56:16.000Z</Time>
            <Position>
              <LatitudeDegrees>42.9046742431819438934326171875</LatitudeDegrees>
              <LongitudeDegrees>-8.37536838836967945098876953125</LongitudeDegrees>
            </Position>
            <AltitudeMeters>285</AltitudeMeters>
            <DistanceMeters>82374.217554762</DistanceMeters>
          </Trackpoint>
          <Trackpoint>
            <Time>2019-07-26T14:56:19.000Z</Time>
            <Position>
              <LatitudeDegrees>42.90460391901433467864990234375</LatitudeDegrees>
              <LongitudeDegrees>-8.37546343915164470672607421875</LongitudeDegrees>
            </Position>
            <AltitudeMeters>285</AltitudeMeters>
            <DistanceMeters>82385.231638788</DistanceMeters>
          </Trackpoint>
          <Trackpoint>
            <Time>2019-07-26T14:56:22.000Z</Time>
            <Position>
              <LatitudeDegrees>42.9045577347278594970703125</LatitudeDegrees>
              <LongitudeDegrees>-8.37553133256733417510986328125</LongitudeDegrees>
            </Position>
            <AltitudeMeters>285.20001220703125</AltitudeMeters>
            <DistanceMeters>82392.786113166</DistanceMeters>
          </Trackpoint>
          <Trackpoint>
            <Time>2019-07-26T14:56:26.000Z</Time>
            <Position>
              <LatitudeDegrees>42.904494367539882659912109375</LatitudeDegrees>
              <LongitudeDegrees>-8.3756028302013874053955078125</LongitudeDegrees>
            </Position>
            <AltitudeMeters>285.399993896484375</AltitudeMeters>
            <DistanceMeters>82401.936845315</DistanceMeters>
          </Trackpoint>
          <Trackpoint>
            <Time>2019-07-26T14:56:28.000Z</Time>
            <Position>
              <LatitudeDegrees>42.904454804956912994384765625</LatitudeDegrees>
              <LongitudeDegrees>-8.37564063258469104766845703125</LongitudeDegrees>
            </Position>
            <AltitudeMeters>285.399993896484375</AltitudeMeters>
            <DistanceMeters>82407.311528054</DistanceMeters>
          </Trackpoint>
          <Trackpoint>
            <Time>2019-07-26T14:56:29.000Z</Time>
            <Position>
              <LatitudeDegrees>42.90443309582769870758056640625</LatitudeDegrees>
              <LongitudeDegrees>-8.37565924040973186492919921875</LongitudeDegrees>
            </Position>
            <AltitudeMeters>285.399993896484375</AltitudeMeters>
            <DistanceMeters>82410.165495285</DistanceMeters>
          </Trackpoint>
          <Trackpoint>
            <Time>2019-07-26T14:56:31.000Z</Time>
            <Position>
              <LatitudeDegrees>42.90440526790916919708251953125</LatitudeDegrees>
              <LongitudeDegrees>-8.37570852600038051605224609375</LongitudeDegrees>
            </Position>
            <AltitudeMeters>285.600006103515625</AltitudeMeters>
            <DistanceMeters>82415.23942354</DistanceMeters>
          </Trackpoint>
          <Trackpoint>
            <Time>2019-07-26T14:56:32.000Z</Time>
            <Position>
              <LatitudeDegrees>42.90439034812152385711669921875</LatitudeDegrees>
              <LongitudeDegrees>-8.375738449394702911376953125</LongitudeDegrees>
            </Position>
            <AltitudeMeters>285.600006103515625</AltitudeMeters>
            <DistanceMeters>82418.189846169</DistanceMeters>
          </Trackpoint>
          <Trackpoint>
            <Time>2019-07-26T14:56:33.000Z</Time>
            <Position>
              <LatitudeDegrees>42.90436930954456329345703125</LatitudeDegrees>
              <LongitudeDegrees>-8.37576502002775669097900390625</LongitudeDegrees>
            </Position>
            <AltitudeMeters>285.600006103515625</AltitudeMeters>
            <DistanceMeters>82421.381385959</DistanceMeters>
          </Trackpoint>
          <Trackpoint>
            <Time>2019-07-26T14:56:35.000Z</Time>
            <Position>
              <LatitudeDegrees>42.9043242149055004119873046875</LatitudeDegrees>
              <LongitudeDegrees>-8.37582034058868885040283203125</LongitudeDegrees>
            </Position>
            <AltitudeMeters>285.79998779296875</AltitudeMeters>
            <DistanceMeters>82428.128951848</DistanceMeters>
          </Trackpoint>
          <Trackpoint>
            <Time>2019-07-26T14:56:39.000Z</Time>
            <Position>
              <LatitudeDegrees>42.904264368116855621337890625</LatitudeDegrees>
              <LongitudeDegrees>-8.3759595640003681182861328125</LongitudeDegrees>
            </Position>
            <AltitudeMeters>286.20001220703125</AltitudeMeters>
            <DistanceMeters>82441.290066024</DistanceMeters>
          </Trackpoint>
          <Trackpoint>
            <Time>2019-07-26T14:56:44.000Z</Time>
            <Position>
              <LatitudeDegrees>42.90419471450150012969970703125</LatitudeDegrees>
              <LongitudeDegrees>-8.37615452706813812255859375</LongitudeDegrees>
            </Position>
            <AltitudeMeters>286.399993896484375</AltitudeMeters>
            <DistanceMeters>82458.975249871</DistanceMeters>
          </Trackpoint>
          <Trackpoint>
            <Time>2019-07-26T14:56:49.000Z</Time>
            <Position>
              <LatitudeDegrees>42.90413729846477508544921875</LatitudeDegrees>
              <LongitudeDegrees>-8.3764054812490940093994140625</LongitudeDegrees>
            </Position>
            <AltitudeMeters>286.79998779296875</AltitudeMeters>
            <DistanceMeters>82480.410041437</DistanceMeters>
          </Trackpoint>
          <Trackpoint>
            <Time>2019-07-26T14:56:55.000Z</Time>
            <Position>
              <LatitudeDegrees>42.904086001217365264892578125</LatitudeDegrees>
              <LongitudeDegrees>-8.3766877837479114532470703125</LongitudeDegrees>
            </Position>
            <AltitudeMeters>287.399993896484375</AltitudeMeters>
            <DistanceMeters>82504.123348257</DistanceMeters>
          </Trackpoint>
          <Trackpoint>
            <Time>2019-07-26T14:56:59.000Z</Time>
            <Position>
              <LatitudeDegrees>42.904009558260440826416015625</LatitudeDegrees>
              <LongitudeDegrees>-8.37686472572386264801025390625</LongitudeDegrees>
            </Position>
            <AltitudeMeters>287.79998779296875</AltitudeMeters>
            <DistanceMeters>82520.871250648</DistanceMeters>
          </Trackpoint>
          <Trackpoint>
            <Time>2019-07-26T14:57:01.000Z</Time>
            <Position>
              <LatitudeDegrees>42.903964631259441375732421875</LatitudeDegrees>
              <LongitudeDegrees>-8.376942761242389678955078125</LongitudeDegrees>
            </Position>
            <AltitudeMeters>287.79998779296875</AltitudeMeters>
            <DistanceMeters>82528.963041815</DistanceMeters>
          </Trackpoint>
          <Trackpoint>
            <Time>2019-07-26T14:57:05.000Z</Time>
            <Position>
              <LatitudeDegrees>42.90391978807747364044189453125</LatitudeDegrees>
              <LongitudeDegrees>-8.3771028555929660797119140625</LongitudeDegrees>
            </Position>
            <AltitudeMeters>288.399993896484375</AltitudeMeters>
            <DistanceMeters>82542.936816288</DistanceMeters>
          </Trackpoint>
          <Trackpoint>
            <Time>2019-07-26T14:57:07.000Z</Time>
            <Position>
              <LatitudeDegrees>42.90387586690485477447509765625</LatitudeDegrees>
              <LongitudeDegrees>-8.37717502377927303314208984375</LongitudeDegrees>
            </Position>
            <AltitudeMeters>288.600006103515625</AltitudeMeters>
            <DistanceMeters>82550.586319237</DistanceMeters>
          </Trackpoint>
          <Trackpoint>
            <Time>2019-07-26T14:57:10.000Z</Time>
            <Position>
              <LatitudeDegrees>42.90381534956395626068115234375</LatitudeDegrees>
              <LongitudeDegrees>-8.3772937953472137451171875</LongitudeDegrees>
            </Position>
            <AltitudeMeters>288.79998779296875</AltitudeMeters>
            <DistanceMeters>82562.382269725</DistanceMeters>
          </Trackpoint>
          <Trackpoint>
            <Time>2019-07-26T14:57:12.000Z</Time>
            <Position>
              <LatitudeDegrees>42.9037884436547756195068359375</LatitudeDegrees>
              <LongitudeDegrees>-8.377365879714488983154296875</LongitudeDegrees>
            </Position>
            <AltitudeMeters>289.20001220703125</AltitudeMeters>
            <DistanceMeters>82568.978246401</DistanceMeters>
          </Trackpoint>
          <Trackpoint>
            <Time>2019-07-26T14:57:17.000Z</Time>
            <Position>
              <LatitudeDegrees>42.90374577976763248443603515625</LatitudeDegrees>
              <LongitudeDegrees>-8.37758808396756649017333984375</LongitudeDegrees>
            </Position>
            <AltitudeMeters>289.79998779296875</AltitudeMeters>
            <DistanceMeters>82587.706225447</DistanceMeters>
          </Trackpoint>
          <Trackpoint>
            <Time>2019-07-26T14:57:19.000Z</Time>
            <Position>
              <LatitudeDegrees>42.90374997071921825408935546875</LatitudeDegrees>
              <LongitudeDegrees>-8.37769084610044956207275390625</LongitudeDegrees>
            </Position>
            <AltitudeMeters>290</AltitudeMeters>
            <DistanceMeters>82596.097681585</DistanceMeters>
          </Trackpoint>
          <Trackpoint>
            <Time>2019-07-26T14:57:23.000Z</Time>
            <Position>
              <LatitudeDegrees>42.90374913252890110015869140625</LatitudeDegrees>
              <LongitudeDegrees>-8.377893604338169097900390625</LongitudeDegrees>
            </Position>
            <AltitudeMeters>290.399993896484375</AltitudeMeters>
            <DistanceMeters>82612.628506529</DistanceMeters>
          </Trackpoint>
          <Trackpoint>
            <Time>2019-07-26T14:57:27.000Z</Time>
            <Position>
              <LatitudeDegrees>42.903703786432743072509765625</LatitudeDegrees>
              <LongitudeDegrees>-8.37807498872280120849609375</LongitudeDegrees>
            </Position>
            <AltitudeMeters>291</AltitudeMeters>
            <DistanceMeters>82628.253973143</DistanceMeters>
          </Trackpoint>
          <Trackpoint>
            <Time>2019-07-26T14:57:30.000Z</Time>
            <Position>
              <LatitudeDegrees>42.903691716492176055908203125</LatitudeDegrees>
              <LongitudeDegrees>-8.3782699517905712127685546875</LongitudeDegrees>
            </Position>
            <AltitudeMeters>291.399993896484375</AltitudeMeters>
            <DistanceMeters>82644.205446242</DistanceMeters>
          </Trackpoint>
          <Trackpoint>
            <Time>2019-07-26T14:57:35.000Z</Time>
            <Position>
              <LatitudeDegrees>42.9036231525242328643798828125</LatitudeDegrees>
              <LongitudeDegrees>-8.3785351552069187164306640625</LongitudeDegrees>
            </Position>
            <AltitudeMeters>292.20001220703125</AltitudeMeters>
            <DistanceMeters>82667.134271999</DistanceMeters>
          </Trackpoint>
          <Trackpoint>
            <Time>2019-07-26T14:57:37.000Z</Time>
            <Position>
              <LatitudeDegrees>42.90361586026847362518310546875</LatitudeDegrees>
              <LongitudeDegrees>-8.37863062508404254913330078125</LongitudeDegrees>
            </Position>
            <AltitudeMeters>292.399993896484375</AltitudeMeters>
            <DistanceMeters>82674.959997425</DistanceMeters>
          </Trackpoint>
          <Trackpoint>
            <Time>2019-07-26T14:57:41.000Z</Time>
            <Position>
              <LatitudeDegrees>42.9036028683185577392578125</LatitudeDegrees>
              <LongitudeDegrees>-8.37881485931575298309326171875</LongitudeDegrees>
            </Position>
            <AltitudeMeters>293.20001220703125</AltitudeMeters>
            <DistanceMeters>82690.049808809</DistanceMeters>
          </Trackpoint>
          <Trackpoint>
            <Time>2019-07-26T14:57:43.000Z</Time>
            <Position>
              <LatitudeDegrees>42.90359272621572017669677734375</LatitudeDegrees>
              <LongitudeDegrees>-8.37891963310539722442626953125</LongitudeDegrees>
            </Position>
            <AltitudeMeters>293.399993896484375</AltitudeMeters>
            <DistanceMeters>82698.665855376</DistanceMeters>
          </Trackpoint>
          <Trackpoint>
            <Time>2019-07-26T14:57:49.000Z</Time>
            <Position>
              <LatitudeDegrees>42.9035698436200618743896484375</LatitudeDegrees>
              <LongitudeDegrees>-8.3792415820062160491943359375</LongitudeDegrees>
            </Position>
            <AltitudeMeters>293.600006103515625</AltitudeMeters>
            <DistanceMeters>82725.03709553</DistanceMeters>
          </Trackpoint>
          <Trackpoint>
            <Time>2019-07-26T14:57:55.000Z</Time>
            <Position>
              <LatitudeDegrees>42.90356506593525409698486328125</LatitudeDegrees>
              <LongitudeDegrees>-8.37952614761888980865478515625</LongitudeDegrees>
            </Position>
            <AltitudeMeters>294</AltitudeMeters>
            <DistanceMeters>82748.243467477</DistanceMeters>
          </Trackpoint>
          <Trackpoint>
            <Time>2019-07-26T14:57:59.000Z</Time>
            <Position>
              <LatitudeDegrees>42.9035742022097110748291015625</LatitudeDegrees>
              <LongitudeDegrees>-8.379736281931400299072265625</LongitudeDegrees>
            </Position>
            <AltitudeMeters>294.399993896484375</AltitudeMeters>
            <DistanceMeters>82765.405723548</DistanceMeters>
          </Trackpoint>
          <Trackpoint>
            <Time>2019-07-26T14:58:00.000Z</Time>
            <Position>
              <LatitudeDegrees>42.90359004400670528411865234375</LatitudeDegrees>
              <LongitudeDegrees>-8.37981280870735645294189453125</LongitudeDegrees>
            </Position>
            <AltitudeMeters>294.600006103515625</AltitudeMeters>
            <DistanceMeters>82771.889860802</DistanceMeters>
          </Trackpoint>
          <Trackpoint>
            <Time>2019-07-26T14:58:05.000Z</Time>
            <Position>
              <LatitudeDegrees>42.90372532792389392852783203125</LatitudeDegrees>
              <LongitudeDegrees>-8.380198962986469268798828125</LongitudeDegrees>
            </Position>
            <AltitudeMeters>295.399993896484375</AltitudeMeters>
            <DistanceMeters>82806.788090127</DistanceMeters>
          </Trackpoint>
          <Trackpoint>
            <Time>2019-07-26T14:58:07.000Z</Time>
            <Position>
              <LatitudeDegrees>42.903738655149936676025390625</LatitudeDegrees>
              <LongitudeDegrees>-8.3802909962832927703857421875</LongitudeDegrees>
            </Position>
            <AltitudeMeters>295.600006103515625</AltitudeMeters>
            <DistanceMeters>82814.436412505</DistanceMeters>
          </Trackpoint>
          <Trackpoint>
            <Time>2019-07-26T14:58:10.000Z</Time>
            <Position>
              <LatitudeDegrees>42.9037411697208881378173828125</LatitudeDegrees>
              <LongitudeDegrees>-8.38047212921082973480224609375</LongitudeDegrees>
            </Position>
            <AltitudeMeters>296.20001220703125</AltitudeMeters>
            <DistanceMeters>82829.206572179</DistanceMeters>
          </Trackpoint>
          <Trackpoint>
            <Time>2019-07-26T14:58:13.000Z</Time>
            <Position>
              <LatitudeDegrees>42.9037394933402538299560546875</LatitudeDegrees>
              <LongitudeDegrees>-8.3806899748742580413818359375</LongitudeDegrees>
            </Position>
            <AltitudeMeters>296.399993896484375</AltitudeMeters>
            <DistanceMeters>82846.967926874</DistanceMeters>
          </Trackpoint>
          <Trackpoint>
            <Time>2019-07-26T14:58:14.000Z</Time>
            <Position>
              <LatitudeDegrees>42.90374628268182277679443359375</LatitudeDegrees>
              <LongitudeDegrees>-8.3807691000401973724365234375</LongitudeDegrees>
            </Position>
            <AltitudeMeters>296.399993896484375</AltitudeMeters>
            <DistanceMeters>82853.461805298</DistanceMeters>
          </Trackpoint>
          <Trackpoint>
            <Time>2019-07-26T14:58:16.000Z</Time>
            <Position>
              <LatitudeDegrees>42.90374326519668102264404296875</LatitudeDegrees>
              <LongitudeDegrees>-8.3809223212301731109619140625</LongitudeDegrees>
            </Position>
            <AltitudeMeters>296.399993896484375</AltitudeMeters>
            <DistanceMeters>82865.957727908</DistanceMeters>
          </Trackpoint>
          <Trackpoint>
            <Time>2019-07-26T14:58:19.000Z</Time>
            <Position>
              <LatitudeDegrees>42.90373002178966999053955078125</LatitudeDegrees>
              <LongitudeDegrees>-8.38117696344852447509765625</LongitudeDegrees>
            </Position>
            <AltitudeMeters>296.399993896484375</AltitudeMeters>
            <DistanceMeters>82886.770530867</DistanceMeters>
          </Trackpoint>
          <Trackpoint>
            <Time>2019-07-26T14:58:22.000Z</Time>
            <Position>
              <LatitudeDegrees>42.90365676395595073699951171875</LatitudeDegrees>
              <LongitudeDegrees>-8.38136413134634494781494140625</LongitudeDegrees>
            </Position>
            <AltitudeMeters>296.20001220703125</AltitudeMeters>
            <DistanceMeters>82904.071657246</DistanceMeters>
          </Trackpoint>
          <Trackpoint>
            <Time>2019-07-26T14:58:23.000Z</Time>
            <Position>
              <LatitudeDegrees>42.9036431014537811279296875</LatitudeDegrees>
              <LongitudeDegrees>-8.38143722154200077056884765625</LongitudeDegrees>
            </Position>
            <AltitudeMeters>295.79998779296875</AltitudeMeters>
            <DistanceMeters>82910.221288141</DistanceMeters>
          </Trackpoint>
          <Trackpoint>
            <Time>2019-07-26T14:58:25.000Z</Time>
            <Position>
              <LatitudeDegrees>42.903647460043430328369140625</LatitudeDegrees>
              <LongitudeDegrees>-8.38157619349658489227294921875</LongitudeDegrees>
            </Position>
            <AltitudeMeters>295.399993896484375</AltitudeMeters>
            <DistanceMeters>82921.561363918</DistanceMeters>
          </Trackpoint>
          <Trackpoint>
            <Time>2019-07-26T14:58:26.000Z</Time>
            <Position>
              <LatitudeDegrees>42.9036590270698070526123046875</LatitudeDegrees>
              <LongitudeDegrees>-8.38162816129624843597412109375</LongitudeDegrees>
            </Position>
            <AltitudeMeters>295.20001220703125</AltitudeMeters>
            <DistanceMeters>82925.988017946</DistanceMeters>
          </Trackpoint>
          <Trackpoint>
            <Time>2019-07-26T14:58:28.000Z</Time>
            <Position>
              <LatitudeDegrees>42.90368123911321163177490234375</LatitudeDegrees>
              <LongitudeDegrees>-8.38170401751995086669921875</LongitudeDegrees>
            </Position>
            <AltitudeMeters>294.399993896484375</AltitudeMeters>
            <DistanceMeters>82932.648028118</DistanceMeters>
          </Trackpoint>
          <Trackpoint>
            <Time>2019-07-26T14:58:31.000Z</Time>
            <Position>
              <LatitudeDegrees>42.9036955721676349639892578125</LatitudeDegrees>
              <LongitudeDegrees>-8.3817799575626850128173828125</LongitudeDegrees>
            </Position>
            <AltitudeMeters>293.399993896484375</AltitudeMeters>
            <DistanceMeters>82939.041002855</DistanceMeters>
          </Trackpoint>
          <Trackpoint>
            <Time>2019-07-26T14:58:32.000Z</Time>
            <Position>
              <LatitudeDegrees>42.90369967930018901824951171875</LatitudeDegrees>
              <LongitudeDegrees>-8.38180770166218280792236328125</LongitudeDegrees>
            </Position>
            <AltitudeMeters>293</AltitudeMeters>
            <DistanceMeters>82941.351148993</DistanceMeters>
          </Trackpoint>
          <Trackpoint>
            <Time>2019-07-26T14:58:35.000Z</Time>
            <Position>
              <LatitudeDegrees>42.903713844716548919677734375</LatitudeDegrees>
              <LongitudeDegrees>-8.38189939968287944793701171875</LongitudeDegrees>
            </Position>
            <AltitudeMeters>292.399993896484375</AltitudeMeters>
            <DistanceMeters>82948.99179322</DistanceMeters>
          </Trackpoint>
          <Trackpoint>
            <Time>2019-07-26T14:58:37.000Z</Time>
            <Position>
              <LatitudeDegrees>42.90372448973357677459716796875</LatitudeDegrees>
              <LongitudeDegrees>-8.38195757009088993072509765625</LongitudeDegrees>
            </Position>
            <AltitudeMeters>292.399993896484375</AltitudeMeters>
            <DistanceMeters>82953.879899425</DistanceMeters>
          </Trackpoint>
          <Trackpoint>
            <Time>2019-07-26T14:58:43.000Z</Time>
            <Position>
              <LatitudeDegrees>42.9037700034677982330322265625</LatitudeDegrees>
              <LongitudeDegrees>-8.382200561463832855224609375</LongitudeDegrees>
            </Position>
            <AltitudeMeters>292.399993896484375</AltitudeMeters>
            <DistanceMeters>82974.327873153</DistanceMeters>
          </Trackpoint>
          <Trackpoint>
            <Time>2019-07-26T14:58:47.000Z</Time>
            <Position>
              <LatitudeDegrees>42.903819791972637176513671875</LatitudeDegrees>
              <LongitudeDegrees>-8.3824173174798488616943359375</LongitudeDegrees>
            </Position>
            <AltitudeMeters>293</AltitudeMeters>
            <DistanceMeters>82992.848089773</DistanceMeters>
          </Trackpoint>
          <Trackpoint>
            <Time>2019-07-26T14:58:48.000Z</Time>
            <Position>
              <LatitudeDegrees>42.90384091436862945556640625</LatitudeDegrees>
              <LongitudeDegrees>-8.38248847983777523040771484375</LongitudeDegrees>
            </Position>
            <AltitudeMeters>293</AltitudeMeters>
            <DistanceMeters>82999.106881319</DistanceMeters>
          </Trackpoint>
          <Trackpoint>
            <Time>2019-07-26T14:58:50.000Z</Time>
            <Position>
              <LatitudeDegrees>42.90388676337897777557373046875</LatitudeDegrees>
              <LongitudeDegrees>-8.382646143436431884765625</LongitudeDegrees>
            </Position>
            <AltitudeMeters>293.20001220703125</AltitudeMeters>
            <DistanceMeters>83012.936451778</DistanceMeters>
          </Trackpoint>
          <Trackpoint>
            <Time>2019-07-26T14:58:52.000Z</Time>
            <Position>
              <LatitudeDegrees>42.90393504314124584197998046875</LatitudeDegrees>
              <LongitudeDegrees>-8.38281889446079730987548828125</LongitudeDegrees>
            </Position>
            <AltitudeMeters>293.20001220703125</AltitudeMeters>
            <DistanceMeters>83028.010696158</DistanceMeters>
          </Trackpoint>
          <Trackpoint>
            <Time>2019-07-26T14:58:53.000Z</Time>
            <Position>
              <LatitudeDegrees>42.90395348332822322845458984375</LatitudeDegrees>
              <LongitudeDegrees>-8.38291076011955738067626953125</LongitudeDegrees>
            </Position>
            <AltitudeMeters>293.399993896484375</AltitudeMeters>
            <DistanceMeters>83035.776768562</DistanceMeters>
          </Trackpoint>
          <Trackpoint>
            <Time>2019-07-26T14:58:55.000Z</Time>
            <Position>
              <LatitudeDegrees>42.90399690158665180206298828125</LatitudeDegrees>
              <LongitudeDegrees>-8.38309516198933124542236328125</LongitudeDegrees>
            </Position>
            <AltitudeMeters>293.399993896484375</AltitudeMeters>
            <DistanceMeters>83051.568367311</DistanceMeters>
          </Trackpoint>
          <Trackpoint>
            <Time>2019-07-26T14:58:57.000Z</Time>
            <Position>
              <LatitudeDegrees>42.9040442593395709991455078125</LatitudeDegrees>
              <LongitudeDegrees>-8.3832638897001743316650390625</LongitudeDegrees>
            </Position>
            <AltitudeMeters>293.399993896484375</AltitudeMeters>
            <DistanceMeters>83066.299653647</DistanceMeters>
          </Trackpoint>
          <Trackpoint>
            <Time>2019-07-26T14:58:59.000Z</Time>
            <Position>
              <LatitudeDegrees>42.9040895216166973114013671875</LatitudeDegrees>
              <LongitudeDegrees>-8.3834164403378963470458984375</LongitudeDegrees>
            </Position>
            <AltitudeMeters>293.600006103515625</AltitudeMeters>
            <DistanceMeters>83079.71828712</DistanceMeters>
          </Trackpoint>
          <Trackpoint>
            <Time>2019-07-26T14:59:01.000Z</Time>
            <Position>
              <LatitudeDegrees>42.9041267372667789459228515625</LatitudeDegrees>
              <LongitudeDegrees>-8.38355599902570247650146484375</LongitudeDegrees>
            </Position>
            <AltitudeMeters>294.399993896484375</AltitudeMeters>
            <DistanceMeters>83091.826644612</DistanceMeters>
          </Trackpoint>
          <Trackpoint>
            <Time>2019-07-26T14:59:07.000Z</Time>
            <Position>
              <LatitudeDegrees>42.9042202793061733245849609375</LatitudeDegrees>
              <LongitudeDegrees>-8.3839314244687557220458984375</LongitudeDegrees>
            </Position>
            <AltitudeMeters>295.399993896484375</AltitudeMeters>
            <DistanceMeters>83124.156682478</DistanceMeters>
          </Trackpoint>
          <Trackpoint>
            <Time>2019-07-26T14:59:08.000Z</Time>
            <Position>
              <LatitudeDegrees>42.904239557683467864990234375</LatitudeDegrees>
              <LongitudeDegrees>-8.383988924324512481689453125</LongitudeDegrees>
            </Position>
            <AltitudeMeters>295.399993896484375</AltitudeMeters>
            <DistanceMeters>83129.311826993</DistanceMeters>
          </Trackpoint>
          <Trackpoint>
            <Time>2019-07-26T14:59:09.000Z</Time>
            <Position>
              <LatitudeDegrees>42.90426076389849185943603515625</LatitudeDegrees>
              <LongitudeDegrees>-8.3840574882924556732177734375</LongitudeDegrees>
            </Position>
            <AltitudeMeters>295.399993896484375</AltitudeMeters>
            <DistanceMeters>83135.378670619</DistanceMeters>
          </Trackpoint>
          <Trackpoint>
            <Time>2019-07-26T14:59:11.000Z</Time>
            <Position>
              <LatitudeDegrees>42.9043047688901424407958984375</LatitudeDegrees>
              <LongitudeDegrees>-8.38420274667441844940185546875</LongitudeDegrees>
            </Position>
            <AltitudeMeters>295.600006103515625</AltitudeMeters>
            <DistanceMeters>83148.194248264</DistanceMeters>
          </Trackpoint>
          <Trackpoint>
            <Time>2019-07-26T14:59:16.000Z</Time>
            <Position>
              <LatitudeDegrees>42.90440208278596401214599609375</LatitudeDegrees>
              <LongitudeDegrees>-8.38451505638659000396728515625</LongitudeDegrees>
            </Position>
            <AltitudeMeters>296</AltitudeMeters>
            <DistanceMeters>83175.864160829</DistanceMeters>
          </Trackpoint>
          <Trackpoint>
            <Time>2019-07-26T14:59:20.000Z</Time>
            <Position>
              <LatitudeDegrees>42.90447567589581012725830078125</LatitudeDegrees>
              <LongitudeDegrees>-8.38469468057155609130859375</LongitudeDegrees>
            </Position>
            <AltitudeMeters>296.600006103515625</AltitudeMeters>
            <DistanceMeters>83192.643575403</DistanceMeters>
          </Trackpoint>
          <Trackpoint>
            <Time>2019-07-26T14:59:22.000Z</Time>
            <Position>
              <LatitudeDegrees>42.90452026762068271636962890625</LatitudeDegrees>
              <LongitudeDegrees>-8.38478528894484043121337890625</LongitudeDegrees>
            </Position>
            <AltitudeMeters>296.79998779296875</AltitudeMeters>
            <DistanceMeters>83201.542663582</DistanceMeters>
          </Trackpoint>
          <Trackpoint>
            <Time>2019-07-26T14:59:28.000Z</Time>
            <Position>
              <LatitudeDegrees>42.904643230140209197998046875</LatitudeDegrees>
              <LongitudeDegrees>-8.38505133055150508880615234375</LongitudeDegrees>
            </Position>
            <AltitudeMeters>297.79998779296875</AltitudeMeters>
            <DistanceMeters>83227.189315765</DistanceMeters>
          </Trackpoint>
          <Trackpoint>
            <Time>2019-07-26T14:59:32.000Z</Time>
            <Position>
              <LatitudeDegrees>42.90471942164003849029541015625</LatitudeDegrees>
              <LongitudeDegrees>-8.385215699672698974609375</LongitudeDegrees>
            </Position>
            <AltitudeMeters>298.79998779296875</AltitudeMeters>
            <DistanceMeters>83243.047677249</DistanceMeters>
          </Trackpoint>
          <Trackpoint>
            <Time>2019-07-26T14:59:34.000Z</Time>
            <Position>
              <LatitudeDegrees>42.9047483392059803009033203125</LatitudeDegrees>
              <LongitudeDegrees>-8.38530211709439754486083984375</LongitudeDegrees>
            </Position>
            <AltitudeMeters>299.20001220703125</AltitudeMeters>
            <DistanceMeters>83250.793374628</DistanceMeters>
          </Trackpoint>
          <Trackpoint>
            <Time>2019-07-26T14:59:37.000Z</Time>
            <Position>
              <LatitudeDegrees>42.9048107005655765533447265625</LatitudeDegrees>
              <LongitudeDegrees>-8.3854565955698490142822265625</LongitudeDegrees>
            </Position>
            <AltitudeMeters>300</AltitudeMeters>
            <DistanceMeters>83265.173525899</DistanceMeters>
          </Trackpoint>
          <Trackpoint>
            <Time>2019-07-26T14:59:40.000Z</Time>
            <Position>
              <LatitudeDegrees>42.90485688485205173492431640625</LatitudeDegrees>
              <LongitudeDegrees>-8.38562599383294582366943359375</LongitudeDegrees>
            </Position>
            <AltitudeMeters>300.399993896484375</AltitudeMeters>
            <DistanceMeters>83279.909715309</DistanceMeters>
          </Trackpoint>
          <Trackpoint>
            <Time>2019-07-26T14:59:42.000Z</Time>
            <Position>
              <LatitudeDegrees>42.9048814438283443450927734375</LatitudeDegrees>
              <LongitudeDegrees>-8.385765217244625091552734375</LongitudeDegrees>
            </Position>
            <AltitudeMeters>300.20001220703125</AltitudeMeters>
            <DistanceMeters>83291.584473287</DistanceMeters>
          </Trackpoint>
          <Trackpoint>
            <Time>2019-07-26T14:59:44.000Z</Time>
            <Position>
              <LatitudeDegrees>42.90489410050213336944580078125</LatitudeDegrees>
              <LongitudeDegrees>-8.38591852225363254547119140625</LongitudeDegrees>
            </Position>
            <AltitudeMeters>300.20001220703125</AltitudeMeters>
            <DistanceMeters>83304.161789342</DistanceMeters>
          </Trackpoint>
          <Trackpoint>
            <Time>2019-07-26T14:59:45.000Z</Time>
            <Position>
              <LatitudeDegrees>42.90488387458026409149169921875</LatitudeDegrees>
              <LongitudeDegrees>-8.38599245063960552215576171875</LongitudeDegrees>
            </Position>
            <AltitudeMeters>300.20001220703125</AltitudeMeters>
            <DistanceMeters>83310.295246643</DistanceMeters>
          </Trackpoint>
          <Trackpoint>
            <Time>2019-07-26T14:59:47.000Z</Time>
            <Position>
              <LatitudeDegrees>42.90481078438460826873779296875</LatitudeDegrees>
              <LongitudeDegrees>-8.38613812811672687530517578125</LongitudeDegrees>
            </Position>
            <AltitudeMeters>300.20001220703125</AltitudeMeters>
            <DistanceMeters>83324.69077457</DistanceMeters>
          </Trackpoint>
          <Trackpoint>
            <Time>2019-07-26T14:59:48.000Z</Time>
            <Position>
              <LatitudeDegrees>42.904767952859401702880859375</LatitudeDegrees>
              <LongitudeDegrees>-8.38620635680854320526123046875</LongitudeDegrees>
            </Position>
            <AltitudeMeters>300.20001220703125</AltitudeMeters>
            <DistanceMeters>83332.01584892</DistanceMeters>
          </Trackpoint>
          <Trackpoint>
            <Time>2019-07-26T14:59:50.000Z</Time>
            <Position>
              <LatitudeDegrees>42.9046598263084888458251953125</LatitudeDegrees>
              <LongitudeDegrees>-8.38631817139685153961181640625</LongitudeDegrees>
            </Position>
            <AltitudeMeters>300.20001220703125</AltitudeMeters>
            <DistanceMeters>83347.113437787</DistanceMeters>
          </Trackpoint>
          <Trackpoint>
            <Time>2019-07-26T14:59:52.000Z</Time>
            <Position>
              <LatitudeDegrees>42.90454055182635784149169921875</LatitudeDegrees>
              <LongitudeDegrees>-8.38643920607864856719970703125</LongitudeDegrees>
            </Position>
            <AltitudeMeters>300.20001220703125</AltitudeMeters>
            <DistanceMeters>83363.654638356</DistanceMeters>
          </Trackpoint>
          <Trackpoint>
            <Time>2019-07-26T14:59:53.000Z</Time>
            <Position>
              <LatitudeDegrees>42.90447165258228778839111328125</LatitudeDegrees>
              <LongitudeDegrees>-8.386497795581817626953125</LongitudeDegrees>
            </Position>
            <AltitudeMeters>300</AltitudeMeters>
            <DistanceMeters>83372.689675215</DistanceMeters>
          </Trackpoint>
          <Trackpoint>
            <Time>2019-07-26T14:59:55.000Z</Time>
            <Position>
              <LatitudeDegrees>42.90432195179164409637451171875</LatitudeDegrees>
              <LongitudeDegrees>-8.38659795932471752166748046875</LongitudeDegrees>
            </Position>
            <AltitudeMeters>299.600006103515625</AltitudeMeters>
            <DistanceMeters>83391.245450996</DistanceMeters>
          </Trackpoint>
          <Trackpoint>
            <Time>2019-07-26T14:59:56.000Z</Time>
            <Position>
              <LatitudeDegrees>42.90423662401735782623291015625</LatitudeDegrees>
              <LongitudeDegrees>-8.3866448141634464263916015625</LongitudeDegrees>
            </Position>
            <AltitudeMeters>299.399993896484375</AltitudeMeters>
            <DistanceMeters>83401.481905805</DistanceMeters>
          </Trackpoint>
          <Trackpoint>
            <Time>2019-07-26T14:59:58.000Z</Time>
            <Position>
              <LatitudeDegrees>42.904051803052425384521484375</LatitudeDegrees>
              <LongitudeDegrees>-8.3867202512919902801513671875</LongitudeDegrees>
            </Position>
            <AltitudeMeters>297.600006103515625</AltitudeMeters>
            <DistanceMeters>83422.952686707</DistanceMeters>
          </Trackpoint>
          <Trackpoint>
            <Time>2019-07-26T14:59:59.000Z</Time>
            <Position>
              <LatitudeDegrees>42.90395264513790607452392578125</LatitudeDegrees>
              <LongitudeDegrees>-8.38675470091402530670166015625</LongitudeDegrees>
            </Position>
            <AltitudeMeters>296.600006103515625</AltitudeMeters>
            <DistanceMeters>83434.341233057</DistanceMeters>
          </Trackpoint>
          <Trackpoint>
            <Time>2019-07-26T15:00:00.000Z</Time>
            <Position>
              <LatitudeDegrees>42.903850972652435302734375</LatitudeDegrees>
              <LongitudeDegrees>-8.3867914974689483642578125</LongitudeDegrees>
            </Position>
            <AltitudeMeters>295.600006103515625</AltitudeMeters>
            <DistanceMeters>83446.048046038</DistanceMeters>
          </Trackpoint>
          <Trackpoint>
            <Time>2019-07-26T15:00:01.000Z</Time>
            <Position>
              <LatitudeDegrees>42.90375030599534511566162109375</LatitudeDegrees>
              <LongitudeDegrees>-8.38683952577412128448486328125</LongitudeDegrees>
            </Position>
            <AltitudeMeters>294.79998779296875</AltitudeMeters>
            <DistanceMeters>83457.916878859</DistanceMeters>
          </Trackpoint>
          <Trackpoint>
            <Time>2019-07-26T15:00:02.000Z</Time>
            <Position>
              <LatitudeDegrees>42.903647460043430328369140625</LatitudeDegrees>
              <LongitudeDegrees>-8.38689065538346767425537109375</LongitudeDegrees>
            </Position>
            <AltitudeMeters>294.20001220703125</AltitudeMeters>
            <DistanceMeters>83470.098844065</DistanceMeters>
          </Trackpoint>
          <Trackpoint>
            <Time>2019-07-26T15:00:04.000Z</Time>
            <Position>
              <LatitudeDegrees>42.90346515364944934844970703125</LatitudeDegrees>
              <LongitudeDegrees>-8.38698369450867176055908203125</LongitudeDegrees>
            </Position>
            <AltitudeMeters>293</AltitudeMeters>
            <DistanceMeters>83491.761183562</DistanceMeters>
          </Trackpoint>
          <Trackpoint>
            <Time>2019-07-26T15:00:05.000Z</Time>
            <Position>
              <LatitudeDegrees>42.90338736958801746368408203125</LatitudeDegrees>
              <LongitudeDegrees>-8.38702443055808544158935546875</LongitudeDegrees>
            </Position>
            <AltitudeMeters>292.399993896484375</AltitudeMeters>
            <DistanceMeters>83501.033473345</DistanceMeters>
          </Trackpoint>
          <Trackpoint>
            <Time>2019-07-26T15:00:06.000Z</Time>
            <Position>
              <LatitudeDegrees>42.90332190692424774169921875</LatitudeDegrees>
              <LongitudeDegrees>-8.387073464691638946533203125</LongitudeDegrees>
            </Position>
            <AltitudeMeters>291.399993896484375</AltitudeMeters>
            <DistanceMeters>83509.344373099</DistanceMeters>
          </Trackpoint>
          <Trackpoint>
            <Time>2019-07-26T15:00:08.000Z</Time>
            <Position>
              <LatitudeDegrees>42.903277985751628875732421875</LatitudeDegrees>
              <LongitudeDegrees>-8.38724336586892604827880859375</LongitudeDegrees>
            </Position>
            <AltitudeMeters>289.600006103515625</AltitudeMeters>
            <DistanceMeters>83524.033302487</DistanceMeters>
          </Trackpoint>
          <Trackpoint>
            <Time>2019-07-26T15:00:10.000Z</Time>
            <Position>
              <LatitudeDegrees>42.90331612341105937957763671875</LatitudeDegrees>
              <LongitudeDegrees>-8.3874236606061458587646484375</LongitudeDegrees>
            </Position>
            <AltitudeMeters>288.399993896484375</AltitudeMeters>
            <DistanceMeters>83539.332898611</DistanceMeters>
          </Trackpoint>
          <Trackpoint>
            <Time>2019-07-26T15:00:11.000Z</Time>
            <Position>
              <LatitudeDegrees>42.90334470570087432861328125</LatitudeDegrees>
              <LongitudeDegrees>-8.38750940747559070587158203125</LongitudeDegrees>
            </Position>
            <AltitudeMeters>287.399993896484375</AltitudeMeters>
            <DistanceMeters>83547.013032681</DistanceMeters>
          </Trackpoint>
          <Trackpoint>
            <Time>2019-07-26T15:00:13.000Z</Time>
            <Position>
              <LatitudeDegrees>42.90339726023375988006591796875</LatitudeDegrees>
              <LongitudeDegrees>-8.3876793086528778076171875</LongitudeDegrees>
            </Position>
            <AltitudeMeters>285.399993896484375</AltitudeMeters>
            <DistanceMeters>83562.049490177</DistanceMeters>
          </Trackpoint>
          <Trackpoint>
            <Time>2019-07-26T15:00:15.000Z</Time>
            <Position>
              <LatitudeDegrees>42.9034473001956939697265625</LatitudeDegrees>
              <LongitudeDegrees>-8.38785205967724323272705078125</LongitudeDegrees>
            </Position>
            <AltitudeMeters>284.20001220703125</AltitudeMeters>
            <DistanceMeters>83577.194852563</DistanceMeters>
          </Trackpoint>
          <Trackpoint>
            <Time>2019-07-26T15:00:19.000Z</Time>
            <Position>
              <LatitudeDegrees>42.9035460390150547027587890625</LatitudeDegrees>
              <LongitudeDegrees>-8.3882129006087779998779296875</LongitudeDegrees>
            </Position>
            <AltitudeMeters>283.20001220703125</AltitudeMeters>
            <DistanceMeters>83608.599420528</DistanceMeters>
          </Trackpoint>
          <Trackpoint>
            <Time>2019-07-26T15:00:20.000Z</Time>
            <Position>
              <LatitudeDegrees>42.90357361547648906707763671875</LatitudeDegrees>
              <LongitudeDegrees>-8.38830359280109405517578125</LongitudeDegrees>
            </Position>
            <AltitudeMeters>283.20001220703125</AltitudeMeters>
            <DistanceMeters>83616.605385966</DistanceMeters>
          </Trackpoint>
          <Trackpoint>
            <Time>2019-07-26T15:00:25.000Z</Time>
            <Position>
              <LatitudeDegrees>42.9037208855152130126953125</LatitudeDegrees>
              <LongitudeDegrees>-8.38877960108220577239990234375</LongitudeDegrees>
            </Position>
            <AltitudeMeters>281.79998779296875</AltitudeMeters>
            <DistanceMeters>83658.733419677</DistanceMeters>
          </Trackpoint>
          <Trackpoint>
            <Time>2019-07-26T15:00:26.000Z</Time>
            <Position>
              <LatitudeDegrees>42.90375617332756519317626953125</LatitudeDegrees>
              <LongitudeDegrees>-8.3888801001012325286865234375</LongitudeDegrees>
            </Position>
            <AltitudeMeters>281.600006103515625</AltitudeMeters>
            <DistanceMeters>83667.819782477</DistanceMeters>
          </Trackpoint>
          <Trackpoint>
            <Time>2019-07-26T15:00:28.000Z</Time>
            <Position>
              <LatitudeDegrees>42.9038373939692974090576171875</LatitudeDegrees>
              <LongitudeDegrees>-8.3890802599489688873291015625</LongitudeDegrees>
            </Position>
            <AltitudeMeters>281.399993896484375</AltitudeMeters>
            <DistanceMeters>83686.47529577</DistanceMeters>
          </Trackpoint>
          <Trackpoint>
            <Time>2019-07-26T15:00:30.000Z</Time>
            <Position>
              <LatitudeDegrees>42.903946526348590850830078125</LatitudeDegrees>
              <LongitudeDegrees>-8.38926407508552074432373046875</LongitudeDegrees>
            </Position>
            <AltitudeMeters>280.600006103515625</AltitudeMeters>
            <DistanceMeters>83705.765718787</DistanceMeters>
          </Trackpoint>
          <Trackpoint>
            <Time>2019-07-26T15:00:32.000Z</Time>
            <Position>
              <LatitudeDegrees>42.90408172644674777984619140625</LatitudeDegrees>
              <LongitudeDegrees>-8.38943414390087127685546875</LongitudeDegrees>
            </Position>
            <AltitudeMeters>279.399993896484375</AltitudeMeters>
            <DistanceMeters>83726.227819228</DistanceMeters>
          </Trackpoint>
          <Trackpoint>
            <Time>2019-07-26T15:00:33.000Z</Time>
            <Position>
              <LatitudeDegrees>42.9041565768420696258544921875</LatitudeDegrees>
              <LongitudeDegrees>-8.38951486162841320037841796875</LongitudeDegrees>
            </Position>
            <AltitudeMeters>279</AltitudeMeters>
            <DistanceMeters>83736.84447662</DistanceMeters>
          </Trackpoint>
          <Trackpoint>
            <Time>2019-07-26T15:00:34.000Z</Time>
            <Position>
              <LatitudeDegrees>42.90422958321869373321533203125</LatitudeDegrees>
              <LongitudeDegrees>-8.38959951885044574737548828125</LongitudeDegrees>
            </Position>
            <AltitudeMeters>278.399993896484375</AltitudeMeters>
            <DistanceMeters>83747.506118251</DistanceMeters>
          </Trackpoint>
          <Trackpoint>
            <Time>2019-07-26T15:00:35.000Z</Time>
            <Position>
              <LatitudeDegrees>42.904294542968273162841796875</LatitudeDegrees>
              <LongitudeDegrees>-8.389691971242427825927734375</LongitudeDegrees>
            </Position>
            <AltitudeMeters>278.20001220703125</AltitudeMeters>
            <DistanceMeters>83757.950846755</DistanceMeters>
          </Trackpoint>
          <Trackpoint>
            <Time>2019-07-26T15:00:37.000Z</Time>
            <Position>
              <LatitudeDegrees>42.9043922759592533111572265625</LatitudeDegrees>
              <LongitudeDegrees>-8.38990093208849430084228515625</LongitudeDegrees>
            </Position>
            <AltitudeMeters>277.79998779296875</AltitudeMeters>
            <DistanceMeters>83778.163634258</DistanceMeters>
          </Trackpoint>
          <Trackpoint>
            <Time>2019-07-26T15:00:40.000Z</Time>
            <Position>
              <LatitudeDegrees>42.90444415993988513946533203125</LatitudeDegrees>
              <LongitudeDegrees>-8.39025196619331836700439453125</LongitudeDegrees>
            </Position>
            <AltitudeMeters>277.20001220703125</AltitudeMeters>
            <DistanceMeters>83807.359268107</DistanceMeters>
          </Trackpoint>
          <Trackpoint>
            <Time>2019-07-26T15:00:41.000Z</Time>
            <Position>
              <LatitudeDegrees>42.90444533340632915496826171875</LatitudeDegrees>
              <LongitudeDegrees>-8.3903690613806247711181640625</LongitudeDegrees>
            </Position>
            <AltitudeMeters>276.79998779296875</AltitudeMeters>
            <DistanceMeters>83816.906024705</DistanceMeters>
          </Trackpoint>
          <Trackpoint>
            <Time>2019-07-26T15:00:43.000Z</Time>
            <Position>
              <LatitudeDegrees>42.90444097481667995452880859375</LatitudeDegrees>
              <LongitudeDegrees>-8.39059998281300067901611328125</LongitudeDegrees>
            </Position>
            <AltitudeMeters>275.600006103515625</AltitudeMeters>
            <DistanceMeters>83835.739063296</DistanceMeters>
          </Trackpoint>
          <Trackpoint>
            <Time>2019-07-26T15:00:44.000Z</Time>
            <Position>
              <LatitudeDegrees>42.90444432757794857025146484375</LatitudeDegrees>
              <LongitudeDegrees>-8.3907086960971355438232421875</LongitudeDegrees>
            </Position>
            <AltitudeMeters>275</AltitudeMeters>
            <DistanceMeters>83844.610202806</DistanceMeters>
          </Trackpoint>
          <Trackpoint>
            <Time>2019-07-26T15:00:45.000Z</Time>
            <Position>
              <LatitudeDegrees>42.9044579900801181793212890625</LatitudeDegrees>
              <LongitudeDegrees>-8.3908129669725894927978515625</LongitudeDegrees>
            </Position>
            <AltitudeMeters>274.399993896484375</AltitudeMeters>
            <DistanceMeters>83853.246139429</DistanceMeters>
          </Trackpoint>
          <Trackpoint>
            <Time>2019-07-26T15:00:47.000Z</Time>
            <Position>
              <LatitudeDegrees>42.90451859124004840850830078125</LatitudeDegrees>
              <LongitudeDegrees>-8.3910044096410274505615234375</LongitudeDegrees>
            </Position>
            <AltitudeMeters>272.600006103515625</AltitudeMeters>
            <DistanceMeters>83870.249018519</DistanceMeters>
          </Trackpoint>
          <Trackpoint>
            <Time>2019-07-26T15:00:48.000Z</Time>
            <Position>
              <LatitudeDegrees>42.9045589081943035125732421875</LatitudeDegrees>
              <LongitudeDegrees>-8.39107892476022243499755859375</LongitudeDegrees>
            </Position>
            <AltitudeMeters>272</AltitudeMeters>
            <DistanceMeters>83877.802297474</DistanceMeters>
          </Trackpoint>
          <Trackpoint>
            <Time>2019-07-26T15:00:49.000Z</Time>
            <Position>
              <LatitudeDegrees>42.904591262340545654296875</LatitudeDegrees>
              <LongitudeDegrees>-8.391147069633007049560546875</LongitudeDegrees>
            </Position>
            <AltitudeMeters>271.399993896484375</AltitudeMeters>
            <DistanceMeters>83884.422870792</DistanceMeters>
          </Trackpoint>
          <Trackpoint>
            <Time>2019-07-26T15:00:50.000Z</Time>
            <Position>
              <LatitudeDegrees>42.90460777468979358673095703125</LatitudeDegrees>
              <LongitudeDegrees>-8.3912112750113010406494140625</LongitudeDegrees>
            </Position>
            <AltitudeMeters>271</AltitudeMeters>
            <DistanceMeters>83889.970347743</DistanceMeters>
          </Trackpoint>
          <Trackpoint>
            <Time>2019-07-26T15:00:51.000Z</Time>
            <Position>
              <LatitudeDegrees>42.90460576303303241729736328125</LatitudeDegrees>
              <LongitudeDegrees>-8.39127422310411930084228515625</LongitudeDegrees>
            </Position>
            <AltitudeMeters>270.20001220703125</AltitudeMeters>
            <DistanceMeters>83895.107945766</DistanceMeters>
          </Trackpoint>
          <Trackpoint>
            <Time>2019-07-26T15:00:53.000Z</Time>
            <Position>
              <LatitudeDegrees>42.90455840528011322021484375</LatitudeDegrees>
              <LongitudeDegrees>-8.39137530885636806488037109375</LongitudeDegrees>
            </Position>
            <AltitudeMeters>269.20001220703125</AltitudeMeters>
            <DistanceMeters>83904.890621788</DistanceMeters>
          </Trackpoint>
          <Trackpoint>
            <Time>2019-07-26T15:00:54.000Z</Time>
            <Position>
              <LatitudeDegrees>42.90452881716191768646240234375</LatitudeDegrees>
              <LongitudeDegrees>-8.3914104290306568145751953125</LongitudeDegrees>
            </Position>
            <AltitudeMeters>268.79998779296875</AltitudeMeters>
            <DistanceMeters>83909.254614366</DistanceMeters>
          </Trackpoint>
          <Trackpoint>
            <Time>2019-07-26T15:00:55.000Z</Time>
            <Position>
              <LatitudeDegrees>42.90450233034789562225341796875</LatitudeDegrees>
              <LongitudeDegrees>-8.39144219644367694854736328125</LongitudeDegrees>
            </Position>
            <AltitudeMeters>266.600006103515625</AltitudeMeters>
            <DistanceMeters>83913.179574291</DistanceMeters>
          </Trackpoint>
          <Trackpoint>
            <Time>2019-07-26T15:00:56.000Z</Time>
            <Position>
              <LatitudeDegrees>42.90447886101901531219482421875</LatitudeDegrees>
              <LongitudeDegrees>-8.39146851561963558197021484375</LongitudeDegrees>
            </Position>
            <AltitudeMeters>265.20001220703125</AltitudeMeters>
            <DistanceMeters>83916.560709719</DistanceMeters>
          </Trackpoint>
          <Trackpoint>
            <Time>2019-07-26T15:00:57.000Z</Time>
            <Position>
              <LatitudeDegrees>42.9044566489756107330322265625</LatitudeDegrees>
              <LongitudeDegrees>-8.39148594997823238372802734375</LongitudeDegrees>
            </Position>
            <AltitudeMeters>264</AltitudeMeters>
            <DistanceMeters>83919.413094489</DistanceMeters>
          </Trackpoint>
          <Trackpoint>
            <Time>2019-07-26T15:00:58.000Z</Time>
            <Position>
              <LatitudeDegrees>42.90443778969347476959228515625</LatitudeDegrees>
              <LongitudeDegrees>-8.391483016312122344970703125</LongitudeDegrees>
            </Position>
            <AltitudeMeters>263</AltitudeMeters>
            <DistanceMeters>83921.525168768</DistanceMeters>
          </Trackpoint>
          <Trackpoint>
            <Time>2019-07-26T15:00:59.000Z</Time>
            <Position>
              <LatitudeDegrees>42.90443376637995243072509765625</LatitudeDegrees>
              <LongitudeDegrees>-8.39146583341062068939208984375</LongitudeDegrees>
            </Position>
            <AltitudeMeters>262.399993896484375</AltitudeMeters>
            <DistanceMeters>83922.997316297</DistanceMeters>
          </Trackpoint>
          <Trackpoint>
            <Time>2019-07-26T15:01:01.000Z</Time>
            <Position>
              <LatitudeDegrees>42.9044630192220211029052734375</LatitudeDegrees>
              <LongitudeDegrees>-8.39140950702130794525146484375</LongitudeDegrees>
            </Position>
            <AltitudeMeters>262</AltitudeMeters>
            <DistanceMeters>83928.625593846</DistanceMeters>
          </Trackpoint>
          <Trackpoint>
            <Time>2019-07-26T15:01:02.000Z</Time>
            <Position>
              <LatitudeDegrees>42.904491014778614044189453125</LatitudeDegrees>
              <LongitudeDegrees>-8.391380421817302703857421875</LongitudeDegrees>
            </Position>
            <AltitudeMeters>261.79998779296875</AltitudeMeters>
            <DistanceMeters>83932.541340237</DistanceMeters>
          </Trackpoint>
          <Trackpoint>
            <Time>2019-07-26T15:01:04.000Z</Time>
            <Position>
              <LatitudeDegrees>42.9045589081943035125732421875</LatitudeDegrees>
              <LongitudeDegrees>-8.39131328277289867401123046875</LongitudeDegrees>
            </Position>
            <AltitudeMeters>261.600006103515625</AltitudeMeters>
            <DistanceMeters>83941.871879718</DistanceMeters>
          </Trackpoint>
          <Trackpoint>
            <Time>2019-07-26T15:01:07.000Z</Time>
            <Position>
              <LatitudeDegrees>42.90466896258294582366943359375</LatitudeDegrees>
              <LongitudeDegrees>-8.39120574295520782470703125</LongitudeDegrees>
            </Position>
            <AltitudeMeters>261.600006103515625</AltitudeMeters>
            <DistanceMeters>83956.935337517</DistanceMeters>
          </Trackpoint>
          <Trackpoint>
            <Time>2019-07-26T15:01:08.000Z</Time>
            <Position>
              <LatitudeDegrees>42.90471288375556468963623046875</LatitudeDegrees>
              <LongitudeDegrees>-8.39117732830345630645751953125</LongitudeDegrees>
            </Position>
            <AltitudeMeters>261.600006103515625</AltitudeMeters>
            <DistanceMeters>83962.344352925</DistanceMeters>
          </Trackpoint>
          <Trackpoint>
            <Time>2019-07-26T15:01:09.000Z</Time>
            <Position>
              <LatitudeDegrees>42.9047563858330249786376953125</LatitudeDegrees>
              <LongitudeDegrees>-8.3911562897264957427978515625</LongitudeDegrees>
            </Position>
            <AltitudeMeters>261.399993896484375</AltitudeMeters>
            <DistanceMeters>83967.48107205</DistanceMeters>
          </Trackpoint>
          <Trackpoint>
            <Time>2019-07-26T15:01:11.000Z</Time>
            <Position>
              <LatitudeDegrees>42.90484414435923099517822265625</LatitudeDegrees>
              <LongitudeDegrees>-8.391158469021320343017578125</LongitudeDegrees>
            </Position>
            <AltitudeMeters>261.399993896484375</AltitudeMeters>
            <DistanceMeters>83977.250816571</DistanceMeters>
          </Trackpoint>
          <Trackpoint>
            <Time>2019-07-26T15:01:13.000Z</Time>
            <Position>
              <LatitudeDegrees>42.90494573302567005157470703125</LatitudeDegrees>
              <LongitudeDegrees>-8.391215801239013671875</LongitudeDegrees>
            </Position>
            <AltitudeMeters>261.399993896484375</AltitudeMeters>
            <DistanceMeters>83989.486036524</DistanceMeters>
          </Trackpoint>
          <Trackpoint>
            <Time>2019-07-26T15:01:15.000Z</Time>
            <Position>
              <LatitudeDegrees>42.9050420410931110382080078125</LatitudeDegrees>
              <LongitudeDegrees>-8.39129366911947727203369140625</LongitudeDegrees>
            </Position>
            <AltitudeMeters>261.399993896484375</AltitudeMeters>
            <DistanceMeters>84001.944325087</DistanceMeters>
          </Trackpoint>
          <Trackpoint>
            <Time>2019-07-26T15:01:16.000Z</Time>
            <Position>
              <LatitudeDegrees>42.905092500150203704833984375</LatitudeDegrees>
              <LongitudeDegrees>-8.39134245179593563079833984375</LongitudeDegrees>
            </Position>
            <AltitudeMeters>261.399993896484375</AltitudeMeters>
            <DistanceMeters>84008.827041195</DistanceMeters>
          </Trackpoint>
          <Trackpoint>
            <Time>2019-07-26T15:01:21.000Z</Time>
            <Position>
              <LatitudeDegrees>42.90534420870244503021240234375</LatitudeDegrees>
              <LongitudeDegrees>-8.39160363189876079559326171875</LongitudeDegrees>
            </Position>
            <AltitudeMeters>261.20001220703125</AltitudeMeters>
            <DistanceMeters>84044.016191833</DistanceMeters>
          </Trackpoint>
          <Trackpoint>
            <Time>2019-07-26T15:01:22.000Z</Time>
            <Position>
              <LatitudeDegrees>42.90538427419960498809814453125</LatitudeDegrees>
              <LongitudeDegrees>-8.3916709385812282562255859375</LongitudeDegrees>
            </Position>
            <AltitudeMeters>261</AltitudeMeters>
            <DistanceMeters>84051.087865139</DistanceMeters>
          </Trackpoint>
          <Trackpoint>
            <Time>2019-07-26T15:01:24.000Z</Time>
            <Position>
              <LatitudeDegrees>42.90545032359659671783447265625</LatitudeDegrees>
              <LongitudeDegrees>-8.39182265102863311767578125</LongitudeDegrees>
            </Position>
            <AltitudeMeters>260.399993896484375</AltitudeMeters>
            <DistanceMeters>84065.476177498</DistanceMeters>
          </Trackpoint>
          <Trackpoint>
            <Time>2019-07-26T15:01:28.000Z</Time>
            <Position>
              <LatitudeDegrees>42.905561886727809906005859375</LatitudeDegrees>
              <LongitudeDegrees>-8.39214141480624675750732421875</LongitudeDegrees>
            </Position>
            <AltitudeMeters>259.79998779296875</AltitudeMeters>
            <DistanceMeters>84094.277895198</DistanceMeters>
          </Trackpoint>
          <Trackpoint>
            <Time>2019-07-26T15:01:33.000Z</Time>
            <Position>
              <LatitudeDegrees>42.9057132638990879058837890625</LatitudeDegrees>
              <LongitudeDegrees>-8.39253880083560943603515625</LongitudeDegrees>
            </Position>
            <AltitudeMeters>259.79998779296875</AltitudeMeters>
            <DistanceMeters>84130.794375427</DistanceMeters>
          </Trackpoint>
          <Trackpoint>
            <Time>2019-07-26T15:01:35.000Z</Time>
            <Position>
              <LatitudeDegrees>42.90576581843197345733642578125</LatitudeDegrees>
              <LongitudeDegrees>-8.39268623851239681243896484375</LongitudeDegrees>
            </Position>
            <AltitudeMeters>259.79998779296875</AltitudeMeters>
            <DistanceMeters>84144.162104582</DistanceMeters>
          </Trackpoint>
          <Trackpoint>
            <Time>2019-07-26T15:01:41.000Z</Time>
            <Position>
              <LatitudeDegrees>42.90589842014014720916748046875</LatitudeDegrees>
              <LongitudeDegrees>-8.3931236900389194488525390625</LongitudeDegrees>
            </Position>
            <AltitudeMeters>260</AltitudeMeters>
            <DistanceMeters>84182.758863139</DistanceMeters>
          </Trackpoint>
          <Trackpoint>
            <Time>2019-07-26T15:01:45.000Z</Time>
            <Position>
              <LatitudeDegrees>42.9059766232967376708984375</LatitudeDegrees>
              <LongitudeDegrees>-8.39341429062187671661376953125</LongitudeDegrees>
            </Position>
            <AltitudeMeters>260</AltitudeMeters>
            <DistanceMeters>84207.998430742</DistanceMeters>
          </Trackpoint>
          <Trackpoint>
            <Time>2019-07-26T15:01:47.000Z</Time>
            <Position>
              <LatitudeDegrees>42.905974276363849639892578125</LatitudeDegrees>
              <LongitudeDegrees>-8.39354462921619415283203125</LongitudeDegrees>
            </Position>
            <AltitudeMeters>260</AltitudeMeters>
            <DistanceMeters>84218.626989267</DistanceMeters>
          </Trackpoint>
          <Trackpoint>
            <Time>2019-07-26T15:01:49.000Z</Time>
            <Position>
              <LatitudeDegrees>42.90594234131276607513427734375</LatitudeDegrees>
              <LongitudeDegrees>-8.3936604671180248260498046875</LongitudeDegrees>
            </Position>
            <AltitudeMeters>260</AltitudeMeters>
            <DistanceMeters>84228.71773463</DistanceMeters>
          </Trackpoint>
          <Trackpoint>
            <Time>2019-07-26T15:01:51.000Z</Time>
            <Position>
              <LatitudeDegrees>42.90591451339423656463623046875</LatitudeDegrees>
              <LongitudeDegrees>-8.39379751123487949371337890625</LongitudeDegrees>
            </Position>
            <AltitudeMeters>260</AltitudeMeters>
            <DistanceMeters>84240.311772665</DistanceMeters>
          </Trackpoint>
          <Trackpoint>
            <Time>2019-07-26T15:01:53.000Z</Time>
            <Position>
              <LatitudeDegrees>42.9059060476720333099365234375</LatitudeDegrees>
              <LongitudeDegrees>-8.39393782429397106170654296875</LongitudeDegrees>
            </Position>
            <AltitudeMeters>260</AltitudeMeters>
            <DistanceMeters>84251.789567977</DistanceMeters>
          </Trackpoint>
          <Trackpoint>
            <Time>2019-07-26T15:01:55.000Z</Time>
            <Position>
              <LatitudeDegrees>42.90594913065433502197265625</LatitudeDegrees>
              <LongitudeDegrees>-8.39400839991867542266845703125</LongitudeDegrees>
            </Position>
            <AltitudeMeters>260</AltitudeMeters>
            <DistanceMeters>84259.279216492</DistanceMeters>
          </Trackpoint>
          <Trackpoint>
            <Time>2019-07-26T15:01:58.000Z</Time>
            <Position>
              <LatitudeDegrees>42.90598358027637004852294921875</LatitudeDegrees>
              <LongitudeDegrees>-8.39410931803286075592041015625</LongitudeDegrees>
            </Position>
            <AltitudeMeters>260</AltitudeMeters>
            <DistanceMeters>84268.35613323</DistanceMeters>
          </Trackpoint>
          <Trackpoint>
            <Time>2019-07-26T15:02:00.000Z</Time>
            <Position>
              <LatitudeDegrees>42.90599380619823932647705078125</LatitudeDegrees>
              <LongitudeDegrees>-8.3941781334578990936279296875</LongitudeDegrees>
            </Position>
            <AltitudeMeters>260.20001220703125</AltitudeMeters>
            <DistanceMeters>84274.079866045</DistanceMeters>
          </Trackpoint>
          <Trackpoint>
            <Time>2019-07-26T15:02:03.000Z</Time>
            <Position>
              <LatitudeDegrees>42.90599196217954158782958984375</LatitudeDegrees>
              <LongitudeDegrees>-8.394277207553386688232421875</LongitudeDegrees>
            </Position>
            <AltitudeMeters>260.20001220703125</AltitudeMeters>
            <DistanceMeters>84282.15937238</DistanceMeters>
          </Trackpoint>
          <Trackpoint>
            <Time>2019-07-26T15:02:05.000Z</Time>
            <Position>
              <LatitudeDegrees>42.9059808142483234405517578125</LatitudeDegrees>
              <LongitudeDegrees>-8.39435038156807422637939453125</LongitudeDegrees>
            </Position>
            <AltitudeMeters>260.20001220703125</AltitudeMeters>
            <DistanceMeters>84288.252948862</DistanceMeters>
          </Trackpoint>
          <Trackpoint>
            <Time>2019-07-26T15:02:11.000Z</Time>
            <Position>
              <LatitudeDegrees>42.90593169629573822021484375</LatitudeDegrees>
              <LongitudeDegrees>-8.39455322362482547760009765625</LongitudeDegrees>
            </Position>
            <AltitudeMeters>261.79998779296875</AltitudeMeters>
            <DistanceMeters>84305.670078018</DistanceMeters>
          </Trackpoint>
          <Trackpoint>
            <Time>2019-07-26T15:02:12.000Z</Time>
            <Position>
              <LatitudeDegrees>42.90592691861093044281005859375</LatitudeDegrees>
              <LongitudeDegrees>-8.39458532631397247314453125</LongitudeDegrees>
            </Position>
            <AltitudeMeters>262.20001220703125</AltitudeMeters>
            <DistanceMeters>84308.340988049</DistanceMeters>
          </Trackpoint>
          <Trackpoint>
            <Time>2019-07-26T15:02:15.000Z</Time>
            <Position>
              <LatitudeDegrees>42.90590261109173297882080078125</LatitudeDegrees>
              <LongitudeDegrees>-8.39466285891830921173095703125</LongitudeDegrees>
            </Position>
            <AltitudeMeters>263</AltitudeMeters>
            <DistanceMeters>84315.215827691</DistanceMeters>
          </Trackpoint>
          <Trackpoint>
            <Time>2019-07-26T15:02:18.000Z</Time>
            <Position>
              <LatitudeDegrees>42.9058708436787128448486328125</LatitudeDegrees>
              <LongitudeDegrees>-8.39475673623383045196533203125</LongitudeDegrees>
            </Position>
            <AltitudeMeters>263.600006103515625</AltitudeMeters>
            <DistanceMeters>84323.645934548</DistanceMeters>
          </Trackpoint>
          <Trackpoint>
            <Time>2019-07-26T15:02:21.000Z</Time>
            <Position>
              <LatitudeDegrees>42.9058483801782131195068359375</LatitudeDegrees>
              <LongitudeDegrees>-8.39485899545252323150634765625</LongitudeDegrees>
            </Position>
            <AltitudeMeters>264</AltitudeMeters>
            <DistanceMeters>84332.350091104</DistanceMeters>
          </Trackpoint>
          <Trackpoint>
            <Time>2019-07-26T15:02:24.000Z</Time>
            <Position>
              <LatitudeDegrees>42.90582633577287197113037109375</LatitudeDegrees>
              <LongitudeDegrees>-8.39496645145118236541748046875</LongitudeDegrees>
            </Position>
            <AltitudeMeters>264.399993896484375</AltitudeMeters>
            <DistanceMeters>84341.447875488</DistanceMeters>
          </Trackpoint>
          <Trackpoint>
            <Time>2019-07-26T15:02:28.000Z</Time>
            <Position>
              <LatitudeDegrees>42.905816026031970977783203125</LatitudeDegrees>
              <LongitudeDegrees>-8.3951273001730442047119140625</LongitudeDegrees>
            </Position>
            <AltitudeMeters>264.79998779296875</AltitudeMeters>
            <DistanceMeters>84354.611390857</DistanceMeters>
          </Trackpoint>
          <Trackpoint>
            <Time>2019-07-26T15:02:30.000Z</Time>
            <Position>
              <LatitudeDegrees>42.90578945539891719818115234375</LatitudeDegrees>
              <LongitudeDegrees>-8.3951923437416553497314453125</LongitudeDegrees>
            </Position>
            <AltitudeMeters>265</AltitudeMeters>
            <DistanceMeters>84360.682698134</DistanceMeters>
          </Trackpoint>
          <Trackpoint>
            <Time>2019-07-26T15:02:31.000Z</Time>
            <Position>
              <LatitudeDegrees>42.90577688254415988922119140625</LatitudeDegrees>
              <LongitudeDegrees>-8.39522511698305606842041015625</LongitudeDegrees>
            </Position>
            <AltitudeMeters>265</AltitudeMeters>
            <DistanceMeters>84363.699702783</DistanceMeters>
          </Trackpoint>
          <Trackpoint>
            <Time>2019-07-26T15:02:36.000Z</Time>
            <Position>
              <LatitudeDegrees>42.9057749547064304351806640625</LatitudeDegrees>
              <LongitudeDegrees>-8.39542410336434841156005859375</LongitudeDegrees>
            </Position>
            <AltitudeMeters>265.399993896484375</AltitudeMeters>
            <DistanceMeters>84379.923966352</DistanceMeters>
          </Trackpoint>
          <Trackpoint>
            <Time>2019-07-26T15:02:42.000Z</Time>
            <Position>
              <LatitudeDegrees>42.9057223163545131683349609375</LatitudeDegrees>
              <LongitudeDegrees>-8.3956734649837017059326171875</LongitudeDegrees>
            </Position>
            <AltitudeMeters>266.20001220703125</AltitudeMeters>
            <DistanceMeters>84401.08080589</DistanceMeters>
          </Trackpoint>
          <Trackpoint>
            <Time>2019-07-26T15:02:49.000Z</Time>
            <Position>
              <LatitudeDegrees>42.9056944884359836578369140625</LatitudeDegrees>
              <LongitudeDegrees>-8.3958756364881992340087890625</LongitudeDegrees>
            </Position>
            <AltitudeMeters>267</AltitudeMeters>
            <DistanceMeters>84417.851338408</DistanceMeters>
          </Trackpoint>
          <Trackpoint>
            <Time>2019-07-26T15:02:50.000Z</Time>
            <Position>
              <LatitudeDegrees>42.90569021366536617279052734375</LatitudeDegrees>
              <LongitudeDegrees>-8.39593104086816310882568359375</LongitudeDegrees>
            </Position>
            <AltitudeMeters>267.20001220703125</AltitudeMeters>
            <DistanceMeters>84422.392780315</DistanceMeters>
          </Trackpoint>
          <Trackpoint>
            <Time>2019-07-26T15:02:55.000Z</Time>
            <Position>
              <LatitudeDegrees>42.90567495860159397125244140625</LatitudeDegrees>
              <LongitudeDegrees>-8.396174870431423187255859375</LongitudeDegrees>
            </Position>
            <AltitudeMeters>268.399993896484375</AltitudeMeters>
            <DistanceMeters>84442.343638431</DistanceMeters>
          </Trackpoint>
          <Trackpoint>
            <Time>2019-07-26T15:03:00.000Z</Time>
            <Position>
              <LatitudeDegrees>42.90567554533481597900390625</LatitudeDegrees>
              <LongitudeDegrees>-8.39640294201672077178955078125</LongitudeDegrees>
            </Position>
            <AltitudeMeters>269.399993896484375</AltitudeMeters>
            <DistanceMeters>84460.93733378</DistanceMeters>
          </Trackpoint>
          <Trackpoint>
            <Time>2019-07-26T15:03:01.000Z</Time>
            <Position>
              <LatitudeDegrees>42.90567152202129364013671875</LatitudeDegrees>
              <LongitudeDegrees>-8.39644300751388072967529296875</LongitudeDegrees>
            </Position>
            <AltitudeMeters>269.600006103515625</AltitudeMeters>
            <DistanceMeters>84464.234637533</DistanceMeters>
          </Trackpoint>
          <Trackpoint>
            <Time>2019-07-26T15:03:06.000Z</Time>
            <Position>
              <LatitudeDegrees>42.9056371562182903289794921875</LatitudeDegrees>
              <LongitudeDegrees>-8.39666613377630710601806640625</LongitudeDegrees>
            </Position>
            <AltitudeMeters>270.600006103515625</AltitudeMeters>
            <DistanceMeters>84482.82323283</DistanceMeters>
          </Trackpoint>
          <Trackpoint>
            <Time>2019-07-26T15:03:07.000Z</Time>
            <Position>
              <LatitudeDegrees>42.90562667883932590484619140625</LatitudeDegrees>
              <LongitudeDegrees>-8.39670686982572078704833984375</LongitudeDegrees>
            </Position>
            <AltitudeMeters>270.79998779296875</AltitudeMeters>
            <DistanceMeters>84486.344354095</DistanceMeters>
          </Trackpoint>
          <Trackpoint>
            <Time>2019-07-26T15:03:13.000Z</Time>
            <Position>
              <LatitudeDegrees>42.90559214539825916290283203125</LatitudeDegrees>
              <LongitudeDegrees>-8.3969302475452423095703125</LongitudeDegrees>
            </Position>
            <AltitudeMeters>271.79998779296875</AltitudeMeters>
            <DistanceMeters>84504.956980258</DistanceMeters>
          </Trackpoint>
          <Trackpoint>
            <Time>2019-07-26T15:03:18.000Z</Time>
            <Position>
              <LatitudeDegrees>42.905568592250347137451171875</LatitudeDegrees>
              <LongitudeDegrees>-8.3970890007913112640380859375</LongitudeDegrees>
            </Position>
            <AltitudeMeters>273</AltitudeMeters>
            <DistanceMeters>84518.162274886</DistanceMeters>
          </Trackpoint>
          <Trackpoint>
            <Time>2019-07-26T15:03:20.000Z</Time>
            <Position>
              <LatitudeDegrees>42.9055768065154552459716796875</LatitudeDegrees>
              <LongitudeDegrees>-8.39715681038796901702880859375</LongitudeDegrees>
            </Position>
            <AltitudeMeters>273.20001220703125</AltitudeMeters>
            <DistanceMeters>84523.765628863</DistanceMeters>
          </Trackpoint>
          <Trackpoint>
            <Time>2019-07-26T15:03:24.000Z</Time>
            <Position>
              <LatitudeDegrees>42.905576638877391815185546875</LatitudeDegrees>
              <LongitudeDegrees>-8.39725655503571033477783203125</LongitudeDegrees>
            </Position>
            <AltitudeMeters>274.20001220703125</AltitudeMeters>
            <DistanceMeters>84531.898050389</DistanceMeters>
          </Trackpoint>
          <Trackpoint>
            <Time>2019-07-26T15:03:27.000Z</Time>
            <Position>
              <LatitudeDegrees>42.905565239489078521728515625</LatitudeDegrees>
              <LongitudeDegrees>-8.3973344229161739349365234375</LongitudeDegrees>
            </Position>
            <AltitudeMeters>275</AltitudeMeters>
            <DistanceMeters>84538.371734408</DistanceMeters>
          </Trackpoint>
          <Trackpoint>
            <Time>2019-07-26T15:03:29.000Z</Time>
            <Position>
              <LatitudeDegrees>42.90555593557655811309814453125</LatitudeDegrees>
              <LongitudeDegrees>-8.39738152921199798583984375</LongitudeDegrees>
            </Position>
            <AltitudeMeters>275.399993896484375</AltitudeMeters>
            <DistanceMeters>84542.349258001</DistanceMeters>
          </Trackpoint>
          <Trackpoint>
            <Time>2019-07-26T15:03:33.000Z</Time>
            <Position>
              <LatitudeDegrees>42.9055509902536869049072265625</LatitudeDegrees>
              <LongitudeDegrees>-8.39746199548244476318359375</LongitudeDegrees>
            </Position>
            <AltitudeMeters>276.600006103515625</AltitudeMeters>
            <DistanceMeters>84548.932901895</DistanceMeters>
          </Trackpoint>
          <Trackpoint>
            <Time>2019-07-26T15:03:35.000Z</Time>
            <Position>
              <LatitudeDegrees>42.90555861778557300567626953125</LatitudeDegrees>
              <LongitudeDegrees>-8.397510610520839691162109375</LongitudeDegrees>
            </Position>
            <AltitudeMeters>277</AltitudeMeters>
            <DistanceMeters>84552.984652008</DistanceMeters>
          </Trackpoint>
          <Trackpoint>
            <Time>2019-07-26T15:03:38.000Z</Time>
            <Position>
              <LatitudeDegrees>42.90555845014750957489013671875</LatitudeDegrees>
              <LongitudeDegrees>-8.39759183116257190704345703125</LongitudeDegrees>
            </Position>
            <AltitudeMeters>277.79998779296875</AltitudeMeters>
            <DistanceMeters>84559.606589127</DistanceMeters>
          </Trackpoint>
          <Trackpoint>
            <Time>2019-07-26T15:03:41.000Z</Time>
            <Position>
              <LatitudeDegrees>42.9055503197014331817626953125</LatitudeDegrees>
              <LongitudeDegrees>-8.397650085389614105224609375</LongitudeDegrees>
            </Position>
            <AltitudeMeters>279</AltitudeMeters>
            <DistanceMeters>84564.442692723</DistanceMeters>
          </Trackpoint>
          <Trackpoint>
            <Time>2019-07-26T15:03:42.000Z</Time>
            <Position>
              <LatitudeDegrees>42.90554705075919628143310546875</LatitudeDegrees>
              <LongitudeDegrees>-8.397668190300464630126953125</LongitudeDegrees>
            </Position>
            <AltitudeMeters>279.20001220703125</AltitudeMeters>
            <DistanceMeters>84565.966086844</DistanceMeters>
          </Trackpoint>
          <Trackpoint>
            <Time>2019-07-26T15:03:45.000Z</Time>
            <Position>
              <LatitudeDegrees>42.9055573605000972747802734375</LatitudeDegrees>
              <LongitudeDegrees>-8.397729881107807159423828125</LongitudeDegrees>
            </Position>
            <AltitudeMeters>280.20001220703125</AltitudeMeters>
            <DistanceMeters>84571.125608658</DistanceMeters>
          </Trackpoint>
          <Trackpoint>
            <Time>2019-07-26T15:03:49.000Z</Time>
            <Position>
              <LatitudeDegrees>42.9055664129555225372314453125</LatitudeDegrees>
              <LongitudeDegrees>-8.397782854735851287841796875</LongitudeDegrees>
            </Position>
            <AltitudeMeters>281.399993896484375</AltitudeMeters>
            <DistanceMeters>84575.561432885</DistanceMeters>
          </Trackpoint>
          <Trackpoint>
            <Time>2019-07-26T15:03:50.000Z</Time>
            <Position>
              <LatitudeDegrees>42.90557001717388629913330078125</LatitudeDegrees>
              <LongitudeDegrees>-8.39779165573418140411376953125</LongitudeDegrees>
            </Position>
            <AltitudeMeters>281.79998779296875</AltitudeMeters>
            <DistanceMeters>84576.384388372</DistanceMeters>
          </Trackpoint>
          <Trackpoint>
            <Time>2019-07-26T15:03:51.000Z</Time>
            <Position>
              <LatitudeDegrees>42.90558041073381900787353515625</LatitudeDegrees>
              <LongitudeDegrees>-8.39780674315989017486572265625</LongitudeDegrees>
            </Position>
            <AltitudeMeters>282</AltitudeMeters>
            <DistanceMeters>84578.073620196</DistanceMeters>
          </Trackpoint>
          <Trackpoint>
            <Time>2019-07-26T15:03:53.000Z</Time>
            <Position>
              <LatitudeDegrees>42.90558795444667339324951171875</LatitudeDegrees>
              <LongitudeDegrees>-8.39783624745905399322509765625</LongitudeDegrees>
            </Position>
            <AltitudeMeters>282.600006103515625</AltitudeMeters>
            <DistanceMeters>84580.621683179</DistanceMeters>
          </Trackpoint>
          <Trackpoint>
            <Time>2019-07-26T15:03:56.000Z</Time>
            <Position>
              <LatitudeDegrees>42.90561209432780742645263671875</LatitudeDegrees>
              <LongitudeDegrees>-8.39787907898426055908203125</LongitudeDegrees>
            </Position>
            <AltitudeMeters>283.399993896484375</AltitudeMeters>
            <DistanceMeters>84585.027890659</DistanceMeters>
          </Trackpoint>
          <Trackpoint>
            <Time>2019-07-26T15:03:57.000Z</Time>
            <Position>
              <LatitudeDegrees>42.9056230746209621429443359375</LatitudeDegrees>
              <LongitudeDegrees>-8.39789173565804958343505859375</LongitudeDegrees>
            </Position>
            <AltitudeMeters>283.79998779296875</AltitudeMeters>
            <DistanceMeters>84586.629309314</DistanceMeters>
          </Trackpoint>
          <Trackpoint>
            <Time>2019-07-26T15:04:02.000Z</Time>
            <Position>
              <LatitudeDegrees>42.90567210875451564788818359375</LatitudeDegrees>
              <LongitudeDegrees>-8.39793951250612735748291015625</LongitudeDegrees>
            </Position>
            <AltitudeMeters>284.79998779296875</AltitudeMeters>
            <DistanceMeters>84593.333913742</DistanceMeters>
          </Trackpoint>
          <Trackpoint>
            <Time>2019-07-26T15:04:04.000Z</Time>
            <Position>
              <LatitudeDegrees>42.90569323115050792694091796875</LatitudeDegrees>
              <LongitudeDegrees>-8.3979439549148082733154296875</LongitudeDegrees>
            </Position>
            <AltitudeMeters>285.20001220703125</AltitudeMeters>
            <DistanceMeters>84595.709581601</DistanceMeters>
          </Trackpoint>
          <Trackpoint>
            <Time>2019-07-26T15:04:09.000Z</Time>
            <Position>
              <LatitudeDegrees>42.905752658843994140625</LatitudeDegrees>
              <LongitudeDegrees>-8.39797756634652614593505859375</LongitudeDegrees>
            </Position>
            <AltitudeMeters>286</AltitudeMeters>
            <DistanceMeters>84602.868821358</DistanceMeters>
          </Trackpoint>
          <Trackpoint>
            <Time>2019-07-26T15:04:10.000Z</Time>
            <Position>
              <LatitudeDegrees>42.90575978346168994903564453125</LatitudeDegrees>
              <LongitudeDegrees>-8.39799047447741031646728515625</LongitudeDegrees>
            </Position>
            <AltitudeMeters>286.20001220703125</AltitudeMeters>
            <DistanceMeters>84604.188974665</DistanceMeters>
          </Trackpoint>
          <Trackpoint>
            <Time>2019-07-26T15:04:11.000Z</Time>
            <Position>
              <LatitudeDegrees>42.90576481260359287261962890625</LatitudeDegrees>
              <LongitudeDegrees>-8.3980111777782440185546875</LongitudeDegrees>
            </Position>
            <AltitudeMeters>286.20001220703125</AltitudeMeters>
            <DistanceMeters>84605.966761704</DistanceMeters>
          </Trackpoint>
          <Trackpoint>
            <Time>2019-07-26T15:04:15.000Z</Time>
            <Position>
              <LatitudeDegrees>42.9057880304753780364990234375</LatitudeDegrees>
              <LongitudeDegrees>-8.39807781390845775604248046875</LongitudeDegrees>
            </Position>
            <AltitudeMeters>286.79998779296875</AltitudeMeters>
            <DistanceMeters>84611.982785839</DistanceMeters>
          </Trackpoint>
          <Trackpoint>
            <Time>2019-07-26T15:04:16.000Z</Time>
            <Position>
              <LatitudeDegrees>42.90580035187304019927978515625</LatitudeDegrees>
              <LongitudeDegrees>-8.39809239841997623443603515625</LongitudeDegrees>
            </Position>
            <AltitudeMeters>287.20001220703125</AltitudeMeters>
            <DistanceMeters>84613.800753929</DistanceMeters>
          </Trackpoint>
          <Trackpoint>
            <Time>2019-07-26T15:04:17.000Z</Time>
            <Position>
              <LatitudeDegrees>42.9058101586997509002685546875</LatitudeDegrees>
              <LongitudeDegrees>-8.39810580946505069732666015625</LongitudeDegrees>
            </Position>
            <AltitudeMeters>287.399993896484375</AltitudeMeters>
            <DistanceMeters>84615.350592738</DistanceMeters>
          </Trackpoint>
          <Trackpoint>
            <Time>2019-07-26T15:04:21.000Z</Time>
            <Position>
              <LatitudeDegrees>42.905862629413604736328125</LatitudeDegrees>
              <LongitudeDegrees>-8.39819398708641529083251953125</LongitudeDegrees>
            </Position>
            <AltitudeMeters>288.20001220703125</AltitudeMeters>
            <DistanceMeters>84624.61265116</DistanceMeters>
          </Trackpoint>
          <Trackpoint>
            <Time>2019-07-26T15:04:23.000Z</Time>
            <Position>
              <LatitudeDegrees>42.905893810093402862548828125</LatitudeDegrees>
              <LongitudeDegrees>-8.3982373215258121490478515625</LongitudeDegrees>
            </Position>
            <AltitudeMeters>288.399993896484375</AltitudeMeters>
            <DistanceMeters>84629.564992791</DistanceMeters>
          </Trackpoint>
          <Trackpoint>
            <Time>2019-07-26T15:04:27.000Z</Time>
            <Position>
              <LatitudeDegrees>42.90593479759991168975830078125</LatitudeDegrees>
              <LongitudeDegrees>-8.3983251638710498809814453125</LongitudeDegrees>
            </Position>
            <AltitudeMeters>289.20001220703125</AltitudeMeters>
            <DistanceMeters>84638.055936809</DistanceMeters>
          </Trackpoint>
          <Trackpoint>
            <Time>2019-07-26T15:04:29.000Z</Time>
            <Position>
              <LatitudeDegrees>42.90595876984298229217529296875</LatitudeDegrees>
              <LongitudeDegrees>-8.39838056825101375579833984375</LongitudeDegrees>
            </Position>
            <AltitudeMeters>289.79998779296875</AltitudeMeters>
            <DistanceMeters>84643.302237697</DistanceMeters>
          </Trackpoint>
          <Trackpoint>
            <Time>2019-07-26T15:04:31.000Z</Time>
            <Position>
              <LatitudeDegrees>42.905974276363849639892578125</LatitudeDegrees>
              <LongitudeDegrees>-8.3984197117388248443603515625</LongitudeDegrees>
            </Position>
            <AltitudeMeters>290.20001220703125</AltitudeMeters>
            <DistanceMeters>84646.930715539</DistanceMeters>
          </Trackpoint>
          <Trackpoint>
            <Time>2019-07-26T15:04:35.000Z</Time>
            <Position>
              <LatitudeDegrees>42.90600704960525035858154296875</LatitudeDegrees>
              <LongitudeDegrees>-8.398511409759521484375</LongitudeDegrees>
            </Position>
            <AltitudeMeters>291.399993896484375</AltitudeMeters>
            <DistanceMeters>84655.248674767</DistanceMeters>
          </Trackpoint>
          <Trackpoint>
            <Time>2019-07-26T15:04:37.000Z</Time>
            <Position>
              <LatitudeDegrees>42.90602800436317920684814453125</LatitudeDegrees>
              <LongitudeDegrees>-8.3985548280179500579833984375</LongitudeDegrees>
            </Position>
            <AltitudeMeters>292</AltitudeMeters>
            <DistanceMeters>84659.487761004</DistanceMeters>
          </Trackpoint>
          <Trackpoint>
            <Time>2019-07-26T15:04:39.000Z</Time>
            <Position>
              <LatitudeDegrees>42.9060448519885540008544921875</LatitudeDegrees>
              <LongitudeDegrees>-8.39859162457287311553955078125</LongitudeDegrees>
            </Position>
            <AltitudeMeters>292.20001220703125</AltitudeMeters>
            <DistanceMeters>84663.025512543</DistanceMeters>
          </Trackpoint>
          <Trackpoint>
            <Time>2019-07-26T15:04:42.000Z</Time>
            <Position>
              <LatitudeDegrees>42.9060649685561656951904296875</LatitudeDegrees>
              <LongitudeDegrees>-8.39864359237253665924072265625</LongitudeDegrees>
            </Position>
            <AltitudeMeters>293.20001220703125</AltitudeMeters>
            <DistanceMeters>84667.818477645</DistanceMeters>
          </Trackpoint>
          <Trackpoint>
            <Time>2019-07-26T15:04:43.000Z</Time>
            <Position>
              <LatitudeDegrees>42.9060710035264492034912109375</LatitudeDegrees>
              <LongitudeDegrees>-8.3986634574830532073974609375</LongitudeDegrees>
            </Position>
            <AltitudeMeters>293.399993896484375</AltitudeMeters>
            <DistanceMeters>84669.570683681</DistanceMeters>
          </Trackpoint>
          <Trackpoint>
            <Time>2019-07-26T15:04:44.000Z</Time>
            <Position>
              <LatitudeDegrees>42.90608416311442852020263671875</LatitudeDegrees>
              <LongitudeDegrees>-8.39869103394448757171630859375</LongitudeDegrees>
            </Position>
            <AltitudeMeters>293.399993896484375</AltitudeMeters>
            <DistanceMeters>84672.255083242</DistanceMeters>
          </Trackpoint>
          <Trackpoint>
            <Time>2019-07-26T15:04:48.000Z</Time>
            <Position>
              <LatitudeDegrees>42.9061162658035755157470703125</LatitudeDegrees>
              <LongitudeDegrees>-8.39876898564398288726806640625</LongitudeDegrees>
            </Position>
            <AltitudeMeters>294.20001220703125</AltitudeMeters>
            <DistanceMeters>84679.545558531</DistanceMeters>
          </Trackpoint>
          <Trackpoint>
            <Time>2019-07-26T15:04:49.000Z</Time>
            <Position>
              <LatitudeDegrees>42.906121127307415008544921875</LatitudeDegrees>
              <LongitudeDegrees>-8.3987915329635143280029296875</LongitudeDegrees>
            </Position>
            <AltitudeMeters>294.20001220703125</AltitudeMeters>
            <DistanceMeters>84681.460293771</DistanceMeters>
          </Trackpoint>
          <Trackpoint>
            <Time>2019-07-26T15:04:55.000Z</Time>
            <Position>
              <LatitudeDegrees>42.90615909732878208160400390625</LatitudeDegrees>
              <LongitudeDegrees>-8.3989112265408039093017578125</LongitudeDegrees>
            </Position>
            <AltitudeMeters>295.399993896484375</AltitudeMeters>
            <DistanceMeters>84692.093948704</DistanceMeters>
          </Trackpoint>
          <Trackpoint>
            <Time>2019-07-26T15:04:56.000Z</Time>
            <Position>
              <LatitudeDegrees>42.906166054308414459228515625</LatitudeDegrees>
              <LongitudeDegrees>-8.39893318712711334228515625</LongitudeDegrees>
            </Position>
            <AltitudeMeters>295.399993896484375</AltitudeMeters>
            <DistanceMeters>84694.046048153</DistanceMeters>
          </Trackpoint>
          <Trackpoint>
            <Time>2019-07-26T15:05:02.000Z</Time>
            <Position>
              <LatitudeDegrees>42.9061967320740222930908203125</LatitudeDegrees>
              <LongitudeDegrees>-8.399058245122432708740234375</LongitudeDegrees>
            </Position>
            <AltitudeMeters>296.20001220703125</AltitudeMeters>
            <DistanceMeters>84704.797933505</DistanceMeters>
          </Trackpoint>
          <Trackpoint>
            <Time>2019-07-26T15:05:06.000Z</Time>
            <Position>
              <LatitudeDegrees>42.9062218777835369110107421875</LatitudeDegrees>
              <LongitudeDegrees>-8.39915606193244457244873046875</LongitudeDegrees>
            </Position>
            <AltitudeMeters>296.600006103515625</AltitudeMeters>
            <DistanceMeters>84713.249436607</DistanceMeters>
          </Trackpoint>
          <Trackpoint>
            <Time>2019-07-26T15:05:09.000Z</Time>
            <Position>
              <LatitudeDegrees>42.90625196881592273712158203125</LatitudeDegrees>
              <LongitudeDegrees>-8.3992208540439605712890625</LongitudeDegrees>
            </Position>
            <AltitudeMeters>296.600006103515625</AltitudeMeters>
            <DistanceMeters>84719.503898306</DistanceMeters>
          </Trackpoint>
          <Trackpoint>
            <Time>2019-07-26T15:05:13.000Z</Time>
            <Position>
              <LatitudeDegrees>42.9062989912927150726318359375</LatitudeDegrees>
              <LongitudeDegrees>-8.399317748844623565673828125</LongitudeDegrees>
            </Position>
            <AltitudeMeters>296.79998779296875</AltitudeMeters>
            <DistanceMeters>84728.979924908</DistanceMeters>
          </Trackpoint>
          <Trackpoint>
            <Time>2019-07-26T15:05:16.000Z</Time>
            <Position>
              <LatitudeDegrees>42.90632170625030994415283203125</LatitudeDegrees>
              <LongitudeDegrees>-8.3993883244693279266357421875</LongitudeDegrees>
            </Position>
            <AltitudeMeters>297</AltitudeMeters>
            <DistanceMeters>84735.264632886</DistanceMeters>
          </Trackpoint>
          <Trackpoint>
            <Time>2019-07-26T15:05:20.000Z</Time>
            <Position>
              <LatitudeDegrees>42.90635682642459869384765625</LatitudeDegrees>
              <LongitudeDegrees>-8.3994942717254161834716796875</LongitudeDegrees>
            </Position>
            <AltitudeMeters>297.399993896484375</AltitudeMeters>
            <DistanceMeters>84744.745422986</DistanceMeters>
          </Trackpoint>
          <Trackpoint>
            <Time>2019-07-26T15:05:21.000Z</Time>
            <Position>
              <LatitudeDegrees>42.90636177174746990203857421875</LatitudeDegrees>
              <LongitudeDegrees>-8.39951899833977222442626953125</LongitudeDegrees>
            </Position>
            <AltitudeMeters>297.399993896484375</AltitudeMeters>
            <DistanceMeters>84746.836010702</DistanceMeters>
          </Trackpoint>
          <Trackpoint>
            <Time>2019-07-26T15:05:22.000Z</Time>
            <Position>
              <LatitudeDegrees>42.906363196671009063720703125</LatitudeDegrees>
              <LongitudeDegrees>-8.39954204857349395751953125</LongitudeDegrees>
            </Position>
            <AltitudeMeters>297.600006103515625</AltitudeMeters>
            <DistanceMeters>84748.722237125</DistanceMeters>
          </Trackpoint>
          <Trackpoint>
            <Time>2019-07-26T15:05:27.000Z</Time>
            <Position>
              <LatitudeDegrees>42.9063559882342815399169921875</LatitudeDegrees>
              <LongitudeDegrees>-8.399684540927410125732421875</LongitudeDegrees>
            </Position>
            <AltitudeMeters>298.399993896484375</AltitudeMeters>
            <DistanceMeters>84760.366790697</DistanceMeters>
          </Trackpoint>
          <Trackpoint>
            <Time>2019-07-26T15:05:28.000Z</Time>
            <Position>
              <LatitudeDegrees>42.90635657496750354766845703125</LatitudeDegrees>
              <LongitudeDegrees>-8.39970893226563930511474609375</LongitudeDegrees>
            </Position>
            <AltitudeMeters>298.600006103515625</AltitudeMeters>
            <DistanceMeters>84762.355552493</DistanceMeters>
          </Trackpoint>
          <Trackpoint>
            <Time>2019-07-26T15:05:35.000Z</Time>
            <Position>
              <LatitudeDegrees>42.9063271544873714447021484375</LatitudeDegrees>
              <LongitudeDegrees>-8.399864919483661651611328125</LongitudeDegrees>
            </Position>
            <AltitudeMeters>299.20001220703125</AltitudeMeters>
            <DistanceMeters>84775.487130455</DistanceMeters>
          </Trackpoint>
          <Trackpoint>
            <Time>2019-07-26T15:05:38.000Z</Time>
            <Position>
              <LatitudeDegrees>42.90631282143294811248779296875</LatitudeDegrees>
              <LongitudeDegrees>-8.39993172325193881988525390625</LongitudeDegrees>
            </Position>
            <AltitudeMeters>299.399993896484375</AltitudeMeters>
            <DistanceMeters>84781.161745209</DistanceMeters>
          </Trackpoint>
          <Trackpoint>
            <Time>2019-07-26T15:05:41.000Z</Time>
            <Position>
              <LatitudeDegrees>42.9062862507998943328857421875</LatitudeDegrees>
              <LongitudeDegrees>-8.40000514872372150421142578125</LongitudeDegrees>
            </Position>
            <AltitudeMeters>299.600006103515625</AltitudeMeters>
            <DistanceMeters>84787.838005938</DistanceMeters>
          </Trackpoint>
          <Trackpoint>
            <Time>2019-07-26T15:05:46.000Z</Time>
            <Position>
              <LatitudeDegrees>42.90625599212944507598876953125</LatitudeDegrees>
              <LongitudeDegrees>-8.40009466744959354400634765625</LongitudeDegrees>
            </Position>
            <AltitudeMeters>300</AltitudeMeters>
            <DistanceMeters>84795.875491047</DistanceMeters>
          </Trackpoint>
          <Trackpoint>
            <Time>2019-07-26T15:05:51.000Z</Time>
            <Position>
              <LatitudeDegrees>42.9062342830002307891845703125</LatitudeDegrees>
              <LongitudeDegrees>-8.40025559999048709869384765625</LongitudeDegrees>
            </Position>
            <AltitudeMeters>300.399993896484375</AltitudeMeters>
            <DistanceMeters>84809.21651075</DistanceMeters>
          </Trackpoint>
          <Trackpoint>
            <Time>2019-07-26T15:05:52.000Z</Time>
            <Position>
              <LatitudeDegrees>42.90623746812343597412109375</LatitudeDegrees>
              <LongitudeDegrees>-8.4002882055938243865966796875</LongitudeDegrees>
            </Position>
            <AltitudeMeters>300.399993896484375</AltitudeMeters>
            <DistanceMeters>84811.897544291</DistanceMeters>
          </Trackpoint>
          <Trackpoint>
            <Time>2019-07-26T15:05:56.000Z</Time>
            <Position>
              <LatitudeDegrees>42.9062582552433013916015625</LatitudeDegrees>
              <LongitudeDegrees>-8.4004474617540836334228515625</LongitudeDegrees>
            </Position>
            <AltitudeMeters>300.79998779296875</AltitudeMeters>
            <DistanceMeters>84825.08538992</DistanceMeters>
          </Trackpoint>
          <Trackpoint>
            <Time>2019-07-26T15:05:58.000Z</Time>
            <Position>
              <LatitudeDegrees>42.90625431574881076812744140625</LatitudeDegrees>
              <LongitudeDegrees>-8.4005329571664333343505859375</LongitudeDegrees>
            </Position>
            <AltitudeMeters>301</AltitudeMeters>
            <DistanceMeters>84832.069691814</DistanceMeters>
          </Trackpoint>
          <Trackpoint>
            <Time>2019-07-26T15:06:02.000Z</Time>
            <Position>
              <LatitudeDegrees>42.9062262363731861114501953125</LatitudeDegrees>
              <LongitudeDegrees>-8.40069648809731006622314453125</LongitudeDegrees>
            </Position>
            <AltitudeMeters>301.600006103515625</AltitudeMeters>
            <DistanceMeters>84845.762774275</DistanceMeters>
          </Trackpoint>
          <Trackpoint>
            <Time>2019-07-26T15:06:05.000Z</Time>
            <Position>
              <LatitudeDegrees>42.9062072932720184326171875</LatitudeDegrees>
              <LongitudeDegrees>-8.40080930851399898529052734375</LongitudeDegrees>
            </Position>
            <AltitudeMeters>301.79998779296875</AltitudeMeters>
            <DistanceMeters>84855.198692552</DistanceMeters>
          </Trackpoint>
          <Trackpoint>
            <Time>2019-07-26T15:06:11.000Z</Time>
            <Position>
              <LatitudeDegrees>42.9061497934162616729736328125</LatitudeDegrees>
              <LongitudeDegrees>-8.40102572925388813018798828125</LongitudeDegrees>
            </Position>
            <AltitudeMeters>302.600006103515625</AltitudeMeters>
            <DistanceMeters>84873.967370771</DistanceMeters>
          </Trackpoint>
          <Trackpoint>
            <Time>2019-07-26T15:06:12.000Z</Time>
            <Position>
              <LatitudeDegrees>42.906140573322772979736328125</LatitudeDegrees>
              <LongitudeDegrees>-8.4010603465139865875244140625</LongitudeDegrees>
            </Position>
            <AltitudeMeters>302.79998779296875</AltitudeMeters>
            <DistanceMeters>84876.97087645</DistanceMeters>
          </Trackpoint>
          <Trackpoint>
            <Time>2019-07-26T15:06:17.000Z</Time>
            <Position>
              <LatitudeDegrees>42.90609271265566349029541015625</LatitudeDegrees>
              <LongitudeDegrees>-8.40125069953501224517822265625</LongitudeDegrees>
            </Position>
            <AltitudeMeters>303.600006103515625</AltitudeMeters>
            <DistanceMeters>84893.37860844</DistanceMeters>
          </Trackpoint>
          <Trackpoint>
            <Time>2019-07-26T15:06:18.000Z</Time>
            <Position>
              <LatitudeDegrees>42.906083576381206512451171875</LatitudeDegrees>
              <LongitudeDegrees>-8.4013047628104686737060546875</LongitudeDegrees>
            </Position>
            <AltitudeMeters>303.600006103515625</AltitudeMeters>
            <DistanceMeters>84897.9021196</DistanceMeters>
          </Trackpoint>
          <Trackpoint>
            <Time>2019-07-26T15:06:23.000Z</Time>
            <Position>
              <LatitudeDegrees>42.90605717338621616363525390625</LatitudeDegrees>
              <LongitudeDegrees>-8.40156443417072296142578125</LongitudeDegrees>
            </Position>
            <AltitudeMeters>304</AltitudeMeters>
            <DistanceMeters>84919.274893098</DistanceMeters>
          </Trackpoint>
          <Trackpoint>
            <Time>2019-07-26T15:06:28.000Z</Time>
            <Position>
              <LatitudeDegrees>42.90610444732010364532470703125</LatitudeDegrees>
              <LongitudeDegrees>-8.40179787017405033111572265625</LongitudeDegrees>
            </Position>
            <AltitudeMeters>304.20001220703125</AltitudeMeters>
            <DistanceMeters>84939.01988032</DistanceMeters>
          </Trackpoint>
          <Trackpoint>
            <Time>2019-07-26T15:06:33.000Z</Time>
            <Position>
              <LatitudeDegrees>42.90617368184030055999755859375</LatitudeDegrees>
              <LongitudeDegrees>-8.40196651406586170196533203125</LongitudeDegrees>
            </Position>
            <AltitudeMeters>304.600006103515625</AltitudeMeters>
            <DistanceMeters>84954.780856587</DistanceMeters>
          </Trackpoint>
          <Trackpoint>
            <Time>2019-07-26T15:06:34.000Z</Time>
            <Position>
              <LatitudeDegrees>42.90618239901959896087646484375</LatitudeDegrees>
              <LongitudeDegrees>-8.40200431644916534423828125</LongitudeDegrees>
            </Position>
            <AltitudeMeters>304.600006103515625</AltitudeMeters>
            <DistanceMeters>84958.011764876</DistanceMeters>
          </Trackpoint>
          <Trackpoint>
            <Time>2019-07-26T15:06:35.000Z</Time>
            <Position>
              <LatitudeDegrees>42.90618248283863067626953125</LatitudeDegrees>
              <LongitudeDegrees>-8.40204589068889617919921875</LongitudeDegrees>
            </Position>
            <AltitudeMeters>304.79998779296875</AltitudeMeters>
            <DistanceMeters>84961.400903002</DistanceMeters>
          </Trackpoint>
          <Trackpoint>
            <Time>2019-07-26T15:06:38.000Z</Time>
            <Position>
              <LatitudeDegrees>42.9061467759311199188232421875</LatitudeDegrees>
              <LongitudeDegrees>-8.4021734632551670074462890625</LongitudeDegrees>
            </Position>
            <AltitudeMeters>305.20001220703125</AltitudeMeters>
            <DistanceMeters>84972.534855105</DistanceMeters>
          </Trackpoint>
          <Trackpoint>
            <Time>2019-07-26T15:06:40.000Z</Time>
            <Position>
              <LatitudeDegrees>42.90611115284264087677001953125</LatitudeDegrees>
              <LongitudeDegrees>-8.40225116349756717681884765625</LongitudeDegrees>
            </Position>
            <AltitudeMeters>305.79998779296875</AltitudeMeters>
            <DistanceMeters>84980.007605116</DistanceMeters>
          </Trackpoint>
          <Trackpoint>
            <Time>2019-07-26T15:06:43.000Z</Time>
            <Position>
              <LatitudeDegrees>42.9060461930930614471435546875</LatitudeDegrees>
              <LongitudeDegrees>-8.40234202332794666290283203125</LongitudeDegrees>
            </Position>
            <AltitudeMeters>306.79998779296875</AltitudeMeters>
            <DistanceMeters>84990.358976382</DistanceMeters>
          </Trackpoint>
          <Trackpoint>
            <Time>2019-07-26T15:06:44.000Z</Time>
            <Position>
              <LatitudeDegrees>42.9060280881822109222412109375</LatitudeDegrees>
              <LongitudeDegrees>-8.40236767195165157318115234375</LongitudeDegrees>
            </Position>
            <AltitudeMeters>307</AltitudeMeters>
            <DistanceMeters>84993.263127101</DistanceMeters>
          </Trackpoint>
          <Trackpoint>
            <Time>2019-07-26T15:06:49.000Z</Time>
            <Position>
              <LatitudeDegrees>42.905948460102081298828125</LatitudeDegrees>
              <LongitudeDegrees>-8.4024685062468051910400390625</LongitudeDegrees>
            </Position>
            <AltitudeMeters>307.600006103515625</AltitudeMeters>
            <DistanceMeters>85005.351705474</DistanceMeters>
          </Trackpoint>
          <Trackpoint>
            <Time>2019-07-26T15:06:53.000Z</Time>
            <Position>
              <LatitudeDegrees>42.905912585556507110595703125</LatitudeDegrees>
              <LongitudeDegrees>-8.4025338850915431976318359375</LongitudeDegrees>
            </Position>
            <AltitudeMeters>308.20001220703125</AltitudeMeters>
            <DistanceMeters>85012.011715646</DistanceMeters>
          </Trackpoint>
          <Trackpoint>
            <Time>2019-07-26T15:06:54.000Z</Time>
            <Position>
              <LatitudeDegrees>42.90590822696685791015625</LatitudeDegrees>
              <LongitudeDegrees>-8.4025459550321102142333984375</LongitudeDegrees>
            </Position>
            <AltitudeMeters>308.20001220703125</AltitudeMeters>
            <DistanceMeters>85013.111729393</DistanceMeters>
          </Trackpoint>
          <Trackpoint>
            <Time>2019-07-26T15:06:59.000Z</Time>
            <Position>
              <LatitudeDegrees>42.9058399982750415802001953125</LatitudeDegrees>
              <LongitudeDegrees>-8.4026713483035564422607421875</LongitudeDegrees>
            </Position>
            <AltitudeMeters>309.20001220703125</AltitudeMeters>
            <DistanceMeters>85025.846727349</DistanceMeters>
          </Trackpoint>
          <Trackpoint>
            <Time>2019-07-26T15:07:02.000Z</Time>
            <Position>
              <LatitudeDegrees>42.90580269880592823028564453125</LatitudeDegrees>
              <LongitudeDegrees>-8.4027860127389430999755859375</LongitudeDegrees>
            </Position>
            <AltitudeMeters>309.79998779296875</AltitudeMeters>
            <DistanceMeters>85036.075239737</DistanceMeters>
          </Trackpoint>
          <Trackpoint>
            <Time>2019-07-26T15:07:04.000Z</Time>
            <Position>
              <LatitudeDegrees>42.905792891979217529296875</LatitudeDegrees>
              <LongitudeDegrees>-8.40287008322775363922119140625</LongitudeDegrees>
            </Position>
            <AltitudeMeters>310.20001220703125</AltitudeMeters>
            <DistanceMeters>85043.015443463</DistanceMeters>
          </Trackpoint>
          <Trackpoint>
            <Time>2019-07-26T15:07:07.000Z</Time>
            <Position>
              <LatitudeDegrees>42.90577352978289127349853515625</LatitudeDegrees>
              <LongitudeDegrees>-8.402981646358966827392578125</LongitudeDegrees>
            </Position>
            <AltitudeMeters>311</AltitudeMeters>
            <DistanceMeters>85052.362904063</DistanceMeters>
          </Trackpoint>
          <Trackpoint>
            <Time>2019-07-26T15:07:08.000Z</Time>
            <Position>
              <LatitudeDegrees>42.90576942265033721923828125</LatitudeDegrees>
              <LongitudeDegrees>-8.4030210413038730621337890625</LongitudeDegrees>
            </Position>
            <AltitudeMeters>311.399993896484375</AltitudeMeters>
            <DistanceMeters>85055.60497269</DistanceMeters>
          </Trackpoint>
          <Trackpoint>
            <Time>2019-07-26T15:07:12.000Z</Time>
            <Position>
              <LatitudeDegrees>42.90574570186436176300048828125</LatitudeDegrees>
              <LongitudeDegrees>-8.4031595103442668914794921875</LongitudeDegrees>
            </Position>
            <AltitudeMeters>312.600006103515625</AltitudeMeters>
            <DistanceMeters>85067.198231843</DistanceMeters>
          </Trackpoint>
          <Trackpoint>
            <Time>2019-07-26T15:07:13.000Z</Time>
            <Position>
              <LatitudeDegrees>42.90573949925601482391357421875</LatitudeDegrees>
              <LongitudeDegrees>-8.4031906910240650177001953125</LongitudeDegrees>
            </Position>
            <AltitudeMeters>312.79998779296875</AltitudeMeters>
            <DistanceMeters>85069.833403334</DistanceMeters>
          </Trackpoint>
          <Trackpoint>
            <Time>2019-07-26T15:07:15.000Z</Time>
            <Position>
              <LatitudeDegrees>42.9057444445788860321044921875</LatitudeDegrees>
              <LongitudeDegrees>-8.40327970683574676513671875</LongitudeDegrees>
            </Position>
            <AltitudeMeters>313.600006103515625</AltitudeMeters>
            <DistanceMeters>85077.11210229</DistanceMeters>
          </Trackpoint>
          <Trackpoint>
            <Time>2019-07-26T15:07:18.000Z</Time>
            <Position>
              <LatitudeDegrees>42.90573128499090671539306640625</LatitudeDegrees>
              <LongitudeDegrees>-8.40337081812322139739990234375</LongitudeDegrees>
            </Position>
            <AltitudeMeters>314.600006103515625</AltitudeMeters>
            <DistanceMeters>85084.683292769</DistanceMeters>
          </Trackpoint>
          <Trackpoint>
            <Time>2019-07-26T15:07:19.000Z</Time>
            <Position>
              <LatitudeDegrees>42.9057337157428264617919921875</LatitudeDegrees>
              <LongitudeDegrees>-8.40340652503073215484619140625</LongitudeDegrees>
            </Position>
            <AltitudeMeters>314.600006103515625</AltitudeMeters>
            <DistanceMeters>85087.60604016</DistanceMeters>
          </Trackpoint>
          <Trackpoint>
            <Time>2019-07-26T15:07:25.000Z</Time>
            <Position>
              <LatitudeDegrees>42.9057608731091022491455078125</LatitudeDegrees>
              <LongitudeDegrees>-8.40366485528647899627685546875</LongitudeDegrees>
            </Position>
            <AltitudeMeters>316</AltitudeMeters>
            <DistanceMeters>85108.882476944</DistanceMeters>
          </Trackpoint>
          <Trackpoint>
            <Time>2019-07-26T15:07:26.000Z</Time>
            <Position>
              <LatitudeDegrees>42.905773110687732696533203125</LatitudeDegrees>
              <LongitudeDegrees>-8.4037190861999988555908203125</LongitudeDegrees>
            </Position>
            <AltitudeMeters>316.20001220703125</AltitudeMeters>
            <DistanceMeters>85113.508628819</DistanceMeters>
          </Trackpoint>
          <Trackpoint>
            <Time>2019-07-26T15:07:32.000Z</Time>
            <Position>
              <LatitudeDegrees>42.90582918561995029449462890625</LatitudeDegrees>
              <LongitudeDegrees>-8.40394749306142330169677734375</LongitudeDegrees>
            </Position>
            <AltitudeMeters>317.20001220703125</AltitudeMeters>
            <DistanceMeters>85133.14768748</DistanceMeters>
          </Trackpoint>
          <Trackpoint>
            <Time>2019-07-26T15:07:33.000Z</Time>
            <Position>
              <LatitudeDegrees>42.90583706460893154144287109375</LatitudeDegrees>
              <LongitudeDegrees>-8.40398722328245639801025390625</LongitudeDegrees>
            </Position>
            <AltitudeMeters>317.20001220703125</AltitudeMeters>
            <DistanceMeters>85136.504700349</DistanceMeters>
          </Trackpoint>
          <Trackpoint>
            <Time>2019-07-26T15:07:39.000Z</Time>
            <Position>
              <LatitudeDegrees>42.90591099299490451812744140625</LatitudeDegrees>
              <LongitudeDegrees>-8.4041998721659183502197265625</LongitudeDegrees>
            </Position>
            <AltitudeMeters>318</AltitudeMeters>
            <DistanceMeters>85155.69445067</DistanceMeters>
          </Trackpoint>
          <Trackpoint>
            <Time>2019-07-26T15:07:44.000Z</Time>
            <Position>
              <LatitudeDegrees>42.90594376623630523681640625</LatitudeDegrees>
              <LongitudeDegrees>-8.40438150800764560699462890625</LongitudeDegrees>
            </Position>
            <AltitudeMeters>319.20001220703125</AltitudeMeters>
            <DistanceMeters>85170.944980133</DistanceMeters>
          </Trackpoint>
          <Trackpoint>
            <Time>2019-07-26T15:07:45.000Z</Time>
            <Position>
              <LatitudeDegrees>42.90594150312244892120361328125</LatitudeDegrees>
              <LongitudeDegrees>-8.4044224955141544342041015625</LongitudeDegrees>
            </Position>
            <AltitudeMeters>319.399993896484375</AltitudeMeters>
            <DistanceMeters>85174.295261467</DistanceMeters>
          </Trackpoint>
          <Trackpoint>
            <Time>2019-07-26T15:07:50.000Z</Time>
            <Position>
              <LatitudeDegrees>42.90593194775283336639404296875</LatitudeDegrees>
              <LongitudeDegrees>-8.40462307445704936981201171875</LongitudeDegrees>
            </Position>
            <AltitudeMeters>320.399993896484375</AltitudeMeters>
            <DistanceMeters>85190.681791092</DistanceMeters>
          </Trackpoint>
          <Trackpoint>
            <Time>2019-07-26T15:07:53.000Z</Time>
            <Position>
              <LatitudeDegrees>42.905919961631298065185546875</LatitudeDegrees>
              <LongitudeDegrees>-8.40474260039627552032470703125</LongitudeDegrees>
            </Position>
            <AltitudeMeters>321.20001220703125</AltitudeMeters>
            <DistanceMeters>85200.516941262</DistanceMeters>
          </Trackpoint>
          <Trackpoint>
            <Time>2019-07-26T15:07:54.000Z</Time>
            <Position>
              <LatitudeDegrees>42.9059147648513317108154296875</LatitudeDegrees>
              <LongitudeDegrees>-8.40478241443634033203125</LongitudeDegrees>
            </Position>
            <AltitudeMeters>321.79998779296875</AltitudeMeters>
            <DistanceMeters>85203.814245015</DistanceMeters>
          </Trackpoint>
          <Trackpoint>
            <Time>2019-07-26T15:07:59.000Z</Time>
            <Position>
              <LatitudeDegrees>42.90591669268906116485595703125</LatitudeDegrees>
              <LongitudeDegrees>-8.4049887768924236297607421875</LongitudeDegrees>
            </Position>
            <AltitudeMeters>323</AltitudeMeters>
            <DistanceMeters>85220.639341342</DistanceMeters>
          </Trackpoint>
          <Trackpoint>
            <Time>2019-07-26T15:08:00.000Z</Time>
            <Position>
              <LatitudeDegrees>42.905917279422283172607421875</LatitudeDegrees>
              <LongitudeDegrees>-8.40502691455185413360595703125</LongitudeDegrees>
            </Position>
            <AltitudeMeters>323.20001220703125</AltitudeMeters>
            <DistanceMeters>85223.750650062</DistanceMeters>
          </Trackpoint>
          <Trackpoint>
            <Time>2019-07-26T15:08:05.000Z</Time>
            <Position>
              <LatitudeDegrees>42.90589816868305206298828125</LatitudeDegrees>
              <LongitudeDegrees>-8.405208550393581390380859375</LongitudeDegrees>
            </Position>
            <AltitudeMeters>324</AltitudeMeters>
            <DistanceMeters>85238.710643865</DistanceMeters>
          </Trackpoint>
          <Trackpoint>
            <Time>2019-07-26T15:08:08.000Z</Time>
            <Position>
              <LatitudeDegrees>42.9058876074850559234619140625</LatitudeDegrees>
              <LongitudeDegrees>-8.40531793422996997833251953125</LongitudeDegrees>
            </Position>
            <AltitudeMeters>324.399993896484375</AltitudeMeters>
            <DistanceMeters>85247.704609886</DistanceMeters>
          </Trackpoint>
          <Trackpoint>
            <Time>2019-07-26T15:08:13.000Z</Time>
            <Position>
              <LatitudeDegrees>42.9058943130075931549072265625</LatitudeDegrees>
              <LongitudeDegrees>-8.405536115169525146484375</LongitudeDegrees>
            </Position>
            <AltitudeMeters>325.20001220703125</AltitudeMeters>
            <DistanceMeters>85265.507351895</DistanceMeters>
          </Trackpoint>
          <Trackpoint>
            <Time>2019-07-26T15:08:16.000Z</Time>
            <Position>
              <LatitudeDegrees>42.90589087642729282379150390625</LatitudeDegrees>
              <LongitudeDegrees>-8.40565673075616359710693359375</LongitudeDegrees>
            </Position>
            <AltitudeMeters>326</AltitudeMeters>
            <DistanceMeters>85275.348009382</DistanceMeters>
          </Trackpoint>
          <Trackpoint>
            <Time>2019-07-26T15:08:17.000Z</Time>
            <Position>
              <LatitudeDegrees>42.90588869713246822357177734375</LatitudeDegrees>
              <LongitudeDegrees>-8.40569746680557727813720703125</LongitudeDegrees>
            </Position>
            <AltitudeMeters>326.20001220703125</AltitudeMeters>
            <DistanceMeters>85278.680725095</DistanceMeters>
          </Trackpoint>
          <Trackpoint>
            <Time>2019-07-26T15:08:22.000Z</Time>
            <Position>
              <LatitudeDegrees>42.90587478317320346832275390625</LatitudeDegrees>
              <LongitudeDegrees>-8.4058960340917110443115234375</LongitudeDegrees>
            </Position>
            <AltitudeMeters>327.79998779296875</AltitudeMeters>
            <DistanceMeters>85294.942791961</DistanceMeters>
          </Trackpoint>
          <Trackpoint>
            <Time>2019-07-26T15:08:25.000Z</Time>
            <Position>
              <LatitudeDegrees>42.9058827459812164306640625</LatitudeDegrees>
              <LongitudeDegrees>-8.40601597912609577178955078125</LongitudeDegrees>
            </Position>
            <AltitudeMeters>328.79998779296875</AltitudeMeters>
            <DistanceMeters>85304.761401644</DistanceMeters>
          </Trackpoint>
          <Trackpoint>
            <Time>2019-07-26T15:08:26.000Z</Time>
            <Position>
              <LatitudeDegrees>42.90588249452412128448486328125</LatitudeDegrees>
              <LongitudeDegrees>-8.40605705045163631439208984375</LongitudeDegrees>
            </Position>
            <AltitudeMeters>329</AltitudeMeters>
            <DistanceMeters>85308.108986575</DistanceMeters>
          </Trackpoint>
          <Trackpoint>
            <Time>2019-07-26T15:08:31.000Z</Time>
            <Position>
              <LatitudeDegrees>42.9058973304927349090576171875</LatitudeDegrees>
              <LongitudeDegrees>-8.40622921474277973175048828125</LongitudeDegrees>
            </Position>
            <AltitudeMeters>330</AltitudeMeters>
            <DistanceMeters>85322.241155577</DistanceMeters>
          </Trackpoint>
          <Trackpoint>
            <Time>2019-07-26T15:08:32.000Z</Time>
            <Position>
              <LatitudeDegrees>42.90589607320725917816162109375</LatitudeDegrees>
              <LongitudeDegrees>-8.40625704266130924224853515625</LongitudeDegrees>
            </Position>
            <AltitudeMeters>330.20001220703125</AltitudeMeters>
            <DistanceMeters>85324.513864033</DistanceMeters>
          </Trackpoint>
          <Trackpoint>
            <Time>2019-07-26T15:08:37.000Z</Time>
            <Position>
              <LatitudeDegrees>42.905889451503753662109375</LatitudeDegrees>
              <LongitudeDegrees>-8.40640774928033351898193359375</LongitudeDegrees>
            </Position>
            <AltitudeMeters>331</AltitudeMeters>
            <DistanceMeters>85336.82229986</DistanceMeters>
          </Trackpoint>
          <Trackpoint>
            <Time>2019-07-26T15:08:38.000Z</Time>
            <Position>
              <LatitudeDegrees>42.905889116227626800537109375</LatitudeDegrees>
              <LongitudeDegrees>-8.40644177980720996856689453125</LongitudeDegrees>
            </Position>
            <AltitudeMeters>331.20001220703125</AltitudeMeters>
            <DistanceMeters>85339.597665639</DistanceMeters>
          </Trackpoint>
          <Trackpoint>
            <Time>2019-07-26T15:08:43.000Z</Time>
            <Position>
              <LatitudeDegrees>42.90588769130408763885498046875</LatitudeDegrees>
              <LongitudeDegrees>-8.40661779977381229400634765625</LongitudeDegrees>
            </Position>
            <AltitudeMeters>332.20001220703125</AltitudeMeters>
            <DistanceMeters>85353.948901946</DistanceMeters>
          </Trackpoint>
          <Trackpoint>
            <Time>2019-07-26T15:08:45.000Z</Time>
            <Position>
              <LatitudeDegrees>42.90588165633380413055419921875</LatitudeDegrees>
              <LongitudeDegrees>-8.40668753720819950103759765625</LongitudeDegrees>
            </Position>
            <AltitudeMeters>332.79998779296875</AltitudeMeters>
            <DistanceMeters>85359.674212198</DistanceMeters>
          </Trackpoint>
          <Trackpoint>
            <Time>2019-07-26T15:08:48.000Z</Time>
            <Position>
              <LatitudeDegrees>42.90586103685200214385986328125</LatitudeDegrees>
              <LongitudeDegrees>-8.40677755884826183319091796875</LongitudeDegrees>
            </Position>
            <AltitudeMeters>333.399993896484375</AltitudeMeters>
            <DistanceMeters>85367.363746681</DistanceMeters>
          </Trackpoint>
          <Trackpoint>
            <Time>2019-07-26T15:08:51.000Z</Time>
            <Position>
              <LatitudeDegrees>42.9058425128459930419921875</LatitudeDegrees>
              <LongitudeDegrees>-8.40685383416712284088134765625</LongitudeDegrees>
            </Position>
            <AltitudeMeters>334.20001220703125</AltitudeMeters>
            <DistanceMeters>85373.915078861</DistanceMeters>
          </Trackpoint>
          <Trackpoint>
            <Time>2019-07-26T15:08:52.000Z</Time>
            <Position>
              <LatitudeDegrees>42.90584561415016651153564453125</LatitudeDegrees>
              <LongitudeDegrees>-8.4068894572556018829345703125</LongitudeDegrees>
            </Position>
            <AltitudeMeters>334.399993896484375</AltitudeMeters>
            <DistanceMeters>85376.839370637</DistanceMeters>
          </Trackpoint>
          <Trackpoint>
            <Time>2019-07-26T15:08:57.000Z</Time>
            <Position>
              <LatitudeDegrees>42.9058537445962429046630859375</LatitudeDegrees>
              <LongitudeDegrees>-8.407054245471954345703125</LongitudeDegrees>
            </Position>
            <AltitudeMeters>335.600006103515625</AltitudeMeters>
            <DistanceMeters>85390.304357635</DistanceMeters>
          </Trackpoint>
          <Trackpoint>
            <Time>2019-07-26T15:08:58.000Z</Time>
            <Position>
              <LatitudeDegrees>42.9058587737381458282470703125</LatitudeDegrees>
              <LongitudeDegrees>-8.40708442032337188720703125</LongitudeDegrees>
            </Position>
            <AltitudeMeters>335.79998779296875</AltitudeMeters>
            <DistanceMeters>85392.827491379</DistanceMeters>
          </Trackpoint>
          <Trackpoint>
            <Time>2019-07-26T15:09:02.000Z</Time>
            <Position>
              <LatitudeDegrees>42.90587495081126689910888671875</LatitudeDegrees>
              <LongitudeDegrees>-8.40719480998814105987548828125</LongitudeDegrees>
            </Position>
            <AltitudeMeters>336.600006103515625</AltitudeMeters>
            <DistanceMeters>85402.005320811</DistanceMeters>
          </Trackpoint>
          <Trackpoint>
            <Time>2019-07-26T15:09:04.000Z</Time>
            <Position>
              <LatitudeDegrees>42.9058822430670261383056640625</LatitudeDegrees>
              <LongitudeDegrees>-8.40725130401551723480224609375</LongitudeDegrees>
            </Position>
            <AltitudeMeters>337.20001220703125</AltitudeMeters>
            <DistanceMeters>85406.681948351</DistanceMeters>
          </Trackpoint>
          <Trackpoint>
            <Time>2019-07-26T15:09:06.000Z</Time>
            <Position>
              <LatitudeDegrees>42.9058795608580112457275390625</LatitudeDegrees>
              <LongitudeDegrees>-8.40730226598680019378662109375</LongitudeDegrees>
            </Position>
            <AltitudeMeters>337.79998779296875</AltitudeMeters>
            <DistanceMeters>85410.847978466</DistanceMeters>
          </Trackpoint>
          <Trackpoint>
            <Time>2019-07-26T15:09:10.000Z</Time>
            <Position>
              <LatitudeDegrees>42.9058746993541717529296875</LatitudeDegrees>
              <LongitudeDegrees>-8.40741793625056743621826171875</LongitudeDegrees>
            </Position>
            <AltitudeMeters>338.79998779296875</AltitudeMeters>
            <DistanceMeters>85420.293461793</DistanceMeters>
          </Trackpoint>
          <Trackpoint>
            <Time>2019-07-26T15:09:14.000Z</Time>
            <Position>
              <LatitudeDegrees>42.90585986338555812835693359375</LatitudeDegrees>
              <LongitudeDegrees>-8.40751759707927703857421875</LongitudeDegrees>
            </Position>
            <AltitudeMeters>339.79998779296875</AltitudeMeters>
            <DistanceMeters>85428.584236298</DistanceMeters>
          </Trackpoint>
          <Trackpoint>
            <Time>2019-07-26T15:09:17.000Z</Time>
            <Position>
              <LatitudeDegrees>42.90585064329206943511962890625</LatitudeDegrees>
              <LongitudeDegrees>-8.407605104148387908935546875</LongitudeDegrees>
            </Position>
            <AltitudeMeters>340.399993896484375</AltitudeMeters>
            <DistanceMeters>85435.791246753</DistanceMeters>
          </Trackpoint>
          <Trackpoint>
            <Time>2019-07-26T15:09:19.000Z</Time>
            <Position>
              <LatitudeDegrees>42.90584661997854709625244140625</LatitudeDegrees>
              <LongitudeDegrees>-8.407666794955730438232421875</LongitudeDegrees>
            </Position>
            <AltitudeMeters>340.79998779296875</AltitudeMeters>
            <DistanceMeters>85440.841091887</DistanceMeters>
          </Trackpoint>
          <Trackpoint>
            <Time>2019-07-26T15:09:23.000Z</Time>
            <Position>
              <LatitudeDegrees>42.9058309458196163177490234375</LatitudeDegrees>
              <LongitudeDegrees>-8.4077755920588970184326171875</LongitudeDegrees>
            </Position>
            <AltitudeMeters>342</AltitudeMeters>
            <DistanceMeters>85449.88112462</DistanceMeters>
          </Trackpoint>
          <Trackpoint>
            <Time>2019-07-26T15:09:28.000Z</Time>
            <Position>
              <LatitudeDegrees>42.90582449175417423248291015625</LatitudeDegrees>
              <LongitudeDegrees>-8.40794398449361324310302734375</LongitudeDegrees>
            </Position>
            <AltitudeMeters>343.20001220703125</AltitudeMeters>
            <DistanceMeters>85463.628505094</DistanceMeters>
          </Trackpoint>
          <Trackpoint>
            <Time>2019-07-26T15:09:29.000Z</Time>
            <Position>
              <LatitudeDegrees>42.9058218933641910552978515625</LatitudeDegrees>
              <LongitudeDegrees>-8.40797583572566509246826171875</LongitudeDegrees>
            </Position>
            <AltitudeMeters>343.600006103515625</AltitudeMeters>
            <DistanceMeters>85466.241307764</DistanceMeters>
          </Trackpoint>
          <Trackpoint>
            <Time>2019-07-26T15:09:34.000Z</Time>
            <Position>
              <LatitudeDegrees>42.90579046122729778289794921875</LatitudeDegrees>
              <LongitudeDegrees>-8.408137857913970947265625</LongitudeDegrees>
            </Position>
            <AltitudeMeters>344.399993896484375</AltitudeMeters>
            <DistanceMeters>85479.90633432</DistanceMeters>
          </Trackpoint>
          <Trackpoint>
            <Time>2019-07-26T15:09:35.000Z</Time>
            <Position>
              <LatitudeDegrees>42.9057762958109378814697265625</LatitudeDegrees>
              <LongitudeDegrees>-8.40816132724285125732421875</LongitudeDegrees>
            </Position>
            <AltitudeMeters>344.399993896484375</AltitudeMeters>
            <DistanceMeters>85482.387969293</DistanceMeters>
          </Trackpoint>
          <Trackpoint>
            <Time>2019-07-26T15:09:40.000Z</Time>
            <Position>
              <LatitudeDegrees>42.90574369020760059356689453125</LatitudeDegrees>
              <LongitudeDegrees>-8.408347405493259429931640625</LongitudeDegrees>
            </Position>
            <AltitudeMeters>345.20001220703125</AltitudeMeters>
            <DistanceMeters>85497.985961139</DistanceMeters>
          </Trackpoint>
          <Trackpoint>
            <Time>2019-07-26T15:09:42.000Z</Time>
            <Position>
              <LatitudeDegrees>42.905742265284061431884765625</LatitudeDegrees>
              <LongitudeDegrees>-8.40843625366687774658203125</LongitudeDegrees>
            </Position>
            <AltitudeMeters>345.399993896484375</AltitudeMeters>
            <DistanceMeters>85505.231709164</DistanceMeters>
          </Trackpoint>
          <Trackpoint>
            <Time>2019-07-26T15:09:45.000Z</Time>
            <Position>
              <LatitudeDegrees>42.90574721060693264007568359375</LatitudeDegrees>
              <LongitudeDegrees>-8.40854597277939319610595703125</LongitudeDegrees>
            </Position>
            <AltitudeMeters>345.79998779296875</AltitudeMeters>
            <DistanceMeters>85514.193489115</DistanceMeters>
          </Trackpoint>
          <Trackpoint>
            <Time>2019-07-26T15:09:46.000Z</Time>
            <Position>
              <LatitudeDegrees>42.90575793944299221038818359375</LatitudeDegrees>
              <LongitudeDegrees>-8.40858218260109424591064453125</LongitudeDegrees>
            </Position>
            <AltitudeMeters>345.79998779296875</AltitudeMeters>
            <DistanceMeters>85517.377947601</DistanceMeters>
          </Trackpoint>
          <Trackpoint>
            <Time>2019-07-26T15:09:52.000Z</Time>
            <Position>
              <LatitudeDegrees>42.90583957917988300323486328125</LatitudeDegrees>
              <LongitudeDegrees>-8.40880312956869602203369140625</LongitudeDegrees>
            </Position>
            <AltitudeMeters>346.399993896484375</AltitudeMeters>
            <DistanceMeters>85537.553173145</DistanceMeters>
          </Trackpoint>
          <Trackpoint>
            <Time>2019-07-26T15:09:53.000Z</Time>
            <Position>
              <LatitudeDegrees>42.90585734881460666656494140625</LatitudeDegrees>
              <LongitudeDegrees>-8.408840261399745941162109375</LongitudeDegrees>
            </Position>
            <AltitudeMeters>346.399993896484375</AltitudeMeters>
            <DistanceMeters>85541.169186239</DistanceMeters>
          </Trackpoint>
          <Trackpoint>
            <Time>2019-07-26T15:09:59.000Z</Time>
            <Position>
              <LatitudeDegrees>42.905923984944820404052734375</LatitudeDegrees>
              <LongitudeDegrees>-8.40908945538103580474853515625</LongitudeDegrees>
            </Position>
            <AltitudeMeters>347.399993896484375</AltitudeMeters>
            <DistanceMeters>85562.796481484</DistanceMeters>
          </Trackpoint>
          <Trackpoint>
            <Time>2019-07-26T15:10:00.000Z</Time>
            <Position>
              <LatitudeDegrees>42.9059348814189434051513671875</LatitudeDegrees>
              <LongitudeDegrees>-8.40912382118403911590576171875</LongitudeDegrees>
            </Position>
            <AltitudeMeters>347.600006103515625</AltitudeMeters>
            <DistanceMeters>85565.847712189</DistanceMeters>
          </Trackpoint>
          <Trackpoint>
            <Time>2019-07-26T15:10:04.000Z</Time>
            <Position>
              <LatitudeDegrees>42.90599204599857330322265625</LatitudeDegrees>
              <LongitudeDegrees>-8.4092323668301105499267578125</LongitudeDegrees>
            </Position>
            <AltitudeMeters>348.20001220703125</AltitudeMeters>
            <DistanceMeters>85576.746824796</DistanceMeters>
          </Trackpoint>
          <Trackpoint>
            <Time>2019-07-26T15:10:07.000Z</Time>
            <Position>
              <LatitudeDegrees>42.90603823028504848480224609375</LatitudeDegrees>
              <LongitudeDegrees>-8.40930621139705181121826171875</LongitudeDegrees>
            </Position>
            <AltitudeMeters>348.79998779296875</AltitudeMeters>
            <DistanceMeters>85584.664323813</DistanceMeters>
          </Trackpoint>
          <Trackpoint>
            <Time>2019-07-26T15:10:10.000Z</Time>
            <Position>
              <LatitudeDegrees>42.90608047507703304290771484375</LatitudeDegrees>
              <LongitudeDegrees>-8.40941584669053554534912109375</LongitudeDegrees>
            </Position>
            <AltitudeMeters>349.20001220703125</AltitudeMeters>
            <DistanceMeters>85594.764014081</DistanceMeters>
          </Trackpoint>
          <Trackpoint>
            <Time>2019-07-26T15:10:14.000Z</Time>
            <Position>
              <LatitudeDegrees>42.90611282922327518463134765625</LatitudeDegrees>
              <LongitudeDegrees>-8.40954459272325038909912109375</LongitudeDegrees>
            </Position>
            <AltitudeMeters>350</AltitudeMeters>
            <DistanceMeters>85605.860595644</DistanceMeters>
          </Trackpoint>
          <Trackpoint>
            <Time>2019-07-26T15:10:17.000Z</Time>
            <Position>
              <LatitudeDegrees>42.9061134159564971923828125</LatitudeDegrees>
              <LongitudeDegrees>-8.40962841175496578216552734375</LongitudeDegrees>
            </Position>
            <AltitudeMeters>350.79998779296875</AltitudeMeters>
            <DistanceMeters>85612.694595598</DistanceMeters>
          </Trackpoint>
          <Trackpoint>
            <Time>2019-07-26T15:10:19.000Z</Time>
            <Position>
              <LatitudeDegrees>42.90610411204397678375244140625</LatitudeDegrees>
              <LongitudeDegrees>-8.409677110612392425537109375</LongitudeDegrees>
            </Position>
            <AltitudeMeters>351</AltitudeMeters>
            <DistanceMeters>85616.797285263</DistanceMeters>
          </Trackpoint>
          <Trackpoint>
            <Time>2019-07-26T15:10:24.000Z</Time>
            <Position>
              <LatitudeDegrees>42.90610478259623050689697265625</LatitudeDegrees>
              <LongitudeDegrees>-8.40977869927883148193359375</LongitudeDegrees>
            </Position>
            <AltitudeMeters>351.79998779296875</AltitudeMeters>
            <DistanceMeters>85625.079886953</DistanceMeters>
          </Trackpoint>
          <Trackpoint>
            <Time>2019-07-26T15:10:25.000Z</Time>
            <Position>
              <LatitudeDegrees>42.90610981173813343048095703125</LatitudeDegrees>
              <LongitudeDegrees>-8.40979856438934803009033203125</LongitudeDegrees>
            </Position>
            <AltitudeMeters>352</AltitudeMeters>
            <DistanceMeters>85626.793005409</DistanceMeters>
          </Trackpoint>
          <Trackpoint>
            <Time>2019-07-26T15:10:31.000Z</Time>
            <Position>
              <LatitudeDegrees>42.9061518050730228424072265625</LatitudeDegrees>
              <LongitudeDegrees>-8.40993158519268035888671875</LongitudeDegrees>
            </Position>
            <AltitudeMeters>353.20001220703125</AltitudeMeters>
            <DistanceMeters>85638.602344958</DistanceMeters>
          </Trackpoint>
          <Trackpoint>
            <Time>2019-07-26T15:10:32.000Z</Time>
            <Position>
              <LatitudeDegrees>42.90616077370941638946533203125</LatitudeDegrees>
              <LongitudeDegrees>-8.409949354827404022216796875</LongitudeDegrees>
            </Position>
            <AltitudeMeters>353.399993896484375</AltitudeMeters>
            <DistanceMeters>85640.359696984</DistanceMeters>
          </Trackpoint>
          <Trackpoint>
            <Time>2019-07-26T15:10:37.000Z</Time>
            <Position>
              <LatitudeDegrees>42.90623956359922885894775390625</LatitudeDegrees>
              <LongitudeDegrees>-8.41004951857030391693115234375</LongitudeDegrees>
            </Position>
            <AltitudeMeters>354.20001220703125</AltitudeMeters>
            <DistanceMeters>85652.34248654</DistanceMeters>
          </Trackpoint>
          <Trackpoint>
            <Time>2019-07-26T15:10:38.000Z</Time>
            <Position>
              <LatitudeDegrees>42.90625465102493762969970703125</LatitudeDegrees>
              <LongitudeDegrees>-8.41007047332823276519775390625</LongitudeDegrees>
            </Position>
            <AltitudeMeters>354.399993896484375</AltitudeMeters>
            <DistanceMeters>85654.73519807</DistanceMeters>
          </Trackpoint>
          <Trackpoint>
            <Time>2019-07-26T15:10:41.000Z</Time>
            <Position>
              <LatitudeDegrees>42.90630075149238109588623046875</LatitudeDegrees>
              <LongitudeDegrees>-8.4101446531713008880615234375</LongitudeDegrees>
            </Position>
            <AltitudeMeters>355</AltitudeMeters>
            <DistanceMeters>85662.666371534</DistanceMeters>
          </Trackpoint>
          <Trackpoint>
            <Time>2019-07-26T15:10:43.000Z</Time>
            <Position>
              <LatitudeDegrees>42.90631181560456752777099609375</LatitudeDegrees>
              <LongitudeDegrees>-8.4101999737322330474853515625</LongitudeDegrees>
            </Position>
            <AltitudeMeters>355.399993896484375</AltitudeMeters>
            <DistanceMeters>85667.34106778</DistanceMeters>
          </Trackpoint>
          <Trackpoint>
            <Time>2019-07-26T15:10:45.000Z</Time>
            <Position>
              <LatitudeDegrees>42.90633193217217922210693359375</LatitudeDegrees>
              <LongitudeDegrees>-8.410251773893833160400390625</LongitudeDegrees>
            </Position>
            <AltitudeMeters>355.79998779296875</AltitudeMeters>
            <DistanceMeters>85672.120826498</DistanceMeters>
          </Trackpoint>
          <Trackpoint>
            <Time>2019-07-26T15:10:49.000Z</Time>
            <Position>
              <LatitudeDegrees>42.90640904568135738372802734375</LatitudeDegrees>
              <LongitudeDegrees>-8.41033014468848705291748046875</LongitudeDegrees>
            </Position>
            <AltitudeMeters>356.20001220703125</AltitudeMeters>
            <DistanceMeters>85682.820935807</DistanceMeters>
          </Trackpoint>
          <Trackpoint>
            <Time>2019-07-26T15:10:50.000Z</Time>
            <Position>
              <LatitudeDegrees>42.90642656385898590087890625</LatitudeDegrees>
              <LongitudeDegrees>-8.41034154407680034637451171875</LongitudeDegrees>
            </Position>
            <AltitudeMeters>356.600006103515625</AltitudeMeters>
            <DistanceMeters>85684.979527812</DistanceMeters>
          </Trackpoint>
          <Trackpoint>
            <Time>2019-07-26T15:10:51.000Z</Time>
            <Position>
              <LatitudeDegrees>42.90644324384629726409912109375</LatitudeDegrees>
              <LongitudeDegrees>-8.41035042889416217803955078125</LongitudeDegrees>
            </Position>
            <AltitudeMeters>356.79998779296875</AltitudeMeters>
            <DistanceMeters>85686.972824989</DistanceMeters>
          </Trackpoint>
          <Trackpoint>
            <Time>2019-07-26T15:10:55.000Z</Time>
            <Position>
              <LatitudeDegrees>42.90654835291206836700439453125</LatitudeDegrees>
              <LongitudeDegrees>-8.41044179163873195648193359375</LongitudeDegrees>
            </Position>
            <AltitudeMeters>357.79998779296875</AltitudeMeters>
            <DistanceMeters>85700.841517367</DistanceMeters>
          </Trackpoint>
          <Trackpoint>
            <Time>2019-07-26T15:11:00.000Z</Time>
            <Position>
              <LatitudeDegrees>42.906679026782512664794921875</LatitudeDegrees>
              <LongitudeDegrees>-8.41056165285408496856689453125</LongitudeDegrees>
            </Position>
            <AltitudeMeters>358.79998779296875</AltitudeMeters>
            <DistanceMeters>85718.36306236</DistanceMeters>
          </Trackpoint>
          <Trackpoint>
            <Time>2019-07-26T15:11:03.000Z</Time>
            <Position>
              <LatitudeDegrees>42.90676829405128955841064453125</LatitudeDegrees>
              <LongitudeDegrees>-8.41062334366142749786376953125</LongitudeDegrees>
            </Position>
            <AltitudeMeters>359.20001220703125</AltitudeMeters>
            <DistanceMeters>85729.498636423</DistanceMeters>
          </Trackpoint>
          <Trackpoint>
            <Time>2019-07-26T15:11:08.000Z</Time>
            <Position>
              <LatitudeDegrees>42.90691313333809375762939453125</LatitudeDegrees>
              <LongitudeDegrees>-8.41068821959197521209716796875</LongitudeDegrees>
            </Position>
            <AltitudeMeters>359.79998779296875</AltitudeMeters>
            <DistanceMeters>85746.465096776</DistanceMeters>
          </Trackpoint>
          <Trackpoint>
            <Time>2019-07-26T15:11:09.000Z</Time>
            <Position>
              <LatitudeDegrees>42.906941212713718414306640625</LatitudeDegrees>
              <LongitudeDegrees>-8.41069827787578105926513671875</LongitudeDegrees>
            </Position>
            <AltitudeMeters>359.79998779296875</AltitudeMeters>
            <DistanceMeters>85749.697402214</DistanceMeters>
          </Trackpoint>
          <Trackpoint>
            <Time>2019-07-26T15:11:16.000Z</Time>
            <Position>
              <LatitudeDegrees>42.9071811027824878692626953125</LatitudeDegrees>
              <LongitudeDegrees>-8.41087614186108112335205078125</LongitudeDegrees>
            </Position>
            <AltitudeMeters>360.600006103515625</AltitudeMeters>
            <DistanceMeters>85780.08099606</DistanceMeters>
          </Trackpoint>
          <Trackpoint>
            <Time>2019-07-26T15:11:19.000Z</Time>
            <Position>
              <LatitudeDegrees>42.90727389045059680938720703125</LatitudeDegrees>
              <LongitudeDegrees>-8.410975970327854156494140625</LongitudeDegrees>
            </Position>
            <AltitudeMeters>361</AltitudeMeters>
            <DistanceMeters>85793.23009769</DistanceMeters>
          </Trackpoint>
          <Trackpoint>
            <Time>2019-07-26T15:11:23.000Z</Time>
            <Position>
              <LatitudeDegrees>42.90735670365393161773681640625</LatitudeDegrees>
              <LongitudeDegrees>-8.4111300297081470489501953125</LongitudeDegrees>
            </Position>
            <AltitudeMeters>361.399993896484375</AltitudeMeters>
            <DistanceMeters>85808.808683457</DistanceMeters>
          </Trackpoint>
          <Trackpoint>
            <Time>2019-07-26T15:11:27.000Z</Time>
            <Position>
              <LatitudeDegrees>42.90743549354374408721923828125</LatitudeDegrees>
              <LongitudeDegrees>-8.4113124199211597442626953125</LongitudeDegrees>
            </Position>
            <AltitudeMeters>362.20001220703125</AltitudeMeters>
            <DistanceMeters>85826.071143382</DistanceMeters>
          </Trackpoint>
          <Trackpoint>
            <Time>2019-07-26T15:11:29.000Z</Time>
            <Position>
              <LatitudeDegrees>42.9074694402515888214111328125</LatitudeDegrees>
              <LongitudeDegrees>-8.4114062972366809844970703125</LongitudeDegrees>
            </Position>
            <AltitudeMeters>362.399993896484375</AltitudeMeters>
            <DistanceMeters>85834.60610833</DistanceMeters>
          </Trackpoint>
          <Trackpoint>
            <Time>2019-07-26T15:11:33.000Z</Time>
            <Position>
              <LatitudeDegrees>42.9075307957828044891357421875</LatitudeDegrees>
              <LongitudeDegrees>-8.41161676682531833648681640625</LongitudeDegrees>
            </Position>
            <AltitudeMeters>363.399993896484375</AltitudeMeters>
            <DistanceMeters>85853.073591297</DistanceMeters>
          </Trackpoint>
          <Trackpoint>
            <Time>2019-07-26T15:11:35.000Z</Time>
            <Position>
              <LatitudeDegrees>42.9075552709400653839111328125</LatitudeDegrees>
              <LongitudeDegrees>-8.41170318424701690673828125</LongitudeDegrees>
            </Position>
            <AltitudeMeters>363.79998779296875</AltitudeMeters>
            <DistanceMeters>85860.626870252</DistanceMeters>
          </Trackpoint>
          <Trackpoint>
            <Time>2019-07-26T15:11:38.000Z</Time>
            <Position>
              <LatitudeDegrees>42.9075861163437366485595703125</LatitudeDegrees>
              <LongitudeDegrees>-8.41182128526270389556884765625</LongitudeDegrees>
            </Position>
            <AltitudeMeters>364.600006103515625</AltitudeMeters>
            <DistanceMeters>85870.848759243</DistanceMeters>
          </Trackpoint>
          <Trackpoint>
            <Time>2019-07-26T15:11:42.000Z</Time>
            <Position>
              <LatitudeDegrees>42.907644622027873992919921875</LatitudeDegrees>
              <LongitudeDegrees>-8.411968387663364410400390625</LongitudeDegrees>
            </Position>
            <AltitudeMeters>365.20001220703125</AltitudeMeters>
            <DistanceMeters>85884.49493953</DistanceMeters>
          </Trackpoint>
          <Trackpoint>
            <Time>2019-07-26T15:11:45.000Z</Time>
            <Position>
              <LatitudeDegrees>42.907686866819858551025390625</LatitudeDegrees>
              <LongitudeDegrees>-8.41207995079457759857177734375</LongitudeDegrees>
            </Position>
            <AltitudeMeters>365.79998779296875</AltitudeMeters>
            <DistanceMeters>85894.733158485</DistanceMeters>
          </Trackpoint>
          <Trackpoint>
            <Time>2019-07-26T15:11:48.000Z</Time>
            <Position>
              <LatitudeDegrees>42.90771964006125926971435546875</LatitudeDegrees>
              <LongitudeDegrees>-8.41219495050609111785888671875</LongitudeDegrees>
            </Position>
            <AltitudeMeters>366.399993896484375</AltitudeMeters>
            <DistanceMeters>85904.792534043</DistanceMeters>
          </Trackpoint>
          <Trackpoint>
            <Time>2019-07-26T15:11:50.000Z</Time>
            <Position>
              <LatitudeDegrees>42.90773271583020687103271484375</LatitudeDegrees>
              <LongitudeDegrees>-8.4122679568827152252197265625</LongitudeDegrees>
            </Position>
            <AltitudeMeters>366.79998779296875</AltitudeMeters>
            <DistanceMeters>85910.919362568</DistanceMeters>
          </Trackpoint>
          <Trackpoint>
            <Time>2019-07-26T15:11:54.000Z</Time>
            <Position>
              <LatitudeDegrees>42.90774377994239330291748046875</LatitudeDegrees>
              <LongitudeDegrees>-8.41241455636918544769287109375</LongitudeDegrees>
            </Position>
            <AltitudeMeters>367.600006103515625</AltitudeMeters>
            <DistanceMeters>85922.934136891</DistanceMeters>
          </Trackpoint>
          <Trackpoint>
            <Time>2019-07-26T15:11:55.000Z</Time>
            <Position>
              <LatitudeDegrees>42.9077497310936450958251953125</LatitudeDegrees>
              <LongitudeDegrees>-8.41245428659021854400634765625</LongitudeDegrees>
            </Position>
            <AltitudeMeters>367.600006103515625</AltitudeMeters>
            <DistanceMeters>85926.239646307</DistanceMeters>
          </Trackpoint>
          <Trackpoint>
            <Time>2019-07-26T15:12:01.000Z</Time>
            <Position>
              <LatitudeDegrees>42.9077872820198535919189453125</LatitudeDegrees>
              <LongitudeDegrees>-8.41266207396984100341796875</LongitudeDegrees>
            </Position>
            <AltitudeMeters>368.79998779296875</AltitudeMeters>
            <DistanceMeters>85943.687078984</DistanceMeters>
          </Trackpoint>
          <Trackpoint>
            <Time>2019-07-26T15:12:05.000Z</Time>
            <Position>
              <LatitudeDegrees>42.9078301973640918731689453125</LatitudeDegrees>
              <LongitudeDegrees>-8.4127812646329402923583984375</LongitudeDegrees>
            </Position>
            <AltitudeMeters>369.79998779296875</AltitudeMeters>
            <DistanceMeters>85954.514287876</DistanceMeters>
          </Trackpoint>
          <Trackpoint>
            <Time>2019-07-26T15:12:08.000Z</Time>
            <Position>
              <LatitudeDegrees>42.90786548517644405364990234375</LatitudeDegrees>
              <LongitudeDegrees>-8.41289282776415348052978515625</LongitudeDegrees>
            </Position>
            <AltitudeMeters>370.79998779296875</AltitudeMeters>
            <DistanceMeters>85964.420794364</DistanceMeters>
          </Trackpoint>
          <Trackpoint>
            <Time>2019-07-26T15:12:09.000Z</Time>
            <Position>
              <LatitudeDegrees>42.90787202306091785430908203125</LatitudeDegrees>
              <LongitudeDegrees>-8.41293289326131343841552734375</LongitudeDegrees>
            </Position>
            <AltitudeMeters>370.79998779296875</AltitudeMeters>
            <DistanceMeters>85967.767030277</DistanceMeters>
          </Trackpoint>
          <Trackpoint>
            <Time>2019-07-26T15:12:14.000Z</Time>
            <Position>
              <LatitudeDegrees>42.90790722705423831939697265625</LatitudeDegrees>
              <LongitudeDegrees>-8.41314998455345630645751953125</LongitudeDegrees>
            </Position>
            <AltitudeMeters>372</AltitudeMeters>
            <DistanceMeters>85985.893485019</DistanceMeters>
          </Trackpoint>
          <Trackpoint>
            <Time>2019-07-26T15:12:20.000Z</Time>
            <Position>
              <LatitudeDegrees>42.90797956287860870361328125</LatitudeDegrees>
              <LongitudeDegrees>-8.413459025323390960693359375</LongitudeDegrees>
            </Position>
            <AltitudeMeters>373</AltitudeMeters>
            <DistanceMeters>86012.342340608</DistanceMeters>
          </Trackpoint>
          <Trackpoint>
            <Time>2019-07-26T15:12:21.000Z</Time>
            <Position>
              <LatitudeDegrees>42.9079949855804443359375</LatitudeDegrees>
              <LongitudeDegrees>-8.41351124458014965057373046875</LongitudeDegrees>
            </Position>
            <AltitudeMeters>373.20001220703125</AltitudeMeters>
            <DistanceMeters>86016.933222704</DistanceMeters>
          </Trackpoint>
          <Trackpoint>
            <Time>2019-07-26T15:12:26.000Z</Time>
            <Position>
              <LatitudeDegrees>42.908056341111660003662109375</LatitudeDegrees>
              <LongitudeDegrees>-8.413753397762775421142578125</LongitudeDegrees>
            </Position>
            <AltitudeMeters>374</AltitudeMeters>
            <DistanceMeters>86037.822247428</DistanceMeters>
          </Trackpoint>
          <Trackpoint>
            <Time>2019-07-26T15:12:28.000Z</Time>
            <Position>
              <LatitudeDegrees>42.90808525867760181427001953125</LatitudeDegrees>
              <LongitudeDegrees>-8.41386102139949798583984375</LongitudeDegrees>
            </Position>
            <AltitudeMeters>374.399993896484375</AltitudeMeters>
            <DistanceMeters>86047.167775736</DistanceMeters>
          </Trackpoint>
          <Trackpoint>
            <Time>2019-07-26T15:12:32.000Z</Time>
            <Position>
              <LatitudeDegrees>42.9081483744084835052490234375</LatitudeDegrees>
              <LongitudeDegrees>-8.414053134620189666748046875</LongitudeDegrees>
            </Position>
            <AltitudeMeters>374.79998779296875</AltitudeMeters>
            <DistanceMeters>86064.332925438</DistanceMeters>
          </Trackpoint>
          <Trackpoint>
            <Time>2019-07-26T15:12:36.000Z</Time>
            <Position>
              <LatitudeDegrees>42.9082201234996318817138671875</LatitudeDegrees>
              <LongitudeDegrees>-8.41427215375006198883056640625</LongitudeDegrees>
            </Position>
            <AltitudeMeters>375.20001220703125</AltitudeMeters>
            <DistanceMeters>86083.892507456</DistanceMeters>
          </Trackpoint>
          <Trackpoint>
            <Time>2019-07-26T15:12:38.000Z</Time>
            <Position>
              <LatitudeDegrees>42.90824233554303646087646484375</LatitudeDegrees>
              <LongitudeDegrees>-8.414387069642543792724609375</LongitudeDegrees>
            </Position>
            <AltitudeMeters>375.20001220703125</AltitudeMeters>
            <DistanceMeters>86093.581505067</DistanceMeters>
          </Trackpoint>
          <Trackpoint>
            <Time>2019-07-26T15:12:41.000Z</Time>
            <Position>
              <LatitudeDegrees>42.9082938842475414276123046875</LatitudeDegrees>
              <LongitudeDegrees>-8.41456401161849498748779296875</LongitudeDegrees>
            </Position>
            <AltitudeMeters>375.399993896484375</AltitudeMeters>
            <DistanceMeters>86109.105508421</DistanceMeters>
          </Trackpoint>
          <Trackpoint>
            <Time>2019-07-26T15:12:43.000Z</Time>
            <Position>
              <LatitudeDegrees>42.90835649706423282623291015625</LatitudeDegrees>
              <LongitudeDegrees>-8.41466526500880718231201171875</LongitudeDegrees>
            </Position>
            <AltitudeMeters>375.399993896484375</AltitudeMeters>
            <DistanceMeters>86119.90892168</DistanceMeters>
          </Trackpoint>
          <Trackpoint>
            <Time>2019-07-26T15:12:47.000Z</Time>
            <Position>
              <LatitudeDegrees>42.90853452868759632110595703125</LatitudeDegrees>
              <LongitudeDegrees>-8.414766602218151092529296875</LongitudeDegrees>
            </Position>
            <AltitudeMeters>375.20001220703125</AltitudeMeters>
            <DistanceMeters>86141.377389294</DistanceMeters>
          </Trackpoint>
          <Trackpoint>
            <Time>2019-07-26T15:12:48.000Z</Time>
            <Position>
              <LatitudeDegrees>42.90858171880245208740234375</LatitudeDegrees>
              <LongitudeDegrees>-8.41477624140679836273193359375</LongitudeDegrees>
            </Position>
            <AltitudeMeters>375.20001220703125</AltitudeMeters>
            <DistanceMeters>86146.688694107</DistanceMeters>
          </Trackpoint>
          <Trackpoint>
            <Time>2019-07-26T15:12:49.000Z</Time>
            <Position>
              <LatitudeDegrees>42.908630333840847015380859375</LatitudeDegrees>
              <LongitudeDegrees>-8.41478462330996990203857421875</LongitudeDegrees>
            </Position>
            <AltitudeMeters>375.20001220703125</AltitudeMeters>
            <DistanceMeters>86152.142598378</DistanceMeters>
          </Trackpoint>
          <Trackpoint>
            <Time>2019-07-26T15:12:53.000Z</Time>
            <Position>
              <LatitudeDegrees>42.90884633548557758331298828125</LatitudeDegrees>
              <LongitudeDegrees>-8.414789736270904541015625</LongitudeDegrees>
            </Position>
            <AltitudeMeters>374.79998779296875</AltitudeMeters>
            <DistanceMeters>86176.187549499</DistanceMeters>
          </Trackpoint>
          <Trackpoint>
            <Time>2019-07-26T15:12:58.000Z</Time>
            <Position>
              <LatitudeDegrees>42.90912193246185779571533203125</LatitudeDegrees>
              <LongitudeDegrees>-8.41473969630897045135498046875</LongitudeDegrees>
            </Position>
            <AltitudeMeters>374.79998779296875</AltitudeMeters>
            <DistanceMeters>86207.13213491</DistanceMeters>
          </Trackpoint>
          <Trackpoint>
            <Time>2019-07-26T15:13:02.000Z</Time>
            <Position>
              <LatitudeDegrees>42.9093479923903942108154296875</LatitudeDegrees>
              <LongitudeDegrees>-8.41469191946089267730712890625</LongitudeDegrees>
            </Position>
            <AltitudeMeters>374.79998779296875</AltitudeMeters>
            <DistanceMeters>86232.592556502</DistanceMeters>
          </Trackpoint>
          <Trackpoint>
            <Time>2019-07-26T15:13:06.000Z</Time>
            <Position>
              <LatitudeDegrees>42.90953549556434154510498046875</LatitudeDegrees>
              <LongitudeDegrees>-8.4146423824131488800048828125</LongitudeDegrees>
            </Position>
            <AltitudeMeters>375</AltitudeMeters>
            <DistanceMeters>86253.849036338</DistanceMeters>
          </Trackpoint>
          <Trackpoint>
            <Time>2019-07-26T15:13:12.000Z</Time>
            <Position>
              <LatitudeDegrees>42.909794747829437255859375</LatitudeDegrees>
              <LongitudeDegrees>-8.414556719362735748291015625</LongitudeDegrees>
            </Position>
            <AltitudeMeters>375.79998779296875</AltitudeMeters>
            <DistanceMeters>86283.537243448</DistanceMeters>
          </Trackpoint>
          <Trackpoint>
            <Time>2019-07-26T15:13:18.000Z</Time>
            <Position>
              <LatitudeDegrees>42.9100906290113925933837890625</LatitudeDegrees>
              <LongitudeDegrees>-8.41451950371265411376953125</LongitudeDegrees>
            </Position>
            <AltitudeMeters>376.20001220703125</AltitudeMeters>
            <DistanceMeters>86316.608724498</DistanceMeters>
          </Trackpoint>
          <Trackpoint>
            <Time>2019-07-26T15:13:22.000Z</Time>
            <Position>
              <LatitudeDegrees>42.91033714078366756439208984375</LatitudeDegrees>
              <LongitudeDegrees>-8.4144915081560611724853515625</LongitudeDegrees>
            </Position>
            <AltitudeMeters>376.20001220703125</AltitudeMeters>
            <DistanceMeters>86344.140736901</DistanceMeters>
          </Trackpoint>
          <Trackpoint>
            <Time>2019-07-26T15:13:23.000Z</Time>
            <Position>
              <LatitudeDegrees>42.91039480827748775482177734375</LatitudeDegrees>
              <LongitudeDegrees>-8.41447549872100353240966796875</LongitudeDegrees>
            </Position>
            <AltitudeMeters>376.20001220703125</AltitudeMeters>
            <DistanceMeters>86350.691379867</DistanceMeters>
          </Trackpoint>
          <Trackpoint>
            <Time>2019-07-26T15:13:24.000Z</Time>
            <Position>
              <LatitudeDegrees>42.91045264340937137603759765625</LatitudeDegrees>
              <LongitudeDegrees>-8.41445974074304103851318359375</LongitudeDegrees>
            </Position>
            <AltitudeMeters>376.20001220703125</AltitudeMeters>
            <DistanceMeters>86357.255793381</DistanceMeters>
          </Trackpoint>
          <Trackpoint>
            <Time>2019-07-26T15:13:29.000Z</Time>
            <Position>
              <LatitudeDegrees>42.910772077739238739013671875</LatitudeDegrees>
              <LongitudeDegrees>-8.41442671604454517364501953125</LongitudeDegrees>
            </Position>
            <AltitudeMeters>376.20001220703125</AltitudeMeters>
            <DistanceMeters>86392.911204503</DistanceMeters>
          </Trackpoint>
          <Trackpoint>
            <Time>2019-07-26T15:13:35.000Z</Time>
            <Position>
              <LatitudeDegrees>42.91117751039564609527587890625</LatitudeDegrees>
              <LongitudeDegrees>-8.4143674559891223907470703125</LongitudeDegrees>
            </Position>
            <AltitudeMeters>376</AltitudeMeters>
            <DistanceMeters>86438.294594371</DistanceMeters>
          </Trackpoint>
          <Trackpoint>
            <Time>2019-07-26T15:13:42.000Z</Time>
            <Position>
              <LatitudeDegrees>42.911657877266407012939453125</LatitudeDegrees>
              <LongitudeDegrees>-8.41429780237376689910888671875</LongitudeDegrees>
            </Position>
            <AltitudeMeters>375.600006103515625</AltitudeMeters>
            <DistanceMeters>86492.061075494</DistanceMeters>
          </Trackpoint>
          <Trackpoint>
            <Time>2019-07-26T15:13:47.000Z</Time>
            <Position>
              <LatitudeDegrees>42.91198384948074817657470703125</LatitudeDegrees>
              <LongitudeDegrees>-8.41424332000315189361572265625</LongitudeDegrees>
            </Position>
            <AltitudeMeters>375.399993896484375</AltitudeMeters>
            <DistanceMeters>86528.61327133</DistanceMeters>
          </Trackpoint>
          <Trackpoint>
            <Time>2019-07-26T15:13:52.000Z</Time>
            <Position>
              <LatitudeDegrees>42.91233354248106479644775390625</LatitudeDegrees>
              <LongitudeDegrees>-8.41417123563587665557861328125</LongitudeDegrees>
            </Position>
            <AltitudeMeters>375.399993896484375</AltitudeMeters>
            <DistanceMeters>86567.97590128</DistanceMeters>
          </Trackpoint>
          <Trackpoint>
            <Time>2019-07-26T15:13:59.000Z</Time>
            <Position>
              <LatitudeDegrees>42.91280326433479785919189453125</LatitudeDegrees>
              <LongitudeDegrees>-8.41408993117511272430419921875</LongitudeDegrees>
            </Position>
            <AltitudeMeters>375.20001220703125</AltitudeMeters>
            <DistanceMeters>86620.675390183</DistanceMeters>
          </Trackpoint>
          <Trackpoint>
            <Time>2019-07-26T15:14:06.000Z</Time>
            <Position>
              <LatitudeDegrees>42.91325471363961696624755859375</LatitudeDegrees>
              <LongitudeDegrees>-8.414059169590473175048828125</LongitudeDegrees>
            </Position>
            <AltitudeMeters>375</AltitudeMeters>
            <DistanceMeters>86670.985103129</DistanceMeters>
          </Trackpoint>
          <Trackpoint>
            <Time>2019-07-26T15:14:10.000Z</Time>
            <Position>
              <LatitudeDegrees>42.9134879820048809051513671875</LatitudeDegrees>
              <LongitudeDegrees>-8.41405640356242656707763671875</LongitudeDegrees>
            </Position>
            <AltitudeMeters>374.79998779296875</AltitudeMeters>
            <DistanceMeters>86696.949316133</DistanceMeters>
          </Trackpoint>
          <Trackpoint>
            <Time>2019-07-26T15:14:12.000Z</Time>
            <Position>
              <LatitudeDegrees>42.913611866533756256103515625</LatitudeDegrees>
              <LongitudeDegrees>-8.41405975632369518280029296875</LongitudeDegrees>
            </Position>
            <AltitudeMeters>374.79998779296875</AltitudeMeters>
            <DistanceMeters>86710.740963251</DistanceMeters>
          </Trackpoint>
          <Trackpoint>
            <Time>2019-07-26T15:14:14.000Z</Time>
            <Position>
              <LatitudeDegrees>42.9137106053531169891357421875</LatitudeDegrees>
              <LongitudeDegrees>-8.414081968367099761962890625</LongitudeDegrees>
            </Position>
            <AltitudeMeters>374.79998779296875</AltitudeMeters>
            <DistanceMeters>86721.878969813</DistanceMeters>
          </Trackpoint>
          <Trackpoint>
            <Time>2019-07-26T15:14:16.000Z</Time>
            <Position>
              <LatitudeDegrees>42.91378252208232879638671875</LatitudeDegrees>
              <LongitudeDegrees>-8.4141082875430583953857421875</LongitudeDegrees>
            </Position>
            <AltitudeMeters>374.79998779296875</AltitudeMeters>
            <DistanceMeters>86730.166476159</DistanceMeters>
          </Trackpoint>
          <Trackpoint>
            <Time>2019-07-26T15:14:20.000Z</Time>
            <Position>
              <LatitudeDegrees>42.91384094394743442535400390625</LatitudeDegrees>
              <LongitudeDegrees>-8.4141361154615879058837890625</LongitudeDegrees>
            </Position>
            <AltitudeMeters>374.600006103515625</AltitudeMeters>
            <DistanceMeters>86737.053127122</DistanceMeters>
          </Trackpoint>
          <Trackpoint>
            <Time>2019-07-26T15:14:35.000Z</Time>
            <Position>
              <LatitudeDegrees>42.91384111158549785614013671875</LatitudeDegrees>
              <LongitudeDegrees>-8.41418749652802944183349609375</LongitudeDegrees>
            </Position>
            <AltitudeMeters>372.20001220703125</AltitudeMeters>
            <DistanceMeters>86741.241854677</DistanceMeters>
          </Trackpoint>
          <Trackpoint>
            <Time>2019-07-26T15:14:38.000Z</Time>
            <Position>
              <LatitudeDegrees>42.91381747461855411529541015625</LatitudeDegrees>
              <LongitudeDegrees>-8.41426737606525421142578125</LongitudeDegrees>
            </Position>
            <AltitudeMeters>372.20001220703125</AltitudeMeters>
            <DistanceMeters>86748.264836774</DistanceMeters>
          </Trackpoint>
          <Trackpoint>
            <Time>2019-07-26T15:14:41.000Z</Time>
            <Position>
              <LatitudeDegrees>42.9138222523033618927001953125</LatitudeDegrees>
              <LongitudeDegrees>-8.4143926016986370086669921875</LongitudeDegrees>
            </Position>
            <AltitudeMeters>372.20001220703125</AltitudeMeters>
            <DistanceMeters>86758.486284052</DistanceMeters>
          </Trackpoint>
          <Trackpoint>
            <Time>2019-07-26T15:14:43.000Z</Time>
            <Position>
              <LatitudeDegrees>42.9138272814452648162841796875</LatitudeDegrees>
              <LongitudeDegrees>-8.4144884906709194183349609375</LongitudeDegrees>
            </Position>
            <AltitudeMeters>372.20001220703125</AltitudeMeters>
            <DistanceMeters>86766.322387664</DistanceMeters>
          </Trackpoint>
          <Trackpoint>
            <Time>2019-07-26T15:14:45.000Z</Time>
            <Position>
              <LatitudeDegrees>42.9138276167213916778564453125</LatitudeDegrees>
              <LongitudeDegrees>-8.41459452174603939056396484375</LongitudeDegrees>
            </Position>
            <AltitudeMeters>372.20001220703125</AltitudeMeters>
            <DistanceMeters>86774.965118271</DistanceMeters>
          </Trackpoint>
          <Trackpoint>
            <Time>2019-07-26T15:14:47.000Z</Time>
            <Position>
              <LatitudeDegrees>42.91382652707397937774658203125</LatitudeDegrees>
              <LongitudeDegrees>-8.41470549814403057098388671875</LongitudeDegrees>
            </Position>
            <AltitudeMeters>372.20001220703125</AltitudeMeters>
            <DistanceMeters>86784.012639642</DistanceMeters>
          </Trackpoint>
          <Trackpoint>
            <Time>2019-07-26T15:14:50.000Z</Time>
            <Position>
              <LatitudeDegrees>42.91382552124559879302978515625</LatitudeDegrees>
              <LongitudeDegrees>-8.41485268436372280120849609375</LongitudeDegrees>
            </Position>
            <AltitudeMeters>372.20001220703125</AltitudeMeters>
            <DistanceMeters>86796.011244092</DistanceMeters>
          </Trackpoint>
          <Trackpoint>
            <Time>2019-07-26T15:14:53.000Z</Time>
            <Position>
              <LatitudeDegrees>42.91382786817848682403564453125</LatitudeDegrees>
              <LongitudeDegrees>-8.41490582562983036041259765625</LongitudeDegrees>
            </Position>
            <AltitudeMeters>372.20001220703125</AltitudeMeters>
            <DistanceMeters>86800.351375365</DistanceMeters>
          </Trackpoint>
          <Trackpoint>
            <Time>2019-07-26T15:14:54.000Z</Time>
            <Position>
              <LatitudeDegrees>42.9138272814452648162841796875</LatitudeDegrees>
              <LongitudeDegrees>-8.41490683145821094512939453125</LongitudeDegrees>
            </Position>
            <AltitudeMeters>372.20001220703125</AltitudeMeters>
            <DistanceMeters>86800.485763433</DistanceMeters>
          </Trackpoint>
          <Trackpoint>
            <Time>2019-07-26T15:15:28.000Z</Time>
            <Position>
              <LatitudeDegrees>42.9137743078172206878662109375</LatitudeDegrees>
              <LongitudeDegrees>-8.41483927331864833831787109375</LongitudeDegrees>
            </Position>
            <AltitudeMeters>371.20001220703125</AltitudeMeters>
            <DistanceMeters>86808.553525887</DistanceMeters>
          </Trackpoint>
          <Trackpoint>
            <Time>2019-07-26T15:15:30.000Z</Time>
            <Position>
              <LatitudeDegrees>42.91373684071004390716552734375</LatitudeDegrees>
              <LongitudeDegrees>-8.414833657443523406982421875</LongitudeDegrees>
            </Position>
            <AltitudeMeters>371.399993896484375</AltitudeMeters>
            <DistanceMeters>86812.747639489</DistanceMeters>
          </Trackpoint>
          <Trackpoint>
            <Time>2019-07-26T15:15:33.000Z</Time>
            <Position>
              <LatitudeDegrees>42.91372292675077915191650390625</LatitudeDegrees>
              <LongitudeDegrees>-8.4149117767810821533203125</LongitudeDegrees>
            </Position>
            <AltitudeMeters>371.399993896484375</AltitudeMeters>
            <DistanceMeters>86819.302416657</DistanceMeters>
          </Trackpoint>
          <Trackpoint>
            <Time>2019-07-26T15:15:36.000Z</Time>
            <Position>
              <LatitudeDegrees>42.9137334041297435760498046875</LatitudeDegrees>
              <LongitudeDegrees>-8.41492116451263427734375</LongitudeDegrees>
            </Position>
            <AltitudeMeters>371.600006103515625</AltitudeMeters>
            <DistanceMeters>86820.69901843</DistanceMeters>
          </Trackpoint>
          <Trackpoint>
            <Time>2019-07-26T15:15:44.000Z</Time>
            <Position>
              <LatitudeDegrees>42.91373164393007755279541015625</LatitudeDegrees>
              <LongitudeDegrees>-8.4149890579283237457275390625</LongitudeDegrees>
            </Position>
            <AltitudeMeters>372.20001220703125</AltitudeMeters>
            <DistanceMeters>86826.236720084</DistanceMeters>
          </Trackpoint>
          <Trackpoint>
            <Time>2019-07-26T15:15:45.000Z</Time>
            <Position>
              <LatitudeDegrees>42.91372795589268207550048828125</LatitudeDegrees>
              <LongitudeDegrees>-8.41503071598708629608154296875</LongitudeDegrees>
            </Position>
            <AltitudeMeters>372.20001220703125</AltitudeMeters>
            <DistanceMeters>86829.657681801</DistanceMeters>
          </Trackpoint>
          <Trackpoint>
            <Time>2019-07-26T15:15:48.000Z</Time>
            <Position>
              <LatitudeDegrees>42.9137174785137176513671875</LatitudeDegrees>
              <LongitudeDegrees>-8.415185697376728057861328125</LongitudeDegrees>
            </Position>
            <AltitudeMeters>372.20001220703125</AltitudeMeters>
            <DistanceMeters>86842.344370988</DistanceMeters>
          </Trackpoint>
          <Trackpoint>
            <Time>2019-07-26T15:15:50.000Z</Time>
            <Position>
              <LatitudeDegrees>42.91371035389602184295654296875</LatitudeDegrees>
              <LongitudeDegrees>-8.41530631296336650848388671875</LongitudeDegrees>
            </Position>
            <AltitudeMeters>372.20001220703125</AltitudeMeters>
            <DistanceMeters>86852.207942532</DistanceMeters>
          </Trackpoint>
          <Trackpoint>
            <Time>2019-07-26T15:15:53.000Z</Time>
            <Position>
              <LatitudeDegrees>42.913703732192516326904296875</LatitudeDegrees>
              <LongitudeDegrees>-8.415519632399082183837890625</LongitudeDegrees>
            </Position>
            <AltitudeMeters>372.20001220703125</AltitudeMeters>
            <DistanceMeters>86869.612105375</DistanceMeters>
          </Trackpoint>
          <Trackpoint>
            <Time>2019-07-26T15:15:55.000Z</Time>
            <Position>
              <LatitudeDegrees>42.913701049983501434326171875</LatitudeDegrees>
              <LongitudeDegrees>-8.41567813418805599212646484375</LongitudeDegrees>
            </Position>
            <AltitudeMeters>371.79998779296875</AltitudeMeters>
            <DistanceMeters>86882.536087887</DistanceMeters>
          </Trackpoint>
          <Trackpoint>
            <Time>2019-07-26T15:15:56.000Z</Time>
            <Position>
              <LatitudeDegrees>42.913705743849277496337890625</LatitudeDegrees>
              <LongitudeDegrees>-8.41575910337269306182861328125</LongitudeDegrees>
            </Position>
            <AltitudeMeters>371.600006103515625</AltitudeMeters>
            <DistanceMeters>86889.157343141</DistanceMeters>
          </Trackpoint>
          <Trackpoint>
            <Time>2019-07-26T15:16:00.000Z</Time>
            <Position>
              <LatitudeDegrees>42.9137163050472736358642578125</LatitudeDegrees>
              <LongitudeDegrees>-8.41609924100339412689208984375</LongitudeDegrees>
            </Position>
            <AltitudeMeters>370.20001220703125</AltitudeMeters>
            <DistanceMeters>86916.90872328</DistanceMeters>
          </Trackpoint>
          <Trackpoint>
            <Time>2019-07-26T15:16:03.000Z</Time>
            <Position>
              <LatitudeDegrees>42.9137226752936840057373046875</LatitudeDegrees>
              <LongitudeDegrees>-8.41637156903743743896484375</LongitudeDegrees>
            </Position>
            <AltitudeMeters>369.600006103515625</AltitudeMeters>
            <DistanceMeters>86939.118969023</DistanceMeters>
          </Trackpoint>
          <Trackpoint>
            <Time>2019-07-26T15:16:06.000Z</Time>
            <Position>
              <LatitudeDegrees>42.91372108273208141326904296875</LatitudeDegrees>
              <LongitudeDegrees>-8.41666216962039470672607421875</LongitudeDegrees>
            </Position>
            <AltitudeMeters>368.79998779296875</AltitudeMeters>
            <DistanceMeters>86962.808082569</DistanceMeters>
          </Trackpoint>
          <Trackpoint>
            <Time>2019-07-26T15:16:10.000Z</Time>
            <Position>
              <LatitudeDegrees>42.9137290455400943756103515625</LatitudeDegrees>
              <LongitudeDegrees>-8.417096436023712158203125</LongitudeDegrees>
            </Position>
            <AltitudeMeters>367.79998779296875</AltitudeMeters>
            <DistanceMeters>86998.218509774</DistanceMeters>
          </Trackpoint>
          <Trackpoint>
            <Time>2019-07-26T15:16:11.000Z</Time>
            <Position>
              <LatitudeDegrees>42.91373030282557010650634765625</LatitudeDegrees>
              <LongitudeDegrees>-8.417210765182971954345703125</LongitudeDegrees>
            </Position>
            <AltitudeMeters>367.399993896484375</AltitudeMeters>
            <DistanceMeters>87007.538881837</DistanceMeters>
          </Trackpoint>
          <Trackpoint>
            <Time>2019-07-26T15:16:15.000Z</Time>
            <Position>
              <LatitudeDegrees>42.91373332031071186065673828125</LatitudeDegrees>
              <LongitudeDegrees>-8.4176759608089923858642578125</LongitudeDegrees>
            </Position>
            <AltitudeMeters>366</AltitudeMeters>
            <DistanceMeters>87045.460851644</DistanceMeters>
          </Trackpoint>
          <Trackpoint>
            <Time>2019-07-26T15:16:17.000Z</Time>
            <Position>
              <LatitudeDegrees>42.913729883730411529541015625</LatitudeDegrees>
              <LongitudeDegrees>-8.417906463146209716796875</LongitudeDegrees>
            </Position>
            <AltitudeMeters>365.399993896484375</AltitudeMeters>
            <DistanceMeters>87064.254291456</DistanceMeters>
          </Trackpoint>
          <Trackpoint>
            <Time>2019-07-26T15:16:18.000Z</Time>
            <Position>
              <LatitudeDegrees>42.91372351348400115966796875</LatitudeDegrees>
              <LongitudeDegrees>-8.41801886446774005889892578125</LongitudeDegrees>
            </Position>
            <AltitudeMeters>364.399993896484375</AltitudeMeters>
            <DistanceMeters>87073.443920115</DistanceMeters>
          </Trackpoint>
          <Trackpoint>
            <Time>2019-07-26T15:16:21.000Z</Time>
            <Position>
              <LatitudeDegrees>42.913677580654621124267578125</LatitudeDegrees>
              <LongitudeDegrees>-8.41834525577723979949951171875</LongitudeDegrees>
            </Position>
            <AltitudeMeters>363.399993896484375</AltitudeMeters>
            <DistanceMeters>87100.536368024</DistanceMeters>
          </Trackpoint>
          <Trackpoint>
            <Time>2019-07-26T15:16:22.000Z</Time>
            <Position>
              <LatitudeDegrees>42.91366584599018096923828125</LatitudeDegrees>
              <LongitudeDegrees>-8.4184424020349979400634765625</LongitudeDegrees>
            </Position>
            <AltitudeMeters>363.20001220703125</AltitudeMeters>
            <DistanceMeters>87108.562047763</DistanceMeters>
          </Trackpoint>
          <Trackpoint>
            <Time>2019-07-26T15:16:23.000Z</Time>
            <Position>
              <LatitudeDegrees>42.91366542689502239227294921875</LatitudeDegrees>
              <LongitudeDegrees>-8.4185315854847431182861328125</LongitudeDegrees>
            </Position>
            <AltitudeMeters>362.79998779296875</AltitudeMeters>
            <DistanceMeters>87115.831436138</DistanceMeters>
          </Trackpoint>
          <Trackpoint>
            <Time>2019-07-26T15:16:24.000Z</Time>
            <Position>
              <LatitudeDegrees>42.913672216236591339111328125</LatitudeDegrees>
              <LongitudeDegrees>-8.41861926019191741943359375</LongitudeDegrees>
            </Position>
            <AltitudeMeters>362.20001220703125</AltitudeMeters>
            <DistanceMeters>87123.01774306</DistanceMeters>
          </Trackpoint>
          <Trackpoint>
            <Time>2019-07-26T15:16:26.000Z</Time>
            <Position>
              <LatitudeDegrees>42.913699038326740264892578125</LatitudeDegrees>
              <LongitudeDegrees>-8.41879092156887054443359375</LongitudeDegrees>
            </Position>
            <AltitudeMeters>361</AltitudeMeters>
            <DistanceMeters>87137.325497356</DistanceMeters>
          </Trackpoint>
          <Trackpoint>
            <Time>2019-07-26T15:16:27.000Z</Time>
            <Position>
              <LatitudeDegrees>42.91370951570570468902587890625</LatitudeDegrees>
              <LongitudeDegrees>-8.41887750662863254547119140625</LongitudeDegrees>
            </Position>
            <AltitudeMeters>360.399993896484375</AltitudeMeters>
            <DistanceMeters>87144.479058931</DistanceMeters>
          </Trackpoint>
          <Trackpoint>
            <Time>2019-07-26T15:16:28.000Z</Time>
            <Position>
              <LatitudeDegrees>42.91371504776179790496826171875</LatitudeDegrees>
              <LongitudeDegrees>-8.41896434314548969268798828125</LongitudeDegrees>
            </Position>
            <AltitudeMeters>360</AltitudeMeters>
            <DistanceMeters>87151.58385501</DistanceMeters>
          </Trackpoint>
          <Trackpoint>
            <Time>2019-07-26T15:16:31.000Z</Time>
            <Position>
              <LatitudeDegrees>42.9137241840362548828125</LatitudeDegrees>
              <LongitudeDegrees>-8.4192303009331226348876953125</LongitudeDegrees>
            </Position>
            <AltitudeMeters>359</AltitudeMeters>
            <DistanceMeters>87173.287424017</DistanceMeters>
          </Trackpoint>
          <Trackpoint>
            <Time>2019-07-26T15:16:32.000Z</Time>
            <Position>
              <LatitudeDegrees>42.91372376494109630584716796875</LatitudeDegrees>
              <LongitudeDegrees>-8.419321663677692413330078125</LongitudeDegrees>
            </Position>
            <AltitudeMeters>358.600006103515625</AltitudeMeters>
            <DistanceMeters>87180.735360616</DistanceMeters>
          </Trackpoint>
          <Trackpoint>
            <Time>2019-07-26T15:16:34.000Z</Time>
            <Position>
              <LatitudeDegrees>42.91372510604560375213623046875</LatitudeDegrees>
              <LongitudeDegrees>-8.41950841248035430908203125</LongitudeDegrees>
            </Position>
            <AltitudeMeters>357.399993896484375</AltitudeMeters>
            <DistanceMeters>87195.959221559</DistanceMeters>
          </Trackpoint>
          <Trackpoint>
            <Time>2019-07-26T15:16:37.000Z</Time>
            <Position>
              <LatitudeDegrees>42.91370901279151439666748046875</LatitudeDegrees>
              <LongitudeDegrees>-8.4198093228042125701904296875</LongitudeDegrees>
            </Position>
            <AltitudeMeters>356.399993896484375</AltitudeMeters>
            <DistanceMeters>87220.553339566</DistanceMeters>
          </Trackpoint>
          <Trackpoint>
            <Time>2019-07-26T15:16:38.000Z</Time>
            <Position>
              <LatitudeDegrees>42.91369576938450336456298828125</LatitudeDegrees>
              <LongitudeDegrees>-8.419909738004207611083984375</LongitudeDegrees>
            </Position>
            <AltitudeMeters>356.20001220703125</AltitudeMeters>
            <DistanceMeters>87228.87075597</DistanceMeters>
          </Trackpoint>
          <Trackpoint>
            <Time>2019-07-26T15:16:41.000Z</Time>
            <Position>
              <LatitudeDegrees>42.91361111216247081756591796875</LatitudeDegrees>
              <LongitudeDegrees>-8.42015071772038936614990234375</LongitudeDegrees>
            </Position>
            <AltitudeMeters>356</AltitudeMeters>
            <DistanceMeters>87250.657378889</DistanceMeters>
          </Trackpoint>
          <Trackpoint>
            <Time>2019-07-26T15:16:43.000Z</Time>
            <Position>
              <LatitudeDegrees>42.91354707442224025726318359375</LatitudeDegrees>
              <LongitudeDegrees>-8.420238979160785675048828125</LongitudeDegrees>
            </Position>
            <AltitudeMeters>355.600006103515625</AltitudeMeters>
            <DistanceMeters>87260.784748155</DistanceMeters>
          </Trackpoint>
          <Trackpoint>
            <Time>2019-07-26T15:16:44.000Z</Time>
            <Position>
              <LatitudeDegrees>42.91352461092174053192138671875</LatitudeDegrees>
              <LongitudeDegrees>-8.42028432525694370269775390625</LongitudeDegrees>
            </Position>
            <AltitudeMeters>355.399993896484375</AltitudeMeters>
            <DistanceMeters>87265.245946254</DistanceMeters>
          </Trackpoint>
          <Trackpoint>
            <Time>2019-07-26T15:16:47.000Z</Time>
            <Position>
              <LatitudeDegrees>42.91350013576447963714599609375</LatitudeDegrees>
              <LongitudeDegrees>-8.42051164247095584869384765625</LongitudeDegrees>
            </Position>
            <AltitudeMeters>354.600006103515625</AltitudeMeters>
            <DistanceMeters>87283.975130688</DistanceMeters>
          </Trackpoint>
          <Trackpoint>
            <Time>2019-07-26T15:16:49.000Z</Time>
            <Position>
              <LatitudeDegrees>42.9135097749531269073486328125</LatitudeDegrees>
              <LongitudeDegrees>-8.42070861719548702239990234375</LongitudeDegrees>
            </Position>
            <AltitudeMeters>354.20001220703125</AltitudeMeters>
            <DistanceMeters>87300.06750566</DistanceMeters>
          </Trackpoint>
          <Trackpoint>
            <Time>2019-07-26T15:16:51.000Z</Time>
            <Position>
              <LatitudeDegrees>42.9135104455053806304931640625</LatitudeDegrees>
              <LongitudeDegrees>-8.4209314920008182525634765625</LongitudeDegrees>
            </Position>
            <AltitudeMeters>354</AltitudeMeters>
            <DistanceMeters>87318.235261553</DistanceMeters>
          </Trackpoint>
          <Trackpoint>
            <Time>2019-07-26T15:16:55.000Z</Time>
            <Position>
              <LatitudeDegrees>42.913495860993862152099609375</LatitudeDegrees>
              <LongitudeDegrees>-8.4213955141603946685791015625</LongitudeDegrees>
            </Position>
            <AltitudeMeters>353.20001220703125</AltitudeMeters>
            <DistanceMeters>87356.09503036</DistanceMeters>
          </Trackpoint>
          <Trackpoint>
            <Time>2019-07-26T15:16:57.000Z</Time>
            <Position>
              <LatitudeDegrees>42.913487143814563751220703125</LatitudeDegrees>
              <LongitudeDegrees>-8.4216295368969440460205078125</LongitudeDegrees>
            </Position>
            <AltitudeMeters>351.79998779296875</AltitudeMeters>
            <DistanceMeters>87375.19610909</DistanceMeters>
          </Trackpoint>
          <Trackpoint>
            <Time>2019-07-26T15:16:58.000Z</Time>
            <Position>
              <LatitudeDegrees>42.91349460370838642120361328125</LatitudeDegrees>
              <LongitudeDegrees>-8.42174562625586986541748046875</LongitudeDegrees>
            </Position>
            <AltitudeMeters>351.20001220703125</AltitudeMeters>
            <DistanceMeters>87384.695929297</DistanceMeters>
          </Trackpoint>
          <Trackpoint>
            <Time>2019-07-26T15:16:59.000Z</Time>
            <Position>
              <LatitudeDegrees>42.913503237068653106689453125</LatitudeDegrees>
              <LongitudeDegrees>-8.42185727320611476898193359375</LongitudeDegrees>
            </Position>
            <AltitudeMeters>350.399993896484375</AltitudeMeters>
            <DistanceMeters>87393.847648208</DistanceMeters>
          </Trackpoint>
          <Trackpoint>
            <Time>2019-07-26T15:17:00.000Z</Time>
            <Position>
              <LatitudeDegrees>42.9135091044008731842041015625</LatitudeDegrees>
              <LongitudeDegrees>-8.4219646453857421875</LongitudeDegrees>
            </Position>
            <AltitudeMeters>349.600006103515625</AltitudeMeters>
            <DistanceMeters>87402.624125409</DistanceMeters>
          </Trackpoint>
          <Trackpoint>
            <Time>2019-07-26T15:17:01.000Z</Time>
            <Position>
              <LatitudeDegrees>42.91350298561155796051025390625</LatitudeDegrees>
              <LongitudeDegrees>-8.42206195928156375885009765625</LongitudeDegrees>
            </Position>
            <AltitudeMeters>349.20001220703125</AltitudeMeters>
            <DistanceMeters>87410.58598051</DistanceMeters>
          </Trackpoint>
          <Trackpoint>
            <Time>2019-07-26T15:17:03.000Z</Time>
            <Position>
              <LatitudeDegrees>42.91345470584928989410400390625</LatitudeDegrees>
              <LongitudeDegrees>-8.42222280800342559814453125</LongitudeDegrees>
            </Position>
            <AltitudeMeters>347.399993896484375</AltitudeMeters>
            <DistanceMeters>87424.756117411</DistanceMeters>
          </Trackpoint>
          <Trackpoint>
            <Time>2019-07-26T15:17:05.000Z</Time>
            <Position>
              <LatitudeDegrees>42.9133951105177402496337890625</LatitudeDegrees>
              <LongitudeDegrees>-8.42235557734966278076171875</LongitudeDegrees>
            </Position>
            <AltitudeMeters>346</AltitudeMeters>
            <DistanceMeters>87437.449922359</DistanceMeters>
          </Trackpoint>
          <Trackpoint>
            <Time>2019-07-26T15:17:07.000Z</Time>
            <Position>
              <LatitudeDegrees>42.91330668143928050994873046875</LatitudeDegrees>
              <LongitudeDegrees>-8.42247233726084232330322265625</LongitudeDegrees>
            </Position>
            <AltitudeMeters>344.79998779296875</AltitudeMeters>
            <DistanceMeters>87451.141685832</DistanceMeters>
          </Trackpoint>
          <Trackpoint>
            <Time>2019-07-26T15:17:08.000Z</Time>
            <Position>
              <LatitudeDegrees>42.9132583178579807281494140625</LatitudeDegrees>
              <LongitudeDegrees>-8.42253528535366058349609375</LongitudeDegrees>
            </Position>
            <AltitudeMeters>344</AltitudeMeters>
            <DistanceMeters>87458.578702587</DistanceMeters>
          </Trackpoint>
          <Trackpoint>
            <Time>2019-07-26T15:17:09.000Z</Time>
            <Position>
              <LatitudeDegrees>42.91320593096315860748291015625</LatitudeDegrees>
              <LongitudeDegrees>-8.422601334750652313232421875</LongitudeDegrees>
            </Position>
            <AltitudeMeters>343.20001220703125</AltitudeMeters>
            <DistanceMeters>87466.514428963</DistanceMeters>
          </Trackpoint>
          <Trackpoint>
            <Time>2019-07-26T15:17:11.000Z</Time>
            <Position>
              <LatitudeDegrees>42.91309478692710399627685546875</LatitudeDegrees>
              <LongitudeDegrees>-8.4227376244962215423583984375</LongitudeDegrees>
            </Position>
            <AltitudeMeters>342.20001220703125</AltitudeMeters>
            <DistanceMeters>87483.141117156</DistanceMeters>
          </Trackpoint>
          <Trackpoint>
            <Time>2019-07-26T15:17:12.000Z</Time>
            <Position>
              <LatitudeDegrees>42.91304265148937702178955078125</LatitudeDegrees>
              <LongitudeDegrees>-8.42281079851090908050537109375</LongitudeDegrees>
            </Position>
            <AltitudeMeters>342</AltitudeMeters>
            <DistanceMeters>87491.462875158</DistanceMeters>
          </Trackpoint>
          <Trackpoint>
            <Time>2019-07-26T15:17:16.000Z</Time>
            <Position>
              <LatitudeDegrees>42.91284911334514617919921875</LatitudeDegrees>
              <LongitudeDegrees>-8.4230946935713291168212890625</LongitudeDegrees>
            </Position>
            <AltitudeMeters>341.20001220703125</AltitudeMeters>
            <DistanceMeters>87523.078935664</DistanceMeters>
          </Trackpoint>
          <Trackpoint>
            <Time>2019-07-26T15:17:17.000Z</Time>
            <Position>
              <LatitudeDegrees>42.91280527599155902862548828125</LatitudeDegrees>
              <LongitudeDegrees>-8.4231805242598056793212890625</LongitudeDegrees>
            </Position>
            <AltitudeMeters>340.79998779296875</AltitudeMeters>
            <DistanceMeters>87531.608608923</DistanceMeters>
          </Trackpoint>
          <Trackpoint>
            <Time>2019-07-26T15:17:19.000Z</Time>
            <Position>
              <LatitudeDegrees>42.912707962095737457275390625</LatitudeDegrees>
              <LongitudeDegrees>-8.42335713095963001251220703125</LongitudeDegrees>
            </Position>
            <AltitudeMeters>340.20001220703125</AltitudeMeters>
            <DistanceMeters>87549.62463145</DistanceMeters>
          </Trackpoint>
          <Trackpoint>
            <Time>2019-07-26T15:17:21.000Z</Time>
            <Position>
              <LatitudeDegrees>42.9126045294106006622314453125</LatitudeDegrees>
              <LongitudeDegrees>-8.4234916605055332183837890625</LongitudeDegrees>
            </Position>
            <AltitudeMeters>339.79998779296875</AltitudeMeters>
            <DistanceMeters>87565.524506296</DistanceMeters>
          </Trackpoint>
          <Trackpoint>
            <Time>2019-07-26T15:17:22.000Z</Time>
            <Position>
              <LatitudeDegrees>42.91255013085901737213134765625</LatitudeDegrees>
              <LongitudeDegrees>-8.42355695553123950958251953125</LongitudeDegrees>
            </Position>
            <AltitudeMeters>339.600006103515625</AltitudeMeters>
            <DistanceMeters>87573.585550279</DistanceMeters>
          </Trackpoint>
          <Trackpoint>
            <Time>2019-07-26T15:17:24.000Z</Time>
            <Position>
              <LatitudeDegrees>42.912432365119457244873046875</LatitudeDegrees>
              <LongitudeDegrees>-8.423674218356609344482421875</LongitudeDegrees>
            </Position>
            <AltitudeMeters>339</AltitudeMeters>
            <DistanceMeters>87589.808700652</DistanceMeters>
          </Trackpoint>
          <Trackpoint>
            <Time>2019-07-26T15:17:27.000Z</Time>
            <Position>
              <LatitudeDegrees>42.9122776351869106292724609375</LatitudeDegrees>
              <LongitudeDegrees>-8.42382433824241161346435546875</LongitudeDegrees>
            </Position>
            <AltitudeMeters>338.600006103515625</AltitudeMeters>
            <DistanceMeters>87610.935641949</DistanceMeters>
          </Trackpoint>
          <Trackpoint>
            <Time>2019-07-26T15:17:31.000Z</Time>
            <Position>
              <LatitudeDegrees>42.9121287725865840911865234375</LatitudeDegrees>
              <LongitudeDegrees>-8.4239191375672817230224609375</LongitudeDegrees>
            </Position>
            <AltitudeMeters>338.399993896484375</AltitudeMeters>
            <DistanceMeters>87629.217853235</DistanceMeters>
          </Trackpoint>
          <Trackpoint>
            <Time>2019-07-26T15:17:34.000Z</Time>
            <Position>
              <LatitudeDegrees>42.91206448338925838470458984375</LatitudeDegrees>
              <LongitudeDegrees>-8.42397638596594333648681640625</LongitudeDegrees>
            </Position>
            <AltitudeMeters>338.399993896484375</AltitudeMeters>
            <DistanceMeters>87637.761278069</DistanceMeters>
          </Trackpoint>
          <Trackpoint>
            <Time>2019-07-26T15:17:37.000Z</Time>
            <Position>
              <LatitudeDegrees>42.91200220584869384765625</LatitudeDegrees>
              <LongitudeDegrees>-8.42402785085141658782958984375</LongitudeDegrees>
            </Position>
            <AltitudeMeters>338.399993896484375</AltitudeMeters>
            <DistanceMeters>87645.863663875</DistanceMeters>
          </Trackpoint>
          <Trackpoint>
            <Time>2019-07-26T15:17:38.000Z</Time>
            <Position>
              <LatitudeDegrees>42.9119809158146381378173828125</LatitudeDegrees>
              <LongitudeDegrees>-8.42404176481068134307861328125</LongitudeDegrees>
            </Position>
            <AltitudeMeters>338.600006103515625</AltitudeMeters>
            <DistanceMeters>87648.491972928</DistanceMeters>
          </Trackpoint>
          <Trackpoint>
            <Time>2019-07-26T15:17:40.000Z</Time>
            <Position>
              <LatitudeDegrees>42.9119420237839221954345703125</LatitudeDegrees>
              <LongitudeDegrees>-8.42406573705375194549560546875</LongitudeDegrees>
            </Position>
            <AltitudeMeters>339.399993896484375</AltitudeMeters>
            <DistanceMeters>87653.241407732</DistanceMeters>
          </Trackpoint>
          <Trackpoint>
            <Time>2019-07-26T15:17:41.000Z</Time>
            <Position>
              <LatitudeDegrees>42.91192903183400630950927734375</LatitudeDegrees>
              <LongitudeDegrees>-8.4240747056901454925537109375</LongitudeDegrees>
            </Position>
            <AltitudeMeters>340.399993896484375</AltitudeMeters>
            <DistanceMeters>87654.859654366</DistanceMeters>
          </Trackpoint>
          <Trackpoint>
            <Time>2019-07-26T15:17:43.000Z</Time>
            <Position>
              <LatitudeDegrees>42.91190908290445804595947265625</LatitudeDegrees>
              <LongitudeDegrees>-8.424096666276454925537109375</LongitudeDegrees>
            </Position>
            <AltitudeMeters>341.399993896484375</AltitudeMeters>
            <DistanceMeters>87657.713621597</DistanceMeters>
          </Trackpoint>
          <Trackpoint>
            <Time>2019-07-26T15:17:44.000Z</Time>
            <Position>
              <LatitudeDegrees>42.91189047507941722869873046875</LatitudeDegrees>
              <LongitudeDegrees>-8.424110747873783111572265625</LongitudeDegrees>
            </Position>
            <AltitudeMeters>341.79998779296875</AltitudeMeters>
            <DistanceMeters>87660.083580995</DistanceMeters>
          </Trackpoint>
          <Trackpoint>
            <Time>2019-07-26T15:17:47.000Z</Time>
            <Position>
              <LatitudeDegrees>42.9118350706994533538818359375</LatitudeDegrees>
              <LongitudeDegrees>-8.4241531603038311004638671875</LongitudeDegrees>
            </Position>
            <AltitudeMeters>343.20001220703125</AltitudeMeters>
            <DistanceMeters>87667.153338637</DistanceMeters>
          </Trackpoint>
          <Trackpoint>
            <Time>2019-07-26T15:17:49.000Z</Time>
            <Position>
              <LatitudeDegrees>42.9118032194674015045166015625</LatitudeDegrees>
              <LongitudeDegrees>-8.4241653978824615478515625</LongitudeDegrees>
            </Position>
            <AltitudeMeters>344.399993896484375</AltitudeMeters>
            <DistanceMeters>87670.83616022</DistanceMeters>
          </Trackpoint>
          <Trackpoint>
            <Time>2019-07-26T15:17:51.000Z</Time>
            <Position>
              <LatitudeDegrees>42.91177514009177684783935546875</LatitudeDegrees>
              <LongitudeDegrees>-8.4241840057075023651123046875</LongitudeDegrees>
            </Position>
            <AltitudeMeters>345.20001220703125</AltitudeMeters>
            <DistanceMeters>87674.309513374</DistanceMeters>
          </Trackpoint>
          <Trackpoint>
            <Time>2019-07-26T15:17:52.000Z</Time>
            <Position>
              <LatitudeDegrees>42.91175837628543376922607421875</LatitudeDegrees>
              <LongitudeDegrees>-8.4241997636854648590087890625</LongitudeDegrees>
            </Position>
            <AltitudeMeters>345.399993896484375</AltitudeMeters>
            <DistanceMeters>87676.574261356</DistanceMeters>
          </Trackpoint>
          <Trackpoint>
            <Time>2019-07-26T15:17:53.000Z</Time>
            <Position>
              <LatitudeDegrees>42.9117385111749172210693359375</LatitudeDegrees>
              <LongitudeDegrees>-8.42421158216893672943115234375</LongitudeDegrees>
            </Position>
            <AltitudeMeters>345.600006103515625</AltitudeMeters>
            <DistanceMeters>87678.985769023</DistanceMeters>
          </Trackpoint>
          <Trackpoint>
            <Time>2019-07-26T15:17:56.000Z</Time>
            <Position>
              <LatitudeDegrees>42.9116573743522167205810546875</LatitudeDegrees>
              <LongitudeDegrees>-8.42422231100499629974365234375</LongitudeDegrees>
            </Position>
            <AltitudeMeters>346.600006103515625</AltitudeMeters>
            <DistanceMeters>87688.05870553</DistanceMeters>
          </Trackpoint>
          <Trackpoint>
            <Time>2019-07-26T15:18:00.000Z</Time>
            <Position>
              <LatitudeDegrees>42.91155637241899967193603515625</LatitudeDegrees>
              <LongitudeDegrees>-8.424222059547901153564453125</LongitudeDegrees>
            </Position>
            <AltitudeMeters>347.79998779296875</AltitudeMeters>
            <DistanceMeters>87699.300811646</DistanceMeters>
          </Trackpoint>
          <Trackpoint>
            <Time>2019-07-26T15:18:03.000Z</Time>
            <Position>
              <LatitudeDegrees>42.911476828157901763916015625</LatitudeDegrees>
              <LongitudeDegrees>-8.42421862296760082244873046875</LongitudeDegrees>
            </Position>
            <AltitudeMeters>348.399993896484375</AltitudeMeters>
            <DistanceMeters>87708.159218065</DistanceMeters>
          </Trackpoint>
          <Trackpoint>
            <Time>2019-07-26T15:18:05.000Z</Time>
            <Position>
              <LatitudeDegrees>42.91142209433019161224365234375</LatitudeDegrees>
              <LongitudeDegrees>-8.424215018749237060546875</LongitudeDegrees>
            </Position>
            <AltitudeMeters>349</AltitudeMeters>
            <DistanceMeters>87714.257978995</DistanceMeters>
          </Trackpoint>
          <Trackpoint>
            <Time>2019-07-26T15:18:10.000Z</Time>
            <Position>
              <LatitudeDegrees>42.91127356700599193572998046875</LatitudeDegrees>
              <LongitudeDegrees>-8.424196578562259674072265625</LongitudeDegrees>
            </Position>
            <AltitudeMeters>349.600006103515625</AltitudeMeters>
            <DistanceMeters>87730.857489608</DistanceMeters>
          </Trackpoint>
          <Trackpoint>
            <Time>2019-07-26T15:18:14.000Z</Time>
            <Position>
              <LatitudeDegrees>42.9111651889979839324951171875</LatitudeDegrees>
              <LongitudeDegrees>-8.4242661483585834503173828125</LongitudeDegrees>
            </Position>
            <AltitudeMeters>350</AltitudeMeters>
            <DistanceMeters>87744.18699763</DistanceMeters>
          </Trackpoint>
          <Trackpoint>
            <Time>2019-07-26T15:18:15.000Z</Time>
            <Position>
              <LatitudeDegrees>42.91113945655524730682373046875</LatitudeDegrees>
              <LongitudeDegrees>-8.4242926351726055145263671875</LongitudeDegrees>
            </Position>
            <AltitudeMeters>350.20001220703125</AltitudeMeters>
            <DistanceMeters>87747.772918552</DistanceMeters>
          </Trackpoint>
          <Trackpoint>
            <Time>2019-07-26T15:18:19.000Z</Time>
            <Position>
              <LatitudeDegrees>42.91103996336460113525390625</LatitudeDegrees>
              <LongitudeDegrees>-8.42439481057226657867431640625</LongitudeDegrees>
            </Position>
            <AltitudeMeters>350.399993896484375</AltitudeMeters>
            <DistanceMeters>87761.629234273</DistanceMeters>
          </Trackpoint>
          <Trackpoint>
            <Time>2019-07-26T15:18:20.000Z</Time>
            <Position>
              <LatitudeDegrees>42.91100886650383472442626953125</LatitudeDegrees>
              <LongitudeDegrees>-8.42440118081867694854736328125</LongitudeDegrees>
            </Position>
            <AltitudeMeters>350.399993896484375</AltitudeMeters>
            <DistanceMeters>87765.129779049</DistanceMeters>
          </Trackpoint>
          <Trackpoint>
            <Time>2019-07-26T15:18:24.000Z</Time>
            <Position>
              <LatitudeDegrees>42.910856567323207855224609375</LatitudeDegrees>
              <LongitudeDegrees>-8.42436413280665874481201171875</LongitudeDegrees>
            </Position>
            <AltitudeMeters>350.399993896484375</AltitudeMeters>
            <DistanceMeters>87782.347979877</DistanceMeters>
          </Trackpoint>
          <Trackpoint>
            <Time>2019-07-26T15:18:25.000Z</Time>
            <Position>
              <LatitudeDegrees>42.91081599891185760498046875</LatitudeDegrees>
              <LongitudeDegrees>-8.42434871010482311248779296875</LongitudeDegrees>
            </Position>
            <AltitudeMeters>350.399993896484375</AltitudeMeters>
            <DistanceMeters>87787.034251947</DistanceMeters>
          </Trackpoint>
          <Trackpoint>
            <Time>2019-07-26T15:18:27.000Z</Time>
            <Position>
              <LatitudeDegrees>42.91072991676628589630126953125</LatitudeDegrees>
              <LongitudeDegrees>-8.4243137575685977935791015625</LongitudeDegrees>
            </Position>
            <AltitudeMeters>350.399993896484375</AltitudeMeters>
            <DistanceMeters>87797.030140894</DistanceMeters>
          </Trackpoint>
          <Trackpoint>
            <Time>2019-07-26T15:18:29.000Z</Time>
            <Position>
              <LatitudeDegrees>42.91065364144742488861083984375</LatitudeDegrees>
              <LongitudeDegrees>-8.42429053969681262969970703125</LongitudeDegrees>
            </Position>
            <AltitudeMeters>350.399993896484375</AltitudeMeters>
            <DistanceMeters>87805.728070559</DistanceMeters>
          </Trackpoint>
          <Trackpoint>
            <Time>2019-07-26T15:18:30.000Z</Time>
            <Position>
              <LatitudeDegrees>42.91061751544475555419921875</LatitudeDegrees>
              <LongitudeDegrees>-8.42427511699497699737548828125</LongitudeDegrees>
            </Position>
            <AltitudeMeters>350.399993896484375</AltitudeMeters>
            <DistanceMeters>87809.940445211</DistanceMeters>
          </Trackpoint>
          <Trackpoint>
            <Time>2019-07-26T15:18:31.000Z</Time>
            <Position>
              <LatitudeDegrees>42.9105801321566104888916015625</LatitudeDegrees>
              <LongitudeDegrees>-8.42426103539764881134033203125</LongitudeDegrees>
            </Position>
            <AltitudeMeters>350.399993896484375</AltitudeMeters>
            <DistanceMeters>87814.257629221</DistanceMeters>
          </Trackpoint>
          <Trackpoint>
            <Time>2019-07-26T15:18:35.000Z</Time>
            <Position>
              <LatitudeDegrees>42.91039631702005863189697265625</LatitudeDegrees>
              <LongitudeDegrees>-8.4242071397602558135986328125</LongitudeDegrees>
            </Position>
            <AltitudeMeters>350.399993896484375</AltitudeMeters>
            <DistanceMeters>87835.183366172</DistanceMeters>
          </Trackpoint>
          <Trackpoint>
            <Time>2019-07-26T15:18:36.000Z</Time>
            <Position>
              <LatitudeDegrees>42.91034418158233165740966796875</LatitudeDegrees>
              <LongitudeDegrees>-8.4241977520287036895751953125</LongitudeDegrees>
            </Position>
            <AltitudeMeters>350.399993896484375</AltitudeMeters>
            <DistanceMeters>87841.036579822</DistanceMeters>
          </Trackpoint>
          <Trackpoint>
            <Time>2019-07-26T15:18:38.000Z</Time>
            <Position>
              <LatitudeDegrees>42.91023974306881427764892578125</LatitudeDegrees>
              <LongitudeDegrees>-8.4241719357669353485107421875</LongitudeDegrees>
            </Position>
            <AltitudeMeters>350.20001220703125</AltitudeMeters>
            <DistanceMeters>87852.84935982</DistanceMeters>
          </Trackpoint>
          <Trackpoint>
            <Time>2019-07-26T15:18:42.000Z</Time>
            <Position>
              <LatitudeDegrees>42.9100296087563037872314453125</LatitudeDegrees>
              <LongitudeDegrees>-8.4240804053843021392822265625</LongitudeDegrees>
            </Position>
            <AltitudeMeters>350</AltitudeMeters>
            <DistanceMeters>87877.399010775</DistanceMeters>
          </Trackpoint>
          <Trackpoint>
            <Time>2019-07-26T15:18:43.000Z</Time>
            <Position>
              <LatitudeDegrees>42.90997521020472049713134765625</LatitudeDegrees>
              <LongitudeDegrees>-8.4240478835999965667724609375</LongitudeDegrees>
            </Position>
            <AltitudeMeters>350</AltitudeMeters>
            <DistanceMeters>87884.008663552</DistanceMeters>
          </Trackpoint>
          <Trackpoint>
            <Time>2019-07-26T15:18:45.000Z</Time>
            <Position>
              <LatitudeDegrees>42.909864820539951324462890625</LatitudeDegrees>
              <LongitudeDegrees>-8.4239935688674449920654296875</LongitudeDegrees>
            </Position>
            <AltitudeMeters>349.79998779296875</AltitudeMeters>
            <DistanceMeters>87897.068874651</DistanceMeters>
          </Trackpoint>
          <Trackpoint>
            <Time>2019-07-26T15:18:48.000Z</Time>
            <Position>
              <LatitudeDegrees>42.90969885885715484619140625</LatitudeDegrees>
              <LongitudeDegrees>-8.423957526683807373046875</LongitudeDegrees>
            </Position>
            <AltitudeMeters>349.79998779296875</AltitudeMeters>
            <DistanceMeters>87915.772971037</DistanceMeters>
          </Trackpoint>
          <Trackpoint>
            <Time>2019-07-26T15:18:50.000Z</Time>
            <Position>
              <LatitudeDegrees>42.9095753096044063568115234375</LatitudeDegrees>
              <LongitudeDegrees>-8.4239047206938266754150390625</LongitudeDegrees>
            </Position>
            <AltitudeMeters>349.79998779296875</AltitudeMeters>
            <DistanceMeters>87930.18260593</DistanceMeters>
          </Trackpoint>
          <Trackpoint>
            <Time>2019-07-26T15:18:55.000Z</Time>
            <Position>
              <LatitudeDegrees>42.90929342620074748992919921875</LatitudeDegrees>
              <LongitudeDegrees>-8.4237957559525966644287109375</LongitudeDegrees>
            </Position>
            <AltitudeMeters>349.600006103515625</AltitudeMeters>
            <DistanceMeters>87962.790202912</DistanceMeters>
          </Trackpoint>
          <Trackpoint>
            <Time>2019-07-26T15:18:58.000Z</Time>
            <Position>
              <LatitudeDegrees>42.90913484059274196624755859375</LatitudeDegrees>
              <LongitudeDegrees>-8.4237246774137020111083984375</LongitudeDegrees>
            </Position>
            <AltitudeMeters>349.399993896484375</AltitudeMeters>
            <DistanceMeters>87981.367864813</DistanceMeters>
          </Trackpoint>
          <Trackpoint>
            <Time>2019-07-26T15:19:01.000Z</Time>
            <Position>
              <LatitudeDegrees>42.90898866020143032073974609375</LatitudeDegrees>
              <LongitudeDegrees>-8.42366659082472324371337890625</LongitudeDegrees>
            </Position>
            <AltitudeMeters>349.20001220703125</AltitudeMeters>
            <DistanceMeters>87998.313022551</DistanceMeters>
          </Trackpoint>
          <Trackpoint>
            <Time>2019-07-26T15:19:02.000Z</Time>
            <Position>
              <LatitudeDegrees>42.90894289501011371612548828125</LatitudeDegrees>
              <LongitudeDegrees>-8.42366005294024944305419921875</LongitudeDegrees>
            </Position>
            <AltitudeMeters>349.20001220703125</AltitudeMeters>
            <DistanceMeters>88003.434777335</DistanceMeters>
          </Trackpoint>
          <Trackpoint>
            <Time>2019-07-26T15:19:04.000Z</Time>
            <Position>
              <LatitudeDegrees>42.90885304100811481475830078125</LatitudeDegrees>
              <LongitudeDegrees>-8.4236566163599491119384765625</LongitudeDegrees>
            </Position>
            <AltitudeMeters>349</AltitudeMeters>
            <DistanceMeters>88013.439695994</DistanceMeters>
          </Trackpoint>
          <Trackpoint>
            <Time>2019-07-26T15:19:05.000Z</Time>
            <Position>
              <LatitudeDegrees>42.908809371292591094970703125</LatitudeDegrees>
              <LongitudeDegrees>-8.42364630661904811859130859375</LongitudeDegrees>
            </Position>
            <AltitudeMeters>349</AltitudeMeters>
            <DistanceMeters>88018.371939494</DistanceMeters>
          </Trackpoint>
          <Trackpoint>
            <Time>2019-07-26T15:19:06.000Z</Time>
            <Position>
              <LatitudeDegrees>42.90877081453800201416015625</LatitudeDegrees>
              <LongitudeDegrees>-8.4236264415085315704345703125</LongitudeDegrees>
            </Position>
            <AltitudeMeters>349</AltitudeMeters>
            <DistanceMeters>88022.957901556</DistanceMeters>
          </Trackpoint>
          <Trackpoint>
            <Time>2019-07-26T15:19:10.000Z</Time>
            <Position>
              <LatitudeDegrees>42.90869973599910736083984375</LatitudeDegrees>
              <LongitudeDegrees>-8.42350968159735202789306640625</LongitudeDegrees>
            </Position>
            <AltitudeMeters>348.79998779296875</AltitudeMeters>
            <DistanceMeters>88035.334743512</DistanceMeters>
          </Trackpoint>
          <Trackpoint>
            <Time>2019-07-26T15:19:13.000Z</Time>
            <Position>
              <LatitudeDegrees>42.9087377898395061492919921875</LatitudeDegrees>
              <LongitudeDegrees>-8.42353843152523040771484375</LongitudeDegrees>
            </Position>
            <AltitudeMeters>348.79998779296875</AltitudeMeters>
            <DistanceMeters>88040.176445532</DistanceMeters>
          </Trackpoint>
          <Trackpoint>
            <Time>2019-07-26T15:19:15.000Z</Time>
            <Position>
              <LatitudeDegrees>42.90874022059142589569091796875</LatitudeDegrees>
              <LongitudeDegrees>-8.42360724695026874542236328125</LongitudeDegrees>
            </Position>
            <AltitudeMeters>348.79998779296875</AltitudeMeters>
            <DistanceMeters>88045.793480968</DistanceMeters>
          </Trackpoint>
          <Trackpoint>
            <Time>2019-07-26T15:19:16.000Z</Time>
            <Position>
              <LatitudeDegrees>42.9087384603917598724365234375</LatitudeDegrees>
              <LongitudeDegrees>-8.4236442111432552337646484375</LongitudeDegrees>
            </Position>
            <AltitudeMeters>348.79998779296875</AltitudeMeters>
            <DistanceMeters>88048.813477195</DistanceMeters>
          </Trackpoint>
          <Trackpoint>
            <Time>2019-07-26T15:19:19.000Z</Time>
            <Position>
              <LatitudeDegrees>42.90874491445720195770263671875</LatitudeDegrees>
              <LongitudeDegrees>-8.42378611676394939422607421875</LongitudeDegrees>
            </Position>
            <AltitudeMeters>348.79998779296875</AltitudeMeters>
            <DistanceMeters>88060.404009851</DistanceMeters>
          </Trackpoint>
          <Trackpoint>
            <Time>2019-07-26T15:19:24.000Z</Time>
            <Position>
              <LatitudeDegrees>42.908800654113292694091796875</LatitudeDegrees>
              <LongitudeDegrees>-8.42413262464106082916259765625</LongitudeDegrees>
            </Position>
            <AltitudeMeters>348.600006103515625</AltitudeMeters>
            <DistanceMeters>88089.325246354</DistanceMeters>
          </Trackpoint>
          <Trackpoint>
            <Time>2019-07-26T15:19:26.000Z</Time>
            <Position>
              <LatitudeDegrees>42.90882554836571216583251953125</LatitudeDegrees>
              <LongitudeDegrees>-8.42430126853287220001220703125</LongitudeDegrees>
            </Position>
            <AltitudeMeters>348.600006103515625</AltitudeMeters>
            <DistanceMeters>88103.349657038</DistanceMeters>
          </Trackpoint>
          <Trackpoint>
            <Time>2019-07-26T15:19:27.000Z</Time>
            <Position>
              <LatitudeDegrees>42.90883652865886688232421875</LatitudeDegrees>
              <LongitudeDegrees>-8.42438793741166591644287109375</LongitudeDegrees>
            </Position>
            <AltitudeMeters>348.600006103515625</AltitudeMeters>
            <DistanceMeters>88110.518980236</DistanceMeters>
          </Trackpoint>
          <Trackpoint>
            <Time>2019-07-26T15:19:29.000Z</Time>
            <Position>
              <LatitudeDegrees>42.9088591597974300384521484375</LatitudeDegrees>
              <LongitudeDegrees>-8.4245712496340274810791015625</LongitudeDegrees>
            </Position>
            <AltitudeMeters>348.20001220703125</AltitudeMeters>
            <DistanceMeters>88125.673879255</DistanceMeters>
          </Trackpoint>
          <Trackpoint>
            <Time>2019-07-26T15:19:30.000Z</Time>
            <Position>
              <LatitudeDegrees>42.9088729061186313629150390625</LatitudeDegrees>
              <LongitudeDegrees>-8.42466588132083415985107421875</LongitudeDegrees>
            </Position>
            <AltitudeMeters>348</AltitudeMeters>
            <DistanceMeters>88133.538165209</DistanceMeters>
          </Trackpoint>
          <Trackpoint>
            <Time>2019-07-26T15:19:33.000Z</Time>
            <Position>
              <LatitudeDegrees>42.90891774930059909820556640625</LatitudeDegrees>
              <LongitudeDegrees>-8.42496343888342380523681640625</LongitudeDegrees>
            </Position>
            <AltitudeMeters>347.20001220703125</AltitudeMeters>
            <DistanceMeters>88158.303884504</DistanceMeters>
          </Trackpoint>
          <Trackpoint>
            <Time>2019-07-26T15:19:35.000Z</Time>
            <Position>
              <LatitudeDegrees>42.90897223167121410369873046875</LatitudeDegrees>
              <LongitudeDegrees>-8.4251603297889232635498046875</LongitudeDegrees>
            </Position>
            <AltitudeMeters>346.399993896484375</AltitudeMeters>
            <DistanceMeters>88175.461930787</DistanceMeters>
          </Trackpoint>
          <Trackpoint>
            <Time>2019-07-26T15:19:36.000Z</Time>
            <Position>
              <LatitudeDegrees>42.9090046696364879608154296875</LatitudeDegrees>
              <LongitudeDegrees>-8.42525864951312541961669921875</LongitudeDegrees>
            </Position>
            <AltitudeMeters>346.20001220703125</AltitudeMeters>
            <DistanceMeters>88184.252800721</DistanceMeters>
          </Trackpoint>
          <Trackpoint>
            <Time>2019-07-26T15:19:37.000Z</Time>
            <Position>
              <LatitudeDegrees>42.909029982984066009521484375</LatitudeDegrees>
              <LongitudeDegrees>-8.4253625012934207916259765625</LongitudeDegrees>
            </Position>
            <AltitudeMeters>346</AltitudeMeters>
            <DistanceMeters>88193.174690872</DistanceMeters>
          </Trackpoint>
          <Trackpoint>
            <Time>2019-07-26T15:19:38.000Z</Time>
            <Position>
              <LatitudeDegrees>42.9090504348278045654296875</LatitudeDegrees>
              <LongitudeDegrees>-8.42546819709241390228271484375</LongitudeDegrees>
            </Position>
            <AltitudeMeters>345.79998779296875</AltitudeMeters>
            <DistanceMeters>88202.086960639</DistanceMeters>
          </Trackpoint>
          <Trackpoint>
            <Time>2019-07-26T15:19:39.000Z</Time>
            <Position>
              <LatitudeDegrees>42.90905839763581752777099609375</LatitudeDegrees>
              <LongitudeDegrees>-8.42557950876653194427490234375</LongitudeDegrees>
            </Position>
            <AltitudeMeters>345.600006103515625</AltitudeMeters>
            <DistanceMeters>88211.204574567</DistanceMeters>
          </Trackpoint>
          <Trackpoint>
            <Time>2019-07-26T15:19:40.000Z</Time>
            <Position>
              <LatitudeDegrees>42.9090579785406589508056640625</LatitudeDegrees>
              <LongitudeDegrees>-8.42568092979490756988525390625</LongitudeDegrees>
            </Position>
            <AltitudeMeters>345</AltitudeMeters>
            <DistanceMeters>88219.472990906</DistanceMeters>
          </Trackpoint>
          <Trackpoint>
            <Time>2019-07-26T15:19:43.000Z</Time>
            <Position>
              <LatitudeDegrees>42.909004501998424530029296875</LatitudeDegrees>
              <LongitudeDegrees>-8.4259582869708538055419921875</LongitudeDegrees>
            </Position>
            <AltitudeMeters>343.79998779296875</AltitudeMeters>
            <DistanceMeters>88242.853811417</DistanceMeters>
          </Trackpoint>
          <Trackpoint>
            <Time>2019-07-26T15:19:44.000Z</Time>
            <Position>
              <LatitudeDegrees>42.90898941457271575927734375</LatitudeDegrees>
              <LongitudeDegrees>-8.4260370768606662750244140625</LongitudeDegrees>
            </Position>
            <AltitudeMeters>343.399993896484375</AltitudeMeters>
            <DistanceMeters>88249.492772414</DistanceMeters>
          </Trackpoint>
          <Trackpoint>
            <Time>2019-07-26T15:19:45.000Z</Time>
            <Position>
              <LatitudeDegrees>42.9089691303670406341552734375</LatitudeDegrees>
              <LongitudeDegrees>-8.4261071495711803436279296875</LongitudeDegrees>
            </Position>
            <AltitudeMeters>343.20001220703125</AltitudeMeters>
            <DistanceMeters>88255.635056955</DistanceMeters>
          </Trackpoint>
          <Trackpoint>
            <Time>2019-07-26T15:19:47.000Z</Time>
            <Position>
              <LatitudeDegrees>42.90890433825552463531494140625</LatitudeDegrees>
              <LongitudeDegrees>-8.42621301300823688507080078125</LongitudeDegrees>
            </Position>
            <AltitudeMeters>342.600006103515625</AltitudeMeters>
            <DistanceMeters>88266.88198146</DistanceMeters>
          </Trackpoint>
          <Trackpoint>
            <Time>2019-07-26T15:19:50.000Z</Time>
            <Position>
              <LatitudeDegrees>42.90874742902815341949462890625</LatitudeDegrees>
              <LongitudeDegrees>-8.42626816593110561370849609375</LongitudeDegrees>
            </Position>
            <AltitudeMeters>342</AltitudeMeters>
            <DistanceMeters>88284.916039052</DistanceMeters>
          </Trackpoint>
          <Trackpoint>
            <Time>2019-07-26T15:19:52.000Z</Time>
            <Position>
              <LatitudeDegrees>42.9086412303149700164794921875</LatitudeDegrees>
              <LongitudeDegrees>-8.42628610320389270782470703125</LongitudeDegrees>
            </Position>
            <AltitudeMeters>341.399993896484375</AltitudeMeters>
            <DistanceMeters>88296.826264526</DistanceMeters>
          </Trackpoint>
          <Trackpoint>
            <Time>2019-07-26T15:19:54.000Z</Time>
            <Position>
              <LatitudeDegrees>42.9085433296859264373779296875</LatitudeDegrees>
              <LongitudeDegrees>-8.4263529069721698760986328125</LongitudeDegrees>
            </Position>
            <AltitudeMeters>341</AltitudeMeters>
            <DistanceMeters>88309.007859094</DistanceMeters>
          </Trackpoint>
          <Trackpoint>
            <Time>2019-07-26T15:19:57.000Z</Time>
            <Position>
              <LatitudeDegrees>42.9084444232285022735595703125</LatitudeDegrees>
              <LongitudeDegrees>-8.42650629580020904541015625</LongitudeDegrees>
            </Position>
            <AltitudeMeters>340.79998779296875</AltitudeMeters>
            <DistanceMeters>88325.667643894</DistanceMeters>
          </Trackpoint>
          <Trackpoint>
            <Time>2019-07-26T15:20:00.000Z</Time>
            <Position>
              <LatitudeDegrees>42.90837812237441539764404296875</LatitudeDegrees>
              <LongitudeDegrees>-8.42665054835379123687744140625</LongitudeDegrees>
            </Position>
            <AltitudeMeters>340.79998779296875</AltitudeMeters>
            <DistanceMeters>88339.551303778</DistanceMeters>
          </Trackpoint>
          <Trackpoint>
            <Time>2019-07-26T15:20:02.000Z</Time>
            <Position>
              <LatitudeDegrees>42.90835699997842311859130859375</LatitudeDegrees>
              <LongitudeDegrees>-8.42672196216881275177001953125</LongitudeDegrees>
            </Position>
            <AltitudeMeters>340.79998779296875</AltitudeMeters>
            <DistanceMeters>88345.829542677</DistanceMeters>
          </Trackpoint>
          <Trackpoint>
            <Time>2019-07-26T15:20:04.000Z</Time>
            <Position>
              <LatitudeDegrees>42.90835180319845676422119140625</LatitudeDegrees>
              <LongitudeDegrees>-8.42677242122590541839599609375</LongitudeDegrees>
            </Position>
            <AltitudeMeters>340.79998779296875</AltitudeMeters>
            <DistanceMeters>88349.984720912</DistanceMeters>
          </Trackpoint>
          <Trackpoint>
            <Time>2019-07-26T15:20:06.000Z</Time>
            <Position>
              <LatitudeDegrees>42.9083180241286754608154296875</LatitudeDegrees>
              <LongitudeDegrees>-8.42680628411471843719482421875</LongitudeDegrees>
            </Position>
            <AltitudeMeters>341.20001220703125</AltitudeMeters>
            <DistanceMeters>88354.649748696</DistanceMeters>
          </Trackpoint>
          <Trackpoint>
            <Time>2019-07-26T15:20:08.000Z</Time>
            <Position>
              <LatitudeDegrees>42.90829547680914402008056640625</LatitudeDegrees>
              <LongitudeDegrees>-8.42683662660419940948486328125</LongitudeDegrees>
            </Position>
            <AltitudeMeters>341.600006103515625</AltitudeMeters>
            <DistanceMeters>88358.17471468</DistanceMeters>
          </Trackpoint>
          <Trackpoint>
            <Time>2019-07-26T15:20:10.000Z</Time>
            <Position>
              <LatitudeDegrees>42.908280305564403533935546875</LatitudeDegrees>
              <LongitudeDegrees>-8.42686428688466548919677734375</LongitudeDegrees>
            </Position>
            <AltitudeMeters>342.20001220703125</AltitudeMeters>
            <DistanceMeters>88360.992060451</DistanceMeters>
          </Trackpoint>
          <Trackpoint>
            <Time>2019-07-26T15:20:11.000Z</Time>
            <Position>
              <LatitudeDegrees>42.90826882235705852508544921875</LatitudeDegrees>
              <LongitudeDegrees>-8.42687719501554965972900390625</LongitudeDegrees>
            </Position>
            <AltitudeMeters>342.600006103515625</AltitudeMeters>
            <DistanceMeters>88362.648907831</DistanceMeters>
          </Trackpoint>
          <Trackpoint>
            <Time>2019-07-26T15:20:14.000Z</Time>
            <Position>
              <LatitudeDegrees>42.90823009796440601348876953125</LatitudeDegrees>
              <LongitudeDegrees>-8.4269171766936779022216796875</LongitudeDegrees>
            </Position>
            <AltitudeMeters>343.79998779296875</AltitudeMeters>
            <DistanceMeters>88368.05291257</DistanceMeters>
          </Trackpoint>
          <Trackpoint>
            <Time>2019-07-26T15:20:16.000Z</Time>
            <Position>
              <LatitudeDegrees>42.90820528753101825714111328125</LatitudeDegrees>
              <LongitudeDegrees>-8.42694223858416080474853515625</LongitudeDegrees>
            </Position>
            <AltitudeMeters>344.399993896484375</AltitudeMeters>
            <DistanceMeters>88371.48704708</DistanceMeters>
          </Trackpoint>
          <Trackpoint>
            <Time>2019-07-26T15:20:17.000Z</Time>
            <Position>
              <LatitudeDegrees>42.90819740854203701019287109375</LatitudeDegrees>
              <LongitudeDegrees>-8.42695824801921844482421875</LongitudeDegrees>
            </Position>
            <AltitudeMeters>344.79998779296875</AltitudeMeters>
            <DistanceMeters>88373.06001909</DistanceMeters>
          </Trackpoint>
          <Trackpoint>
            <Time>2019-07-26T15:20:21.000Z</Time>
            <Position>
              <LatitudeDegrees>42.90814326144754886627197265625</LatitudeDegrees>
              <LongitudeDegrees>-8.4269922785460948944091796875</LongitudeDegrees>
            </Position>
            <AltitudeMeters>346.20001220703125</AltitudeMeters>
            <DistanceMeters>88379.694217805</DistanceMeters>
          </Trackpoint>
          <Trackpoint>
            <Time>2019-07-26T15:20:24.000Z</Time>
            <Position>
              <LatitudeDegrees>42.9081143438816070556640625</LatitudeDegrees>
              <LongitudeDegrees>-8.42703795991837978363037109375</LongitudeDegrees>
            </Position>
            <AltitudeMeters>347.399993896484375</AltitudeMeters>
            <DistanceMeters>88384.616381466</DistanceMeters>
          </Trackpoint>
          <Trackpoint>
            <Time>2019-07-26T15:20:26.000Z</Time>
            <Position>
              <LatitudeDegrees>42.9080917127430438995361328125</LatitudeDegrees>
              <LongitudeDegrees>-8.42705841176211833953857421875</LongitudeDegrees>
            </Position>
            <AltitudeMeters>348</AltitudeMeters>
            <DistanceMeters>88387.63787237</DistanceMeters>
          </Trackpoint>
          <Trackpoint>
            <Time>2019-07-26T15:20:28.000Z</Time>
            <Position>
              <LatitudeDegrees>42.90806212462484836578369140625</LatitudeDegrees>
              <LongitudeDegrees>-8.42706779949367046356201171875</LongitudeDegrees>
            </Position>
            <AltitudeMeters>348.600006103515625</AltitudeMeters>
            <DistanceMeters>88391.020342895</DistanceMeters>
          </Trackpoint>
          <Trackpoint>
            <Time>2019-07-26T15:20:31.000Z</Time>
            <Position>
              <LatitudeDegrees>42.9080350510776042938232421875</LatitudeDegrees>
              <LongitudeDegrees>-8.42712110839784145355224609375</LongitudeDegrees>
            </Position>
            <AltitudeMeters>349.600006103515625</AltitudeMeters>
            <DistanceMeters>88396.309499428</DistanceMeters>
          </Trackpoint>
          <Trackpoint>
            <Time>2019-07-26T15:20:32.000Z</Time>
            <Position>
              <LatitudeDegrees>42.9080276750028133392333984375</LatitudeDegrees>
              <LongitudeDegrees>-8.42714323662221431732177734375</LongitudeDegrees>
            </Position>
            <AltitudeMeters>350</AltitudeMeters>
            <DistanceMeters>88398.293715477</DistanceMeters>
          </Trackpoint>
          <Trackpoint>
            <Time>2019-07-26T15:20:36.000Z</Time>
            <Position>
              <LatitudeDegrees>42.90798199363052845001220703125</LatitudeDegrees>
              <LongitudeDegrees>-8.4271947853267192840576171875</LongitudeDegrees>
            </Position>
            <AltitudeMeters>351</AltitudeMeters>
            <DistanceMeters>88404.889692152</DistanceMeters>
          </Trackpoint>
          <Trackpoint>
            <Time>2019-07-26T15:20:39.000Z</Time>
            <Position>
              <LatitudeDegrees>42.90793455205857753753662109375</LatitudeDegrees>
              <LongitudeDegrees>-8.427223451435565948486328125</LongitudeDegrees>
            </Position>
            <AltitudeMeters>351.600006103515625</AltitudeMeters>
            <DistanceMeters>88410.664471136</DistanceMeters>
          </Trackpoint>
          <Trackpoint>
            <Time>2019-07-26T15:20:41.000Z</Time>
            <Position>
              <LatitudeDegrees>42.90790605358779430389404296875</LatitudeDegrees>
              <LongitudeDegrees>-8.42724264599382877349853515625</LongitudeDegrees>
            </Position>
            <AltitudeMeters>352</AltitudeMeters>
            <DistanceMeters>88414.202222675</DistanceMeters>
          </Trackpoint>
          <Trackpoint>
            <Time>2019-07-26T15:20:46.000Z</Time>
            <Position>
              <LatitudeDegrees>42.90783514268696308135986328125</LatitudeDegrees>
              <LongitudeDegrees>-8.42728707008063793182373046875</LongitudeDegrees>
            </Position>
            <AltitudeMeters>353.20001220703125</AltitudeMeters>
            <DistanceMeters>88422.886125506</DistanceMeters>
          </Trackpoint>
          <Trackpoint>
            <Time>2019-07-26T15:20:50.000Z</Time>
            <Position>
              <LatitudeDegrees>42.907778732478618621826171875</LatitudeDegrees>
              <LongitudeDegrees>-8.4273258782923221588134765625</LongitudeDegrees>
            </Position>
            <AltitudeMeters>354.399993896484375</AltitudeMeters>
            <DistanceMeters>88429.916818107</DistanceMeters>
          </Trackpoint>
          <Trackpoint>
            <Time>2019-07-26T15:20:53.000Z</Time>
            <Position>
              <LatitudeDegrees>42.90773816406726837158203125</LatitudeDegrees>
              <LongitudeDegrees>-8.427365608513355255126953125</LongitudeDegrees>
            </Position>
            <AltitudeMeters>354.79998779296875</AltitudeMeters>
            <DistanceMeters>88435.472428001</DistanceMeters>
          </Trackpoint>
          <Trackpoint>
            <Time>2019-07-26T15:20:55.000Z</Time>
            <Position>
              <LatitudeDegrees>42.90771645493805408477783203125</LatitudeDegrees>
              <LongitudeDegrees>-8.4273832105100154876708984375</LongitudeDegrees>
            </Position>
            <AltitudeMeters>355.399993896484375</AltitudeMeters>
            <DistanceMeters>88438.283356119</DistanceMeters>
          </Trackpoint>
          <Trackpoint>
            <Time>2019-07-26T15:21:01.000Z</Time>
            <Position>
              <LatitudeDegrees>42.90761034004390239715576171875</LatitudeDegrees>
              <LongitudeDegrees>-8.4274435602128505706787109375</LongitudeDegrees>
            </Position>
            <AltitudeMeters>356.600006103515625</AltitudeMeters>
            <DistanceMeters>88451.077777786</DistanceMeters>
          </Trackpoint>
          <Trackpoint>
            <Time>2019-07-26T15:21:05.000Z</Time>
            <Position>
              <LatitudeDegrees>42.90751964785158634185791015625</LatitudeDegrees>
              <LongitudeDegrees>-8.42750717885792255401611328125</LongitudeDegrees>
            </Position>
            <AltitudeMeters>357.79998779296875</AltitudeMeters>
            <DistanceMeters>88462.426609458</DistanceMeters>
          </Trackpoint>
          <Trackpoint>
            <Time>2019-07-26T15:21:07.000Z</Time>
            <Position>
              <LatitudeDegrees>42.90747757069766521453857421875</LatitudeDegrees>
              <LongitudeDegrees>-8.427550680935382843017578125</LongitudeDegrees>
            </Position>
            <AltitudeMeters>358</AltitudeMeters>
            <DistanceMeters>88468.301381978</DistanceMeters>
          </Trackpoint>
          <Trackpoint>
            <Time>2019-07-26T15:21:11.000Z</Time>
            <Position>
              <LatitudeDegrees>42.90741772390902042388916015625</LatitudeDegrees>
              <LongitudeDegrees>-8.4276554547250270843505859375</LongitudeDegrees>
            </Position>
            <AltitudeMeters>358.79998779296875</AltitudeMeters>
            <DistanceMeters>88479.133593817</DistanceMeters>
          </Trackpoint>
          <Trackpoint>
            <Time>2019-07-26T15:21:14.000Z</Time>
            <Position>
              <LatitudeDegrees>42.90736131370067596435546875</LatitudeDegrees>
              <LongitudeDegrees>-8.4277198277413845062255859375</LongitudeDegrees>
            </Position>
            <AltitudeMeters>359.399993896484375</AltitudeMeters>
            <DistanceMeters>88487.316381657</DistanceMeters>
          </Trackpoint>
          <Trackpoint>
            <Time>2019-07-26T15:21:17.000Z</Time>
            <Position>
              <LatitudeDegrees>42.9072880558669567108154296875</LatitudeDegrees>
              <LongitudeDegrees>-8.427772633731365203857421875</LongitudeDegrees>
            </Position>
            <AltitudeMeters>359.79998779296875</AltitudeMeters>
            <DistanceMeters>88496.537401112</DistanceMeters>
          </Trackpoint>
          <Trackpoint>
            <Time>2019-07-26T15:21:20.000Z</Time>
            <Position>
              <LatitudeDegrees>42.9072439670562744140625</LatitudeDegrees>
              <LongitudeDegrees>-8.42784882523119449615478515625</LongitudeDegrees>
            </Position>
            <AltitudeMeters>360</AltitudeMeters>
            <DistanceMeters>88504.453759525</DistanceMeters>
          </Trackpoint>
          <Trackpoint>
            <Time>2019-07-26T15:21:23.000Z</Time>
            <Position>
              <LatitudeDegrees>42.907159142196178436279296875</LatitudeDegrees>
              <LongitudeDegrees>-8.42792862094938755035400390625</LongitudeDegrees>
            </Position>
            <AltitudeMeters>360.20001220703125</AltitudeMeters>
            <DistanceMeters>88515.919353834</DistanceMeters>
          </Trackpoint>
          <Trackpoint>
            <Time>2019-07-26T15:21:24.000Z</Time>
            <Position>
              <LatitudeDegrees>42.90711991488933563232421875</LatitudeDegrees>
              <LongitudeDegrees>-8.42797773890197277069091796875</LongitudeDegrees>
            </Position>
            <AltitudeMeters>360.399993896484375</AltitudeMeters>
            <DistanceMeters>88521.843871295</DistanceMeters>
          </Trackpoint>
          <Trackpoint>
            <Time>2019-07-26T15:21:26.000Z</Time>
            <Position>
              <LatitudeDegrees>42.90704556740820407867431640625</LatitudeDegrees>
              <LongitudeDegrees>-8.42813573777675628662109375</LongitudeDegrees>
            </Position>
            <AltitudeMeters>360.399993896484375</AltitudeMeters>
            <DistanceMeters>88537.153497815</DistanceMeters>
          </Trackpoint>
          <Trackpoint>
            <Time>2019-07-26T15:21:27.000Z</Time>
            <Position>
              <LatitudeDegrees>42.9070092737674713134765625</LatitudeDegrees>
              <LongitudeDegrees>-8.42823238112032413482666015625</LongitudeDegrees>
            </Position>
            <AltitudeMeters>360.399993896484375</AltitudeMeters>
            <DistanceMeters>88546.007825778</DistanceMeters>
          </Trackpoint>
          <Trackpoint>
            <Time>2019-07-26T15:21:30.000Z</Time>
            <Position>
              <LatitudeDegrees>42.90688865818083286285400390625</LatitudeDegrees>
              <LongitudeDegrees>-8.428548462688922882080078125</LongitudeDegrees>
            </Position>
            <AltitudeMeters>360.399993896484375</AltitudeMeters>
            <DistanceMeters>88575.063477153</DistanceMeters>
          </Trackpoint>
          <Trackpoint>
            <Time>2019-07-26T15:21:32.000Z</Time>
            <Position>
              <LatitudeDegrees>42.90680953301489353179931640625</LatitudeDegrees>
              <LongitudeDegrees>-8.42878072522580623626708984375</LongitudeDegrees>
            </Position>
            <AltitudeMeters>360.20001220703125</AltitudeMeters>
            <DistanceMeters>88595.946448967</DistanceMeters>
          </Trackpoint>
          <Trackpoint>
            <Time>2019-07-26T15:21:36.000Z</Time>
            <Position>
              <LatitudeDegrees>42.9066386260092258453369140625</LatitudeDegrees>
              <LongitudeDegrees>-8.42925396747887134552001953125</LongitudeDegrees>
            </Position>
            <AltitudeMeters>359.600006103515625</AltitudeMeters>
            <DistanceMeters>88638.961968306</DistanceMeters>
          </Trackpoint>
          <Trackpoint>
            <Time>2019-07-26T15:21:37.000Z</Time>
            <Position>
              <LatitudeDegrees>42.9065947048366069793701171875</LatitudeDegrees>
              <LongitudeDegrees>-8.429359160363674163818359375</LongitudeDegrees>
            </Position>
            <AltitudeMeters>359</AltitudeMeters>
            <DistanceMeters>88648.83377589</DistanceMeters>
          </Trackpoint>
          <Trackpoint>
            <Time>2019-07-26T15:21:38.000Z</Time>
            <Position>
              <LatitudeDegrees>42.9065450839698314666748046875</LatitudeDegrees>
              <LongitudeDegrees>-8.42946477234363555908203125</LongitudeDegrees>
            </Position>
            <AltitudeMeters>358.600006103515625</AltitudeMeters>
            <DistanceMeters>88659.063171074</DistanceMeters>
          </Trackpoint>
          <Trackpoint>
            <Time>2019-07-26T15:21:40.000Z</Time>
            <Position>
              <LatitudeDegrees>42.9064341075718402862548828125</LatitudeDegrees>
              <LongitudeDegrees>-8.4296671114861965179443359375</LongitudeDegrees>
            </Position>
            <AltitudeMeters>357.79998779296875</AltitudeMeters>
            <DistanceMeters>88679.670826571</DistanceMeters>
          </Trackpoint>
          <Trackpoint>
            <Time>2019-07-26T15:21:41.000Z</Time>
            <Position>
              <LatitudeDegrees>42.906366549432277679443359375</LatitudeDegrees>
              <LongitudeDegrees>-8.42974699102342128753662109375</LongitudeDegrees>
            </Position>
            <AltitudeMeters>357.20001220703125</AltitudeMeters>
            <DistanceMeters>88689.61872121</DistanceMeters>
          </Trackpoint>
          <Trackpoint>
            <Time>2019-07-26T15:21:42.000Z</Time>
            <Position>
              <LatitudeDegrees>42.90629647672176361083984375</LatitudeDegrees>
              <LongitudeDegrees>-8.42981924302875995635986328125</LongitudeDegrees>
            </Position>
            <AltitudeMeters>356.20001220703125</AltitudeMeters>
            <DistanceMeters>88699.392162192</DistanceMeters>
          </Trackpoint>
          <Trackpoint>
            <Time>2019-07-26T15:21:43.000Z</Time>
            <Position>
              <LatitudeDegrees>42.9062285833060741424560546875</LatitudeDegrees>
              <LongitudeDegrees>-8.42988814227283000946044921875</LongitudeDegrees>
            </Position>
            <AltitudeMeters>355.79998779296875</AltitudeMeters>
            <DistanceMeters>88708.807962239</DistanceMeters>
          </Trackpoint>
          <Trackpoint>
            <Time>2019-07-26T15:21:45.000Z</Time>
            <Position>
              <LatitudeDegrees>42.90608969517052173614501953125</LatitudeDegrees>
              <LongitudeDegrees>-8.4300349093973636627197265625</LongitudeDegrees>
            </Position>
            <AltitudeMeters>354</AltitudeMeters>
            <DistanceMeters>88728.355768121</DistanceMeters>
          </Trackpoint>
          <Trackpoint>
            <Time>2019-07-26T15:21:46.000Z</Time>
            <Position>
              <LatitudeDegrees>42.9060408286750316619873046875</LatitudeDegrees>
              <LongitudeDegrees>-8.4301100112497806549072265625</LongitudeDegrees>
            </Position>
            <AltitudeMeters>352.79998779296875</AltitudeMeters>
            <DistanceMeters>88736.545174556</DistanceMeters>
          </Trackpoint>
          <Trackpoint>
            <Time>2019-07-26T15:21:47.000Z</Time>
            <Position>
              <LatitudeDegrees>42.90598668158054351806640625</LatitudeDegrees>
              <LongitudeDegrees>-8.4301723726093769073486328125</LongitudeDegrees>
            </Position>
            <AltitudeMeters>351.79998779296875</AltitudeMeters>
            <DistanceMeters>88744.429529079</DistanceMeters>
          </Trackpoint>
          <Trackpoint>
            <Time>2019-07-26T15:21:49.000Z</Time>
            <Position>
              <LatitudeDegrees>42.90586656890809535980224609375</LatitudeDegrees>
              <LongitudeDegrees>-8.43028552830219268798828125</LongitudeDegrees>
            </Position>
            <AltitudeMeters>349.79998779296875</AltitudeMeters>
            <DistanceMeters>88760.672149353</DistanceMeters>
          </Trackpoint>
          <Trackpoint>
            <Time>2019-07-26T15:21:51.000Z</Time>
            <Position>
              <LatitudeDegrees>42.90577151812613010406494140625</LatitudeDegrees>
              <LongitudeDegrees>-8.43041318468749523162841796875</LongitudeDegrees>
            </Position>
            <AltitudeMeters>348.79998779296875</AltitudeMeters>
            <DistanceMeters>88775.512146129</DistanceMeters>
          </Trackpoint>
          <Trackpoint>
            <Time>2019-07-26T15:21:52.000Z</Time>
            <Position>
              <LatitudeDegrees>42.90573455393314361572265625</LatitudeDegrees>
              <LongitudeDegrees>-8.43047998845577239990234375</LongitudeDegrees>
            </Position>
            <AltitudeMeters>348.600006103515625</AltitudeMeters>
            <DistanceMeters>88782.337551932</DistanceMeters>
          </Trackpoint>
          <Trackpoint>
            <Time>2019-07-26T15:21:57.000Z</Time>
            <Position>
              <LatitudeDegrees>42.90558569133281707763671875</LatitudeDegrees>
              <LongitudeDegrees>-8.43077997677028179168701171875</LongitudeDegrees>
            </Position>
            <AltitudeMeters>348.399993896484375</AltitudeMeters>
            <DistanceMeters>88811.878329807</DistanceMeters>
          </Trackpoint>
          <Trackpoint>
            <Time>2019-07-26T15:21:59.000Z</Time>
            <Position>
              <LatitudeDegrees>42.905535735189914703369140625</LatitudeDegrees>
              <LongitudeDegrees>-8.43088810332119464874267578125</LongitudeDegrees>
            </Position>
            <AltitudeMeters>348.399993896484375</AltitudeMeters>
            <DistanceMeters>88822.300122334</DistanceMeters>
          </Trackpoint>
          <Trackpoint>
            <Time>2019-07-26T15:22:04.000Z</Time>
            <Position>
              <LatitudeDegrees>42.90545686148107051849365234375</LatitudeDegrees>
              <LongitudeDegrees>-8.4311644546687602996826171875</LongitudeDegrees>
            </Position>
            <AltitudeMeters>349</AltitudeMeters>
            <DistanceMeters>88846.479893413</DistanceMeters>
          </Trackpoint>
          <Trackpoint>
            <Time>2019-07-26T15:22:08.000Z</Time>
            <Position>
              <LatitudeDegrees>42.90544780902564525604248046875</LatitudeDegrees>
              <LongitudeDegrees>-8.43139252625405788421630859375</LongitudeDegrees>
            </Position>
            <AltitudeMeters>349.79998779296875</AltitudeMeters>
            <DistanceMeters>88865.100765447</DistanceMeters>
          </Trackpoint>
          <Trackpoint>
            <Time>2019-07-26T15:22:09.000Z</Time>
            <Position>
              <LatitudeDegrees>42.90544847957789897918701171875</LatitudeDegrees>
              <LongitudeDegrees>-8.4314584918320178985595703125</LongitudeDegrees>
            </Position>
            <AltitudeMeters>349.79998779296875</AltitudeMeters>
            <DistanceMeters>88870.479646829</DistanceMeters>
          </Trackpoint>
          <Trackpoint>
            <Time>2019-07-26T15:22:11.000Z</Time>
            <Position>
              <LatitudeDegrees>42.9054286144673824310302734375</LatitudeDegrees>
              <LongitudeDegrees>-8.4316023252904415130615234375</LongitudeDegrees>
            </Position>
            <AltitudeMeters>349.79998779296875</AltitudeMeters>
            <DistanceMeters>88882.412217607</DistanceMeters>
          </Trackpoint>
          <Trackpoint>
            <Time>2019-07-26T15:22:13.000Z</Time>
            <Position>
              <LatitudeDegrees>42.90538812987506389617919921875</LatitudeDegrees>
              <LongitudeDegrees>-8.4317662753164768218994140625</LongitudeDegrees>
            </Position>
            <AltitudeMeters>349.79998779296875</AltitudeMeters>
            <DistanceMeters>88896.517204109</DistanceMeters>
          </Trackpoint>
          <Trackpoint>
            <Time>2019-07-26T15:22:16.000Z</Time>
            <Position>
              <LatitudeDegrees>42.90527933277189731597900390625</LatitudeDegrees>
              <LongitudeDegrees>-8.4320603124797344207763671875</LongitudeDegrees>
            </Position>
            <AltitudeMeters>349.79998779296875</AltitudeMeters>
            <DistanceMeters>88923.37397953</DistanceMeters>
          </Trackpoint>
          <Trackpoint>
            <Time>2019-07-26T15:22:17.000Z</Time>
            <Position>
              <LatitudeDegrees>42.905234992504119873046875</LatitudeDegrees>
              <LongitudeDegrees>-8.4321689419448375701904296875</LongitudeDegrees>
            </Position>
            <AltitudeMeters>349.600006103515625</AltitudeMeters>
            <DistanceMeters>88933.51293363</DistanceMeters>
          </Trackpoint>
          <Trackpoint>
            <Time>2019-07-26T15:22:21.000Z</Time>
            <Position>
              <LatitudeDegrees>42.9050123691558837890625</LatitudeDegrees>
              <LongitudeDegrees>-8.43257688917219638824462890625</LongitudeDegrees>
            </Position>
            <AltitudeMeters>348.600006103515625</AltitudeMeters>
            <DistanceMeters>88974.987059799</DistanceMeters>
          </Trackpoint>
          <Trackpoint>
            <Time>2019-07-26T15:22:22.000Z</Time>
            <Position>
              <LatitudeDegrees>42.90494523011147975921630859375</LatitudeDegrees>
              <LongitudeDegrees>-8.43266841955482959747314453125</LongitudeDegrees>
            </Position>
            <AltitudeMeters>347.20001220703125</AltitudeMeters>
            <DistanceMeters>88985.547431198</DistanceMeters>
          </Trackpoint>
          <Trackpoint>
            <Time>2019-07-26T15:22:23.000Z</Time>
            <Position>
              <LatitudeDegrees>42.904879264533519744873046875</LatitudeDegrees>
              <LongitudeDegrees>-8.432757854461669921875</LongitudeDegrees>
            </Position>
            <AltitudeMeters>346.20001220703125</AltitudeMeters>
            <DistanceMeters>88995.895312454</DistanceMeters>
          </Trackpoint>
          <Trackpoint>
            <Time>2019-07-26T15:22:25.000Z</Time>
            <Position>
              <LatitudeDegrees>42.904753200709819793701171875</LatitudeDegrees>
              <LongitudeDegrees>-8.43293479643762111663818359375</LongitudeDegrees>
            </Position>
            <AltitudeMeters>344.600006103515625</AltitudeMeters>
            <DistanceMeters>89016.019448916</DistanceMeters>
          </Trackpoint>
          <Trackpoint>
            <Time>2019-07-26T15:22:28.000Z</Time>
            <Position>
              <LatitudeDegrees>42.904568798840045928955078125</LatitudeDegrees>
              <LongitudeDegrees>-8.43319446779787540435791015625</LongitudeDegrees>
            </Position>
            <AltitudeMeters>343.20001220703125</AltitudeMeters>
            <DistanceMeters>89045.505612115</DistanceMeters>
          </Trackpoint>
          <Trackpoint>
            <Time>2019-07-26T15:22:29.000Z</Time>
            <Position>
              <LatitudeDegrees>42.90452395565807819366455078125</LatitudeDegrees>
              <LongitudeDegrees>-8.43329002149403095245361328125</LongitudeDegrees>
            </Position>
            <AltitudeMeters>342.79998779296875</AltitudeMeters>
            <DistanceMeters>89054.757915865</DistanceMeters>
          </Trackpoint>
          <Trackpoint>
            <Time>2019-07-26T15:22:32.000Z</Time>
            <Position>
              <LatitudeDegrees>42.90440090931951999664306640625</LatitudeDegrees>
              <LongitudeDegrees>-8.43355455435812473297119140625</LongitudeDegrees>
            </Position>
            <AltitudeMeters>341.79998779296875</AltitudeMeters>
            <DistanceMeters>89080.305791029</DistanceMeters>
          </Trackpoint>
          <Trackpoint>
            <Time>2019-07-26T15:22:33.000Z</Time>
            <Position>
              <LatitudeDegrees>42.9043765179812908172607421875</LatitudeDegrees>
              <LongitudeDegrees>-8.43364189378917217254638671875</LongitudeDegrees>
            </Position>
            <AltitudeMeters>341.600006103515625</AltitudeMeters>
            <DistanceMeters>89087.926909824</DistanceMeters>
          </Trackpoint>
          <Trackpoint>
            <Time>2019-07-26T15:22:34.000Z</Time>
            <Position>
              <LatitudeDegrees>42.90435715578496456146240234375</LatitudeDegrees>
              <LongitudeDegrees>-8.43373895622789859771728515625</LongitudeDegrees>
            </Position>
            <AltitudeMeters>341.20001220703125</AltitudeMeters>
            <DistanceMeters>89096.128986969</DistanceMeters>
          </Trackpoint>
          <Trackpoint>
            <Time>2019-07-26T15:22:36.000Z</Time>
            <Position>
              <LatitudeDegrees>42.90430225431919097900390625</LatitudeDegrees>
              <LongitudeDegrees>-8.4339301474392414093017578125</LongitudeDegrees>
            </Position>
            <AltitudeMeters>340.79998779296875</AltitudeMeters>
            <DistanceMeters>89112.871496727</DistanceMeters>
          </Trackpoint>
          <Trackpoint>
            <Time>2019-07-26T15:22:37.000Z</Time>
            <Position>
              <LatitudeDegrees>42.90427652187645435333251953125</LatitudeDegrees>
              <LongitudeDegrees>-8.43402511440217494964599609375</LongitudeDegrees>
            </Position>
            <AltitudeMeters>340.600006103515625</AltitudeMeters>
            <DistanceMeters>89121.12734417</DistanceMeters>
          </Trackpoint>
          <Trackpoint>
            <Time>2019-07-26T15:22:39.000Z</Time>
            <Position>
              <LatitudeDegrees>42.90424265898764133453369140625</LatitudeDegrees>
              <LongitudeDegrees>-8.43421672470867633819580078125</LongitudeDegrees>
            </Position>
            <AltitudeMeters>340.20001220703125</AltitudeMeters>
            <DistanceMeters>89137.197257864</DistanceMeters>
          </Trackpoint>
          <Trackpoint>
            <Time>2019-07-26T15:22:41.000Z</Time>
            <Position>
              <LatitudeDegrees>42.9042008332908153533935546875</LatitudeDegrees>
              <LongitudeDegrees>-8.4344203211367130279541015625</LongitudeDegrees>
            </Position>
            <AltitudeMeters>339.600006103515625</AltitudeMeters>
            <DistanceMeters>89154.43668581</DistanceMeters>
          </Trackpoint>
          <Trackpoint>
            <Time>2019-07-26T15:22:44.000Z</Time>
            <Position>
              <LatitudeDegrees>42.90413537062704563140869140625</LatitudeDegrees>
              <LongitudeDegrees>-8.43470689840614795684814453125</LongitudeDegrees>
            </Position>
            <AltitudeMeters>339</AltitudeMeters>
            <DistanceMeters>89178.910446668</DistanceMeters>
          </Trackpoint>
          <Trackpoint>
            <Time>2019-07-26T15:22:45.000Z</Time>
            <Position>
              <LatitudeDegrees>42.9041258990764617919921875</LatitudeDegrees>
              <LongitudeDegrees>-8.4347928129136562347412109375</LongitudeDegrees>
            </Position>
            <AltitudeMeters>339</AltitudeMeters>
            <DistanceMeters>89185.993603078</DistanceMeters>
          </Trackpoint>
          <Trackpoint>
            <Time>2019-07-26T15:22:47.000Z</Time>
            <Position>
              <LatitudeDegrees>42.90412849746644496917724609375</LatitudeDegrees>
              <LongitudeDegrees>-8.434955589473247528076171875</LongitudeDegrees>
            </Position>
            <AltitudeMeters>338.79998779296875</AltitudeMeters>
            <DistanceMeters>89199.267784094</DistanceMeters>
          </Trackpoint>
          <Trackpoint>
            <Time>2019-07-26T15:22:49.000Z</Time>
            <Position>
              <LatitudeDegrees>42.90412732400000095367431640625</LatitudeDegrees>
              <LongitudeDegrees>-8.435086347162723541259765625</LongitudeDegrees>
            </Position>
            <AltitudeMeters>338.600006103515625</AltitudeMeters>
            <DistanceMeters>89209.929425726</DistanceMeters>
          </Trackpoint>
          <Trackpoint>
            <Time>2019-07-26T15:22:52.000Z</Time>
            <Position>
              <LatitudeDegrees>42.90402925573289394378662109375</LatitudeDegrees>
              <LongitudeDegrees>-8.43524384312331676483154296875</LongitudeDegrees>
            </Position>
            <AltitudeMeters>338.399993896484375</AltitudeMeters>
            <DistanceMeters>89226.782139582</DistanceMeters>
          </Trackpoint>
          <Trackpoint>
            <Time>2019-07-26T15:22:53.000Z</Time>
            <Position>
              <LatitudeDegrees>42.90398181416094303131103515625</LatitudeDegrees>
              <LongitudeDegrees>-8.43529379926621913909912109375</LongitudeDegrees>
            </Position>
            <AltitudeMeters>338.399993896484375</AltitudeMeters>
            <DistanceMeters>89233.450957055</DistanceMeters>
          </Trackpoint>
          <Trackpoint>
            <Time>2019-07-26T15:22:54.000Z</Time>
            <Position>
              <LatitudeDegrees>42.9039356298744678497314453125</LatitudeDegrees>
              <LongitudeDegrees>-8.43534878455102443695068359375</LongitudeDegrees>
            </Position>
            <AltitudeMeters>338.20001220703125</AltitudeMeters>
            <DistanceMeters>89240.271730753</DistanceMeters>
          </Trackpoint>
          <Trackpoint>
            <Time>2019-07-26T15:22:57.000Z</Time>
            <Position>
              <LatitudeDegrees>42.90380193851888179779052734375</LatitudeDegrees>
              <LongitudeDegrees>-8.43554408289492130279541015625</LongitudeDegrees>
            </Position>
            <AltitudeMeters>337.399993896484375</AltitudeMeters>
            <DistanceMeters>89262.064984311</DistanceMeters>
          </Trackpoint>
          <Trackpoint>
            <Time>2019-07-26T15:22:59.000Z</Time>
            <Position>
              <LatitudeDegrees>42.90370839647948741912841796875</LatitudeDegrees>
              <LongitudeDegrees>-8.4356854856014251708984375</LongitudeDegrees>
            </Position>
            <AltitudeMeters>337.20001220703125</AltitudeMeters>
            <DistanceMeters>89277.598873158</DistanceMeters>
          </Trackpoint>
          <Trackpoint>
            <Time>2019-07-26T15:23:03.000Z</Time>
            <Position>
              <LatitudeDegrees>42.90348443202674388885498046875</LatitudeDegrees>
              <LongitudeDegrees>-8.43595026992261409759521484375</LongitudeDegrees>
            </Position>
            <AltitudeMeters>336.79998779296875</AltitudeMeters>
            <DistanceMeters>89310.574923036</DistanceMeters>
          </Trackpoint>
          <Trackpoint>
            <Time>2019-07-26T15:23:05.000Z</Time>
            <Position>
              <LatitudeDegrees>42.9033944942057132720947265625</LatitudeDegrees>
              <LongitudeDegrees>-8.4361067600548267364501953125</LongitudeDegrees>
            </Position>
            <AltitudeMeters>336.600006103515625</AltitudeMeters>
            <DistanceMeters>89326.791671054</DistanceMeters>
          </Trackpoint>
          <Trackpoint>
            <Time>2019-07-26T15:23:06.000Z</Time>
            <Position>
              <LatitudeDegrees>42.903350405395030975341796875</LatitudeDegrees>
              <LongitudeDegrees>-8.4361872263252735137939453125</LongitudeDegrees>
            </Position>
            <AltitudeMeters>336.399993896484375</AltitudeMeters>
            <DistanceMeters>89334.983833658</DistanceMeters>
          </Trackpoint>
          <Trackpoint>
            <Time>2019-07-26T15:23:08.000Z</Time>
            <Position>
              <LatitudeDegrees>42.90325493551790714263916015625</LatitudeDegrees>
              <LongitudeDegrees>-8.43635695986449718475341796875</LongitudeDegrees>
            </Position>
            <AltitudeMeters>336</AltitudeMeters>
            <DistanceMeters>89352.431007553</DistanceMeters>
          </Trackpoint>
          <Trackpoint>
            <Time>2019-07-26T15:23:11.000Z</Time>
            <Position>
              <LatitudeDegrees>42.90310422889888286590576171875</LatitudeDegrees>
              <LongitudeDegrees>-8.4366277791559696197509765625</LongitudeDegrees>
            </Position>
            <AltitudeMeters>335.20001220703125</AltitudeMeters>
            <DistanceMeters>89380.159926556</DistanceMeters>
          </Trackpoint>
          <Trackpoint>
            <Time>2019-07-26T15:23:15.000Z</Time>
            <Position>
              <LatitudeDegrees>42.902901135385036468505859375</LatitudeDegrees>
              <LongitudeDegrees>-8.43697923235595226287841796875</LongitudeDegrees>
            </Position>
            <AltitudeMeters>334.399993896484375</AltitudeMeters>
            <DistanceMeters>89416.656865828</DistanceMeters>
          </Trackpoint>
          <Trackpoint>
            <Time>2019-07-26T15:23:16.000Z</Time>
            <Position>
              <LatitudeDegrees>42.90285193361341953277587890625</LatitudeDegrees>
              <LongitudeDegrees>-8.4370743669569492340087890625</LongitudeDegrees>
            </Position>
            <AltitudeMeters>334</AltitudeMeters>
            <DistanceMeters>89426.150981009</DistanceMeters>
          </Trackpoint>
          <Trackpoint>
            <Time>2019-07-26T15:23:19.000Z</Time>
            <Position>
              <LatitudeDegrees>42.9027115367352962493896484375</LatitudeDegrees>
              <LongitudeDegrees>-8.4373752772808074951171875</LongitudeDegrees>
            </Position>
            <AltitudeMeters>333</AltitudeMeters>
            <DistanceMeters>89455.238004787</DistanceMeters>
          </Trackpoint>
          <Trackpoint>
            <Time>2019-07-26T15:23:20.000Z</Time>
            <Position>
              <LatitudeDegrees>42.90265613235533237457275390625</LatitudeDegrees>
              <LongitudeDegrees>-8.437484912574291229248046875</LongitudeDegrees>
            </Position>
            <AltitudeMeters>332.79998779296875</AltitudeMeters>
            <DistanceMeters>89466.097691631</DistanceMeters>
          </Trackpoint>
          <Trackpoint>
            <Time>2019-07-26T15:23:23.000Z</Time>
            <Position>
              <LatitudeDegrees>42.9024466685950756072998046875</LatitudeDegrees>
              <LongitudeDegrees>-8.4377358667552471160888671875</LongitudeDegrees>
            </Position>
            <AltitudeMeters>332</AltitudeMeters>
            <DistanceMeters>89497.116454907</DistanceMeters>
          </Trackpoint>
          <Trackpoint>
            <Time>2019-07-26T15:23:24.000Z</Time>
            <Position>
              <LatitudeDegrees>42.90238606743514537811279296875</LatitudeDegrees>
              <LongitudeDegrees>-8.43782345764338970184326171875</LongitudeDegrees>
            </Position>
            <AltitudeMeters>331.600006103515625</AltitudeMeters>
            <DistanceMeters>89506.938742662</DistanceMeters>
          </Trackpoint>
          <Trackpoint>
            <Time>2019-07-26T15:23:25.000Z</Time>
            <Position>
              <LatitudeDegrees>42.90233393199741840362548828125</LatitudeDegrees>
              <LongitudeDegrees>-8.43791431747376918792724609375</LongitudeDegrees>
            </Position>
            <AltitudeMeters>331.399993896484375</AltitudeMeters>
            <DistanceMeters>89516.348786743</DistanceMeters>
          </Trackpoint>
          <Trackpoint>
            <Time>2019-07-26T15:23:27.000Z</Time>
            <Position>
              <LatitudeDegrees>42.9022441618144512176513671875</LatitudeDegrees>
              <LongitudeDegrees>-8.43809955753386020660400390625</LongitudeDegrees>
            </Position>
            <AltitudeMeters>330.600006103515625</AltitudeMeters>
            <DistanceMeters>89534.457298443</DistanceMeters>
          </Trackpoint>
          <Trackpoint>
            <Time>2019-07-26T15:23:29.000Z</Time>
            <Position>
              <LatitudeDegrees>42.90215455926954746246337890625</LatitudeDegrees>
              <LongitudeDegrees>-8.4382773377001285552978515625</LongitudeDegrees>
            </Position>
            <AltitudeMeters>329.399993896484375</AltitudeMeters>
            <DistanceMeters>89552.051617144</DistanceMeters>
          </Trackpoint>
          <Trackpoint>
            <Time>2019-07-26T15:23:31.000Z</Time>
            <Position>
              <LatitudeDegrees>42.90207778103649616241455078125</LatitudeDegrees>
              <LongitudeDegrees>-8.4384543634951114654541015625</LongitudeDegrees>
            </Position>
            <AltitudeMeters>329</AltitudeMeters>
            <DistanceMeters>89568.824841691</DistanceMeters>
          </Trackpoint>
          <Trackpoint>
            <Time>2019-07-26T15:23:34.000Z</Time>
            <Position>
              <LatitudeDegrees>42.90202262811362743377685546875</LatitudeDegrees>
              <LongitudeDegrees>-8.4387450478971004486083984375</LongitudeDegrees>
            </Position>
            <AltitudeMeters>328.399993896484375</AltitudeMeters>
            <DistanceMeters>89593.306718537</DistanceMeters>
          </Trackpoint>
          <Trackpoint>
            <Time>2019-07-26T15:23:35.000Z</Time>
            <Position>
              <LatitudeDegrees>42.90201709605753421783447265625</LatitudeDegrees>
              <LongitudeDegrees>-8.43884772621095180511474609375</LongitudeDegrees>
            </Position>
            <AltitudeMeters>328.399993896484375</AltitudeMeters>
            <DistanceMeters>89601.700864502</DistanceMeters>
          </Trackpoint>
          <Trackpoint>
            <Time>2019-07-26T15:23:36.000Z</Time>
            <Position>
              <LatitudeDegrees>42.90201173163950443267822265625</LatitudeDegrees>
              <LongitudeDegrees>-8.43894906342029571533203125</LongitudeDegrees>
            </Position>
            <AltitudeMeters>328.20001220703125</AltitudeMeters>
            <DistanceMeters>89609.984556366</DistanceMeters>
          </Trackpoint>
          <Trackpoint>
            <Time>2019-07-26T15:23:41.000Z</Time>
            <Position>
              <LatitudeDegrees>42.9019927047193050384521484375</LatitudeDegrees>
              <LongitudeDegrees>-8.43944787047803401947021484375</LongitudeDegrees>
            </Position>
            <AltitudeMeters>327.399993896484375</AltitudeMeters>
            <DistanceMeters>89650.707689091</DistanceMeters>
          </Trackpoint>
          <Trackpoint>
            <Time>2019-07-26T15:23:44.000Z</Time>
            <Position>
              <LatitudeDegrees>42.90197543799877166748046875</LatitudeDegrees>
              <LongitudeDegrees>-8.4397424943745136260986328125</LongitudeDegrees>
            </Position>
            <AltitudeMeters>327</AltitudeMeters>
            <DistanceMeters>89674.805347191</DistanceMeters>
          </Trackpoint>
          <Trackpoint>
            <Time>2019-07-26T15:23:45.000Z</Time>
            <Position>
              <LatitudeDegrees>42.90195976383984088897705078125</LatitudeDegrees>
              <LongitudeDegrees>-8.43983863480389118194580078125</LongitudeDegrees>
            </Position>
            <AltitudeMeters>327</AltitudeMeters>
            <DistanceMeters>89682.836088499</DistanceMeters>
          </Trackpoint>
          <Trackpoint>
            <Time>2019-07-26T15:23:47.000Z</Time>
            <Position>
              <LatitudeDegrees>42.90193025954067707061767578125</LatitudeDegrees>
              <LongitudeDegrees>-8.4400254674255847930908203125</LongitudeDegrees>
            </Position>
            <AltitudeMeters>326.79998779296875</AltitudeMeters>
            <DistanceMeters>89698.418731265</DistanceMeters>
          </Trackpoint>
          <Trackpoint>
            <Time>2019-07-26T15:23:49.000Z</Time>
            <Position>
              <LatitudeDegrees>42.9019023478031158447265625</LatitudeDegrees>
              <LongitudeDegrees>-8.440209366381168365478515625</LongitudeDegrees>
            </Position>
            <AltitudeMeters>326.399993896484375</AltitudeMeters>
            <DistanceMeters>89713.730716923</DistanceMeters>
          </Trackpoint>
          <Trackpoint>
            <Time>2019-07-26T15:23:50.000Z</Time>
            <Position>
              <LatitudeDegrees>42.90189354680478572845458984375</LatitudeDegrees>
              <LongitudeDegrees>-8.4403024055063724517822265625</LongitudeDegrees>
            </Position>
            <AltitudeMeters>326.399993896484375</AltitudeMeters>
            <DistanceMeters>89721.379039302</DistanceMeters>
          </Trackpoint>
          <Trackpoint>
            <Time>2019-07-26T15:23:55.000Z</Time>
            <Position>
              <LatitudeDegrees>42.90185247547924518585205078125</LatitudeDegrees>
              <LongitudeDegrees>-8.44076449982821941375732421875</LongitudeDegrees>
            </Position>
            <AltitudeMeters>326</AltitudeMeters>
            <DistanceMeters>89759.330524819</DistanceMeters>
          </Trackpoint>
          <Trackpoint>
            <Time>2019-07-26T15:24:02.000Z</Time>
            <Position>
              <LatitudeDegrees>42.90176765061914920806884765625</LatitudeDegrees>
              <LongitudeDegrees>-8.4413464553654193878173828125</LongitudeDegrees>
            </Position>
            <AltitudeMeters>325.20001220703125</AltitudeMeters>
            <DistanceMeters>89807.708176194</DistanceMeters>
          </Trackpoint>
          <Trackpoint>
            <Time>2019-07-26T15:24:07.000Z</Time>
            <Position>
              <LatitudeDegrees>42.90169573388993740081787109375</LatitudeDegrees>
              <LongitudeDegrees>-8.44183822162449359893798828125</LongitudeDegrees>
            </Position>
            <AltitudeMeters>324.79998779296875</AltitudeMeters>
            <DistanceMeters>89848.593634014</DistanceMeters>
          </Trackpoint>
          <Trackpoint>
            <Time>2019-07-26T15:24:11.000Z</Time>
            <Position>
              <LatitudeDegrees>42.9016285948455333709716796875</LatitudeDegrees>
              <LongitudeDegrees>-8.4423432312905788421630859375</LongitudeDegrees>
            </Position>
            <AltitudeMeters>324</AltitudeMeters>
            <DistanceMeters>89890.440360819</DistanceMeters>
          </Trackpoint>
          <Trackpoint>
            <Time>2019-07-26T15:24:12.000Z</Time>
            <Position>
              <LatitudeDegrees>42.9016021080315113067626953125</LatitudeDegrees>
              <LongitudeDegrees>-8.4424783475697040557861328125</LongitudeDegrees>
            </Position>
            <AltitudeMeters>323.600006103515625</AltitudeMeters>
            <DistanceMeters>89901.844754315</DistanceMeters>
          </Trackpoint>
          <Trackpoint>
            <Time>2019-07-26T15:24:13.000Z</Time>
            <Position>
              <LatitudeDegrees>42.901565730571746826171875</LatitudeDegrees>
              <LongitudeDegrees>-8.44260835088789463043212890625</LongitudeDegrees>
            </Position>
            <AltitudeMeters>322.79998779296875</AltitudeMeters>
            <DistanceMeters>89913.191198686</DistanceMeters>
          </Trackpoint>
          <Trackpoint>
            <Time>2019-07-26T15:24:15.000Z</Time>
            <Position>
              <LatitudeDegrees>42.90148115716874599456787109375</LatitudeDegrees>
              <LongitudeDegrees>-8.44286106526851654052734375</LongitudeDegrees>
            </Position>
            <AltitudeMeters>321.600006103515625</AltitudeMeters>
            <DistanceMeters>89935.843861311</DistanceMeters>
          </Trackpoint>
          <Trackpoint>
            <Time>2019-07-26T15:24:17.000Z</Time>
            <Position>
              <LatitudeDegrees>42.901380322873592376708984375</LatitudeDegrees>
              <LongitudeDegrees>-8.4430858679115772247314453125</LongitudeDegrees>
            </Position>
            <AltitudeMeters>320.20001220703125</AltitudeMeters>
            <DistanceMeters>89957.335450599</DistanceMeters>
          </Trackpoint>
          <Trackpoint>
            <Time>2019-07-26T15:24:19.000Z</Time>
            <Position>
              <LatitudeDegrees>42.90127898566424846649169921875</LatitudeDegrees>
              <LongitudeDegrees>-8.44329063780605792999267578125</LongitudeDegrees>
            </Position>
            <AltitudeMeters>318.79998779296875</AltitudeMeters>
            <DistanceMeters>89977.48357921</DistanceMeters>
          </Trackpoint>
          <Trackpoint>
            <Time>2019-07-26T15:24:21.000Z</Time>
            <Position>
              <LatitudeDegrees>42.90119416080415248870849609375</LatitudeDegrees>
              <LongitudeDegrees>-8.44349783845245838165283203125</LongitudeDegrees>
            </Position>
            <AltitudeMeters>317.600006103515625</AltitudeMeters>
            <DistanceMeters>89996.835927658</DistanceMeters>
          </Trackpoint>
          <Trackpoint>
            <Time>2019-07-26T15:24:24.000Z</Time>
            <Position>
              <LatitudeDegrees>42.90109240449965000152587890625</LatitudeDegrees>
              <LongitudeDegrees>-8.44380796886980533599853515625</LongitudeDegrees>
            </Position>
            <AltitudeMeters>316.399993896484375</AltitudeMeters>
            <DistanceMeters>90024.542041394</DistanceMeters>
          </Trackpoint>
          <Trackpoint>
            <Time>2019-07-26T15:24:25.000Z</Time>
            <Position>
              <LatitudeDegrees>42.90106357075273990631103515625</LatitudeDegrees>
              <LongitudeDegrees>-8.44391073100268840789794921875</LongitudeDegrees>
            </Position>
            <AltitudeMeters>316.20001220703125</AltitudeMeters>
            <DistanceMeters>90033.513891895</DistanceMeters>
          </Trackpoint>
          <Trackpoint>
            <Time>2019-07-26T15:24:28.000Z</Time>
            <Position>
              <LatitudeDegrees>42.90097656659781932830810546875</LatitudeDegrees>
              <LongitudeDegrees>-8.4442110545933246612548828125</LongitudeDegrees>
            </Position>
            <AltitudeMeters>315.20001220703125</AltitudeMeters>
            <DistanceMeters>90059.845038269</DistanceMeters>
          </Trackpoint>
          <Trackpoint>
            <Time>2019-07-26T15:24:32.000Z</Time>
            <Position>
              <LatitudeDegrees>42.90087061934173107147216796875</LatitudeDegrees>
              <LongitudeDegrees>-8.4445917606353759765625</LongitudeDegrees>
            </Position>
            <AltitudeMeters>314.399993896484375</AltitudeMeters>
            <DistanceMeters>90093.049227062</DistanceMeters>
          </Trackpoint>
          <Trackpoint>
            <Time>2019-07-26T15:24:33.000Z</Time>
            <Position>
              <LatitudeDegrees>42.90084765292704105377197265625</LatitudeDegrees>
              <LongitudeDegrees>-8.444685973227024078369140625</LongitudeDegrees>
            </Position>
            <AltitudeMeters>314.399993896484375</AltitudeMeters>
            <DistanceMeters>90101.14492313</DistanceMeters>
          </Trackpoint>
          <Trackpoint>
            <Time>2019-07-26T15:24:35.000Z</Time>
            <Position>
              <LatitudeDegrees>42.900814376771450042724609375</LatitudeDegrees>
              <LongitudeDegrees>-8.4448769129812717437744140625</LongitudeDegrees>
            </Position>
            <AltitudeMeters>314.20001220703125</AltitudeMeters>
            <DistanceMeters>90117.147263827</DistanceMeters>
          </Trackpoint>
          <Trackpoint>
            <Time>2019-07-26T15:24:38.000Z</Time>
            <Position>
              <LatitudeDegrees>42.9007779993116855621337890625</LatitudeDegrees>
              <LongitudeDegrees>-8.445163071155548095703125</LongitudeDegrees>
            </Position>
            <AltitudeMeters>314</AltitudeMeters>
            <DistanceMeters>90140.827036353</DistanceMeters>
          </Trackpoint>
          <Trackpoint>
            <Time>2019-07-26T15:24:43.000Z</Time>
            <Position>
              <LatitudeDegrees>42.90071186609566211700439453125</LatitudeDegrees>
              <LongitudeDegrees>-8.44559951685369014739990234375</LongitudeDegrees>
            </Position>
            <AltitudeMeters>313.79998779296875</AltitudeMeters>
            <DistanceMeters>90177.164784744</DistanceMeters>
          </Trackpoint>
          <Trackpoint>
            <Time>2019-07-26T15:24:45.000Z</Time>
            <Position>
              <LatitudeDegrees>42.90068806149065494537353515625</LatitudeDegrees>
              <LongitudeDegrees>-8.445755504071712493896484375</LongitudeDegrees>
            </Position>
            <AltitudeMeters>313.600006103515625</AltitudeMeters>
            <DistanceMeters>90190.156017508</DistanceMeters>
          </Trackpoint>
          <Trackpoint>
            <Time>2019-07-26T15:24:51.000Z</Time>
            <Position>
              <LatitudeDegrees>42.9005827009677886962890625</LatitudeDegrees>
              <LongitudeDegrees>-8.44619815237820148468017578125</LongitudeDegrees>
            </Position>
            <AltitudeMeters>313</AltitudeMeters>
            <DistanceMeters>90228.103695836</DistanceMeters>
          </Trackpoint>
          <Trackpoint>
            <Time>2019-07-26T15:24:52.000Z</Time>
            <Position>
              <LatitudeDegrees>42.900562919676303863525390625</LatitudeDegrees>
              <LongitudeDegrees>-8.4462669678032398223876953125</LongitudeDegrees>
            </Position>
            <AltitudeMeters>313</AltitudeMeters>
            <DistanceMeters>90234.130966988</DistanceMeters>
          </Trackpoint>
          <Trackpoint>
            <Time>2019-07-26T15:24:54.000Z</Time>
            <Position>
              <LatitudeDegrees>42.9005252011120319366455078125</LatitudeDegrees>
              <LongitudeDegrees>-8.44640904106199741363525390625</LongitudeDegrees>
            </Position>
            <AltitudeMeters>312.79998779296875</AltitudeMeters>
            <DistanceMeters>90246.451868542</DistanceMeters>
          </Trackpoint>
          <Trackpoint>
            <Time>2019-07-26T15:24:57.000Z</Time>
            <Position>
              <LatitudeDegrees>42.90047382004559040069580078125</LatitudeDegrees>
              <LongitudeDegrees>-8.44666066579520702362060546875</LongitudeDegrees>
            </Position>
            <AltitudeMeters>312.79998779296875</AltitudeMeters>
            <DistanceMeters>90267.749727588</DistanceMeters>
          </Trackpoint>
          <Trackpoint>
            <Time>2019-07-26T15:24:58.000Z</Time>
            <Position>
              <LatitudeDegrees>42.9004467464983463287353515625</LatitudeDegrees>
              <LongitudeDegrees>-8.4467400424182415008544921875</LongitudeDegrees>
            </Position>
            <AltitudeMeters>312.600006103515625</AltitudeMeters>
            <DistanceMeters>90274.887492735</DistanceMeters>
          </Trackpoint>
          <Trackpoint>
            <Time>2019-07-26T15:25:00.000Z</Time>
            <Position>
              <LatitudeDegrees>42.900363095104694366455078125</LatitudeDegrees>
              <LongitudeDegrees>-8.4468550421297550201416015625</LongitudeDegrees>
            </Position>
            <AltitudeMeters>312.399993896484375</AltitudeMeters>
            <DistanceMeters>90288.101332378</DistanceMeters>
          </Trackpoint>
          <Trackpoint>
            <Time>2019-07-26T15:25:03.000Z</Time>
            <Position>
              <LatitudeDegrees>42.90016570128500461578369140625</LatitudeDegrees>
              <LongitudeDegrees>-8.4469277970492839813232421875</LongitudeDegrees>
            </Position>
            <AltitudeMeters>312</AltitudeMeters>
            <DistanceMeters>90310.858593729</DistanceMeters>
          </Trackpoint>
          <Trackpoint>
            <Time>2019-07-26T15:25:04.000Z</Time>
            <Position>
              <LatitudeDegrees>42.900094203650951385498046875</LatitudeDegrees>
              <LongitudeDegrees>-8.44692863523960113525390625</LongitudeDegrees>
            </Position>
            <AltitudeMeters>311.79998779296875</AltitudeMeters>
            <DistanceMeters>90318.8170456</DistanceMeters>
          </Trackpoint>
          <Trackpoint>
            <Time>2019-07-26T15:25:06.000Z</Time>
            <Position>
              <LatitudeDegrees>42.89996855892241001129150390625</LatitudeDegrees>
              <LongitudeDegrees>-8.44691094942390918731689453125</LongitudeDegrees>
            </Position>
            <AltitudeMeters>311.399993896484375</AltitudeMeters>
            <DistanceMeters>90332.875219488</DistanceMeters>
          </Trackpoint>
          <Trackpoint>
            <Time>2019-07-26T15:25:07.000Z</Time>
            <Position>
              <LatitudeDegrees>42.8999227099120616912841796875</LatitudeDegrees>
              <LongitudeDegrees>-8.446891419589519500732421875</LongitudeDegrees>
            </Position>
            <AltitudeMeters>311</AltitudeMeters>
            <DistanceMeters>90338.220419378</DistanceMeters>
          </Trackpoint>
          <Trackpoint>
            <Time>2019-07-26T15:25:10.000Z</Time>
            <Position>
              <LatitudeDegrees>42.89986680261790752410888671875</LatitudeDegrees>
              <LongitudeDegrees>-8.44679410569369792938232421875</LongitudeDegrees>
            </Position>
            <AltitudeMeters>309.399993896484375</AltitudeMeters>
            <DistanceMeters>90348.304003104</DistanceMeters>
          </Trackpoint>
          <Trackpoint>
            <Time>2019-07-26T15:25:12.000Z</Time>
            <Position>
              <LatitudeDegrees>42.8998625278472900390625</LatitudeDegrees>
              <LongitudeDegrees>-8.44673627056181430816650390625</LongitudeDegrees>
            </Position>
            <AltitudeMeters>308.20001220703125</AltitudeMeters>
            <DistanceMeters>90353.0439219</DistanceMeters>
          </Trackpoint>
          <Trackpoint>
            <Time>2019-07-26T15:25:14.000Z</Time>
            <Position>
              <LatitudeDegrees>42.8998499549925327301025390625</LatitudeDegrees>
              <LongitudeDegrees>-8.4466793574392795562744140625</LongitudeDegrees>
            </Position>
            <AltitudeMeters>308</AltitudeMeters>
            <DistanceMeters>90357.891215878</DistanceMeters>
          </Trackpoint>
          <Trackpoint>
            <Time>2019-07-26T15:25:15.000Z</Time>
            <Position>
              <LatitudeDegrees>42.8998315148055553436279296875</LatitudeDegrees>
              <LongitudeDegrees>-8.44665228389203548431396484375</LongitudeDegrees>
            </Position>
            <AltitudeMeters>307.79998779296875</AltitudeMeters>
            <DistanceMeters>90360.905225981</DistanceMeters>
          </Trackpoint>
          <Trackpoint>
            <Time>2019-07-26T15:25:20.000Z</Time>
            <Position>
              <LatitudeDegrees>42.89969128556549549102783203125</LatitudeDegrees>
              <LongitudeDegrees>-8.446576930582523345947265625</LongitudeDegrees>
            </Position>
            <AltitudeMeters>307.79998779296875</AltitudeMeters>
            <DistanceMeters>90377.678450528</DistanceMeters>
          </Trackpoint>
          <Trackpoint>
            <Time>2019-07-26T15:25:25.000Z</Time>
            <Position>
              <LatitudeDegrees>42.8995807282626628875732421875</LatitudeDegrees>
              <LongitudeDegrees>-8.44647358171641826629638671875</LongitudeDegrees>
            </Position>
            <AltitudeMeters>307.79998779296875</AltitudeMeters>
            <DistanceMeters>90392.591893551</DistanceMeters>
          </Trackpoint>
          <Trackpoint>
            <Time>2019-07-26T15:25:26.000Z</Time>
            <Position>
              <LatitudeDegrees>42.899566479027271270751953125</LatitudeDegrees>
              <LongitudeDegrees>-8.44642840325832366943359375</LongitudeDegrees>
            </Position>
            <AltitudeMeters>308</AltitudeMeters>
            <DistanceMeters>90396.603326739</DistanceMeters>
          </Trackpoint>
          <Trackpoint>
            <Time>2019-07-26T15:25:31.000Z</Time>
            <Position>
              <LatitudeDegrees>42.8995321132242679595947265625</LatitudeDegrees>
              <LongitudeDegrees>-8.44616563059389591217041015625</LongitudeDegrees>
            </Position>
            <AltitudeMeters>308</AltitudeMeters>
            <DistanceMeters>90418.367141428</DistanceMeters>
          </Trackpoint>
          <Trackpoint>
            <Time>2019-07-26T15:25:34.000Z</Time>
            <Position>
              <LatitudeDegrees>42.89951727725565433502197265625</LatitudeDegrees>
              <LongitudeDegrees>-8.446000926196575164794921875</LongitudeDegrees>
            </Position>
            <AltitudeMeters>308.20001220703125</AltitudeMeters>
            <DistanceMeters>90431.897023529</DistanceMeters>
          </Trackpoint>
          <Trackpoint>
            <Time>2019-07-26T15:25:37.000Z</Time>
            <Position>
              <LatitudeDegrees>42.899514175951480865478515625</LatitudeDegrees>
              <LongitudeDegrees>-8.44583052210509777069091796875</LongitudeDegrees>
            </Position>
            <AltitudeMeters>308.20001220703125</AltitudeMeters>
            <DistanceMeters>90445.794985075</DistanceMeters>
          </Trackpoint>
          <Trackpoint>
            <Time>2019-07-26T15:25:41.000Z</Time>
            <Position>
              <LatitudeDegrees>42.899518199265003204345703125</LatitudeDegrees>
              <LongitudeDegrees>-8.445614688098430633544921875</LongitudeDegrees>
            </Position>
            <AltitudeMeters>308.79998779296875</AltitudeMeters>
            <DistanceMeters>90463.39853964</DistanceMeters>
          </Trackpoint>
          <Trackpoint>
            <Time>2019-07-26T15:25:44.000Z</Time>
            <Position>
              <LatitudeDegrees>42.89950847625732421875</LatitudeDegrees>
              <LongitudeDegrees>-8.4454388357698917388916015625</LongitudeDegrees>
            </Position>
            <AltitudeMeters>309.20001220703125</AltitudeMeters>
            <DistanceMeters>90477.777434948</DistanceMeters>
          </Trackpoint>
          <Trackpoint>
            <Time>2019-07-26T15:25:50.000Z</Time>
            <Position>
              <LatitudeDegrees>42.89946732111275196075439453125</LatitudeDegrees>
              <LongitudeDegrees>-8.445135913789272308349609375</LongitudeDegrees>
            </Position>
            <AltitudeMeters>309.79998779296875</AltitudeMeters>
            <DistanceMeters>90502.897041865</DistanceMeters>
          </Trackpoint>
          <Trackpoint>
            <Time>2019-07-26T15:25:55.000Z</Time>
            <Position>
              <LatitudeDegrees>42.89930420927703380584716796875</LatitudeDegrees>
              <LongitudeDegrees>-8.444861657917499542236328125</LongitudeDegrees>
            </Position>
            <AltitudeMeters>310</AltitudeMeters>
            <DistanceMeters>90531.70001364</DistanceMeters>
          </Trackpoint>
          <Trackpoint>
            <Time>2019-07-26T15:25:59.000Z</Time>
            <Position>
              <LatitudeDegrees>42.89907286874949932098388671875</LatitudeDegrees>
              <LongitudeDegrees>-8.44473056495189666748046875</LongitudeDegrees>
            </Position>
            <AltitudeMeters>310</AltitudeMeters>
            <DistanceMeters>90559.57897954</DistanceMeters>
          </Trackpoint>
          <Trackpoint>
            <Time>2019-07-26T15:26:01.000Z</Time>
            <Position>
              <LatitudeDegrees>42.898936159908771514892578125</LatitudeDegrees>
              <LongitudeDegrees>-8.444696366786956787109375</LongitudeDegrees>
            </Position>
            <AltitudeMeters>309.79998779296875</AltitudeMeters>
            <DistanceMeters>90575.048207891</DistanceMeters>
          </Trackpoint>
          <Trackpoint>
            <Time>2019-07-26T15:26:03.000Z</Time>
            <Position>
              <LatitudeDegrees>42.89880238473415374755859375</LatitudeDegrees>
              <LongitudeDegrees>-8.44464079476892948150634765625</LongitudeDegrees>
            </Position>
            <AltitudeMeters>309.600006103515625</AltitudeMeters>
            <DistanceMeters>90590.612295743</DistanceMeters>
          </Trackpoint>
          <Trackpoint>
            <Time>2019-07-26T15:26:04.000Z</Time>
            <Position>
              <LatitudeDegrees>42.898744046688079833984375</LatitudeDegrees>
              <LongitudeDegrees>-8.4445949457585811614990234375</LongitudeDegrees>
            </Position>
            <AltitudeMeters>309.600006103515625</AltitudeMeters>
            <DistanceMeters>90598.104355218</DistanceMeters>
          </Trackpoint>
          <Trackpoint>
            <Time>2019-07-26T15:26:07.000Z</Time>
            <Position>
              <LatitudeDegrees>42.89860381744801998138427734375</LatitudeDegrees>
              <LongitudeDegrees>-8.4443495236337184906005859375</LongitudeDegrees>
            </Position>
            <AltitudeMeters>309.399993896484375</AltitudeMeters>
            <DistanceMeters>90623.482003888</DistanceMeters>
          </Trackpoint>
          <Trackpoint>
            <Time>2019-07-26T15:26:09.000Z</Time>
            <Position>
              <LatitudeDegrees>42.89845663122832775115966796875</LatitudeDegrees>
              <LongitudeDegrees>-8.44421482644975185394287109375</LongitudeDegrees>
            </Position>
            <AltitudeMeters>308.399993896484375</AltitudeMeters>
            <DistanceMeters>90643.205026806</DistanceMeters>
          </Trackpoint>
          <Trackpoint>
            <Time>2019-07-26T15:26:10.000Z</Time>
            <Position>
              <LatitudeDegrees>42.8983847983181476593017578125</LatitudeDegrees>
              <LongitudeDegrees>-8.4441845677793025970458984375</LongitudeDegrees>
            </Position>
            <AltitudeMeters>308</AltitudeMeters>
            <DistanceMeters>90651.572235581</DistanceMeters>
          </Trackpoint>
          <Trackpoint>
            <Time>2019-07-26T15:26:12.000Z</Time>
            <Position>
              <LatitudeDegrees>42.89823635481297969818115234375</LatitudeDegrees>
              <LongitudeDegrees>-8.44416671432554721832275390625</LongitudeDegrees>
            </Position>
            <AltitudeMeters>307.20001220703125</AltitudeMeters>
            <DistanceMeters>90668.158412924</DistanceMeters>
          </Trackpoint>
          <Trackpoint>
            <Time>2019-07-26T15:26:13.000Z</Time>
            <Position>
              <LatitudeDegrees>42.8981775976717472076416015625</LatitudeDegrees>
              <LongitudeDegrees>-8.44420015811920166015625</LongitudeDegrees>
            </Position>
            <AltitudeMeters>306.79998779296875</AltitudeMeters>
            <DistanceMeters>90675.243481375</DistanceMeters>
          </Trackpoint>
          <Trackpoint>
            <Time>2019-07-26T15:26:15.000Z</Time>
            <Position>
              <LatitudeDegrees>42.8981460817158222198486328125</LatitudeDegrees>
              <LongitudeDegrees>-8.44432898797094821929931640625</LongitudeDegrees>
            </Position>
            <AltitudeMeters>305.600006103515625</AltitudeMeters>
            <DistanceMeters>90686.318069325</DistanceMeters>
          </Trackpoint>
          <Trackpoint>
            <Time>2019-07-26T15:26:18.000Z</Time>
            <Position>
              <LatitudeDegrees>42.89823853410780429840087890625</LatitudeDegrees>
              <LongitudeDegrees>-8.44453015364706516265869140625</LongitudeDegrees>
            </Position>
            <AltitudeMeters>304.600006103515625</AltitudeMeters>
            <DistanceMeters>90705.680680559</DistanceMeters>
          </Trackpoint>
          <Trackpoint>
            <Time>2019-07-26T15:26:19.000Z</Time>
            <Position>
              <LatitudeDegrees>42.89827139116823673248291015625</LatitudeDegrees>
              <LongitudeDegrees>-8.44459854997694492340087890625</LongitudeDegrees>
            </Position>
            <AltitudeMeters>304.600006103515625</AltitudeMeters>
            <DistanceMeters>90712.350175035</DistanceMeters>
          </Trackpoint>
          <Trackpoint>
            <Time>2019-07-26T15:26:20.000Z</Time>
            <Position>
              <LatitudeDegrees>42.8982962854206562042236328125</LatitudeDegrees>
              <LongitudeDegrees>-8.44467381946742534637451171875</LongitudeDegrees>
            </Position>
            <AltitudeMeters>304.600006103515625</AltitudeMeters>
            <DistanceMeters>90719.083674409</DistanceMeters>
          </Trackpoint>
          <Trackpoint>
            <Time>2019-07-26T15:26:22.000Z</Time>
            <Position>
              <LatitudeDegrees>42.89831581525504589080810546875</LatitudeDegrees>
              <LongitudeDegrees>-8.44484196044504642486572265625</LongitudeDegrees>
            </Position>
            <AltitudeMeters>304.399993896484375</AltitudeMeters>
            <DistanceMeters>90732.96408186</DistanceMeters>
          </Trackpoint>
          <Trackpoint>
            <Time>2019-07-26T15:26:25.000Z</Time>
            <Position>
              <LatitudeDegrees>42.898285053670406341552734375</LatitudeDegrees>
              <LongitudeDegrees>-8.4450951777398586273193359375</LongitudeDegrees>
            </Position>
            <AltitudeMeters>304.20001220703125</AltitudeMeters>
            <DistanceMeters>90753.891976348</DistanceMeters>
          </Trackpoint>
          <Trackpoint>
            <Time>2019-07-26T15:26:26.000Z</Time>
            <Position>
              <LatitudeDegrees>42.898258231580257415771484375</LatitudeDegrees>
              <LongitudeDegrees>-8.44516382552683353424072265625</LongitudeDegrees>
            </Position>
            <AltitudeMeters>304.20001220703125</AltitudeMeters>
            <DistanceMeters>90760.235320941</DistanceMeters>
          </Trackpoint>
          <Trackpoint>
            <Time>2019-07-26T15:26:28.000Z</Time>
            <Position>
              <LatitudeDegrees>42.89819159545004367828369140625</LatitudeDegrees>
              <LongitudeDegrees>-8.4452661685645580291748046875</LongitudeDegrees>
            </Position>
            <AltitudeMeters>304.20001220703125</AltitudeMeters>
            <DistanceMeters>90771.399645603</DistanceMeters>
          </Trackpoint>
          <Trackpoint>
            <Time>2019-07-26T15:26:30.000Z</Time>
            <Position>
              <LatitudeDegrees>42.898122780025005340576171875</LatitudeDegrees>
              <LongitudeDegrees>-8.445347808301448822021484375</LongitudeDegrees>
            </Position>
            <AltitudeMeters>304.20001220703125</AltitudeMeters>
            <DistanceMeters>90781.547502114</DistanceMeters>
          </Trackpoint>
          <Trackpoint>
            <Time>2019-07-26T15:26:34.000Z</Time>
            <Position>
              <LatitudeDegrees>42.89800702594220638275146484375</LatitudeDegrees>
              <LongitudeDegrees>-8.44550547190010547637939453125</LongitudeDegrees>
            </Position>
            <AltitudeMeters>304.20001220703125</AltitudeMeters>
            <DistanceMeters>90799.747784919</DistanceMeters>
          </Trackpoint>
          <Trackpoint>
            <Time>2019-07-26T15:26:36.000Z</Time>
            <Position>
              <LatitudeDegrees>42.89795815944671630859375</LatitudeDegrees>
              <LongitudeDegrees>-8.44558459706604480743408203125</LongitudeDegrees>
            </Position>
            <AltitudeMeters>304.600006103515625</AltitudeMeters>
            <DistanceMeters>90808.185386633</DistanceMeters>
          </Trackpoint>
          <Trackpoint>
            <Time>2019-07-26T15:26:39.000Z</Time>
            <Position>
              <LatitudeDegrees>42.89790778420865535736083984375</LatitudeDegrees>
              <LongitudeDegrees>-8.44569037668406963348388671875</LongitudeDegrees>
            </Position>
            <AltitudeMeters>305</AltitudeMeters>
            <DistanceMeters>90818.472439946</DistanceMeters>
          </Trackpoint>
          <Trackpoint>
            <Time>2019-07-26T15:26:41.000Z</Time>
            <Position>
              <LatitudeDegrees>42.89786989800631999969482421875</LatitudeDegrees>
              <LongitudeDegrees>-8.44575525261461734771728515625</LongitudeDegrees>
            </Position>
            <AltitudeMeters>305.600006103515625</AltitudeMeters>
            <DistanceMeters>90825.237380996</DistanceMeters>
          </Trackpoint>
          <Trackpoint>
            <Time>2019-07-26T15:26:42.000Z</Time>
            <Position>
              <LatitudeDegrees>42.897850535809993743896484375</LatitudeDegrees>
              <LongitudeDegrees>-8.4457898698747158050537109375</LongitudeDegrees>
            </Position>
            <AltitudeMeters>305.79998779296875</AltitudeMeters>
            <DistanceMeters>90828.787872049</DistanceMeters>
          </Trackpoint>
          <Trackpoint>
            <Time>2019-07-26T15:26:45.000Z</Time>
            <Position>
              <LatitudeDegrees>42.89779328741133213043212890625</LatitudeDegrees>
              <LongitudeDegrees>-8.4458978287875652313232421875</LongitudeDegrees>
            </Position>
            <AltitudeMeters>306.79998779296875</AltitudeMeters>
            <DistanceMeters>90839.654209039</DistanceMeters>
          </Trackpoint>
          <Trackpoint>
            <Time>2019-07-26T15:26:48.000Z</Time>
            <Position>
              <LatitudeDegrees>42.89774098433554172515869140625</LatitudeDegrees>
              <LongitudeDegrees>-8.44600939191877841949462890625</LongitudeDegrees>
            </Position>
            <AltitudeMeters>307.399993896484375</AltitudeMeters>
            <DistanceMeters>90850.4538603</DistanceMeters>
          </Trackpoint>
          <Trackpoint>
            <Time>2019-07-26T15:26:50.000Z</Time>
            <Position>
              <LatitudeDegrees>42.8977102227509021759033203125</LatitudeDegrees>
              <LongitudeDegrees>-8.4460862539708614349365234375</LongitudeDegrees>
            </Position>
            <AltitudeMeters>308</AltitudeMeters>
            <DistanceMeters>90857.595419776</DistanceMeters>
          </Trackpoint>
          <Trackpoint>
            <Time>2019-07-26T15:26:51.000Z</Time>
            <Position>
              <LatitudeDegrees>42.89769857190549373626708984375</LatitudeDegrees>
              <LongitudeDegrees>-8.44612506218254566192626953125</LongitudeDegrees>
            </Position>
            <AltitudeMeters>308.399993896484375</AltitudeMeters>
            <DistanceMeters>90861.016381493</DistanceMeters>
          </Trackpoint>
          <Trackpoint>
            <Time>2019-07-26T15:26:53.000Z</Time>
            <Position>
              <LatitudeDegrees>42.89766470901668071746826171875</LatitudeDegrees>
              <LongitudeDegrees>-8.446194715797901153564453125</LongitudeDegrees>
            </Position>
            <AltitudeMeters>309.20001220703125</AltitudeMeters>
            <DistanceMeters>90867.832519939</DistanceMeters>
          </Trackpoint>
          <Trackpoint>
            <Time>2019-07-26T15:26:57.000Z</Time>
            <Position>
              <LatitudeDegrees>42.897609807550907135009765625</LatitudeDegrees>
              <LongitudeDegrees>-8.446339555084705352783203125</LongitudeDegrees>
            </Position>
            <AltitudeMeters>310.399993896484375</AltitudeMeters>
            <DistanceMeters>90881.129470595</DistanceMeters>
          </Trackpoint>
          <Trackpoint>
            <Time>2019-07-26T15:27:01.000Z</Time>
            <Position>
              <LatitudeDegrees>42.89755918085575103759765625</LatitudeDegrees>
              <LongitudeDegrees>-8.44648699276149272918701171875</LongitudeDegrees>
            </Position>
            <AltitudeMeters>311.79998779296875</AltitudeMeters>
            <DistanceMeters>90894.406032356</DistanceMeters>
          </Trackpoint>
          <Trackpoint>
            <Time>2019-07-26T15:27:04.000Z</Time>
            <Position>
              <LatitudeDegrees>42.89752556942403316497802734375</LatitudeDegrees>
              <LongitudeDegrees>-8.446595035493373870849609375</LongitudeDegrees>
            </Position>
            <AltitudeMeters>313</AltitudeMeters>
            <DistanceMeters>90903.976878476</DistanceMeters>
          </Trackpoint>
          <Trackpoint>
            <Time>2019-07-26T15:27:05.000Z</Time>
            <Position>
              <LatitudeDegrees>42.89751299656927585601806640625</LatitudeDegrees>
              <LongitudeDegrees>-8.44662998802959918975830078125</LongitudeDegrees>
            </Position>
            <AltitudeMeters>313.20001220703125</AltitudeMeters>
            <DistanceMeters>90907.149974005</DistanceMeters>
          </Trackpoint>
          <Trackpoint>
            <Time>2019-07-26T15:27:08.000Z</Time>
            <Position>
              <LatitudeDegrees>42.897491455078125</LatitudeDegrees>
              <LongitudeDegrees>-8.44674280844628810882568359375</LongitudeDegrees>
            </Position>
            <AltitudeMeters>314.20001220703125</AltitudeMeters>
            <DistanceMeters>90916.655970795</DistanceMeters>
          </Trackpoint>
          <Trackpoint>
            <Time>2019-07-26T15:27:11.000Z</Time>
            <Position>
              <LatitudeDegrees>42.89745591580867767333984375</LatitudeDegrees>
              <LongitudeDegrees>-8.44684054143726825714111328125</LongitudeDegrees>
            </Position>
            <AltitudeMeters>315.20001220703125</AltitudeMeters>
            <DistanceMeters>90925.552014295</DistanceMeters>
          </Trackpoint>
          <Trackpoint>
            <Time>2019-07-26T15:27:15.000Z</Time>
            <Position>
              <LatitudeDegrees>42.89741274900734424591064453125</LatitudeDegrees>
              <LongitudeDegrees>-8.44695403240621089935302734375</LongitudeDegrees>
            </Position>
            <AltitudeMeters>316.399993896484375</AltitudeMeters>
            <DistanceMeters>90935.979004291</DistanceMeters>
          </Trackpoint>
          <Trackpoint>
            <Time>2019-07-26T15:27:18.000Z</Time>
            <Position>
              <LatitudeDegrees>42.89737670682370662689208984375</LatitudeDegrees>
              <LongitudeDegrees>-8.4470231831073760986328125</LongitudeDegrees>
            </Position>
            <AltitudeMeters>317.399993896484375</AltitudeMeters>
            <DistanceMeters>90942.899663614</DistanceMeters>
          </Trackpoint>
          <Trackpoint>
            <Time>2019-07-26T15:27:22.000Z</Time>
            <Position>
              <LatitudeDegrees>42.8973357193171977996826171875</LatitudeDegrees>
              <LongitudeDegrees>-8.4471433795988559722900390625</LongitudeDegrees>
            </Position>
            <AltitudeMeters>318.600006103515625</AltitudeMeters>
            <DistanceMeters>90953.709761637</DistanceMeters>
          </Trackpoint>
          <Trackpoint>
            <Time>2019-07-26T15:27:23.000Z</Time>
            <Position>
              <LatitudeDegrees>42.8973293490707874298095703125</LatitudeDegrees>
              <LongitudeDegrees>-8.447177074849605560302734375</LongitudeDegrees>
            </Position>
            <AltitudeMeters>318.79998779296875</AltitudeMeters>
            <DistanceMeters>90956.544681042</DistanceMeters>
          </Trackpoint>
          <Trackpoint>
            <Time>2019-07-26T15:27:25.000Z</Time>
            <Position>
              <LatitudeDegrees>42.8972995094954967498779296875</LatitudeDegrees>
              <LongitudeDegrees>-8.4472278691828250885009765625</LongitudeDegrees>
            </Position>
            <AltitudeMeters>319.600006103515625</AltitudeMeters>
            <DistanceMeters>90961.854285421</DistanceMeters>
          </Trackpoint>
          <Trackpoint>
            <Time>2019-07-26T15:27:28.000Z</Time>
            <Position>
              <LatitudeDegrees>42.89725282229483127593994140625</LatitudeDegrees>
              <LongitudeDegrees>-8.447314202785491943359375</LongitudeDegrees>
            </Position>
            <AltitudeMeters>320.79998779296875</AltitudeMeters>
            <DistanceMeters>90970.603970449</DistanceMeters>
          </Trackpoint>
          <Trackpoint>
            <Time>2019-07-26T15:27:31.000Z</Time>
            <Position>
              <LatitudeDegrees>42.8972004354000091552734375</LatitudeDegrees>
              <LongitudeDegrees>-8.44740816392004489898681640625</LongitudeDegrees>
            </Position>
            <AltitudeMeters>322</AltitudeMeters>
            <DistanceMeters>90980.231728999</DistanceMeters>
          </Trackpoint>
          <Trackpoint>
            <Time>2019-07-26T15:27:33.000Z</Time>
            <Position>
              <LatitudeDegrees>42.89714151062071323394775390625</LatitudeDegrees>
              <LongitudeDegrees>-8.447456695139408111572265625</LongitudeDegrees>
            </Position>
            <AltitudeMeters>323.20001220703125</AltitudeMeters>
            <DistanceMeters>90987.890669956</DistanceMeters>
          </Trackpoint>
          <Trackpoint>
            <Time>2019-07-26T15:27:35.000Z</Time>
            <Position>
              <LatitudeDegrees>42.89708971045911312103271484375</LatitudeDegrees>
              <LongitudeDegrees>-8.447493575513362884521484375</LongitudeDegrees>
            </Position>
            <AltitudeMeters>324</AltitudeMeters>
            <DistanceMeters>90994.392191919</DistanceMeters>
          </Trackpoint>
          <Trackpoint>
            <Time>2019-07-26T15:27:36.000Z</Time>
            <Position>
              <LatitudeDegrees>42.8970617987215518951416015625</LatitudeDegrees>
              <LongitudeDegrees>-8.44750799238681793212890625</LongitudeDegrees>
            </Position>
            <AltitudeMeters>324.399993896484375</AltitudeMeters>
            <DistanceMeters>90997.714051852</DistanceMeters>
          </Trackpoint>
          <Trackpoint>
            <Time>2019-07-26T15:27:38.000Z</Time>
            <Position>
              <LatitudeDegrees>42.897006981074810028076171875</LatitudeDegrees>
              <LongitudeDegrees>-8.4475209005177021026611328125</LongitudeDegrees>
            </Position>
            <AltitudeMeters>325.600006103515625</AltitudeMeters>
            <DistanceMeters>91003.90539052</DistanceMeters>
          </Trackpoint>
          <Trackpoint>
            <Time>2019-07-26T15:27:39.000Z</Time>
            <Position>
              <LatitudeDegrees>42.89697940461337566375732421875</LatitudeDegrees>
              <LongitudeDegrees>-8.44752140343189239501953125</LongitudeDegrees>
            </Position>
            <AltitudeMeters>326</AltitudeMeters>
            <DistanceMeters>91006.974326774</DistanceMeters>
          </Trackpoint>
          <Trackpoint>
            <Time>2019-07-26T15:27:41.000Z</Time>
            <Position>
              <LatitudeDegrees>42.89692659862339496612548828125</LatitudeDegrees>
              <LongitudeDegrees>-8.44751796685159206390380859375</LongitudeDegrees>
            </Position>
            <AltitudeMeters>326.79998779296875</AltitudeMeters>
            <DistanceMeters>91012.85831463</DistanceMeters>
          </Trackpoint>
          <Trackpoint>
            <Time>2019-07-26T15:27:44.000Z</Time>
            <Position>
              <LatitudeDegrees>42.8968468867242336273193359375</LatitudeDegrees>
              <LongitudeDegrees>-8.44752752222120761871337890625</LongitudeDegrees>
            </Position>
            <AltitudeMeters>328</AltitudeMeters>
            <DistanceMeters>91021.764503011</DistanceMeters>
          </Trackpoint>
          <Trackpoint>
            <Time>2019-07-26T15:27:46.000Z</Time>
            <Position>
              <LatitudeDegrees>42.89680858142673969268798828125</LatitudeDegrees>
              <LongitudeDegrees>-8.44754445366561412811279296875</LongitudeDegrees>
            </Position>
            <AltitudeMeters>329</AltitudeMeters>
            <DistanceMeters>91026.245896769</DistanceMeters>
          </Trackpoint>
          <Trackpoint>
            <Time>2019-07-26T15:27:47.000Z</Time>
            <Position>
              <LatitudeDegrees>42.89679030887782573699951171875</LatitudeDegrees>
              <LongitudeDegrees>-8.44755551777780055999755859375</LongitudeDegrees>
            </Position>
            <AltitudeMeters>329.399993896484375</AltitudeMeters>
            <DistanceMeters>91028.472443864</DistanceMeters>
          </Trackpoint>
          <Trackpoint>
            <Time>2019-07-26T15:27:51.000Z</Time>
            <Position>
              <LatitudeDegrees>42.89671990089118480682373046875</LatitudeDegrees>
              <LongitudeDegrees>-8.44760145060718059539794921875</LongitudeDegrees>
            </Position>
            <AltitudeMeters>330.399993896484375</AltitudeMeters>
            <DistanceMeters>91037.157906351</DistanceMeters>
          </Trackpoint>
          <Trackpoint>
            <Time>2019-07-26T15:27:53.000Z</Time>
            <Position>
              <LatitudeDegrees>42.89666810072958469390869140625</LatitudeDegrees>
              <LongitudeDegrees>-8.44762056134641170501708984375</LongitudeDegrees>
            </Position>
            <AltitudeMeters>331</AltitudeMeters>
            <DistanceMeters>91043.130242741</DistanceMeters>
          </Trackpoint>
          <Trackpoint>
            <Time>2019-07-26T15:27:56.000Z</Time>
            <Position>
              <LatitudeDegrees>42.89658713154494762420654296875</LatitudeDegrees>
              <LongitudeDegrees>-8.4476241655647754669189453125</LongitudeDegrees>
            </Position>
            <AltitudeMeters>331.600006103515625</AltitudeMeters>
            <DistanceMeters>91052.147271536</DistanceMeters>
          </Trackpoint>
          <Trackpoint>
            <Time>2019-07-26T15:27:58.000Z</Time>
            <Position>
              <LatitudeDegrees>42.896522842347621917724609375</LatitudeDegrees>
              <LongitudeDegrees>-8.44760882668197154998779296875</LongitudeDegrees>
            </Position>
            <AltitudeMeters>332.20001220703125</AltitudeMeters>
            <DistanceMeters>91059.411689389</DistanceMeters>
          </Trackpoint>
          <Trackpoint>
            <Time>2019-07-26T15:28:01.000Z</Time>
            <Position>
              <LatitudeDegrees>42.896404154598712921142578125</LatitudeDegrees>
              <LongitudeDegrees>-8.44759373925626277923583984375</LongitudeDegrees>
            </Position>
            <AltitudeMeters>333</AltitudeMeters>
            <DistanceMeters>91072.678725608</DistanceMeters>
          </Trackpoint>
          <Trackpoint>
            <Time>2019-07-26T15:28:04.000Z</Time>
            <Position>
              <LatitudeDegrees>42.89626928977668285369873046875</LatitudeDegrees>
              <LongitudeDegrees>-8.4475849382579326629638671875</LongitudeDegrees>
            </Position>
            <AltitudeMeters>333.600006103515625</AltitudeMeters>
            <DistanceMeters>91087.706773115</DistanceMeters>
          </Trackpoint>
          <Trackpoint>
            <Time>2019-07-26T15:28:08.000Z</Time>
            <Position>
              <LatitudeDegrees>42.896067537367343902587890625</LatitudeDegrees>
              <LongitudeDegrees>-8.44767672009766101837158203125</LongitudeDegrees>
            </Position>
            <AltitudeMeters>333.79998779296875</AltitudeMeters>
            <DistanceMeters>91111.376628689</DistanceMeters>
          </Trackpoint>
          <Trackpoint>
            <Time>2019-07-26T15:28:12.000Z</Time>
            <Position>
              <LatitudeDegrees>42.89584768004715442657470703125</LatitudeDegrees>
              <LongitudeDegrees>-8.44781653024256229400634765625</LongitudeDegrees>
            </Position>
            <AltitudeMeters>333.79998779296875</AltitudeMeters>
            <DistanceMeters>91138.372579302</DistanceMeters>
          </Trackpoint>
          <Trackpoint>
            <Time>2019-07-26T15:28:14.000Z</Time>
            <Position>
              <LatitudeDegrees>42.89574894122779369354248046875</LatitudeDegrees>
              <LongitudeDegrees>-8.44786749221384525299072265625</LongitudeDegrees>
            </Position>
            <AltitudeMeters>333.399993896484375</AltitudeMeters>
            <DistanceMeters>91150.121740063</DistanceMeters>
          </Trackpoint>
          <Trackpoint>
            <Time>2019-07-26T15:28:15.000Z</Time>
            <Position>
              <LatitudeDegrees>42.89570217020809650421142578125</LatitudeDegrees>
              <LongitudeDegrees>-8.4478829987347126007080078125</LongitudeDegrees>
            </Position>
            <AltitudeMeters>333.20001220703125</AltitudeMeters>
            <DistanceMeters>91155.478752565</DistanceMeters>
          </Trackpoint>
          <Trackpoint>
            <Time>2019-07-26T15:28:17.000Z</Time>
            <Position>
              <LatitudeDegrees>42.89559655822813510894775390625</LatitudeDegrees>
              <LongitudeDegrees>-8.44788760878145694732666015625</LongitudeDegrees>
            </Position>
            <AltitudeMeters>333</AltitudeMeters>
            <DistanceMeters>91167.239820159</DistanceMeters>
          </Trackpoint>
          <Trackpoint>
            <Time>2019-07-26T15:28:18.000Z</Time>
            <Position>
              <LatitudeDegrees>42.8955490328371524810791015625</LatitudeDegrees>
              <LongitudeDegrees>-8.4478886984288692474365234375</LongitudeDegrees>
            </Position>
            <AltitudeMeters>333</AltitudeMeters>
            <DistanceMeters>91172.530683697</DistanceMeters>
          </Trackpoint>
          <Trackpoint>
            <Time>2019-07-26T15:28:21.000Z</Time>
            <Position>
              <LatitudeDegrees>42.89541416801512241363525390625</LatitudeDegrees>
              <LongitudeDegrees>-8.44788014888763427734375</LongitudeDegrees>
            </Position>
            <AltitudeMeters>333</AltitudeMeters>
            <DistanceMeters>91187.557529393</DistanceMeters>
          </Trackpoint>
          <Trackpoint>
            <Time>2019-07-26T15:28:23.000Z</Time>
            <Position>
              <LatitudeDegrees>42.89535683579742908477783203125</LatitudeDegrees>
              <LongitudeDegrees>-8.44786397181451320648193359375</LongitudeDegrees>
            </Position>
            <AltitudeMeters>333</AltitudeMeters>
            <DistanceMeters>91194.074311537</DistanceMeters>
          </Trackpoint>
          <Trackpoint>
            <Time>2019-07-26T15:28:25.000Z</Time>
            <Position>
              <LatitudeDegrees>42.89531760849058628082275390625</LatitudeDegrees>
              <LongitudeDegrees>-8.44784251414239406585693359375</LongitudeDegrees>
            </Position>
            <AltitudeMeters>333</AltitudeMeters>
            <DistanceMeters>91198.778853743</DistanceMeters>
          </Trackpoint>
          <Trackpoint>
            <Time>2019-07-26T15:28:28.000Z</Time>
            <Position>
              <LatitudeDegrees>42.8952593542635440826416015625</LatitudeDegrees>
              <LongitudeDegrees>-8.44779758714139461517333984375</LongitudeDegrees>
            </Position>
            <AltitudeMeters>333.20001220703125</AltitudeMeters>
            <DistanceMeters>91206.226184104</DistanceMeters>
          </Trackpoint>
          <Trackpoint>
            <Time>2019-07-26T15:28:33.000Z</Time>
            <Position>
              <LatitudeDegrees>42.89520344696938991546630859375</LatitudeDegrees>
              <LongitudeDegrees>-8.44763405621051788330078125</LongitudeDegrees>
            </Position>
            <AltitudeMeters>333.79998779296875</AltitudeMeters>
            <DistanceMeters>91220.940910503</DistanceMeters>
          </Trackpoint>
          <Trackpoint>
            <Time>2019-07-26T15:28:35.000Z</Time>
            <Position>
              <LatitudeDegrees>42.8951775468885898590087890625</LatitudeDegrees>
              <LongitudeDegrees>-8.44757412560284137725830078125</LongitudeDegrees>
            </Position>
            <AltitudeMeters>334.20001220703125</AltitudeMeters>
            <DistanceMeters>91226.613933722</DistanceMeters>
          </Trackpoint>
          <Trackpoint>
            <Time>2019-07-26T15:28:38.000Z</Time>
            <Position>
              <LatitudeDegrees>42.89509012363851070404052734375</LatitudeDegrees>
              <LongitudeDegrees>-8.4474853612482547760009765625</LongitudeDegrees>
            </Position>
            <AltitudeMeters>335.20001220703125</AltitudeMeters>
            <DistanceMeters>91238.740921186</DistanceMeters>
          </Trackpoint>
          <Trackpoint>
            <Time>2019-07-26T15:28:41.000Z</Time>
            <Position>
              <LatitudeDegrees>42.8950380720198154449462890625</LatitudeDegrees>
              <LongitudeDegrees>-8.4473938308656215667724609375</LongitudeDegrees>
            </Position>
            <AltitudeMeters>336.600006103515625</AltitudeMeters>
            <DistanceMeters>91248.189272139</DistanceMeters>
          </Trackpoint>
          <Trackpoint>
            <Time>2019-07-26T15:28:44.000Z</Time>
            <Position>
              <LatitudeDegrees>42.8949742019176483154296875</LatitudeDegrees>
              <LongitudeDegrees>-8.44729869626462459564208984375</LongitudeDegrees>
            </Position>
            <AltitudeMeters>337.79998779296875</AltitudeMeters>
            <DistanceMeters>91258.711094092</DistanceMeters>
          </Trackpoint>
          <Trackpoint>
            <Time>2019-07-26T15:28:45.000Z</Time>
            <Position>
              <LatitudeDegrees>42.89495182223618030548095703125</LatitudeDegrees>
              <LongitudeDegrees>-8.44726868905127048492431640625</LongitudeDegrees>
            </Position>
            <AltitudeMeters>338.20001220703125</AltitudeMeters>
            <DistanceMeters>91262.202598524</DistanceMeters>
          </Trackpoint>
          <Trackpoint>
            <Time>2019-07-26T15:28:47.000Z</Time>
            <Position>
              <LatitudeDegrees>42.8949076496064662933349609375</LatitudeDegrees>
              <LongitudeDegrees>-8.44721965491771697998046875</LongitudeDegrees>
            </Position>
            <AltitudeMeters>338.79998779296875</AltitudeMeters>
            <DistanceMeters>91268.539533899</DistanceMeters>
          </Trackpoint>
          <Trackpoint>
            <Time>2019-07-26T15:28:50.000Z</Time>
            <Position>
              <LatitudeDegrees>42.894816957414150238037109375</LatitudeDegrees>
              <LongitudeDegrees>-8.44716743566095829010009765625</LongitudeDegrees>
            </Position>
            <AltitudeMeters>339.79998779296875</AltitudeMeters>
            <DistanceMeters>91279.495252775</DistanceMeters>
          </Trackpoint>
          <Trackpoint>
            <Time>2019-07-26T15:28:51.000Z</Time>
            <Position>
              <LatitudeDegrees>42.89478401653468608856201171875</LatitudeDegrees>
              <LongitudeDegrees>-8.44715662300586700439453125</LongitudeDegrees>
            </Position>
            <AltitudeMeters>340</AltitudeMeters>
            <DistanceMeters>91283.265311173</DistanceMeters>
          </Trackpoint>
          <Trackpoint>
            <Time>2019-07-26T15:28:56.000Z</Time>
            <Position>
              <LatitudeDegrees>42.89462727494537830352783203125</LatitudeDegrees>
              <LongitudeDegrees>-8.447154946625232696533203125</LongitudeDegrees>
            </Position>
            <AltitudeMeters>341.20001220703125</AltitudeMeters>
            <DistanceMeters>91300.711449904</DistanceMeters>
          </Trackpoint>
          <Trackpoint>
            <Time>2019-07-26T15:29:01.000Z</Time>
            <Position>
              <LatitudeDegrees>42.8944966010749340057373046875</LatitudeDegrees>
              <LongitudeDegrees>-8.44723197631537914276123046875</LongitudeDegrees>
            </Position>
            <AltitudeMeters>342</AltitudeMeters>
            <DistanceMeters>91316.554429574</DistanceMeters>
          </Trackpoint>
          <Trackpoint>
            <Time>2019-07-26T15:29:04.000Z</Time>
            <Position>
              <LatitudeDegrees>42.8944136202335357666015625</LatitudeDegrees>
              <LongitudeDegrees>-8.44729182310402393341064453125</LongitudeDegrees>
            </Position>
            <AltitudeMeters>342.399993896484375</AltitudeMeters>
            <DistanceMeters>91327.000454835</DistanceMeters>
          </Trackpoint>
          <Trackpoint>
            <Time>2019-07-26T15:29:08.000Z</Time>
            <Position>
              <LatitudeDegrees>42.89434111677110195159912109375</LatitudeDegrees>
              <LongitudeDegrees>-8.44739844091236591339111328125</LongitudeDegrees>
            </Position>
            <AltitudeMeters>343.20001220703125</AltitudeMeters>
            <DistanceMeters>91338.862438276</DistanceMeters>
          </Trackpoint>
          <Trackpoint>
            <Time>2019-07-26T15:29:10.000Z</Time>
            <Position>
              <LatitudeDegrees>42.89430406875908374786376953125</LatitudeDegrees>
              <LongitudeDegrees>-8.44745191745460033416748046875</LongitudeDegrees>
            </Position>
            <AltitudeMeters>343.600006103515625</AltitudeMeters>
            <DistanceMeters>91344.863433598</DistanceMeters>
          </Trackpoint>
          <Trackpoint>
            <Time>2019-07-26T15:29:13.000Z</Time>
            <Position>
              <LatitudeDegrees>42.89424623362720012664794921875</LatitudeDegrees>
              <LongitudeDegrees>-8.4475386701524257659912109375</LongitudeDegrees>
            </Position>
            <AltitudeMeters>344.79998779296875</AltitudeMeters>
            <DistanceMeters>91354.428145013</DistanceMeters>
          </Trackpoint>
          <Trackpoint>
            <Time>2019-07-26T15:29:16.000Z</Time>
            <Position>
              <LatitudeDegrees>42.894197367131710052490234375</LatitudeDegrees>
              <LongitudeDegrees>-8.447632379829883575439453125</LongitudeDegrees>
            </Position>
            <AltitudeMeters>345.79998779296875</AltitudeMeters>
            <DistanceMeters>91363.807430952</DistanceMeters>
          </Trackpoint>
          <Trackpoint>
            <Time>2019-07-26T15:29:19.000Z</Time>
            <Position>
              <LatitudeDegrees>42.89414715953171253204345703125</LatitudeDegrees>
              <LongitudeDegrees>-8.44772198237478733062744140625</LongitudeDegrees>
            </Position>
            <AltitudeMeters>347</AltitudeMeters>
            <DistanceMeters>91373.0058991</DistanceMeters>
          </Trackpoint>
          <Trackpoint>
            <Time>2019-07-26T15:29:22.000Z</Time>
            <Position>
              <LatitudeDegrees>42.89407541044056415557861328125</LatitudeDegrees>
              <LongitudeDegrees>-8.44777948223054409027099609375</LongitudeDegrees>
            </Position>
            <AltitudeMeters>348</AltitudeMeters>
            <DistanceMeters>91382.266494977</DistanceMeters>
          </Trackpoint>
          <Trackpoint>
            <Time>2019-07-26T15:29:25.000Z</Time>
            <Position>
              <LatitudeDegrees>42.89401019923388957977294921875</LatitudeDegrees>
              <LongitudeDegrees>-8.447831533849239349365234375</LongitudeDegrees>
            </Position>
            <AltitudeMeters>349.20001220703125</AltitudeMeters>
            <DistanceMeters>91390.674077174</DistanceMeters>
          </Trackpoint>
          <Trackpoint>
            <Time>2019-07-26T15:29:28.000Z</Time>
            <Position>
              <LatitudeDegrees>42.89394934661686420440673828125</LatitudeDegrees>
              <LongitudeDegrees>-8.447888530790805816650390625</LongitudeDegrees>
            </Position>
            <AltitudeMeters>350.399993896484375</AltitudeMeters>
            <DistanceMeters>91398.888255842</DistanceMeters>
          </Trackpoint>
          <Trackpoint>
            <Time>2019-07-26T15:29:32.000Z</Time>
            <Position>
              <LatitudeDegrees>42.89385127834975719451904296875</LatitudeDegrees>
              <LongitudeDegrees>-8.4479259140789508819580078125</LongitudeDegrees>
            </Position>
            <AltitudeMeters>351.600006103515625</AltitudeMeters>
            <DistanceMeters>91410.221561068</DistanceMeters>
          </Trackpoint>
          <Trackpoint>
            <Time>2019-07-26T15:29:36.000Z</Time>
            <Position>
              <LatitudeDegrees>42.8937653638422489166259765625</LatitudeDegrees>
              <LongitudeDegrees>-8.44798835925757884979248046875</LongitudeDegrees>
            </Position>
            <AltitudeMeters>352.79998779296875</AltitudeMeters>
            <DistanceMeters>91421.054606506</DistanceMeters>
          </Trackpoint>
          <Trackpoint>
            <Time>2019-07-26T15:29:37.000Z</Time>
            <Position>
              <LatitudeDegrees>42.8937452472746372222900390625</LatitudeDegrees>
              <LongitudeDegrees>-8.44799690879881381988525390625</LongitudeDegrees>
            </Position>
            <AltitudeMeters>353</AltitudeMeters>
            <DistanceMeters>91423.397742541</DistanceMeters>
          </Trackpoint>
          <Trackpoint>
            <Time>2019-07-26T15:29:40.000Z</Time>
            <Position>
              <LatitudeDegrees>42.8936724923551082611083984375</LatitudeDegrees>
              <LongitudeDegrees>-8.4480355493724346160888671875</LongitudeDegrees>
            </Position>
            <AltitudeMeters>354</AltitudeMeters>
            <DistanceMeters>91432.086323499</DistanceMeters>
          </Trackpoint>
          <Trackpoint>
            <Time>2019-07-26T15:29:43.000Z</Time>
            <Position>
              <LatitudeDegrees>42.8936020843684673309326171875</LatitudeDegrees>
              <LongitudeDegrees>-8.4480663947761058807373046875</LongitudeDegrees>
            </Position>
            <AltitudeMeters>354.79998779296875</AltitudeMeters>
            <DistanceMeters>91440.315878367</DistanceMeters>
          </Trackpoint>
          <Trackpoint>
            <Time>2019-07-26T15:29:44.000Z</Time>
            <Position>
              <LatitudeDegrees>42.8935794532299041748046875</LatitudeDegrees>
              <LongitudeDegrees>-8.44808072783052921295166015625</LongitudeDegrees>
            </Position>
            <AltitudeMeters>355</AltitudeMeters>
            <DistanceMeters>91443.092870496</DistanceMeters>
          </Trackpoint>
          <Trackpoint>
            <Time>2019-07-26T15:29:47.000Z</Time>
            <Position>
              <LatitudeDegrees>42.8935110569000244140625</LatitudeDegrees>
              <LongitudeDegrees>-8.44813152216374874114990234375</LongitudeDegrees>
            </Position>
            <AltitudeMeters>356</AltitudeMeters>
            <DistanceMeters>91451.75959859</DistanceMeters>
          </Trackpoint>
          <Trackpoint>
            <Time>2019-07-26T15:29:50.000Z</Time>
            <Position>
              <LatitudeDegrees>42.89343796670436859130859375</LatitudeDegrees>
              <LongitudeDegrees>-8.44819120131433010101318359375</LongitudeDegrees>
            </Position>
            <AltitudeMeters>356.600006103515625</AltitudeMeters>
            <DistanceMeters>91461.238483579</DistanceMeters>
          </Trackpoint>
          <Trackpoint>
            <Time>2019-07-26T15:29:52.000Z</Time>
            <Position>
              <LatitudeDegrees>42.8933858312666416168212890625</LatitudeDegrees>
              <LongitudeDegrees>-8.44823461957275867462158203125</LongitudeDegrees>
            </Position>
            <AltitudeMeters>357.20001220703125</AltitudeMeters>
            <DistanceMeters>91468.035385158</DistanceMeters>
          </Trackpoint>
          <Trackpoint>
            <Time>2019-07-26T15:29:57.000Z</Time>
            <Position>
              <LatitudeDegrees>42.89325733669102191925048828125</LatitudeDegrees>
              <LongitudeDegrees>-8.4483911097049713134765625</LongitudeDegrees>
            </Position>
            <AltitudeMeters>358.20001220703125</AltitudeMeters>
            <DistanceMeters>91487.202534922</DistanceMeters>
          </Trackpoint>
          <Trackpoint>
            <Time>2019-07-26T15:29:58.000Z</Time>
            <Position>
              <LatitudeDegrees>42.8932312689721584320068359375</LatitudeDegrees>
              <LongitudeDegrees>-8.44842539168894290924072265625</LongitudeDegrees>
            </Position>
            <AltitudeMeters>358.20001220703125</AltitudeMeters>
            <DistanceMeters>91491.230815866</DistanceMeters>
          </Trackpoint>
          <Trackpoint>
            <Time>2019-07-26T15:30:03.000Z</Time>
            <Position>
              <LatitudeDegrees>42.89309271611273288726806640625</LatitudeDegrees>
              <LongitudeDegrees>-8.4485947899520397186279296875</LongitudeDegrees>
            </Position>
            <AltitudeMeters>358.399993896484375</AltitudeMeters>
            <DistanceMeters>91511.933994571</DistanceMeters>
          </Trackpoint>
          <Trackpoint>
            <Time>2019-07-26T15:30:04.000Z</Time>
            <Position>
              <LatitudeDegrees>42.89306740276515483856201171875</LatitudeDegrees>
              <LongitudeDegrees>-8.44863728620111942291259765625</LongitudeDegrees>
            </Position>
            <AltitudeMeters>358.399993896484375</AltitudeMeters>
            <DistanceMeters>91516.39923911</DistanceMeters>
          </Trackpoint>
          <Trackpoint>
            <Time>2019-07-26T15:30:07.000Z</Time>
            <Position>
              <LatitudeDegrees>42.89297218434512615203857421875</LatitudeDegrees>
              <LongitudeDegrees>-8.4487691335380077362060546875</LongitudeDegrees>
            </Position>
            <AltitudeMeters>358.600006103515625</AltitudeMeters>
            <DistanceMeters>91531.495631702</DistanceMeters>
          </Trackpoint>
          <Trackpoint>
            <Time>2019-07-26T15:30:09.000Z</Time>
            <Position>
              <LatitudeDegrees>42.89291032589972019195556640625</LatitudeDegrees>
              <LongitudeDegrees>-8.44885177910327911376953125</LongitudeDegrees>
            </Position>
            <AltitudeMeters>358.399993896484375</AltitudeMeters>
            <DistanceMeters>91541.130422091</DistanceMeters>
          </Trackpoint>
          <Trackpoint>
            <Time>2019-07-26T15:30:10.000Z</Time>
            <Position>
              <LatitudeDegrees>42.89287604391574859619140625</LatitudeDegrees>
              <LongitudeDegrees>-8.44888865947723388671875</LongitudeDegrees>
            </Position>
            <AltitudeMeters>358.399993896484375</AltitudeMeters>
            <DistanceMeters>91545.989809902</DistanceMeters>
          </Trackpoint>
          <Trackpoint>
            <Time>2019-07-26T15:30:12.000Z</Time>
            <Position>
              <LatitudeDegrees>42.892807312309741973876953125</LatitudeDegrees>
              <LongitudeDegrees>-8.4489624202251434326171875</LongitudeDegrees>
            </Position>
            <AltitudeMeters>358.399993896484375</AltitudeMeters>
            <DistanceMeters>91555.721120794</DistanceMeters>
          </Trackpoint>
          <Trackpoint>
            <Time>2019-07-26T15:30:17.000Z</Time>
            <Position>
              <LatitudeDegrees>42.89264646358788013458251953125</LatitudeDegrees>
              <LongitudeDegrees>-8.44918579794466495513916015625</LongitudeDegrees>
            </Position>
            <AltitudeMeters>358.600006103515625</AltitudeMeters>
            <DistanceMeters>91581.261218719</DistanceMeters>
          </Trackpoint>
          <Trackpoint>
            <Time>2019-07-26T15:30:18.000Z</Time>
            <Position>
              <LatitudeDegrees>42.89261830039322376251220703125</LatitudeDegrees>
              <LongitudeDegrees>-8.44923793338239192962646484375</LongitudeDegrees>
            </Position>
            <AltitudeMeters>358.600006103515625</AltitudeMeters>
            <DistanceMeters>91586.543541713</DistanceMeters>
          </Trackpoint>
          <Trackpoint>
            <Time>2019-07-26T15:30:21.000Z</Time>
            <Position>
              <LatitudeDegrees>42.89252660237252712249755859375</LatitudeDegrees>
              <LongitudeDegrees>-8.44939433969557285308837890625</LongitudeDegrees>
            </Position>
            <AltitudeMeters>358.79998779296875</AltitudeMeters>
            <DistanceMeters>91602.878465307</DistanceMeters>
          </Trackpoint>
          <Trackpoint>
            <Time>2019-07-26T15:30:22.000Z</Time>
            <Position>
              <LatitudeDegrees>42.89249424822628498077392578125</LatitudeDegrees>
              <LongitudeDegrees>-8.449448905885219573974609375</LongitudeDegrees>
            </Position>
            <AltitudeMeters>358.79998779296875</AltitudeMeters>
            <DistanceMeters>91608.60377556</DistanceMeters>
          </Trackpoint>
          <Trackpoint>
            <Time>2019-07-26T15:30:23.000Z</Time>
            <Position>
              <LatitudeDegrees>42.89245418272912502288818359375</LatitudeDegrees>
              <LongitudeDegrees>-8.4495007060468196868896484375</LongitudeDegrees>
            </Position>
            <AltitudeMeters>358.79998779296875</AltitudeMeters>
            <DistanceMeters>91614.746060101</DistanceMeters>
          </Trackpoint>
          <Trackpoint>
            <Time>2019-07-26T15:30:26.000Z</Time>
            <Position>
              <LatitudeDegrees>42.8923421166837215423583984375</LatitudeDegrees>
              <LongitudeDegrees>-8.44967261888086795806884765625</LongitudeDegrees>
            </Position>
            <AltitudeMeters>358.79998779296875</AltitudeMeters>
            <DistanceMeters>91633.510407697</DistanceMeters>
          </Trackpoint>
          <Trackpoint>
            <Time>2019-07-26T15:30:28.000Z</Time>
            <Position>
              <LatitudeDegrees>42.89227581582963466644287109375</LatitudeDegrees>
              <LongitudeDegrees>-8.4497893787920475006103515625</LongitudeDegrees>
            </Position>
            <AltitudeMeters>358.79998779296875</AltitudeMeters>
            <DistanceMeters>91645.556707065</DistanceMeters>
          </Trackpoint>
          <Trackpoint>
            <Time>2019-07-26T15:30:31.000Z</Time>
            <Position>
              <LatitudeDegrees>42.8921362571418285369873046875</LatitudeDegrees>
              <LongitudeDegrees>-8.4498869441449642181396484375</LongitudeDegrees>
            </Position>
            <AltitudeMeters>358.600006103515625</AltitudeMeters>
            <DistanceMeters>91663.008797151</DistanceMeters>
          </Trackpoint>
          <Trackpoint>
            <Time>2019-07-26T15:30:33.000Z</Time>
            <Position>
              <LatitudeDegrees>42.892058305442333221435546875</LatitudeDegrees>
              <LongitudeDegrees>-8.449892140924930572509765625</LongitudeDegrees>
            </Position>
            <AltitudeMeters>358.600006103515625</AltitudeMeters>
            <DistanceMeters>91671.695299253</DistanceMeters>
          </Trackpoint>
          <Trackpoint>
            <Time>2019-07-26T15:30:34.000Z</Time>
            <Position>
              <LatitudeDegrees>42.89202284999191761016845703125</LatitudeDegrees>
              <LongitudeDegrees>-8.4498832561075687408447265625</LongitudeDegrees>
            </Position>
            <AltitudeMeters>358.600006103515625</AltitudeMeters>
            <DistanceMeters>91675.707857826</DistanceMeters>
          </Trackpoint>
          <Trackpoint>
            <Time>2019-07-26T15:30:36.000Z</Time>
            <Position>
              <LatitudeDegrees>42.89195998571813106536865234375</LatitudeDegrees>
              <LongitudeDegrees>-8.44985215924680233001708984375</LongitudeDegrees>
            </Position>
            <AltitudeMeters>358.600006103515625</AltitudeMeters>
            <DistanceMeters>91683.150336506</DistanceMeters>
          </Trackpoint>
          <Trackpoint>
            <Time>2019-07-26T15:30:40.000Z</Time>
            <Position>
              <LatitudeDegrees>42.8918395377695560455322265625</LatitudeDegrees>
              <LongitudeDegrees>-8.4497940726578235626220703125</LongitudeDegrees>
            </Position>
            <AltitudeMeters>358.600006103515625</AltitudeMeters>
            <DistanceMeters>91697.368822762</DistanceMeters>
          </Trackpoint>
          <Trackpoint>
            <Time>2019-07-26T15:30:41.000Z</Time>
            <Position>
              <LatitudeDegrees>42.89181120693683624267578125</LatitudeDegrees>
              <LongitudeDegrees>-8.44977688975632190704345703125</LongitudeDegrees>
            </Position>
            <AltitudeMeters>358.79998779296875</AltitudeMeters>
            <DistanceMeters>91700.818698232</DistanceMeters>
          </Trackpoint>
          <Trackpoint>
            <Time>2019-07-26T15:30:44.000Z</Time>
            <Position>
              <LatitudeDegrees>42.8917211852967739105224609375</LatitudeDegrees>
              <LongitudeDegrees>-8.4497229941189289093017578125</LongitudeDegrees>
            </Position>
            <AltitudeMeters>359.600006103515625</AltitudeMeters>
            <DistanceMeters>91711.759570836</DistanceMeters>
          </Trackpoint>
          <Trackpoint>
            <Time>2019-07-26T15:30:46.000Z</Time>
            <Position>
              <LatitudeDegrees>42.891664020717144012451171875</LatitudeDegrees>
              <LongitudeDegrees>-8.44972173683345317840576171875</LongitudeDegrees>
            </Position>
            <AltitudeMeters>360.399993896484375</AltitudeMeters>
            <DistanceMeters>91718.122104348</DistanceMeters>
          </Trackpoint>
          <Trackpoint>
            <Time>2019-07-26T15:30:47.000Z</Time>
            <Position>
              <LatitudeDegrees>42.8916427306830883026123046875</LatitudeDegrees>
              <LongitudeDegrees>-8.44974671490490436553955078125</LongitudeDegrees>
            </Position>
            <AltitudeMeters>360.79998779296875</AltitudeMeters>
            <DistanceMeters>91721.246446301</DistanceMeters>
          </Trackpoint>
          <Trackpoint>
            <Time>2019-07-26T15:30:50.000Z</Time>
            <Position>
              <LatitudeDegrees>42.891609370708465576171875</LatitudeDegrees>
              <LongitudeDegrees>-8.44988166354596614837646484375</LongitudeDegrees>
            </Position>
            <AltitudeMeters>361.79998779296875</AltitudeMeters>
            <DistanceMeters>91732.860716916</DistanceMeters>
          </Trackpoint>
          <Trackpoint>
            <Time>2019-07-26T15:30:51.000Z</Time>
            <Position>
              <LatitudeDegrees>42.8915973007678985595703125</LatitudeDegrees>
              <LongitudeDegrees>-8.4499352239072322845458984375</LongitudeDegrees>
            </Position>
            <AltitudeMeters>362</AltitudeMeters>
            <DistanceMeters>91737.430899277</DistanceMeters>
          </Trackpoint>
          <Trackpoint>
            <Time>2019-07-26T15:30:57.000Z</Time>
            <Position>
              <LatitudeDegrees>42.89151457138359546661376953125</LatitudeDegrees>
              <LongitudeDegrees>-8.45030109398066997528076171875</LongitudeDegrees>
            </Position>
            <AltitudeMeters>363</AltitudeMeters>
            <DistanceMeters>91768.654080616</DistanceMeters>
          </Trackpoint>
          <Trackpoint>
            <Time>2019-07-26T15:30:58.000Z</Time>
            <Position>
              <LatitudeDegrees>42.8915019147098064422607421875</LatitudeDegrees>
              <LongitudeDegrees>-8.4503670595586299896240234375</LongitudeDegrees>
            </Position>
            <AltitudeMeters>363</AltitudeMeters>
            <DistanceMeters>91774.214564564</DistanceMeters>
          </Trackpoint>
          <Trackpoint>
            <Time>2019-07-26T15:31:05.000Z</Time>
            <Position>
              <LatitudeDegrees>42.891448102891445159912109375</LatitudeDegrees>
              <LongitudeDegrees>-8.4508465044200420379638671875</LongitudeDegrees>
            </Position>
            <AltitudeMeters>363</AltitudeMeters>
            <DistanceMeters>91813.76691599</DistanceMeters>
          </Trackpoint>
          <Trackpoint>
            <Time>2019-07-26T15:31:07.000Z</Time>
            <Position>
              <LatitudeDegrees>42.89145137183368206024169921875</LatitudeDegrees>
              <LongitudeDegrees>-8.4510114602744579315185546875</LongitudeDegrees>
            </Position>
            <AltitudeMeters>363</AltitudeMeters>
            <DistanceMeters>91827.223181923</DistanceMeters>
          </Trackpoint>
          <Trackpoint>
            <Time>2019-07-26T15:31:09.000Z</Time>
            <Position>
              <LatitudeDegrees>42.89144617505371570587158203125</LatitudeDegrees>
              <LongitudeDegrees>-8.45120751298964023590087890625</LongitudeDegrees>
            </Position>
            <AltitudeMeters>363</AltitudeMeters>
            <DistanceMeters>91843.220725375</DistanceMeters>
          </Trackpoint>
          <Trackpoint>
            <Time>2019-07-26T15:31:10.000Z</Time>
            <Position>
              <LatitudeDegrees>42.89144910871982574462890625</LatitudeDegrees>
              <LongitudeDegrees>-8.45132217742502689361572265625</LongitudeDegrees>
            </Position>
            <AltitudeMeters>363</AltitudeMeters>
            <DistanceMeters>91852.576876349</DistanceMeters>
          </Trackpoint>
          <Trackpoint>
            <Time>2019-07-26T15:31:14.000Z</Time>
            <Position>
              <LatitudeDegrees>42.8914077021181583404541015625</LatitudeDegrees>
              <LongitudeDegrees>-8.4517195634543895721435546875</LongitudeDegrees>
            </Position>
            <AltitudeMeters>362.79998779296875</AltitudeMeters>
            <DistanceMeters>91885.307751821</DistanceMeters>
          </Trackpoint>
          <Trackpoint>
            <Time>2019-07-26T15:31:18.000Z</Time>
            <Position>
              <LatitudeDegrees>42.89138029329478740692138671875</LatitudeDegrees>
              <LongitudeDegrees>-8.45196247100830078125</LongitudeDegrees>
            </Position>
            <AltitudeMeters>362</AltitudeMeters>
            <DistanceMeters>91905.349153973</DistanceMeters>
          </Trackpoint>
          <Trackpoint>
            <Time>2019-07-26T15:31:23.000Z</Time>
            <Position>
              <LatitudeDegrees>42.89134718477725982666015625</LatitudeDegrees>
              <LongitudeDegrees>-8.4521651454269886016845703125</LongitudeDegrees>
            </Position>
            <AltitudeMeters>361.79998779296875</AltitudeMeters>
            <DistanceMeters>91922.282050572</DistanceMeters>
          </Trackpoint>
          <Trackpoint>
            <Time>2019-07-26T15:31:26.000Z</Time>
            <Position>
              <LatitudeDegrees>42.89134374819695949554443359375</LatitudeDegrees>
              <LongitudeDegrees>-8.4522902034223079681396484375</LongitudeDegrees>
            </Position>
            <AltitudeMeters>361.79998779296875</AltitudeMeters>
            <DistanceMeters>91932.486698609</DistanceMeters>
          </Trackpoint>
          <Trackpoint>
            <Time>2019-07-26T15:31:29.000Z</Time>
            <Position>
              <LatitudeDegrees>42.89133938960731029510498046875</LatitudeDegrees>
              <LongitudeDegrees>-8.45241299830377101898193359375</LongitudeDegrees>
            </Position>
            <AltitudeMeters>362.20001220703125</AltitudeMeters>
            <DistanceMeters>91942.511904384</DistanceMeters>
          </Trackpoint>
          <Trackpoint>
            <Time>2019-07-26T15:31:32.000Z</Time>
            <Position>
              <LatitudeDegrees>42.89132899604737758636474609375</LatitudeDegrees>
              <LongitudeDegrees>-8.45253520645201206207275390625</LongitudeDegrees>
            </Position>
            <AltitudeMeters>362.79998779296875</AltitudeMeters>
            <DistanceMeters>91952.544313468</DistanceMeters>
          </Trackpoint>
          <Trackpoint>
            <Time>2019-07-26T15:31:33.000Z</Time>
            <Position>
              <LatitudeDegrees>42.891320027410984039306640625</LatitudeDegrees>
              <LongitudeDegrees>-8.4525753557682037353515625</LongitudeDegrees>
            </Position>
            <AltitudeMeters>363</AltitudeMeters>
            <DistanceMeters>91955.967913799</DistanceMeters>
          </Trackpoint>
          <Trackpoint>
            <Time>2019-07-26T15:31:37.000Z</Time>
            <Position>
              <LatitudeDegrees>42.8912611864507198333740234375</LatitudeDegrees>
              <LongitudeDegrees>-8.45272011123597621917724609375</LongitudeDegrees>
            </Position>
            <AltitudeMeters>364.20001220703125</AltitudeMeters>
            <DistanceMeters>91969.467059796</DistanceMeters>
          </Trackpoint>
          <Trackpoint>
            <Time>2019-07-26T15:31:38.000Z</Time>
            <Position>
              <LatitudeDegrees>42.89123930968344211578369140625</LatitudeDegrees>
              <LongitudeDegrees>-8.452748693525791168212890625</LongitudeDegrees>
            </Position>
            <AltitudeMeters>364.399993896484375</AltitudeMeters>
            <DistanceMeters>91972.838834735</DistanceMeters>
          </Trackpoint>
          <Trackpoint>
            <Time>2019-07-26T15:31:41.000Z</Time>
            <Position>
              <LatitudeDegrees>42.8911730088293552398681640625</LatitudeDegrees>
              <LongitudeDegrees>-8.45283494330942630767822265625</LongitudeDegrees>
            </Position>
            <AltitudeMeters>365.20001220703125</AltitudeMeters>
            <DistanceMeters>91983.033301361</DistanceMeters>
          </Trackpoint>
          <Trackpoint>
            <Time>2019-07-26T15:31:45.000Z</Time>
            <Position>
              <LatitudeDegrees>42.89110536687076091766357421875</LatitudeDegrees>
              <LongitudeDegrees>-8.4529698081314563751220703125</LongitudeDegrees>
            </Position>
            <AltitudeMeters>366.600006103515625</AltitudeMeters>
            <DistanceMeters>91996.360776878</DistanceMeters>
          </Trackpoint>
          <Trackpoint>
            <Time>2019-07-26T15:31:47.000Z</Time>
            <Position>
              <LatitudeDegrees>42.8910742700099945068359375</LatitudeDegrees>
              <LongitudeDegrees>-8.453047089278697967529296875</LongitudeDegrees>
            </Position>
            <AltitudeMeters>367.399993896484375</AltitudeMeters>
            <DistanceMeters>92003.550224532</DistanceMeters>
          </Trackpoint>
          <Trackpoint>
            <Time>2019-07-26T15:31:48.000Z</Time>
            <Position>
              <LatitudeDegrees>42.89105541072785854339599609375</LatitudeDegrees>
              <LongitudeDegrees>-8.4530858136713504791259765625</LongitudeDegrees>
            </Position>
            <AltitudeMeters>367.600006103515625</AltitudeMeters>
            <DistanceMeters>92007.341778527</DistanceMeters>
          </Trackpoint>
          <Trackpoint>
            <Time>2019-07-26T15:31:52.000Z</Time>
            <Position>
              <LatitudeDegrees>42.89101920090615749359130859375</LatitudeDegrees>
              <LongitudeDegrees>-8.4532467462122440338134765625</LongitudeDegrees>
            </Position>
            <AltitudeMeters>368.600006103515625</AltitudeMeters>
            <DistanceMeters>92021.070425785</DistanceMeters>
          </Trackpoint>
          <Trackpoint>
            <Time>2019-07-26T15:31:53.000Z</Time>
            <Position>
              <LatitudeDegrees>42.89101727306842803955078125</LatitudeDegrees>
              <LongitudeDegrees>-8.45328639261424541473388671875</LongitudeDegrees>
            </Position>
            <AltitudeMeters>368.600006103515625</AltitudeMeters>
            <DistanceMeters>92024.309707932</DistanceMeters>
          </Trackpoint>
          <Trackpoint>
            <Time>2019-07-26T15:31:59.000Z</Time>
            <Position>
              <LatitudeDegrees>42.8909949772059917449951171875</LatitudeDegrees>
              <LongitudeDegrees>-8.45351748168468475341796875</LongitudeDegrees>
            </Position>
            <AltitudeMeters>369.79998779296875</AltitudeMeters>
            <DistanceMeters>92043.316476154</DistanceMeters>
          </Trackpoint>
          <Trackpoint>
            <Time>2019-07-26T15:32:01.000Z</Time>
            <Position>
              <LatitudeDegrees>42.89099313318729400634765625</LatitudeDegrees>
              <LongitudeDegrees>-8.45359518192708492279052734375</LongitudeDegrees>
            </Position>
            <AltitudeMeters>370.20001220703125</AltitudeMeters>
            <DistanceMeters>92049.655548655</DistanceMeters>
          </Trackpoint>
          <Trackpoint>
            <Time>2019-07-26T15:32:04.000Z</Time>
            <Position>
              <LatitudeDegrees>42.89098642766475677490234375</LatitudeDegrees>
              <LongitudeDegrees>-8.45371537841856479644775390625</LongitudeDegrees>
            </Position>
            <AltitudeMeters>371</AltitudeMeters>
            <DistanceMeters>92059.48564774</DistanceMeters>
          </Trackpoint>
          <Trackpoint>
            <Time>2019-07-26T15:32:10.000Z</Time>
            <Position>
              <LatitudeDegrees>42.8909745253622531890869140625</LatitudeDegrees>
              <LongitudeDegrees>-8.4539602138102054595947265625</LongitudeDegrees>
            </Position>
            <AltitudeMeters>372.20001220703125</AltitudeMeters>
            <DistanceMeters>92079.495033772</DistanceMeters>
          </Trackpoint>
          <Trackpoint>
            <Time>2019-07-26T15:32:14.000Z</Time>
            <Position>
              <LatitudeDegrees>42.8909661434590816497802734375</LatitudeDegrees>
              <LongitudeDegrees>-8.45415593124926090240478515625</LongitudeDegrees>
            </Position>
            <AltitudeMeters>373.20001220703125</AltitudeMeters>
            <DistanceMeters>92095.482131184</DistanceMeters>
          </Trackpoint>
          <Trackpoint>
            <Time>2019-07-26T15:32:18.000Z</Time>
            <Position>
              <LatitudeDegrees>42.89095834828913211822509765625</LatitudeDegrees>
              <LongitudeDegrees>-8.4543498046696186065673828125</LongitudeDegrees>
            </Position>
            <AltitudeMeters>373.79998779296875</AltitudeMeters>
            <DistanceMeters>92111.315988655</DistanceMeters>
          </Trackpoint>
          <Trackpoint>
            <Time>2019-07-26T15:32:21.000Z</Time>
            <Position>
              <LatitudeDegrees>42.8909497149288654327392578125</LatitudeDegrees>
              <LongitudeDegrees>-8.4545052051544189453125</LongitudeDegrees>
            </Position>
            <AltitudeMeters>374.20001220703125</AltitudeMeters>
            <DistanceMeters>92124.024723732</DistanceMeters>
          </Trackpoint>
          <Trackpoint>
            <Time>2019-07-26T15:32:26.000Z</Time>
            <Position>
              <LatitudeDegrees>42.89090872742235660552978515625</LatitudeDegrees>
              <LongitudeDegrees>-8.4547694027423858642578125</LongitudeDegrees>
            </Position>
            <AltitudeMeters>374.600006103515625</AltitudeMeters>
            <DistanceMeters>92146.046536905</DistanceMeters>
          </Trackpoint>
          <Trackpoint>
            <Time>2019-07-26T15:32:28.000Z</Time>
            <Position>
              <LatitudeDegrees>42.890871427953243255615234375</LatitudeDegrees>
              <LongitudeDegrees>-8.45486772246658802032470703125</LongitudeDegrees>
            </Position>
            <AltitudeMeters>374.79998779296875</AltitudeMeters>
            <DistanceMeters>92155.075575068</DistanceMeters>
          </Trackpoint>
          <Trackpoint>
            <Time>2019-07-26T15:32:32.000Z</Time>
            <Position>
              <LatitudeDegrees>42.890777550637722015380859375</LatitudeDegrees>
              <LongitudeDegrees>-8.45504374243319034576416015625</LongitudeDegrees>
            </Position>
            <AltitudeMeters>375.20001220703125</AltitudeMeters>
            <DistanceMeters>92172.829556265</DistanceMeters>
          </Trackpoint>
          <Trackpoint>
            <Time>2019-07-26T15:32:36.000Z</Time>
            <Position>
              <LatitudeDegrees>42.89067705161869525909423828125</LatitudeDegrees>
              <LongitudeDegrees>-8.455221019685268402099609375</LongitudeDegrees>
            </Position>
            <AltitudeMeters>375.600006103515625</AltitudeMeters>
            <DistanceMeters>92191.108309735</DistanceMeters>
          </Trackpoint>
          <Trackpoint>
            <Time>2019-07-26T15:32:38.000Z</Time>
            <Position>
              <LatitudeDegrees>42.890626676380634307861328125</LatitudeDegrees>
              <LongitudeDegrees>-8.45532034523785114288330078125</LongitudeDegrees>
            </Position>
            <AltitudeMeters>376</AltitudeMeters>
            <DistanceMeters>92200.959055974</DistanceMeters>
          </Trackpoint>
          <Trackpoint>
            <Time>2019-07-26T15:32:40.000Z</Time>
            <Position>
              <LatitudeDegrees>42.89057596586644649505615234375</LatitudeDegrees>
              <LongitudeDegrees>-8.4554183296859264373779296875</LongitudeDegrees>
            </Position>
            <AltitudeMeters>376.20001220703125</AltitudeMeters>
            <DistanceMeters>92210.742193519</DistanceMeters>
          </Trackpoint>
          <Trackpoint>
            <Time>2019-07-26T15:32:45.000Z</Time>
            <Position>
              <LatitudeDegrees>42.890452332794666290283203125</LatitudeDegrees>
              <LongitudeDegrees>-8.45566861331462860107421875</LongitudeDegrees>
            </Position>
            <AltitudeMeters>377</AltitudeMeters>
            <DistanceMeters>92235.35759783</DistanceMeters>
          </Trackpoint>
          <Trackpoint>
            <Time>2019-07-26T15:32:47.000Z</Time>
            <Position>
              <LatitudeDegrees>42.89041302166879177093505859375</LatitudeDegrees>
              <LongitudeDegrees>-8.45577481202781200408935546875</LongitudeDegrees>
            </Position>
            <AltitudeMeters>377</AltitudeMeters>
            <DistanceMeters>92245.059634568</DistanceMeters>
          </Trackpoint>
          <Trackpoint>
            <Time>2019-07-26T15:32:51.000Z</Time>
            <Position>
              <LatitudeDegrees>42.8903425298631191253662109375</LatitudeDegrees>
              <LongitudeDegrees>-8.4560010395944118499755859375</LongitudeDegrees>
            </Position>
            <AltitudeMeters>377.399993896484375</AltitudeMeters>
            <DistanceMeters>92265.106442844</DistanceMeters>
          </Trackpoint>
          <Trackpoint>
            <Time>2019-07-26T15:32:55.000Z</Time>
            <Position>
              <LatitudeDegrees>42.8902737982571125030517578125</LatitudeDegrees>
              <LongitudeDegrees>-8.456226177513599395751953125</LongitudeDegrees>
            </Position>
            <AltitudeMeters>378.20001220703125</AltitudeMeters>
            <DistanceMeters>92284.995649937</DistanceMeters>
          </Trackpoint>
          <Trackpoint>
            <Time>2019-07-26T15:32:56.000Z</Time>
            <Position>
              <LatitudeDegrees>42.89025879465043544769287109375</LatitudeDegrees>
              <LongitudeDegrees>-8.45628342591226100921630859375</LongitudeDegrees>
            </Position>
            <AltitudeMeters>378.399993896484375</AltitudeMeters>
            <DistanceMeters>92289.953458735</DistanceMeters>
          </Trackpoint>
          <Trackpoint>
            <Time>2019-07-26T15:33:02.000Z</Time>
            <Position>
              <LatitudeDegrees>42.89019475691020488739013671875</LatitudeDegrees>
              <LongitudeDegrees>-8.45664091408252716064453125</LongitudeDegrees>
            </Position>
            <AltitudeMeters>379.600006103515625</AltitudeMeters>
            <DistanceMeters>92319.964002454</DistanceMeters>
          </Trackpoint>
          <Trackpoint>
            <Time>2019-07-26T15:33:08.000Z</Time>
            <Position>
              <LatitudeDegrees>42.89015435613691806793212890625</LatitudeDegrees>
              <LongitudeDegrees>-8.45699773170053958892822265625</LongitudeDegrees>
            </Position>
            <AltitudeMeters>380.600006103515625</AltitudeMeters>
            <DistanceMeters>92349.40649298</DistanceMeters>
          </Trackpoint>
          <Trackpoint>
            <Time>2019-07-26T15:33:09.000Z</Time>
            <Position>
              <LatitudeDegrees>42.89015988819301128387451171875</LatitudeDegrees>
              <LongitudeDegrees>-8.457060344517230987548828125</LongitudeDegrees>
            </Position>
            <AltitudeMeters>380.79998779296875</AltitudeMeters>
            <DistanceMeters>92354.550239084</DistanceMeters>
          </Trackpoint>
          <Trackpoint>
            <Time>2019-07-26T15:33:16.000Z</Time>
            <Position>
              <LatitudeDegrees>42.89018754847347736358642578125</LatitudeDegrees>
              <LongitudeDegrees>-8.4574816189706325531005859375</LongitudeDegrees>
            </Position>
            <AltitudeMeters>381.399993896484375</AltitudeMeters>
            <DistanceMeters>92389.041402168</DistanceMeters>
          </Trackpoint>
          <Trackpoint>
            <Time>2019-07-26T15:33:19.000Z</Time>
            <Position>
              <LatitudeDegrees>42.89020833559334278106689453125</LatitudeDegrees>
              <LongitudeDegrees>-8.45765956677496433258056640625</LongitudeDegrees>
            </Position>
            <AltitudeMeters>381.600006103515625</AltitudeMeters>
            <DistanceMeters>92403.735863299</DistanceMeters>
          </Trackpoint>
          <Trackpoint>
            <Time>2019-07-26T15:33:20.000Z</Time>
            <Position>
              <LatitudeDegrees>42.89022090844810009002685546875</LatitudeDegrees>
              <LongitudeDegrees>-8.45771153457462787628173828125</LongitudeDegrees>
            </Position>
            <AltitudeMeters>381.79998779296875</AltitudeMeters>
            <DistanceMeters>92408.198073352</DistanceMeters>
          </Trackpoint>
          <Trackpoint>
            <Time>2019-07-26T15:33:21.000Z</Time>
            <Position>
              <LatitudeDegrees>42.890238426625728607177734375</LatitudeDegrees>
              <LongitudeDegrees>-8.45775847323238849639892578125</LongitudeDegrees>
            </Position>
            <AltitudeMeters>381.79998779296875</AltitudeMeters>
            <DistanceMeters>92412.493238794</DistanceMeters>
          </Trackpoint>
          <Trackpoint>
            <Time>2019-07-26T15:33:28.000Z</Time>
            <Position>
              <LatitudeDegrees>42.89037798531353473663330078125</LatitudeDegrees>
              <LongitudeDegrees>-8.4580951742827892303466796875</LongitudeDegrees>
            </Position>
            <AltitudeMeters>382.79998779296875</AltitudeMeters>
            <DistanceMeters>92444.039245584</DistanceMeters>
          </Trackpoint>
          <Trackpoint>
            <Time>2019-07-26T15:33:29.000Z</Time>
            <Position>
              <LatitudeDegrees>42.89038854651153087615966796875</LatitudeDegrees>
              <LongitudeDegrees>-8.45814370550215244293212890625</LongitudeDegrees>
            </Position>
            <AltitudeMeters>383</AltitudeMeters>
            <DistanceMeters>92448.167169306</DistanceMeters>
          </Trackpoint>
          <Trackpoint>
            <Time>2019-07-26T15:33:34.000Z</Time>
            <Position>
              <LatitudeDegrees>42.89045945741236209869384765625</LatitudeDegrees>
              <LongitudeDegrees>-8.45837621949613094329833984375</LongitudeDegrees>
            </Position>
            <AltitudeMeters>384.20001220703125</AltitudeMeters>
            <DistanceMeters>92468.704814514</DistanceMeters>
          </Trackpoint>
          <Trackpoint>
            <Time>2019-07-26T15:33:35.000Z</Time>
            <Position>
              <LatitudeDegrees>42.8904672525823116302490234375</LatitudeDegrees>
              <LongitudeDegrees>-8.45842768438160419464111328125</LongitudeDegrees>
            </Position>
            <AltitudeMeters>384.79998779296875</AltitudeMeters>
            <DistanceMeters>92472.990508797</DistanceMeters>
          </Trackpoint>
          <Trackpoint>
            <Time>2019-07-26T15:33:37.000Z</Time>
            <Position>
              <LatitudeDegrees>42.8904853574931621551513671875</LatitudeDegrees>
              <LongitudeDegrees>-8.458533547818660736083984375</LongitudeDegrees>
            </Position>
            <AltitudeMeters>385.399993896484375</AltitudeMeters>
            <DistanceMeters>92481.855538706</DistanceMeters>
          </Trackpoint>
          <Trackpoint>
            <Time>2019-07-26T15:33:40.000Z</Time>
            <Position>
              <LatitudeDegrees>42.890498600900173187255859375</LatitudeDegrees>
              <LongitudeDegrees>-8.4586795605719089508056640625</LongitudeDegrees>
            </Position>
            <AltitudeMeters>386.399993896484375</AltitudeMeters>
            <DistanceMeters>92493.853014212</DistanceMeters>
          </Trackpoint>
          <Trackpoint>
            <Time>2019-07-26T15:33:42.000Z</Time>
            <Position>
              <LatitudeDegrees>42.8905255906283855438232421875</LatitudeDegrees>
              <LongitudeDegrees>-8.45876949839293956756591796875</LongitudeDegrees>
            </Position>
            <AltitudeMeters>386.79998779296875</AltitudeMeters>
            <DistanceMeters>92501.778492857</DistanceMeters>
          </Trackpoint>
          <Trackpoint>
            <Time>2019-07-26T15:33:47.000Z</Time>
            <Position>
              <LatitudeDegrees>42.89057009853422641754150390625</LatitudeDegrees>
              <LongitudeDegrees>-8.458998911082744598388671875</LongitudeDegrees>
            </Position>
            <AltitudeMeters>387.600006103515625</AltitudeMeters>
            <DistanceMeters>92521.130841304</DistanceMeters>
          </Trackpoint>
          <Trackpoint>
            <Time>2019-07-26T15:33:48.000Z</Time>
            <Position>
              <LatitudeDegrees>42.89057998917996883392333984375</LatitudeDegrees>
              <LongitudeDegrees>-8.45903989858925342559814453125</LongitudeDegrees>
            </Position>
            <AltitudeMeters>387.600006103515625</AltitudeMeters>
            <DistanceMeters>92524.650680062</DistanceMeters>
          </Trackpoint>
          <Trackpoint>
            <Time>2019-07-26T15:33:53.000Z</Time>
            <Position>
              <LatitudeDegrees>42.89064620621502399444580078125</LatitudeDegrees>
              <LongitudeDegrees>-8.4592404775321483612060546875</LongitudeDegrees>
            </Position>
            <AltitudeMeters>388.79998779296875</AltitudeMeters>
            <DistanceMeters>92542.590858005</DistanceMeters>
          </Trackpoint>
          <Trackpoint>
            <Time>2019-07-26T15:33:55.000Z</Time>
            <Position>
              <LatitudeDegrees>42.89067269302904605865478515625</LatitudeDegrees>
              <LongitudeDegrees>-8.45933544449508190155029296875</LongitudeDegrees>
            </Position>
            <AltitudeMeters>389.20001220703125</AltitudeMeters>
            <DistanceMeters>92550.877274678</DistanceMeters>
          </Trackpoint>
          <Trackpoint>
            <Time>2019-07-26T15:33:59.000Z</Time>
            <Position>
              <LatitudeDegrees>42.8906871937215328216552734375</LatitudeDegrees>
              <LongitudeDegrees>-8.45955136232078075408935546875</LongitudeDegrees>
            </Position>
            <AltitudeMeters>390</AltitudeMeters>
            <DistanceMeters>92568.557862517</DistanceMeters>
          </Trackpoint>
          <Trackpoint>
            <Time>2019-07-26T15:34:01.000Z</Time>
            <Position>
              <LatitudeDegrees>42.890685014426708221435546875</LatitudeDegrees>
              <LongitudeDegrees>-8.459669463336467742919921875</LongitudeDegrees>
            </Position>
            <AltitudeMeters>390.399993896484375</AltitudeMeters>
            <DistanceMeters>92578.190778251</DistanceMeters>
          </Trackpoint>
          <Trackpoint>
            <Time>2019-07-26T15:34:02.000Z</Time>
            <Position>
              <LatitudeDegrees>42.890686355531215667724609375</LatitudeDegrees>
              <LongitudeDegrees>-8.4597314894199371337890625</LongitudeDegrees>
            </Position>
            <AltitudeMeters>390.600006103515625</AltitudeMeters>
            <DistanceMeters>92583.251341144</DistanceMeters>
          </Trackpoint>
          <Trackpoint>
            <Time>2019-07-26T15:34:08.000Z</Time>
            <Position>
              <LatitudeDegrees>42.890680320560932159423828125</LatitudeDegrees>
              <LongitudeDegrees>-8.46009023487567901611328125</LongitudeDegrees>
            </Position>
            <AltitudeMeters>391</AltitudeMeters>
            <DistanceMeters>92612.513089359</DistanceMeters>
          </Trackpoint>
          <Trackpoint>
            <Time>2019-07-26T15:34:11.000Z</Time>
            <Position>
              <LatitudeDegrees>42.8906477987766265869140625</LatitudeDegrees>
              <LongitudeDegrees>-8.46025259234011173248291015625</LongitudeDegrees>
            </Position>
            <AltitudeMeters>391.20001220703125</AltitudeMeters>
            <DistanceMeters>92626.238447451</DistanceMeters>
          </Trackpoint>
          <Trackpoint>
            <Time>2019-07-26T15:34:13.000Z</Time>
            <Position>
              <LatitudeDegrees>42.89062743075191974639892578125</LatitudeDegrees>
              <LongitudeDegrees>-8.460381589829921722412109375</LongitudeDegrees>
            </Position>
            <AltitudeMeters>391.20001220703125</AltitudeMeters>
            <DistanceMeters>92636.998728125</DistanceMeters>
          </Trackpoint>
          <Trackpoint>
            <Time>2019-07-26T15:34:15.000Z</Time>
            <Position>
              <LatitudeDegrees>42.890590131282806396484375</LatitudeDegrees>
              <LongitudeDegrees>-8.4605120122432708740234375</LongitudeDegrees>
            </Position>
            <AltitudeMeters>391.20001220703125</AltitudeMeters>
            <DistanceMeters>92648.41538803</DistanceMeters>
          </Trackpoint>
          <Trackpoint>
            <Time>2019-07-26T15:34:17.000Z</Time>
            <Position>
              <LatitudeDegrees>42.89055149070918560028076171875</LatitudeDegrees>
              <LongitudeDegrees>-8.46064151264727115631103515625</LongitudeDegrees>
            </Position>
            <AltitudeMeters>391.20001220703125</AltitudeMeters>
            <DistanceMeters>92659.817801837</DistanceMeters>
          </Trackpoint>
          <Trackpoint>
            <Time>2019-07-26T15:34:20.000Z</Time>
            <Position>
              <LatitudeDegrees>42.8905064798891544342041015625</LatitudeDegrees>
              <LongitudeDegrees>-8.4608380682766437530517578125</LongitudeDegrees>
            </Position>
            <AltitudeMeters>391.20001220703125</AltitudeMeters>
            <DistanceMeters>92676.610933986</DistanceMeters>
          </Trackpoint>
          <Trackpoint>
            <Time>2019-07-26T15:34:25.000Z</Time>
            <Position>
              <LatitudeDegrees>42.8904427774250507354736328125</LatitudeDegrees>
              <LongitudeDegrees>-8.46116580069065093994140625</LongitudeDegrees>
            </Position>
            <AltitudeMeters>391.20001220703125</AltitudeMeters>
            <DistanceMeters>92704.260932034</DistanceMeters>
          </Trackpoint>
          <Trackpoint>
            <Time>2019-07-26T15:34:27.000Z</Time>
            <Position>
              <LatitudeDegrees>42.8904354013502597808837890625</LatitudeDegrees>
              <LongitudeDegrees>-8.46129546873271465301513671875</LongitudeDegrees>
            </Position>
            <AltitudeMeters>391.20001220703125</AltitudeMeters>
            <DistanceMeters>92714.866526415</DistanceMeters>
          </Trackpoint>
          <Trackpoint>
            <Time>2019-07-26T15:34:30.000Z</Time>
            <Position>
              <LatitudeDegrees>42.89042224176228046417236328125</LatitudeDegrees>
              <LongitudeDegrees>-8.46149713732302188873291015625</LongitudeDegrees>
            </Position>
            <AltitudeMeters>391.20001220703125</AltitudeMeters>
            <DistanceMeters>92731.37685402</DistanceMeters>
          </Trackpoint>
          <Trackpoint>
            <Time>2019-07-26T15:34:35.000Z</Time>
            <Position>
              <LatitudeDegrees>42.890326268970966339111328125</LatitudeDegrees>
              <LongitudeDegrees>-8.4618717245757579803466796875</LongitudeDegrees>
            </Position>
            <AltitudeMeters>391</AltitudeMeters>
            <DistanceMeters>92763.737043217</DistanceMeters>
          </Trackpoint>
          <Trackpoint>
            <Time>2019-07-26T15:34:36.000Z</Time>
            <Position>
              <LatitudeDegrees>42.89031629450619220733642578125</LatitudeDegrees>
              <LongitudeDegrees>-8.461956046521663665771484375</LongitudeDegrees>
            </Position>
            <AltitudeMeters>390.79998779296875</AltitudeMeters>
            <DistanceMeters>92770.701924455</DistanceMeters>
          </Trackpoint>
          <Trackpoint>
            <Time>2019-07-26T15:34:42.000Z</Time>
            <Position>
              <LatitudeDegrees>42.89027388207614421844482421875</LatitudeDegrees>
              <LongitudeDegrees>-8.46242375671863555908203125</LongitudeDegrees>
            </Position>
            <AltitudeMeters>391.20001220703125</AltitudeMeters>
            <DistanceMeters>92809.132917716</DistanceMeters>
          </Trackpoint>
          <Trackpoint>
            <Time>2019-07-26T15:34:43.000Z</Time>
            <Position>
              <LatitudeDegrees>42.89027673192322254180908203125</LatitudeDegrees>
              <LongitudeDegrees>-8.46250346861779689788818359375</LongitudeDegrees>
            </Position>
            <AltitudeMeters>391.20001220703125</AltitudeMeters>
            <DistanceMeters>92815.641380561</DistanceMeters>
          </Trackpoint>
          <Trackpoint>
            <Time>2019-07-26T15:34:49.000Z</Time>
            <Position>
              <LatitudeDegrees>42.890359126031398773193359375</LatitudeDegrees>
              <LongitudeDegrees>-8.463043682277202606201171875</LongitudeDegrees>
            </Position>
            <AltitudeMeters>391.20001220703125</AltitudeMeters>
            <DistanceMeters>92860.638210562</DistanceMeters>
          </Trackpoint>
          <Trackpoint>
            <Time>2019-07-26T15:34:56.000Z</Time>
            <Position>
              <LatitudeDegrees>42.89043330587446689605712890625</LatitudeDegrees>
              <LongitudeDegrees>-8.4636191837489604949951171875</LongitudeDegrees>
            </Position>
            <AltitudeMeters>391.20001220703125</AltitudeMeters>
            <DistanceMeters>92908.288967762</DistanceMeters>
          </Trackpoint>
          <Trackpoint>
            <Time>2019-07-26T15:35:02.000Z</Time>
            <Position>
              <LatitudeDegrees>42.89053288288414478302001953125</LatitudeDegrees>
              <LongitudeDegrees>-8.46409468911588191986083984375</LongitudeDegrees>
            </Position>
            <AltitudeMeters>391.399993896484375</AltitudeMeters>
            <DistanceMeters>92948.617369393</DistanceMeters>
          </Trackpoint>
          <Trackpoint>
            <Time>2019-07-26T15:35:08.000Z</Time>
            <Position>
              <LatitudeDegrees>42.89062567055225372314453125</LatitudeDegrees>
              <LongitudeDegrees>-8.46451059915125370025634765625</LongitudeDegrees>
            </Position>
            <AltitudeMeters>391.79998779296875</AltitudeMeters>
            <DistanceMeters>92984.070740045</DistanceMeters>
          </Trackpoint>
          <Trackpoint>
            <Time>2019-07-26T15:35:09.000Z</Time>
            <Position>
              <LatitudeDegrees>42.89063774049282073974609375</LatitudeDegrees>
              <LongitudeDegrees>-8.46457966603338718414306640625</LongitudeDegrees>
            </Position>
            <AltitudeMeters>392</AltitudeMeters>
            <DistanceMeters>92989.86035521</DistanceMeters>
          </Trackpoint>
          <Trackpoint>
            <Time>2019-07-26T15:35:16.000Z</Time>
            <Position>
              <LatitudeDegrees>42.89067017845809459686279296875</LatitudeDegrees>
              <LongitudeDegrees>-8.4650937281548976898193359375</LongitudeDegrees>
            </Position>
            <AltitudeMeters>392.399993896484375</AltitudeMeters>
            <DistanceMeters>93031.935089628</DistanceMeters>
          </Trackpoint>
          <Trackpoint>
            <Time>2019-07-26T15:35:25.000Z</Time>
            <Position>
              <LatitudeDegrees>42.89080579765141010284423828125</LatitudeDegrees>
              <LongitudeDegrees>-8.4657937847077846527099609375</LongitudeDegrees>
            </Position>
            <AltitudeMeters>392.79998779296875</AltitudeMeters>
            <DistanceMeters>93090.983622521</DistanceMeters>
          </Trackpoint>
          <Trackpoint>
            <Time>2019-07-26T15:35:28.000Z</Time>
            <Position>
              <LatitudeDegrees>42.89083764888346195220947265625</LatitudeDegrees>
              <LongitudeDegrees>-8.46601397730410099029541015625</LongitudeDegrees>
            </Position>
            <AltitudeMeters>393</AltitudeMeters>
            <DistanceMeters>93109.286073607</DistanceMeters>
          </Trackpoint>
          <Trackpoint>
            <Time>2019-07-26T15:35:31.000Z</Time>
            <Position>
              <LatitudeDegrees>42.89086296223104000091552734375</LatitudeDegrees>
              <LongitudeDegrees>-8.46623877994716167449951171875</LongitudeDegrees>
            </Position>
            <AltitudeMeters>393</AltitudeMeters>
            <DistanceMeters>93127.832600827</DistanceMeters>
          </Trackpoint>
          <Trackpoint>
            <Time>2019-07-26T15:35:38.000Z</Time>
            <Position>
              <LatitudeDegrees>42.8908776305615901947021484375</LatitudeDegrees>
              <LongitudeDegrees>-8.466760553419589996337890625</LongitudeDegrees>
            </Position>
            <AltitudeMeters>393.20001220703125</AltitudeMeters>
            <DistanceMeters>93170.412204255</DistanceMeters>
          </Trackpoint>
          <Trackpoint>
            <Time>2019-07-26T15:35:44.000Z</Time>
            <Position>
              <LatitudeDegrees>42.89095021784305572509765625</LatitudeDegrees>
              <LongitudeDegrees>-8.46720219589769840240478515625</LongitudeDegrees>
            </Position>
            <AltitudeMeters>393.20001220703125</AltitudeMeters>
            <DistanceMeters>93207.321123262</DistanceMeters>
          </Trackpoint>
          <Trackpoint>
            <Time>2019-07-26T15:35:47.000Z</Time>
            <Position>
              <LatitudeDegrees>42.8909782133996486663818359375</LatitudeDegrees>
              <LongitudeDegrees>-8.4674238972365856170654296875</LongitudeDegrees>
            </Position>
            <AltitudeMeters>393.79998779296875</AltitudeMeters>
            <DistanceMeters>93225.666448254</DistanceMeters>
          </Trackpoint>
          <Trackpoint>
            <Time>2019-07-26T15:35:48.000Z</Time>
            <Position>
              <LatitudeDegrees>42.89098533801734447479248046875</LatitudeDegrees>
              <LongitudeDegrees>-8.467498160898685455322265625</LongitudeDegrees>
            </Position>
            <AltitudeMeters>394</AltitudeMeters>
            <DistanceMeters>93231.77334728</DistanceMeters>
          </Trackpoint>
          <Trackpoint>
            <Time>2019-07-26T15:35:50.000Z</Time>
            <Position>
              <LatitudeDegrees>42.89101182483136653900146484375</LatitudeDegrees>
              <LongitudeDegrees>-8.46765414811670780181884765625</LongitudeDegrees>
            </Position>
            <AltitudeMeters>394</AltitudeMeters>
            <DistanceMeters>93244.830446624</DistanceMeters>
          </Trackpoint>
          <Trackpoint>
            <Time>2019-07-26T15:35:59.000Z</Time>
            <Position>
              <LatitudeDegrees>42.89110553450882434844970703125</LatitudeDegrees>
              <LongitudeDegrees>-8.4682959504425525665283203125</LongitudeDegrees>
            </Position>
            <AltitudeMeters>394.600006103515625</AltitudeMeters>
            <DistanceMeters>93298.195540724</DistanceMeters>
          </Trackpoint>
          <Trackpoint>
            <Time>2019-07-26T15:36:01.000Z</Time>
            <Position>
              <LatitudeDegrees>42.8911287523806095123291015625</LatitudeDegrees>
              <LongitudeDegrees>-8.46842813305556774139404296875</LongitudeDegrees>
            </Position>
            <AltitudeMeters>395</AltitudeMeters>
            <DistanceMeters>93309.279501659</DistanceMeters>
          </Trackpoint>
          <Trackpoint>
            <Time>2019-07-26T15:36:02.000Z</Time>
            <Position>
              <LatitudeDegrees>42.89114107377827167510986328125</LatitudeDegrees>
              <LongitudeDegrees>-8.46849284134805202484130859375</LongitudeDegrees>
            </Position>
            <AltitudeMeters>395.20001220703125</AltitudeMeters>
            <DistanceMeters>93314.730921802</DistanceMeters>
          </Trackpoint>
          <Trackpoint>
            <Time>2019-07-26T15:36:05.000Z</Time>
            <Position>
              <LatitudeDegrees>42.891168482601642608642578125</LatitudeDegrees>
              <LongitudeDegrees>-8.46867539919912815093994140625</LongitudeDegrees>
            </Position>
            <AltitudeMeters>396</AltitudeMeters>
            <DistanceMeters>93329.926878989</DistanceMeters>
          </Trackpoint>
          <Trackpoint>
            <Time>2019-07-26T15:36:06.000Z</Time>
            <Position>
              <LatitudeDegrees>42.89118088781833648681640625</LatitudeDegrees>
              <LongitudeDegrees>-8.46873457543551921844482421875</LongitudeDegrees>
            </Position>
            <AltitudeMeters>396.20001220703125</AltitudeMeters>
            <DistanceMeters>93334.945333253</DistanceMeters>
          </Trackpoint>
          <Trackpoint>
            <Time>2019-07-26T15:36:10.000Z</Time>
            <Position>
              <LatitudeDegrees>42.8912192769348621368408203125</LatitudeDegrees>
              <LongitudeDegrees>-8.468965999782085418701171875</LongitudeDegrees>
            </Position>
            <AltitudeMeters>396.79998779296875</AltitudeMeters>
            <DistanceMeters>93354.294648472</DistanceMeters>
          </Trackpoint>
          <Trackpoint>
            <Time>2019-07-26T15:36:12.000Z</Time>
            <Position>
              <LatitudeDegrees>42.89122112095355987548828125</LatitudeDegrees>
              <LongitudeDegrees>-8.4690902195870876312255859375</LongitudeDegrees>
            </Position>
            <AltitudeMeters>397</AltitudeMeters>
            <DistanceMeters>93364.426029372</DistanceMeters>
          </Trackpoint>
          <Trackpoint>
            <Time>2019-07-26T15:36:13.000Z</Time>
            <Position>
              <LatitudeDegrees>42.8912300057709217071533203125</LatitudeDegrees>
              <LongitudeDegrees>-8.46915199421346187591552734375</LongitudeDegrees>
            </Position>
            <AltitudeMeters>397.20001220703125</AltitudeMeters>
            <DistanceMeters>93369.559231401</DistanceMeters>
          </Trackpoint>
          <Trackpoint>
            <Time>2019-07-26T15:36:16.000Z</Time>
            <Position>
              <LatitudeDegrees>42.89126831106841564178466796875</LatitudeDegrees>
              <LongitudeDegrees>-8.46934477798640727996826171875</LongitudeDegrees>
            </Position>
            <AltitudeMeters>397.20001220703125</AltitudeMeters>
            <DistanceMeters>93385.847375737</DistanceMeters>
          </Trackpoint>
          <Trackpoint>
            <Time>2019-07-26T15:36:19.000Z</Time>
            <Position>
              <LatitudeDegrees>42.8913275711238384246826171875</LatitudeDegrees>
              <LongitudeDegrees>-8.4695612825453281402587890625</LongitudeDegrees>
            </Position>
            <AltitudeMeters>397.399993896484375</AltitudeMeters>
            <DistanceMeters>93404.694314136</DistanceMeters>
          </Trackpoint>
          <Trackpoint>
            <Time>2019-07-26T15:36:23.000Z</Time>
            <Position>
              <LatitudeDegrees>42.89136805571615695953369140625</LatitudeDegrees>
              <LongitudeDegrees>-8.46985925920307636260986328125</LongitudeDegrees>
            </Position>
            <AltitudeMeters>397.600006103515625</AltitudeMeters>
            <DistanceMeters>93429.407106978</DistanceMeters>
          </Trackpoint>
          <Trackpoint>
            <Time>2019-07-26T15:36:29.000Z</Time>
            <Position>
              <LatitudeDegrees>42.891404516994953155517578125</LatitudeDegrees>
              <LongitudeDegrees>-8.47027919255197048187255859375</LongitudeDegrees>
            </Position>
            <AltitudeMeters>397.79998779296875</AltitudeMeters>
            <DistanceMeters>93463.890153046</DistanceMeters>
          </Trackpoint>
          <Trackpoint>
            <Time>2019-07-26T15:36:30.000Z</Time>
            <Position>
              <LatitudeDegrees>42.89141558110713958740234375</LatitudeDegrees>
              <LongitudeDegrees>-8.470345325767993927001953125</LongitudeDegrees>
            </Position>
            <AltitudeMeters>397.79998779296875</AltitudeMeters>
            <DistanceMeters>93469.422144466</DistanceMeters>
          </Trackpoint>
          <Trackpoint>
            <Time>2019-07-26T15:36:36.000Z</Time>
            <Position>
              <LatitudeDegrees>42.891515158116817474365234375</LatitudeDegrees>
              <LongitudeDegrees>-8.4708063304424285888671875</LongitudeDegrees>
            </Position>
            <AltitudeMeters>397.399993896484375</AltitudeMeters>
            <DistanceMeters>93508.614414919</DistanceMeters>
          </Trackpoint>
          <Trackpoint>
            <Time>2019-07-26T15:36:39.000Z</Time>
            <Position>
              <LatitudeDegrees>42.89157022722065448760986328125</LatitudeDegrees>
              <LongitudeDegrees>-8.4710750542581081390380859375</LongitudeDegrees>
            </Position>
            <AltitudeMeters>397</AltitudeMeters>
            <DistanceMeters>93531.368501651</DistanceMeters>
          </Trackpoint>
          <Trackpoint>
            <Time>2019-07-26T15:36:42.000Z</Time>
            <Position>
              <LatitudeDegrees>42.89162336848676204681396484375</LatitudeDegrees>
              <LongitudeDegrees>-8.47137588076293468475341796875</LongitudeDegrees>
            </Position>
            <AltitudeMeters>396.600006103515625</AltitudeMeters>
            <DistanceMeters>93556.602344211</DistanceMeters>
          </Trackpoint>
          <Trackpoint>
            <Time>2019-07-26T15:36:46.000Z</Time>
            <Position>
              <LatitudeDegrees>42.8916782699525356292724609375</LatitudeDegrees>
              <LongitudeDegrees>-8.47179472446441650390625</LongitudeDegrees>
            </Position>
            <AltitudeMeters>396</AltitudeMeters>
            <DistanceMeters>93591.299198987</DistanceMeters>
          </Trackpoint>
          <Trackpoint>
            <Time>2019-07-26T15:36:48.000Z</Time>
            <Position>
              <LatitudeDegrees>42.89170484058558940887451171875</LatitudeDegrees>
              <LongitudeDegrees>-8.4720014221966266632080078125</LongitudeDegrees>
            </Position>
            <AltitudeMeters>395.79998779296875</AltitudeMeters>
            <DistanceMeters>93608.411924634</DistanceMeters>
          </Trackpoint>
          <Trackpoint>
            <Time>2019-07-26T15:36:52.000Z</Time>
            <Position>
              <LatitudeDegrees>42.89177642203867435455322265625</LatitudeDegrees>
              <LongitudeDegrees>-8.47242261283099651336669921875</LongitudeDegrees>
            </Position>
            <AltitudeMeters>394.79998779296875</AltitudeMeters>
            <DistanceMeters>93643.669653057</DistanceMeters>
          </Trackpoint>
          <Trackpoint>
            <Time>2019-07-26T15:36:54.000Z</Time>
            <Position>
              <LatitudeDegrees>42.8918120451271533966064453125</LatitudeDegrees>
              <LongitudeDegrees>-8.472636602818965911865234375</LongitudeDegrees>
            </Position>
            <AltitudeMeters>394.399993896484375</AltitudeMeters>
            <DistanceMeters>93661.563968095</DistanceMeters>
          </Trackpoint>
          <Trackpoint>
            <Time>2019-07-26T15:36:59.000Z</Time>
            <Position>
              <LatitudeDegrees>42.8918955288827419281005859375</LatitudeDegrees>
              <LongitudeDegrees>-8.47315351478755474090576171875</LongitudeDegrees>
            </Position>
            <AltitudeMeters>393.600006103515625</AltitudeMeters>
            <DistanceMeters>93704.727231547</DistanceMeters>
          </Trackpoint>
          <Trackpoint>
            <Time>2019-07-26T15:37:02.000Z</Time>
            <Position>
              <LatitudeDegrees>42.89194623939692974090576171875</LatitudeDegrees>
              <LongitudeDegrees>-8.47343883477151393890380859375</LongitudeDegrees>
            </Position>
            <AltitudeMeters>392.399993896484375</AltitudeMeters>
            <DistanceMeters>93728.668306548</DistanceMeters>
          </Trackpoint>
          <Trackpoint>
            <Time>2019-07-26T15:37:09.000Z</Time>
            <Position>
              <LatitudeDegrees>42.89200826548039913177490234375</LatitudeDegrees>
              <LongitudeDegrees>-8.47407066263258457183837890625</LongitudeDegrees>
            </Position>
            <AltitudeMeters>391.600006103515625</AltitudeMeters>
            <DistanceMeters>93780.650611952</DistanceMeters>
          </Trackpoint>
          <Trackpoint>
            <Time>2019-07-26T15:37:11.000Z</Time>
            <Position>
              <LatitudeDegrees>42.89202000014483928680419921875</LatitudeDegrees>
              <LongitudeDegrees>-8.47423947416245937347412109375</LongitudeDegrees>
            </Position>
            <AltitudeMeters>391.20001220703125</AltitudeMeters>
            <DistanceMeters>93794.477896882</DistanceMeters>
          </Trackpoint>
          <Trackpoint>
            <Time>2019-07-26T15:37:16.000Z</Time>
            <Position>
              <LatitudeDegrees>42.89205486886203289031982421875</LatitudeDegrees>
              <LongitudeDegrees>-8.474649600684642791748046875</LongitudeDegrees>
            </Position>
            <AltitudeMeters>390.600006103515625</AltitudeMeters>
            <DistanceMeters>93828.145661967</DistanceMeters>
          </Trackpoint>
          <Trackpoint>
            <Time>2019-07-26T15:37:17.000Z</Time>
            <Position>
              <LatitudeDegrees>42.89206643588840961456298828125</LatitudeDegrees>
              <LongitudeDegrees>-8.47473107278347015380859375</LongitudeDegrees>
            </Position>
            <AltitudeMeters>390.600006103515625</AltitudeMeters>
            <DistanceMeters>93834.91327216</DistanceMeters>
          </Trackpoint>
          <Trackpoint>
            <Time>2019-07-26T15:37:23.000Z</Time>
            <Position>
              <LatitudeDegrees>42.89212209172546863555908203125</LatitudeDegrees>
              <LongitudeDegrees>-8.47519467584788799285888671875</LongitudeDegrees>
            </Position>
            <AltitudeMeters>390.399993896484375</AltitudeMeters>
            <DistanceMeters>93873.221533322</DistanceMeters>
          </Trackpoint>
          <Trackpoint>
            <Time>2019-07-26T15:37:26.000Z</Time>
            <Position>
              <LatitudeDegrees>42.8921456448733806610107421875</LatitudeDegrees>
              <LongitudeDegrees>-8.47543724812567234039306640625</LongitudeDegrees>
            </Position>
            <AltitudeMeters>390.20001220703125</AltitudeMeters>
            <DistanceMeters>93893.174880671</DistanceMeters>
          </Trackpoint>
          <Trackpoint>
            <Time>2019-07-26T15:37:28.000Z</Time>
            <Position>
              <LatitudeDegrees>42.892147488892078399658203125</LatitudeDegrees>
              <LongitudeDegrees>-8.47557823173701763153076171875</LongitudeDegrees>
            </Position>
            <AltitudeMeters>390</AltitudeMeters>
            <DistanceMeters>93904.67272043</DistanceMeters>
          </Trackpoint>
          <Trackpoint>
            <Time>2019-07-26T15:37:36.000Z</Time>
            <Position>
              <LatitudeDegrees>42.89223155938088893890380859375</LatitudeDegrees>
              <LongitudeDegrees>-8.4761474467813968658447265625</LongitudeDegrees>
            </Position>
            <AltitudeMeters>389.399993896484375</AltitudeMeters>
            <DistanceMeters>93952.022349569</DistanceMeters>
          </Trackpoint>
          <Trackpoint>
            <Time>2019-07-26T15:37:38.000Z</Time>
            <Position>
              <LatitudeDegrees>42.8922713734209537506103515625</LatitudeDegrees>
              <LongitudeDegrees>-8.47626655362546443939208984375</LongitudeDegrees>
            </Position>
            <AltitudeMeters>389.20001220703125</AltitudeMeters>
            <DistanceMeters>93962.697534097</DistanceMeters>
          </Trackpoint>
          <Trackpoint>
            <Time>2019-07-26T15:37:41.000Z</Time>
            <Position>
              <LatitudeDegrees>42.89232979528605937957763671875</LatitudeDegrees>
              <LongitudeDegrees>-8.47645045258104801177978515625</LongitudeDegrees>
            </Position>
            <AltitudeMeters>388.79998779296875</AltitudeMeters>
            <DistanceMeters>93979.042128969</DistanceMeters>
          </Trackpoint>
          <Trackpoint>
            <Time>2019-07-26T15:37:44.000Z</Time>
            <Position>
              <LatitudeDegrees>42.89230314083397388458251953125</LatitudeDegrees>
              <LongitudeDegrees>-8.47657299600541591644287109375</LongitudeDegrees>
            </Position>
            <AltitudeMeters>388.600006103515625</AltitudeMeters>
            <DistanceMeters>93989.466520554</DistanceMeters>
          </Trackpoint>
          <Trackpoint>
            <Time>2019-07-26T15:37:47.000Z</Time>
            <Position>
              <LatitudeDegrees>42.8922153823077678680419921875</LatitudeDegrees>
              <LongitudeDegrees>-8.476598896086215972900390625</LongitudeDegrees>
            </Position>
            <AltitudeMeters>388.399993896484375</AltitudeMeters>
            <DistanceMeters>93999.459698997</DistanceMeters>
          </Trackpoint>
          <Trackpoint>
            <Time>2019-07-26T15:37:48.000Z</Time>
            <Position>
              <LatitudeDegrees>42.89217330515384674072265625</LatitudeDegrees>
              <LongitudeDegrees>-8.4765993990004062652587890625</LongitudeDegrees>
            </Position>
            <AltitudeMeters>388.399993896484375</AltitudeMeters>
            <DistanceMeters>94004.142115639</DistanceMeters>
          </Trackpoint>
          <Trackpoint>
            <Time>2019-07-26T15:37:49.000Z</Time>
            <Position>
              <LatitudeDegrees>42.892125360667705535888671875</LatitudeDegrees>
              <LongitudeDegrees>-8.4765920229256153106689453125</LongitudeDegrees>
            </Position>
            <AltitudeMeters>388.20001220703125</AltitudeMeters>
            <DistanceMeters>94009.512596452</DistanceMeters>
          </Trackpoint>
          <Trackpoint>
            <Time>2019-07-26T15:37:51.000Z</Time>
            <Position>
              <LatitudeDegrees>42.892026789486408233642578125</LatitudeDegrees>
              <LongitudeDegrees>-8.47656444646418094635009765625</LongitudeDegrees>
            </Position>
            <AltitudeMeters>388.20001220703125</AltitudeMeters>
            <DistanceMeters>94020.712050091</DistanceMeters>
          </Trackpoint>
          <Trackpoint>
            <Time>2019-07-26T15:37:53.000Z</Time>
            <Position>
              <LatitudeDegrees>42.89193986915051937103271484375</LatitudeDegrees>
              <LongitudeDegrees>-8.47653410397469997406005859375</LongitudeDegrees>
            </Position>
            <AltitudeMeters>388.20001220703125</AltitudeMeters>
            <DistanceMeters>94030.697996925</DistanceMeters>
          </Trackpoint>
          <Trackpoint>
            <Time>2019-07-26T15:37:59.000Z</Time>
            <Position>
              <LatitudeDegrees>42.8916474245488643646240234375</LatitudeDegrees>
              <LongitudeDegrees>-8.47646134905517101287841796875</LongitudeDegrees>
            </Position>
            <AltitudeMeters>388.20001220703125</AltitudeMeters>
            <DistanceMeters>94063.783946314</DistanceMeters>
          </Trackpoint>
          <Trackpoint>
            <Time>2019-07-26T15:38:03.000Z</Time>
            <Position>
              <LatitudeDegrees>42.8914536349475383758544921875</LatitudeDegrees>
              <LongitudeDegrees>-8.47641021944582462310791015625</LongitudeDegrees>
            </Position>
            <AltitudeMeters>388.399993896484375</AltitudeMeters>
            <DistanceMeters>94085.752388124</DistanceMeters>
          </Trackpoint>
          <Trackpoint>
            <Time>2019-07-26T15:38:06.000Z</Time>
            <Position>
              <LatitudeDegrees>42.8913030959665775299072265625</LatitudeDegrees>
              <LongitudeDegrees>-8.476362861692905426025390625</LongitudeDegrees>
            </Position>
            <AltitudeMeters>388.399993896484375</AltitudeMeters>
            <DistanceMeters>94102.947235111</DistanceMeters>
          </Trackpoint>
          <Trackpoint>
            <Time>2019-07-26T15:38:09.000Z</Time>
            <Position>
              <LatitudeDegrees>42.891155071556568145751953125</LatitudeDegrees>
              <LongitudeDegrees>-8.47632220946252346038818359375</LongitudeDegrees>
            </Position>
            <AltitudeMeters>388.600006103515625</AltitudeMeters>
            <DistanceMeters>94119.752730369</DistanceMeters>
          </Trackpoint>
          <Trackpoint>
            <Time>2019-07-26T15:38:13.000Z</Time>
            <Position>
              <LatitudeDegrees>42.89094678126275539398193359375</LatitudeDegrees>
              <LongitudeDegrees>-8.476271331310272216796875</LongitudeDegrees>
            </Position>
            <AltitudeMeters>388.600006103515625</AltitudeMeters>
            <DistanceMeters>94143.304023656</DistanceMeters>
          </Trackpoint>
          <Trackpoint>
            <Time>2019-07-26T15:38:14.000Z</Time>
            <Position>
              <LatitudeDegrees>42.89089732803404331207275390625</LatitudeDegrees>
              <LongitudeDegrees>-8.47625792026519775390625</LongitudeDegrees>
            </Position>
            <AltitudeMeters>388.79998779296875</AltitudeMeters>
            <DistanceMeters>94148.916234151</DistanceMeters>
          </Trackpoint>
          <Trackpoint>
            <Time>2019-07-26T15:38:17.000Z</Time>
            <Position>
              <LatitudeDegrees>42.8907438553869724273681640625</LatitudeDegrees>
              <LongitudeDegrees>-8.4762272424995899200439453125</LongitudeDegrees>
            </Position>
            <AltitudeMeters>389</AltitudeMeters>
            <DistanceMeters>94166.180001788</DistanceMeters>
          </Trackpoint>
          <Trackpoint>
            <Time>2019-07-26T15:38:19.000Z</Time>
            <Position>
              <LatitudeDegrees>42.8906600363552570343017578125</LatitudeDegrees>
              <LongitudeDegrees>-8.47629614174365997314453125</LongitudeDegrees>
            </Position>
            <AltitudeMeters>389.20001220703125</AltitudeMeters>
            <DistanceMeters>94177.069996919</DistanceMeters>
          </Trackpoint>
          <Trackpoint>
            <Time>2019-07-26T15:38:22.000Z</Time>
            <Position>
              <LatitudeDegrees>42.8906357288360595703125</LatitudeDegrees>
              <LongitudeDegrees>-8.47652873955667018890380859375</LongitudeDegrees>
            </Position>
            <AltitudeMeters>389.20001220703125</AltitudeMeters>
            <DistanceMeters>94196.229135924</DistanceMeters>
          </Trackpoint>
          <Trackpoint>
            <Time>2019-07-26T15:38:23.000Z</Time>
            <Position>
              <LatitudeDegrees>42.89063916541635990142822265625</LatitudeDegrees>
              <LongitudeDegrees>-8.4766134805977344512939453125</LongitudeDegrees>
            </Position>
            <AltitudeMeters>389.20001220703125</AltitudeMeters>
            <DistanceMeters>94203.149795247</DistanceMeters>
          </Trackpoint>
          <Trackpoint>
            <Time>2019-07-26T15:38:27.000Z</Time>
            <Position>
              <LatitudeDegrees>42.89064754731953144073486328125</LatitudeDegrees>
              <LongitudeDegrees>-8.47698907367885112762451171875</LongitudeDegrees>
            </Position>
            <AltitudeMeters>389.20001220703125</AltitudeMeters>
            <DistanceMeters>94233.792043021</DistanceMeters>
          </Trackpoint>
          <Trackpoint>
            <Time>2019-07-26T15:38:28.000Z</Time>
            <Position>
              <LatitudeDegrees>42.89064620621502399444580078125</LatitudeDegrees>
              <LongitudeDegrees>-8.47708596847951412200927734375</LongitudeDegrees>
            </Position>
            <AltitudeMeters>389.20001220703125</AltitudeMeters>
            <DistanceMeters>94241.694701351</DistanceMeters>
          </Trackpoint>
          <Trackpoint>
            <Time>2019-07-26T15:38:35.000Z</Time>
            <Position>
              <LatitudeDegrees>42.89067017845809459686279296875</LatitudeDegrees>
              <LongitudeDegrees>-8.47778518684208393096923828125</LongitudeDegrees>
            </Position>
            <AltitudeMeters>388</AltitudeMeters>
            <DistanceMeters>94298.775311564</DistanceMeters>
          </Trackpoint>
          <Trackpoint>
            <Time>2019-07-26T15:38:42.000Z</Time>
            <Position>
              <LatitudeDegrees>42.8906791470944881439208984375</LatitudeDegrees>
              <LongitudeDegrees>-8.478527404367923736572265625</LongitudeDegrees>
            </Position>
            <AltitudeMeters>387</AltitudeMeters>
            <DistanceMeters>94359.30829827</DistanceMeters>
          </Trackpoint>
          <Trackpoint>
            <Time>2019-07-26T15:38:43.000Z</Time>
            <Position>
              <LatitudeDegrees>42.8906788118183612823486328125</LatitudeDegrees>
              <LongitudeDegrees>-8.47863544709980487823486328125</LongitudeDegrees>
            </Position>
            <AltitudeMeters>386.79998779296875</AltitudeMeters>
            <DistanceMeters>94368.118663593</DistanceMeters>
          </Trackpoint>
          <Trackpoint>
            <Time>2019-07-26T15:38:47.000Z</Time>
            <Position>
              <LatitudeDegrees>42.89068526588380336761474609375</LatitudeDegrees>
              <LongitudeDegrees>-8.47905387170612812042236328125</LongitudeDegrees>
            </Position>
            <AltitudeMeters>385.399993896484375</AltitudeMeters>
            <DistanceMeters>94402.247015591</DistanceMeters>
          </Trackpoint>
          <Trackpoint>
            <Time>2019-07-26T15:38:50.000Z</Time>
            <Position>
              <LatitudeDegrees>42.89068593643605709075927734375</LatitudeDegrees>
              <LongitudeDegrees>-8.4793496690690517425537109375</LongitudeDegrees>
            </Position>
            <AltitudeMeters>384.399993896484375</AltitudeMeters>
            <DistanceMeters>94426.368270026</DistanceMeters>
          </Trackpoint>
          <Trackpoint>
            <Time>2019-07-26T15:38:52.000Z</Time>
            <Position>
              <LatitudeDegrees>42.8906878642737865447998046875</LatitudeDegrees>
              <LongitudeDegrees>-8.4795454703271389007568359375</LongitudeDegrees>
            </Position>
            <AltitudeMeters>383.399993896484375</AltitudeMeters>
            <DistanceMeters>94442.336434246</DistanceMeters>
          </Trackpoint>
          <Trackpoint>
            <Time>2019-07-26T15:38:57.000Z</Time>
            <Position>
              <LatitudeDegrees>42.89071443490684032440185546875</LatitudeDegrees>
              <LongitudeDegrees>-8.47996515221893787384033203125</LongitudeDegrees>
            </Position>
            <AltitudeMeters>382.79998779296875</AltitudeMeters>
            <DistanceMeters>94476.687244266</DistanceMeters>
          </Trackpoint>
          <Trackpoint>
            <Time>2019-07-26T15:39:00.000Z</Time>
            <Position>
              <LatitudeDegrees>42.89071762003004550933837890625</LatitudeDegrees>
              <LongitudeDegrees>-8.48015181720256805419921875</LongitudeDegrees>
            </Position>
            <AltitudeMeters>382.79998779296875</AltitudeMeters>
            <DistanceMeters>94491.913477636</DistanceMeters>
          </Trackpoint>
          <Trackpoint>
            <Time>2019-07-26T15:39:02.000Z</Time>
            <Position>
              <LatitudeDegrees>42.89071979932487010955810546875</LatitudeDegrees>
              <LongitudeDegrees>-8.48026254214346408843994140625</LongitudeDegrees>
            </Position>
            <AltitudeMeters>382.79998779296875</AltitudeMeters>
            <DistanceMeters>94500.945515645</DistanceMeters>
          </Trackpoint>
          <Trackpoint>
            <Time>2019-07-26T15:39:05.000Z</Time>
            <Position>
              <LatitudeDegrees>42.89072935469448566436767578125</LatitudeDegrees>
              <LongitudeDegrees>-8.48040889017283916473388671875</LongitudeDegrees>
            </Position>
            <AltitudeMeters>383.20001220703125</AltitudeMeters>
            <DistanceMeters>94512.927174766</DistanceMeters>
          </Trackpoint>
          <Trackpoint>
            <Time>2019-07-26T15:39:08.000Z</Time>
            <Position>
              <LatitudeDegrees>42.89073421619832515716552734375</LatitudeDegrees>
              <LongitudeDegrees>-8.48055490292608737945556640625</LongitudeDegrees>
            </Position>
            <AltitudeMeters>383.79998779296875</AltitudeMeters>
            <DistanceMeters>94524.846116104</DistanceMeters>
          </Trackpoint>
          <Trackpoint>
            <Time>2019-07-26T15:39:10.000Z</Time>
            <Position>
              <LatitudeDegrees>42.89073991589248180389404296875</LatitudeDegrees>
              <LongitudeDegrees>-8.48065565340220928192138671875</LongitudeDegrees>
            </Position>
            <AltitudeMeters>384.399993896484375</AltitudeMeters>
            <DistanceMeters>94533.086088482</DistanceMeters>
          </Trackpoint>
          <Trackpoint>
            <Time>2019-07-26T15:39:13.000Z</Time>
            <Position>
              <LatitudeDegrees>42.8907475434243679046630859375</LatitudeDegrees>
              <LongitudeDegrees>-8.480810634791851043701171875</LongitudeDegrees>
            </Position>
            <AltitudeMeters>385.20001220703125</AltitudeMeters>
            <DistanceMeters>94545.752475819</DistanceMeters>
          </Trackpoint>
          <Trackpoint>
            <Time>2019-07-26T15:39:15.000Z</Time>
            <Position>
              <LatitudeDegrees>42.89074712432920932769775390625</LatitudeDegrees>
              <LongitudeDegrees>-8.4809123910963535308837890625</LongitudeDegrees>
            </Position>
            <AltitudeMeters>385.79998779296875</AltitudeMeters>
            <DistanceMeters>94554.050871023</DistanceMeters>
          </Trackpoint>
          <Trackpoint>
            <Time>2019-07-26T15:39:19.000Z</Time>
            <Position>
              <LatitudeDegrees>42.8907592780888080596923828125</LatitudeDegrees>
              <LongitudeDegrees>-8.4811175800859928131103515625</LongitudeDegrees>
            </Position>
            <AltitudeMeters>387</AltitudeMeters>
            <DistanceMeters>94570.837818202</DistanceMeters>
          </Trackpoint>
          <Trackpoint>
            <Time>2019-07-26T15:39:20.000Z</Time>
            <Position>
              <LatitudeDegrees>42.8907612897455692291259765625</LatitudeDegrees>
              <LongitudeDegrees>-8.48117097280919551849365234375</LongitudeDegrees>
            </Position>
            <AltitudeMeters>387.399993896484375</AltitudeMeters>
            <DistanceMeters>94575.196634651</DistanceMeters>
          </Trackpoint>
          <Trackpoint>
            <Time>2019-07-26T15:39:22.000Z</Time>
            <Position>
              <LatitudeDegrees>42.8907604515552520751953125</LatitudeDegrees>
              <LongitudeDegrees>-8.4812776744365692138671875</LongitudeDegrees>
            </Position>
            <AltitudeMeters>388</AltitudeMeters>
            <DistanceMeters>94583.898197211</DistanceMeters>
          </Trackpoint>
          <Trackpoint>
            <Time>2019-07-26T15:39:26.000Z</Time>
            <Position>
              <LatitudeDegrees>42.8907669894397258758544921875</LatitudeDegrees>
              <LongitudeDegrees>-8.48148286342620849609375</LongitudeDegrees>
            </Position>
            <AltitudeMeters>389.20001220703125</AltitudeMeters>
            <DistanceMeters>94600.646099602</DistanceMeters>
          </Trackpoint>
          <Trackpoint>
            <Time>2019-07-26T15:39:30.000Z</Time>
            <Position>
              <LatitudeDegrees>42.89076908491551876068115234375</LatitudeDegrees>
              <LongitudeDegrees>-8.48167673684656620025634765625</LongitudeDegrees>
            </Position>
            <AltitudeMeters>389.79998779296875</AltitudeMeters>
            <DistanceMeters>94616.457699661</DistanceMeters>
          </Trackpoint>
          <Trackpoint>
            <Time>2019-07-26T15:39:33.000Z</Time>
            <Position>
              <LatitudeDegrees>42.89076925255358219146728515625</LatitudeDegrees>
              <LongitudeDegrees>-8.481825180351734161376953125</LongitudeDegrees>
            </Position>
            <AltitudeMeters>390.399993896484375</AltitudeMeters>
            <DistanceMeters>94628.562700713</DistanceMeters>
          </Trackpoint>
          <Trackpoint>
            <Time>2019-07-26T15:39:37.000Z</Time>
            <Position>
              <LatitudeDegrees>42.8907757066190242767333984375</LatitudeDegrees>
              <LongitudeDegrees>-8.48202961497008800506591796875</LongitudeDegrees>
            </Position>
            <AltitudeMeters>391</AltitudeMeters>
            <DistanceMeters>94645.248753182</DistanceMeters>
          </Trackpoint>
          <Trackpoint>
            <Time>2019-07-26T15:39:39.000Z</Time>
            <Position>
              <LatitudeDegrees>42.89077629335224628448486328125</LatitudeDegrees>
              <LongitudeDegrees>-8.48213422112166881561279296875</LongitudeDegrees>
            </Position>
            <AltitudeMeters>391.600006103515625</AltitudeMeters>
            <DistanceMeters>94653.778955758</DistanceMeters>
          </Trackpoint>
          <Trackpoint>
            <Time>2019-07-26T15:39:45.000Z</Time>
            <Position>
              <LatitudeDegrees>42.8907891176640987396240234375</LatitudeDegrees>
              <LongitudeDegrees>-8.48248642869293689727783203125</LongitudeDegrees>
            </Position>
            <AltitudeMeters>392.399993896484375</AltitudeMeters>
            <DistanceMeters>94682.535490327</DistanceMeters>
          </Trackpoint>
          <Trackpoint>
            <Time>2019-07-26T15:39:47.000Z</Time>
            <Position>
              <LatitudeDegrees>42.8907904587686061859130859375</LatitudeDegrees>
              <LongitudeDegrees>-8.48262288607656955718994140625</LongitudeDegrees>
            </Position>
            <AltitudeMeters>392.600006103515625</AltitudeMeters>
            <DistanceMeters>94693.663763704</DistanceMeters>
          </Trackpoint>
          <Trackpoint>
            <Time>2019-07-26T15:39:48.000Z</Time>
            <Position>
              <LatitudeDegrees>42.8907921351492404937744140625</LatitudeDegrees>
              <LongitudeDegrees>-8.482694216072559356689453125</LongitudeDegrees>
            </Position>
            <AltitudeMeters>392.600006103515625</AltitudeMeters>
            <DistanceMeters>94699.48448933</DistanceMeters>
          </Trackpoint>
          <Trackpoint>
            <Time>2019-07-26T15:39:50.000Z</Time>
            <Position>
              <LatitudeDegrees>42.89079758338630199432373046875</LatitudeDegrees>
              <LongitudeDegrees>-8.4828512929379940032958984375</LongitudeDegrees>
            </Position>
            <AltitudeMeters>392.600006103515625</AltitudeMeters>
            <DistanceMeters>94712.307815422</DistanceMeters>
          </Trackpoint>
          <Trackpoint>
            <Time>2019-07-26T15:39:55.000Z</Time>
            <Position>
              <LatitudeDegrees>42.89081451483070850372314453125</LatitudeDegrees>
              <LongitudeDegrees>-8.48326041363179683685302734375</LongitudeDegrees>
            </Position>
            <AltitudeMeters>392.600006103515625</AltitudeMeters>
            <DistanceMeters>94745.722916084</DistanceMeters>
          </Trackpoint>
          <Trackpoint>
            <Time>2019-07-26T15:39:57.000Z</Time>
            <Position>
              <LatitudeDegrees>42.89081887342035770416259765625</LatitudeDegrees>
              <LongitudeDegrees>-8.48341782577335834503173828125</LongitudeDegrees>
            </Position>
            <AltitudeMeters>392.20001220703125</AltitudeMeters>
            <DistanceMeters>94758.568756537</DistanceMeters>
          </Trackpoint>
          <Trackpoint>
            <Time>2019-07-26T15:40:00.000Z</Time>
            <Position>
              <LatitudeDegrees>42.89082608185708522796630859375</LatitudeDegrees>
              <LongitudeDegrees>-8.48364631645381450653076171875</LongitudeDegrees>
            </Position>
            <AltitudeMeters>392</AltitudeMeters>
            <DistanceMeters>94777.218702501</DistanceMeters>
          </Trackpoint>
          <Trackpoint>
            <Time>2019-07-26T15:40:04.000Z</Time>
            <Position>
              <LatitudeDegrees>42.89083396084606647491455078125</LatitudeDegrees>
              <LongitudeDegrees>-8.48395477049052715301513671875</LongitudeDegrees>
            </Position>
            <AltitudeMeters>391.399993896484375</AltitudeMeters>
            <DistanceMeters>94802.38733104</DistanceMeters>
          </Trackpoint>
          <Trackpoint>
            <Time>2019-07-26T15:40:05.000Z</Time>
            <Position>
              <LatitudeDegrees>42.8908370621502399444580078125</LatitudeDegrees>
              <LongitudeDegrees>-8.48403909243643283843994140625</LongitudeDegrees>
            </Position>
            <AltitudeMeters>391.399993896484375</AltitudeMeters>
            <DistanceMeters>94809.272670635</DistanceMeters>
          </Trackpoint>
          <Trackpoint>
            <Time>2019-07-26T15:40:08.000Z</Time>
            <Position>
              <LatitudeDegrees>42.890840582549571990966796875</LatitudeDegrees>
              <LongitudeDegrees>-8.48433195613324642181396484375</LongitudeDegrees>
            </Position>
            <AltitudeMeters>391</AltitudeMeters>
            <DistanceMeters>94833.157668845</DistanceMeters>
          </Trackpoint>
          <Trackpoint>
            <Time>2019-07-26T15:40:10.000Z</Time>
            <Position>
              <LatitudeDegrees>42.89084536023437976837158203125</LatitudeDegrees>
              <LongitudeDegrees>-8.484559021890163421630859375</LongitudeDegrees>
            </Position>
            <AltitudeMeters>390.79998779296875</AltitudeMeters>
            <DistanceMeters>94851.681298206</DistanceMeters>
          </Trackpoint>
          <Trackpoint>
            <Time>2019-07-26T15:40:13.000Z</Time>
            <Position>
              <LatitudeDegrees>42.89085122756659984588623046875</LatitudeDegrees>
              <LongitudeDegrees>-8.48491533659398555755615234375</LongitudeDegrees>
            </Position>
            <AltitudeMeters>390.600006103515625</AltitudeMeters>
            <DistanceMeters>94880.744252124</DistanceMeters>
          </Trackpoint>
          <Trackpoint>
            <Time>2019-07-26T15:40:14.000Z</Time>
            <Position>
              <LatitudeDegrees>42.89085307158529758453369140625</LatitudeDegrees>
              <LongitudeDegrees>-8.48503318615257740020751953125</LongitudeDegrees>
            </Position>
            <AltitudeMeters>390.399993896484375</AltitudeMeters>
            <DistanceMeters>94890.35652252</DistanceMeters>
          </Trackpoint>
          <Trackpoint>
            <Time>2019-07-26T15:40:17.000Z</Time>
            <Position>
              <LatitudeDegrees>42.8908578492701053619384765625</LatitudeDegrees>
              <LongitudeDegrees>-8.485374413430690765380859375</LongitudeDegrees>
            </Position>
            <AltitudeMeters>389.20001220703125</AltitudeMeters>
            <DistanceMeters>94918.187509514</DistanceMeters>
          </Trackpoint>
          <Trackpoint>
            <Time>2019-07-26T15:40:18.000Z</Time>
            <Position>
              <LatitudeDegrees>42.890864051878452301025390625</LatitudeDegrees>
              <LongitudeDegrees>-8.48548404872417449951171875</LongitudeDegrees>
            </Position>
            <AltitudeMeters>388</AltitudeMeters>
            <DistanceMeters>94927.154326154</DistanceMeters>
          </Trackpoint>
          <Trackpoint>
            <Time>2019-07-26T15:40:20.000Z</Time>
            <Position>
              <LatitudeDegrees>42.8908682428300380706787109375</LatitudeDegrees>
              <LongitudeDegrees>-8.48570357076823711395263671875</LongitudeDegrees>
            </Position>
            <AltitudeMeters>386.79998779296875</AltitudeMeters>
            <DistanceMeters>94945.061504732</DistanceMeters>
          </Trackpoint>
          <Trackpoint>
            <Time>2019-07-26T15:40:22.000Z</Time>
            <Position>
              <LatitudeDegrees>42.89086983539164066314697265625</LatitudeDegrees>
              <LongitudeDegrees>-8.4859180636703968048095703125</LongitudeDegrees>
            </Position>
            <AltitudeMeters>386.399993896484375</AltitudeMeters>
            <DistanceMeters>94962.553390855</DistanceMeters>
          </Trackpoint>
          <Trackpoint>
            <Time>2019-07-26T15:40:23.000Z</Time>
            <Position>
              <LatitudeDegrees>42.8908541612327098846435546875</LatitudeDegrees>
              <LongitudeDegrees>-8.48601370118558406829833984375</LongitudeDegrees>
            </Position>
            <AltitudeMeters>386.20001220703125</AltitudeMeters>
            <DistanceMeters>94970.544679901</DistanceMeters>
          </Trackpoint>
          <Trackpoint>
            <Time>2019-07-26T15:40:24.000Z</Time>
            <Position>
              <LatitudeDegrees>42.89081149734556674957275390625</LatitudeDegrees>
              <LongitudeDegrees>-8.4860887192189693450927734375</LongitudeDegrees>
            </Position>
            <AltitudeMeters>385.79998779296875</AltitudeMeters>
            <DistanceMeters>94978.288628355</DistanceMeters>
          </Trackpoint>
          <Trackpoint>
            <Time>2019-07-26T15:40:25.000Z</Time>
            <Position>
              <LatitudeDegrees>42.890765480697154998779296875</LatitudeDegrees>
              <LongitudeDegrees>-8.4861520864069461822509765625</LongitudeDegrees>
            </Position>
            <AltitudeMeters>385.600006103515625</AltitudeMeters>
            <DistanceMeters>94985.564225108</DistanceMeters>
          </Trackpoint>
          <Trackpoint>
            <Time>2019-07-26T15:40:27.000Z</Time>
            <Position>
              <LatitudeDegrees>42.890708148479461669921875</LatitudeDegrees>
              <LongitudeDegrees>-8.4863103367388248443603515625</LongitudeDegrees>
            </Position>
            <AltitudeMeters>385</AltitudeMeters>
            <DistanceMeters>94999.960380306</DistanceMeters>
          </Trackpoint>
          <Trackpoint>
            <Time>2019-07-26T15:40:28.000Z</Time>
            <Position>
              <LatitudeDegrees>42.89071745239198207855224609375</LatitudeDegrees>
              <LongitudeDegrees>-8.48640513606369495391845703125</LongitudeDegrees>
            </Position>
            <AltitudeMeters>384.600006103515625</AltitudeMeters>
            <DistanceMeters>95007.760678702</DistanceMeters>
          </Trackpoint>
          <Trackpoint>
            <Time>2019-07-26T15:40:30.000Z</Time>
            <Position>
              <LatitudeDegrees>42.89074234664440155029296875</LatitudeDegrees>
              <LongitudeDegrees>-8.48661049269139766693115234375</LongitudeDegrees>
            </Position>
            <AltitudeMeters>383.600006103515625</AltitudeMeters>
            <DistanceMeters>95024.734322653</DistanceMeters>
          </Trackpoint>
          <Trackpoint>
            <Time>2019-07-26T15:40:31.000Z</Time>
            <Position>
              <LatitudeDegrees>42.8907606191933155059814453125</LatitudeDegrees>
              <LongitudeDegrees>-8.4867203794419765472412109375</LongitudeDegrees>
            </Position>
            <AltitudeMeters>383.20001220703125</AltitudeMeters>
            <DistanceMeters>95033.921985827</DistanceMeters>
          </Trackpoint>
          <Trackpoint>
            <Time>2019-07-26T15:40:34.000Z</Time>
            <Position>
              <LatitudeDegrees>42.89082415401935577392578125</LatitudeDegrees>
              <LongitudeDegrees>-8.4870730899274349212646484375</LongitudeDegrees>
            </Position>
            <AltitudeMeters>381.600006103515625</AltitudeMeters>
            <DistanceMeters>95063.540457536</DistanceMeters>
          </Trackpoint>
          <Trackpoint>
            <Time>2019-07-26T15:40:37.000Z</Time>
            <Position>
              <LatitudeDegrees>42.89088207297027111053466796875</LatitudeDegrees>
              <LongitudeDegrees>-8.4873208589851856231689453125</LongitudeDegrees>
            </Position>
            <AltitudeMeters>380.600006103515625</AltitudeMeters>
            <DistanceMeters>95084.748666033</DistanceMeters>
          </Trackpoint>
          <Trackpoint>
            <Time>2019-07-26T15:40:38.000Z</Time>
            <Position>
              <LatitudeDegrees>42.89090755395591259002685546875</LatitudeDegrees>
              <LongitudeDegrees>-8.4873768500983715057373046875</LongitudeDegrees>
            </Position>
            <AltitudeMeters>380.20001220703125</AltitudeMeters>
            <DistanceMeters>95090.124188763</DistanceMeters>
          </Trackpoint>
          <Trackpoint>
            <Time>2019-07-26T15:40:40.000Z</Time>
            <Position>
              <LatitudeDegrees>42.8909876011312007904052734375</LatitudeDegrees>
              <LongitudeDegrees>-8.487448431551456451416015625</LongitudeDegrees>
            </Position>
            <AltitudeMeters>378.79998779296875</AltitudeMeters>
            <DistanceMeters>95100.775238024</DistanceMeters>
          </Trackpoint>
          <Trackpoint>
            <Time>2019-07-26T15:40:41.000Z</Time>
            <Position>
              <LatitudeDegrees>42.89104141294956207275390625</LatitudeDegrees>
              <LongitudeDegrees>-8.48746444098651409149169921875</LongitudeDegrees>
            </Position>
            <AltitudeMeters>377.79998779296875</AltitudeMeters>
            <DistanceMeters>95106.905750088</DistanceMeters>
          </Trackpoint>
          <Trackpoint>
            <Time>2019-07-26T15:40:42.000Z</Time>
            <Position>
              <LatitudeDegrees>42.891112156212329864501953125</LatitudeDegrees>
              <LongitudeDegrees>-8.48747986368834972381591796875</LongitudeDegrees>
            </Position>
            <AltitudeMeters>377</AltitudeMeters>
            <DistanceMeters>95114.878938795</DistanceMeters>
          </Trackpoint>
          <Trackpoint>
            <Time>2019-07-26T15:40:43.000Z</Time>
            <Position>
              <LatitudeDegrees>42.8911735117435455322265625</LatitudeDegrees>
              <LongitudeDegrees>-8.48749008961021900177001953125</LongitudeDegrees>
            </Position>
            <AltitudeMeters>375.600006103515625</AltitudeMeters>
            <DistanceMeters>95121.759030417</DistanceMeters>
          </Trackpoint>
          <Trackpoint>
            <Time>2019-07-26T15:40:44.000Z</Time>
            <Position>
              <LatitudeDegrees>42.89123327471315860748291015625</LatitudeDegrees>
              <LongitudeDegrees>-8.48750182427465915679931640625</LongitudeDegrees>
            </Position>
            <AltitudeMeters>374</AltitudeMeters>
            <DistanceMeters>95128.478433829</DistanceMeters>
          </Trackpoint>
          <Trackpoint>
            <Time>2019-07-26T15:40:45.000Z</Time>
            <Position>
              <LatitudeDegrees>42.8912920318543910980224609375</LatitudeDegrees>
              <LongitudeDegrees>-8.487519510090351104736328125</LongitudeDegrees>
            </Position>
            <AltitudeMeters>372.399993896484375</AltitudeMeters>
            <DistanceMeters>95135.174278029</DistanceMeters>
          </Trackpoint>
          <Trackpoint>
            <Time>2019-07-26T15:40:46.000Z</Time>
            <Position>
              <LatitudeDegrees>42.8913483582437038421630859375</LatitudeDegrees>
              <LongitudeDegrees>-8.48754524253308773040771484375</LongitudeDegrees>
            </Position>
            <AltitudeMeters>370.600006103515625</AltitudeMeters>
            <DistanceMeters>95141.78529686</DistanceMeters>
          </Trackpoint>
          <Trackpoint>
            <Time>2019-07-26T15:40:49.000Z</Time>
            <Position>
              <LatitudeDegrees>42.89150350727140903472900390625</LatitudeDegrees>
              <LongitudeDegrees>-8.48766359500586986541748046875</LongitudeDegrees>
            </Position>
            <AltitudeMeters>369.600006103515625</AltitudeMeters>
            <DistanceMeters>95161.567750018</DistanceMeters>
          </Trackpoint>
          <Trackpoint>
            <Time>2019-07-26T15:40:52.000Z</Time>
            <Position>
              <LatitudeDegrees>42.89160710759460926055908203125</LatitudeDegrees>
              <LongitudeDegrees>-8.48785637877881526947021484375</LongitudeDegrees>
            </Position>
            <AltitudeMeters>369.600006103515625</AltitudeMeters>
            <DistanceMeters>95181.063980621</DistanceMeters>
          </Trackpoint>
          <Trackpoint>
            <Time>2019-07-26T15:40:55.000Z</Time>
            <Position>
              <LatitudeDegrees>42.8915994800627231597900390625</LatitudeDegrees>
              <LongitudeDegrees>-8.48809174261987209320068359375</LongitudeDegrees>
            </Position>
            <AltitudeMeters>369.399993896484375</AltitudeMeters>
            <DistanceMeters>95200.275834893</DistanceMeters>
          </Trackpoint>
          <Trackpoint>
            <Time>2019-07-26T15:40:56.000Z</Time>
            <Position>
              <LatitudeDegrees>42.89159017615020275115966796875</LatitudeDegrees>
              <LongitudeDegrees>-8.48816625773906707763671875</LongitudeDegrees>
            </Position>
            <AltitudeMeters>369.399993896484375</AltitudeMeters>
            <DistanceMeters>95206.440132232</DistanceMeters>
          </Trackpoint>
          <Trackpoint>
            <Time>2019-07-26T15:40:59.000Z</Time>
            <Position>
              <LatitudeDegrees>42.8915575705468654632568359375</LatitudeDegrees>
              <LongitudeDegrees>-8.4883882105350494384765625</LongitudeDegrees>
            </Position>
            <AltitudeMeters>369.399993896484375</AltitudeMeters>
            <DistanceMeters>95224.899300808</DistanceMeters>
          </Trackpoint>
          <Trackpoint>
            <Time>2019-07-26T15:41:03.000Z</Time>
            <Position>
              <LatitudeDegrees>42.8915133140981197357177734375</LatitudeDegrees>
              <LongitudeDegrees>-8.4886753745377063751220703125</LongitudeDegrees>
            </Position>
            <AltitudeMeters>369.399993896484375</AltitudeMeters>
            <DistanceMeters>95248.828491714</DistanceMeters>
          </Trackpoint>
          <Trackpoint>
            <Time>2019-07-26T15:41:07.000Z</Time>
            <Position>
              <LatitudeDegrees>42.89146386086940765380859375</LatitudeDegrees>
              <LongitudeDegrees>-8.488965891301631927490234375</LongitudeDegrees>
            </Position>
            <AltitudeMeters>369.20001220703125</AltitudeMeters>
            <DistanceMeters>95273.149390698</DistanceMeters>
          </Trackpoint>
          <Trackpoint>
            <Time>2019-07-26T15:41:11.000Z</Time>
            <Position>
              <LatitudeDegrees>42.89139546453952789306640625</LatitudeDegrees>
              <LongitudeDegrees>-8.4892490319907665252685546875</LongitudeDegrees>
            </Position>
            <AltitudeMeters>369</AltitudeMeters>
            <DistanceMeters>95297.460634257</DistanceMeters>
          </Trackpoint>
          <Trackpoint>
            <Time>2019-07-26T15:41:15.000Z</Time>
            <Position>
              <LatitudeDegrees>42.89130963385105133056640625</LatitudeDegrees>
              <LongitudeDegrees>-8.489505685865879058837890625</LongitudeDegrees>
            </Position>
            <AltitudeMeters>369.20001220703125</AltitudeMeters>
            <DistanceMeters>95320.466717596</DistanceMeters>
          </Trackpoint>
          <Trackpoint>
            <Time>2019-07-26T15:41:18.000Z</Time>
            <Position>
              <LatitudeDegrees>42.8912432491779327392578125</LatitudeDegrees>
              <LongitudeDegrees>-8.4896858967840671539306640625</LongitudeDegrees>
            </Position>
            <AltitudeMeters>369.20001220703125</AltitudeMeters>
            <DistanceMeters>95336.914850933</DistanceMeters>
          </Trackpoint>
          <Trackpoint>
            <Time>2019-07-26T15:41:20.000Z</Time>
            <Position>
              <LatitudeDegrees>42.8912008367478847503662109375</LatitudeDegrees>
              <LongitudeDegrees>-8.489806093275547027587890625</LongitudeDegrees>
            </Position>
            <AltitudeMeters>369.20001220703125</AltitudeMeters>
            <DistanceMeters>95347.793645989</DistanceMeters>
          </Trackpoint>
          <Trackpoint>
            <Time>2019-07-26T15:41:28.000Z</Time>
            <Position>
              <LatitudeDegrees>42.89108273573219776153564453125</LatitudeDegrees>
              <LongitudeDegrees>-8.4902843646705150604248046875</LongitudeDegrees>
            </Position>
            <AltitudeMeters>369.399993896484375</AltitudeMeters>
            <DistanceMeters>95388.949978178</DistanceMeters>
          </Trackpoint>
          <Trackpoint>
            <Time>2019-07-26T15:41:34.000Z</Time>
            <Position>
              <LatitudeDegrees>42.8910140879452228546142578125</LatitudeDegrees>
              <LongitudeDegrees>-8.4905998595058917999267578125</LongitudeDegrees>
            </Position>
            <AltitudeMeters>370.20001220703125</AltitudeMeters>
            <DistanceMeters>95415.787749833</DistanceMeters>
          </Trackpoint>
          <Trackpoint>
            <Time>2019-07-26T15:41:37.000Z</Time>
            <Position>
              <LatitudeDegrees>42.89098433218896389007568359375</LatitudeDegrees>
              <LongitudeDegrees>-8.4907458722591400146484375</LongitudeDegrees>
            </Position>
            <AltitudeMeters>370.600006103515625</AltitudeMeters>
            <DistanceMeters>95428.146703795</DistanceMeters>
          </Trackpoint>
          <Trackpoint>
            <Time>2019-07-26T15:41:41.000Z</Time>
            <Position>
              <LatitudeDegrees>42.89094057865440845489501953125</LatitudeDegrees>
              <LongitudeDegrees>-8.49092432297766208648681640625</LongitudeDegrees>
            </Position>
            <AltitudeMeters>371.399993896484375</AltitudeMeters>
            <DistanceMeters>95443.491679304</DistanceMeters>
          </Trackpoint>
          <Trackpoint>
            <Time>2019-07-26T15:41:42.000Z</Time>
            <Position>
              <LatitudeDegrees>42.8909322805702686309814453125</LatitudeDegrees>
              <LongitudeDegrees>-8.49096958525478839874267578125</LongitudeDegrees>
            </Position>
            <AltitudeMeters>371.600006103515625</AltitudeMeters>
            <DistanceMeters>95447.296309711</DistanceMeters>
          </Trackpoint>
          <Trackpoint>
            <Time>2019-07-26T15:41:43.000Z</Time>
            <Position>
              <LatitudeDegrees>42.89092616178095340728759765625</LatitudeDegrees>
              <LongitudeDegrees>-8.49101803265511989593505859375</LongitudeDegrees>
            </Position>
            <AltitudeMeters>371.600006103515625</AltitudeMeters>
            <DistanceMeters>95451.305491183</DistanceMeters>
          </Trackpoint>
          <Trackpoint>
            <Time>2019-07-26T15:41:46.000Z</Time>
            <Position>
              <LatitudeDegrees>42.89088995195925235748291015625</LatitudeDegrees>
              <LongitudeDegrees>-8.49117360077798366546630859375</LongitudeDegrees>
            </Position>
            <AltitudeMeters>372.79998779296875</AltitudeMeters>
            <DistanceMeters>95464.616017086</DistanceMeters>
          </Trackpoint>
          <Trackpoint>
            <Time>2019-07-26T15:41:48.000Z</Time>
            <Position>
              <LatitudeDegrees>42.8908588550984859466552734375</LatitudeDegrees>
              <LongitudeDegrees>-8.491287343204021453857421875</LongitudeDegrees>
            </Position>
            <AltitudeMeters>373.399993896484375</AltitudeMeters>
            <DistanceMeters>95474.51568474</DistanceMeters>
          </Trackpoint>
          <Trackpoint>
            <Time>2019-07-26T15:41:50.000Z</Time>
            <Position>
              <LatitudeDegrees>42.89082054980099201202392578125</LatitudeDegrees>
              <LongitudeDegrees>-8.491404354572296142578125</LongitudeDegrees>
            </Position>
            <AltitudeMeters>374</AltitudeMeters>
            <DistanceMeters>95484.966463399</DistanceMeters>
          </Trackpoint>
          <Trackpoint>
            <Time>2019-07-26T15:41:55.000Z</Time>
            <Position>
              <LatitudeDegrees>42.89070320315659046173095703125</LatitudeDegrees>
              <LongitudeDegrees>-8.49170434288680553436279296875</LongitudeDegrees>
            </Position>
            <AltitudeMeters>374.600006103515625</AltitudeMeters>
            <DistanceMeters>95512.697336266</DistanceMeters>
          </Trackpoint>
          <Trackpoint>
            <Time>2019-07-26T15:42:02.000Z</Time>
            <Position>
              <LatitudeDegrees>42.89053807966411113739013671875</LatitudeDegrees>
              <LongitudeDegrees>-8.49212327040731906890869140625</LongitudeDegrees>
            </Position>
            <AltitudeMeters>374.600006103515625</AltitudeMeters>
            <DistanceMeters>95551.489075449</DistanceMeters>
          </Trackpoint>
          <Trackpoint>
            <Time>2019-07-26T15:42:04.000Z</Time>
            <Position>
              <LatitudeDegrees>42.89048896171152591705322265625</LatitudeDegrees>
              <LongitudeDegrees>-8.49223910830914974212646484375</LongitudeDegrees>
            </Position>
            <AltitudeMeters>374.600006103515625</AltitudeMeters>
            <DistanceMeters>95562.403091134</DistanceMeters>
          </Trackpoint>
          <Trackpoint>
            <Time>2019-07-26T15:42:08.000Z</Time>
            <Position>
              <LatitudeDegrees>42.8903904743492603302001953125</LatitudeDegrees>
              <LongitudeDegrees>-8.492461144924163818359375</LongitudeDegrees>
            </Position>
            <AltitudeMeters>374.600006103515625</AltitudeMeters>
            <DistanceMeters>95583.569105226</DistanceMeters>
          </Trackpoint>
          <Trackpoint>
            <Time>2019-07-26T15:42:11.000Z</Time>
            <Position>
              <LatitudeDegrees>42.890310175716876983642578125</LatitudeDegrees>
              <LongitudeDegrees>-8.4926100075244903564453125</LongitudeDegrees>
            </Position>
            <AltitudeMeters>374.79998779296875</AltitudeMeters>
            <DistanceMeters>95598.643649123</DistanceMeters>
          </Trackpoint>
          <Trackpoint>
            <Time>2019-07-26T15:42:14.000Z</Time>
            <Position>
              <LatitudeDegrees>42.8902320563793182373046875</LatitudeDegrees>
              <LongitudeDegrees>-8.49276063032448291778564453125</LongitudeDegrees>
            </Position>
            <AltitudeMeters>375.399993896484375</AltitudeMeters>
            <DistanceMeters>95613.692412765</DistanceMeters>
          </Trackpoint>
          <Trackpoint>
            <Time>2019-07-26T15:42:18.000Z</Time>
            <Position>
              <LatitudeDegrees>42.89014756679534912109375</LatitudeDegrees>
              <LongitudeDegrees>-8.4929732792079448699951171875</LongitudeDegrees>
            </Position>
            <AltitudeMeters>375.79998779296875</AltitudeMeters>
            <DistanceMeters>95633.419098099</DistanceMeters>
          </Trackpoint>
          <Trackpoint>
            <Time>2019-07-26T15:42:19.000Z</Time>
            <Position>
              <LatitudeDegrees>42.89013155736029148101806640625</LatitudeDegrees>
              <LongitudeDegrees>-8.49302315153181552886962890625</LongitudeDegrees>
            </Position>
            <AltitudeMeters>376</AltitudeMeters>
            <DistanceMeters>95637.860008699</DistanceMeters>
          </Trackpoint>
          <Trackpoint>
            <Time>2019-07-26T15:42:22.000Z</Time>
            <Position>
              <LatitudeDegrees>42.8900779969990253448486328125</LatitudeDegrees>
              <LongitudeDegrees>-8.4931067191064357757568359375</LongitudeDegrees>
            </Position>
            <AltitudeMeters>376</AltitudeMeters>
            <DistanceMeters>95646.914015213</DistanceMeters>
          </Trackpoint>
          <Trackpoint>
            <Time>2019-07-26T15:42:25.000Z</Time>
            <Position>
              <LatitudeDegrees>42.8900605626404285430908203125</LatitudeDegrees>
              <LongitudeDegrees>-8.493016026914119720458984375</LongitudeDegrees>
            </Position>
            <AltitudeMeters>376.20001220703125</AltitudeMeters>
            <DistanceMeters>95654.559975905</DistanceMeters>
          </Trackpoint>
          <Trackpoint>
            <Time>2019-07-26T15:42:28.000Z</Time>
            <Position>
              <LatitudeDegrees>42.89003198035061359405517578125</LatitudeDegrees>
              <LongitudeDegrees>-8.49289725534617900848388671875</LongitudeDegrees>
            </Position>
            <AltitudeMeters>376.399993896484375</AltitudeMeters>
            <DistanceMeters>95664.754885412</DistanceMeters>
          </Trackpoint>
          <Trackpoint>
            <Time>2019-07-26T15:42:29.000Z</Time>
            <Position>
              <LatitudeDegrees>42.89001186378300189971923828125</LatitudeDegrees>
              <LongitudeDegrees>-8.49287479184567928314208984375</LongitudeDegrees>
            </Position>
            <AltitudeMeters>376.399993896484375</AltitudeMeters>
            <DistanceMeters>95667.646571908</DistanceMeters>
          </Trackpoint>
          <Trackpoint>
            <Time>2019-07-26T15:42:32.000Z</Time>
            <Position>
              <LatitudeDegrees>42.88999803364276885986328125</LatitudeDegrees>
              <LongitudeDegrees>-8.492800779640674591064453125</LongitudeDegrees>
            </Position>
            <AltitudeMeters>376.600006103515625</AltitudeMeters>
            <DistanceMeters>95673.874991322</DistanceMeters>
          </Trackpoint>
          <Trackpoint>
            <Time>2019-07-26T15:42:34.000Z</Time>
            <Position>
              <LatitudeDegrees>42.890055365860462188720703125</LatitudeDegrees>
              <LongitudeDegrees>-8.4928153641521930694580078125</LongitudeDegrees>
            </Position>
            <AltitudeMeters>376.600006103515625</AltitudeMeters>
            <DistanceMeters>95680.366088047</DistanceMeters>
          </Trackpoint>
          <Trackpoint>
            <Time>2019-07-26T15:42:35.000Z</Time>
            <Position>
              <LatitudeDegrees>42.8900800086557865142822265625</LatitudeDegrees>
              <LongitudeDegrees>-8.4928492270410060882568359375</LongitudeDegrees>
            </Position>
            <AltitudeMeters>376.600006103515625</AltitudeMeters>
            <DistanceMeters>95684.258705196</DistanceMeters>
          </Trackpoint>
          <Trackpoint>
            <Time>2019-07-26T15:42:39.000Z</Time>
            <Position>
              <LatitudeDegrees>42.89011781103909015655517578125</LatitudeDegrees>
              <LongitudeDegrees>-8.49304360337555408477783203125</LongitudeDegrees>
            </Position>
            <AltitudeMeters>376.600006103515625</AltitudeMeters>
            <DistanceMeters>95700.658455097</DistanceMeters>
          </Trackpoint>
          <Trackpoint>
            <Time>2019-07-26T15:42:41.000Z</Time>
            <Position>
              <LatitudeDegrees>42.89011009968817234039306640625</LatitudeDegrees>
              <LongitudeDegrees>-8.4931432642042636871337890625</LongitudeDegrees>
            </Position>
            <AltitudeMeters>376.600006103515625</AltitudeMeters>
            <DistanceMeters>95708.830752533</DistanceMeters>
          </Trackpoint>
          <Trackpoint>
            <Time>2019-07-26T15:42:44.000Z</Time>
            <Position>
              <LatitudeDegrees>42.8900796733796596527099609375</LatitudeDegrees>
              <LongitudeDegrees>-8.49326672963798046112060546875</LongitudeDegrees>
            </Position>
            <AltitudeMeters>376.79998779296875</AltitudeMeters>
            <DistanceMeters>95719.452937109</DistanceMeters>
          </Trackpoint>
          <Trackpoint>
            <Time>2019-07-26T15:42:45.000Z</Time>
            <Position>
              <LatitudeDegrees>42.890067435801029205322265625</LatitudeDegrees>
              <LongitudeDegrees>-8.49330679513514041900634765625</LongitudeDegrees>
            </Position>
            <AltitudeMeters>377</AltitudeMeters>
            <DistanceMeters>95722.991964663</DistanceMeters>
          </Trackpoint>
          <Trackpoint>
            <Time>2019-07-26T15:42:51.000Z</Time>
            <Position>
              <LatitudeDegrees>42.8899951837956905364990234375</LatitudeDegrees>
              <LongitudeDegrees>-8.49355104379355907440185546875</LongitudeDegrees>
            </Position>
            <AltitudeMeters>377.399993896484375</AltitudeMeters>
            <DistanceMeters>95744.471786027</DistanceMeters>
          </Trackpoint>
          <Trackpoint>
            <Time>2019-07-26T15:42:53.000Z</Time>
            <Position>
              <LatitudeDegrees>42.8899670206010341644287109375</LatitudeDegrees>
              <LongitudeDegrees>-8.4936290793120861053466796875</LongitudeDegrees>
            </Position>
            <AltitudeMeters>377.600006103515625</AltitudeMeters>
            <DistanceMeters>95751.565134034</DistanceMeters>
          </Trackpoint>
          <Trackpoint>
            <Time>2019-07-26T15:42:57.000Z</Time>
            <Position>
              <LatitudeDegrees>42.88990390487015247344970703125</LatitudeDegrees>
              <LongitudeDegrees>-8.49378506653010845184326171875</LongitudeDegrees>
            </Position>
            <AltitudeMeters>378.600006103515625</AltitudeMeters>
            <DistanceMeters>95766.096144924</DistanceMeters>
          </Trackpoint>
          <Trackpoint>
            <Time>2019-07-26T15:43:02.000Z</Time>
            <Position>
              <LatitudeDegrees>42.8898208402097225189208984375</LatitudeDegrees>
              <LongitudeDegrees>-8.4939854778349399566650390625</LongitudeDegrees>
            </Position>
            <AltitudeMeters>379</AltitudeMeters>
            <DistanceMeters>95784.872760023</DistanceMeters>
          </Trackpoint>
          <Trackpoint>
            <Time>2019-07-26T15:43:08.000Z</Time>
            <Position>
              <LatitudeDegrees>42.88968421518802642822265625</LatitudeDegrees>
              <LongitudeDegrees>-8.49416770040988922119140625</LongitudeDegrees>
            </Position>
            <AltitudeMeters>379.600006103515625</AltitudeMeters>
            <DistanceMeters>95806.134337031</DistanceMeters>
          </Trackpoint>
          <Trackpoint>
            <Time>2019-07-26T15:43:09.000Z</Time>
            <Position>
              <LatitudeDegrees>42.88965663872659206390380859375</LatitudeDegrees>
              <LongitudeDegrees>-8.49418790079653263092041015625</LongitudeDegrees>
            </Position>
            <AltitudeMeters>379.600006103515625</AltitudeMeters>
            <DistanceMeters>95809.618073924</DistanceMeters>
          </Trackpoint>
          <Trackpoint>
            <Time>2019-07-26T15:43:14.000Z</Time>
            <Position>
              <LatitudeDegrees>42.8895127214491367340087890625</LatitudeDegrees>
              <LongitudeDegrees>-8.49427230656147003173828125</LongitudeDegrees>
            </Position>
            <AltitudeMeters>380</AltitudeMeters>
            <DistanceMeters>95827.052821793</DistanceMeters>
          </Trackpoint>
          <Trackpoint>
            <Time>2019-07-26T15:43:19.000Z</Time>
            <Position>
              <LatitudeDegrees>42.8893749229609966278076171875</LatitudeDegrees>
              <LongitudeDegrees>-8.4942997992038726806640625</LongitudeDegrees>
            </Position>
            <AltitudeMeters>380.399993896484375</AltitudeMeters>
            <DistanceMeters>95842.553249012</DistanceMeters>
          </Trackpoint>
          <Trackpoint>
            <Time>2019-07-26T15:43:20.000Z</Time>
            <Position>
              <LatitudeDegrees>42.88934759795665740966796875</LatitudeDegrees>
              <LongitudeDegrees>-8.49428462795913219451904296875</LongitudeDegrees>
            </Position>
            <AltitudeMeters>380.399993896484375</AltitudeMeters>
            <DistanceMeters>95845.838205838</DistanceMeters>
          </Trackpoint>
          <Trackpoint>
            <Time>2019-07-26T15:43:21.000Z</Time>
            <Position>
              <LatitudeDegrees>42.8893222846090793609619140625</LatitudeDegrees>
              <LongitudeDegrees>-8.4942627511918544769287109375</LongitudeDegrees>
            </Position>
            <AltitudeMeters>380.79998779296875</AltitudeMeters>
            <DistanceMeters>95849.174983363</DistanceMeters>
          </Trackpoint>
          <Trackpoint>
            <Time>2019-07-26T15:43:24.000Z</Time>
            <Position>
              <LatitudeDegrees>42.8892786987125873565673828125</LatitudeDegrees>
              <LongitudeDegrees>-8.49418245255947113037109375</LongitudeDegrees>
            </Position>
            <AltitudeMeters>381</AltitudeMeters>
            <DistanceMeters>95857.324597602</DistanceMeters>
          </Trackpoint>
          <Trackpoint>
            <Time>2019-07-26T15:43:25.000Z</Time>
            <Position>
              <LatitudeDegrees>42.8892666287720203399658203125</LatitudeDegrees>
              <LongitudeDegrees>-8.4941568039357662200927734375</LongitudeDegrees>
            </Position>
            <AltitudeMeters>381.20001220703125</AltitudeMeters>
            <DistanceMeters>95859.808051289</DistanceMeters>
          </Trackpoint>
          <Trackpoint>
            <Time>2019-07-26T15:43:29.000Z</Time>
            <Position>
              <LatitudeDegrees>42.88923083804547786712646484375</LatitudeDegrees>
              <LongitudeDegrees>-8.49406443536281585693359375</LongitudeDegrees>
            </Position>
            <AltitudeMeters>381.600006103515625</AltitudeMeters>
            <DistanceMeters>95868.32925101</DistanceMeters>
          </Trackpoint>
          <Trackpoint>
            <Time>2019-07-26T15:43:30.000Z</Time>
            <Position>
              <LatitudeDegrees>42.889226563274860382080078125</LatitudeDegrees>
              <LongitudeDegrees>-8.4940391220152378082275390625</LongitudeDegrees>
            </Position>
            <AltitudeMeters>381.79998779296875</AltitudeMeters>
            <DistanceMeters>95870.449858958</DistanceMeters>
          </Trackpoint>
          <Trackpoint>
            <Time>2019-07-26T15:43:31.000Z</Time>
            <Position>
              <LatitudeDegrees>42.8892196901142597198486328125</LatitudeDegrees>
              <LongitudeDegrees>-8.4940112940967082977294921875</LongitudeDegrees>
            </Position>
            <AltitudeMeters>382</AltitudeMeters>
            <DistanceMeters>95872.842570488</DistanceMeters>
          </Trackpoint>
          <Trackpoint>
            <Time>2019-07-26T15:43:36.000Z</Time>
            <Position>
              <LatitudeDegrees>42.8891821391880512237548828125</LatitudeDegrees>
              <LongitudeDegrees>-8.49387399852275848388671875</LongitudeDegrees>
            </Position>
            <AltitudeMeters>383</AltitudeMeters>
            <DistanceMeters>95884.793289673</DistanceMeters>
          </Trackpoint>
          <Trackpoint>
            <Time>2019-07-26T15:43:37.000Z</Time>
            <Position>
              <LatitudeDegrees>42.88917736150324344635009765625</LatitudeDegrees>
              <LongitudeDegrees>-8.4938560612499713897705078125</LongitudeDegrees>
            </Position>
            <AltitudeMeters>383</AltitudeMeters>
            <DistanceMeters>95886.35184367</DistanceMeters>
          </Trackpoint>
          <Trackpoint>
            <Time>2019-07-26T15:43:40.000Z</Time>
            <Position>
              <LatitudeDegrees>42.8891573287546634674072265625</LatitudeDegrees>
              <LongitudeDegrees>-8.4938143193721771240234375</LongitudeDegrees>
            </Position>
            <AltitudeMeters>383.79998779296875</AltitudeMeters>
            <DistanceMeters>95890.420274587</DistanceMeters>
          </Trackpoint>
          <Trackpoint>
            <Time>2019-07-26T15:43:42.000Z</Time>
            <Position>
              <LatitudeDegrees>42.88912807591259479522705078125</LatitudeDegrees>
              <LongitudeDegrees>-8.493813313543796539306640625</LongitudeDegrees>
            </Position>
            <AltitudeMeters>384.20001220703125</AltitudeMeters>
            <DistanceMeters>95893.677626244</DistanceMeters>
          </Trackpoint>
          <Trackpoint>
            <Time>2019-07-26T15:43:46.000Z</Time>
            <Position>
              <LatitudeDegrees>42.88908449001610279083251953125</LatitudeDegrees>
              <LongitudeDegrees>-8.49388145841658115386962890625</LongitudeDegrees>
            </Position>
            <AltitudeMeters>385.20001220703125</AltitudeMeters>
            <DistanceMeters>95901.054294913</DistanceMeters>
          </Trackpoint>
          <Trackpoint>
            <Time>2019-07-26T15:43:49.000Z</Time>
            <Position>
              <LatitudeDegrees>42.8890733420848846435546875</LatitudeDegrees>
              <LongitudeDegrees>-8.49388472735881805419921875</LongitudeDegrees>
            </Position>
            <AltitudeMeters>385.79998779296875</AltitudeMeters>
            <DistanceMeters>95902.322109413</DistanceMeters>
          </Trackpoint>
          <Trackpoint>
            <Time>2019-07-26T15:47:56.000Z</Time>
            <Position>
              <LatitudeDegrees>42.889077700674533843994140625</LatitudeDegrees>
              <LongitudeDegrees>-8.4938751719892024993896484375</LongitudeDegrees>
            </Position>
            <AltitudeMeters>385.399993896484375</AltitudeMeters>
            <DistanceMeters>95903.23851386</DistanceMeters>
          </Trackpoint>
          <Trackpoint>
            <Time>2019-07-26T15:47:57.000Z</Time>
            <Position>
              <LatitudeDegrees>42.889078371226787567138671875</LatitudeDegrees>
              <LongitudeDegrees>-8.49387533962726593017578125</LongitudeDegrees>
            </Position>
            <AltitudeMeters>385.399993896484375</AltitudeMeters>
            <DistanceMeters>95903.333540574</DistanceMeters>
          </Trackpoint>
          <Trackpoint>
            <Time>2019-07-26T15:48:15.000Z</Time>
            <Position>
              <LatitudeDegrees>42.8890840709209442138671875</LatitudeDegrees>
              <LongitudeDegrees>-8.49394918419420719146728515625</LongitudeDegrees>
            </Position>
            <AltitudeMeters>385</AltitudeMeters>
            <DistanceMeters>95909.388465046</DistanceMeters>
          </Trackpoint>
          <Trackpoint>
            <Time>2019-07-26T15:48:16.000Z</Time>
            <Position>
              <LatitudeDegrees>42.88908449001610279083251953125</LatitudeDegrees>
              <LongitudeDegrees>-8.49400668404996395111083984375</LongitudeDegrees>
            </Position>
            <AltitudeMeters>385</AltitudeMeters>
            <DistanceMeters>95914.076663641</DistanceMeters>
          </Trackpoint>
          <Trackpoint>
            <Time>2019-07-26T15:48:20.000Z</Time>
            <Position>
              <LatitudeDegrees>42.88902665488421916961669921875</LatitudeDegrees>
              <LongitudeDegrees>-8.494295775890350341796875</LongitudeDegrees>
            </Position>
            <AltitudeMeters>385</AltitudeMeters>
            <DistanceMeters>95938.514423473</DistanceMeters>
          </Trackpoint>
          <Trackpoint>
            <Time>2019-07-26T15:48:21.000Z</Time>
            <Position>
              <LatitudeDegrees>42.88899715058505535125732421875</LatitudeDegrees>
              <LongitudeDegrees>-8.49437582306563854217529296875</LongitudeDegrees>
            </Position>
            <AltitudeMeters>385</AltitudeMeters>
            <DistanceMeters>95945.821600905</DistanceMeters>
          </Trackpoint>
          <Trackpoint>
            <Time>2019-07-26T15:48:25.000Z</Time>
            <Position>
              <LatitudeDegrees>42.88886924274265766143798828125</LatitudeDegrees>
              <LongitudeDegrees>-8.4947220794856548309326171875</LongitudeDegrees>
            </Position>
            <AltitudeMeters>384.20001220703125</AltitudeMeters>
            <DistanceMeters>95977.443944354</DistanceMeters>
          </Trackpoint>
          <Trackpoint>
            <Time>2019-07-26T15:48:26.000Z</Time>
            <Position>
              <LatitudeDegrees>42.88884845562279224395751953125</LatitudeDegrees>
              <LongitudeDegrees>-8.4948209859430789947509765625</LongitudeDegrees>
            </Position>
            <AltitudeMeters>383.79998779296875</AltitudeMeters>
            <DistanceMeters>95985.834324319</DistanceMeters>
          </Trackpoint>
          <Trackpoint>
            <Time>2019-07-26T15:48:28.000Z</Time>
            <Position>
              <LatitudeDegrees>42.8888166882097721099853515625</LatitudeDegrees>
              <LongitudeDegrees>-8.49503262899816036224365234375</LongitudeDegrees>
            </Position>
            <AltitudeMeters>383.20001220703125</AltitudeMeters>
            <DistanceMeters>96003.451979882</DistanceMeters>
          </Trackpoint>
          <Trackpoint>
            <Time>2019-07-26T15:48:29.000Z</Time>
            <Position>
              <LatitudeDegrees>42.8888096474111080169677734375</LatitudeDegrees>
              <LongitudeDegrees>-8.49513824097812175750732421875</LongitudeDegrees>
            </Position>
            <AltitudeMeters>383</AltitudeMeters>
            <DistanceMeters>96012.099932999</DistanceMeters>
          </Trackpoint>
          <Trackpoint>
            <Time>2019-07-26T15:48:30.000Z</Time>
            <Position>
              <LatitudeDegrees>42.8888019360601902008056640625</LatitudeDegrees>
              <LongitudeDegrees>-8.4952439367771148681640625</LongitudeDegrees>
            </Position>
            <AltitudeMeters>382</AltitudeMeters>
            <DistanceMeters>96020.761449904</DistanceMeters>
          </Trackpoint>
          <Trackpoint>
            <Time>2019-07-26T15:48:32.000Z</Time>
            <Position>
              <LatitudeDegrees>42.88879967294633388519287109375</LatitudeDegrees>
              <LongitudeDegrees>-8.49545381963253021240234375</LongitudeDegrees>
            </Position>
            <AltitudeMeters>381.20001220703125</AltitudeMeters>
            <DistanceMeters>96037.87892403</DistanceMeters>
          </Trackpoint>
          <Trackpoint>
            <Time>2019-07-26T15:48:33.000Z</Time>
            <Position>
              <LatitudeDegrees>42.8888113237917423248291015625</LatitudeDegrees>
              <LongitudeDegrees>-8.49555700086057186126708984375</LongitudeDegrees>
            </Position>
            <AltitudeMeters>380.600006103515625</AltitudeMeters>
            <DistanceMeters>96046.392172149</DistanceMeters>
          </Trackpoint>
          <Trackpoint>
            <Time>2019-07-26T15:48:34.000Z</Time>
            <Position>
              <LatitudeDegrees>42.8888404928147792816162109375</LatitudeDegrees>
              <LongitudeDegrees>-8.49564618431031703948974609375</LongitudeDegrees>
            </Position>
            <AltitudeMeters>380.20001220703125</AltitudeMeters>
            <DistanceMeters>96054.356295261</DistanceMeters>
          </Trackpoint>
          <Trackpoint>
            <Time>2019-07-26T15:48:35.000Z</Time>
            <Position>
              <LatitudeDegrees>42.88887376897037029266357421875</LatitudeDegrees>
              <LongitudeDegrees>-8.4957168437540531158447265625</LongitudeDegrees>
            </Position>
            <AltitudeMeters>379.399993896484375</AltitudeMeters>
            <DistanceMeters>96061.206133011</DistanceMeters>
          </Trackpoint>
          <Trackpoint>
            <Time>2019-07-26T15:48:37.000Z</Time>
            <Position>
              <LatitudeDegrees>42.88895909674465656280517578125</LatitudeDegrees>
              <LongitudeDegrees>-8.49578440189361572265625</LongitudeDegrees>
            </Position>
            <AltitudeMeters>378.399993896484375</AltitudeMeters>
            <DistanceMeters>96072.185728656</DistanceMeters>
          </Trackpoint>
          <Trackpoint>
            <Time>2019-07-26T15:48:38.000Z</Time>
            <Position>
              <LatitudeDegrees>42.888996563851833343505859375</LatitudeDegrees>
              <LongitudeDegrees>-8.4958072006702423095703125</LongitudeDegrees>
            </Position>
            <AltitudeMeters>377.79998779296875</AltitudeMeters>
            <DistanceMeters>96076.752946254</DistanceMeters>
          </Trackpoint>
          <Trackpoint>
            <Time>2019-07-26T15:48:40.000Z</Time>
            <Position>
              <LatitudeDegrees>42.88905481807887554168701171875</LatitudeDegrees>
              <LongitudeDegrees>-8.49585589952766895294189453125</LongitudeDegrees>
            </Position>
            <AltitudeMeters>376.79998779296875</AltitudeMeters>
            <DistanceMeters>96084.356271145</DistanceMeters>
          </Trackpoint>
          <Trackpoint>
            <Time>2019-07-26T15:48:41.000Z</Time>
            <Position>
              <LatitudeDegrees>42.88907359354197978973388671875</LatitudeDegrees>
              <LongitudeDegrees>-8.4958811290562152862548828125</LongitudeDegrees>
            </Position>
            <AltitudeMeters>376.20001220703125</AltitudeMeters>
            <DistanceMeters>96087.288272641</DistanceMeters>
          </Trackpoint>
          <Trackpoint>
            <Time>2019-07-26T15:48:42.000Z</Time>
            <Position>
              <LatitudeDegrees>42.88908214308321475982666015625</LatitudeDegrees>
              <LongitudeDegrees>-8.4959092922508716583251953125</LongitudeDegrees>
            </Position>
            <AltitudeMeters>375.79998779296875</AltitudeMeters>
            <DistanceMeters>96089.77354371</DistanceMeters>
          </Trackpoint>
          <Trackpoint>
            <Time>2019-07-26T15:48:43.000Z</Time>
            <Position>
              <LatitudeDegrees>42.88908164016902446746826171875</LatitudeDegrees>
              <LongitudeDegrees>-8.495938964188098907470703125</LongitudeDegrees>
            </Position>
            <AltitudeMeters>375.600006103515625</AltitudeMeters>
            <DistanceMeters>96092.192528939</DistanceMeters>
          </Trackpoint>
          <Trackpoint>
            <Time>2019-07-26T15:48:45.000Z</Time>
            <Position>
              <LatitudeDegrees>42.889058589935302734375</LatitudeDegrees>
              <LongitudeDegrees>-8.49601062946021556854248046875</LongitudeDegrees>
            </Position>
            <AltitudeMeters>375.20001220703125</AltitudeMeters>
            <DistanceMeters>96098.574901134</DistanceMeters>
          </Trackpoint>
          <Trackpoint>
            <Time>2019-07-26T15:48:46.000Z</Time>
            <Position>
              <LatitudeDegrees>42.88904777728021144866943359375</LatitudeDegrees>
              <LongitudeDegrees>-8.4960608370602130889892578125</LongitudeDegrees>
            </Position>
            <AltitudeMeters>375.20001220703125</AltitudeMeters>
            <DistanceMeters>96102.841590027</DistanceMeters>
          </Trackpoint>
          <Trackpoint>
            <Time>2019-07-26T15:48:49.000Z</Time>
            <Position>
              <LatitudeDegrees>42.88900838233530521392822265625</LatitudeDegrees>
              <LongitudeDegrees>-8.4962576441466808319091796875</LongitudeDegrees>
            </Position>
            <AltitudeMeters>375</AltitudeMeters>
            <DistanceMeters>96119.478594059</DistanceMeters>
          </Trackpoint>
          <Trackpoint>
            <Time>2019-07-26T15:48:50.000Z</Time>
            <Position>
              <LatitudeDegrees>42.8889848291873931884765625</LatitudeDegrees>
              <LongitudeDegrees>-8.496333248913288116455078125</LongitudeDegrees>
            </Position>
            <AltitudeMeters>375</AltitudeMeters>
            <DistanceMeters>96126.179156728</DistanceMeters>
          </Trackpoint>
          <Trackpoint>
            <Time>2019-07-26T15:48:53.000Z</Time>
            <Position>
              <LatitudeDegrees>42.88888617418706417083740234375</LatitudeDegrees>
              <LongitudeDegrees>-8.49658168852329254150390625</LongitudeDegrees>
            </Position>
            <AltitudeMeters>374.79998779296875</AltitudeMeters>
            <DistanceMeters>96149.223281911</DistanceMeters>
          </Trackpoint>
          <Trackpoint>
            <Time>2019-07-26T15:48:56.000Z</Time>
            <Position>
              <LatitudeDegrees>42.8887794725596904754638671875</LatitudeDegrees>
              <LongitudeDegrees>-8.49685317836701869964599609375</LongitudeDegrees>
            </Position>
            <AltitudeMeters>374.399993896484375</AltitudeMeters>
            <DistanceMeters>96174.347022545</DistanceMeters>
          </Trackpoint>
          <Trackpoint>
            <Time>2019-07-26T15:48:57.000Z</Time>
            <Position>
              <LatitudeDegrees>42.88874150253832340240478515625</LatitudeDegrees>
              <LongitudeDegrees>-8.49694806151092052459716796875</LongitudeDegrees>
            </Position>
            <AltitudeMeters>374.20001220703125</AltitudeMeters>
            <DistanceMeters>96183.163535349</DistanceMeters>
          </Trackpoint>
          <Trackpoint>
            <Time>2019-07-26T15:48:59.000Z</Time>
            <Position>
              <LatitudeDegrees>42.88866204209625720977783203125</LatitudeDegrees>
              <LongitudeDegrees>-8.4971536695957183837890625</LongitudeDegrees>
            </Position>
            <AltitudeMeters>373.79998779296875</AltitudeMeters>
            <DistanceMeters>96202.12035265</DistanceMeters>
          </Trackpoint>
          <Trackpoint>
            <Time>2019-07-26T15:49:01.000Z</Time>
            <Position>
              <LatitudeDegrees>42.88857989944517612457275390625</LatitudeDegrees>
              <LongitudeDegrees>-8.4973744489252567291259765625</LongitudeDegrees>
            </Position>
            <AltitudeMeters>373</AltitudeMeters>
            <DistanceMeters>96222.313026364</DistanceMeters>
          </Trackpoint>
          <Trackpoint>
            <Time>2019-07-26T15:49:03.000Z</Time>
            <Position>
              <LatitudeDegrees>42.8884931467473506927490234375</LatitudeDegrees>
              <LongitudeDegrees>-8.49761224351823329925537109375</LongitudeDegrees>
            </Position>
            <AltitudeMeters>371.79998779296875</AltitudeMeters>
            <DistanceMeters>96243.975574288</DistanceMeters>
          </Trackpoint>
          <Trackpoint>
            <Time>2019-07-26T15:49:05.000Z</Time>
            <Position>
              <LatitudeDegrees>42.88841477595269680023193359375</LatitudeDegrees>
              <LongitudeDegrees>-8.497839979827404022216796875</LongitudeDegrees>
            </Position>
            <AltitudeMeters>370.79998779296875</AltitudeMeters>
            <DistanceMeters>96264.493424171</DistanceMeters>
          </Trackpoint>
          <Trackpoint>
            <Time>2019-07-26T15:49:06.000Z</Time>
            <Position>
              <LatitudeDegrees>42.88838334381580352783203125</LatitudeDegrees>
              <LongitudeDegrees>-8.49794022738933563232421875</LongitudeDegrees>
            </Position>
            <AltitudeMeters>369.20001220703125</AltitudeMeters>
            <DistanceMeters>96273.385914229</DistanceMeters>
          </Trackpoint>
          <Trackpoint>
            <Time>2019-07-26T15:49:08.000Z</Time>
            <Position>
              <LatitudeDegrees>42.8883328847587108612060546875</LatitudeDegrees>
              <LongitudeDegrees>-8.49812529981136322021484375</LongitudeDegrees>
            </Position>
            <AltitudeMeters>367.600006103515625</AltitudeMeters>
            <DistanceMeters>96289.489508092</DistanceMeters>
          </Trackpoint>
          <Trackpoint>
            <Time>2019-07-26T15:49:09.000Z</Time>
            <Position>
              <LatitudeDegrees>42.88831335492432117462158203125</LatitudeDegrees>
              <LongitudeDegrees>-8.49820978939533233642578125</LongitudeDegrees>
            </Position>
            <AltitudeMeters>367</AltitudeMeters>
            <DistanceMeters>96296.714038654</DistanceMeters>
          </Trackpoint>
          <Trackpoint>
            <Time>2019-07-26T15:49:10.000Z</Time>
            <Position>
              <LatitudeDegrees>42.88829944096505641937255859375</LatitudeDegrees>
              <LongitudeDegrees>-8.498293273150920867919921875</LongitudeDegrees>
            </Position>
            <AltitudeMeters>366.20001220703125</AltitudeMeters>
            <DistanceMeters>96303.695754249</DistanceMeters>
          </Trackpoint>
          <Trackpoint>
            <Time>2019-07-26T15:49:12.000Z</Time>
            <Position>
              <LatitudeDegrees>42.88827178068459033966064453125</LatitudeDegrees>
              <LongitudeDegrees>-8.4984523616731166839599609375</LongitudeDegrees>
            </Position>
            <AltitudeMeters>364.399993896484375</AltitudeMeters>
            <DistanceMeters>96317.02966497</DistanceMeters>
          </Trackpoint>
          <Trackpoint>
            <Time>2019-07-26T15:49:14.000Z</Time>
            <Position>
              <LatitudeDegrees>42.8882323019206523895263671875</LatitudeDegrees>
              <LongitudeDegrees>-8.4986146353185176849365234375</LongitudeDegrees>
            </Position>
            <AltitudeMeters>362.20001220703125</AltitudeMeters>
            <DistanceMeters>96330.973681822</DistanceMeters>
          </Trackpoint>
          <Trackpoint>
            <Time>2019-07-26T15:49:15.000Z</Time>
            <Position>
              <LatitudeDegrees>42.88820858113467693328857421875</LatitudeDegrees>
              <LongitudeDegrees>-8.49869417957961559295654296875</LongitudeDegrees>
            </Position>
            <AltitudeMeters>361.20001220703125</AltitudeMeters>
            <DistanceMeters>96337.977350521</DistanceMeters>
          </Trackpoint>
          <Trackpoint>
            <Time>2019-07-26T15:49:16.000Z</Time>
            <Position>
              <LatitudeDegrees>42.88817773573100566864013671875</LatitudeDegrees>
              <LongitudeDegrees>-8.4987802617251873016357421875</LongitudeDegrees>
            </Position>
            <AltitudeMeters>360</AltitudeMeters>
            <DistanceMeters>96345.791528464</DistanceMeters>
          </Trackpoint>
          <Trackpoint>
            <Time>2019-07-26T15:49:17.000Z</Time>
            <Position>
              <LatitudeDegrees>42.8881431184709072113037109375</LatitudeDegrees>
              <LongitudeDegrees>-8.49887631833553314208984375</LongitudeDegrees>
            </Position>
            <AltitudeMeters>359</AltitudeMeters>
            <DistanceMeters>96354.521065399</DistanceMeters>
          </Trackpoint>
          <Trackpoint>
            <Time>2019-07-26T15:49:18.000Z</Time>
            <Position>
              <LatitudeDegrees>42.888108752667903900146484375</LatitudeDegrees>
              <LongitudeDegrees>-8.498985283076763153076171875</LongitudeDegrees>
            </Position>
            <AltitudeMeters>357.79998779296875</AltitudeMeters>
            <DistanceMeters>96364.195606336</DistanceMeters>
          </Trackpoint>
          <Trackpoint>
            <Time>2019-07-26T15:49:19.000Z</Time>
            <Position>
              <LatitudeDegrees>42.8880740515887737274169921875</LatitudeDegrees>
              <LongitudeDegrees>-8.4991081617772579193115234375</LongitudeDegrees>
            </Position>
            <AltitudeMeters>356.79998779296875</AltitudeMeters>
            <DistanceMeters>96374.934886402</DistanceMeters>
          </Trackpoint>
          <Trackpoint>
            <Time>2019-07-26T15:49:20.000Z</Time>
            <Position>
              <LatitudeDegrees>42.8880351595580577850341796875</LatitudeDegrees>
              <LongitudeDegrees>-8.49925174377858638763427734375</LongitudeDegrees>
            </Position>
            <AltitudeMeters>355.79998779296875</AltitudeMeters>
            <DistanceMeters>96387.418518056</DistanceMeters>
          </Trackpoint>
          <Trackpoint>
            <Time>2019-07-26T15:49:21.000Z</Time>
            <Position>
              <LatitudeDegrees>42.88799350149929523468017578125</LatitudeDegrees>
              <LongitudeDegrees>-8.49940798245370388031005859375</LongitudeDegrees>
            </Position>
            <AltitudeMeters>355</AltitudeMeters>
            <DistanceMeters>96400.977068725</DistanceMeters>
          </Trackpoint>
          <Trackpoint>
            <Time>2019-07-26T15:49:22.000Z</Time>
            <Position>
              <LatitudeDegrees>42.8879548609256744384765625</LatitudeDegrees>
              <LongitudeDegrees>-8.499568663537502288818359375</LongitudeDegrees>
            </Position>
            <AltitudeMeters>354.399993896484375</AltitudeMeters>
            <DistanceMeters>96414.768061078</DistanceMeters>
          </Trackpoint>
          <Trackpoint>
            <Time>2019-07-26T15:49:23.000Z</Time>
            <Position>
              <LatitudeDegrees>42.88791789673268795013427734375</LatitudeDegrees>
              <LongitudeDegrees>-8.49973051808774471282958984375</LongitudeDegrees>
            </Position>
            <AltitudeMeters>353.399993896484375</AltitudeMeters>
            <DistanceMeters>96428.593713256</DistanceMeters>
          </Trackpoint>
          <Trackpoint>
            <Time>2019-07-26T15:49:24.000Z</Time>
            <Position>
              <LatitudeDegrees>42.887878082692623138427734375</LatitudeDegrees>
              <LongitudeDegrees>-8.49989815615117549896240234375</LongitudeDegrees>
            </Position>
            <AltitudeMeters>352.79998779296875</AltitudeMeters>
            <DistanceMeters>96442.964442127</DistanceMeters>
          </Trackpoint>
          <Trackpoint>
            <Time>2019-07-26T15:49:25.000Z</Time>
            <Position>
              <LatitudeDegrees>42.8878462314605712890625</LatitudeDegrees>
              <LongitudeDegrees>-8.50006646476686000823974609375</LongitudeDegrees>
            </Position>
            <AltitudeMeters>352.399993896484375</AltitudeMeters>
            <DistanceMeters>96457.139994713</DistanceMeters>
          </Trackpoint>
          <Trackpoint>
            <Time>2019-07-26T15:49:26.000Z</Time>
            <Position>
              <LatitudeDegrees>42.88782301358878612518310546875</LatitudeDegrees>
              <LongitudeDegrees>-8.5002383776009082794189453125</LongitudeDegrees>
            </Position>
            <AltitudeMeters>352</AltitudeMeters>
            <DistanceMeters>96471.395268835</DistanceMeters>
          </Trackpoint>
          <Trackpoint>
            <Time>2019-07-26T15:49:27.000Z</Time>
            <Position>
              <LatitudeDegrees>42.8878127038478851318359375</LatitudeDegrees>
              <LongitudeDegrees>-8.50041163153946399688720703125</LongitudeDegrees>
            </Position>
            <AltitudeMeters>351.600006103515625</AltitudeMeters>
            <DistanceMeters>96485.570502908</DistanceMeters>
          </Trackpoint>
          <Trackpoint>
            <Time>2019-07-26T15:49:28.000Z</Time>
            <Position>
              <LatitudeDegrees>42.88782049901783466339111328125</LatitudeDegrees>
              <LongitudeDegrees>-8.50058798678219318389892578125</LongitudeDegrees>
            </Position>
            <AltitudeMeters>351.399993896484375</AltitudeMeters>
            <DistanceMeters>96499.97825767</DistanceMeters>
          </Trackpoint>
          <Trackpoint>
            <Time>2019-07-26T15:49:29.000Z</Time>
            <Position>
              <LatitudeDegrees>42.88784396834671497344970703125</LatitudeDegrees>
              <LongitudeDegrees>-8.50076861679553985595703125</LongitudeDegrees>
            </Position>
            <AltitudeMeters>350.600006103515625</AltitudeMeters>
            <DistanceMeters>96514.938251473</DistanceMeters>
          </Trackpoint>
          <Trackpoint>
            <Time>2019-07-26T15:49:30.000Z</Time>
            <Position>
              <LatitudeDegrees>42.8878748975694179534912109375</LatitudeDegrees>
              <LongitudeDegrees>-8.50095427595078945159912109375</LongitudeDegrees>
            </Position>
            <AltitudeMeters>350</AltitudeMeters>
            <DistanceMeters>96530.465453764</DistanceMeters>
          </Trackpoint>
          <Trackpoint>
            <Time>2019-07-26T15:49:31.000Z</Time>
            <Position>
              <LatitudeDegrees>42.88791404105722904205322265625</LatitudeDegrees>
              <LongitudeDegrees>-8.5011421144008636474609375</LongitudeDegrees>
            </Position>
            <AltitudeMeters>349.20001220703125</AltitudeMeters>
            <DistanceMeters>96546.391432138</DistanceMeters>
          </Trackpoint>
          <Trackpoint>
            <Time>2019-07-26T15:49:33.000Z</Time>
            <Position>
              <LatitudeDegrees>42.8879771567881107330322265625</LatitudeDegrees>
              <LongitudeDegrees>-8.5014970041811466217041015625</LongitudeDegrees>
            </Position>
            <AltitudeMeters>347</AltitudeMeters>
            <DistanceMeters>96576.173022733</DistanceMeters>
          </Trackpoint>
          <Trackpoint>
            <Time>2019-07-26T15:49:34.000Z</Time>
            <Position>
              <LatitudeDegrees>42.887992076575756072998046875</LatitudeDegrees>
              <LongitudeDegrees>-8.50166983902454376220703125</LongitudeDegrees>
            </Position>
            <AltitudeMeters>346</AltitudeMeters>
            <DistanceMeters>96590.364809971</DistanceMeters>
          </Trackpoint>
          <Trackpoint>
            <Time>2019-07-26T15:49:35.000Z</Time>
            <Position>
              <LatitudeDegrees>42.887993752956390380859375</LatitudeDegrees>
              <LongitudeDegrees>-8.501847200095653533935546875</LongitudeDegrees>
            </Position>
            <AltitudeMeters>345</AltitudeMeters>
            <DistanceMeters>96604.829486643</DistanceMeters>
          </Trackpoint>
          <Trackpoint>
            <Time>2019-07-26T15:49:37.000Z</Time>
            <Position>
              <LatitudeDegrees>42.8879422880709171295166015625</LatitudeDegrees>
              <LongitudeDegrees>-8.502197228372097015380859375</LongitudeDegrees>
            </Position>
            <AltitudeMeters>342.600006103515625</AltitudeMeters>
            <DistanceMeters>96633.943196908</DistanceMeters>
          </Trackpoint>
          <Trackpoint>
            <Time>2019-07-26T15:49:38.000Z</Time>
            <Position>
              <LatitudeDegrees>42.88789124228060245513916015625</LatitudeDegrees>
              <LongitudeDegrees>-8.502356819808483123779296875</LongitudeDegrees>
            </Position>
            <AltitudeMeters>341</AltitudeMeters>
            <DistanceMeters>96648.143889396</DistanceMeters>
          </Trackpoint>
          <Trackpoint>
            <Time>2019-07-26T15:49:39.000Z</Time>
            <Position>
              <LatitudeDegrees>42.8878410346806049346923828125</LatitudeDegrees>
              <LongitudeDegrees>-8.5025115497410297393798828125</LongitudeDegrees>
            </Position>
            <AltitudeMeters>339.20001220703125</AltitudeMeters>
            <DistanceMeters>96661.944045635</DistanceMeters>
          </Trackpoint>
          <Trackpoint>
            <Time>2019-07-26T15:49:40.000Z</Time>
            <Position>
              <LatitudeDegrees>42.88779233582317829132080078125</LatitudeDegrees>
              <LongitudeDegrees>-8.50266066379845142364501953125</LongitudeDegrees>
            </Position>
            <AltitudeMeters>337</AltitudeMeters>
            <DistanceMeters>96675.257963187</DistanceMeters>
          </Trackpoint>
          <Trackpoint>
            <Time>2019-07-26T15:49:41.000Z</Time>
            <Position>
              <LatitudeDegrees>42.88775159977376461029052734375</LatitudeDegrees>
              <LongitudeDegrees>-8.5028059221804141998291015625</LongitudeDegrees>
            </Position>
            <AltitudeMeters>335</AltitudeMeters>
            <DistanceMeters>96687.941804952</DistanceMeters>
          </Trackpoint>
          <Trackpoint>
            <Time>2019-07-26T15:49:42.000Z</Time>
            <Position>
              <LatitudeDegrees>42.887709103524684906005859375</LatitudeDegrees>
              <LongitudeDegrees>-8.502944223582744598388671875</LongitudeDegrees>
            </Position>
            <AltitudeMeters>332.79998779296875</AltitudeMeters>
            <DistanceMeters>96700.171119163</DistanceMeters>
          </Trackpoint>
          <Trackpoint>
            <Time>2019-07-26T15:49:43.000Z</Time>
            <Position>
              <LatitudeDegrees>42.8876673616468906402587890625</LatitudeDegrees>
              <LongitudeDegrees>-8.50307808257639408111572265625</LongitudeDegrees>
            </Position>
            <AltitudeMeters>330.399993896484375</AltitudeMeters>
            <DistanceMeters>96712.03462503</DistanceMeters>
          </Trackpoint>
          <Trackpoint>
            <Time>2019-07-26T15:49:44.000Z</Time>
            <Position>
              <LatitudeDegrees>42.8876241110265254974365234375</LatitudeDegrees>
              <LongitudeDegrees>-8.50320481695234775543212890625</LongitudeDegrees>
            </Position>
            <AltitudeMeters>328.79998779296875</AltitudeMeters>
            <DistanceMeters>96723.436246866</DistanceMeters>
          </Trackpoint>
          <Trackpoint>
            <Time>2019-07-26T15:49:45.000Z</Time>
            <Position>
              <LatitudeDegrees>42.88758027367293834686279296875</LatitudeDegrees>
              <LongitudeDegrees>-8.50332207977771759033203125</LongitudeDegrees>
            </Position>
            <AltitudeMeters>327.20001220703125</AltitudeMeters>
            <DistanceMeters>96734.172163023</DistanceMeters>
          </Trackpoint>
          <Trackpoint>
            <Time>2019-07-26T15:49:46.000Z</Time>
            <Position>
              <LatitudeDegrees>42.88754624314606189727783203125</LatitudeDegrees>
              <LongitudeDegrees>-8.50343481637537479400634765625</LongitudeDegrees>
            </Position>
            <AltitudeMeters>325.399993896484375</AltitudeMeters>
            <DistanceMeters>96744.115063853</DistanceMeters>
          </Trackpoint>
          <Trackpoint>
            <Time>2019-07-26T15:49:47.000Z</Time>
            <Position>
              <LatitudeDegrees>42.8875191695988178253173828125</LatitudeDegrees>
              <LongitudeDegrees>-8.503544367849826812744140625</LongitudeDegrees>
            </Position>
            <AltitudeMeters>323.79998779296875</AltitudeMeters>
            <DistanceMeters>96753.543801976</DistanceMeters>
          </Trackpoint>
          <Trackpoint>
            <Time>2019-07-26T15:49:48.000Z</Time>
            <Position>
              <LatitudeDegrees>42.88749762810766696929931640625</LatitudeDegrees>
              <LongitudeDegrees>-8.5036494769155979156494140625</LongitudeDegrees>
            </Position>
            <AltitudeMeters>322.399993896484375</AltitudeMeters>
            <DistanceMeters>96762.443904816</DistanceMeters>
          </Trackpoint>
          <Trackpoint>
            <Time>2019-07-26T15:49:49.000Z</Time>
            <Position>
              <LatitudeDegrees>42.88748488761484622955322265625</LatitudeDegrees>
              <LongitudeDegrees>-8.50374779663980007171630859375</LongitudeDegrees>
            </Position>
            <AltitudeMeters>321.399993896484375</AltitudeMeters>
            <DistanceMeters>96770.586868117</DistanceMeters>
          </Trackpoint>
          <Trackpoint>
            <Time>2019-07-26T15:49:50.000Z</Time>
            <Position>
              <LatitudeDegrees>42.88748086430132389068603515625</LatitudeDegrees>
              <LongitudeDegrees>-8.503833375871181488037109375</LongitudeDegrees>
            </Position>
            <AltitudeMeters>320.600006103515625</AltitudeMeters>
            <DistanceMeters>96777.580214528</DistanceMeters>
          </Trackpoint>
          <Trackpoint>
            <Time>2019-07-26T15:49:51.000Z</Time>
            <Position>
              <LatitudeDegrees>42.8874893300235271453857421875</LatitudeDegrees>
              <LongitudeDegrees>-8.50390613079071044921875</LongitudeDegrees>
            </Position>
            <AltitudeMeters>320</AltitudeMeters>
            <DistanceMeters>96783.588728955</DistanceMeters>
          </Trackpoint>
          <Trackpoint>
            <Time>2019-07-26T15:49:53.000Z</Time>
            <Position>
              <LatitudeDegrees>42.887562252581119537353515625</LatitudeDegrees>
              <LongitudeDegrees>-8.5040172748267650604248046875</LongitudeDegrees>
            </Position>
            <AltitudeMeters>319.20001220703125</AltitudeMeters>
            <DistanceMeters>96795.755859809</DistanceMeters>
          </Trackpoint>
          <Trackpoint>
            <Time>2019-07-26T15:49:54.000Z</Time>
            <Position>
              <LatitudeDegrees>42.8876217640936374664306640625</LatitudeDegrees>
              <LongitudeDegrees>-8.504043258726596832275390625</LongitudeDegrees>
            </Position>
            <AltitudeMeters>318.399993896484375</AltitudeMeters>
            <DistanceMeters>96802.710361189</DistanceMeters>
          </Trackpoint>
          <Trackpoint>
            <Time>2019-07-26T15:49:56.000Z</Time>
            <Position>
              <LatitudeDegrees>42.8877548687160015106201171875</LatitudeDegrees>
              <LongitudeDegrees>-8.50400269031524658203125</LongitudeDegrees>
            </Position>
            <AltitudeMeters>316.79998779296875</AltitudeMeters>
            <DistanceMeters>96817.890265361</DistanceMeters>
          </Trackpoint>
          <Trackpoint>
            <Time>2019-07-26T15:49:58.000Z</Time>
            <Position>
              <LatitudeDegrees>42.88788042962551116943359375</LatitudeDegrees>
              <LongitudeDegrees>-8.503903448581695556640625</LongitudeDegrees>
            </Position>
            <AltitudeMeters>315.399993896484375</AltitudeMeters>
            <DistanceMeters>96834.039775195</DistanceMeters>
          </Trackpoint>
          <Trackpoint>
            <Time>2019-07-26T15:49:59.000Z</Time>
            <Position>
              <LatitudeDegrees>42.8879320621490478515625</LatitudeDegrees>
              <LongitudeDegrees>-8.5038637183606624603271484375</LongitudeDegrees>
            </Position>
            <AltitudeMeters>314.399993896484375</AltitudeMeters>
            <DistanceMeters>96840.637120756</DistanceMeters>
          </Trackpoint>
          <Trackpoint>
            <Time>2019-07-26T15:50:00.000Z</Time>
            <Position>
              <LatitudeDegrees>42.88798159919679164886474609375</LatitudeDegrees>
              <LongitudeDegrees>-8.50382742471992969512939453125</LongitudeDegrees>
            </Position>
            <AltitudeMeters>313.20001220703125</AltitudeMeters>
            <DistanceMeters>96846.895190869</DistanceMeters>
          </Trackpoint>
          <Trackpoint>
            <Time>2019-07-26T15:50:01.000Z</Time>
            <Position>
              <LatitudeDegrees>42.88803256116807460784912109375</LatitudeDegrees>
              <LongitudeDegrees>-8.50379171781241893768310546875</LongitudeDegrees>
            </Position>
            <AltitudeMeters>311.399993896484375</AltitudeMeters>
            <DistanceMeters>96853.271901167</DistanceMeters>
          </Trackpoint>
          <Trackpoint>
            <Time>2019-07-26T15:50:02.000Z</Time>
            <Position>
              <LatitudeDegrees>42.8880834393203258514404296875</LatitudeDegrees>
              <LongitudeDegrees>-8.5037621296942234039306640625</LongitudeDegrees>
            </Position>
            <AltitudeMeters>310.399993896484375</AltitudeMeters>
            <DistanceMeters>96859.427402833</DistanceMeters>
          </Trackpoint>
          <Trackpoint>
            <Time>2019-07-26T15:50:03.000Z</Time>
            <Position>
              <LatitudeDegrees>42.88813414983451366424560546875</LatitudeDegrees>
              <LongitudeDegrees>-8.50373916327953338623046875</LongitudeDegrees>
            </Position>
            <AltitudeMeters>309.79998779296875</AltitudeMeters>
            <DistanceMeters>96865.373979946</DistanceMeters>
          </Trackpoint>
          <Trackpoint>
            <Time>2019-07-26T15:50:05.000Z</Time>
            <Position>
              <LatitudeDegrees>42.88821595720946788787841796875</LatitudeDegrees>
              <LongitudeDegrees>-8.50372483022511005401611328125</LongitudeDegrees>
            </Position>
            <AltitudeMeters>308</AltitudeMeters>
            <DistanceMeters>96874.55328511</DistanceMeters>
          </Trackpoint>
          <Trackpoint>
            <Time>2019-07-26T15:50:06.000Z</Time>
            <Position>
              <LatitudeDegrees>42.88823984563350677490234375</LatitudeDegrees>
              <LongitudeDegrees>-8.5037275962531566619873046875</LongitudeDegrees>
            </Position>
            <AltitudeMeters>307.20001220703125</AltitudeMeters>
            <DistanceMeters>96877.217424762</DistanceMeters>
          </Trackpoint>
          <Trackpoint>
            <Time>2019-07-26T15:50:07.000Z</Time>
            <Position>
              <LatitudeDegrees>42.88825535215437412261962890625</LatitudeDegrees>
              <LongitudeDegrees>-8.503731787204742431640625</LongitudeDegrees>
            </Position>
            <AltitudeMeters>306.399993896484375</AltitudeMeters>
            <DistanceMeters>96878.974776788</DistanceMeters>
          </Trackpoint>
          <Trackpoint>
            <Time>2019-07-26T15:50:09.000Z</Time>
            <Position>
              <LatitudeDegrees>42.88827312178909778594970703125</LatitudeDegrees>
              <LongitudeDegrees>-8.50374318659305572509765625</LongitudeDegrees>
            </Position>
            <AltitudeMeters>305</AltitudeMeters>
            <DistanceMeters>96881.162456041</DistanceMeters>
          </Trackpoint>
          <Trackpoint>
            <Time>2019-07-26T15:50:10.000Z</Time>
            <Position>
              <LatitudeDegrees>42.8882765583693981170654296875</LatitudeDegrees>
              <LongitudeDegrees>-8.50374519824981689453125</LongitudeDegrees>
            </Position>
            <AltitudeMeters>304.600006103515625</AltitudeMeters>
            <DistanceMeters>96881.587428427</DistanceMeters>
          </Trackpoint>
          <Trackpoint>
            <Time>2019-07-26T15:50:13.000Z</Time>
            <Position>
              <LatitudeDegrees>42.888284437358379364013671875</LatitudeDegrees>
              <LongitudeDegrees>-8.50380043499171733856201171875</LongitudeDegrees>
            </Position>
            <AltitudeMeters>303.600006103515625</AltitudeMeters>
            <DistanceMeters>96886.178310523</DistanceMeters>
          </Trackpoint>
          <Trackpoint>
            <Time>2019-07-26T15:50:15.000Z</Time>
            <Position>
              <LatitudeDegrees>42.88826876319944858551025390625</LatitudeDegrees>
              <LongitudeDegrees>-8.5038754530251026153564453125</LongitudeDegrees>
            </Position>
            <AltitudeMeters>302.79998779296875</AltitudeMeters>
            <DistanceMeters>96892.540134367</DistanceMeters>
          </Trackpoint>
          <Trackpoint>
            <Time>2019-07-26T15:50:16.000Z</Time>
            <Position>
              <LatitudeDegrees>42.88825099356472492218017578125</LatitudeDegrees>
              <LongitudeDegrees>-8.5039193741977214813232421875</LongitudeDegrees>
            </Position>
            <AltitudeMeters>302.399993896484375</AltitudeMeters>
            <DistanceMeters>96896.630700545</DistanceMeters>
          </Trackpoint>
          <Trackpoint>
            <Time>2019-07-26T15:50:18.000Z</Time>
            <Position>
              <LatitudeDegrees>42.88819424808025360107421875</LatitudeDegrees>
              <LongitudeDegrees>-8.5040048696100711822509765625</LongitudeDegrees>
            </Position>
            <AltitudeMeters>302.20001220703125</AltitudeMeters>
            <DistanceMeters>96906.038345267</DistanceMeters>
          </Trackpoint>
          <Trackpoint>
            <Time>2019-07-26T15:50:19.000Z</Time>
            <Position>
              <LatitudeDegrees>42.8881578706204891204833984375</LatitudeDegrees>
              <LongitudeDegrees>-8.5040491260588169097900390625</LongitudeDegrees>
            </Position>
            <AltitudeMeters>302</AltitudeMeters>
            <DistanceMeters>96911.462364907</DistanceMeters>
          </Trackpoint>
          <Trackpoint>
            <Time>2019-07-26T15:50:21.000Z</Time>
            <Position>
              <LatitudeDegrees>42.888067178428173065185546875</LatitudeDegrees>
              <LongitudeDegrees>-8.50414074026048183441162109375</LongitudeDegrees>
            </Position>
            <AltitudeMeters>302</AltitudeMeters>
            <DistanceMeters>96924.020280937</DistanceMeters>
          </Trackpoint>
          <Trackpoint>
            <Time>2019-07-26T15:50:24.000Z</Time>
            <Position>
              <LatitudeDegrees>42.887906916439533233642578125</LatitudeDegrees>
              <LongitudeDegrees>-8.5042811371386051177978515625</LongitudeDegrees>
            </Position>
            <AltitudeMeters>302</AltitudeMeters>
            <DistanceMeters>96945.215712122</DistanceMeters>
          </Trackpoint>
          <Trackpoint>
            <Time>2019-07-26T15:50:26.000Z</Time>
            <Position>
              <LatitudeDegrees>42.8877912461757659912109375</LatitudeDegrees>
              <LongitudeDegrees>-8.50436889566481113433837890625</LongitudeDegrees>
            </Position>
            <AltitudeMeters>302</AltitudeMeters>
            <DistanceMeters>96959.945159384</DistanceMeters>
          </Trackpoint>
          <Trackpoint>
            <Time>2019-07-26T15:50:29.000Z</Time>
            <Position>
              <LatitudeDegrees>42.88762184791266918182373046875</LatitudeDegrees>
              <LongitudeDegrees>-8.50448607467114925384521484375</LongitudeDegrees>
            </Position>
            <AltitudeMeters>302.20001220703125</AltitudeMeters>
            <DistanceMeters>96981.082569875</DistanceMeters>
          </Trackpoint>
          <Trackpoint>
            <Time>2019-07-26T15:50:30.000Z</Time>
            <Position>
              <LatitudeDegrees>42.8875627554953098297119140625</LatitudeDegrees>
              <LongitudeDegrees>-8.5045225359499454498291015625</LongitudeDegrees>
            </Position>
            <AltitudeMeters>302.20001220703125</AltitudeMeters>
            <DistanceMeters>96988.300848138</DistanceMeters>
          </Trackpoint>
          <Trackpoint>
            <Time>2019-07-26T15:50:37.000Z</Time>
            <Position>
              <LatitudeDegrees>42.8871439956128597259521484375</LatitudeDegrees>
              <LongitudeDegrees>-8.50482654757797718048095703125</LongitudeDegrees>
            </Position>
            <AltitudeMeters>302.20001220703125</AltitudeMeters>
            <DistanceMeters>97041.093212772</DistanceMeters>
          </Trackpoint>
          <Trackpoint>
            <Time>2019-07-26T15:50:42.000Z</Time>
            <Position>
              <LatitudeDegrees>42.8869039379060268402099609375</LatitudeDegrees>
              <LongitudeDegrees>-8.50521496497094631195068359375</LongitudeDegrees>
            </Position>
            <AltitudeMeters>302</AltitudeMeters>
            <DistanceMeters>97082.5330326</DistanceMeters>
          </Trackpoint>
          <Trackpoint>
            <Time>2019-07-26T15:50:45.000Z</Time>
            <Position>
              <LatitudeDegrees>42.88681366480886936187744140625</LatitudeDegrees>
              <LongitudeDegrees>-8.5055263526737689971923828125</LongitudeDegrees>
            </Position>
            <AltitudeMeters>302</AltitudeMeters>
            <DistanceMeters>97109.842592715</DistanceMeters>
          </Trackpoint>
          <Trackpoint>
            <Time>2019-07-26T15:50:46.000Z</Time>
            <Position>
              <LatitudeDegrees>42.8867919556796550750732421875</LatitudeDegrees>
              <LongitudeDegrees>-8.50563858635723590850830078125</LongitudeDegrees>
            </Position>
            <AltitudeMeters>302</AltitudeMeters>
            <DistanceMeters>97119.309085129</DistanceMeters>
          </Trackpoint>
          <Trackpoint>
            <Time>2019-07-26T15:50:51.000Z</Time>
            <Position>
              <LatitudeDegrees>42.88671509362757205963134765625</LatitudeDegrees>
              <LongitudeDegrees>-8.5062364675104618072509765625</LongitudeDegrees>
            </Position>
            <AltitudeMeters>301.20001220703125</AltitudeMeters>
            <DistanceMeters>97168.81171036</DistanceMeters>
          </Trackpoint>
          <Trackpoint>
            <Time>2019-07-26T15:50:52.000Z</Time>
            <Position>
              <LatitudeDegrees>42.88670117966830730438232421875</LatitudeDegrees>
              <LongitudeDegrees>-8.50636370480060577392578125</LongitudeDegrees>
            </Position>
            <AltitudeMeters>301</AltitudeMeters>
            <DistanceMeters>97179.302590767</DistanceMeters>
          </Trackpoint>
          <Trackpoint>
            <Time>2019-07-26T15:50:55.000Z</Time>
            <Position>
              <LatitudeDegrees>42.8866605274379253387451171875</LatitudeDegrees>
              <LongitudeDegrees>-8.50677383132278919219970703125</LongitudeDegrees>
            </Position>
            <AltitudeMeters>300</AltitudeMeters>
            <DistanceMeters>97213.053532728</DistanceMeters>
          </Trackpoint>
          <Trackpoint>
            <Time>2019-07-26T15:50:57.000Z</Time>
            <Position>
              <LatitudeDegrees>42.88663730956614017486572265625</LatitudeDegrees>
              <LongitudeDegrees>-8.50707004778087139129638671875</LongitudeDegrees>
            </Position>
            <AltitudeMeters>298.600006103515625</AltitudeMeters>
            <DistanceMeters>97237.348055907</DistanceMeters>
          </Trackpoint>
          <Trackpoint>
            <Time>2019-07-26T15:50:58.000Z</Time>
            <Position>
              <LatitudeDegrees>42.88662691600620746612548828125</LatitudeDegrees>
              <LongitudeDegrees>-8.50722335278987884521484375</LongitudeDegrees>
            </Position>
            <AltitudeMeters>298.20001220703125</AltitudeMeters>
            <DistanceMeters>97249.903814529</DistanceMeters>
          </Trackpoint>
          <Trackpoint>
            <Time>2019-07-26T15:51:00.000Z</Time>
            <Position>
              <LatitudeDegrees>42.88660830818116664886474609375</LatitudeDegrees>
              <LongitudeDegrees>-8.507535494863986968994140625</LongitudeDegrees>
            </Position>
            <AltitudeMeters>297.399993896484375</AltitudeMeters>
            <DistanceMeters>97275.443558886</DistanceMeters>
          </Trackpoint>
          <Trackpoint>
            <Time>2019-07-26T15:51:02.000Z</Time>
            <Position>
              <LatitudeDegrees>42.8865985013544559478759765625</LatitudeDegrees>
              <LongitudeDegrees>-8.50785727612674236297607421875</LongitudeDegrees>
            </Position>
            <AltitudeMeters>296.399993896484375</AltitudeMeters>
            <DistanceMeters>97301.707746282</DistanceMeters>
          </Trackpoint>
          <Trackpoint>
            <Time>2019-07-26T15:51:04.000Z</Time>
            <Position>
              <LatitudeDegrees>42.886591292917728424072265625</LatitudeDegrees>
              <LongitudeDegrees>-8.50817075930535793304443359375</LongitudeDegrees>
            </Position>
            <AltitudeMeters>294.79998779296875</AltitudeMeters>
            <DistanceMeters>97327.284941556</DistanceMeters>
          </Trackpoint>
          <Trackpoint>
            <Time>2019-07-26T15:51:06.000Z</Time>
            <Position>
              <LatitudeDegrees>42.8865834139287471771240234375</LatitudeDegrees>
              <LongitudeDegrees>-8.508460521697998046875</LongitudeDegrees>
            </Position>
            <AltitudeMeters>294</AltitudeMeters>
            <DistanceMeters>97350.931895984</DistanceMeters>
          </Trackpoint>
          <Trackpoint>
            <Time>2019-07-26T15:51:07.000Z</Time>
            <Position>
              <LatitudeDegrees>42.88658165372908115386962890625</LatitudeDegrees>
              <LongitudeDegrees>-8.5085959732532501220703125</LongitudeDegrees>
            </Position>
            <AltitudeMeters>293.399993896484375</AltitudeMeters>
            <DistanceMeters>97361.97995207</DistanceMeters>
          </Trackpoint>
          <Trackpoint>
            <Time>2019-07-26T15:51:09.000Z</Time>
            <Position>
              <LatitudeDegrees>42.886575870215892791748046875</LatitudeDegrees>
              <LongitudeDegrees>-8.50885539315640926361083984375</LongitudeDegrees>
            </Position>
            <AltitudeMeters>291.600006103515625</AltitudeMeters>
            <DistanceMeters>97383.145539527</DistanceMeters>
          </Trackpoint>
          <Trackpoint>
            <Time>2019-07-26T15:51:10.000Z</Time>
            <Position>
              <LatitudeDegrees>42.886572182178497314453125</LatitudeDegrees>
              <LongitudeDegrees>-8.50897885859012603759765625</LongitudeDegrees>
            </Position>
            <AltitudeMeters>290.600006103515625</AltitudeMeters>
            <DistanceMeters>97393.222852645</DistanceMeters>
          </Trackpoint>
          <Trackpoint>
            <Time>2019-07-26T15:51:12.000Z</Time>
            <Position>
              <LatitudeDegrees>42.88656556047499179840087890625</LatitudeDegrees>
              <LongitudeDegrees>-8.50920642726123332977294921875</LongitudeDegrees>
            </Position>
            <AltitudeMeters>289</AltitudeMeters>
            <DistanceMeters>97411.796139385</DistanceMeters>
          </Trackpoint>
          <Trackpoint>
            <Time>2019-07-26T15:51:14.000Z</Time>
            <Position>
              <LatitudeDegrees>42.8865579329431056976318359375</LatitudeDegrees>
              <LongitudeDegrees>-8.50941077806055545806884765625</LongitudeDegrees>
            </Position>
            <AltitudeMeters>288</AltitudeMeters>
            <DistanceMeters>97428.482462439</DistanceMeters>
          </Trackpoint>
          <Trackpoint>
            <Time>2019-07-26T15:51:15.000Z</Time>
            <Position>
              <LatitudeDegrees>42.88655541837215423583984375</LatitudeDegrees>
              <LongitudeDegrees>-8.50950364954769611358642578125</LongitudeDegrees>
            </Position>
            <AltitudeMeters>287.399993896484375</AltitudeMeters>
            <DistanceMeters>97436.061997144</DistanceMeters>
          </Trackpoint>
          <Trackpoint>
            <Time>2019-07-26T15:51:17.000Z</Time>
            <Position>
              <LatitudeDegrees>42.8865515626966953277587890625</LatitudeDegrees>
              <LongitudeDegrees>-8.5096680186688899993896484375</LongitudeDegrees>
            </Position>
            <AltitudeMeters>287</AltitudeMeters>
            <DistanceMeters>97449.473226118</DistanceMeters>
          </Trackpoint>
          <Trackpoint>
            <Time>2019-07-26T15:51:18.000Z</Time>
            <Position>
              <LatitudeDegrees>42.8865495510399341583251953125</LatitudeDegrees>
              <LongitudeDegrees>-8.5097437910735607147216796875</LongitudeDegrees>
            </Position>
            <AltitudeMeters>286.79998779296875</AltitudeMeters>
            <DistanceMeters>97455.656537825</DistanceMeters>
          </Trackpoint>
          <Trackpoint>
            <Time>2019-07-26T15:51:19.000Z</Time>
            <Position>
              <LatitudeDegrees>42.88655013777315616607666015625</LatitudeDegrees>
              <LongitudeDegrees>-8.5098148696124553680419921875</LongitudeDegrees>
            </Position>
            <AltitudeMeters>286.600006103515625</AltitudeMeters>
            <DistanceMeters>97461.452388442</DistanceMeters>
          </Trackpoint>
          <Trackpoint>
            <Time>2019-07-26T15:51:21.000Z</Time>
            <Position>
              <LatitudeDegrees>42.88655701093375682830810546875</LatitudeDegrees>
              <LongitudeDegrees>-8.5099426098167896270751953125</LongitudeDegrees>
            </Position>
            <AltitudeMeters>286</AltitudeMeters>
            <DistanceMeters>97471.897549216</DistanceMeters>
          </Trackpoint>
          <Trackpoint>
            <Time>2019-07-26T15:51:22.000Z</Time>
            <Position>
              <LatitudeDegrees>42.88655952550470829010009765625</LatitudeDegrees>
              <LongitudeDegrees>-8.50999952293932437896728515625</LongitudeDegrees>
            </Position>
            <AltitudeMeters>285.79998779296875</AltitudeMeters>
            <DistanceMeters>97476.547065643</DistanceMeters>
          </Trackpoint>
          <Trackpoint>
            <Time>2019-07-26T15:51:25.000Z</Time>
            <Position>
              <LatitudeDegrees>42.88657863624393939971923828125</LatitudeDegrees>
              <LongitudeDegrees>-8.51015903055667877197265625</LongitudeDegrees>
            </Position>
            <AltitudeMeters>285.600006103515625</AltitudeMeters>
            <DistanceMeters>97489.727719675</DistanceMeters>
          </Trackpoint>
          <Trackpoint>
            <Time>2019-07-26T15:51:29.000Z</Time>
            <Position>
              <LatitudeDegrees>42.886640913784503936767578125</LatitudeDegrees>
              <LongitudeDegrees>-8.5102752037346363067626953125</LongitudeDegrees>
            </Position>
            <AltitudeMeters>285.399993896484375</AltitudeMeters>
            <DistanceMeters>97501.466500128</DistanceMeters>
          </Trackpoint>
          <Trackpoint>
            <Time>2019-07-26T15:51:31.000Z</Time>
            <Position>
              <LatitudeDegrees>42.88664233870804309844970703125</LatitudeDegrees>
              <LongitudeDegrees>-8.51027838885784149169921875</LongitudeDegrees>
            </Position>
            <AltitudeMeters>285.600006103515625</AltitudeMeters>
            <DistanceMeters>97501.781668085</DistanceMeters>
          </Trackpoint>
          <Trackpoint>
            <Time>2019-07-26T15:51:37.000Z</Time>
            <Position>
              <LatitudeDegrees>42.88666329346597194671630859375</LatitudeDegrees>
              <LongitudeDegrees>-8.510313928127288818359375</LongitudeDegrees>
            </Position>
            <AltitudeMeters>285.79998779296875</AltitudeMeters>
            <DistanceMeters>97505.501087006</DistanceMeters>
          </Trackpoint>
          <Trackpoint>
            <Time>2019-07-26T15:51:38.000Z</Time>
            <Position>
              <LatitudeDegrees>42.88667670451104640960693359375</LatitudeDegrees>
              <LongitudeDegrees>-8.51032943464815616607666015625</LongitudeDegrees>
            </Position>
            <AltitudeMeters>285.79998779296875</AltitudeMeters>
            <DistanceMeters>97507.457806816</DistanceMeters>
          </Trackpoint>
          <Trackpoint>
            <Time>2019-07-26T15:51:40.000Z</Time>
            <Position>
              <LatitudeDegrees>42.8867118246853351593017578125</LatitudeDegrees>
              <LongitudeDegrees>-8.51037536747753620147705078125</LongitudeDegrees>
            </Position>
            <AltitudeMeters>285.79998779296875</AltitudeMeters>
            <DistanceMeters>97512.871828254</DistanceMeters>
          </Trackpoint>
          <Trackpoint>
            <Time>2019-07-26T15:51:42.000Z</Time>
            <Position>
              <LatitudeDegrees>42.88676102645695209503173828125</LatitudeDegrees>
              <LongitudeDegrees>-8.5104612819850444793701171875</LongitudeDegrees>
            </Position>
            <AltitudeMeters>285.79998779296875</AltitudeMeters>
            <DistanceMeters>97521.764318312</DistanceMeters>
          </Trackpoint>
          <Trackpoint>
            <Time>2019-07-26T15:51:44.000Z</Time>
            <Position>
              <LatitudeDegrees>42.8868134133517742156982421875</LatitudeDegrees>
              <LongitudeDegrees>-8.51056999526917934417724609375</LongitudeDegrees>
            </Position>
            <AltitudeMeters>285.79998779296875</AltitudeMeters>
            <DistanceMeters>97532.375020131</DistanceMeters>
          </Trackpoint>
          <Trackpoint>
            <Time>2019-07-26T15:51:46.000Z</Time>
            <Position>
              <LatitudeDegrees>42.88684082217514514923095703125</LatitudeDegrees>
              <LongitudeDegrees>-8.5106979869306087493896484375</LongitudeDegrees>
            </Position>
            <AltitudeMeters>285.79998779296875</AltitudeMeters>
            <DistanceMeters>97543.249248887</DistanceMeters>
          </Trackpoint>
          <Trackpoint>
            <Time>2019-07-26T15:51:47.000Z</Time>
            <Position>
              <LatitudeDegrees>42.8868435882031917572021484375</LatitudeDegrees>
              <LongitudeDegrees>-8.51076613180339336395263671875</LongitudeDegrees>
            </Position>
            <AltitudeMeters>285.79998779296875</AltitudeMeters>
            <DistanceMeters>97548.81541384</DistanceMeters>
          </Trackpoint>
          <Trackpoint>
            <Time>2019-07-26T15:51:51.000Z</Time>
            <Position>
              <LatitudeDegrees>42.88676706142723560333251953125</LatitudeDegrees>
              <LongitudeDegrees>-8.51101289503276348114013671875</LongitudeDegrees>
            </Position>
            <AltitudeMeters>286</AltitudeMeters>
            <DistanceMeters>97570.667426158</DistanceMeters>
          </Trackpoint>
          <Trackpoint>
            <Time>2019-07-26T15:51:54.000Z</Time>
            <Position>
              <LatitudeDegrees>42.88666404783725738525390625</LatitudeDegrees>
              <LongitudeDegrees>-8.51116209290921688079833984375</LongitudeDegrees>
            </Position>
            <AltitudeMeters>286.600006103515625</AltitudeMeters>
            <DistanceMeters>97587.385647537</DistanceMeters>
          </Trackpoint>
          <Trackpoint>
            <Time>2019-07-26T15:51:55.000Z</Time>
            <Position>
              <LatitudeDegrees>42.88662850856781005859375</LatitudeDegrees>
              <LongitudeDegrees>-8.5112116299569606781005859375</LongitudeDegrees>
            </Position>
            <AltitudeMeters>286.600006103515625</AltitudeMeters>
            <DistanceMeters>97593.039537403</DistanceMeters>
          </Trackpoint>
          <Trackpoint>
            <Time>2019-07-26T15:51:56.000Z</Time>
            <Position>
              <LatitudeDegrees>42.88659757934510707855224609375</LatitudeDegrees>
              <LongitudeDegrees>-8.5112676210701465606689453125</LongitudeDegrees>
            </Position>
            <AltitudeMeters>286.79998779296875</AltitudeMeters>
            <DistanceMeters>97598.757745759</DistanceMeters>
          </Trackpoint>
          <Trackpoint>
            <Time>2019-07-26T15:51:59.000Z</Time>
            <Position>
              <LatitudeDegrees>42.88654577918350696563720703125</LatitudeDegrees>
              <LongitudeDegrees>-8.5114627517759799957275390625</LongitudeDegrees>
            </Position>
            <AltitudeMeters>287</AltitudeMeters>
            <DistanceMeters>97615.683441466</DistanceMeters>
          </Trackpoint>
          <Trackpoint>
            <Time>2019-07-26T15:52:00.000Z</Time>
            <Position>
              <LatitudeDegrees>42.8865408338606357574462890625</LatitudeDegrees>
              <LongitudeDegrees>-8.51153156720101833343505859375</LongitudeDegrees>
            </Position>
            <AltitudeMeters>287</AltitudeMeters>
            <DistanceMeters>97621.322938717</DistanceMeters>
          </Trackpoint>
          <Trackpoint>
            <Time>2019-07-26T15:52:03.000Z</Time>
            <Position>
              <LatitudeDegrees>42.8865441866219043731689453125</LatitudeDegrees>
              <LongitudeDegrees>-8.51173910312354564666748046875</LongitudeDegrees>
            </Position>
            <AltitudeMeters>287.20001220703125</AltitudeMeters>
            <DistanceMeters>97638.252101903</DistanceMeters>
          </Trackpoint>
          <Trackpoint>
            <Time>2019-07-26T15:52:06.000Z</Time>
            <Position>
              <LatitudeDegrees>42.8865351341664791107177734375</LatitudeDegrees>
              <LongitudeDegrees>-8.511933647096157073974609375</LongitudeDegrees>
            </Position>
            <AltitudeMeters>287.20001220703125</AltitudeMeters>
            <DistanceMeters>97654.149704851</DistanceMeters>
          </Trackpoint>
          <Trackpoint>
            <Time>2019-07-26T15:52:13.000Z</Time>
            <Position>
              <LatitudeDegrees>42.8865145146846771240234375</LatitudeDegrees>
              <LongitudeDegrees>-8.51233555935323238372802734375</LongitudeDegrees>
            </Position>
            <AltitudeMeters>287.79998779296875</AltitudeMeters>
            <DistanceMeters>97687.006419523</DistanceMeters>
          </Trackpoint>
          <Trackpoint>
            <Time>2019-07-26T15:52:15.000Z</Time>
            <Position>
              <LatitudeDegrees>42.8865103237330913543701171875</LatitudeDegrees>
              <LongitudeDegrees>-8.51244888268411159515380859375</LongitudeDegrees>
            </Position>
            <AltitudeMeters>287.79998779296875</AltitudeMeters>
            <DistanceMeters>97696.259211251</DistanceMeters>
          </Trackpoint>
          <Trackpoint>
            <Time>2019-07-26T15:52:19.000Z</Time>
            <Position>
              <LatitudeDegrees>42.8865133412182331085205078125</LatitudeDegrees>
              <LongitudeDegrees>-8.512678630650043487548828125</LongitudeDegrees>
            </Position>
            <AltitudeMeters>288</AltitudeMeters>
            <DistanceMeters>97714.99803599</DistanceMeters>
          </Trackpoint>
          <Trackpoint>
            <Time>2019-07-26T15:52:21.000Z</Time>
            <Position>
              <LatitudeDegrees>42.8865539096295833587646484375</LatitudeDegrees>
              <LongitudeDegrees>-8.512784577906131744384765625</LongitudeDegrees>
            </Position>
            <AltitudeMeters>288</AltitudeMeters>
            <DistanceMeters>97724.746498664</DistanceMeters>
          </Trackpoint>
          <Trackpoint>
            <Time>2019-07-26T15:52:25.000Z</Time>
            <Position>
              <LatitudeDegrees>42.8866534866392612457275390625</LatitudeDegrees>
              <LongitudeDegrees>-8.5129885934293270111083984375</LongitudeDegrees>
            </Position>
            <AltitudeMeters>288</AltitudeMeters>
            <DistanceMeters>97744.738050713</DistanceMeters>
          </Trackpoint>
          <Trackpoint>
            <Time>2019-07-26T15:52:26.000Z</Time>
            <Position>
              <LatitudeDegrees>42.88665927015244960784912109375</LatitudeDegrees>
              <LongitudeDegrees>-8.51304952986538410186767578125</LongitudeDegrees>
            </Position>
            <AltitudeMeters>288.20001220703125</AltitudeMeters>
            <DistanceMeters>97749.750203211</DistanceMeters>
          </Trackpoint>
          <Trackpoint>
            <Time>2019-07-26T15:52:29.000Z</Time>
            <Position>
              <LatitudeDegrees>42.88659875281155109405517578125</LatitudeDegrees>
              <LongitudeDegrees>-8.5132098756730556488037109375</LongitudeDegrees>
            </Position>
            <AltitudeMeters>288.600006103515625</AltitudeMeters>
            <DistanceMeters>97764.459712438</DistanceMeters>
          </Trackpoint>
          <Trackpoint>
            <Time>2019-07-26T15:52:32.000Z</Time>
            <Position>
              <LatitudeDegrees>42.88650982081890106201171875</LatitudeDegrees>
              <LongitudeDegrees>-8.5133744962513446807861328125</LongitudeDegrees>
            </Position>
            <AltitudeMeters>289</AltitudeMeters>
            <DistanceMeters>97781.138998846</DistanceMeters>
          </Trackpoint>
          <Trackpoint>
            <Time>2019-07-26T15:52:33.000Z</Time>
            <Position>
              <LatitudeDegrees>42.8865006007254123687744140625</LatitudeDegrees>
              <LongitudeDegrees>-8.5134415514767169952392578125</LongitudeDegrees>
            </Position>
            <AltitudeMeters>289</AltitudeMeters>
            <DistanceMeters>97786.702729793</DistanceMeters>
          </Trackpoint>
          <Trackpoint>
            <Time>2019-07-26T15:52:34.000Z</Time>
            <Position>
              <LatitudeDegrees>42.8864979185163974761962890625</LatitudeDegrees>
              <LongitudeDegrees>-8.51350734941661357879638671875</LongitudeDegrees>
            </Position>
            <AltitudeMeters>289.20001220703125</AltitudeMeters>
            <DistanceMeters>97792.075732156</DistanceMeters>
          </Trackpoint>
          <Trackpoint>
            <Time>2019-07-26T15:52:40.000Z</Time>
            <Position>
              <LatitudeDegrees>42.88648190908133983612060546875</LatitudeDegrees>
              <LongitudeDegrees>-8.51388084702193737030029296875</LongitudeDegrees>
            </Position>
            <AltitudeMeters>289.600006103515625</AltitudeMeters>
            <DistanceMeters>97822.587003365</DistanceMeters>
          </Trackpoint>
          <Trackpoint>
            <Time>2019-07-26T15:52:41.000Z</Time>
            <Position>
              <LatitudeDegrees>42.88647972978651523590087890625</LatitudeDegrees>
              <LongitudeDegrees>-8.51393834687769412994384765625</LongitudeDegrees>
            </Position>
            <AltitudeMeters>290</AltitudeMeters>
            <DistanceMeters>97827.281938573</DistanceMeters>
          </Trackpoint>
          <Trackpoint>
            <Time>2019-07-26T15:52:45.000Z</Time>
            <Position>
              <LatitudeDegrees>42.8864741139113903045654296875</LatitudeDegrees>
              <LongitudeDegrees>-8.5141667537391185760498046875</LongitudeDegrees>
            </Position>
            <AltitudeMeters>291.20001220703125</AltitudeMeters>
            <DistanceMeters>97845.919533658</DistanceMeters>
          </Trackpoint>
          <Trackpoint>
            <Time>2019-07-26T15:52:47.000Z</Time>
            <Position>
              <LatitudeDegrees>42.886484004557132720947265625</LatitudeDegrees>
              <LongitudeDegrees>-8.51423959247767925262451171875</LongitudeDegrees>
            </Position>
            <AltitudeMeters>291.600006103515625</AltitudeMeters>
            <DistanceMeters>97851.961020974</DistanceMeters>
          </Trackpoint>
          <Trackpoint>
            <Time>2019-07-26T15:52:51.000Z</Time>
            <Position>
              <LatitudeDegrees>42.8865145146846771240234375</LatitudeDegrees>
              <LongitudeDegrees>-8.5142954997718334197998046875</LongitudeDegrees>
            </Position>
            <AltitudeMeters>291.79998779296875</AltitudeMeters>
            <DistanceMeters>97857.645969838</DistanceMeters>
          </Trackpoint>
          <Trackpoint>
            <Time>2019-07-26T15:52:52.000Z</Time>
            <Position>
              <LatitudeDegrees>42.886514179408550262451171875</LatitudeDegrees>
              <LongitudeDegrees>-8.5142948292195796966552734375</LongitudeDegrees>
            </Position>
            <AltitudeMeters>291.79998779296875</AltitudeMeters>
            <DistanceMeters>97857.740996553</DistanceMeters>
          </Trackpoint>
          <Trackpoint>
            <Time>2019-07-26T15:52:59.000Z</Time>
            <Position>
              <LatitudeDegrees>42.88652398623526096343994140625</LatitudeDegrees>
              <LongitudeDegrees>-8.51434285752475261688232421875</LongitudeDegrees>
            </Position>
            <AltitudeMeters>292</AltitudeMeters>
            <DistanceMeters>97861.807207316</DistanceMeters>
          </Trackpoint>
          <Trackpoint>
            <Time>2019-07-26T15:53:01.000Z</Time>
            <Position>
              <LatitudeDegrees>42.886536307632923126220703125</LatitudeDegrees>
              <LongitudeDegrees>-8.514410667121410369873046875</LongitudeDegrees>
            </Position>
            <AltitudeMeters>292</AltitudeMeters>
            <DistanceMeters>97867.504056861</DistanceMeters>
          </Trackpoint>
          <Trackpoint>
            <Time>2019-07-26T15:53:03.000Z</Time>
            <Position>
              <LatitudeDegrees>42.88654334843158721923828125</LatitudeDegrees>
              <LongitudeDegrees>-8.51448300294578075408935546875</LongitudeDegrees>
            </Position>
            <AltitudeMeters>292</AltitudeMeters>
            <DistanceMeters>97873.45518783</DistanceMeters>
          </Trackpoint>
          <Trackpoint>
            <Time>2019-07-26T15:53:07.000Z</Time>
            <Position>
              <LatitudeDegrees>42.88653127849102020263671875</LatitudeDegrees>
              <LongitudeDegrees>-8.514621555805206298828125</LongitudeDegrees>
            </Position>
            <AltitudeMeters>292</AltitudeMeters>
            <DistanceMeters>97884.834215299</DistanceMeters>
          </Trackpoint>
          <Trackpoint>
            <Time>2019-07-26T15:53:08.000Z</Time>
            <Position>
              <LatitudeDegrees>42.8865270875394344329833984375</LatitudeDegrees>
              <LongitudeDegrees>-8.5146539099514484405517578125</LongitudeDegrees>
            </Position>
            <AltitudeMeters>292.20001220703125</AltitudeMeters>
            <DistanceMeters>97887.513564244</DistanceMeters>
          </Trackpoint>
          <Trackpoint>
            <Time>2019-07-26T15:53:12.000Z</Time>
            <Position>
              <LatitudeDegrees>42.88652331568300724029541015625</LatitudeDegrees>
              <LongitudeDegrees>-8.51475424133241176605224609375</LongitudeDegrees>
            </Position>
            <AltitudeMeters>292.399993896484375</AltitudeMeters>
            <DistanceMeters>97895.706277971</DistanceMeters>
          </Trackpoint>
          <Trackpoint>
            <Time>2019-07-26T15:53:13.000Z</Time>
            <Position>
              <LatitudeDegrees>42.88652180694043636322021484375</LatitudeDegrees>
              <LongitudeDegrees>-8.51477653719484806060791015625</LongitudeDegrees>
            </Position>
            <AltitudeMeters>292.399993896484375</AltitudeMeters>
            <DistanceMeters>97897.52920642</DistanceMeters>
          </Trackpoint>
          <Trackpoint>
            <Time>2019-07-26T15:53:14.000Z</Time>
            <Position>
              <LatitudeDegrees>42.8865217231214046478271484375</LatitudeDegrees>
              <LongitudeDegrees>-8.51479615084826946258544921875</LongitudeDegrees>
            </Position>
            <AltitudeMeters>292.600006103515625</AltitudeMeters>
            <DistanceMeters>97899.124976315</DistanceMeters>
          </Trackpoint>
          <Trackpoint>
            <Time>2019-07-26T15:53:17.000Z</Time>
            <Position>
              <LatitudeDegrees>42.886517532169818878173828125</LatitudeDegrees>
              <LongitudeDegrees>-8.51481978781521320343017578125</LongitudeDegrees>
            </Position>
            <AltitudeMeters>292.79998779296875</AltitudeMeters>
            <DistanceMeters>97901.106915581</DistanceMeters>
          </Trackpoint>
          <Trackpoint>
            <Time>2019-07-26T15:53:24.000Z</Time>
            <Position>
              <LatitudeDegrees>42.8865130059421062469482421875</LatitudeDegrees>
              <LongitudeDegrees>-8.5148731805384159088134765625</LongitudeDegrees>
            </Position>
            <AltitudeMeters>293.20001220703125</AltitudeMeters>
            <DistanceMeters>97905.490521707</DistanceMeters>
          </Trackpoint>
          <Trackpoint>
            <Time>2019-07-26T15:53:28.000Z</Time>
            <Position>
              <LatitudeDegrees>42.8865042887628078460693359375</LatitudeDegrees>
              <LongitudeDegrees>-8.51496957242488861083984375</LongitudeDegrees>
            </Position>
            <AltitudeMeters>293.20001220703125</AltitudeMeters>
            <DistanceMeters>97913.410871514</DistanceMeters>
          </Trackpoint>
          <Trackpoint>
            <Time>2019-07-26T15:53:31.000Z</Time>
            <Position>
              <LatitudeDegrees>42.8864945657551288604736328125</LatitudeDegrees>
              <LongitudeDegrees>-8.5150840692222118377685546875</LongitudeDegrees>
            </Position>
            <AltitudeMeters>293.20001220703125</AltitudeMeters>
            <DistanceMeters>97922.810353836</DistanceMeters>
          </Trackpoint>
          <Trackpoint>
            <Time>2019-07-26T15:53:33.000Z</Time>
            <Position>
              <LatitudeDegrees>42.88650604896247386932373046875</LatitudeDegrees>
              <LongitudeDegrees>-8.515152633190155029296875</LongitudeDegrees>
            </Position>
            <AltitudeMeters>293.20001220703125</AltitudeMeters>
            <DistanceMeters>97928.545119604</DistanceMeters>
          </Trackpoint>
          <Trackpoint>
            <Time>2019-07-26T15:53:35.000Z</Time>
            <Position>
              <LatitudeDegrees>42.88653890602290630340576171875</LatitudeDegrees>
              <LongitudeDegrees>-8.51522035896778106689453125</LongitudeDegrees>
            </Position>
            <AltitudeMeters>293.20001220703125</AltitudeMeters>
            <DistanceMeters>97935.169101899</DistanceMeters>
          </Trackpoint>
          <Trackpoint>
            <Time>2019-07-26T15:53:37.000Z</Time>
            <Position>
              <LatitudeDegrees>42.8865565918385982513427734375</LatitudeDegrees>
              <LongitudeDegrees>-8.51531348191201686859130859375</LongitudeDegrees>
            </Position>
            <AltitudeMeters>293.399993896484375</AltitudeMeters>
            <DistanceMeters>97943.014419039</DistanceMeters>
          </Trackpoint>
          <Trackpoint>
            <Time>2019-07-26T15:53:39.000Z</Time>
            <Position>
              <LatitudeDegrees>42.88655332289636135101318359375</LatitudeDegrees>
              <LongitudeDegrees>-8.515435270965099334716796875</LongitudeDegrees>
            </Position>
            <AltitudeMeters>293.79998779296875</AltitudeMeters>
            <DistanceMeters>97952.952777865</DistanceMeters>
          </Trackpoint>
          <Trackpoint>
            <Time>2019-07-26T15:53:42.000Z</Time>
            <Position>
              <LatitudeDegrees>42.88654066622257232666015625</LatitudeDegrees>
              <LongitudeDegrees>-8.51562310941517353057861328125</LongitudeDegrees>
            </Position>
            <AltitudeMeters>294</AltitudeMeters>
            <DistanceMeters>97968.335956447</DistanceMeters>
          </Trackpoint>
          <Trackpoint>
            <Time>2019-07-26T15:53:44.000Z</Time>
            <Position>
              <LatitudeDegrees>42.88653689436614513397216796875</LatitudeDegrees>
              <LongitudeDegrees>-8.515742719173431396484375</LongitudeDegrees>
            </Position>
            <AltitudeMeters>294.20001220703125</AltitudeMeters>
            <DistanceMeters>97978.100153654</DistanceMeters>
          </Trackpoint>
          <Trackpoint>
            <Time>2019-07-26T15:53:47.000Z</Time>
            <Position>
              <LatitudeDegrees>42.8865358047187328338623046875</LatitudeDegrees>
              <LongitudeDegrees>-8.5159179009497165679931640625</LongitudeDegrees>
            </Position>
            <AltitudeMeters>294.600006103515625</AltitudeMeters>
            <DistanceMeters>97992.387065425</DistanceMeters>
          </Trackpoint>
          <Trackpoint>
            <Time>2019-07-26T15:53:53.000Z</Time>
            <Position>
              <LatitudeDegrees>42.8865284286439418792724609375</LatitudeDegrees>
              <LongitudeDegrees>-8.5162535123527050018310546875</LongitudeDegrees>
            </Position>
            <AltitudeMeters>295.399993896484375</AltitudeMeters>
            <DistanceMeters>98019.768778612</DistanceMeters>
          </Trackpoint>
          <Trackpoint>
            <Time>2019-07-26T15:53:55.000Z</Time>
            <Position>
              <LatitudeDegrees>42.88650906644761562347412109375</LatitudeDegrees>
              <LongitudeDegrees>-8.5163507424294948577880859375</LongitudeDegrees>
            </Position>
            <AltitudeMeters>295.600006103515625</AltitudeMeters>
            <DistanceMeters>98027.985155642</DistanceMeters>
          </Trackpoint>
          <Trackpoint>
            <Time>2019-07-26T15:54:00.000Z</Time>
            <Position>
              <LatitudeDegrees>42.8864771313965320587158203125</LatitudeDegrees>
              <LongitudeDegrees>-8.5165683366358280181884765625</LongitudeDegrees>
            </Position>
            <AltitudeMeters>296.20001220703125</AltitudeMeters>
            <DistanceMeters>98046.082693392</DistanceMeters>
          </Trackpoint>
          <Trackpoint>
            <Time>2019-07-26T15:54:02.000Z</Time>
            <Position>
              <LatitudeDegrees>42.88647830486297607421875</LatitudeDegrees>
              <LongitudeDegrees>-8.516680486500263214111328125</LongitudeDegrees>
            </Position>
            <AltitudeMeters>296.399993896484375</AltitudeMeters>
            <DistanceMeters>98055.228983797</DistanceMeters>
          </Trackpoint>
          <Trackpoint>
            <Time>2019-07-26T15:54:05.000Z</Time>
            <Position>
              <LatitudeDegrees>42.8864943981170654296875</LatitudeDegrees>
              <LongitudeDegrees>-8.51684653200209140777587890625</LongitudeDegrees>
            </Position>
            <AltitudeMeters>296.399993896484375</AltitudeMeters>
            <DistanceMeters>98068.888392257</DistanceMeters>
          </Trackpoint>
          <Trackpoint>
            <Time>2019-07-26T15:54:07.000Z</Time>
            <Position>
              <LatitudeDegrees>42.88653136231005191802978515625</LatitudeDegrees>
              <LongitudeDegrees>-8.51695516146719455718994140625</LongitudeDegrees>
            </Position>
            <AltitudeMeters>296.600006103515625</AltitudeMeters>
            <DistanceMeters>98078.65582578</DistanceMeters>
          </Trackpoint>
          <Trackpoint>
            <Time>2019-07-26T15:54:08.000Z</Time>
            <Position>
              <LatitudeDegrees>42.8865458630025386810302734375</LatitudeDegrees>
              <LongitudeDegrees>-8.51700779981911182403564453125</LongitudeDegrees>
            </Position>
            <AltitudeMeters>296.79998779296875</AltitudeMeters>
            <DistanceMeters>98083.241787843</DistanceMeters>
          </Trackpoint>
          <Trackpoint>
            <Time>2019-07-26T15:54:12.000Z</Time>
            <Position>
              <LatitudeDegrees>42.88655181415379047393798828125</LatitudeDegrees>
              <LongitudeDegrees>-8.51721994578838348388671875</LongitudeDegrees>
            </Position>
            <AltitudeMeters>297.399993896484375</AltitudeMeters>
            <DistanceMeters>98100.555436148</DistanceMeters>
          </Trackpoint>
          <Trackpoint>
            <Time>2019-07-26T15:54:13.000Z</Time>
            <Position>
              <LatitudeDegrees>42.88654075004160404205322265625</LatitudeDegrees>
              <LongitudeDegrees>-8.51727417670190334320068359375</LongitudeDegrees>
            </Position>
            <AltitudeMeters>297.399993896484375</AltitudeMeters>
            <DistanceMeters>98105.146318244</DistanceMeters>
          </Trackpoint>
          <Trackpoint>
            <Time>2019-07-26T15:54:16.000Z</Time>
            <Position>
              <LatitudeDegrees>42.886534966528415679931640625</LatitudeDegrees>
              <LongitudeDegrees>-8.5174558125436305999755859375</LongitudeDegrees>
            </Position>
            <AltitudeMeters>297.79998779296875</AltitudeMeters>
            <DistanceMeters>98119.972922068</DistanceMeters>
          </Trackpoint>
          <Trackpoint>
            <Time>2019-07-26T15:54:17.000Z</Time>
            <Position>
              <LatitudeDegrees>42.8865373134613037109375</LatitudeDegrees>
              <LongitudeDegrees>-8.51751725189387798309326171875</LongitudeDegrees>
            </Position>
            <AltitudeMeters>297.79998779296875</AltitudeMeters>
            <DistanceMeters>98124.990476565</DistanceMeters>
          </Trackpoint>
          <Trackpoint>
            <Time>2019-07-26T15:54:20.000Z</Time>
            <Position>
              <LatitudeDegrees>42.88655198179185390472412109375</LatitudeDegrees>
              <LongitudeDegrees>-8.51770316250622272491455078125</LongitudeDegrees>
            </Position>
            <AltitudeMeters>298.20001220703125</AltitudeMeters>
            <DistanceMeters>98140.239229577</DistanceMeters>
          </Trackpoint>
          <Trackpoint>
            <Time>2019-07-26T15:54:23.000Z</Time>
            <Position>
              <LatitudeDegrees>42.88656388409435749053955078125</LatitudeDegrees>
              <LongitudeDegrees>-8.51788907311856746673583984375</LongitudeDegrees>
            </Position>
            <AltitudeMeters>298.600006103515625</AltitudeMeters>
            <DistanceMeters>98155.458047886</DistanceMeters>
          </Trackpoint>
          <Trackpoint>
            <Time>2019-07-26T15:54:30.000Z</Time>
            <Position>
              <LatitudeDegrees>42.8866083920001983642578125</LatitudeDegrees>
              <LongitudeDegrees>-8.51833079941570758819580078125</LongitudeDegrees>
            </Position>
            <AltitudeMeters>299.399993896484375</AltitudeMeters>
            <DistanceMeters>98191.820389851</DistanceMeters>
          </Trackpoint>
          <Trackpoint>
            <Time>2019-07-26T15:54:32.000Z</Time>
            <Position>
              <LatitudeDegrees>42.88662113249301910400390625</LatitudeDegrees>
              <LongitudeDegrees>-8.518454097211360931396484375</LongitudeDegrees>
            </Position>
            <AltitudeMeters>299.79998779296875</AltitudeMeters>
            <DistanceMeters>98201.975362672</DistanceMeters>
          </Trackpoint>
          <Trackpoint>
            <Time>2019-07-26T15:54:37.000Z</Time>
            <Position>
              <LatitudeDegrees>42.8866544924676418304443359375</LatitudeDegrees>
              <LongitudeDegrees>-8.51877638138830661773681640625</LongitudeDegrees>
            </Position>
            <AltitudeMeters>300.399993896484375</AltitudeMeters>
            <DistanceMeters>98228.519302557</DistanceMeters>
          </Trackpoint>
          <Trackpoint>
            <Time>2019-07-26T15:54:39.000Z</Time>
            <Position>
              <LatitudeDegrees>42.8866682387888431549072265625</LatitudeDegrees>
              <LongitudeDegrees>-8.51891183294355869293212890625</LongitudeDegrees>
            </Position>
            <AltitudeMeters>300.79998779296875</AltitudeMeters>
            <DistanceMeters>98239.671083257</DistanceMeters>
          </Trackpoint>
          <Trackpoint>
            <Time>2019-07-26T15:54:45.000Z</Time>
            <Position>
              <LatitudeDegrees>42.8867044486105442047119140625</LatitudeDegrees>
              <LongitudeDegrees>-8.519290946424007415771484375</LongitudeDegrees>
            </Position>
            <AltitudeMeters>301.399993896484375</AltitudeMeters>
            <DistanceMeters>98270.849694345</DistanceMeters>
          </Trackpoint>
          <Trackpoint>
            <Time>2019-07-26T15:54:47.000Z</Time>
            <Position>
              <LatitudeDegrees>42.88671174086630344390869140625</LatitudeDegrees>
              <LongitudeDegrees>-8.51940083317458629608154296875</LongitudeDegrees>
            </Position>
            <AltitudeMeters>301.600006103515625</AltitudeMeters>
            <DistanceMeters>98279.847675529</DistanceMeters>
          </Trackpoint>
          <Trackpoint>
            <Time>2019-07-26T15:54:51.000Z</Time>
            <Position>
              <LatitudeDegrees>42.88673806004226207733154296875</LatitudeDegrees>
              <LongitudeDegrees>-8.519599400460720062255859375</LongitudeDegrees>
            </Position>
            <AltitudeMeters>301.79998779296875</AltitudeMeters>
            <DistanceMeters>98296.303767486</DistanceMeters>
          </Trackpoint>
          <Trackpoint>
            <Time>2019-07-26T15:54:54.000Z</Time>
            <Position>
              <LatitudeDegrees>42.8867574222385883331298828125</LatitudeDegrees>
              <LongitudeDegrees>-8.51978950202465057373046875</LongitudeDegrees>
            </Position>
            <AltitudeMeters>301.79998779296875</AltitudeMeters>
            <DistanceMeters>98311.955795275</DistanceMeters>
          </Trackpoint>
          <Trackpoint>
            <Time>2019-07-26T15:54:55.000Z</Time>
            <Position>
              <LatitudeDegrees>42.8867748565971851348876953125</LatitudeDegrees>
              <LongitudeDegrees>-8.51986996829509735107421875</LongitudeDegrees>
            </Position>
            <AltitudeMeters>301.79998779296875</AltitudeMeters>
            <DistanceMeters>98318.799038398</DistanceMeters>
          </Trackpoint>
          <Trackpoint>
            <Time>2019-07-26T15:55:01.000Z</Time>
            <Position>
              <LatitudeDegrees>42.88685322739183902740478515625</LatitudeDegrees>
              <LongitudeDegrees>-8.52032418362796306610107421875</LongitudeDegrees>
            </Position>
            <AltitudeMeters>301.600006103515625</AltitudeMeters>
            <DistanceMeters>98356.853885914</DistanceMeters>
          </Trackpoint>
          <Trackpoint>
            <Time>2019-07-26T15:55:04.000Z</Time>
            <Position>
              <LatitudeDegrees>42.88689731620252132415771484375</LatitudeDegrees>
              <LongitudeDegrees>-8.52057874202728271484375</LongitudeDegrees>
            </Position>
            <AltitudeMeters>301.600006103515625</AltitudeMeters>
            <DistanceMeters>98378.185425523</DistanceMeters>
          </Trackpoint>
          <Trackpoint>
            <Time>2019-07-26T15:55:06.000Z</Time>
            <Position>
              <LatitudeDegrees>42.8869237191975116729736328125</LatitudeDegrees>
              <LongitudeDegrees>-8.520748727023601531982421875</LongitudeDegrees>
            </Position>
            <AltitudeMeters>301.20001220703125</AltitudeMeters>
            <DistanceMeters>98392.356199671</DistanceMeters>
          </Trackpoint>
          <Trackpoint>
            <Time>2019-07-26T15:55:07.000Z</Time>
            <Position>
              <LatitudeDegrees>42.88693838752806186676025390625</LatitudeDegrees>
              <LongitudeDegrees>-8.520833551883697509765625</LongitudeDegrees>
            </Position>
            <AltitudeMeters>301</AltitudeMeters>
            <DistanceMeters>98399.463537262</DistanceMeters>
          </Trackpoint>
          <Trackpoint>
            <Time>2019-07-26T15:55:08.000Z</Time>
            <Position>
              <LatitudeDegrees>42.8869535587728023529052734375</LatitudeDegrees>
              <LongitudeDegrees>-8.5209180414676666259765625</LongitudeDegrees>
            </Position>
            <AltitudeMeters>301</AltitudeMeters>
            <DistanceMeters>98406.557521758</DistanceMeters>
          </Trackpoint>
          <Trackpoint>
            <Time>2019-07-26T15:55:11.000Z</Time>
            <Position>
              <LatitudeDegrees>42.88700762204825878143310546875</LatitudeDegrees>
              <LongitudeDegrees>-8.52116270922124385833740234375</LongitudeDegrees>
            </Position>
            <AltitudeMeters>300.600006103515625</AltitudeMeters>
            <DistanceMeters>98427.398073977</DistanceMeters>
          </Trackpoint>
          <Trackpoint>
            <Time>2019-07-26T15:55:13.000Z</Time>
            <Position>
              <LatitudeDegrees>42.8870568238198757171630859375</LatitudeDegrees>
              <LongitudeDegrees>-8.5213337838649749755859375</LongitudeDegrees>
            </Position>
            <AltitudeMeters>300.399993896484375</AltitudeMeters>
            <DistanceMeters>98442.385205839</DistanceMeters>
          </Trackpoint>
          <Trackpoint>
            <Time>2019-07-26T15:55:14.000Z</Time>
            <Position>
              <LatitudeDegrees>42.88707618601620197296142578125</LatitudeDegrees>
              <LongitudeDegrees>-8.521421961486339569091796875</LongitudeDegrees>
            </Position>
            <AltitudeMeters>300.20001220703125</AltitudeMeters>
            <DistanceMeters>98449.892917685</DistanceMeters>
          </Trackpoint>
          <Trackpoint>
            <Time>2019-07-26T15:55:18.000Z</Time>
            <Position>
              <LatitudeDegrees>42.887146510183811187744140625</LatitudeDegrees>
              <LongitudeDegrees>-8.52179721929132938385009765625</LongitudeDegrees>
            </Position>
            <AltitudeMeters>299.79998779296875</AltitudeMeters>
            <DistanceMeters>98481.48054654</DistanceMeters>
          </Trackpoint>
          <Trackpoint>
            <Time>2019-07-26T15:55:21.000Z</Time>
            <Position>
              <LatitudeDegrees>42.88719235919415950775146484375</LatitudeDegrees>
              <LongitudeDegrees>-8.52211003191769123077392578125</LongitudeDegrees>
            </Position>
            <AltitudeMeters>299.79998779296875</AltitudeMeters>
            <DistanceMeters>98507.496007895</DistanceMeters>
          </Trackpoint>
          <Trackpoint>
            <Time>2019-07-26T15:55:27.000Z</Time>
            <Position>
              <LatitudeDegrees>42.88729310967028141021728515625</LatitudeDegrees>
              <LongitudeDegrees>-8.52271713316440582275390625</LongitudeDegrees>
            </Position>
            <AltitudeMeters>299.399993896484375</AltitudeMeters>
            <DistanceMeters>98558.259310731</DistanceMeters>
          </Trackpoint>
          <Trackpoint>
            <Time>2019-07-26T15:55:32.000Z</Time>
            <Position>
              <LatitudeDegrees>42.88738933391869068145751953125</LatitudeDegrees>
              <LongitudeDegrees>-8.52315969765186309814453125</LongitudeDegrees>
            </Position>
            <AltitudeMeters>298.79998779296875</AltitudeMeters>
            <DistanceMeters>98595.906083872</DistanceMeters>
          </Trackpoint>
          <Trackpoint>
            <Time>2019-07-26T15:55:34.000Z</Time>
            <Position>
              <LatitudeDegrees>42.88742973469197750091552734375</LatitudeDegrees>
              <LongitudeDegrees>-8.52332507260143756866455078125</LongitudeDegrees>
            </Position>
            <AltitudeMeters>298.399993896484375</AltitudeMeters>
            <DistanceMeters>98610.122347125</DistanceMeters>
          </Trackpoint>
          <Trackpoint>
            <Time>2019-07-26T15:55:36.000Z</Time>
            <Position>
              <LatitudeDegrees>42.8874581493437290191650390625</LatitudeDegrees>
              <LongitudeDegrees>-8.52346152998507022857666015625</LongitudeDegrees>
            </Position>
            <AltitudeMeters>297.600006103515625</AltitudeMeters>
            <DistanceMeters>98621.691434948</DistanceMeters>
          </Trackpoint>
          <Trackpoint>
            <Time>2019-07-26T15:55:38.000Z</Time>
            <Position>
              <LatitudeDegrees>42.8874678723514080047607421875</LatitudeDegrees>
              <LongitudeDegrees>-8.52357678115367889404296875</LongitudeDegrees>
            </Position>
            <AltitudeMeters>297.399993896484375</AltitudeMeters>
            <DistanceMeters>98631.152202238</DistanceMeters>
          </Trackpoint>
          <Trackpoint>
            <Time>2019-07-26T15:55:41.000Z</Time>
            <Position>
              <LatitudeDegrees>42.88739268667995929718017578125</LatitudeDegrees>
              <LongitudeDegrees>-8.52378867566585540771484375</LongitudeDegrees>
            </Position>
            <AltitudeMeters>297.20001220703125</AltitudeMeters>
            <DistanceMeters>98650.351831938</DistanceMeters>
          </Trackpoint>
          <Trackpoint>
            <Time>2019-07-26T15:55:45.000Z</Time>
            <Position>
              <LatitudeDegrees>42.887333929538726806640625</LatitudeDegrees>
              <LongitudeDegrees>-8.524155803024768829345703125</LongitudeDegrees>
            </Position>
            <AltitudeMeters>297</AltitudeMeters>
            <DistanceMeters>98680.997026507</DistanceMeters>
          </Trackpoint>
          <Trackpoint>
            <Time>2019-07-26T15:55:46.000Z</Time>
            <Position>
              <LatitudeDegrees>42.887332253158092498779296875</LatitudeDegrees>
              <LongitudeDegrees>-8.524244986474514007568359375</LongitudeDegrees>
            </Position>
            <AltitudeMeters>297</AltitudeMeters>
            <DistanceMeters>98688.27200266</DistanceMeters>
          </Trackpoint>
          <Trackpoint>
            <Time>2019-07-26T15:55:49.000Z</Time>
            <Position>
              <LatitudeDegrees>42.88734122179448604583740234375</LatitudeDegrees>
              <LongitudeDegrees>-8.52451178245246410369873046875</LongitudeDegrees>
            </Position>
            <AltitudeMeters>296.600006103515625</AltitudeMeters>
            <DistanceMeters>98710.051992921</DistanceMeters>
          </Trackpoint>
          <Trackpoint>
            <Time>2019-07-26T15:55:50.000Z</Time>
            <Position>
              <LatitudeDegrees>42.8873397968709468841552734375</LatitudeDegrees>
              <LongitudeDegrees>-8.52459610439836978912353515625</LongitudeDegrees>
            </Position>
            <AltitudeMeters>296.399993896484375</AltitudeMeters>
            <DistanceMeters>98716.93011552</DistanceMeters>
          </Trackpoint>
          <Trackpoint>
            <Time>2019-07-26T15:55:54.000Z</Time>
            <Position>
              <LatitudeDegrees>42.88731356151401996612548828125</LatitudeDegrees>
              <LongitudeDegrees>-8.52492450736463069915771484375</LongitudeDegrees>
            </Position>
            <AltitudeMeters>295.600006103515625</AltitudeMeters>
            <DistanceMeters>98743.870314741</DistanceMeters>
          </Trackpoint>
          <Trackpoint>
            <Time>2019-07-26T15:55:55.000Z</Time>
            <Position>
              <LatitudeDegrees>42.88730568252503871917724609375</LatitudeDegrees>
              <LongitudeDegrees>-8.52500497363507747650146484375</LongitudeDegrees>
            </Position>
            <AltitudeMeters>295.399993896484375</AltitudeMeters>
            <DistanceMeters>98750.491569994</DistanceMeters>
          </Trackpoint>
          <Trackpoint>
            <Time>2019-07-26T15:55:57.000Z</Time>
            <Position>
              <LatitudeDegrees>42.88728824816644191741943359375</LatitudeDegrees>
              <LongitudeDegrees>-8.52517646737396717071533203125</LongitudeDegrees>
            </Position>
            <AltitudeMeters>295</AltitudeMeters>
            <DistanceMeters>98764.611273523</DistanceMeters>
          </Trackpoint>
          <Trackpoint>
            <Time>2019-07-26T15:55:59.000Z</Time>
            <Position>
              <LatitudeDegrees>42.8872601687908172607421875</LatitudeDegrees>
              <LongitudeDegrees>-8.5253435187041759490966796875</LongitudeDegrees>
            </Position>
            <AltitudeMeters>294.79998779296875</AltitudeMeters>
            <DistanceMeters>98778.587955665</DistanceMeters>
          </Trackpoint>
          <Trackpoint>
            <Time>2019-07-26T15:56:00.000Z</Time>
            <Position>
              <LatitudeDegrees>42.88724097423255443572998046875</LatitudeDegrees>
              <LongitudeDegrees>-8.5254122503101825714111328125</LongitudeDegrees>
            </Position>
            <AltitudeMeters>294.600006103515625</AltitudeMeters>
            <DistanceMeters>98784.585940706</DistanceMeters>
          </Trackpoint>
          <Trackpoint>
            <Time>2019-07-26T15:56:01.000Z</Time>
            <Position>
              <LatitudeDegrees>42.88722052238881587982177734375</LatitudeDegrees>
              <LongitudeDegrees>-8.5254850052297115325927734375</LongitudeDegrees>
            </Position>
            <AltitudeMeters>294.600006103515625</AltitudeMeters>
            <DistanceMeters>98790.942084349</DistanceMeters>
          </Trackpoint>
          <Trackpoint>
            <Time>2019-07-26T15:56:06.000Z</Time>
            <Position>
              <LatitudeDegrees>42.8871394693851470947265625</LatitudeDegrees>
              <LongitudeDegrees>-8.525812067091464996337890625</LongitudeDegrees>
            </Position>
            <AltitudeMeters>294</AltitudeMeters>
            <DistanceMeters>98819.098549527</DistanceMeters>
          </Trackpoint>
          <Trackpoint>
            <Time>2019-07-26T15:56:09.000Z</Time>
            <Position>
              <LatitudeDegrees>42.8870883397758007049560546875</LatitudeDegrees>
              <LongitudeDegrees>-8.52601264603435993194580078125</LongitudeDegrees>
            </Position>
            <AltitudeMeters>293.600006103515625</AltitudeMeters>
            <DistanceMeters>98836.41741263</DistanceMeters>
          </Trackpoint>
          <Trackpoint>
            <Time>2019-07-26T15:56:12.000Z</Time>
            <Position>
              <LatitudeDegrees>42.887034527957439422607421875</LatitudeDegrees>
              <LongitudeDegrees>-8.52620542980730533599853515625</LongitudeDegrees>
            </Position>
            <AltitudeMeters>293.600006103515625</AltitudeMeters>
            <DistanceMeters>98853.241167147</DistanceMeters>
          </Trackpoint>
          <Trackpoint>
            <Time>2019-07-26T15:56:15.000Z</Time>
            <Position>
              <LatitudeDegrees>42.88697409443557262420654296875</LatitudeDegrees>
              <LongitudeDegrees>-8.52639921940863132476806640625</LongitudeDegrees>
            </Position>
            <AltitudeMeters>293.399993896484375</AltitudeMeters>
            <DistanceMeters>98870.416572158</DistanceMeters>
          </Trackpoint>
          <Trackpoint>
            <Time>2019-07-26T15:56:17.000Z</Time>
            <Position>
              <LatitudeDegrees>42.8869280777871608734130859375</LatitudeDegrees>
              <LongitudeDegrees>-8.5265337489545345306396484375</LongitudeDegrees>
            </Position>
            <AltitudeMeters>293.399993896484375</AltitudeMeters>
            <DistanceMeters>98882.524183854</DistanceMeters>
          </Trackpoint>
          <Trackpoint>
            <Time>2019-07-26T15:56:18.000Z</Time>
            <Position>
              <LatitudeDegrees>42.88689698092639446258544921875</LatitudeDegrees>
              <LongitudeDegrees>-8.5265991277992725372314453125</LongitudeDegrees>
            </Position>
            <AltitudeMeters>293.399993896484375</AltitudeMeters>
            <DistanceMeters>98888.880327497</DistanceMeters>
          </Trackpoint>
          <Trackpoint>
            <Time>2019-07-26T15:56:21.000Z</Time>
            <Position>
              <LatitudeDegrees>42.8867912851274013519287109375</LatitudeDegrees>
              <LongitudeDegrees>-8.526788391172885894775390625</LongitudeDegrees>
            </Position>
            <AltitudeMeters>293.399993896484375</AltitudeMeters>
            <DistanceMeters>98908.286960339</DistanceMeters>
          </Trackpoint>
          <Trackpoint>
            <Time>2019-07-26T15:56:24.000Z</Time>
            <Position>
              <LatitudeDegrees>42.8866950608789920806884765625</LatitudeDegrees>
              <LongitudeDegrees>-8.52697840891778469085693359375</LongitudeDegrees>
            </Position>
            <AltitudeMeters>293.600006103515625</AltitudeMeters>
            <DistanceMeters>98927.123834384</DistanceMeters>
          </Trackpoint>
          <Trackpoint>
            <Time>2019-07-26T15:56:32.000Z</Time>
            <Position>
              <LatitudeDegrees>42.886436395347118377685546875</LatitudeDegrees>
              <LongitudeDegrees>-8.52746355347335338592529296875</LongitudeDegrees>
            </Position>
            <AltitudeMeters>293.79998779296875</AltitudeMeters>
            <DistanceMeters>98976.054288275</DistanceMeters>
          </Trackpoint>
          <Trackpoint>
            <Time>2019-07-26T15:56:37.000Z</Time>
            <Position>
              <LatitudeDegrees>42.88628627546131610870361328125</LatitudeDegrees>
              <LongitudeDegrees>-8.52778525091707706451416015625</LongitudeDegrees>
            </Position>
            <AltitudeMeters>293.600006103515625</AltitudeMeters>
            <DistanceMeters>99007.158231754</DistanceMeters>
          </Trackpoint>
          <Trackpoint>
            <Time>2019-07-26T15:56:39.000Z</Time>
            <Position>
              <LatitudeDegrees>42.8862488083541393280029296875</LatitudeDegrees>
              <LongitudeDegrees>-8.52792355231940746307373046875</LongitudeDegrees>
            </Position>
            <AltitudeMeters>293.600006103515625</AltitudeMeters>
            <DistanceMeters>99019.18314814</DistanceMeters>
          </Trackpoint>
          <Trackpoint>
            <Time>2019-07-26T15:56:43.000Z</Time>
            <Position>
              <LatitudeDegrees>42.88620865903794765472412109375</LatitudeDegrees>
              <LongitudeDegrees>-8.5282362811267375946044921875</LongitudeDegrees>
            </Position>
            <AltitudeMeters>293.399993896484375</AltitudeMeters>
            <DistanceMeters>99045.075268665</DistanceMeters>
          </Trackpoint>
          <Trackpoint>
            <Time>2019-07-26T15:56:44.000Z</Time>
            <Position>
              <LatitudeDegrees>42.8861995227634906768798828125</LatitudeDegrees>
              <LongitudeDegrees>-8.5283211059868335723876953125</LongitudeDegrees>
            </Position>
            <AltitudeMeters>293.399993896484375</AltitudeMeters>
            <DistanceMeters>99052.067323719</DistanceMeters>
          </Trackpoint>
          <Trackpoint>
            <Time>2019-07-26T15:56:46.000Z</Time>
            <Position>
              <LatitudeDegrees>42.8861871175467967987060546875</LatitudeDegrees>
              <LongitudeDegrees>-8.52850542403757572174072265625</LongitudeDegrees>
            </Position>
            <AltitudeMeters>293.20001220703125</AltitudeMeters>
            <DistanceMeters>99067.16192172</DistanceMeters>
          </Trackpoint>
          <Trackpoint>
            <Time>2019-07-26T15:56:50.000Z</Time>
            <Position>
              <LatitudeDegrees>42.88616716861724853515625</LatitudeDegrees>
              <LongitudeDegrees>-8.52889652363955974578857421875</LongitudeDegrees>
            </Position>
            <AltitudeMeters>292.399993896484375</AltitudeMeters>
            <DistanceMeters>99099.13413956</DistanceMeters>
          </Trackpoint>
          <Trackpoint>
            <Time>2019-07-26T15:56:51.000Z</Time>
            <Position>
              <LatitudeDegrees>42.88616037927567958831787109375</LatitudeDegrees>
              <LongitudeDegrees>-8.52899258024990558624267578125</LongitudeDegrees>
            </Position>
            <AltitudeMeters>292.20001220703125</AltitudeMeters>
            <DistanceMeters>99107.004738293</DistanceMeters>
          </Trackpoint>
          <Trackpoint>
            <Time>2019-07-26T15:56:55.000Z</Time>
            <Position>
              <LatitudeDegrees>42.88614260964095592498779296875</LatitudeDegrees>
              <LongitudeDegrees>-8.5294181294739246368408203125</LongitudeDegrees>
            </Position>
            <AltitudeMeters>290.79998779296875</AltitudeMeters>
            <DistanceMeters>99141.765297391</DistanceMeters>
          </Trackpoint>
          <Trackpoint>
            <Time>2019-07-26T15:56:56.000Z</Time>
            <Position>
              <LatitudeDegrees>42.88613037206232547760009765625</LatitudeDegrees>
              <LongitudeDegrees>-8.5295247472822666168212890625</LongitudeDegrees>
            </Position>
            <AltitudeMeters>290.600006103515625</AltitudeMeters>
            <DistanceMeters>99150.565920418</DistanceMeters>
          </Trackpoint>
          <Trackpoint>
            <Time>2019-07-26T15:56:59.000Z</Time>
            <Position>
              <LatitudeDegrees>42.886078320443630218505859375</LatitudeDegrees>
              <LongitudeDegrees>-8.5298288427293300628662109375</LongitudeDegrees>
            </Position>
            <AltitudeMeters>289.600006103515625</AltitudeMeters>
            <DistanceMeters>99176.033079869</DistanceMeters>
          </Trackpoint>
          <Trackpoint>
            <Time>2019-07-26T15:57:01.000Z</Time>
            <Position>
              <LatitudeDegrees>42.8860385902225971221923828125</LatitudeDegrees>
              <LongitudeDegrees>-8.53001232258975505828857421875</LongitudeDegrees>
            </Position>
            <AltitudeMeters>289</AltitudeMeters>
            <DistanceMeters>99191.635991806</DistanceMeters>
          </Trackpoint>
          <Trackpoint>
            <Time>2019-07-26T15:57:03.000Z</Time>
            <Position>
              <LatitudeDegrees>42.88598955608904361724853515625</LatitudeDegrees>
              <LongitudeDegrees>-8.53019689209759235382080078125</LongitudeDegrees>
            </Position>
            <AltitudeMeters>288.399993896484375</AltitudeMeters>
            <DistanceMeters>99207.646794725</DistanceMeters>
          </Trackpoint>
          <Trackpoint>
            <Time>2019-07-26T15:57:05.000Z</Time>
            <Position>
              <LatitudeDegrees>42.88593138568103313446044921875</LatitudeDegrees>
              <LongitudeDegrees>-8.53035883046686649322509765625</LongitudeDegrees>
            </Position>
            <AltitudeMeters>288</AltitudeMeters>
            <DistanceMeters>99222.355076112</DistanceMeters>
          </Trackpoint>
          <Trackpoint>
            <Time>2019-07-26T15:57:06.000Z</Time>
            <Position>
              <LatitudeDegrees>42.88589467294514179229736328125</LatitudeDegrees>
              <LongitudeDegrees>-8.5304318368434906005859375</LongitudeDegrees>
            </Position>
            <AltitudeMeters>287.79998779296875</AltitudeMeters>
            <DistanceMeters>99229.576481201</DistanceMeters>
          </Trackpoint>
          <Trackpoint>
            <Time>2019-07-26T15:57:09.000Z</Time>
            <Position>
              <LatitudeDegrees>42.885776571929454803466796875</LatitudeDegrees>
              <LongitudeDegrees>-8.5306378640234470367431640625</LongitudeDegrees>
            </Position>
            <AltitudeMeters>287.399993896484375</AltitudeMeters>
            <DistanceMeters>99250.90950238</DistanceMeters>
          </Trackpoint>
          <Trackpoint>
            <Time>2019-07-26T15:57:13.000Z</Time>
            <Position>
              <LatitudeDegrees>42.885606586933135986328125</LatitudeDegrees>
              <LongitudeDegrees>-8.53086794726550579071044921875</LongitudeDegrees>
            </Position>
            <AltitudeMeters>286.600006103515625</AltitudeMeters>
            <DistanceMeters>99277.556152092</DistanceMeters>
          </Trackpoint>
          <Trackpoint>
            <Time>2019-07-26T15:57:15.000Z</Time>
            <Position>
              <LatitudeDegrees>42.88552788086235523223876953125</LatitudeDegrees>
              <LongitudeDegrees>-8.53095545433461666107177734375</LongitudeDegrees>
            </Position>
            <AltitudeMeters>286.399993896484375</AltitudeMeters>
            <DistanceMeters>99288.855144116</DistanceMeters>
          </Trackpoint>
          <Trackpoint>
            <Time>2019-07-26T15:57:20.000Z</Time>
            <Position>
              <LatitudeDegrees>42.885343730449676513671875</LatitudeDegrees>
              <LongitudeDegrees>-8.53119014762341976165771484375</LongitudeDegrees>
            </Position>
            <AltitudeMeters>286</AltitudeMeters>
            <DistanceMeters>99316.898491946</DistanceMeters>
          </Trackpoint>
          <Trackpoint>
            <Time>2019-07-26T15:57:23.000Z</Time>
            <Position>
              <LatitudeDegrees>42.88526368327438831329345703125</LatitudeDegrees>
              <LongitudeDegrees>-8.53137203492224216461181640625</LongitudeDegrees>
            </Position>
            <AltitudeMeters>285.79998779296875</AltitudeMeters>
            <DistanceMeters>99334.201966876</DistanceMeters>
          </Trackpoint>
          <Trackpoint>
            <Time>2019-07-26T15:57:27.000Z</Time>
            <Position>
              <LatitudeDegrees>42.88515605963766574859619140625</LatitudeDegrees>
              <LongitudeDegrees>-8.53161611594259738922119140625</LongitudeDegrees>
            </Position>
            <AltitudeMeters>285.79998779296875</AltitudeMeters>
            <DistanceMeters>99357.433812239</DistanceMeters>
          </Trackpoint>
          <Trackpoint>
            <Time>2019-07-26T15:57:29.000Z</Time>
            <Position>
              <LatitudeDegrees>42.885114066302776336669921875</LatitudeDegrees>
              <LongitudeDegrees>-8.5317442752420902252197265625</LongitudeDegrees>
            </Position>
            <AltitudeMeters>285.79998779296875</AltitudeMeters>
            <DistanceMeters>99368.882855416</DistanceMeters>
          </Trackpoint>
          <Trackpoint>
            <Time>2019-07-26T15:57:31.000Z</Time>
            <Position>
              <LatitudeDegrees>42.8850864060223102569580078125</LatitudeDegrees>
              <LongitudeDegrees>-8.531873859465122222900390625</LongitudeDegrees>
            </Position>
            <AltitudeMeters>285.600006103515625</AltitudeMeters>
            <DistanceMeters>99379.890378558</DistanceMeters>
          </Trackpoint>
          <Trackpoint>
            <Time>2019-07-26T15:57:32.000Z</Time>
            <Position>
              <LatitudeDegrees>42.885082550346851348876953125</LatitudeDegrees>
              <LongitudeDegrees>-8.53194334544241428375244140625</LongitudeDegrees>
            </Position>
            <AltitudeMeters>285.399993896484375</AltitudeMeters>
            <DistanceMeters>99385.573738783</DistanceMeters>
          </Trackpoint>
          <Trackpoint>
            <Time>2019-07-26T15:57:33.000Z</Time>
            <Position>
              <LatitudeDegrees>42.8850894235074520111083984375</LatitudeDegrees>
              <LongitudeDegrees>-8.53201559744775295257568359375</LongitudeDegrees>
            </Position>
            <AltitudeMeters>285.399993896484375</AltitudeMeters>
            <DistanceMeters>99391.515758548</DistanceMeters>
          </Trackpoint>
          <Trackpoint>
            <Time>2019-07-26T15:57:35.000Z</Time>
            <Position>
              <LatitudeDegrees>42.88514055311679840087890625</LatitudeDegrees>
              <LongitudeDegrees>-8.5321576707065105438232421875</LongitudeDegrees>
            </Position>
            <AltitudeMeters>285</AltitudeMeters>
            <DistanceMeters>99404.424710121</DistanceMeters>
          </Trackpoint>
          <Trackpoint>
            <Time>2019-07-26T15:57:38.000Z</Time>
            <Position>
              <LatitudeDegrees>42.885232083499431610107421875</LatitudeDegrees>
              <LongitudeDegrees>-8.5323898494243621826171875</LongitudeDegrees>
            </Position>
            <AltitudeMeters>284.600006103515625</AltitudeMeters>
            <DistanceMeters>99425.926171087</DistanceMeters>
          </Trackpoint>
          <Trackpoint>
            <Time>2019-07-26T15:57:39.000Z</Time>
            <Position>
              <LatitudeDegrees>42.88526066578924655914306640625</LatitudeDegrees>
              <LongitudeDegrees>-8.53247576393187046051025390625</LongitudeDegrees>
            </Position>
            <AltitudeMeters>284.20001220703125</AltitudeMeters>
            <DistanceMeters>99433.620401469</DistanceMeters>
          </Trackpoint>
          <Trackpoint>
            <Time>2019-07-26T15:57:40.000Z</Time>
            <Position>
              <LatitudeDegrees>42.88528941571712493896484375</LatitudeDegrees>
              <LongitudeDegrees>-8.532564528286457061767578125</LongitudeDegrees>
            </Position>
            <AltitudeMeters>284</AltitudeMeters>
            <DistanceMeters>99441.535619114</DistanceMeters>
          </Trackpoint>
          <Trackpoint>
            <Time>2019-07-26T15:57:41.000Z</Time>
            <Position>
              <LatitudeDegrees>42.8853113763034343719482421875</LatitudeDegrees>
              <LongitudeDegrees>-8.53265815414488315582275390625</LongitudeDegrees>
            </Position>
            <AltitudeMeters>283.79998779296875</AltitudeMeters>
            <DistanceMeters>99449.552855803</DistanceMeters>
          </Trackpoint>
          <Trackpoint>
            <Time>2019-07-26T15:57:43.000Z</Time>
            <Position>
              <LatitudeDegrees>42.8853271342813968658447265625</LatitudeDegrees>
              <LongitudeDegrees>-8.5328458249568939208984375</LongitudeDegrees>
            </Position>
            <AltitudeMeters>283.399993896484375</AltitudeMeters>
            <DistanceMeters>99464.958324608</DistanceMeters>
          </Trackpoint>
          <Trackpoint>
            <Time>2019-07-26T15:57:44.000Z</Time>
            <Position>
              <LatitudeDegrees>42.88531296886503696441650390625</LatitudeDegrees>
              <LongitudeDegrees>-8.5329358465969562530517578125</LongitudeDegrees>
            </Position>
            <AltitudeMeters>283.20001220703125</AltitudeMeters>
            <DistanceMeters>99472.467239131</DistanceMeters>
          </Trackpoint>
          <Trackpoint>
            <Time>2019-07-26T15:57:46.000Z</Time>
            <Position>
              <LatitudeDegrees>42.885244823992252349853515625</LatitudeDegrees>
              <LongitudeDegrees>-8.53308965452015399932861328125</LongitudeDegrees>
            </Position>
            <AltitudeMeters>282.600006103515625</AltitudeMeters>
            <DistanceMeters>99487.125398596</DistanceMeters>
          </Trackpoint>
          <Trackpoint>
            <Time>2019-07-26T15:57:48.000Z</Time>
            <Position>
              <LatitudeDegrees>42.88515798747539520263671875</LatitudeDegrees>
              <LongitudeDegrees>-8.53318705223500728607177734375</LongitudeDegrees>
            </Position>
            <AltitudeMeters>282.399993896484375</AltitudeMeters>
            <DistanceMeters>99499.635765694</DistanceMeters>
          </Trackpoint>
          <Trackpoint>
            <Time>2019-07-26T15:57:49.000Z</Time>
            <Position>
              <LatitudeDegrees>42.8851222805678844451904296875</LatitudeDegrees>
              <LongitudeDegrees>-8.53322125039994716644287109375</LongitudeDegrees>
            </Position>
            <AltitudeMeters>281.79998779296875</AltitudeMeters>
            <DistanceMeters>99504.490505597</DistanceMeters>
          </Trackpoint>
          <Trackpoint>
            <Time>2019-07-26T15:57:53.000Z</Time>
            <Position>
              <LatitudeDegrees>42.88503167219460010528564453125</LatitudeDegrees>
              <LongitudeDegrees>-8.53332803584635257720947265625</LongitudeDegrees>
            </Position>
            <AltitudeMeters>280.79998779296875</AltitudeMeters>
            <DistanceMeters>99517.815270624</DistanceMeters>
          </Trackpoint>
          <Trackpoint>
            <Time>2019-07-26T15:57:55.000Z</Time>
            <Position>
              <LatitudeDegrees>42.88502228446304798126220703125</LatitudeDegrees>
              <LongitudeDegrees>-8.53333557955920696258544921875</LongitudeDegrees>
            </Position>
            <AltitudeMeters>280.20001220703125</AltitudeMeters>
            <DistanceMeters>99519.028490497</DistanceMeters>
          </Trackpoint>
          <Trackpoint>
            <Time>2019-07-26T15:59:12.000Z</Time>
            <Position>
              <LatitudeDegrees>42.88506419397890567779541015625</LatitudeDegrees>
              <LongitudeDegrees>-8.53340833447873592376708984375</LongitudeDegrees>
            </Position>
            <AltitudeMeters>280</AltitudeMeters>
            <DistanceMeters>99526.575789498</DistanceMeters>
          </Trackpoint>
          <Trackpoint>
            <Time>2019-07-26T15:59:14.000Z</Time>
            <Position>
              <LatitudeDegrees>42.88512856699526309967041015625</LatitudeDegrees>
              <LongitudeDegrees>-8.53339358232915401458740234375</LongitudeDegrees>
            </Position>
            <AltitudeMeters>280</AltitudeMeters>
            <DistanceMeters>99533.8414503</DistanceMeters>
          </Trackpoint>
          <Trackpoint>
            <Time>2019-07-26T15:59:16.000Z</Time>
            <Position>
              <LatitudeDegrees>42.8851921856403350830078125</LatitudeDegrees>
              <LongitudeDegrees>-8.53337564505636692047119140625</LongitudeDegrees>
            </Position>
            <AltitudeMeters>280.20001220703125</AltitudeMeters>
            <DistanceMeters>99541.072227756</DistanceMeters>
          </Trackpoint>
          <Trackpoint>
            <Time>2019-07-26T15:59:17.000Z</Time>
            <Position>
              <LatitudeDegrees>42.88522261194884777069091796875</LatitudeDegrees>
              <LongitudeDegrees>-8.53336122818291187286376953125</LongitudeDegrees>
            </Position>
            <AltitudeMeters>280.20001220703125</AltitudeMeters>
            <DistanceMeters>99544.658148677</DistanceMeters>
          </Trackpoint>
          <Trackpoint>
            <Time>2019-07-26T15:59:19.000Z</Time>
            <Position>
              <LatitudeDegrees>42.88528296165168285369873046875</LatitudeDegrees>
              <LongitudeDegrees>-8.5333264432847499847412109375</LongitudeDegrees>
            </Position>
            <AltitudeMeters>280.399993896484375</AltitudeMeters>
            <DistanceMeters>99551.949243247</DistanceMeters>
          </Trackpoint>
          <Trackpoint>
            <Time>2019-07-26T15:59:22.000Z</Time>
            <Position>
              <LatitudeDegrees>42.885370887815952301025390625</LatitudeDegrees>
              <LongitudeDegrees>-8.533269278705120086669921875</LongitudeDegrees>
            </Position>
            <AltitudeMeters>281</AltitudeMeters>
            <DistanceMeters>99562.788955175</DistanceMeters>
          </Trackpoint>
          <Trackpoint>
            <Time>2019-07-26T15:59:25.000Z</Time>
            <Position>
              <LatitudeDegrees>42.8854565508663654327392578125</LatitudeDegrees>
              <LongitudeDegrees>-8.5332159698009490966796875</LongitudeDegrees>
            </Position>
            <AltitudeMeters>281.79998779296875</AltitudeMeters>
            <DistanceMeters>99573.267778084</DistanceMeters>
          </Trackpoint>
          <Trackpoint>
            <Time>2019-07-26T15:59:29.000Z</Time>
            <Position>
              <LatitudeDegrees>42.88557909429073333740234375</LatitudeDegrees>
              <LongitudeDegrees>-8.53314287960529327392578125</LongitudeDegrees>
            </Position>
            <AltitudeMeters>283</AltitudeMeters>
            <DistanceMeters>99588.153038771</DistanceMeters>
          </Trackpoint>
          <Trackpoint>
            <Time>2019-07-26T15:59:32.000Z</Time>
            <Position>
              <LatitudeDegrees>42.8856744803488254547119140625</LatitudeDegrees>
              <LongitudeDegrees>-8.53308093734085559844970703125</LongitudeDegrees>
            </Position>
            <AltitudeMeters>283.79998779296875</AltitudeMeters>
            <DistanceMeters>99599.910266769</DistanceMeters>
          </Trackpoint>
          <Trackpoint>
            <Time>2019-07-26T15:59:33.000Z</Time>
            <Position>
              <LatitudeDegrees>42.8857071697711944580078125</LatitudeDegrees>
              <LongitudeDegrees>-8.53306048549711704254150390625</LongitudeDegrees>
            </Position>
            <AltitudeMeters>284</AltitudeMeters>
            <DistanceMeters>99603.912685489</DistanceMeters>
          </Trackpoint>
          <Trackpoint>
            <Time>2019-07-26T15:59:37.000Z</Time>
            <Position>
              <LatitudeDegrees>42.88583449088037014007568359375</LatitudeDegrees>
              <LongitudeDegrees>-8.53299275971949100494384765625</LongitudeDegrees>
            </Position>
            <AltitudeMeters>285</AltitudeMeters>
            <DistanceMeters>99619.121710382</DistanceMeters>
          </Trackpoint>
          <Trackpoint>
            <Time>2019-07-26T15:59:38.000Z</Time>
            <Position>
              <LatitudeDegrees>42.88586650975048542022705078125</LatitudeDegrees>
              <LongitudeDegrees>-8.53297985158860683441162109375</LongitudeDegrees>
            </Position>
            <AltitudeMeters>285.20001220703125</AltitudeMeters>
            <DistanceMeters>99622.836270492</DistanceMeters>
          </Trackpoint>
          <Trackpoint>
            <Time>2019-07-26T15:59:42.000Z</Time>
            <Position>
              <LatitudeDegrees>42.8859856165945529937744140625</LatitudeDegrees>
              <LongitudeDegrees>-8.53291623294353485107421875</LongitudeDegrees>
            </Position>
            <AltitudeMeters>286.20001220703125</AltitudeMeters>
            <DistanceMeters>99637.071893961</DistanceMeters>
          </Trackpoint>
          <Trackpoint>
            <Time>2019-07-26T15:59:46.000Z</Time>
            <Position>
              <LatitudeDegrees>42.8861041367053985595703125</LatitudeDegrees>
              <LongitudeDegrees>-8.5328480042517185211181640625</LongitudeDegrees>
            </Position>
            <AltitudeMeters>287.20001220703125</AltitudeMeters>
            <DistanceMeters>99651.389112101</DistanceMeters>
          </Trackpoint>
          <Trackpoint>
            <Time>2019-07-26T15:59:51.000Z</Time>
            <Position>
              <LatitudeDegrees>42.8862585313618183135986328125</LatitudeDegrees>
              <LongitudeDegrees>-8.53277130983769893646240234375</LongitudeDegrees>
            </Position>
            <AltitudeMeters>288.399993896484375</AltitudeMeters>
            <DistanceMeters>99669.676508884</DistanceMeters>
          </Trackpoint>
          <Trackpoint>
            <Time>2019-07-26T15:59:54.000Z</Time>
            <Position>
              <LatitudeDegrees>42.8863527439534664154052734375</LatitudeDegrees>
              <LongitudeDegrees>-8.532730825245380401611328125</LongitudeDegrees>
            </Position>
            <AltitudeMeters>289</AltitudeMeters>
            <DistanceMeters>99680.670077146</DistanceMeters>
          </Trackpoint>
          <Trackpoint>
            <Time>2019-07-26T15:59:56.000Z</Time>
            <Position>
              <LatitudeDegrees>42.886416278779506683349609375</LatitudeDegrees>
              <LongitudeDegrees>-8.53270324878394603729248046875</LongitudeDegrees>
            </Position>
            <AltitudeMeters>289.399993896484375</AltitudeMeters>
            <DistanceMeters>99688.090684005</DistanceMeters>
          </Trackpoint>
          <Trackpoint>
            <Time>2019-07-26T16:00:01.000Z</Time>
            <Position>
              <LatitudeDegrees>42.886564470827579498291015625</LatitudeDegrees>
              <LongitudeDegrees>-8.532647006213665008544921875</LongitudeDegrees>
            </Position>
            <AltitudeMeters>290.600006103515625</AltitudeMeters>
            <DistanceMeters>99705.210531876</DistanceMeters>
          </Trackpoint>
          <Trackpoint>
            <Time>2019-07-26T16:00:02.000Z</Time>
            <Position>
              <LatitudeDegrees>42.88660294376313686370849609375</LatitudeDegrees>
              <LongitudeDegrees>-8.53264323435723781585693359375</LongitudeDegrees>
            </Position>
            <AltitudeMeters>290.79998779296875</AltitudeMeters>
            <DistanceMeters>99709.504645999</DistanceMeters>
          </Trackpoint>
          <Trackpoint>
            <Time>2019-07-26T16:00:07.000Z</Time>
            <Position>
              <LatitudeDegrees>42.88680830039083957672119140625</LatitudeDegrees>
              <LongitudeDegrees>-8.53262345306575298309326171875</LongitudeDegrees>
            </Position>
            <AltitudeMeters>291.600006103515625</AltitudeMeters>
            <DistanceMeters>99732.418107209</DistanceMeters>
          </Trackpoint>
          <Trackpoint>
            <Time>2019-07-26T16:00:09.000Z</Time>
            <Position>
              <LatitudeDegrees>42.88688742555677890777587890625</LatitudeDegrees>
              <LongitudeDegrees>-8.53261674754321575164794921875</LongitudeDegrees>
            </Position>
            <AltitudeMeters>292</AltitudeMeters>
            <DistanceMeters>99741.241786662</DistanceMeters>
          </Trackpoint>
          <Trackpoint>
            <Time>2019-07-26T16:00:13.000Z</Time>
            <Position>
              <LatitudeDegrees>42.88703762926161289215087890625</LatitudeDegrees>
              <LongitudeDegrees>-8.5325856506824493408203125</LongitudeDegrees>
            </Position>
            <AltitudeMeters>292.600006103515625</AltitudeMeters>
            <DistanceMeters>99758.151202398</DistanceMeters>
          </Trackpoint>
          <Trackpoint>
            <Time>2019-07-26T16:00:16.000Z</Time>
            <Position>
              <LatitudeDegrees>42.887125723063945770263671875</LatitudeDegrees>
              <LongitudeDegrees>-8.532592356204986572265625</LongitudeDegrees>
            </Position>
            <AltitudeMeters>293</AltitudeMeters>
            <DistanceMeters>99767.971191519</DistanceMeters>
          </Trackpoint>
          <Trackpoint>
            <Time>2019-07-26T16:00:21.000Z</Time>
            <Position>
              <LatitudeDegrees>42.887308783829212188720703125</LatitudeDegrees>
              <LongitudeDegrees>-8.53260216303169727325439453125</LongitudeDegrees>
            </Position>
            <AltitudeMeters>293.79998779296875</AltitudeMeters>
            <DistanceMeters>99788.361896259</DistanceMeters>
          </Trackpoint>
          <Trackpoint>
            <Time>2019-07-26T16:00:23.000Z</Time>
            <Position>
              <LatitudeDegrees>42.8873870708048343658447265625</LatitudeDegrees>
              <LongitudeDegrees>-8.532600067555904388427734375</LongitudeDegrees>
            </Position>
            <AltitudeMeters>294</AltitudeMeters>
            <DistanceMeters>99797.077457231</DistanceMeters>
          </Trackpoint>
          <Trackpoint>
            <Time>2019-07-26T16:00:26.000Z</Time>
            <Position>
              <LatitudeDegrees>42.88750433363020420074462890625</LatitudeDegrees>
              <LongitudeDegrees>-8.53259059600532054901123046875</LongitudeDegrees>
            </Position>
            <AltitudeMeters>294.79998779296875</AltitudeMeters>
            <DistanceMeters>99810.151834733</DistanceMeters>
          </Trackpoint>
          <Trackpoint>
            <Time>2019-07-26T16:00:30.000Z</Time>
            <Position>
              <LatitudeDegrees>42.88766442798078060150146484375</LatitudeDegrees>
              <LongitudeDegrees>-8.53256796486675739288330078125</LongitudeDegrees>
            </Position>
            <AltitudeMeters>296</AltitudeMeters>
            <DistanceMeters>99828.06581968</DistanceMeters>
          </Trackpoint>
          <Trackpoint>
            <Time>2019-07-26T16:00:35.000Z</Time>
            <Position>
              <LatitudeDegrees>42.887843213975429534912109375</LatitudeDegrees>
              <LongitudeDegrees>-8.53253024630248546600341796875</LongitudeDegrees>
            </Position>
            <AltitudeMeters>297.20001220703125</AltitudeMeters>
            <DistanceMeters>99848.201619449</DistanceMeters>
          </Trackpoint>
          <Trackpoint>
            <Time>2019-07-26T16:00:39.000Z</Time>
            <Position>
              <LatitudeDegrees>42.88798729889094829559326171875</LatitudeDegrees>
              <LongitudeDegrees>-8.5325070284307003021240234375</LongitudeDegrees>
            </Position>
            <AltitudeMeters>298</AltitudeMeters>
            <DistanceMeters>99864.350010934</DistanceMeters>
          </Trackpoint>
          <Trackpoint>
            <Time>2019-07-26T16:00:41.000Z</Time>
            <Position>
              <LatitudeDegrees>42.888053767383098602294921875</LatitudeDegrees>
              <LongitudeDegrees>-8.53249588049948215484619140625</LongitudeDegrees>
            </Position>
            <AltitudeMeters>298.399993896484375</AltitudeMeters>
            <DistanceMeters>99871.803401456</DistanceMeters>
          </Trackpoint>
          <Trackpoint>
            <Time>2019-07-26T16:00:46.000Z</Time>
            <Position>
              <LatitudeDegrees>42.88821662776172161102294921875</LatitudeDegrees>
              <LongitudeDegrees>-8.5324721597135066986083984375</LongitudeDegrees>
            </Position>
            <AltitudeMeters>299.600006103515625</AltitudeMeters>
            <DistanceMeters>99890.032933628</DistanceMeters>
          </Trackpoint>
          <Trackpoint>
            <Time>2019-07-26T16:00:52.000Z</Time>
            <Position>
              <LatitudeDegrees>42.88841041736304759979248046875</LatitudeDegrees>
              <LongitudeDegrees>-8.5324275679886341094970703125</LongitudeDegrees>
            </Position>
            <AltitudeMeters>300.600006103515625</AltitudeMeters>
            <DistanceMeters>99911.906423755</DistanceMeters>
          </Trackpoint>
          <Trackpoint>
            <Time>2019-07-26T16:00:54.000Z</Time>
            <Position>
              <LatitudeDegrees>42.88846774958074092864990234375</LatitudeDegrees>
              <LongitudeDegrees>-8.532418347895145416259765625</LongitudeDegrees>
            </Position>
            <AltitudeMeters>301</AltitudeMeters>
            <DistanceMeters>99918.33180386</DistanceMeters>
          </Trackpoint>
          <Trackpoint>
            <Time>2019-07-26T16:00:59.000Z</Time>
            <Position>
              <LatitudeDegrees>42.88861962966620922088623046875</LatitudeDegrees>
              <LongitudeDegrees>-8.5323776118457317352294921875</LongitudeDegrees>
            </Position>
            <AltitudeMeters>301.79998779296875</AltitudeMeters>
            <DistanceMeters>99935.559704271</DistanceMeters>
          </Trackpoint>
          <Trackpoint>
            <Time>2019-07-26T16:01:01.000Z</Time>
            <Position>
              <LatitudeDegrees>42.88868241012096405029296875</LatitudeDegrees>
              <LongitudeDegrees>-8.53236696682870388031005859375</LongitudeDegrees>
            </Position>
            <AltitudeMeters>302.20001220703125</AltitudeMeters>
            <DistanceMeters>99942.60066441</DistanceMeters>
          </Trackpoint>
          <Trackpoint>
            <Time>2019-07-26T16:01:04.000Z</Time>
            <Position>
              <LatitudeDegrees>42.88877251558005809783935546875</LatitudeDegrees>
              <LongitudeDegrees>-8.53233528323471546173095703125</LongitudeDegrees>
            </Position>
            <AltitudeMeters>303</AltitudeMeters>
            <DistanceMeters>99952.957268487</DistanceMeters>
          </Trackpoint>
          <Trackpoint>
            <Time>2019-07-26T16:01:07.000Z</Time>
            <Position>
              <LatitudeDegrees>42.88886169902980327606201171875</LatitudeDegrees>
              <LongitudeDegrees>-8.53231114335358142852783203125</LongitudeDegrees>
            </Position>
            <AltitudeMeters>303.399993896484375</AltitudeMeters>
            <DistanceMeters>99963.077055883</DistanceMeters>
          </Trackpoint>
          <Trackpoint>
            <Time>2019-07-26T16:01:08.000Z</Time>
            <Position>
              <LatitudeDegrees>42.88888684473931789398193359375</LatitudeDegrees>
              <LongitudeDegrees>-8.53230577893555164337158203125</LongitudeDegrees>
            </Position>
            <AltitudeMeters>303.600006103515625</AltitudeMeters>
            <DistanceMeters>99965.908788194</DistanceMeters>
          </Trackpoint>
          <Trackpoint>
            <Time>2019-07-26T16:01:11.000Z</Time>
            <Position>
              <LatitudeDegrees>42.888956330716609954833984375</LatitudeDegrees>
              <LongitudeDegrees>-8.5322857461869716644287109375</LongitudeDegrees>
            </Position>
            <AltitudeMeters>304</AltitudeMeters>
            <DistanceMeters>99973.813731521</DistanceMeters>
          </Trackpoint>
          <Trackpoint>
            <Time>2019-07-26T16:01:14.000Z</Time>
            <Position>
              <LatitudeDegrees>42.8890034370124340057373046875</LatitudeDegrees>
              <LongitudeDegrees>-8.532237298786640167236328125</LongitudeDegrees>
            </Position>
            <AltitudeMeters>304.600006103515625</AltitudeMeters>
            <DistanceMeters>99980.379520502</DistanceMeters>
          </Trackpoint>
          <Trackpoint>
            <Time>2019-07-26T16:01:15.000Z</Time>
            <Position>
              <LatitudeDegrees>42.8890101425349712371826171875</LatitudeDegrees>
              <LongitudeDegrees>-8.5322156734764575958251953125</LongitudeDegrees>
            </Position>
            <AltitudeMeters>304.79998779296875</AltitudeMeters>
            <DistanceMeters>99982.298966044</DistanceMeters>
          </Trackpoint>
          <Trackpoint>
            <Time>2019-07-26T16:01:18.000Z</Time>
            <Position>
              <LatitudeDegrees>42.889015339314937591552734375</LatitudeDegrees>
              <LongitudeDegrees>-8.53215440176427364349365234375</LongitudeDegrees>
            </Position>
            <AltitudeMeters>305.20001220703125</AltitudeMeters>
            <DistanceMeters>99987.330000159</DistanceMeters>
          </Trackpoint>
          <Trackpoint>
            <Time>2019-07-26T16:01:20.000Z</Time>
            <Position>
              <LatitudeDegrees>42.88901726715266704559326171875</LatitudeDegrees>
              <LongitudeDegrees>-8.53214015252888202667236328125</LongitudeDegrees>
            </Position>
            <AltitudeMeters>305.399993896484375</AltitudeMeters>
            <DistanceMeters>99988.513073212</DistanceMeters>
          </Trackpoint>
          <Trackpoint>
            <Time>2019-07-26T16:01:21.000Z</Time>
            <Position>
              <LatitudeDegrees>42.88901609368622303009033203125</LatitudeDegrees>
              <LongitudeDegrees>-8.53213881142437458038330078125</LongitudeDegrees>
            </Position>
            <AltitudeMeters>305.600006103515625</AltitudeMeters>
            <DistanceMeters>99988.647461281</DistanceMeters>
          </Trackpoint>
          <Trackpoint>
            <Time>2019-07-26T16:01:31.000Z</Time>
            <Position>
              <LatitudeDegrees>42.88902229629456996917724609375</LatitudeDegrees>
              <LongitudeDegrees>-8.532216846942901611328125</LongitudeDegrees>
            </Position>
            <AltitudeMeters>306.399993896484375</AltitudeMeters>
            <DistanceMeters>99995.048905407</DistanceMeters>
          </Trackpoint>
          <Trackpoint>
            <Time>2019-07-26T16:01:33.000Z</Time>
            <Position>
              <LatitudeDegrees>42.88904450833797454833984375</LatitudeDegrees>
              <LongitudeDegrees>-8.53227728046476840972900390625</LongitudeDegrees>
            </Position>
            <AltitudeMeters>306.399993896484375</AltitudeMeters>
            <DistanceMeters>100000.56209299</DistanceMeters>
          </Trackpoint>
          <Trackpoint>
            <Time>2019-07-26T16:01:37.000Z</Time>
            <Position>
              <LatitudeDegrees>42.88914986886084079742431640625</LatitudeDegrees>
              <LongitudeDegrees>-8.532268814742565155029296875</LongitudeDegrees>
            </Position>
            <AltitudeMeters>306.20001220703125</AltitudeMeters>
            <DistanceMeters>100012.30933216</DistanceMeters>
          </Trackpoint>
          <Trackpoint>
            <Time>2019-07-26T16:01:38.000Z</Time>
            <Position>
              <LatitudeDegrees>42.8891752660274505615234375</LatitudeDegrees>
              <LongitudeDegrees>-8.53225247003138065338134765625</LongitudeDegrees>
            </Position>
            <AltitudeMeters>306.20001220703125</AltitudeMeters>
            <DistanceMeters>100015.43222866</DistanceMeters>
          </Trackpoint>
          <Trackpoint>
            <Time>2019-07-26T16:01:43.000Z</Time>
            <Position>
              <LatitudeDegrees>42.88925774395465850830078125</LatitudeDegrees>
              <LongitudeDegrees>-8.5321305133402347564697265625</LongitudeDegrees>
            </Position>
            <AltitudeMeters>306.20001220703125</AltitudeMeters>
            <DistanceMeters>100028.96644828</DistanceMeters>
          </Trackpoint>
          <Trackpoint>
            <Time>2019-07-26T16:01:46.000Z</Time>
            <Position>
              <LatitudeDegrees>42.88930476643145084381103515625</LatitudeDegrees>
              <LongitudeDegrees>-8.5320222191512584686279296875</LongitudeDegrees>
            </Position>
            <AltitudeMeters>306.20001220703125</AltitudeMeters>
            <DistanceMeters>100039.23153289</DistanceMeters>
          </Trackpoint>
          <Trackpoint>
            <Time>2019-07-26T16:01:49.000Z</Time>
            <Position>
              <LatitudeDegrees>42.88938037119805812835693359375</LatitudeDegrees>
              <LongitudeDegrees>-8.531931526958942413330078125</LongitudeDegrees>
            </Position>
            <AltitudeMeters>306.600006103515625</AltitudeMeters>
            <DistanceMeters>100050.43421125</DistanceMeters>
          </Trackpoint>
          <Trackpoint>
            <Time>2019-07-26T16:01:53.000Z</Time>
            <Position>
              <LatitudeDegrees>42.88952152244746685028076171875</LatitudeDegrees>
              <LongitudeDegrees>-8.531847707927227020263671875</LongitudeDegrees>
            </Position>
            <AltitudeMeters>307.20001220703125</AltitudeMeters>
            <DistanceMeters>100067.56697708</DistanceMeters>
          </Trackpoint>
          <Trackpoint>
            <Time>2019-07-26T16:01:54.000Z</Time>
            <Position>
              <LatitudeDegrees>42.88956292904913425445556640625</LatitudeDegrees>
              <LongitudeDegrees>-8.53184712119400501251220703125</LongitudeDegrees>
            </Position>
            <AltitudeMeters>307.399993896484375</AltitudeMeters>
            <DistanceMeters>100072.17748681</DistanceMeters>
          </Trackpoint>
          <Trackpoint>
            <Time>2019-07-26T16:01:58.000Z</Time>
            <Position>
              <LatitudeDegrees>42.88972553797066211700439453125</LatitudeDegrees>
              <LongitudeDegrees>-8.5319417528808116912841796875</LongitudeDegrees>
            </Position>
            <AltitudeMeters>309.20001220703125</AltitudeMeters>
            <DistanceMeters>100091.85283628</DistanceMeters>
          </Trackpoint>
          <Trackpoint>
            <Time>2019-07-26T16:02:02.000Z</Time>
            <Position>
              <LatitudeDegrees>42.8899234347045421600341796875</LatitudeDegrees>
              <LongitudeDegrees>-8.53200905956327915191650390625</LongitudeDegrees>
            </Position>
            <AltitudeMeters>309.79998779296875</AltitudeMeters>
            <DistanceMeters>100114.55248875</DistanceMeters>
          </Trackpoint>
          <Trackpoint>
            <Time>2019-07-26T16:02:04.000Z</Time>
            <Position>
              <LatitudeDegrees>42.8900347463786602020263671875</LatitudeDegrees>
              <LongitudeDegrees>-8.53204007260501384735107421875</LongitudeDegrees>
            </Position>
            <AltitudeMeters>310</AltitudeMeters>
            <DistanceMeters>100127.19711344</DistanceMeters>
          </Trackpoint>
          <Trackpoint>
            <Time>2019-07-26T16:02:07.000Z</Time>
            <Position>
              <LatitudeDegrees>42.8901980258524417877197265625</LatitudeDegrees>
              <LongitudeDegrees>-8.53211634792387485504150390625</LongitudeDegrees>
            </Position>
            <AltitudeMeters>310.20001220703125</AltitudeMeters>
            <DistanceMeters>100146.40520713</DistanceMeters>
          </Trackpoint>
          <Trackpoint>
            <Time>2019-07-26T16:02:08.000Z</Time>
            <Position>
              <LatitudeDegrees>42.89025192148983478546142578125</LatitudeDegrees>
              <LongitudeDegrees>-8.53214149363338947296142578125</LongitudeDegrees>
            </Position>
            <AltitudeMeters>310.20001220703125</AltitudeMeters>
            <DistanceMeters>100152.74427963</DistanceMeters>
          </Trackpoint>
          <Trackpoint>
            <Time>2019-07-26T16:02:14.000Z</Time>
            <Position>
              <LatitudeDegrees>42.89057797752320766448974609375</LatitudeDegrees>
              <LongitudeDegrees>-8.5323145799338817596435546875</LongitudeDegrees>
            </Position>
            <AltitudeMeters>310.600006103515625</AltitudeMeters>
            <DistanceMeters>100191.68320792</DistanceMeters>
          </Trackpoint>
          <Trackpoint>
            <Time>2019-07-26T16:02:23.000Z</Time>
            <Position>
              <LatitudeDegrees>42.89103294722735881805419921875</LatitudeDegrees>
              <LongitudeDegrees>-8.53255539201200008392333984375</LongitudeDegrees>
            </Position>
            <AltitudeMeters>311.20001220703125</AltitudeMeters>
            <DistanceMeters>100245.99644123</DistanceMeters>
          </Trackpoint>
          <Trackpoint>
            <Time>2019-07-26T16:02:24.000Z</Time>
            <Position>
              <LatitudeDegrees>42.89107351563870906829833984375</LatitudeDegrees>
              <LongitudeDegrees>-8.532580621540546417236328125</LongitudeDegrees>
            </Position>
            <AltitudeMeters>311.399993896484375</AltitudeMeters>
            <DistanceMeters>100250.95789146</DistanceMeters>
          </Trackpoint>
          <Trackpoint>
            <Time>2019-07-26T16:02:29.000Z</Time>
            <Position>
              <LatitudeDegrees>42.89126646704971790313720703125</LatitudeDegrees>
              <LongitudeDegrees>-8.53266620077192783355712890625</LongitudeDegrees>
            </Position>
            <AltitudeMeters>311.79998779296875</AltitudeMeters>
            <DistanceMeters>100273.53908621</DistanceMeters>
          </Trackpoint>
          <Trackpoint>
            <Time>2019-07-26T16:02:32.000Z</Time>
            <Position>
              <LatitudeDegrees>42.8913624398410320281982421875</LatitudeDegrees>
              <LongitudeDegrees>-8.5326917655766010284423828125</LongitudeDegrees>
            </Position>
            <AltitudeMeters>311.79998779296875</AltitudeMeters>
            <DistanceMeters>100284.42203079</DistanceMeters>
          </Trackpoint>
          <Trackpoint>
            <Time>2019-07-26T16:02:34.000Z</Time>
            <Position>
              <LatitudeDegrees>42.89142723195254802703857421875</LatitudeDegrees>
              <LongitudeDegrees>-8.53274281136691570281982421875</LongitudeDegrees>
            </Position>
            <AltitudeMeters>311.79998779296875</AltitudeMeters>
            <DistanceMeters>100292.74867038</DistanceMeters>
          </Trackpoint>
          <Trackpoint>
            <Time>2019-07-26T16:02:40.000Z</Time>
            <Position>
              <LatitudeDegrees>42.891625799238681793212890625</LatitudeDegrees>
              <LongitudeDegrees>-8.53298722766339778900146484375</LongitudeDegrees>
            </Position>
            <AltitudeMeters>311.600006103515625</AltitudeMeters>
            <DistanceMeters>100322.50918042</DistanceMeters>
          </Trackpoint>
          <Trackpoint>
            <Time>2019-07-26T16:02:42.000Z</Time>
            <Position>
              <LatitudeDegrees>42.8917057625949382781982421875</LatitudeDegrees>
              <LongitudeDegrees>-8.533052019774913787841796875</LongitudeDegrees>
            </Position>
            <AltitudeMeters>311.600006103515625</AltitudeMeters>
            <DistanceMeters>100332.85924307</DistanceMeters>
          </Trackpoint>
          <Trackpoint>
            <Time>2019-07-26T16:02:44.000Z</Time>
            <Position>
              <LatitudeDegrees>42.891782037913799285888671875</LatitudeDegrees>
              <LongitudeDegrees>-8.5330934263765811920166015625</LongitudeDegrees>
            </Position>
            <AltitudeMeters>311.600006103515625</AltitudeMeters>
            <DistanceMeters>100341.99516101</DistanceMeters>
          </Trackpoint>
          <Trackpoint>
            <Time>2019-07-26T16:02:45.000Z</Time>
            <Position>
              <LatitudeDegrees>42.8918184153735637664794921875</LatitudeDegrees>
              <LongitudeDegrees>-8.5331068374216556549072265625</LongitudeDegrees>
            </Position>
            <AltitudeMeters>311.600006103515625</AltitudeMeters>
            <DistanceMeters>100346.18927461</DistanceMeters>
          </Trackpoint>
          <Trackpoint>
            <Time>2019-07-26T16:02:47.000Z</Time>
            <Position>
              <LatitudeDegrees>42.89187616668641567230224609375</LatitudeDegrees>
              <LongitudeDegrees>-8.53308697231113910675048828125</LongitudeDegrees>
            </Position>
            <AltitudeMeters>311.399993896484375</AltitudeMeters>
            <DistanceMeters>100352.81666413</DistanceMeters>
          </Trackpoint>
          <Trackpoint>
            <Time>2019-07-26T16:02:48.000Z</Time>
            <Position>
              <LatitudeDegrees>42.89190064184367656707763671875</LatitudeDegrees>
              <LongitudeDegrees>-8.5330545343458652496337890625</LongitudeDegrees>
            </Position>
            <AltitudeMeters>311.399993896484375</AltitudeMeters>
            <DistanceMeters>100356.61416753</DistanceMeters>
          </Trackpoint>
          <Trackpoint>
            <Time>2019-07-26T16:02:50.000Z</Time>
            <Position>
              <LatitudeDegrees>42.891937606036663055419921875</LatitudeDegrees>
              <LongitudeDegrees>-8.53296761400997638702392578125</LongitudeDegrees>
            </Position>
            <AltitudeMeters>311.399993896484375</AltitudeMeters>
            <DistanceMeters>100364.81018722</DistanceMeters>
          </Trackpoint>
          <Trackpoint>
            <Time>2019-07-26T16:02:52.000Z</Time>
            <Position>
              <LatitudeDegrees>42.8919632546603679656982421875</LatitudeDegrees>
              <LongitudeDegrees>-8.53286418132483959197998046875</LongitudeDegrees>
            </Position>
            <AltitudeMeters>311.399993896484375</AltitudeMeters>
            <DistanceMeters>100373.71434754</DistanceMeters>
          </Trackpoint>
          <Trackpoint>
            <Time>2019-07-26T16:02:53.000Z</Time>
            <Position>
              <LatitudeDegrees>42.89197490550577640533447265625</LatitudeDegrees>
              <LongitudeDegrees>-8.53281028568744659423828125</LongitudeDegrees>
            </Position>
            <AltitudeMeters>311.399993896484375</AltitudeMeters>
            <DistanceMeters>100378.29636978</DistanceMeters>
          </Trackpoint>
          <Trackpoint>
            <Time>2019-07-26T16:02:58.000Z</Time>
            <Position>
              <LatitudeDegrees>42.8920350037515163421630859375</LatitudeDegrees>
              <LongitudeDegrees>-8.53258632123470306396484375</LongitudeDegrees>
            </Position>
            <AltitudeMeters>311.600006103515625</AltitudeMeters>
            <DistanceMeters>100397.74576391</DistanceMeters>
          </Trackpoint>
          <Trackpoint>
            <Time>2019-07-26T16:03:02.000Z</Time>
            <Position>
              <LatitudeDegrees>42.8921007178723812103271484375</LatitudeDegrees>
              <LongitudeDegrees>-8.53250292129814624786376953125</LongitudeDegrees>
            </Position>
            <AltitudeMeters>312.399993896484375</AltitudeMeters>
            <DistanceMeters>100407.73306707</DistanceMeters>
          </Trackpoint>
          <Trackpoint>
            <Time>2019-07-26T16:03:06.000Z</Time>
            <Position>
              <LatitudeDegrees>42.89211052469909191131591796875</LatitudeDegrees>
              <LongitudeDegrees>-8.53252119384706020355224609375</LongitudeDegrees>
            </Position>
            <AltitudeMeters>313.20001220703125</AltitudeMeters>
            <DistanceMeters>100409.58059756</DistanceMeters>
          </Trackpoint>
          <Trackpoint>
            <Time>2019-07-26T16:03:07.000Z</Time>
            <Position>
              <LatitudeDegrees>42.8921124525368213653564453125</LatitudeDegrees>
              <LongitudeDegrees>-8.53252907283604145050048828125</LongitudeDegrees>
            </Position>
            <AltitudeMeters>313.20001220703125</AltitudeMeters>
            <DistanceMeters>100410.26584494</DistanceMeters>
          </Trackpoint>
          <Trackpoint>
            <Time>2019-07-26T16:03:11.000Z</Time>
            <Position>
              <LatitudeDegrees>42.89209644310176372528076171875</LatitudeDegrees>
              <LongitudeDegrees>-8.532578945159912109375</LongitudeDegrees>
            </Position>
            <AltitudeMeters>313.399993896484375</AltitudeMeters>
            <DistanceMeters>100414.70573873</DistanceMeters>
          </Trackpoint>
          <Trackpoint>
            <Time>2019-07-26T16:03:12.000Z</Time>
            <Position>
              <LatitudeDegrees>42.8920909948647022247314453125</LatitudeDegrees>
              <LongitudeDegrees>-8.5325703956186771392822265625</LongitudeDegrees>
            </Position>
            <AltitudeMeters>313.399993896484375</AltitudeMeters>
            <DistanceMeters>100415.62705691</DistanceMeters>
          </Trackpoint>
          <Trackpoint>
            <Time>2019-07-26T16:03:15.000Z</Time>
            <Position>
              <LatitudeDegrees>42.89209124632179737091064453125</LatitudeDegrees>
              <LongitudeDegrees>-8.53254248388111591339111328125</LongitudeDegrees>
            </Position>
            <AltitudeMeters>313.399993896484375</AltitudeMeters>
            <DistanceMeters>100417.90373517</DistanceMeters>
          </Trackpoint>
          <Trackpoint>
            <Time>2019-07-26T16:03:16.000Z</Time>
            <Position>
              <LatitudeDegrees>42.89208881556987762451171875</LatitudeDegrees>
              <LongitudeDegrees>-8.53254164569079875946044921875</LongitudeDegrees>
            </Position>
            <AltitudeMeters>313.399993896484375</AltitudeMeters>
            <DistanceMeters>100418.18881531</DistanceMeters>
          </Trackpoint>
          <Trackpoint>
            <Time>2019-07-26T16:04:00.000Z</Time>
            <Position>
              <LatitudeDegrees>42.89211831986904144287109375</LatitudeDegrees>
              <LongitudeDegrees>-8.53273023851215839385986328125</LongitudeDegrees>
            </Position>
            <AltitudeMeters>313.20001220703125</AltitudeMeters>
            <DistanceMeters>100433.91422924</DistanceMeters>
          </Trackpoint>
          <Trackpoint>
            <Time>2019-07-26T16:04:01.000Z</Time>
            <Position>
              <LatitudeDegrees>42.89210968650877475738525390625</LatitudeDegrees>
              <LongitudeDegrees>-8.53275270201265811920166015625</LongitudeDegrees>
            </Position>
            <AltitudeMeters>313.399993896484375</AltitudeMeters>
            <DistanceMeters>100435.98310726</DistanceMeters>
          </Trackpoint>
          <Trackpoint>
            <Time>2019-07-26T16:04:02.000Z</Time>
            <Position>
              <LatitudeDegrees>42.89210247807204723358154296875</LatitudeDegrees>
              <LongitudeDegrees>-8.53278346359729766845703125</LongitudeDegrees>
            </Position>
            <AltitudeMeters>313.399993896484375</AltitudeMeters>
            <DistanceMeters>100438.61656482</DistanceMeters>
          </Trackpoint>
          <Trackpoint>
            <Time>2019-07-26T16:04:04.000Z</Time>
            <Position>
              <LatitudeDegrees>42.89209258742630481719970703125</LatitudeDegrees>
              <LongitudeDegrees>-8.53282948024570941925048828125</LongitudeDegrees>
            </Position>
            <AltitudeMeters>313.399993896484375</AltitudeMeters>
            <DistanceMeters>100442.5276963</DistanceMeters>
          </Trackpoint>
          <Trackpoint>
            <Time>2019-07-26T16:04:05.000Z</Time>
            <Position>
              <LatitudeDegrees>42.89209074340760707855224609375</LatitudeDegrees>
              <LongitudeDegrees>-8.532853536307811737060546875</LongitudeDegrees>
            </Position>
            <AltitudeMeters>313.399993896484375</AltitudeMeters>
            <DistanceMeters>100444.49821219</DistanceMeters>
          </Trackpoint>
          <Trackpoint>
            <Time>2019-07-26T16:04:06.000Z</Time>
            <Position>
              <LatitudeDegrees>42.89210046641528606414794921875</LatitudeDegrees>
              <LongitudeDegrees>-8.53286971338093280792236328125</LongitudeDegrees>
            </Position>
            <AltitudeMeters>313.399993896484375</AltitudeMeters>
            <DistanceMeters>100446.20340562</DistanceMeters>
          </Trackpoint>
          <Trackpoint>
            <Time>2019-07-26T16:04:07.000Z</Time>
            <Position>
              <LatitudeDegrees>42.892117984592914581298828125</LatitudeDegrees>
              <LongitudeDegrees>-8.532875664532184600830078125</LongitudeDegrees>
            </Position>
            <AltitudeMeters>313.399993896484375</AltitudeMeters>
            <DistanceMeters>100448.212496</DistanceMeters>
          </Trackpoint>
          <Trackpoint>
            <Time>2019-07-26T16:04:10.000Z</Time>
            <Position>
              <LatitudeDegrees>42.89216131903231143951416015625</LatitudeDegrees>
              <LongitudeDegrees>-8.5328761674463748931884765625</LongitudeDegrees>
            </Position>
            <AltitudeMeters>313.399993896484375</AltitudeMeters>
            <DistanceMeters>100453.03551133</DistanceMeters>
          </Trackpoint>
          <Trackpoint>
            <Time>2019-07-26T16:04:12.000Z</Time>
            <Position>
              <LatitudeDegrees>42.89217858575284481048583984375</LatitudeDegrees>
              <LongitudeDegrees>-8.53288614191114902496337890625</LongitudeDegrees>
            </Position>
            <AltitudeMeters>313.20001220703125</AltitudeMeters>
            <DistanceMeters>100455.12177518</DistanceMeters>
          </Trackpoint>
          <Trackpoint>
            <Time>2019-07-26T16:04:14.000Z</Time>
            <Position>
              <LatitudeDegrees>42.89218730293214321136474609375</LatitudeDegrees>
              <LongitudeDegrees>-8.5328982956707477569580078125</LongitudeDegrees>
            </Position>
            <AltitudeMeters>312.79998779296875</AltitudeMeters>
            <DistanceMeters>100456.50864442</DistanceMeters>
          </Trackpoint>
          <Trackpoint>
            <Time>2019-07-26T16:13:48.000Z</Time>
            <Position>
              <LatitudeDegrees>42.8921164758503437042236328125</LatitudeDegrees>
              <LongitudeDegrees>-8.5326511971652507781982421875</LongitudeDegrees>
            </Position>
            <AltitudeMeters>301.600006103515625</AltitudeMeters>
            <DistanceMeters>100478.14512341</DistanceMeters>
          </Trackpoint>
          <Trackpoint>
            <Time>2019-07-26T16:13:49.000Z</Time>
            <Position>
              <LatitudeDegrees>42.89211102761328220367431640625</LatitudeDegrees>
              <LongitudeDegrees>-8.5326713137328624725341796875</LongitudeDegrees>
            </Position>
            <AltitudeMeters>301.600006103515625</AltitudeMeters>
            <DistanceMeters>100479.8921683</DistanceMeters>
          </Trackpoint>
          <Trackpoint>
            <Time>2019-07-26T16:15:10.000Z</Time>
            <Position>
              <LatitudeDegrees>42.8920745663344860076904296875</LatitudeDegrees>
              <LongitudeDegrees>-8.5326706431806087493896484375</LongitudeDegrees>
            </Position>
            <AltitudeMeters>301.79998779296875</AltitudeMeters>
            <DistanceMeters>100483.95282336</DistanceMeters>
          </Trackpoint>
          <Trackpoint>
            <Time>2019-07-26T16:15:12.000Z</Time>
            <Position>
              <LatitudeDegrees>42.8920578025281429290771484375</LatitudeDegrees>
              <LongitudeDegrees>-8.53268967010080814361572265625</LongitudeDegrees>
            </Position>
            <AltitudeMeters>301.79998779296875</AltitudeMeters>
            <DistanceMeters>100486.37926311</DistanceMeters>
          </Trackpoint>
          <Trackpoint>
            <Time>2019-07-26T16:15:15.000Z</Time>
            <Position>
              <LatitudeDegrees>42.89200876839458942413330078125</LatitudeDegrees>
              <LongitudeDegrees>-8.53272520937025547027587890625</LongitudeDegrees>
            </Position>
            <AltitudeMeters>301.600006103515625</AltitudeMeters>
            <DistanceMeters>100492.55819208</DistanceMeters>
          </Trackpoint>
          <Trackpoint>
            <Time>2019-07-26T16:15:16.000Z</Time>
            <Position>
              <LatitudeDegrees>42.89200390689074993133544921875</LatitudeDegrees>
              <LongitudeDegrees>-8.53275471366941928863525390625</LongitudeDegrees>
            </Position>
            <AltitudeMeters>301.600006103515625</AltitudeMeters>
            <DistanceMeters>100495.02522907</DistanceMeters>
          </Trackpoint>
          <Trackpoint>
            <Time>2019-07-26T16:15:18.000Z</Time>
            <Position>
              <LatitudeDegrees>42.8920034877955913543701171875</LatitudeDegrees>
              <LongitudeDegrees>-8.5328372754156589508056640625</LongitudeDegrees>
            </Position>
            <AltitudeMeters>301.600006103515625</AltitudeMeters>
            <DistanceMeters>100501.75805788</DistanceMeters>
          </Trackpoint>
          <Trackpoint>
            <Time>2019-07-26T16:15:21.000Z</Time>
            <Position>
              <LatitudeDegrees>42.8919766657054424285888671875</LatitudeDegrees>
              <LongitudeDegrees>-8.5329697094857692718505859375</LongitudeDegrees>
            </Position>
            <AltitudeMeters>301.600006103515625</AltitudeMeters>
            <DistanceMeters>100512.96234825</DistanceMeters>
          </Trackpoint>
          <Trackpoint>
            <Time>2019-07-26T16:15:25.000Z</Time>
            <Position>
              <LatitudeDegrees>42.89184699766337871551513671875</LatitudeDegrees>
              <LongitudeDegrees>-8.533038608729839324951171875</LongitudeDegrees>
            </Position>
            <AltitudeMeters>301.399993896484375</AltitudeMeters>
            <DistanceMeters>100528.44937057</DistanceMeters>
          </Trackpoint>
          <Trackpoint>
            <Time>2019-07-26T16:15:27.000Z</Time>
            <Position>
              <LatitudeDegrees>42.89178463630378246307373046875</LatitudeDegrees>
              <LongitudeDegrees>-8.5330246947705745697021484375</LongitudeDegrees>
            </Position>
            <AltitudeMeters>301.20001220703125</AltitudeMeters>
            <DistanceMeters>100535.48263146</DistanceMeters>
          </Trackpoint>
          <Trackpoint>
            <Time>2019-07-26T16:15:28.000Z</Time>
            <Position>
              <LatitudeDegrees>42.89175060577690601348876953125</LatitudeDegrees>
              <LongitudeDegrees>-8.533015139400959014892578125</LongitudeDegrees>
            </Position>
            <AltitudeMeters>301.20001220703125</AltitudeMeters>
            <DistanceMeters>100539.34964667</DistanceMeters>
          </Trackpoint>
          <Trackpoint>
            <Time>2019-07-26T16:15:30.000Z</Time>
            <Position>
              <LatitudeDegrees>42.8916789405047893524169921875</LatitudeDegrees>
              <LongitudeDegrees>-8.532980270683765411376953125</LongitudeDegrees>
            </Position>
            <AltitudeMeters>300.79998779296875</AltitudeMeters>
            <DistanceMeters>100547.81822784</DistanceMeters>
          </Trackpoint>
          <Trackpoint>
            <Time>2019-07-26T16:15:31.000Z</Time>
            <Position>
              <LatitudeDegrees>42.89164449088275432586669921875</LatitudeDegrees>
              <LongitudeDegrees>-8.5329562984406948089599609375</LongitudeDegrees>
            </Position>
            <AltitudeMeters>300.600006103515625</AltitudeMeters>
            <DistanceMeters>100552.12284361</DistanceMeters>
          </Trackpoint>
          <Trackpoint>
            <Time>2019-07-26T16:15:35.000Z</Time>
            <Position>
              <LatitudeDegrees>42.89154089055955410003662109375</LatitudeDegrees>
              <LongitudeDegrees>-8.53284322656691074371337890625</LongitudeDegrees>
            </Position>
            <AltitudeMeters>300.20001220703125</AltitudeMeters>
            <DistanceMeters>100566.8871941</DistanceMeters>
          </Trackpoint>
          <Trackpoint>
            <Time>2019-07-26T16:15:39.000Z</Time>
            <Position>
              <LatitudeDegrees>42.8915495239198207855224609375</LatitudeDegrees>
              <LongitudeDegrees>-8.53270224295556545257568359375</LongitudeDegrees>
            </Position>
            <AltitudeMeters>300.20001220703125</AltitudeMeters>
            <DistanceMeters>100578.4242356</DistanceMeters>
          </Trackpoint>
          <Trackpoint>
            <Time>2019-07-26T16:15:43.000Z</Time>
            <Position>
              <LatitudeDegrees>42.89161808788776397705078125</LatitudeDegrees>
              <LongitudeDegrees>-8.53266083635389804840087890625</LongitudeDegrees>
            </Position>
            <AltitudeMeters>300.399993896484375</AltitudeMeters>
            <DistanceMeters>100586.769291</DistanceMeters>
          </Trackpoint>
          <Trackpoint>
            <Time>2019-07-26T16:15:44.000Z</Time>
            <Position>
              <LatitudeDegrees>42.89162822999060153961181640625</LatitudeDegrees>
              <LongitudeDegrees>-8.532662428915500640869140625</LongitudeDegrees>
            </Position>
            <AltitudeMeters>300.399993896484375</AltitudeMeters>
            <DistanceMeters>100587.90961157</DistanceMeters>
          </Trackpoint>
          <Trackpoint>
            <Time>2019-07-26T16:15:48.000Z</Time>
            <Position>
              <LatitudeDegrees>42.8916697204113006591796875</LatitudeDegrees>
              <LongitudeDegrees>-8.53267424739897251129150390625</LongitudeDegrees>
            </Position>
            <AltitudeMeters>300.600006103515625</AltitudeMeters>
            <DistanceMeters>100592.62757071</DistanceMeters>
          </Trackpoint>
          <Trackpoint>
            <Time>2019-07-26T16:15:51.000Z</Time>
            <Position>
              <LatitudeDegrees>42.89169964380562305450439453125</LatitudeDegrees>
              <LongitudeDegrees>-8.53264130651950836181640625</LongitudeDegrees>
            </Position>
            <AltitudeMeters>300.600006103515625</AltitudeMeters>
            <DistanceMeters>100596.90693924</DistanceMeters>
          </Trackpoint>
          <Trackpoint>
            <Time>2019-07-26T16:15:52.000Z</Time>
            <Position>
              <LatitudeDegrees>42.8916903398931026458740234375</LatitudeDegrees>
              <LongitudeDegrees>-8.53261180222034454345703125</LongitudeDegrees>
            </Position>
            <AltitudeMeters>300.79998779296875</AltitudeMeters>
            <DistanceMeters>100599.52664497</DistanceMeters>
          </Trackpoint>
          <Trackpoint>
            <Time>2019-07-26T16:15:56.000Z</Time>
            <Position>
              <LatitudeDegrees>42.89159285835921764373779296875</LatitudeDegrees>
              <LongitudeDegrees>-8.53255840949714183807373046875</LongitudeDegrees>
            </Position>
            <AltitudeMeters>300.79998779296875</AltitudeMeters>
            <DistanceMeters>100611.21802073</DistanceMeters>
          </Trackpoint>
          <Trackpoint>
            <Time>2019-07-26T16:16:00.000Z</Time>
            <Position>
              <LatitudeDegrees>42.8914744220674037933349609375</LatitudeDegrees>
              <LongitudeDegrees>-8.53257249109447002410888671875</LongitudeDegrees>
            </Position>
            <AltitudeMeters>301</AltitudeMeters>
            <DistanceMeters>100624.45029877</DistanceMeters>
          </Trackpoint>
          <Trackpoint>
            <Time>2019-07-26T16:16:03.000Z</Time>
            <Position>
              <LatitudeDegrees>42.89139253087341785430908203125</LatitudeDegrees>
              <LongitudeDegrees>-8.532619513571262359619140625</LongitudeDegrees>
            </Position>
            <AltitudeMeters>301.20001220703125</AltitudeMeters>
            <DistanceMeters>100634.33855786</DistanceMeters>
          </Trackpoint>
          <Trackpoint>
            <Time>2019-07-26T16:16:05.000Z</Time>
            <Position>
              <LatitudeDegrees>42.89133938960731029510498046875</LatitudeDegrees>
              <LongitudeDegrees>-8.53265765123069286346435546875</LongitudeDegrees>
            </Position>
            <AltitudeMeters>301.20001220703125</AltitudeMeters>
            <DistanceMeters>100641.02090236</DistanceMeters>
          </Trackpoint>
          <Trackpoint>
            <Time>2019-07-26T16:16:09.000Z</Time>
            <Position>
              <LatitudeDegrees>42.8912286646664142608642578125</LatitudeDegrees>
              <LongitudeDegrees>-8.532646000385284423828125</LongitudeDegrees>
            </Position>
            <AltitudeMeters>301.20001220703125</AltitudeMeters>
            <DistanceMeters>100653.38168281</DistanceMeters>
          </Trackpoint>
          <Trackpoint>
            <Time>2019-07-26T16:16:12.000Z</Time>
            <Position>
              <LatitudeDegrees>42.89117510430514812469482421875</LatitudeDegrees>
              <LongitudeDegrees>-8.5326169990003108978271484375</LongitudeDegrees>
            </Position>
            <AltitudeMeters>300.79998779296875</AltitudeMeters>
            <DistanceMeters>100659.79510609</DistanceMeters>
          </Trackpoint>
          <Trackpoint>
            <Time>2019-07-26T16:16:14.000Z</Time>
            <Position>
              <LatitudeDegrees>42.89112984202802181243896484375</LatitudeDegrees>
              <LongitudeDegrees>-8.5325931943953037261962890625</LongitudeDegrees>
            </Position>
            <AltitudeMeters>300.600006103515625</AltitudeMeters>
            <DistanceMeters>100665.19409551</DistanceMeters>
          </Trackpoint>
          <Trackpoint>
            <Time>2019-07-26T16:16:22.000Z</Time>
            <Position>
              <LatitudeDegrees>42.8908873535692691802978515625</LatitudeDegrees>
              <LongitudeDegrees>-8.53243167512118816375732421875</LongitudeDegrees>
            </Position>
            <AltitudeMeters>300.20001220703125</AltitudeMeters>
            <DistanceMeters>100695.22584496</DistanceMeters>
          </Trackpoint>
          <Trackpoint>
            <Time>2019-07-26T16:16:26.000Z</Time>
            <Position>
              <LatitudeDegrees>42.89071493782103061676025390625</LatitudeDegrees>
              <LongitudeDegrees>-8.5323447547852993011474609375</LongitudeDegrees>
            </Position>
            <AltitudeMeters>300</AltitudeMeters>
            <DistanceMeters>100715.68331115</DistanceMeters>
          </Trackpoint>
          <Trackpoint>
            <Time>2019-07-26T16:16:29.000Z</Time>
            <Position>
              <LatitudeDegrees>42.89058099500834941864013671875</LatitudeDegrees>
              <LongitudeDegrees>-8.5322837345302104949951171875</LongitudeDegrees>
            </Position>
            <AltitudeMeters>300</AltitudeMeters>
            <DistanceMeters>100731.39982193</DistanceMeters>
          </Trackpoint>
          <Trackpoint>
            <Time>2019-07-26T16:16:33.000Z</Time>
            <Position>
              <LatitudeDegrees>42.89043389260768890380859375</LatitudeDegrees>
              <LongitudeDegrees>-8.53217401541769504547119140625</LongitudeDegrees>
            </Position>
            <AltitudeMeters>300</AltitudeMeters>
            <DistanceMeters>100750.05799727</DistanceMeters>
          </Trackpoint>
          <Trackpoint>
            <Time>2019-07-26T16:16:38.000Z</Time>
            <Position>
              <LatitudeDegrees>42.89022040553390979766845703125</LatitudeDegrees>
              <LongitudeDegrees>-8.53208474814891815185546875</LongitudeDegrees>
            </Position>
            <AltitudeMeters>299.79998779296875</AltitudeMeters>
            <DistanceMeters>100774.90961791</DistanceMeters>
          </Trackpoint>
          <Trackpoint>
            <Time>2019-07-26T16:16:40.000Z</Time>
            <Position>
              <LatitudeDegrees>42.890127785503864288330078125</LatitudeDegrees>
              <LongitudeDegrees>-8.5320544056594371795654296875</LongitudeDegrees>
            </Position>
            <AltitudeMeters>299.600006103515625</AltitudeMeters>
            <DistanceMeters>100785.5113801</DistanceMeters>
          </Trackpoint>
          <Trackpoint>
            <Time>2019-07-26T16:16:42.000Z</Time>
            <Position>
              <LatitudeDegrees>42.89003768004477024078369140625</LatitudeDegrees>
              <LongitudeDegrees>-8.53202062658965587615966796875</LongitudeDegrees>
            </Position>
            <AltitudeMeters>299.600006103515625</AltitudeMeters>
            <DistanceMeters>100795.91148854</DistanceMeters>
          </Trackpoint>
          <Trackpoint>
            <Time>2019-07-26T16:16:45.000Z</Time>
            <Position>
              <LatitudeDegrees>42.8899173997342586517333984375</LatitudeDegrees>
              <LongitudeDegrees>-8.5319687426090240478515625</LongitudeDegrees>
            </Position>
            <AltitudeMeters>299.399993896484375</AltitudeMeters>
            <DistanceMeters>100809.95166549</DistanceMeters>
          </Trackpoint>
          <Trackpoint>
            <Time>2019-07-26T16:16:46.000Z</Time>
            <Position>
              <LatitudeDegrees>42.8898959420621395111083984375</LatitudeDegrees>
              <LongitudeDegrees>-8.531937897205352783203125</LongitudeDegrees>
            </Position>
            <AltitudeMeters>299.399993896484375</AltitudeMeters>
            <DistanceMeters>100813.41981512</DistanceMeters>
          </Trackpoint>
          <Trackpoint>
            <Time>2019-07-26T16:16:49.000Z</Time>
            <Position>
              <LatitudeDegrees>42.88990424014627933502197265625</LatitudeDegrees>
              <LongitudeDegrees>-8.53188165463507175445556640625</LongitudeDegrees>
            </Position>
            <AltitudeMeters>299.399993896484375</AltitudeMeters>
            <DistanceMeters>100818.10030285</DistanceMeters>
          </Trackpoint>
          <Trackpoint>
            <Time>2019-07-26T16:16:51.000Z</Time>
            <Position>
              <LatitudeDegrees>42.8899106942117214202880859375</LatitudeDegrees>
              <LongitudeDegrees>-8.5318817384541034698486328125</LongitudeDegrees>
            </Position>
            <AltitudeMeters>299.399993896484375</AltitudeMeters>
            <DistanceMeters>100818.82400475</DistanceMeters>
          </Trackpoint>
          <Trackpoint>
            <Time>2019-07-26T16:17:28.000Z</Time>
            <Position>
              <LatitudeDegrees>42.889865934848785400390625</LatitudeDegrees>
              <LongitudeDegrees>-8.5319839976727962493896484375</LongitudeDegrees>
            </Position>
            <AltitudeMeters>299</AltitudeMeters>
            <DistanceMeters>100828.53766877</DistanceMeters>
          </Trackpoint>
          <Trackpoint>
            <Time>2019-07-26T16:17:29.000Z</Time>
            <Position>
              <LatitudeDegrees>42.8898580558598041534423828125</LatitudeDegrees>
              <LongitudeDegrees>-8.53201710619032382965087890625</LongitudeDegrees>
            </Position>
            <AltitudeMeters>298.79998779296875</AltitudeMeters>
            <DistanceMeters>100831.37577169</DistanceMeters>
          </Trackpoint>
          <Trackpoint>
            <Time>2019-07-26T16:17:31.000Z</Time>
            <Position>
              <LatitudeDegrees>42.88984456099569797515869140625</LatitudeDegrees>
              <LongitudeDegrees>-8.53209237568080425262451171875</LongitudeDegrees>
            </Position>
            <AltitudeMeters>299.20001220703125</AltitudeMeters>
            <DistanceMeters>100837.69558404</DistanceMeters>
          </Trackpoint>
          <Trackpoint>
            <Time>2019-07-26T16:17:35.000Z</Time>
            <Position>
              <LatitudeDegrees>42.88980466313660144805908203125</LatitudeDegrees>
              <LongitudeDegrees>-8.53224190883338451385498046875</LongitudeDegrees>
            </Position>
            <AltitudeMeters>299</AltitudeMeters>
            <DistanceMeters>100850.67290756</DistanceMeters>
          </Trackpoint>
          <Trackpoint>
            <Time>2019-07-26T16:17:38.000Z</Time>
            <Position>
              <LatitudeDegrees>42.88974045775830745697021484375</LatitudeDegrees>
              <LongitudeDegrees>-8.53229974396526813507080078125</LongitudeDegrees>
            </Position>
            <AltitudeMeters>299</AltitudeMeters>
            <DistanceMeters>100859.23480925</DistanceMeters>
          </Trackpoint>
          <Trackpoint>
            <Time>2019-07-26T16:17:39.000Z</Time>
            <Position>
              <LatitudeDegrees>42.8896904177963733673095703125</LatitudeDegrees>
              <LongitudeDegrees>-8.5323202796280384063720703125</LongitudeDegrees>
            </Position>
            <AltitudeMeters>299</AltitudeMeters>
            <DistanceMeters>100865.05087892</DistanceMeters>
          </Trackpoint>
          <Trackpoint>
            <Time>2019-07-26T16:17:41.000Z</Time>
            <Position>
              <LatitudeDegrees>42.88956024684011936187744140625</LatitudeDegrees>
              <LongitudeDegrees>-8.53237576782703399658203125</LongitudeDegrees>
            </Position>
            <AltitudeMeters>299</AltitudeMeters>
            <DistanceMeters>100880.22899837</DistanceMeters>
          </Trackpoint>
          <Trackpoint>
            <Time>2019-07-26T16:17:42.000Z</Time>
            <Position>
              <LatitudeDegrees>42.8894872404634952545166015625</LatitudeDegrees>
              <LongitudeDegrees>-8.53239186108112335205078125</LongitudeDegrees>
            </Position>
            <AltitudeMeters>299</AltitudeMeters>
            <DistanceMeters>100888.45965044</DistanceMeters>
          </Trackpoint>
          <Trackpoint>
            <Time>2019-07-26T16:17:43.000Z</Time>
            <Position>
              <LatitudeDegrees>42.88941004313528537750244140625</LatitudeDegrees>
              <LongitudeDegrees>-8.53239043615758419036865234375</LongitudeDegrees>
            </Position>
            <AltitudeMeters>299</AltitudeMeters>
            <DistanceMeters>100897.05313432</DistanceMeters>
          </Trackpoint>
          <Trackpoint>
            <Time>2019-07-26T16:17:45.000Z</Time>
            <Position>
              <LatitudeDegrees>42.88924760185182094573974609375</LatitudeDegrees>
              <LongitudeDegrees>-8.53239856660366058349609375</LongitudeDegrees>
            </Position>
            <AltitudeMeters>299</AltitudeMeters>
            <DistanceMeters>100915.14543216</DistanceMeters>
          </Trackpoint>
          <Trackpoint>
            <Time>2019-07-26T16:17:46.000Z</Time>
            <Position>
              <LatitudeDegrees>42.88916395045816898345947265625</LatitudeDegrees>
              <LongitudeDegrees>-8.5324198566377162933349609375</LongitudeDegrees>
            </Position>
            <AltitudeMeters>299</AltitudeMeters>
            <DistanceMeters>100924.61669287</DistanceMeters>
          </Trackpoint>
          <Trackpoint>
            <Time>2019-07-26T16:17:47.000Z</Time>
            <Position>
              <LatitudeDegrees>42.889077030122280120849609375</LatitudeDegrees>
              <LongitudeDegrees>-8.532441817224025726318359375</LongitudeDegrees>
            </Position>
            <AltitudeMeters>298.79998779296875</AltitudeMeters>
            <DistanceMeters>100934.45551492</DistanceMeters>
          </Trackpoint>
          <Trackpoint>
            <Time>2019-07-26T16:17:49.000Z</Time>
            <Position>
              <LatitudeDegrees>42.88889623247087001800537109375</LatitudeDegrees>
              <LongitudeDegrees>-8.5324775241315364837646484375</LongitudeDegrees>
            </Position>
            <AltitudeMeters>298.600006103515625</AltitudeMeters>
            <DistanceMeters>100954.78812321</DistanceMeters>
          </Trackpoint>
          <Trackpoint>
            <Time>2019-07-26T16:17:52.000Z</Time>
            <Position>
              <LatitudeDegrees>42.8886185400187969207763671875</LatitudeDegrees>
              <LongitudeDegrees>-8.53251683525741100311279296875</LongitudeDegrees>
            </Position>
            <AltitudeMeters>298.20001220703125</AltitudeMeters>
            <DistanceMeters>100985.86156821</DistanceMeters>
          </Trackpoint>
          <Trackpoint>
            <Time>2019-07-26T16:17:53.000Z</Time>
            <Position>
              <LatitudeDegrees>42.88852508179843425750732421875</LatitudeDegrees>
              <LongitudeDegrees>-8.53252856992185115814208984375</LongitudeDegrees>
            </Position>
            <AltitudeMeters>298</AltitudeMeters>
            <DistanceMeters>100996.30672898</DistanceMeters>
          </Trackpoint>
          <Trackpoint>
            <Time>2019-07-26T16:17:56.000Z</Time>
            <Position>
              <LatitudeDegrees>42.88824579678475856781005859375</LatitudeDegrees>
              <LongitudeDegrees>-8.5325677134096622467041015625</LongitudeDegrees>
            </Position>
            <AltitudeMeters>296.79998779296875</AltitudeMeters>
            <DistanceMeters>101027.55491703</DistanceMeters>
          </Trackpoint>
          <Trackpoint>
            <Time>2019-07-26T16:18:01.000Z</Time>
            <Position>
              <LatitudeDegrees>42.88779267109930515289306640625</LatitudeDegrees>
              <LongitudeDegrees>-8.532673157751560211181640625</LongitudeDegrees>
            </Position>
            <AltitudeMeters>295.20001220703125</AltitudeMeters>
            <DistanceMeters>101078.71645637</DistanceMeters>
          </Trackpoint>
          <Trackpoint>
            <Time>2019-07-26T16:18:03.000Z</Time>
            <Position>
              <LatitudeDegrees>42.8876093588769435882568359375</LatitudeDegrees>
              <LongitudeDegrees>-8.53270777501165866851806640625</LongitudeDegrees>
            </Position>
            <AltitudeMeters>294</AltitudeMeters>
            <DistanceMeters>101099.31381182</DistanceMeters>
          </Trackpoint>
          <Trackpoint>
            <Time>2019-07-26T16:18:06.000Z</Time>
            <Position>
              <LatitudeDegrees>42.88733057677745819091796875</LatitudeDegrees>
              <LongitudeDegrees>-8.53274197317659854888916015625</LongitudeDegrees>
            </Position>
            <AltitudeMeters>292.600006103515625</AltitudeMeters>
            <DistanceMeters>101130.46765021</DistanceMeters>
          </Trackpoint>
          <Trackpoint>
            <Time>2019-07-26T16:18:08.000Z</Time>
            <Position>
              <LatitudeDegrees>42.8871460072696208953857421875</LatitudeDegrees>
              <LongitudeDegrees>-8.53275789879262447357177734375</LongitudeDegrees>
            </Position>
            <AltitudeMeters>291.20001220703125</AltitudeMeters>
            <DistanceMeters>101151.05141048</DistanceMeters>
          </Trackpoint>
          <Trackpoint>
            <Time>2019-07-26T16:18:10.000Z</Time>
            <Position>
              <LatitudeDegrees>42.88696856237947940826416015625</LatitudeDegrees>
              <LongitudeDegrees>-8.53277281858026981353759765625</LongitudeDegrees>
            </Position>
            <AltitudeMeters>290.600006103515625</AltitudeMeters>
            <DistanceMeters>101170.83888416</DistanceMeters>
          </Trackpoint>
          <Trackpoint>
            <Time>2019-07-26T16:18:12.000Z</Time>
            <Position>
              <LatitudeDegrees>42.88679623045027256011962890625</LatitudeDegrees>
              <LongitudeDegrees>-8.5327906720340251922607421875</LongitudeDegrees>
            </Position>
            <AltitudeMeters>290</AltitudeMeters>
            <DistanceMeters>101190.07516427</DistanceMeters>
          </Trackpoint>
          <Trackpoint>
            <Time>2019-07-26T16:18:13.000Z</Time>
            <Position>
              <LatitudeDegrees>42.886711657047271728515625</LatitudeDegrees>
              <LongitudeDegrees>-8.5327997244894504547119140625</LongitudeDegrees>
            </Position>
            <AltitudeMeters>289.600006103515625</AltitudeMeters>
            <DistanceMeters>101199.51730093</DistanceMeters>
          </Trackpoint>
          <Trackpoint>
            <Time>2019-07-26T16:18:14.000Z</Time>
            <Position>
              <LatitudeDegrees>42.88662842474877834320068359375</LatitudeDegrees>
              <LongitudeDegrees>-8.532809279859066009521484375</LongitudeDegrees>
            </Position>
            <AltitudeMeters>289.20001220703125</AltitudeMeters>
            <DistanceMeters>101208.81439143</DistanceMeters>
          </Trackpoint>
          <Trackpoint>
            <Time>2019-07-26T16:18:15.000Z</Time>
            <Position>
              <LatitudeDegrees>42.886546365916728973388671875</LatitudeDegrees>
              <LongitudeDegrees>-8.53282210417091846466064453125</LongitudeDegrees>
            </Position>
            <AltitudeMeters>288.600006103515625</AltitudeMeters>
            <DistanceMeters>101218.00696753</DistanceMeters>
          </Trackpoint>
          <Trackpoint>
            <Time>2019-07-26T16:18:17.000Z</Time>
            <Position>
              <LatitudeDegrees>42.8863909654319286346435546875</LatitudeDegrees>
              <LongitudeDegrees>-8.53286351077258586883544921875</LongitudeDegrees>
            </Position>
            <AltitudeMeters>287.600006103515625</AltitudeMeters>
            <DistanceMeters>101235.62974793</DistanceMeters>
          </Trackpoint>
          <Trackpoint>
            <Time>2019-07-26T16:18:18.000Z</Time>
            <Position>
              <LatitudeDegrees>42.886315025389194488525390625</LatitudeDegrees>
              <LongitudeDegrees>-8.53289435617625713348388671875</LongitudeDegrees>
            </Position>
            <AltitudeMeters>287</AltitudeMeters>
            <DistanceMeters>101244.44830894</DistanceMeters>
          </Trackpoint>
          <Trackpoint>
            <Time>2019-07-26T16:18:19.000Z</Time>
            <Position>
              <LatitudeDegrees>42.88623816333711147308349609375</LatitudeDegrees>
              <LongitudeDegrees>-8.53293274529278278350830078125</LongitudeDegrees>
            </Position>
            <AltitudeMeters>286.399993896484375</AltitudeMeters>
            <DistanceMeters>101253.55799623</DistanceMeters>
          </Trackpoint>
          <Trackpoint>
            <Time>2019-07-26T16:18:20.000Z</Time>
            <Position>
              <LatitudeDegrees>42.886159457266330718994140625</LatitudeDegrees>
              <LongitudeDegrees>-8.532976247370243072509765625</LongitudeDegrees>
            </Position>
            <AltitudeMeters>285.600006103515625</AltitudeMeters>
            <DistanceMeters>101263.00921394</DistanceMeters>
          </Trackpoint>
          <Trackpoint>
            <Time>2019-07-26T16:18:22.000Z</Time>
            <Position>
              <LatitudeDegrees>42.8859956748783588409423828125</LatitudeDegrees>
              <LongitudeDegrees>-8.53306869976222515106201171875</LongitudeDegrees>
            </Position>
            <AltitudeMeters>284</AltitudeMeters>
            <DistanceMeters>101282.73589927</DistanceMeters>
          </Trackpoint>
          <Trackpoint>
            <Time>2019-07-26T16:18:24.000Z</Time>
            <Position>
              <LatitudeDegrees>42.88583063520491123199462890625</LatitudeDegrees>
              <LongitudeDegrees>-8.53316375054419040679931640625</LongitudeDegrees>
            </Position>
            <AltitudeMeters>282</AltitudeMeters>
            <DistanceMeters>101302.67340075</DistanceMeters>
          </Trackpoint>
          <Trackpoint>
            <Time>2019-07-26T16:18:25.000Z</Time>
            <Position>
              <LatitudeDegrees>42.88574832491576671600341796875</LatitudeDegrees>
              <LongitudeDegrees>-8.5332094319164752960205078125</LongitudeDegrees>
            </Position>
            <AltitudeMeters>281.600006103515625</AltitudeMeters>
            <DistanceMeters>101312.56348609</DistanceMeters>
          </Trackpoint>
          <Trackpoint>
            <Time>2019-07-26T16:18:26.000Z</Time>
            <Position>
              <LatitudeDegrees>42.8856671042740345001220703125</LatitudeDegrees>
              <LongitudeDegrees>-8.5332557000219821929931640625</LongitudeDegrees>
            </Position>
            <AltitudeMeters>281</AltitudeMeters>
            <DistanceMeters>101322.35999835</DistanceMeters>
          </Trackpoint>
          <Trackpoint>
            <Time>2019-07-26T16:18:29.000Z</Time>
            <Position>
              <LatitudeDegrees>42.8854226879775524139404296875</LatitudeDegrees>
              <LongitudeDegrees>-8.533400706946849822998046875</LongitudeDegrees>
            </Position>
            <AltitudeMeters>279.79998779296875</AltitudeMeters>
            <DistanceMeters>101352.02325355</DistanceMeters>
          </Trackpoint>
          <Trackpoint>
            <Time>2019-07-26T16:18:31.000Z</Time>
            <Position>
              <LatitudeDegrees>42.8852516971528530120849609375</LatitudeDegrees>
              <LongitudeDegrees>-8.53349902667105197906494140625</LongitudeDegrees>
            </Position>
            <AltitudeMeters>278.600006103515625</AltitudeMeters>
            <DistanceMeters>101372.67490022</DistanceMeters>
          </Trackpoint>
          <Trackpoint>
            <Time>2019-07-26T16:18:32.000Z</Time>
            <Position>
              <LatitudeDegrees>42.88516108877956867218017578125</LatitudeDegrees>
              <LongitudeDegrees>-8.533536829054355621337890625</LongitudeDegrees>
            </Position>
            <AltitudeMeters>278.20001220703125</AltitudeMeters>
            <DistanceMeters>101383.21986875</DistanceMeters>
          </Trackpoint>
          <Trackpoint>
            <Time>2019-07-26T16:18:34.000Z</Time>
            <Position>
              <LatitudeDegrees>42.88496914319694042205810546875</LatitudeDegrees>
              <LongitudeDegrees>-8.53356876410543918609619140625</LongitudeDegrees>
            </Position>
            <AltitudeMeters>277.399993896484375</AltitudeMeters>
            <DistanceMeters>101404.74210844</DistanceMeters>
          </Trackpoint>
          <Trackpoint>
            <Time>2019-07-26T16:18:35.000Z</Time>
            <Position>
              <LatitudeDegrees>42.8848703205585479736328125</LatitudeDegrees>
              <LongitudeDegrees>-8.533564992249011993408203125</LongitudeDegrees>
            </Position>
            <AltitudeMeters>277</AltitudeMeters>
            <DistanceMeters>101415.74552905</DistanceMeters>
          </Trackpoint>
          <Trackpoint>
            <Time>2019-07-26T16:18:36.000Z</Time>
            <Position>
              <LatitudeDegrees>42.8847705759108066558837890625</LatitudeDegrees>
              <LongitudeDegrees>-8.53355501778423786163330078125</LongitudeDegrees>
            </Position>
            <AltitudeMeters>276.20001220703125</AltitudeMeters>
            <DistanceMeters>101426.87664215</DistanceMeters>
          </Trackpoint>
          <Trackpoint>
            <Time>2019-07-26T16:18:38.000Z</Time>
            <Position>
              <LatitudeDegrees>42.88457871414721012115478515625</LatitudeDegrees>
              <LongitudeDegrees>-8.533532135188579559326171875</LongitudeDegrees>
            </Position>
            <AltitudeMeters>275</AltitudeMeters>
            <DistanceMeters>101448.31248689</DistanceMeters>
          </Trackpoint>
          <Trackpoint>
            <Time>2019-07-26T16:18:39.000Z</Time>
            <Position>
              <LatitudeDegrees>42.88450528867542743682861328125</LatitudeDegrees>
              <LongitudeDegrees>-8.53352668695151805877685546875</LongitudeDegrees>
            </Position>
            <AltitudeMeters>274.600006103515625</AltitudeMeters>
            <DistanceMeters>101456.49692988</DistanceMeters>
          </Trackpoint>
          <Trackpoint>
            <Time>2019-07-26T16:18:40.000Z</Time>
            <Position>
              <LatitudeDegrees>42.8844560869038105010986328125</LatitudeDegrees>
              <LongitudeDegrees>-8.5335297882556915283203125</LongitudeDegrees>
            </Position>
            <AltitudeMeters>274.20001220703125</AltitudeMeters>
            <DistanceMeters>101461.97890894</DistanceMeters>
          </Trackpoint>
          <Trackpoint>
            <Time>2019-07-26T16:18:41.000Z</Time>
            <Position>
              <LatitudeDegrees>42.88442700169980525970458984375</LatitudeDegrees>
              <LongitudeDegrees>-8.5335333086550235748291015625</LongitudeDegrees>
            </Position>
            <AltitudeMeters>273.79998779296875</AltitudeMeters>
            <DistanceMeters>101465.22793331</DistanceMeters>
          </Trackpoint>
          <Trackpoint>
            <Time>2019-07-26T16:18:43.000Z</Time>
            <Position>
              <LatitudeDegrees>42.88439163006842136383056640625</LatitudeDegrees>
              <LongitudeDegrees>-8.5335366614162921905517578125</LongitudeDegrees>
            </Position>
            <AltitudeMeters>273.20001220703125</AltitudeMeters>
            <DistanceMeters>101469.17354502</DistanceMeters>
          </Trackpoint>
          <Trackpoint>
            <Time>2019-07-26T16:18:44.000Z</Time>
            <Position>
              <LatitudeDegrees>42.884378470480442047119140625</LatitudeDegrees>
              <LongitudeDegrees>-8.533535487949848175048828125</LongitudeDegrees>
            </Position>
            <AltitudeMeters>272.79998779296875</AltitudeMeters>
            <DistanceMeters>101470.63954577</DistanceMeters>
          </Trackpoint>
          <Trackpoint>
            <Time>2019-07-26T16:18:47.000Z</Time>
            <Position>
              <LatitudeDegrees>42.8843665681779384613037109375</LatitudeDegrees>
              <LongitudeDegrees>-8.53353188373148441314697265625</LongitudeDegrees>
            </Position>
            <AltitudeMeters>271</AltitudeMeters>
            <DistanceMeters>101471.99679873</DistanceMeters>
          </Trackpoint>
          <Trackpoint>
            <Time>2019-07-26T16:19:52.000Z</Time>
            <Position>
              <LatitudeDegrees>42.88433178327977657318115234375</LatitudeDegrees>
              <LongitudeDegrees>-8.5335386730730533599853515625</LongitudeDegrees>
            </Position>
            <AltitudeMeters>267.79998779296875</AltitudeMeters>
            <DistanceMeters>101475.90793022</DistanceMeters>
          </Trackpoint>
          <Trackpoint>
            <Time>2019-07-26T16:19:54.000Z</Time>
            <Position>
              <LatitudeDegrees>42.88425751961767673492431640625</LatitudeDegrees>
              <LongitudeDegrees>-8.5335403494536876678466796875</LongitudeDegrees>
            </Position>
            <AltitudeMeters>267.79998779296875</AltitudeMeters>
            <DistanceMeters>101484.17470822</DistanceMeters>
          </Trackpoint>
          <Trackpoint>
            <Time>2019-07-26T16:19:55.000Z</Time>
            <Position>
              <LatitudeDegrees>42.88421091623604297637939453125</LatitudeDegrees>
              <LongitudeDegrees>-8.53354898281395435333251953125</LongitudeDegrees>
            </Position>
            <AltitudeMeters>267.600006103515625</AltitudeMeters>
            <DistanceMeters>101489.40894665</DistanceMeters>
          </Trackpoint>
          <Trackpoint>
            <Time>2019-07-26T16:19:57.000Z</Time>
            <Position>
              <LatitudeDegrees>42.8841130994260311126708984375</LatitudeDegrees>
              <LongitudeDegrees>-8.5335691832005977630615234375</LongitudeDegrees>
            </Position>
            <AltitudeMeters>267.600006103515625</AltitudeMeters>
            <DistanceMeters>101500.4205708</DistanceMeters>
          </Trackpoint>
          <Trackpoint>
            <Time>2019-07-26T16:20:01.000Z</Time>
            <Position>
              <LatitudeDegrees>42.88388335146009922027587890625</LatitudeDegrees>
              <LongitudeDegrees>-8.53356138803064823150634765625</LongitudeDegrees>
            </Position>
            <AltitudeMeters>267.600006103515625</AltitudeMeters>
            <DistanceMeters>101525.9998843</DistanceMeters>
          </Trackpoint>
          <Trackpoint>
            <Time>2019-07-26T16:20:07.000Z</Time>
            <Position>
              <LatitudeDegrees>42.88344816304743289947509765625</LatitudeDegrees>
              <LongitudeDegrees>-8.5335299558937549591064453125</LongitudeDegrees>
            </Position>
            <AltitudeMeters>266.79998779296875</AltitudeMeters>
            <DistanceMeters>101574.50504173</DistanceMeters>
          </Trackpoint>
          <Trackpoint>
            <Time>2019-07-26T16:20:08.000Z</Time>
            <Position>
              <LatitudeDegrees>42.8833634220063686370849609375</LatitudeDegrees>
              <LongitudeDegrees>-8.53351796977221965789794921875</LongitudeDegrees>
            </Position>
            <AltitudeMeters>266.600006103515625</AltitudeMeters>
            <DistanceMeters>101583.98773656</DistanceMeters>
          </Trackpoint>
          <Trackpoint>
            <Time>2019-07-26T16:20:12.000Z</Time>
            <Position>
              <LatitudeDegrees>42.8830281458795070648193359375</LatitudeDegrees>
              <LongitudeDegrees>-8.53349634446203708648681640625</LongitudeDegrees>
            </Position>
            <AltitudeMeters>265.79998779296875</AltitudeMeters>
            <DistanceMeters>101621.34629013</DistanceMeters>
          </Trackpoint>
          <Trackpoint>
            <Time>2019-07-26T16:20:13.000Z</Time>
            <Position>
              <LatitudeDegrees>42.88294105790555477142333984375</LatitudeDegrees>
              <LongitudeDegrees>-8.5334863699972629547119140625</LongitudeDegrees>
            </Position>
            <AltitudeMeters>265.600006103515625</AltitudeMeters>
            <DistanceMeters>101631.07342439</DistanceMeters>
          </Trackpoint>
          <Trackpoint>
            <Time>2019-07-26T16:20:16.000Z</Time>
            <Position>
              <LatitudeDegrees>42.88267853669822216033935546875</LatitudeDegrees>
              <LongitudeDegrees>-8.53346566669642925262451171875</LongitudeDegrees>
            </Position>
            <AltitudeMeters>264.20001220703125</AltitudeMeters>
            <DistanceMeters>101660.34134389</DistanceMeters>
          </Trackpoint>
          <Trackpoint>
            <Time>2019-07-26T16:20:19.000Z</Time>
            <Position>
              <LatitudeDegrees>42.88241601549088954925537109375</LatitudeDegrees>
              <LongitudeDegrees>-8.53345267474651336669921875</LongitudeDegrees>
            </Position>
            <AltitudeMeters>263</AltitudeMeters>
            <DistanceMeters>101689.57978377</DistanceMeters>
          </Trackpoint>
          <Trackpoint>
            <Time>2019-07-26T16:20:22.000Z</Time>
            <Position>
              <LatitudeDegrees>42.88213958032429218292236328125</LatitudeDegrees>
              <LongitudeDegrees>-8.53342694230377674102783203125</LongitudeDegrees>
            </Position>
            <AltitudeMeters>262</AltitudeMeters>
            <DistanceMeters>101720.41899066</DistanceMeters>
          </Trackpoint>
          <Trackpoint>
            <Time>2019-07-26T16:20:24.000Z</Time>
            <Position>
              <LatitudeDegrees>42.88195786066353321075439453125</LatitudeDegrees>
              <LongitudeDegrees>-8.53340900503098964691162109375</LongitudeDegrees>
            </Position>
            <AltitudeMeters>261</AltitudeMeters>
            <DistanceMeters>101740.69734417</DistanceMeters>
          </Trackpoint>
          <Trackpoint>
            <Time>2019-07-26T16:20:26.000Z</Time>
            <Position>
              <LatitudeDegrees>42.88177848793566226959228515625</LatitudeDegrees>
              <LongitudeDegrees>-8.533391989767551422119140625</LongitudeDegrees>
            </Position>
            <AltitudeMeters>260.20001220703125</AltitudeMeters>
            <DistanceMeters>101760.7101146</DistanceMeters>
          </Trackpoint>
          <Trackpoint>
            <Time>2019-07-26T16:20:28.000Z</Time>
            <Position>
              <LatitudeDegrees>42.88159442134201526641845703125</LatitudeDegrees>
              <LongitudeDegrees>-8.5333728790283203125</LongitudeDegrees>
            </Position>
            <AltitudeMeters>259.600006103515625</AltitudeMeters>
            <DistanceMeters>101781.25611211</DistanceMeters>
          </Trackpoint>
          <Trackpoint>
            <Time>2019-07-26T16:20:30.000Z</Time>
            <Position>
              <LatitudeDegrees>42.881407923996448516845703125</LatitudeDegrees>
              <LongitudeDegrees>-8.53335636667907238006591796875</LongitudeDegrees>
            </Position>
            <AltitudeMeters>258.399993896484375</AltitudeMeters>
            <DistanceMeters>101802.05719725</DistanceMeters>
          </Trackpoint>
          <Trackpoint>
            <Time>2019-07-26T16:20:32.000Z</Time>
            <Position>
              <LatitudeDegrees>42.881228886544704437255859375</LatitudeDegrees>
              <LongitudeDegrees>-8.5333405248820781707763671875</LongitudeDegrees>
            </Position>
            <AltitudeMeters>257.600006103515625</AltitudeMeters>
            <DistanceMeters>101822.0263779</DistanceMeters>
          </Trackpoint>
          <Trackpoint>
            <Time>2019-07-26T16:20:33.000Z</Time>
            <Position>
              <LatitudeDegrees>42.88114028982818126678466796875</LatitudeDegrees>
              <LongitudeDegrees>-8.53332619182765483856201171875</LongitudeDegrees>
            </Position>
            <AltitudeMeters>257</AltitudeMeters>
            <DistanceMeters>101831.95655588</DistanceMeters>
          </Trackpoint>
          <Trackpoint>
            <Time>2019-07-26T16:20:36.000Z</Time>
            <Position>
              <LatitudeDegrees>42.880878187716007232666015625</LatitudeDegrees>
              <LongitudeDegrees>-8.53329869918525218963623046875</LongitudeDegrees>
            </Position>
            <AltitudeMeters>256</AltitudeMeters>
            <DistanceMeters>101861.21521797</DistanceMeters>
          </Trackpoint>
          <Trackpoint>
            <Time>2019-07-26T16:20:39.000Z</Time>
            <Position>
              <LatitudeDegrees>42.88066034205257892608642578125</LatitudeDegrees>
              <LongitudeDegrees>-8.53328612633049488067626953125</LongitudeDegrees>
            </Position>
            <AltitudeMeters>255</AltitudeMeters>
            <DistanceMeters>101885.48370877</DistanceMeters>
          </Trackpoint>
          <Trackpoint>
            <Time>2019-07-26T16:20:41.000Z</Time>
            <Position>
              <LatitudeDegrees>42.8805761039257049560546875</LatitudeDegrees>
              <LongitudeDegrees>-8.5332717932760715484619140625</LongitudeDegrees>
            </Position>
            <AltitudeMeters>253.8000030517578125</AltitudeMeters>
            <DistanceMeters>101894.93205972</DistanceMeters>
          </Trackpoint>
          <Trackpoint>
            <Time>2019-07-26T16:20:43.000Z</Time>
            <Position>
              <LatitudeDegrees>42.88050343282520771026611328125</LatitudeDegrees>
              <LongitudeDegrees>-8.53327439166605472564697265625</LongitudeDegrees>
            </Position>
            <AltitudeMeters>253</AltitudeMeters>
            <DistanceMeters>101903.02329289</DistanceMeters>
          </Trackpoint>
          <Trackpoint>
            <Time>2019-07-26T16:20:44.000Z</Time>
            <Position>
              <LatitudeDegrees>42.8804663009941577911376953125</LatitudeDegrees>
              <LongitudeDegrees>-8.53326148353517055511474609375</LongitudeDegrees>
            </Position>
            <AltitudeMeters>252.600006103515625</AltitudeMeters>
            <DistanceMeters>101907.28786485</DistanceMeters>
          </Trackpoint>
          <Trackpoint>
            <Time>2019-07-26T16:20:46.000Z</Time>
            <Position>
              <LatitudeDegrees>42.880385331809520721435546875</LatitudeDegrees>
              <LongitudeDegrees>-8.53322527371346950531005859375</LongitudeDegrees>
            </Position>
            <AltitudeMeters>251.600006103515625</AltitudeMeters>
            <DistanceMeters>101916.7715119</DistanceMeters>
          </Trackpoint>
          <Trackpoint>
            <Time>2019-07-26T16:20:48.000Z</Time>
            <Position>
              <LatitudeDegrees>42.880300171673297882080078125</LatitudeDegrees>
              <LongitudeDegrees>-8.533207587897777557373046875</LongitudeDegrees>
            </Position>
            <AltitudeMeters>250</AltitudeMeters>
            <DistanceMeters>101926.35885502</DistanceMeters>
          </Trackpoint>
          <Trackpoint>
            <Time>2019-07-26T16:20:49.000Z</Time>
            <Position>
              <LatitudeDegrees>42.880263626575469970703125</LatitudeDegrees>
              <LongitudeDegrees>-8.5332094319164752960205078125</LongitudeDegrees>
            </Position>
            <AltitudeMeters>249.600006103515625</AltitudeMeters>
            <DistanceMeters>101930.42950488</DistanceMeters>
          </Trackpoint>
          <Trackpoint>
            <Time>2019-07-26T16:20:51.000Z</Time>
            <Position>
              <LatitudeDegrees>42.8802141733467578887939453125</LatitudeDegrees>
              <LongitudeDegrees>-8.53320532478392124176025390625</LongitudeDegrees>
            </Position>
            <AltitudeMeters>249</AltitudeMeters>
            <DistanceMeters>101935.94269246</DistanceMeters>
          </Trackpoint>
          <Trackpoint>
            <Time>2019-07-26T16:20:52.000Z</Time>
            <Position>
              <LatitudeDegrees>42.88020797073841094970703125</LatitudeDegrees>
              <LongitudeDegrees>-8.53320297785103321075439453125</LongitudeDegrees>
            </Position>
            <AltitudeMeters>248.8000030517578125</AltitudeMeters>
            <DistanceMeters>101936.65380727</DistanceMeters>
          </Trackpoint>
          <Trackpoint>
            <Time>2019-07-26T16:20:54.000Z</Time>
            <Position>
              <LatitudeDegrees>42.88020931184291839599609375</LatitudeDegrees>
              <LongitudeDegrees>-8.53320649825036525726318359375</LongitudeDegrees>
            </Position>
            <AltitudeMeters>248.600006103515625</AltitudeMeters>
            <DistanceMeters>101936.98298947</DistanceMeters>
          </Trackpoint>
          <Trackpoint>
            <Time>2019-07-26T16:22:44.000Z</Time>
            <Position>
              <LatitudeDegrees>42.8801353834569454193115234375</LatitudeDegrees>
              <LongitudeDegrees>-8.53314866311848163604736328125</LongitudeDegrees>
            </Position>
            <AltitudeMeters>246.600006103515625</AltitudeMeters>
            <DistanceMeters>101946.46758864</DistanceMeters>
          </Trackpoint>
          <Trackpoint>
            <Time>2019-07-26T16:22:45.000Z</Time>
            <Position>
              <LatitudeDegrees>42.88010261021554470062255859375</LatitudeDegrees>
              <LongitudeDegrees>-8.533145226538181304931640625</LongitudeDegrees>
            </Position>
            <AltitudeMeters>246.600006103515625</AltitudeMeters>
            <DistanceMeters>101950.12580861</DistanceMeters>
          </Trackpoint>
          <Trackpoint>
            <Time>2019-07-26T16:22:49.000Z</Time>
            <Position>
              <LatitudeDegrees>42.87994620390236377716064453125</LatitudeDegrees>
              <LongitudeDegrees>-8.53317565284669399261474609375</LongitudeDegrees>
            </Position>
            <AltitudeMeters>246.600006103515625</AltitudeMeters>
            <DistanceMeters>101967.71011632</DistanceMeters>
          </Trackpoint>
          <Trackpoint>
            <Time>2019-07-26T16:22:50.000Z</Time>
            <Position>
              <LatitudeDegrees>42.8799063898622989654541015625</LatitudeDegrees>
              <LongitudeDegrees>-8.53319677524268627166748046875</LongitudeDegrees>
            </Position>
            <AltitudeMeters>246.600006103515625</AltitudeMeters>
            <DistanceMeters>101972.46525158</DistanceMeters>
          </Trackpoint>
          <Trackpoint>
            <Time>2019-07-26T16:22:52.000Z</Time>
            <Position>
              <LatitudeDegrees>42.8798319585621356964111328125</LatitudeDegrees>
              <LongitudeDegrees>-8.53325075469911098480224609375</LongitudeDegrees>
            </Position>
            <AltitudeMeters>246.600006103515625</AltitudeMeters>
            <DistanceMeters>101981.84646286</DistanceMeters>
          </Trackpoint>
          <Trackpoint>
            <Time>2019-07-26T16:22:53.000Z</Time>
            <Position>
              <LatitudeDegrees>42.87980019114911556243896484375</LatitudeDegrees>
              <LongitudeDegrees>-8.53328101336956024169921875</LongitudeDegrees>
            </Position>
            <AltitudeMeters>246.600006103515625</AltitudeMeters>
            <DistanceMeters>101986.15841455</DistanceMeters>
          </Trackpoint>
          <Trackpoint>
            <Time>2019-07-26T16:22:55.000Z</Time>
            <Position>
              <LatitudeDegrees>42.879750318825244903564453125</LatitudeDegrees>
              <LongitudeDegrees>-8.533332645893096923828125</LongitudeDegrees>
            </Position>
            <AltitudeMeters>246.600006103515625</AltitudeMeters>
            <DistanceMeters>101993.12588834</DistanceMeters>
          </Trackpoint>
          <Trackpoint>
            <Time>2019-07-26T16:22:56.000Z</Time>
            <Position>
              <LatitudeDegrees>42.87974621169269084930419921875</LatitudeDegrees>
              <LongitudeDegrees>-8.53337346576154232025146484375</LongitudeDegrees>
            </Position>
            <AltitudeMeters>246.1999969482421875</AltitudeMeters>
            <DistanceMeters>101996.48559004</DistanceMeters>
          </Trackpoint>
          <Trackpoint>
            <Time>2019-07-26T16:22:58.000Z</Time>
            <Position>
              <LatitudeDegrees>42.87976599298417568206787109375</LatitudeDegrees>
              <LongitudeDegrees>-8.533434234559535980224609375</LongitudeDegrees>
            </Position>
            <AltitudeMeters>246</AltitudeMeters>
            <DistanceMeters>102001.90960968</DistanceMeters>
          </Trackpoint>
          <Trackpoint>
            <Time>2019-07-26T16:23:00.000Z</Time>
            <Position>
              <LatitudeDegrees>42.87979222834110260009765625</LatitudeDegrees>
              <LongitudeDegrees>-8.53347404859960079193115234375</LongitudeDegrees>
            </Position>
            <AltitudeMeters>246</AltitudeMeters>
            <DistanceMeters>102006.276705</DistanceMeters>
          </Trackpoint>
          <Trackpoint>
            <Time>2019-07-26T16:23:03.000Z</Time>
            <Position>
              <LatitudeDegrees>42.87983606569468975067138671875</LatitudeDegrees>
              <LongitudeDegrees>-8.53352450765669345855712890625</LongitudeDegrees>
            </Position>
            <AltitudeMeters>246</AltitudeMeters>
            <DistanceMeters>102012.65978457</DistanceMeters>
          </Trackpoint>
          <Trackpoint>
            <Time>2019-07-26T16:23:05.000Z</Time>
            <Position>
              <LatitudeDegrees>42.8798658214509487152099609375</LatitudeDegrees>
              <LongitudeDegrees>-8.53353976272046566009521484375</LongitudeDegrees>
            </Position>
            <AltitudeMeters>246</AltitudeMeters>
            <DistanceMeters>102016.19753611</DistanceMeters>
          </Trackpoint>
          <Trackpoint>
            <Time>2019-07-26T16:23:07.000Z</Time>
            <Position>
              <LatitudeDegrees>42.87990010343492031097412109375</LatitudeDegrees>
              <LongitudeDegrees>-8.533540852367877960205078125</LongitudeDegrees>
            </Position>
            <AltitudeMeters>246.399993896484375</AltitudeMeters>
            <DistanceMeters>102020.01519814</DistanceMeters>
          </Trackpoint>
          <Trackpoint>
            <Time>2019-07-26T16:23:10.000Z</Time>
            <Position>
              <LatitudeDegrees>42.879970259964466094970703125</LatitudeDegrees>
              <LongitudeDegrees>-8.53352685458958148956298828125</LongitudeDegrees>
            </Position>
            <AltitudeMeters>247</AltitudeMeters>
            <DistanceMeters>102027.90642157</DistanceMeters>
          </Trackpoint>
          <Trackpoint>
            <Time>2019-07-26T16:23:13.000Z</Time>
            <Position>
              <LatitudeDegrees>42.88005466572940349578857421875</LatitudeDegrees>
              <LongitudeDegrees>-8.53352702222764492034912109375</LongitudeDegrees>
            </Position>
            <AltitudeMeters>247.8000030517578125</AltitudeMeters>
            <DistanceMeters>102037.30109917</DistanceMeters>
          </Trackpoint>
          <Trackpoint>
            <Time>2019-07-26T16:23:16.000Z</Time>
            <Position>
              <LatitudeDegrees>42.88013965822756290435791015625</LatitudeDegrees>
              <LongitudeDegrees>-8.5335219092667102813720703125</LongitudeDegrees>
            </Position>
            <AltitudeMeters>248.399993896484375</AltitudeMeters>
            <DistanceMeters>102046.77045285</DistanceMeters>
          </Trackpoint>
          <Trackpoint>
            <Time>2019-07-26T16:23:17.000Z</Time>
            <Position>
              <LatitudeDegrees>42.8801648877561092376708984375</LatitudeDegrees>
              <LongitudeDegrees>-8.53352584876120090484619140625</LongitudeDegrees>
            </Position>
            <AltitudeMeters>248.600006103515625</AltitudeMeters>
            <DistanceMeters>102049.59580018</DistanceMeters>
          </Trackpoint>
          <Trackpoint>
            <Time>2019-07-26T16:23:19.000Z</Time>
            <Position>
              <LatitudeDegrees>42.8802135027945041656494140625</LatitudeDegrees>
              <LongitudeDegrees>-8.53352551348507404327392578125</LongitudeDegrees>
            </Position>
            <AltitudeMeters>248.8000030517578125</AltitudeMeters>
            <DistanceMeters>102055.00648478</DistanceMeters>
          </Trackpoint>
          <Trackpoint>
            <Time>2019-07-26T16:23:22.000Z</Time>
            <Position>
              <LatitudeDegrees>42.880301512777805328369140625</LatitudeDegrees>
              <LongitudeDegrees>-8.5335326381027698516845703125</LongitudeDegrees>
            </Position>
            <AltitudeMeters>249.399993896484375</AltitudeMeters>
            <DistanceMeters>102064.81957477</DistanceMeters>
          </Trackpoint>
          <Trackpoint>
            <Time>2019-07-26T16:23:23.000Z</Time>
            <Position>
              <LatitudeDegrees>42.880333699285984039306640625</LatitudeDegrees>
              <LongitudeDegrees>-8.53354060091078281402587890625</LongitudeDegrees>
            </Position>
            <AltitudeMeters>249.600006103515625</AltitudeMeters>
            <DistanceMeters>102068.46047469</DistanceMeters>
          </Trackpoint>
          <Trackpoint>
            <Time>2019-07-26T16:23:24.000Z</Time>
            <Position>
              <LatitudeDegrees>42.880365215241909027099609375</LatitudeDegrees>
              <LongitudeDegrees>-8.5335445404052734375</LongitudeDegrees>
            </Position>
            <AltitudeMeters>250</AltitudeMeters>
            <DistanceMeters>102071.982878</DistanceMeters>
          </Trackpoint>
          <Trackpoint>
            <Time>2019-07-26T16:23:28.000Z</Time>
            <Position>
              <LatitudeDegrees>42.8804716654121875762939453125</LatitudeDegrees>
              <LongitudeDegrees>-8.53356608189642429351806640625</LongitudeDegrees>
            </Position>
            <AltitudeMeters>251</AltitudeMeters>
            <DistanceMeters>102083.96076824</DistanceMeters>
          </Trackpoint>
          <Trackpoint>
            <Time>2019-07-26T16:23:29.000Z</Time>
            <Position>
              <LatitudeDegrees>42.88049236871302127838134765625</LatitudeDegrees>
              <LongitudeDegrees>-8.53356800973415374755859375</LongitudeDegrees>
            </Position>
            <AltitudeMeters>251.1999969482421875</AltitudeMeters>
            <DistanceMeters>102086.27286799</DistanceMeters>
          </Trackpoint>
          <Trackpoint>
            <Time>2019-07-26T16:23:32.000Z</Time>
            <Position>
              <LatitudeDegrees>42.880548946559429168701171875</LatitudeDegrees>
              <LongitudeDegrees>-8.53359273634850978851318359375</LongitudeDegrees>
            </Position>
            <AltitudeMeters>251.600006103515625</AltitudeMeters>
            <DistanceMeters>102092.88593537</DistanceMeters>
          </Trackpoint>
          <Trackpoint>
            <Time>2019-07-26T16:23:34.000Z</Time>
            <Position>
              <LatitudeDegrees>42.8805883415043354034423828125</LatitudeDegrees>
              <LongitudeDegrees>-8.5336074046790599822998046875</LongitudeDegrees>
            </Position>
            <AltitudeMeters>252.399993896484375</AltitudeMeters>
            <DistanceMeters>102097.43035886</DistanceMeters>
          </Trackpoint>
          <Trackpoint>
            <Time>2019-07-26T16:23:38.000Z</Time>
            <Position>
              <LatitudeDegrees>42.8806567378342151641845703125</LatitudeDegrees>
              <LongitudeDegrees>-8.5336479730904102325439453125</LongitudeDegrees>
            </Position>
            <AltitudeMeters>253.600006103515625</AltitudeMeters>
            <DistanceMeters>102105.73093012</DistanceMeters>
          </Trackpoint>
          <Trackpoint>
            <Time>2019-07-26T16:23:40.000Z</Time>
            <Position>
              <LatitudeDegrees>42.88067811168730258941650390625</LatitudeDegrees>
              <LongitudeDegrees>-8.53368141688406467437744140625</LongitudeDegrees>
            </Position>
            <AltitudeMeters>254</AltitudeMeters>
            <DistanceMeters>102109.35193426</DistanceMeters>
          </Trackpoint>
          <Trackpoint>
            <Time>2019-07-26T16:23:43.000Z</Time>
            <Position>
              <LatitudeDegrees>42.88072136230766773223876953125</LatitudeDegrees>
              <LongitudeDegrees>-8.53372047655284404754638671875</LongitudeDegrees>
            </Position>
            <AltitudeMeters>255</AltitudeMeters>
            <DistanceMeters>102115.1243672</DistanceMeters>
          </Trackpoint>
          <Trackpoint>
            <Time>2019-07-26T16:23:47.000Z</Time>
            <Position>
              <LatitudeDegrees>42.88079529069364070892333984375</LatitudeDegrees>
              <LongitudeDegrees>-8.53378334082663059234619140625</LongitudeDegrees>
            </Position>
            <AltitudeMeters>256.20001220703125</AltitudeMeters>
            <DistanceMeters>102124.81942087</DistanceMeters>
          </Trackpoint>
          <Trackpoint>
            <Time>2019-07-26T16:23:48.000Z</Time>
            <Position>
              <LatitudeDegrees>42.88081607781350612640380859375</LatitudeDegrees>
              <LongitudeDegrees>-8.53380328975617885589599609375</LongitudeDegrees>
            </Position>
            <AltitudeMeters>256.600006103515625</AltitudeMeters>
            <DistanceMeters>102127.6479625</DistanceMeters>
          </Trackpoint>
          <Trackpoint>
            <Time>2019-07-26T16:23:50.000Z</Time>
            <Position>
              <LatitudeDegrees>42.8808505274355411529541015625</LatitudeDegrees>
              <LongitudeDegrees>-8.5338382422924041748046875</LongitudeDegrees>
            </Position>
            <AltitudeMeters>257.20001220703125</AltitudeMeters>
            <DistanceMeters>102132.42583161</DistanceMeters>
          </Trackpoint>
          <Trackpoint>
            <Time>2019-07-26T16:23:54.000Z</Time>
            <Position>
              <LatitudeDegrees>42.8809118829667568206787109375</LatitudeDegrees>
              <LongitudeDegrees>-8.53390269912779331207275390625</LongitudeDegrees>
            </Position>
            <AltitudeMeters>258.600006103515625</AltitudeMeters>
            <DistanceMeters>102141.04449791</DistanceMeters>
          </Trackpoint>
          <Trackpoint>
            <Time>2019-07-26T16:23:56.000Z</Time>
            <Position>
              <LatitudeDegrees>42.8809390403330326080322265625</LatitudeDegrees>
              <LongitudeDegrees>-8.5339416749775409698486328125</LongitudeDegrees>
            </Position>
            <AltitudeMeters>259.20001220703125</AltitudeMeters>
            <DistanceMeters>102145.4311929</DistanceMeters>
          </Trackpoint>
          <Trackpoint>
            <Time>2019-07-26T16:23:57.000Z</Time>
            <Position>
              <LatitudeDegrees>42.88095488213002681732177734375</LatitudeDegrees>
              <LongitudeDegrees>-8.53395667858421802520751953125</LongitudeDegrees>
            </Position>
            <AltitudeMeters>259.399993896484375</AltitudeMeters>
            <DistanceMeters>102147.57719826</DistanceMeters>
          </Trackpoint>
          <Trackpoint>
            <Time>2019-07-26T16:24:01.000Z</Time>
            <Position>
              <LatitudeDegrees>42.8810014016926288604736328125</LatitudeDegrees>
              <LongitudeDegrees>-8.534035719931125640869140625</LongitudeDegrees>
            </Position>
            <AltitudeMeters>260.600006103515625</AltitudeMeters>
            <DistanceMeters>102155.84506852</DistanceMeters>
          </Trackpoint>
          <Trackpoint>
            <Time>2019-07-26T16:24:03.000Z</Time>
            <Position>
              <LatitudeDegrees>42.88101472891867160797119140625</LatitudeDegrees>
              <LongitudeDegrees>-8.53407628834247589111328125</LongitudeDegrees>
            </Position>
            <AltitudeMeters>261.20001220703125</AltitudeMeters>
            <DistanceMeters>102159.47105684</DistanceMeters>
          </Trackpoint>
          <Trackpoint>
            <Time>2019-07-26T16:24:06.000Z</Time>
            <Position>
              <LatitudeDegrees>42.881031744182109832763671875</LatitudeDegrees>
              <LongitudeDegrees>-8.53413999080657958984375</LongitudeDegrees>
            </Position>
            <AltitudeMeters>261.79998779296875</AltitudeMeters>
            <DistanceMeters>102165.00059921</DistanceMeters>
          </Trackpoint>
          <Trackpoint>
            <Time>2019-07-26T16:24:09.000Z</Time>
            <Position>
              <LatitudeDegrees>42.88105697371065616607666015625</LatitudeDegrees>
              <LongitudeDegrees>-8.53420042432844638824462890625</LongitudeDegrees>
            </Position>
            <AltitudeMeters>262.79998779296875</AltitudeMeters>
            <DistanceMeters>102170.67362243</DistanceMeters>
          </Trackpoint>
          <Trackpoint>
            <Time>2019-07-26T16:24:10.000Z</Time>
            <Position>
              <LatitudeDegrees>42.88106627762317657470703125</LatitudeDegrees>
              <LongitudeDegrees>-8.53422087617218494415283203125</LongitudeDegrees>
            </Position>
            <AltitudeMeters>263.20001220703125</AltitudeMeters>
            <DistanceMeters>102172.63495172</DistanceMeters>
          </Trackpoint>
          <Trackpoint>
            <Time>2019-07-26T16:24:13.000Z</Time>
            <Position>
              <LatitudeDegrees>42.8810959495604038238525390625</LatitudeDegrees>
              <LongitudeDegrees>-8.5342719219624996185302734375</LongitudeDegrees>
            </Position>
            <AltitudeMeters>264.20001220703125</AltitudeMeters>
            <DistanceMeters>102177.94965576</DistanceMeters>
          </Trackpoint>
          <Trackpoint>
            <Time>2019-07-26T16:24:14.000Z</Time>
            <Position>
              <LatitudeDegrees>42.88110290654003620147705078125</LatitudeDegrees>
              <LongitudeDegrees>-8.53428793139755725860595703125</LongitudeDegrees>
            </Position>
            <AltitudeMeters>264.79998779296875</AltitudeMeters>
            <DistanceMeters>102179.47008319</DistanceMeters>
          </Trackpoint>
          <Trackpoint>
            <Time>2019-07-26T16:24:16.000Z</Time>
            <Position>
              <LatitudeDegrees>42.881118245422840118408203125</LatitudeDegrees>
              <LongitudeDegrees>-8.5343225486576557159423828125</LongitudeDegrees>
            </Position>
            <AltitudeMeters>265.20001220703125</AltitudeMeters>
            <DistanceMeters>102182.77012443</DistanceMeters>
          </Trackpoint>
          <Trackpoint>
            <Time>2019-07-26T16:24:17.000Z</Time>
            <Position>
              <LatitudeDegrees>42.88112394511699676513671875</LatitudeDegrees>
              <LongitudeDegrees>-8.53433956392109394073486328125</LongitudeDegrees>
            </Position>
            <AltitudeMeters>265.399993896484375</AltitudeMeters>
            <DistanceMeters>102184.29647948</DistanceMeters>
          </Trackpoint>
          <Trackpoint>
            <Time>2019-07-26T16:24:20.000Z</Time>
            <Position>
              <LatitudeDegrees>42.881141714751720428466796875</LatitudeDegrees>
              <LongitudeDegrees>-8.5343934595584869384765625</LongitudeDegrees>
            </Position>
            <AltitudeMeters>266.600006103515625</AltitudeMeters>
            <DistanceMeters>102189.11668556</DistanceMeters>
          </Trackpoint>
          <Trackpoint>
            <Time>2019-07-26T16:24:23.000Z</Time>
            <Position>
              <LatitudeDegrees>42.8811774216592311859130859375</LatitudeDegrees>
              <LongitudeDegrees>-8.5344388894736766815185546875</LongitudeDegrees>
            </Position>
            <AltitudeMeters>267</AltitudeMeters>
            <DistanceMeters>102194.54985406</DistanceMeters>
          </Trackpoint>
          <Trackpoint>
            <Time>2019-07-26T16:24:25.000Z</Time>
            <Position>
              <LatitudeDegrees>42.88119628094136714935302734375</LatitudeDegrees>
              <LongitudeDegrees>-8.5344693996012210845947265625</LongitudeDegrees>
            </Position>
            <AltitudeMeters>267.600006103515625</AltitudeMeters>
            <DistanceMeters>102197.80581931</DistanceMeters>
          </Trackpoint>
          <Trackpoint>
            <Time>2019-07-26T16:24:29.000Z</Time>
            <Position>
              <LatitudeDegrees>42.88123793900012969970703125</LatitudeDegrees>
              <LongitudeDegrees>-8.53452287614345550537109375</LongitudeDegrees>
            </Position>
            <AltitudeMeters>268.600006103515625</AltitudeMeters>
            <DistanceMeters>102204.17048136</DistanceMeters>
          </Trackpoint>
          <Trackpoint>
            <Time>2019-07-26T16:24:31.000Z</Time>
            <Position>
              <LatitudeDegrees>42.881257049739360809326171875</LatitudeDegrees>
              <LongitudeDegrees>-8.53455179370939731597900390625</LongitudeDegrees>
            </Position>
            <AltitudeMeters>269.20001220703125</AltitudeMeters>
            <DistanceMeters>102207.34784276</DistanceMeters>
          </Trackpoint>
          <Trackpoint>
            <Time>2019-07-26T16:24:34.000Z</Time>
            <Position>
              <LatitudeDegrees>42.8812816925346851348876953125</LatitudeDegrees>
              <LongitudeDegrees>-8.5345917753875255584716796875</LongitudeDegrees>
            </Position>
            <AltitudeMeters>270</AltitudeMeters>
            <DistanceMeters>102211.61029672</DistanceMeters>
          </Trackpoint>
          <Trackpoint>
            <Time>2019-07-26T16:24:40.000Z</Time>
            <Position>
              <LatitudeDegrees>42.8813427127897739410400390625</LatitudeDegrees>
              <LongitudeDegrees>-8.53465120308101177215576171875</LongitudeDegrees>
            </Position>
            <AltitudeMeters>271</AltitudeMeters>
            <DistanceMeters>102219.95372883</DistanceMeters>
          </Trackpoint>
          <Trackpoint>
            <Time>2019-07-26T16:24:44.000Z</Time>
            <Position>
              <LatitudeDegrees>42.88139007054269313812255859375</LatitudeDegrees>
              <LongitudeDegrees>-8.5346992313861846923828125</LongitudeDegrees>
            </Position>
            <AltitudeMeters>272.20001220703125</AltitudeMeters>
            <DistanceMeters>102226.52089299</DistanceMeters>
          </Trackpoint>
          <Trackpoint>
            <Time>2019-07-26T16:24:45.000Z</Time>
            <Position>
              <LatitudeDegrees>42.88139996118843555450439453125</LatitudeDegrees>
              <LongitudeDegrees>-8.53471599519252777099609375</LongitudeDegrees>
            </Position>
            <AltitudeMeters>273.600006103515625</AltitudeMeters>
            <DistanceMeters>102228.27824501</DistanceMeters>
          </Trackpoint>
          <Trackpoint>
            <Time>2019-07-26T16:24:47.000Z</Time>
            <Position>
              <LatitudeDegrees>42.88142058067023754119873046875</LatitudeDegrees>
              <LongitudeDegrees>-8.53473770432174205780029296875</LongitudeDegrees>
            </Position>
            <AltitudeMeters>274</AltitudeMeters>
            <DistanceMeters>102231.17617032</DistanceMeters>
          </Trackpoint>
          <Trackpoint>
            <Time>2019-07-26T16:24:49.000Z</Time>
            <Position>
              <LatitudeDegrees>42.88144136779010295867919921875</LatitudeDegrees>
              <LongitudeDegrees>-8.5347537137567996978759765625</LongitudeDegrees>
            </Position>
            <AltitudeMeters>274.399993896484375</AltitudeMeters>
            <DistanceMeters>102233.83182273</DistanceMeters>
          </Trackpoint>
          <Trackpoint>
            <Time>2019-07-26T16:24:50.000Z</Time>
            <Position>
              <LatitudeDegrees>42.88145176135003566741943359375</LatitudeDegrees>
              <LongitudeDegrees>-8.53476368822157382965087890625</LongitudeDegrees>
            </Position>
            <AltitudeMeters>274.600006103515625</AltitudeMeters>
            <DistanceMeters>102235.2444964</DistanceMeters>
          </Trackpoint>
          <Trackpoint>
            <Time>2019-07-26T16:24:53.000Z</Time>
            <Position>
              <LatitudeDegrees>42.88148738443851470947265625</LatitudeDegrees>
              <LongitudeDegrees>-8.53479201905429363250732421875</LongitudeDegrees>
            </Position>
            <AltitudeMeters>274.79998779296875</AltitudeMeters>
            <DistanceMeters>102239.83341111</DistanceMeters>
          </Trackpoint>
          <Trackpoint>
            <Time>2019-07-26T16:24:56.000Z</Time>
            <Position>
              <LatitudeDegrees>42.881516553461551666259765625</LatitudeDegrees>
              <LongitudeDegrees>-8.5348237864673137664794921875</LongitudeDegrees>
            </Position>
            <AltitudeMeters>275.600006103515625</AltitudeMeters>
            <DistanceMeters>102243.9875026</DistanceMeters>
          </Trackpoint>
          <Trackpoint>
            <Time>2019-07-26T16:25:00.000Z</Time>
            <Position>
              <LatitudeDegrees>42.88153742440044879913330078125</LatitudeDegrees>
              <LongitudeDegrees>-8.53488371707499027252197265625</LongitudeDegrees>
            </Position>
            <AltitudeMeters>276.399993896484375</AltitudeMeters>
            <DistanceMeters>102249.39985587</DistanceMeters>
          </Trackpoint>
          <Trackpoint>
            <Time>2019-07-26T16:25:01.000Z</Time>
            <Position>
              <LatitudeDegrees>42.8815318085253238677978515625</LatitudeDegrees>
              <LongitudeDegrees>-8.53490701876580715179443359375</LongitudeDegrees>
            </Position>
            <AltitudeMeters>276.399993896484375</AltitudeMeters>
            <DistanceMeters>102251.39767814</DistanceMeters>
          </Trackpoint>
          <Trackpoint>
            <Time>2019-07-26T16:25:03.000Z</Time>
            <Position>
              <LatitudeDegrees>42.8815308026969432830810546875</LatitudeDegrees>
              <LongitudeDegrees>-8.53494373150169849395751953125</LongitudeDegrees>
            </Position>
            <AltitudeMeters>276.600006103515625</AltitudeMeters>
            <DistanceMeters>102254.39365811</DistanceMeters>
          </Trackpoint>
          <Trackpoint>
            <Time>2019-07-26T16:25:04.000Z</Time>
            <Position>
              <LatitudeDegrees>42.88153105415403842926025390625</LatitudeDegrees>
              <LongitudeDegrees>-8.53497642092406749725341796875</LongitudeDegrees>
            </Position>
            <AltitudeMeters>277</AltitudeMeters>
            <DistanceMeters>102257.05949197</DistanceMeters>
          </Trackpoint>
          <Trackpoint>
            <Time>2019-07-26T16:25:06.000Z</Time>
            <Position>
              <LatitudeDegrees>42.881551422178745269775390625</LatitudeDegrees>
              <LongitudeDegrees>-8.5350182466208934783935546875</LongitudeDegrees>
            </Position>
            <AltitudeMeters>277.399993896484375</AltitudeMeters>
            <DistanceMeters>102261.15557327</DistanceMeters>
          </Trackpoint>
          <Trackpoint>
            <Time>2019-07-26T16:25:09.000Z</Time>
            <Position>
              <LatitudeDegrees>42.88159458898007869720458984375</LatitudeDegrees>
              <LongitudeDegrees>-8.53505873121321201324462890625</LongitudeDegrees>
            </Position>
            <AltitudeMeters>277.79998779296875</AltitudeMeters>
            <DistanceMeters>102266.98559966</DistanceMeters>
          </Trackpoint>
          <Trackpoint>
            <Time>2019-07-26T16:25:10.000Z</Time>
            <Position>
              <LatitudeDegrees>42.88161286152899265289306640625</LatitudeDegrees>
              <LongitudeDegrees>-8.53507717140018939971923828125</LongitudeDegrees>
            </Position>
            <AltitudeMeters>278</AltitudeMeters>
            <DistanceMeters>102269.51588111</DistanceMeters>
          </Trackpoint>
          <Trackpoint>
            <Time>2019-07-26T16:25:14.000Z</Time>
            <Position>
              <LatitudeDegrees>42.88168075494468212127685546875</LatitudeDegrees>
              <LongitudeDegrees>-8.5351563803851604461669921875</LongitudeDegrees>
            </Position>
            <AltitudeMeters>278.399993896484375</AltitudeMeters>
            <DistanceMeters>102279.4578737</DistanceMeters>
          </Trackpoint>
          <Trackpoint>
            <Time>2019-07-26T16:25:16.000Z</Time>
            <Position>
              <LatitudeDegrees>42.88170640356838703155517578125</LatitudeDegrees>
              <LongitudeDegrees>-8.535210192203521728515625</LongitudeDegrees>
            </Position>
            <AltitudeMeters>278.600006103515625</AltitudeMeters>
            <DistanceMeters>102284.69383704</DistanceMeters>
          </Trackpoint>
          <Trackpoint>
            <Time>2019-07-26T16:25:19.000Z</Time>
            <Position>
              <LatitudeDegrees>42.881737835705280303955078125</LatitudeDegrees>
              <LongitudeDegrees>-8.535291664302349090576171875</LongitudeDegrees>
            </Position>
            <AltitudeMeters>278.600006103515625</AltitudeMeters>
            <DistanceMeters>102292.20275156</DistanceMeters>
          </Trackpoint>
          <Trackpoint>
            <Time>2019-07-26T16:25:21.000Z</Time>
            <Position>
              <LatitudeDegrees>42.88173993118107318878173828125</LatitudeDegrees>
              <LongitudeDegrees>-8.53534555993974208831787109375</LongitudeDegrees>
            </Position>
            <AltitudeMeters>278.600006103515625</AltitudeMeters>
            <DistanceMeters>102296.60485834</DistanceMeters>
          </Trackpoint>
          <Trackpoint>
            <Time>2019-07-26T16:25:22.000Z</Time>
            <Position>
              <LatitudeDegrees>42.881735153496265411376953125</LatitudeDegrees>
              <LongitudeDegrees>-8.535375483334064483642578125</LongitudeDegrees>
            </Position>
            <AltitudeMeters>278.600006103515625</AltitudeMeters>
            <DistanceMeters>102299.10462091</DistanceMeters>
          </Trackpoint>
          <Trackpoint>
            <Time>2019-07-26T16:25:23.000Z</Time>
            <Position>
              <LatitudeDegrees>42.8817319683730602264404296875</LatitudeDegrees>
              <LongitudeDegrees>-8.53540222160518169403076171875</LongitudeDegrees>
            </Position>
            <AltitudeMeters>278.79998779296875</AltitudeMeters>
            <DistanceMeters>102301.31692772</DistanceMeters>
          </Trackpoint>
          <Trackpoint>
            <Time>2019-07-26T16:25:24.000Z</Time>
            <Position>
              <LatitudeDegrees>42.88172953762114048004150390625</LatitudeDegrees>
              <LongitudeDegrees>-8.535429127514362335205078125</LongitudeDegrees>
            </Position>
            <AltitudeMeters>278.79998779296875</AltitudeMeters>
            <DistanceMeters>102303.52923453</DistanceMeters>
          </Trackpoint>
          <Trackpoint>
            <Time>2019-07-26T16:25:25.000Z</Time>
            <Position>
              <LatitudeDegrees>42.88172744214534759521484375</LatitudeDegrees>
              <LongitudeDegrees>-8.5354529321193695068359375</LongitudeDegrees>
            </Position>
            <AltitudeMeters>278.600006103515625</AltitudeMeters>
            <DistanceMeters>102305.48595434</DistanceMeters>
          </Trackpoint>
          <Trackpoint>
            <Time>2019-07-26T16:25:26.000Z</Time>
            <Position>
              <LatitudeDegrees>42.88172383792698383331298828125</LatitudeDegrees>
              <LongitudeDegrees>-8.5354797542095184326171875</LongitudeDegrees>
            </Position>
            <AltitudeMeters>278.600006103515625</AltitudeMeters>
            <DistanceMeters>102307.71047269</DistanceMeters>
          </Trackpoint>
          <Trackpoint>
            <Time>2019-07-26T16:25:27.000Z</Time>
            <Position>
              <LatitudeDegrees>42.8817205689847469329833984375</LatitudeDegrees>
              <LongitudeDegrees>-8.53550632484257221221923828125</LongitudeDegrees>
            </Position>
            <AltitudeMeters>278.600006103515625</AltitudeMeters>
            <DistanceMeters>102309.91050018</DistanceMeters>
          </Trackpoint>
          <Trackpoint>
            <Time>2019-07-26T16:25:28.000Z</Time>
            <Position>
              <LatitudeDegrees>42.88171403110027313232421875</LatitudeDegrees>
              <LongitudeDegrees>-8.535546474158763885498046875</LongitudeDegrees>
            </Position>
            <AltitudeMeters>278.600006103515625</AltitudeMeters>
            <DistanceMeters>102313.26482206</DistanceMeters>
          </Trackpoint>
          <Trackpoint>
            <Time>2019-07-26T16:25:32.000Z</Time>
            <Position>
              <LatitudeDegrees>42.8816934116184711456298828125</LatitudeDegrees>
              <LongitudeDegrees>-8.53575057350099086761474609375</LongitudeDegrees>
            </Position>
            <AltitudeMeters>278.600006103515625</AltitudeMeters>
            <DistanceMeters>102330.06816787</DistanceMeters>
          </Trackpoint>
          <Trackpoint>
            <Time>2019-07-26T16:25:35.000Z</Time>
            <Position>
              <LatitudeDegrees>42.8816786594688892364501953125</LatitudeDegrees>
              <LongitudeDegrees>-8.53589138947427272796630859375</LongitudeDegrees>
            </Position>
            <AltitudeMeters>278.600006103515625</AltitudeMeters>
            <DistanceMeters>102341.66960266</DistanceMeters>
          </Trackpoint>
          <Trackpoint>
            <Time>2019-07-26T16:25:37.000Z</Time>
            <Position>
              <LatitudeDegrees>42.88166415877640247344970703125</LatitudeDegrees>
              <LongitudeDegrees>-8.5359732806682586669921875</LongitudeDegrees>
            </Position>
            <AltitudeMeters>278.399993896484375</AltitudeMeters>
            <DistanceMeters>102348.54050069</DistanceMeters>
          </Trackpoint>
          <Trackpoint>
            <Time>2019-07-26T16:25:39.000Z</Time>
            <Position>
              <LatitudeDegrees>42.881653010845184326171875</LatitudeDegrees>
              <LongitudeDegrees>-8.53604343719780445098876953125</LongitudeDegrees>
            </Position>
            <AltitudeMeters>278</AltitudeMeters>
            <DistanceMeters>102354.39448566</DistanceMeters>
          </Trackpoint>
          <Trackpoint>
            <Time>2019-07-26T16:25:42.000Z</Time>
            <Position>
              <LatitudeDegrees>42.881633229553699493408203125</LatitudeDegrees>
              <LongitudeDegrees>-8.53609867393970489501953125</LongitudeDegrees>
            </Position>
            <AltitudeMeters>277.600006103515625</AltitudeMeters>
            <DistanceMeters>102359.40843948</DistanceMeters>
          </Trackpoint>
          <Trackpoint>
            <Time>2019-07-26T16:26:14.000Z</Time>
            <Position>
              <LatitudeDegrees>42.88159375078976154327392578125</LatitudeDegrees>
              <LongitudeDegrees>-8.53627159260213375091552734375</LongitudeDegrees>
            </Position>
            <AltitudeMeters>275.79998779296875</AltitudeMeters>
            <DistanceMeters>102374.1801275</DistanceMeters>
          </Trackpoint>
          <Trackpoint>
            <Time>2019-07-26T16:26:15.000Z</Time>
            <Position>
              <LatitudeDegrees>42.88159123621881008148193359375</LatitudeDegrees>
              <LongitudeDegrees>-8.536296822130680084228515625</LongitudeDegrees>
            </Position>
            <AltitudeMeters>275.79998779296875</AltitudeMeters>
            <DistanceMeters>102376.25771662</DistanceMeters>
          </Trackpoint>
          <Trackpoint>
            <Time>2019-07-26T16:26:17.000Z</Time>
            <Position>
              <LatitudeDegrees>42.881583608686923980712890625</LatitudeDegrees>
              <LongitudeDegrees>-8.53634770028293132781982421875</LongitudeDegrees>
            </Position>
            <AltitudeMeters>275.79998779296875</AltitudeMeters>
            <DistanceMeters>102380.49360636</DistanceMeters>
          </Trackpoint>
          <Trackpoint>
            <Time>2019-07-26T16:26:18.000Z</Time>
            <Position>
              <LatitudeDegrees>42.8815827704966068267822265625</LatitudeDegrees>
              <LongitudeDegrees>-8.5363720916211605072021484375</LongitudeDegrees>
            </Position>
            <AltitudeMeters>275.79998779296875</AltitudeMeters>
            <DistanceMeters>102382.48690354</DistanceMeters>
          </Trackpoint>
          <Trackpoint>
            <Time>2019-07-26T16:26:21.000Z</Time>
            <Position>
              <LatitudeDegrees>42.8815629892051219940185546875</LatitudeDegrees>
              <LongitudeDegrees>-8.536450378596782684326171875</LongitudeDegrees>
            </Position>
            <AltitudeMeters>275.79998779296875</AltitudeMeters>
            <DistanceMeters>102389.24115747</DistanceMeters>
          </Trackpoint>
          <Trackpoint>
            <Time>2019-07-26T16:26:26.000Z</Time>
            <Position>
              <LatitudeDegrees>42.88150087930262088775634765625</LatitudeDegrees>
              <LongitudeDegrees>-8.5366362892091274261474609375</LongitudeDegrees>
            </Position>
            <AltitudeMeters>275.399993896484375</AltitudeMeters>
            <DistanceMeters>102405.90527793</DistanceMeters>
          </Trackpoint>
          <Trackpoint>
            <Time>2019-07-26T16:26:28.000Z</Time>
            <Position>
              <LatitudeDegrees>42.88147321902215480804443359375</LatitudeDegrees>
              <LongitudeDegrees>-8.53671382181346416473388671875</LongitudeDegrees>
            </Position>
            <AltitudeMeters>275</AltitudeMeters>
            <DistanceMeters>102412.93853883</DistanceMeters>
          </Trackpoint>
          <Trackpoint>
            <Time>2019-07-26T16:26:31.000Z</Time>
            <Position>
              <LatitudeDegrees>42.881438098847866058349609375</LatitudeDegrees>
              <LongitudeDegrees>-8.5368575714528560638427734375</LongitudeDegrees>
            </Position>
            <AltitudeMeters>274.79998779296875</AltitudeMeters>
            <DistanceMeters>102425.29712746</DistanceMeters>
          </Trackpoint>
          <Trackpoint>
            <Time>2019-07-26T16:26:32.000Z</Time>
            <Position>
              <LatitudeDegrees>42.8814245201647281646728515625</LatitudeDegrees>
              <LongitudeDegrees>-8.53690811432898044586181640625</LongitudeDegrees>
            </Position>
            <AltitudeMeters>274.79998779296875</AltitudeMeters>
            <DistanceMeters>102429.68793754</DistanceMeters>
          </Trackpoint>
          <Trackpoint>
            <Time>2019-07-26T16:26:33.000Z</Time>
            <Position>
              <LatitudeDegrees>42.8814188204705715179443359375</LatitudeDegrees>
              <LongitudeDegrees>-8.5369628481566905975341796875</LongitudeDegrees>
            </Position>
            <AltitudeMeters>274.79998779296875</AltitudeMeters>
            <DistanceMeters>102434.19645194</DistanceMeters>
          </Trackpoint>
          <Trackpoint>
            <Time>2019-07-26T16:26:36.000Z</Time>
            <Position>
              <LatitudeDegrees>42.8813802637159824371337890625</LatitudeDegrees>
              <LongitudeDegrees>-8.53715554811060428619384765625</LongitudeDegrees>
            </Position>
            <AltitudeMeters>274.399993896484375</AltitudeMeters>
            <DistanceMeters>102450.48792231</DistanceMeters>
          </Trackpoint>
          <Trackpoint>
            <Time>2019-07-26T16:26:38.000Z</Time>
            <Position>
              <LatitudeDegrees>42.8813718818128108978271484375</LatitudeDegrees>
              <LongitudeDegrees>-8.537289239466190338134765625</LongitudeDegrees>
            </Position>
            <AltitudeMeters>274.399993896484375</AltitudeMeters>
            <DistanceMeters>102461.43127069</DistanceMeters>
          </Trackpoint>
          <Trackpoint>
            <Time>2019-07-26T16:26:40.000Z</Time>
            <Position>
              <LatitudeDegrees>42.88135754875838756561279296875</LatitudeDegrees>
              <LongitudeDegrees>-8.5374295525252819061279296875</LongitudeDegrees>
            </Position>
            <AltitudeMeters>274.20001220703125</AltitudeMeters>
            <DistanceMeters>102472.98551884</DistanceMeters>
          </Trackpoint>
          <Trackpoint>
            <Time>2019-07-26T16:26:41.000Z</Time>
            <Position>
              <LatitudeDegrees>42.88135386072099208831787109375</LatitudeDegrees>
              <LongitudeDegrees>-8.53750306181609630584716796875</LongitudeDegrees>
            </Position>
            <AltitudeMeters>273.79998779296875</AltitudeMeters>
            <DistanceMeters>102478.99403326</DistanceMeters>
          </Trackpoint>
          <Trackpoint>
            <Time>2019-07-26T16:26:45.000Z</Time>
            <Position>
              <LatitudeDegrees>42.8813175670802593231201171875</LatitudeDegrees>
              <LongitudeDegrees>-8.53777463547885417938232421875</LongitudeDegrees>
            </Position>
            <AltitudeMeters>273.399993896484375</AltitudeMeters>
            <DistanceMeters>102501.50834674</DistanceMeters>
          </Trackpoint>
          <Trackpoint>
            <Time>2019-07-26T16:26:48.000Z</Time>
            <Position>
              <LatitudeDegrees>42.88129552267491817474365234375</LatitudeDegrees>
              <LongitudeDegrees>-8.53791494853794574737548828125</LongitudeDegrees>
            </Position>
            <AltitudeMeters>272.79998779296875</AltitudeMeters>
            <DistanceMeters>102513.21168812</DistanceMeters>
          </Trackpoint>
          <Trackpoint>
            <Time>2019-07-26T16:26:50.000Z</Time>
            <Position>
              <LatitudeDegrees>42.88129451684653759002685546875</LatitudeDegrees>
              <LongitudeDegrees>-8.53802357800304889678955078125</LongitudeDegrees>
            </Position>
            <AltitudeMeters>272.399993896484375</AltitudeMeters>
            <DistanceMeters>102522.07213306</DistanceMeters>
          </Trackpoint>
          <Trackpoint>
            <Time>2019-07-26T16:26:52.000Z</Time>
            <Position>
              <LatitudeDegrees>42.88129250518977642059326171875</LatitudeDegrees>
              <LongitudeDegrees>-8.53813924826681613922119140625</LongitudeDegrees>
            </Position>
            <AltitudeMeters>271.399993896484375</AltitudeMeters>
            <DistanceMeters>102531.50900828</DistanceMeters>
          </Trackpoint>
          <Trackpoint>
            <Time>2019-07-26T16:26:55.000Z</Time>
            <Position>
              <LatitudeDegrees>42.8813286311924457550048828125</LatitudeDegrees>
              <LongitudeDegrees>-8.538319878280162811279296875</LongitudeDegrees>
            </Position>
            <AltitudeMeters>270.399993896484375</AltitudeMeters>
            <DistanceMeters>102546.7796564</DistanceMeters>
          </Trackpoint>
          <Trackpoint>
            <Time>2019-07-26T16:26:56.000Z</Time>
            <Position>
              <LatitudeDegrees>42.88135268725454807281494140625</LatitudeDegrees>
              <LongitudeDegrees>-8.5383830778300762176513671875</LongitudeDegrees>
            </Position>
            <AltitudeMeters>270.20001220703125</AltitudeMeters>
            <DistanceMeters>102552.58795784</DistanceMeters>
          </Trackpoint>
          <Trackpoint>
            <Time>2019-07-26T16:26:58.000Z</Time>
            <Position>
              <LatitudeDegrees>42.881402559578418731689453125</LatitudeDegrees>
              <LongitudeDegrees>-8.5385186970233917236328125</LongitudeDegrees>
            </Position>
            <AltitudeMeters>269.79998779296875</AltitudeMeters>
            <DistanceMeters>102564.96334052</DistanceMeters>
          </Trackpoint>
          <Trackpoint>
            <Time>2019-07-26T16:27:00.000Z</Time>
            <Position>
              <LatitudeDegrees>42.8814573772251605987548828125</LatitudeDegrees>
              <LongitudeDegrees>-8.5386586748063564300537109375</LongitudeDegrees>
            </Position>
            <AltitudeMeters>269</AltitudeMeters>
            <DistanceMeters>102577.90756968</DistanceMeters>
          </Trackpoint>
          <Trackpoint>
            <Time>2019-07-26T16:27:01.000Z</Time>
            <Position>
              <LatitudeDegrees>42.88149082101881504058837890625</LatitudeDegrees>
              <LongitudeDegrees>-8.53872346691787242889404296875</LongitudeDegrees>
            </Position>
            <AltitudeMeters>269</AltitudeMeters>
            <DistanceMeters>102584.37078355</DistanceMeters>
          </Trackpoint>
          <Trackpoint>
            <Time>2019-07-26T16:27:05.000Z</Time>
            <Position>
              <LatitudeDegrees>42.88159064948558807373046875</LatitudeDegrees>
              <LongitudeDegrees>-8.539007864892482757568359375</LongitudeDegrees>
            </Position>
            <AltitudeMeters>268</AltitudeMeters>
            <DistanceMeters>102610.08986518</DistanceMeters>
          </Trackpoint>
          <Trackpoint>
            <Time>2019-07-26T16:27:06.000Z</Time>
            <Position>
              <LatitudeDegrees>42.88161939941346645355224609375</LatitudeDegrees>
              <LongitudeDegrees>-8.53906058706343173980712890625</LongitudeDegrees>
            </Position>
            <AltitudeMeters>267.600006103515625</AltitudeMeters>
            <DistanceMeters>102615.45024793</DistanceMeters>
          </Trackpoint>
          <Trackpoint>
            <Time>2019-07-26T16:27:08.000Z</Time>
            <Position>
              <LatitudeDegrees>42.88167589344084262847900390625</LatitudeDegrees>
              <LongitudeDegrees>-8.53917357511818408966064453125</LongitudeDegrees>
            </Position>
            <AltitudeMeters>266.79998779296875</AltitudeMeters>
            <DistanceMeters>102626.60648133</DistanceMeters>
          </Trackpoint>
          <Trackpoint>
            <Time>2019-07-26T16:27:12.000Z</Time>
            <Position>
              <LatitudeDegrees>42.88180380128324031829833984375</LatitudeDegrees>
              <LongitudeDegrees>-8.53942201472818851470947265625</LongitudeDegrees>
            </Position>
            <AltitudeMeters>266</AltitudeMeters>
            <DistanceMeters>102651.37001281</DistanceMeters>
          </Trackpoint>
          <Trackpoint>
            <Time>2019-07-26T16:27:13.000Z</Time>
            <Position>
              <LatitudeDegrees>42.88183397613465785980224609375</LatitudeDegrees>
              <LongitudeDegrees>-8.539487980306148529052734375</LongitudeDegrees>
            </Position>
            <AltitudeMeters>265.79998779296875</AltitudeMeters>
            <DistanceMeters>102657.71264559</DistanceMeters>
          </Trackpoint>
          <Trackpoint>
            <Time>2019-07-26T16:27:15.000Z</Time>
            <Position>
              <LatitudeDegrees>42.88189449347555637359619140625</LatitudeDegrees>
              <LongitudeDegrees>-8.539606668055057525634765625</LongitudeDegrees>
            </Position>
            <AltitudeMeters>265.20001220703125</AltitudeMeters>
            <DistanceMeters>102669.50515072</DistanceMeters>
          </Trackpoint>
          <Trackpoint>
            <Time>2019-07-26T16:27:17.000Z</Time>
            <Position>
              <LatitudeDegrees>42.8819415159523487091064453125</LatitudeDegrees>
              <LongitudeDegrees>-8.53970825672149658203125</LongitudeDegrees>
            </Position>
            <AltitudeMeters>264.600006103515625</AltitudeMeters>
            <DistanceMeters>102679.30488862</DistanceMeters>
          </Trackpoint>
          <Trackpoint>
            <Time>2019-07-26T16:27:18.000Z</Time>
            <Position>
              <LatitudeDegrees>42.8819586150348186492919921875</LatitudeDegrees>
              <LongitudeDegrees>-8.53975779376924037933349609375</LongitudeDegrees>
            </Position>
            <AltitudeMeters>264.600006103515625</AltitudeMeters>
            <DistanceMeters>102683.77013316</DistanceMeters>
          </Trackpoint>
          <Trackpoint>
            <Time>2019-07-26T16:27:21.000Z</Time>
            <Position>
              <LatitudeDegrees>42.88197479210793972015380859375</LatitudeDegrees>
              <LongitudeDegrees>-8.53987597860395908355712890625</LongitudeDegrees>
            </Position>
            <AltitudeMeters>263.79998779296875</AltitudeMeters>
            <DistanceMeters>102693.57585873</DistanceMeters>
          </Trackpoint>
          <Trackpoint>
            <Time>2019-07-26T16:27:22.000Z</Time>
            <Position>
              <LatitudeDegrees>42.88196490146219730377197265625</LatitudeDegrees>
              <LongitudeDegrees>-8.53990732692182064056396484375</LongitudeDegrees>
            </Position>
            <AltitudeMeters>263.600006103515625</AltitudeMeters>
            <DistanceMeters>102696.35934675</DistanceMeters>
          </Trackpoint>
          <Trackpoint>
            <Time>2019-07-26T16:27:23.000Z</Time>
            <Position>
              <LatitudeDegrees>42.8819628059864044189453125</LatitudeDegrees>
              <LongitudeDegrees>-8.5399300418794155120849609375</LongitudeDegrees>
            </Position>
            <AltitudeMeters>263.600006103515625</AltitudeMeters>
            <DistanceMeters>102698.22632547</DistanceMeters>
          </Trackpoint>
          <Trackpoint>
            <Time>2019-07-26T16:27:25.000Z</Time>
            <Position>
              <LatitudeDegrees>42.88196481764316558837890625</LatitudeDegrees>
              <LongitudeDegrees>-8.539967425167560577392578125</LongitudeDegrees>
            </Position>
            <AltitudeMeters>263.399993896484375</AltitudeMeters>
            <DistanceMeters>102701.28199218</DistanceMeters>
          </Trackpoint>
          <Trackpoint>
            <Time>2019-07-26T16:27:27.000Z</Time>
            <Position>
              <LatitudeDegrees>42.88196255452930927276611328125</LatitudeDegrees>
              <LongitudeDegrees>-8.540013693273067474365234375</LongitudeDegrees>
            </Position>
            <AltitudeMeters>263.20001220703125</AltitudeMeters>
            <DistanceMeters>102705.06400766</DistanceMeters>
          </Trackpoint>
          <Trackpoint>
            <Time>2019-07-26T16:27:30.000Z</Time>
            <Position>
              <LatitudeDegrees>42.88194109685719013214111328125</LatitudeDegrees>
              <LongitudeDegrees>-8.5400675050914287567138671875</LongitudeDegrees>
            </Position>
            <AltitudeMeters>263.20001220703125</AltitudeMeters>
            <DistanceMeters>102710.05991911</DistanceMeters>
          </Trackpoint>
          <Trackpoint>
            <Time>2019-07-26T16:27:32.000Z</Time>
            <Position>
              <LatitudeDegrees>42.8819264285266399383544921875</LatitudeDegrees>
              <LongitudeDegrees>-8.54009172879159450531005859375</LongitudeDegrees>
            </Position>
            <AltitudeMeters>263.20001220703125</AltitudeMeters>
            <DistanceMeters>102712.62211848</DistanceMeters>
          </Trackpoint>
          <Trackpoint>
            <Time>2019-07-26T16:27:33.000Z</Time>
            <Position>
              <LatitudeDegrees>42.8819311223924160003662109375</LatitudeDegrees>
              <LongitudeDegrees>-8.540100194513797760009765625</LongitudeDegrees>
            </Position>
            <AltitudeMeters>263.20001220703125</AltitudeMeters>
            <DistanceMeters>102713.48785305</DistanceMeters>
          </Trackpoint>
          <Trackpoint>
            <Time>2019-07-26T16:27:34.000Z</Time>
            <Position>
              <LatitudeDegrees>42.8819405101239681243896484375</LatitudeDegrees>
              <LongitudeDegrees>-8.540119640529155731201171875</LongitudeDegrees>
            </Position>
            <AltitudeMeters>263.20001220703125</AltitudeMeters>
            <DistanceMeters>102715.38838733</DistanceMeters>
          </Trackpoint>
          <Trackpoint>
            <Time>2019-07-26T16:27:36.000Z</Time>
            <Position>
              <LatitudeDegrees>42.88195383735001087188720703125</LatitudeDegrees>
              <LongitudeDegrees>-8.540184684097766876220703125</LongitudeDegrees>
            </Position>
            <AltitudeMeters>263.20001220703125</AltitudeMeters>
            <DistanceMeters>102720.89665901</DistanceMeters>
          </Trackpoint>
          <Trackpoint>
            <Time>2019-07-26T16:27:37.000Z</Time>
            <Position>
              <LatitudeDegrees>42.88195140659809112548828125</LatitudeDegrees>
              <LongitudeDegrees>-8.54023120366036891937255859375</LongitudeDegrees>
            </Position>
            <AltitudeMeters>263.20001220703125</AltitudeMeters>
            <DistanceMeters>102724.70010251</DistanceMeters>
          </Trackpoint>
          <Trackpoint>
            <Time>2019-07-26T16:27:39.000Z</Time>
            <Position>
              <LatitudeDegrees>42.88193975575268268585205078125</LatitudeDegrees>
              <LongitudeDegrees>-8.54032449424266815185546875</LongitudeDegrees>
            </Position>
            <AltitudeMeters>263.20001220703125</AltitudeMeters>
            <DistanceMeters>102732.41893949</DistanceMeters>
          </Trackpoint>
          <Trackpoint>
            <Time>2019-07-26T16:27:40.000Z</Time>
            <Position>
              <LatitudeDegrees>42.88193841464817523956298828125</LatitudeDegrees>
              <LongitudeDegrees>-8.5403628833591938018798828125</LongitudeDegrees>
            </Position>
            <AltitudeMeters>263.20001220703125</AltitudeMeters>
            <DistanceMeters>102735.55338094</DistanceMeters>
          </Trackpoint>
          <Trackpoint>
            <Time>2019-07-26T16:27:42.000Z</Time>
            <Position>
              <LatitudeDegrees>42.881935648620128631591796875</LatitudeDegrees>
              <LongitudeDegrees>-8.54043253697454929351806640625</LongitudeDegrees>
            </Position>
            <AltitudeMeters>263.20001220703125</AltitudeMeters>
            <DistanceMeters>102741.24309306</DistanceMeters>
          </Trackpoint>
          <Trackpoint>
            <Time>2019-07-26T16:27:45.000Z</Time>
            <Position>
              <LatitudeDegrees>42.8819388337433338165283203125</LatitudeDegrees>
              <LongitudeDegrees>-8.54047193191945552825927734375</LongitudeDegrees>
            </Position>
            <AltitudeMeters>263.600006103515625</AltitudeMeters>
            <DistanceMeters>102744.47679504</DistanceMeters>
          </Trackpoint>
          <Trackpoint>
            <Time>2019-07-26T16:27:46.000Z</Time>
            <Position>
              <LatitudeDegrees>42.8819371573626995086669921875</LatitudeDegrees>
              <LongitudeDegrees>-8.5404832474887371063232421875</LongitudeDegrees>
            </Position>
            <AltitudeMeters>263.79998779296875</AltitudeMeters>
            <DistanceMeters>102745.42229891</DistanceMeters>
          </Trackpoint>
          <Trackpoint>
            <Time>2019-07-26T16:27:48.000Z</Time>
            <Position>
              <LatitudeDegrees>42.8819203935563564300537109375</LatitudeDegrees>
              <LongitudeDegrees>-8.54050747118890285491943359375</LongitudeDegrees>
            </Position>
            <AltitudeMeters>264</AltitudeMeters>
            <DistanceMeters>102748.13846762</DistanceMeters>
          </Trackpoint>
          <Trackpoint>
            <Time>2019-07-26T16:27:51.000Z</Time>
            <Position>
              <LatitudeDegrees>42.88188812322914600372314453125</LatitudeDegrees>
              <LongitudeDegrees>-8.54054510593414306640625</LongitudeDegrees>
            </Position>
            <AltitudeMeters>264.399993896484375</AltitudeMeters>
            <DistanceMeters>102752.86312094</DistanceMeters>
          </Trackpoint>
          <Trackpoint>
            <Time>2019-07-26T16:27:54.000Z</Time>
            <Position>
              <LatitudeDegrees>42.88188024424016475677490234375</LatitudeDegrees>
              <LongitudeDegrees>-8.54059397242963314056396484375</LongitudeDegrees>
            </Position>
            <AltitudeMeters>264.79998779296875</AltitudeMeters>
            <DistanceMeters>102756.94374111</DistanceMeters>
          </Trackpoint>
          <Trackpoint>
            <Time>2019-07-26T16:27:57.000Z</Time>
            <Position>
              <LatitudeDegrees>42.881871275603771209716796875</LatitudeDegrees>
              <LongitudeDegrees>-8.5406592674553394317626953125</LongitudeDegrees>
            </Position>
            <AltitudeMeters>265</AltitudeMeters>
            <DistanceMeters>102762.36193071</DistanceMeters>
          </Trackpoint>
          <Trackpoint>
            <Time>2019-07-26T16:28:04.000Z</Time>
            <Position>
              <LatitudeDegrees>42.88183607161045074462890625</LatitudeDegrees>
              <LongitudeDegrees>-8.54083679616451263427734375</LongitudeDegrees>
            </Position>
            <AltitudeMeters>265.79998779296875</AltitudeMeters>
            <DistanceMeters>102777.36140919</DistanceMeters>
          </Trackpoint>
          <Trackpoint>
            <Time>2019-07-26T16:28:08.000Z</Time>
            <Position>
              <LatitudeDegrees>42.88177966140210628509521484375</LatitudeDegrees>
              <LongitudeDegrees>-8.5409636981785297393798828125</LongitudeDegrees>
            </Position>
            <AltitudeMeters>266.399993896484375</AltitudeMeters>
            <DistanceMeters>102789.46678322</DistanceMeters>
          </Trackpoint>
          <Trackpoint>
            <Time>2019-07-26T16:28:11.000Z</Time>
            <Position>
              <LatitudeDegrees>42.88174982182681560516357421875</LatitudeDegrees>
              <LongitudeDegrees>-8.5410361178219318389892578125</LongitudeDegrees>
            </Position>
            <AltitudeMeters>266.79998779296875</AltitudeMeters>
            <DistanceMeters>102796.24239453</DistanceMeters>
          </Trackpoint>
          <Trackpoint>
            <Time>2019-07-26T16:28:18.000Z</Time>
            <Position>
              <LatitudeDegrees>42.88170330226421356201171875</LatitudeDegrees>
              <LongitudeDegrees>-8.54120367206633090972900390625</LongitudeDegrees>
            </Position>
            <AltitudeMeters>267.79998779296875</AltitudeMeters>
            <DistanceMeters>102810.85551356</DistanceMeters>
          </Trackpoint>
          <Trackpoint>
            <Time>2019-07-26T16:28:19.000Z</Time>
            <Position>
              <LatitudeDegrees>42.88169433362782001495361328125</LatitudeDegrees>
              <LongitudeDegrees>-8.54122437536716461181640625</LongitudeDegrees>
            </Position>
            <AltitudeMeters>267.79998779296875</AltitudeMeters>
            <DistanceMeters>102812.81684285</DistanceMeters>
          </Trackpoint>
          <Trackpoint>
            <Time>2019-07-26T16:28:24.000Z</Time>
            <Position>
              <LatitudeDegrees>42.8816897235810756683349609375</LatitudeDegrees>
              <LongitudeDegrees>-8.5413925163447856903076171875</LongitudeDegrees>
            </Position>
            <AltitudeMeters>268.79998779296875</AltitudeMeters>
            <DistanceMeters>102826.53956904</DistanceMeters>
          </Trackpoint>
          <Trackpoint>
            <Time>2019-07-26T16:28:26.000Z</Time>
            <Position>
              <LatitudeDegrees>42.88165879435837268829345703125</LatitudeDegrees>
              <LongitudeDegrees>-8.54142663069069385528564453125</LongitudeDegrees>
            </Position>
            <AltitudeMeters>269</AltitudeMeters>
            <DistanceMeters>102830.96622307</DistanceMeters>
          </Trackpoint>
          <Trackpoint>
            <Time>2019-07-26T16:28:31.000Z</Time>
            <Position>
              <LatitudeDegrees>42.88159911520779132843017578125</LatitudeDegrees>
              <LongitudeDegrees>-8.541521094739437103271484375</LongitudeDegrees>
            </Position>
            <AltitudeMeters>269.600006103515625</AltitudeMeters>
            <DistanceMeters>102841.13896488</DistanceMeters>
          </Trackpoint>
          <Trackpoint>
            <Time>2019-07-26T16:28:32.000Z</Time>
            <Position>
              <LatitudeDegrees>42.8815911523997783660888671875</LatitudeDegrees>
              <LongitudeDegrees>-8.54154833592474460601806640625</LongitudeDegrees>
            </Position>
            <AltitudeMeters>269.600006103515625</AltitudeMeters>
            <DistanceMeters>102843.53356267</DistanceMeters>
          </Trackpoint>
          <Trackpoint>
            <Time>2019-07-26T16:28:34.000Z</Time>
            <Position>
              <LatitudeDegrees>42.881575562059879302978515625</LatitudeDegrees>
              <LongitudeDegrees>-8.5416013933718204498291015625</LongitudeDegrees>
            </Position>
            <AltitudeMeters>270</AltitudeMeters>
            <DistanceMeters>102848.19665435</DistanceMeters>
          </Trackpoint>
          <Trackpoint>
            <Time>2019-07-26T16:28:38.000Z</Time>
            <Position>
              <LatitudeDegrees>42.88154664449393749237060546875</LatitudeDegrees>
              <LongitudeDegrees>-8.5416925884783267974853515625</LongitudeDegrees>
            </Position>
            <AltitudeMeters>270.600006103515625</AltitudeMeters>
            <DistanceMeters>102856.30126884</DistanceMeters>
          </Trackpoint>
          <Trackpoint>
            <Time>2019-07-26T16:28:41.000Z</Time>
            <Position>
              <LatitudeDegrees>42.881527282297611236572265625</LatitudeDegrees>
              <LongitudeDegrees>-8.54174883104860782623291015625</LongitudeDegrees>
            </Position>
            <AltitudeMeters>271</AltitudeMeters>
            <DistanceMeters>102861.36896432</DistanceMeters>
          </Trackpoint>
          <Trackpoint>
            <Time>2019-07-26T16:28:43.000Z</Time>
            <Position>
              <LatitudeDegrees>42.8815006278455257415771484375</LatitudeDegrees>
              <LongitudeDegrees>-8.5417697019875049591064453125</LongitudeDegrees>
            </Position>
            <AltitudeMeters>271.20001220703125</AltitudeMeters>
            <DistanceMeters>102864.78992603</DistanceMeters>
          </Trackpoint>
          <Trackpoint>
            <Time>2019-07-26T16:28:47.000Z</Time>
            <Position>
              <LatitudeDegrees>42.881478331983089447021484375</LatitudeDegrees>
              <LongitudeDegrees>-8.54186500422656536102294921875</LongitudeDegrees>
            </Position>
            <AltitudeMeters>271.399993896484375</AltitudeMeters>
            <DistanceMeters>102872.94895315</DistanceMeters>
          </Trackpoint>
          <Trackpoint>
            <Time>2019-07-26T16:28:48.000Z</Time>
            <Position>
              <LatitudeDegrees>42.881474979221820831298828125</LatitudeDegrees>
              <LongitudeDegrees>-8.54190775193274021148681640625</LongitudeDegrees>
            </Position>
            <AltitudeMeters>271.79998779296875</AltitudeMeters>
            <DistanceMeters>102876.45465337</DistanceMeters>
          </Trackpoint>
          <Trackpoint>
            <Time>2019-07-26T16:28:49.000Z</Time>
            <Position>
              <LatitudeDegrees>42.88147355429828166961669921875</LatitudeDegrees>
              <LongitudeDegrees>-8.54194815270602703094482421875</LongitudeDegrees>
            </Position>
            <AltitudeMeters>272</AltitudeMeters>
            <DistanceMeters>102879.75332616</DistanceMeters>
          </Trackpoint>
          <Trackpoint>
            <Time>2019-07-26T16:28:53.000Z</Time>
            <Position>
              <LatitudeDegrees>42.8814523480832576751708984375</LatitudeDegrees>
              <LongitudeDegrees>-8.54205988347530364990234375</LongitudeDegrees>
            </Position>
            <AltitudeMeters>272.79998779296875</AltitudeMeters>
            <DistanceMeters>102889.16720794</DistanceMeters>
          </Trackpoint>
          <Trackpoint>
            <Time>2019-07-26T16:28:54.000Z</Time>
            <Position>
              <LatitudeDegrees>42.8814518451690673828125</LatitudeDegrees>
              <LongitudeDegrees>-8.5420754738152027130126953125</LongitudeDegrees>
            </Position>
            <AltitudeMeters>273</AltitudeMeters>
            <DistanceMeters>102890.4421251</DistanceMeters>
          </Trackpoint>
          <Trackpoint>
            <Time>2019-07-26T16:28:55.000Z</Time>
            <Position>
              <LatitudeDegrees>42.8814493305981159210205078125</LatitudeDegrees>
              <LongitudeDegrees>-8.54208762757480144500732421875</LongitudeDegrees>
            </Position>
            <AltitudeMeters>273.20001220703125</AltitudeMeters>
            <DistanceMeters>102891.47437944</DistanceMeters>
          </Trackpoint>
          <Trackpoint>
            <Time>2019-07-26T16:28:57.000Z</Time>
            <Position>
              <LatitudeDegrees>42.8814443014562129974365234375</LatitudeDegrees>
              <LongitudeDegrees>-8.5421177186071872711181640625</LongitudeDegrees>
            </Position>
            <AltitudeMeters>273.399993896484375</AltitudeMeters>
            <DistanceMeters>102893.99213909</DistanceMeters>
          </Trackpoint>
          <Trackpoint>
            <Time>2019-07-26T16:28:59.000Z</Time>
            <Position>
              <LatitudeDegrees>42.8814181499183177947998046875</LatitudeDegrees>
              <LongitudeDegrees>-8.54214278049767017364501953125</LongitudeDegrees>
            </Position>
            <AltitudeMeters>273.79998779296875</AltitudeMeters>
            <DistanceMeters>102897.55025195</DistanceMeters>
          </Trackpoint>
          <Trackpoint>
            <Time>2019-07-26T16:29:00.000Z</Time>
            <Position>
              <LatitudeDegrees>42.8813941776752471923828125</LatitudeDegrees>
              <LongitudeDegrees>-8.54215954430401325225830078125</LongitudeDegrees>
            </Position>
            <AltitudeMeters>273.79998779296875</AltitudeMeters>
            <DistanceMeters>102900.54924447</DistanceMeters>
          </Trackpoint>
          <Trackpoint>
            <Time>2019-07-26T16:29:04.000Z</Time>
            <Position>
              <LatitudeDegrees>42.88126082159578800201416015625</LatitudeDegrees>
              <LongitudeDegrees>-8.54226046241819858551025390625</LongitudeDegrees>
            </Position>
            <AltitudeMeters>274</AltitudeMeters>
            <DistanceMeters>102917.52129233</DistanceMeters>
          </Trackpoint>
          <Trackpoint>
            <Time>2019-07-26T16:29:06.000Z</Time>
            <Position>
              <LatitudeDegrees>42.88122653961181640625</LatitudeDegrees>
              <LongitudeDegrees>-8.54234310798346996307373046875</LongitudeDegrees>
            </Position>
            <AltitudeMeters>274</AltitudeMeters>
            <DistanceMeters>102925.26582381</DistanceMeters>
          </Trackpoint>
          <Trackpoint>
            <Time>2019-07-26T16:29:07.000Z</Time>
            <Position>
              <LatitudeDegrees>42.88121237419545650482177734375</LatitudeDegrees>
              <LongitudeDegrees>-8.54238384403288364410400390625</LongitudeDegrees>
            </Position>
            <AltitudeMeters>274</AltitudeMeters>
            <DistanceMeters>102928.94496563</DistanceMeters>
          </Trackpoint>
          <Trackpoint>
            <Time>2019-07-26T16:29:09.000Z</Time>
            <Position>
              <LatitudeDegrees>42.88119443692266941070556640625</LatitudeDegrees>
              <LongitudeDegrees>-8.54244302026927471160888671875</LongitudeDegrees>
            </Position>
            <AltitudeMeters>273.79998779296875</AltitudeMeters>
            <DistanceMeters>102934.16711374</DistanceMeters>
          </Trackpoint>
          <Trackpoint>
            <Time>2019-07-26T16:29:11.000Z</Time>
            <Position>
              <LatitudeDegrees>42.88118789903819561004638671875</LatitudeDegrees>
              <LongitudeDegrees>-8.542486689984798431396484375</LongitudeDegrees>
            </Position>
            <AltitudeMeters>273.600006103515625</AltitudeMeters>
            <DistanceMeters>102937.80304992</DistanceMeters>
          </Trackpoint>
          <Trackpoint>
            <Time>2019-07-26T16:29:13.000Z</Time>
            <Position>
              <LatitudeDegrees>42.8811849653720855712890625</LatitudeDegrees>
              <LongitudeDegrees>-8.5425307787954807281494140625</LongitudeDegrees>
            </Position>
            <AltitudeMeters>273.399993896484375</AltitudeMeters>
            <DistanceMeters>102941.41406507</DistanceMeters>
          </Trackpoint>
          <Trackpoint>
            <Time>2019-07-26T16:29:15.000Z</Time>
            <Position>
              <LatitudeDegrees>42.88117750547826290130615234375</LatitudeDegrees>
              <LongitudeDegrees>-8.542575873434543609619140625</LongitudeDegrees>
            </Position>
            <AltitudeMeters>273</AltitudeMeters>
            <DistanceMeters>102945.18532088</DistanceMeters>
          </Trackpoint>
          <Trackpoint>
            <Time>2019-07-26T16:29:20.000Z</Time>
            <Position>
              <LatitudeDegrees>42.88118429481983184814453125</LatitudeDegrees>
              <LongitudeDegrees>-8.5427574254572391510009765625</LongitudeDegrees>
            </Position>
            <AltitudeMeters>272.79998779296875</AltitudeMeters>
            <DistanceMeters>102960.0119247</DistanceMeters>
          </Trackpoint>
          <Trackpoint>
            <Time>2019-07-26T16:29:26.000Z</Time>
            <Position>
              <LatitudeDegrees>42.88116577081382274627685546875</LatitudeDegrees>
              <LongitudeDegrees>-8.54304148815572261810302734375</LongitudeDegrees>
            </Position>
            <AltitudeMeters>272.600006103515625</AltitudeMeters>
            <DistanceMeters>102983.27115684</DistanceMeters>
          </Trackpoint>
          <Trackpoint>
            <Time>2019-07-26T16:29:28.000Z</Time>
            <Position>
              <LatitudeDegrees>42.881147749722003936767578125</LatitudeDegrees>
              <LongitudeDegrees>-8.54312472045421600341796875</LongitudeDegrees>
            </Position>
            <AltitudeMeters>272.600006103515625</AltitudeMeters>
            <DistanceMeters>102990.34984982</DistanceMeters>
          </Trackpoint>
          <Trackpoint>
            <Time>2019-07-26T16:29:29.000Z</Time>
            <Position>
              <LatitudeDegrees>42.8811167366802692413330078125</LatitudeDegrees>
              <LongitudeDegrees>-8.5431607626378536224365234375</LongitudeDegrees>
            </Position>
            <AltitudeMeters>272.600006103515625</AltitudeMeters>
            <DistanceMeters>102994.88432708</DistanceMeters>
          </Trackpoint>
          <Trackpoint>
            <Time>2019-07-26T16:29:31.000Z</Time>
            <Position>
              <LatitudeDegrees>42.88111380301415920257568359375</LatitudeDegrees>
              <LongitudeDegrees>-8.54322002269327640533447265625</LongitudeDegrees>
            </Position>
            <AltitudeMeters>272.399993896484375</AltitudeMeters>
            <DistanceMeters>102999.72882589</DistanceMeters>
          </Trackpoint>
          <Trackpoint>
            <Time>2019-07-26T16:29:32.000Z</Time>
            <Position>
              <LatitudeDegrees>42.88111447356641292572021484375</LatitudeDegrees>
              <LongitudeDegrees>-8.54325053282082080841064453125</LongitudeDegrees>
            </Position>
            <AltitudeMeters>272.20001220703125</AltitudeMeters>
            <DistanceMeters>103002.22135324</DistanceMeters>
          </Trackpoint>
          <Trackpoint>
            <Time>2019-07-26T16:29:36.000Z</Time>
            <Position>
              <LatitudeDegrees>42.88111480884253978729248046875</LatitudeDegrees>
              <LongitudeDegrees>-8.54336167685687541961669921875</LongitudeDegrees>
            </Position>
            <AltitudeMeters>271.399993896484375</AltitudeMeters>
            <DistanceMeters>103011.2868221</DistanceMeters>
          </Trackpoint>
          <Trackpoint>
            <Time>2019-07-26T16:29:37.000Z</Time>
            <Position>
              <LatitudeDegrees>42.881116233766078948974609375</LatitudeDegrees>
              <LongitudeDegrees>-8.5433864034712314605712890625</LongitudeDegrees>
            </Position>
            <AltitudeMeters>271.399993896484375</AltitudeMeters>
            <DistanceMeters>103013.30711776</DistanceMeters>
          </Trackpoint>
          <Trackpoint>
            <Time>2019-07-26T16:29:39.000Z</Time>
            <Position>
              <LatitudeDegrees>42.88112168200314044952392578125</LatitudeDegrees>
              <LongitudeDegrees>-8.54342705570161342620849609375</LongitudeDegrees>
            </Position>
            <AltitudeMeters>271</AltitudeMeters>
            <DistanceMeters>103016.67755337</DistanceMeters>
          </Trackpoint>
          <Trackpoint>
            <Time>2019-07-26T16:29:42.000Z</Time>
            <Position>
              <LatitudeDegrees>42.88113794289529323577880859375</LatitudeDegrees>
              <LongitudeDegrees>-8.54352545924484729766845703125</LongitudeDegrees>
            </Position>
            <AltitudeMeters>270</AltitudeMeters>
            <DistanceMeters>103024.90491339</DistanceMeters>
          </Trackpoint>
          <Trackpoint>
            <Time>2019-07-26T16:29:43.000Z</Time>
            <Position>
              <LatitudeDegrees>42.88119091652333736419677734375</LatitudeDegrees>
              <LongitudeDegrees>-8.54360374622046947479248046875</LongitudeDegrees>
            </Position>
            <AltitudeMeters>269.399993896484375</AltitudeMeters>
            <DistanceMeters>103033.5966117</DistanceMeters>
          </Trackpoint>
          <Trackpoint>
            <Time>2019-07-26T16:29:47.000Z</Time>
            <Position>
              <LatitudeDegrees>42.8812397830188274383544921875</LatitudeDegrees>
              <LongitudeDegrees>-8.5438383556902408599853515625</LongitudeDegrees>
            </Position>
            <AltitudeMeters>268.79998779296875</AltitudeMeters>
            <DistanceMeters>103053.48922365</DistanceMeters>
          </Trackpoint>
          <Trackpoint>
            <Time>2019-07-26T16:29:48.000Z</Time>
            <Position>
              <LatitudeDegrees>42.88124673999845981597900390625</LatitudeDegrees>
              <LongitudeDegrees>-8.5438884794712066650390625</LongitudeDegrees>
            </Position>
            <AltitudeMeters>268.600006103515625</AltitudeMeters>
            <DistanceMeters>103057.64983136</DistanceMeters>
          </Trackpoint>
          <Trackpoint>
            <Time>2019-07-26T16:29:52.000Z</Time>
            <Position>
              <LatitudeDegrees>42.88126400671899318695068359375</LatitudeDegrees>
              <LongitudeDegrees>-8.543996103107929229736328125</LongitudeDegrees>
            </Position>
            <AltitudeMeters>268.399993896484375</AltitudeMeters>
            <DistanceMeters>103066.6352592</DistanceMeters>
          </Trackpoint>
          <Trackpoint>
            <Time>2019-07-26T16:29:56.000Z</Time>
            <Position>
              <LatitudeDegrees>42.88122628815472126007080078125</LatitudeDegrees>
              <LongitudeDegrees>-8.544111438095569610595703125</LongitudeDegrees>
            </Position>
            <AltitudeMeters>267.600006103515625</AltitudeMeters>
            <DistanceMeters>103076.93590958</DistanceMeters>
          </Trackpoint>
          <Trackpoint>
            <Time>2019-07-26T16:29:58.000Z</Time>
            <Position>
              <LatitudeDegrees>42.8811797685921192169189453125</LatitudeDegrees>
              <LongitudeDegrees>-8.5441702790558338165283203125</LongitudeDegrees>
            </Position>
            <AltitudeMeters>266.79998779296875</AltitudeMeters>
            <DistanceMeters>103083.99480197</DistanceMeters>
          </Trackpoint>
          <Trackpoint>
            <Time>2019-07-26T16:30:00.000Z</Time>
            <Position>
              <LatitudeDegrees>42.88116275332868099212646484375</LatitudeDegrees>
              <LongitudeDegrees>-8.54424328543245792388916015625</LongitudeDegrees>
            </Position>
            <AltitudeMeters>266.399993896484375</AltitudeMeters>
            <DistanceMeters>103090.24276328</DistanceMeters>
          </Trackpoint>
          <Trackpoint>
            <Time>2019-07-26T16:30:01.000Z</Time>
            <Position>
              <LatitudeDegrees>42.88115755654871463775634765625</LatitudeDegrees>
              <LongitudeDegrees>-8.544285781681537628173828125</LongitudeDegrees>
            </Position>
            <AltitudeMeters>266.20001220703125</AltitudeMeters>
            <DistanceMeters>103093.75746733</DistanceMeters>
          </Trackpoint>
          <Trackpoint>
            <Time>2019-07-26T16:30:02.000Z</Time>
            <Position>
              <LatitudeDegrees>42.88115403614938259124755859375</LatitudeDegrees>
              <LongitudeDegrees>-8.54432727210223674774169921875</LongitudeDegrees>
            </Position>
            <AltitudeMeters>266</AltitudeMeters>
            <DistanceMeters>103097.16255443</DistanceMeters>
          </Trackpoint>
          <Trackpoint>
            <Time>2019-07-26T16:30:04.000Z</Time>
            <Position>
              <LatitudeDegrees>42.881177924573421478271484375</LatitudeDegrees>
              <LongitudeDegrees>-8.54440958239138126373291015625</LongitudeDegrees>
            </Position>
            <AltitudeMeters>265.79998779296875</AltitudeMeters>
            <DistanceMeters>103104.38270895</DistanceMeters>
          </Trackpoint>
          <Trackpoint>
            <Time>2019-07-26T16:30:06.000Z</Time>
            <Position>
              <LatitudeDegrees>42.881179265677928924560546875</LatitudeDegrees>
              <LongitudeDegrees>-8.54451837949454784393310546875</LongitudeDegrees>
            </Position>
            <AltitudeMeters>265.600006103515625</AltitudeMeters>
            <DistanceMeters>103113.25690168</DistanceMeters>
          </Trackpoint>
          <Trackpoint>
            <Time>2019-07-26T16:30:07.000Z</Time>
            <Position>
              <LatitudeDegrees>42.881159149110317230224609375</LatitudeDegrees>
              <LongitudeDegrees>-8.544566743075847625732421875</LongitudeDegrees>
            </Position>
            <AltitudeMeters>265.20001220703125</AltitudeMeters>
            <DistanceMeters>103117.79237455</DistanceMeters>
          </Trackpoint>
          <Trackpoint>
            <Time>2019-07-26T16:30:09.000Z</Time>
            <Position>
              <LatitudeDegrees>42.88111179135739803314208984375</LatitudeDegrees>
              <LongitudeDegrees>-8.5446782223880290985107421875</LongitudeDegrees>
            </Position>
            <AltitudeMeters>265</AltitudeMeters>
            <DistanceMeters>103128.30174489</DistanceMeters>
          </Trackpoint>
          <Trackpoint>
            <Time>2019-07-26T16:30:11.000Z</Time>
            <Position>
              <LatitudeDegrees>42.88108396343886852264404296875</LatitudeDegrees>
              <LongitudeDegrees>-8.5447918809950351715087890625</LongitudeDegrees>
            </Position>
            <AltitudeMeters>264.20001220703125</AltitudeMeters>
            <DistanceMeters>103138.07518588</DistanceMeters>
          </Trackpoint>
          <Trackpoint>
            <Time>2019-07-26T16:30:14.000Z</Time>
            <Position>
              <LatitudeDegrees>42.881039120256900787353515625</LatitudeDegrees>
              <LongitudeDegrees>-8.54489455930888652801513671875</LongitudeDegrees>
            </Position>
            <AltitudeMeters>263.79998779296875</AltitudeMeters>
            <DistanceMeters>103147.82364855</DistanceMeters>
          </Trackpoint>
          <Trackpoint>
            <Time>2019-07-26T16:30:17.000Z</Time>
            <Position>
              <LatitudeDegrees>42.88099293597042560577392578125</LatitudeDegrees>
              <LongitudeDegrees>-8.54492154903709888458251953125</LongitudeDegrees>
            </Position>
            <AltitudeMeters>263</AltitudeMeters>
            <DistanceMeters>103153.41490285</DistanceMeters>
          </Trackpoint>
          <Trackpoint>
            <Time>2019-07-26T16:30:18.000Z</Time>
            <Position>
              <LatitudeDegrees>42.88097918964922428131103515625</LatitudeDegrees>
              <LongitudeDegrees>-8.54492657817900180816650390625</LongitudeDegrees>
            </Position>
            <AltitudeMeters>262.399993896484375</AltitudeMeters>
            <DistanceMeters>103155.00216191</DistanceMeters>
          </Trackpoint>
          <Trackpoint>
            <Time>2019-07-26T16:30:19.000Z</Time>
            <Position>
              <LatitudeDegrees>42.88097181357443332672119140625</LatitudeDegrees>
              <LongitudeDegrees>-8.54492674581706523895263671875</LongitudeDegrees>
            </Position>
            <AltitudeMeters>261.600006103515625</AltitudeMeters>
            <DistanceMeters>103155.81961262</DistanceMeters>
          </Trackpoint>
          <Trackpoint>
            <Time>2019-07-26T16:30:21.000Z</Time>
            <Position>
              <LatitudeDegrees>42.8809889964759349822998046875</LatitudeDegrees>
              <LongitudeDegrees>-8.544918783009052276611328125</LongitudeDegrees>
            </Position>
            <AltitudeMeters>260.600006103515625</AltitudeMeters>
            <DistanceMeters>103157.83990828</DistanceMeters>
          </Trackpoint>
          <Trackpoint>
            <Time>2019-07-26T16:30:42.000Z</Time>
            <Position>
              <LatitudeDegrees>42.88077517412602901458740234375</LatitudeDegrees>
              <LongitudeDegrees>-8.5453035123646259307861328125</LongitudeDegrees>
            </Position>
            <AltitudeMeters>256</AltitudeMeters>
            <DistanceMeters>103197.22203302</DistanceMeters>
          </Trackpoint>
          <Trackpoint>
            <Time>2019-07-26T16:30:43.000Z</Time>
            <Position>
              <LatitudeDegrees>42.88077056407928466796875</LatitudeDegrees>
              <LongitudeDegrees>-8.54535925202071666717529296875</LongitudeDegrees>
            </Position>
            <AltitudeMeters>256</AltitudeMeters>
            <DistanceMeters>103201.79616541</DistanceMeters>
          </Trackpoint>
          <Trackpoint>
            <Time>2019-07-26T16:30:44.000Z</Time>
            <Position>
              <LatitudeDegrees>42.880784980952739715576171875</LatitudeDegrees>
              <LongitudeDegrees>-8.545472323894500732421875</LongitudeDegrees>
            </Position>
            <AltitudeMeters>256</AltitudeMeters>
            <DistanceMeters>103211.15617619</DistanceMeters>
          </Trackpoint>
          <Trackpoint>
            <Time>2019-07-26T16:30:46.000Z</Time>
            <Position>
              <LatitudeDegrees>42.8807692229747772216796875</LatitudeDegrees>
              <LongitudeDegrees>-8.545583970844745635986328125</LongitudeDegrees>
            </Position>
            <AltitudeMeters>255.399993896484375</AltitudeMeters>
            <DistanceMeters>103220.4289529</DistanceMeters>
          </Trackpoint>
          <Trackpoint>
            <Time>2019-07-26T16:30:48.000Z</Time>
            <Position>
              <LatitudeDegrees>42.880746759474277496337890625</LatitudeDegrees>
              <LongitudeDegrees>-8.5456786863505840301513671875</LongitudeDegrees>
            </Position>
            <AltitudeMeters>254.8000030517578125</AltitudeMeters>
            <DistanceMeters>103228.54859501</DistanceMeters>
          </Trackpoint>
          <Trackpoint>
            <Time>2019-07-26T16:30:50.000Z</Time>
            <Position>
              <LatitudeDegrees>42.88068942725658416748046875</LatitudeDegrees>
              <LongitudeDegrees>-8.54570877738296985626220703125</LongitudeDegrees>
            </Position>
            <AltitudeMeters>254.1999969482421875</AltitudeMeters>
            <DistanceMeters>103235.38589753</DistanceMeters>
          </Trackpoint>
          <Trackpoint>
            <Time>2019-07-26T16:30:52.000Z</Time>
            <Position>
              <LatitudeDegrees>42.88063687272369861602783203125</LatitudeDegrees>
              <LongitudeDegrees>-8.54574129916727542877197265625</LongitudeDegrees>
            </Position>
            <AltitudeMeters>254.1999969482421875</AltitudeMeters>
            <DistanceMeters>103241.80987211</DistanceMeters>
          </Trackpoint>
          <Trackpoint>
            <Time>2019-07-26T16:30:53.000Z</Time>
            <Position>
              <LatitudeDegrees>42.8806128166615962982177734375</LatitudeDegrees>
              <LongitudeDegrees>-8.545760326087474822998046875</LongitudeDegrees>
            </Position>
            <AltitudeMeters>254</AltitudeMeters>
            <DistanceMeters>103244.90663513</DistanceMeters>
          </Trackpoint>
          <Trackpoint>
            <Time>2019-07-26T16:30:54.000Z</Time>
            <Position>
              <LatitudeDegrees>42.88058389909565448760986328125</LatitudeDegrees>
              <LongitudeDegrees>-8.54577449150383472442626953125</LongitudeDegrees>
            </Position>
            <AltitudeMeters>254</AltitudeMeters>
            <DistanceMeters>103248.32759684</DistanceMeters>
          </Trackpoint>
          <Trackpoint>
            <Time>2019-07-26T16:30:56.000Z</Time>
            <Position>
              <LatitudeDegrees>42.880518101155757904052734375</LatitudeDegrees>
              <LongitudeDegrees>-8.545785807073116302490234375</LongitudeDegrees>
            </Position>
            <AltitudeMeters>253.600006103515625</AltitudeMeters>
            <DistanceMeters>103255.70916045</DistanceMeters>
          </Trackpoint>
          <Trackpoint>
            <Time>2019-07-26T16:30:58.000Z</Time>
            <Position>
              <LatitudeDegrees>42.88045079447329044342041015625</LatitudeDegrees>
              <LongitudeDegrees>-8.545793183147907257080078125</LongitudeDegrees>
            </Position>
            <AltitudeMeters>253.399993896484375</AltitudeMeters>
            <DistanceMeters>103263.22468626</DistanceMeters>
          </Trackpoint>
          <Trackpoint>
            <Time>2019-07-26T16:31:03.000Z</Time>
            <Position>
              <LatitudeDegrees>42.88031433708965778350830078125</LatitudeDegrees>
              <LongitudeDegrees>-8.545888401567935943603515625</LongitudeDegrees>
            </Position>
            <AltitudeMeters>253.1999969482421875</AltitudeMeters>
            <DistanceMeters>103280.28297407</DistanceMeters>
          </Trackpoint>
          <Trackpoint>
            <Time>2019-07-26T16:31:07.000Z</Time>
            <Position>
              <LatitudeDegrees>42.88021425716578960418701171875</LatitudeDegrees>
              <LongitudeDegrees>-8.54590977542102336883544921875</LongitudeDegrees>
            </Position>
            <AltitudeMeters>253.1999969482421875</AltitudeMeters>
            <DistanceMeters>103291.55796481</DistanceMeters>
          </Trackpoint>
          <Trackpoint>
            <Time>2019-07-26T16:31:08.000Z</Time>
            <Position>
              <LatitudeDegrees>42.8802017681300640106201171875</LatitudeDegrees>
              <LongitudeDegrees>-8.54588597081601619720458984375</LongitudeDegrees>
            </Position>
            <AltitudeMeters>253.1999969482421875</AltitudeMeters>
            <DistanceMeters>103293.94500864</DistanceMeters>
          </Trackpoint>
          <Trackpoint>
            <Time>2019-07-26T16:31:10.000Z</Time>
            <Position>
              <LatitudeDegrees>42.8801960684359073638916015625</LatitudeDegrees>
              <LongitudeDegrees>-8.5458188317716121673583984375</LongitudeDegrees>
            </Position>
            <AltitudeMeters>253.1999969482421875</AltitudeMeters>
            <DistanceMeters>103299.45655808</DistanceMeters>
          </Trackpoint>
          <Trackpoint>
            <Time>2019-07-26T16:31:12.000Z</Time>
            <Position>
              <LatitudeDegrees>42.88022942841053009033203125</LatitudeDegrees>
              <LongitudeDegrees>-8.54577113874256610870361328125</LongitudeDegrees>
            </Position>
            <AltitudeMeters>253.1999969482421875</AltitudeMeters>
            <DistanceMeters>103304.83459999</DistanceMeters>
          </Trackpoint>
          <Trackpoint>
            <Time>2019-07-26T16:31:16.000Z</Time>
            <Position>
              <LatitudeDegrees>42.88033545948565006256103515625</LatitudeDegrees>
              <LongitudeDegrees>-8.5457930155098438262939453125</LongitudeDegrees>
            </Position>
            <AltitudeMeters>253.399993896484375</AltitudeMeters>
            <DistanceMeters>103316.77019742</DistanceMeters>
          </Trackpoint>
          <Trackpoint>
            <Time>2019-07-26T16:31:19.000Z</Time>
            <Position>
              <LatitudeDegrees>42.88033797405660152435302734375</LatitudeDegrees>
              <LongitudeDegrees>-8.5458076000213623046875</LongitudeDegrees>
            </Position>
            <AltitudeMeters>253.399993896484375</AltitudeMeters>
            <DistanceMeters>103317.99453099</DistanceMeters>
          </Trackpoint>
        </Track>
      </Lap>
    </Activity>
  </Activities>
</TrainingCenterDatabase>
